<?xml version="1.0" encoding="UTF-8" standalone="no" ?>
<gpx xmlns="http://www.topografix.com/GPX/1/1" xmlns:xsi="http://www.w3.org/2001/XMLSchema-instance" xsi:schemaLocation="http://www.topografix.com/GPX/1/1 http://www.topografix.com/GPX/1/1/gpx.xsd" version="1.1" creator="VisuGPX - https://www.visugpx.com">
  <metadata>
    <name>Gorges du Freser</name>
    <desc><![CDATA[Superbe randonnée ]]></desc>
  </metadata>
  <trk>
    <name><![CDATA[Gorges del Freser]]></name>
    <extensions>
      <line xmlns="http://www.topografix.com/GPX/gpx_style/0/2">
        <color>0000FF</color>
        <width>4</width>
      </line>
    </extensions>
    <trkseg>
      <trkpt lat="42.36212" lon="2.17499">
        <ele>1190.3</ele>
        <time>2024-09-25T08:30:35Z</time>
      </trkpt>
      <trkpt lat="42.36212" lon="2.17499">
        <ele>1190.3</ele>
        <time>2024-09-25T08:30:36Z</time>
      </trkpt>
      <trkpt lat="42.36212" lon="2.17499">
        <ele>1190.3</ele>
        <time>2024-09-25T08:30:37Z</time>
      </trkpt>
      <trkpt lat="42.36213" lon="2.17499">
        <ele>1190.3</ele>
        <time>2024-09-25T08:30:38Z</time>
      </trkpt>
      <trkpt lat="42.36214" lon="2.17501">
        <ele>1190.4</ele>
        <time>2024-09-25T08:30:40Z</time>
      </trkpt>
      <trkpt lat="42.36215" lon="2.17502">
        <ele>1190.5</ele>
        <time>2024-09-25T08:30:41Z</time>
      </trkpt>
      <trkpt lat="42.36215" lon="2.17502">
        <ele>1190.5</ele>
        <time>2024-09-25T08:30:42Z</time>
      </trkpt>
      <trkpt lat="42.36215" lon="2.17502">
        <ele>1190.5</ele>
        <time>2024-09-25T08:30:43Z</time>
      </trkpt>
      <trkpt lat="42.36216" lon="2.17502">
        <ele>1190.5</ele>
        <time>2024-09-25T08:30:44Z</time>
      </trkpt>
      <trkpt lat="42.36217" lon="2.17502">
        <ele>1190.6</ele>
        <time>2024-09-25T08:30:45Z</time>
      </trkpt>
      <trkpt lat="42.36219" lon="2.17502">
        <ele>1190.7</ele>
        <time>2024-09-25T08:30:46Z</time>
      </trkpt>
      <trkpt lat="42.3622" lon="2.17502">
        <ele>1190.7</ele>
        <time>2024-09-25T08:30:47Z</time>
      </trkpt>
      <trkpt lat="42.36221" lon="2.17502">
        <ele>1190.8</ele>
        <time>2024-09-25T08:30:48Z</time>
      </trkpt>
      <trkpt lat="42.36222" lon="2.17502">
        <ele>1190.8</ele>
        <time>2024-09-25T08:30:49Z</time>
      </trkpt>
      <trkpt lat="42.36223" lon="2.17502">
        <ele>1190.9</ele>
        <time>2024-09-25T08:30:50Z</time>
      </trkpt>
      <trkpt lat="42.36224" lon="2.17502">
        <ele>1190.9</ele>
        <time>2024-09-25T08:30:51Z</time>
      </trkpt>
      <trkpt lat="42.36225" lon="2.17501">
        <ele>1191</ele>
        <time>2024-09-25T08:30:52Z</time>
      </trkpt>
      <trkpt lat="42.36227" lon="2.17501">
        <ele>1191</ele>
        <time>2024-09-25T08:30:53Z</time>
      </trkpt>
      <trkpt lat="42.36228" lon="2.17501">
        <ele>1191.1</ele>
        <time>2024-09-25T08:30:54Z</time>
      </trkpt>
      <trkpt lat="42.36229" lon="2.175">
        <ele>1191.1</ele>
        <time>2024-09-25T08:30:55Z</time>
      </trkpt>
      <trkpt lat="42.36229" lon="2.175">
        <ele>1191.1</ele>
        <time>2024-09-25T08:30:56Z</time>
      </trkpt>
      <trkpt lat="42.3623" lon="2.175">
        <ele>1191.1</ele>
        <time>2024-09-25T08:30:57Z</time>
      </trkpt>
      <trkpt lat="42.36231" lon="2.17499">
        <ele>1191.2</ele>
        <time>2024-09-25T08:30:58Z</time>
      </trkpt>
      <trkpt lat="42.36231" lon="2.17497">
        <ele>1191.2</ele>
        <time>2024-09-25T08:30:59Z</time>
      </trkpt>
      <trkpt lat="42.3623" lon="2.17497">
        <ele>1191.2</ele>
        <time>2024-09-25T08:31:00Z</time>
      </trkpt>
      <trkpt lat="42.3623" lon="2.17496">
        <ele>1191.2</ele>
        <time>2024-09-25T08:31:01Z</time>
      </trkpt>
      <trkpt lat="42.36231" lon="2.17496">
        <ele>1191.3</ele>
        <time>2024-09-25T08:31:02Z</time>
      </trkpt>
      <trkpt lat="42.36231" lon="2.17495">
        <ele>1191.3</ele>
        <time>2024-09-25T08:31:03Z</time>
      </trkpt>
      <trkpt lat="42.36231" lon="2.17494">
        <ele>1191.3</ele>
        <time>2024-09-25T08:31:04Z</time>
      </trkpt>
      <trkpt lat="42.36232" lon="2.17493">
        <ele>1191.4</ele>
        <time>2024-09-25T08:31:05Z</time>
      </trkpt>
      <trkpt lat="42.36232" lon="2.17493">
        <ele>1191.4</ele>
        <time>2024-09-25T08:31:06Z</time>
      </trkpt>
      <trkpt lat="42.36232" lon="2.17493">
        <ele>1191.4</ele>
        <time>2024-09-25T08:31:07Z</time>
      </trkpt>
      <trkpt lat="42.36233" lon="2.17493">
        <ele>1191.4</ele>
        <time>2024-09-25T08:31:08Z</time>
      </trkpt>
      <trkpt lat="42.36234" lon="2.17493">
        <ele>1191.4</ele>
        <time>2024-09-25T08:31:09Z</time>
      </trkpt>
      <trkpt lat="42.36234" lon="2.17492">
        <ele>1191.4</ele>
        <time>2024-09-25T08:31:10Z</time>
      </trkpt>
      <trkpt lat="42.36236" lon="2.1749">
        <ele>1191.5</ele>
        <time>2024-09-25T08:31:11Z</time>
      </trkpt>
      <trkpt lat="42.36237" lon="2.1749">
        <ele>1191.5</ele>
        <time>2024-09-25T08:31:12Z</time>
      </trkpt>
      <trkpt lat="42.36237" lon="2.1749">
        <ele>1191.5</ele>
        <time>2024-09-25T08:31:13Z</time>
      </trkpt>
      <trkpt lat="42.36239" lon="2.1749">
        <ele>1191.5</ele>
        <time>2024-09-25T08:31:14Z</time>
      </trkpt>
      <trkpt lat="42.36242" lon="2.17489">
        <ele>1191.5</ele>
        <time>2024-09-25T08:31:15Z</time>
      </trkpt>
      <trkpt lat="42.36243" lon="2.17489">
        <ele>1191.6</ele>
        <time>2024-09-25T08:31:16Z</time>
      </trkpt>
      <trkpt lat="42.36244" lon="2.17488">
        <ele>1191.6</ele>
        <time>2024-09-25T08:31:17Z</time>
      </trkpt>
      <trkpt lat="42.36245" lon="2.17488">
        <ele>1191.6</ele>
        <time>2024-09-25T08:31:18Z</time>
      </trkpt>
      <trkpt lat="42.36245" lon="2.17487">
        <ele>1191.6</ele>
        <time>2024-09-25T08:31:19Z</time>
      </trkpt>
      <trkpt lat="42.36246" lon="2.17486">
        <ele>1191.6</ele>
        <time>2024-09-25T08:31:20Z</time>
      </trkpt>
      <trkpt lat="42.36246" lon="2.17485">
        <ele>1191.6</ele>
        <time>2024-09-25T08:31:21Z</time>
      </trkpt>
      <trkpt lat="42.36246" lon="2.17484">
        <ele>1191.6</ele>
        <time>2024-09-25T08:31:22Z</time>
      </trkpt>
      <trkpt lat="42.36246" lon="2.17483">
        <ele>1191.7</ele>
        <time>2024-09-25T08:31:23Z</time>
      </trkpt>
      <trkpt lat="42.36247" lon="2.17482">
        <ele>1191.7</ele>
        <time>2024-09-25T08:31:24Z</time>
      </trkpt>
      <trkpt lat="42.36249" lon="2.17482">
        <ele>1191.7</ele>
        <time>2024-09-25T08:31:25Z</time>
      </trkpt>
      <trkpt lat="42.36251" lon="2.17481">
        <ele>1191.7</ele>
        <time>2024-09-25T08:31:26Z</time>
      </trkpt>
      <trkpt lat="42.36252" lon="2.17481">
        <ele>1191.8</ele>
        <time>2024-09-25T08:31:27Z</time>
      </trkpt>
      <trkpt lat="42.36253" lon="2.17481">
        <ele>1191.8</ele>
        <time>2024-09-25T08:31:28Z</time>
      </trkpt>
      <trkpt lat="42.36255" lon="2.17481">
        <ele>1191.8</ele>
        <time>2024-09-25T08:31:29Z</time>
      </trkpt>
      <trkpt lat="42.36255" lon="2.17482">
        <ele>1191.8</ele>
        <time>2024-09-25T08:31:30Z</time>
      </trkpt>
      <trkpt lat="42.36257" lon="2.17481">
        <ele>1191.8</ele>
        <time>2024-09-25T08:31:31Z</time>
      </trkpt>
      <trkpt lat="42.36258" lon="2.1748">
        <ele>1191.8</ele>
        <time>2024-09-25T08:31:32Z</time>
      </trkpt>
      <trkpt lat="42.36259" lon="2.1748">
        <ele>1191.9</ele>
        <time>2024-09-25T08:31:33Z</time>
      </trkpt>
      <trkpt lat="42.36261" lon="2.17481">
        <ele>1191.9</ele>
        <time>2024-09-25T08:31:34Z</time>
      </trkpt>
      <trkpt lat="42.36262" lon="2.17481">
        <ele>1191.9</ele>
        <time>2024-09-25T08:31:35Z</time>
      </trkpt>
      <trkpt lat="42.36264" lon="2.1748">
        <ele>1191.9</ele>
        <time>2024-09-25T08:31:36Z</time>
      </trkpt>
      <trkpt lat="42.36265" lon="2.1748">
        <ele>1192</ele>
        <time>2024-09-25T08:31:37Z</time>
      </trkpt>
      <trkpt lat="42.36265" lon="2.17481">
        <ele>1192</ele>
        <time>2024-09-25T08:31:38Z</time>
      </trkpt>
      <trkpt lat="42.36266" lon="2.17481">
        <ele>1192</ele>
        <time>2024-09-25T08:31:39Z</time>
      </trkpt>
      <trkpt lat="42.36266" lon="2.17481">
        <ele>1192</ele>
        <time>2024-09-25T08:31:40Z</time>
      </trkpt>
      <trkpt lat="42.36268" lon="2.17479">
        <ele>1192</ele>
        <time>2024-09-25T08:31:41Z</time>
      </trkpt>
      <trkpt lat="42.36269" lon="2.17478">
        <ele>1192</ele>
        <time>2024-09-25T08:31:42Z</time>
      </trkpt>
      <trkpt lat="42.36269" lon="2.17477">
        <ele>1192</ele>
        <time>2024-09-25T08:31:43Z</time>
      </trkpt>
      <trkpt lat="42.36271" lon="2.17476">
        <ele>1192.1</ele>
        <time>2024-09-25T08:31:44Z</time>
      </trkpt>
      <trkpt lat="42.36272" lon="2.17476">
        <ele>1192.1</ele>
        <time>2024-09-25T08:31:45Z</time>
      </trkpt>
      <trkpt lat="42.36273" lon="2.17475">
        <ele>1192.1</ele>
        <time>2024-09-25T08:31:46Z</time>
      </trkpt>
      <trkpt lat="42.36274" lon="2.17474">
        <ele>1192.2</ele>
        <time>2024-09-25T08:31:47Z</time>
      </trkpt>
      <trkpt lat="42.36275" lon="2.17472">
        <ele>1192.2</ele>
        <time>2024-09-25T08:31:48Z</time>
      </trkpt>
      <trkpt lat="42.36275" lon="2.17473">
        <ele>1192.2</ele>
        <time>2024-09-25T08:31:49Z</time>
      </trkpt>
      <trkpt lat="42.36276" lon="2.17474">
        <ele>1192.2</ele>
        <time>2024-09-25T08:31:50Z</time>
      </trkpt>
      <trkpt lat="42.36276" lon="2.17476">
        <ele>1192.3</ele>
        <time>2024-09-25T08:31:51Z</time>
      </trkpt>
      <trkpt lat="42.36277" lon="2.17477">
        <ele>1192.3</ele>
        <time>2024-09-25T08:31:52Z</time>
      </trkpt>
      <trkpt lat="42.36278" lon="2.17476">
        <ele>1192.3</ele>
        <time>2024-09-25T08:31:53Z</time>
      </trkpt>
      <trkpt lat="42.36278" lon="2.17474">
        <ele>1192.4</ele>
        <time>2024-09-25T08:31:54Z</time>
      </trkpt>
      <trkpt lat="42.36279" lon="2.17473">
        <ele>1192.4</ele>
        <time>2024-09-25T08:31:55Z</time>
      </trkpt>
      <trkpt lat="42.36281" lon="2.17471">
        <ele>1192.5</ele>
        <time>2024-09-25T08:31:56Z</time>
      </trkpt>
      <trkpt lat="42.36283" lon="2.17471">
        <ele>1192.5</ele>
        <time>2024-09-25T08:31:57Z</time>
      </trkpt>
      <trkpt lat="42.36286" lon="2.1747">
        <ele>1192.6</ele>
        <time>2024-09-25T08:31:58Z</time>
      </trkpt>
      <trkpt lat="42.36287" lon="2.17471">
        <ele>1192.7</ele>
        <time>2024-09-25T08:31:59Z</time>
      </trkpt>
      <trkpt lat="42.36288" lon="2.17472">
        <ele>1192.7</ele>
        <time>2024-09-25T08:32:00Z</time>
      </trkpt>
      <trkpt lat="42.3629" lon="2.17472">
        <ele>1192.8</ele>
        <time>2024-09-25T08:32:01Z</time>
      </trkpt>
      <trkpt lat="42.36293" lon="2.17471">
        <ele>1192.9</ele>
        <time>2024-09-25T08:32:02Z</time>
      </trkpt>
      <trkpt lat="42.36294" lon="2.17471">
        <ele>1193</ele>
        <time>2024-09-25T08:32:03Z</time>
      </trkpt>
      <trkpt lat="42.36294" lon="2.1747">
        <ele>1193</ele>
        <time>2024-09-25T08:32:04Z</time>
      </trkpt>
      <trkpt lat="42.36295" lon="2.1747">
        <ele>1193</ele>
        <time>2024-09-25T08:32:05Z</time>
      </trkpt>
      <trkpt lat="42.36294" lon="2.17472">
        <ele>1193.1</ele>
        <time>2024-09-25T08:32:06Z</time>
      </trkpt>
      <trkpt lat="42.36296" lon="2.17473">
        <ele>1193.1</ele>
        <time>2024-09-25T08:32:07Z</time>
      </trkpt>
      <trkpt lat="42.36298" lon="2.17475">
        <ele>1193.2</ele>
        <time>2024-09-25T08:32:08Z</time>
      </trkpt>
      <trkpt lat="42.36299" lon="2.17475">
        <ele>1193.3</ele>
        <time>2024-09-25T08:32:09Z</time>
      </trkpt>
      <trkpt lat="42.363" lon="2.17476">
        <ele>1193.3</ele>
        <time>2024-09-25T08:32:10Z</time>
      </trkpt>
      <trkpt lat="42.36301" lon="2.17477">
        <ele>1193.4</ele>
        <time>2024-09-25T08:32:11Z</time>
      </trkpt>
      <trkpt lat="42.36304" lon="2.17477">
        <ele>1193.5</ele>
        <time>2024-09-25T08:32:12Z</time>
      </trkpt>
      <trkpt lat="42.36305" lon="2.17477">
        <ele>1193.5</ele>
        <time>2024-09-25T08:32:13Z</time>
      </trkpt>
      <trkpt lat="42.36307" lon="2.17477">
        <ele>1193.5</ele>
        <time>2024-09-25T08:32:14Z</time>
      </trkpt>
      <trkpt lat="42.36308" lon="2.17477">
        <ele>1193.6</ele>
        <time>2024-09-25T08:32:15Z</time>
      </trkpt>
      <trkpt lat="42.36309" lon="2.17477">
        <ele>1193.6</ele>
        <time>2024-09-25T08:32:16Z</time>
      </trkpt>
      <trkpt lat="42.3631" lon="2.17477">
        <ele>1193.6</ele>
        <time>2024-09-25T08:32:17Z</time>
      </trkpt>
      <trkpt lat="42.36311" lon="2.17478">
        <ele>1193.7</ele>
        <time>2024-09-25T08:32:18Z</time>
      </trkpt>
      <trkpt lat="42.36312" lon="2.17477">
        <ele>1193.7</ele>
        <time>2024-09-25T08:32:19Z</time>
      </trkpt>
      <trkpt lat="42.36312" lon="2.17477">
        <ele>1193.7</ele>
        <time>2024-09-25T08:32:20Z</time>
      </trkpt>
      <trkpt lat="42.36313" lon="2.17477">
        <ele>1193.8</ele>
        <time>2024-09-25T08:32:21Z</time>
      </trkpt>
      <trkpt lat="42.36314" lon="2.17477">
        <ele>1193.8</ele>
        <time>2024-09-25T08:32:22Z</time>
      </trkpt>
      <trkpt lat="42.36315" lon="2.17476">
        <ele>1193.8</ele>
        <time>2024-09-25T08:32:23Z</time>
      </trkpt>
      <trkpt lat="42.36316" lon="2.17475">
        <ele>1193.8</ele>
        <time>2024-09-25T08:32:24Z</time>
      </trkpt>
      <trkpt lat="42.36317" lon="2.17475">
        <ele>1193.9</ele>
        <time>2024-09-25T08:32:25Z</time>
      </trkpt>
      <trkpt lat="42.36318" lon="2.17475">
        <ele>1193.9</ele>
        <time>2024-09-25T08:32:26Z</time>
      </trkpt>
      <trkpt lat="42.36318" lon="2.17474">
        <ele>1193.9</ele>
        <time>2024-09-25T08:32:27Z</time>
      </trkpt>
      <trkpt lat="42.36317" lon="2.17473">
        <ele>1194</ele>
        <time>2024-09-25T08:32:28Z</time>
      </trkpt>
      <trkpt lat="42.36316" lon="2.17473">
        <ele>1194</ele>
        <time>2024-09-25T08:32:29Z</time>
      </trkpt>
      <trkpt lat="42.36316" lon="2.17473">
        <ele>1194</ele>
        <time>2024-09-25T08:32:30Z</time>
      </trkpt>
      <trkpt lat="42.36319" lon="2.17477">
        <ele>1194.1</ele>
        <time>2024-09-25T08:32:31Z</time>
      </trkpt>
      <trkpt lat="42.36322" lon="2.17481">
        <ele>1194.3</ele>
        <time>2024-09-25T08:32:32Z</time>
      </trkpt>
      <trkpt lat="42.36326" lon="2.17484">
        <ele>1194.4</ele>
        <time>2024-09-25T08:32:33Z</time>
      </trkpt>
      <trkpt lat="42.36329" lon="2.17487">
        <ele>1194.5</ele>
        <time>2024-09-25T08:32:34Z</time>
      </trkpt>
      <trkpt lat="42.36331" lon="2.17488">
        <ele>1194.5</ele>
        <time>2024-09-25T08:32:35Z</time>
      </trkpt>
      <trkpt lat="42.36332" lon="2.17488">
        <ele>1194.6</ele>
        <time>2024-09-25T08:32:36Z</time>
      </trkpt>
      <trkpt lat="42.36334" lon="2.17488">
        <ele>1194.7</ele>
        <time>2024-09-25T08:32:37Z</time>
      </trkpt>
      <trkpt lat="42.36335" lon="2.17489">
        <ele>1194.7</ele>
        <time>2024-09-25T08:32:38Z</time>
      </trkpt>
      <trkpt lat="42.36336" lon="2.17489">
        <ele>1194.7</ele>
        <time>2024-09-25T08:32:39Z</time>
      </trkpt>
      <trkpt lat="42.36338" lon="2.17489">
        <ele>1194.7</ele>
        <time>2024-09-25T08:32:40Z</time>
      </trkpt>
      <trkpt lat="42.36339" lon="2.17489">
        <ele>1194.8</ele>
        <time>2024-09-25T08:32:41Z</time>
      </trkpt>
      <trkpt lat="42.3634" lon="2.1749">
        <ele>1194.8</ele>
        <time>2024-09-25T08:32:42Z</time>
      </trkpt>
      <trkpt lat="42.36341" lon="2.17491">
        <ele>1194.9</ele>
        <time>2024-09-25T08:32:43Z</time>
      </trkpt>
      <trkpt lat="42.36342" lon="2.17491">
        <ele>1194.9</ele>
        <time>2024-09-25T08:32:44Z</time>
      </trkpt>
      <trkpt lat="42.36344" lon="2.17493">
        <ele>1194.9</ele>
        <time>2024-09-25T08:32:45Z</time>
      </trkpt>
      <trkpt lat="42.36345" lon="2.17493">
        <ele>1195</ele>
        <time>2024-09-25T08:32:46Z</time>
      </trkpt>
      <trkpt lat="42.36346" lon="2.17493">
        <ele>1195</ele>
        <time>2024-09-25T08:32:47Z</time>
      </trkpt>
      <trkpt lat="42.36347" lon="2.17494">
        <ele>1195</ele>
        <time>2024-09-25T08:32:48Z</time>
      </trkpt>
      <trkpt lat="42.36348" lon="2.17494">
        <ele>1195.1</ele>
        <time>2024-09-25T08:32:49Z</time>
      </trkpt>
      <trkpt lat="42.36349" lon="2.17497">
        <ele>1195.1</ele>
        <time>2024-09-25T08:32:50Z</time>
      </trkpt>
      <trkpt lat="42.3635" lon="2.17497">
        <ele>1195.2</ele>
        <time>2024-09-25T08:32:51Z</time>
      </trkpt>
      <trkpt lat="42.36351" lon="2.17498">
        <ele>1195.2</ele>
        <time>2024-09-25T08:32:52Z</time>
      </trkpt>
      <trkpt lat="42.36351" lon="2.17498">
        <ele>1195.2</ele>
        <time>2024-09-25T08:32:53Z</time>
      </trkpt>
      <trkpt lat="42.36352" lon="2.17498">
        <ele>1195.2</ele>
        <time>2024-09-25T08:32:54Z</time>
      </trkpt>
      <trkpt lat="42.36353" lon="2.17499">
        <ele>1195.2</ele>
        <time>2024-09-25T08:32:55Z</time>
      </trkpt>
      <trkpt lat="42.36354" lon="2.17499">
        <ele>1195.3</ele>
        <time>2024-09-25T08:32:56Z</time>
      </trkpt>
      <trkpt lat="42.36354" lon="2.175">
        <ele>1195.3</ele>
        <time>2024-09-25T08:32:57Z</time>
      </trkpt>
      <trkpt lat="42.36354" lon="2.175">
        <ele>1195.3</ele>
        <time>2024-09-25T08:32:58Z</time>
      </trkpt>
      <trkpt lat="42.36355" lon="2.17501">
        <ele>1195.3</ele>
        <time>2024-09-25T08:32:59Z</time>
      </trkpt>
      <trkpt lat="42.36356" lon="2.17501">
        <ele>1195.3</ele>
        <time>2024-09-25T08:33:00Z</time>
      </trkpt>
      <trkpt lat="42.36357" lon="2.17502">
        <ele>1195.4</ele>
        <time>2024-09-25T08:33:01Z</time>
      </trkpt>
      <trkpt lat="42.36358" lon="2.17502">
        <ele>1195.4</ele>
        <time>2024-09-25T08:33:02Z</time>
      </trkpt>
      <trkpt lat="42.36359" lon="2.17503">
        <ele>1195.4</ele>
        <time>2024-09-25T08:33:03Z</time>
      </trkpt>
      <trkpt lat="42.3636" lon="2.17503">
        <ele>1195.4</ele>
        <time>2024-09-25T08:33:04Z</time>
      </trkpt>
      <trkpt lat="42.36361" lon="2.17504">
        <ele>1195.5</ele>
        <time>2024-09-25T08:33:05Z</time>
      </trkpt>
      <trkpt lat="42.36362" lon="2.17504">
        <ele>1195.5</ele>
        <time>2024-09-25T08:33:06Z</time>
      </trkpt>
      <trkpt lat="42.36363" lon="2.17505">
        <ele>1195.5</ele>
        <time>2024-09-25T08:33:07Z</time>
      </trkpt>
      <trkpt lat="42.36364" lon="2.17506">
        <ele>1195.5</ele>
        <time>2024-09-25T08:33:08Z</time>
      </trkpt>
      <trkpt lat="42.36365" lon="2.17506">
        <ele>1195.6</ele>
        <time>2024-09-25T08:33:09Z</time>
      </trkpt>
      <trkpt lat="42.36366" lon="2.17507">
        <ele>1195.6</ele>
        <time>2024-09-25T08:33:10Z</time>
      </trkpt>
      <trkpt lat="42.36367" lon="2.17507">
        <ele>1195.6</ele>
        <time>2024-09-25T08:33:11Z</time>
      </trkpt>
      <trkpt lat="42.36367" lon="2.17507">
        <ele>1195.6</ele>
        <time>2024-09-25T08:33:12Z</time>
      </trkpt>
      <trkpt lat="42.36368" lon="2.17506">
        <ele>1195.6</ele>
        <time>2024-09-25T08:33:13Z</time>
      </trkpt>
      <trkpt lat="42.36368" lon="2.17506">
        <ele>1195.6</ele>
        <time>2024-09-25T08:33:14Z</time>
      </trkpt>
      <trkpt lat="42.36368" lon="2.17505">
        <ele>1195.6</ele>
        <time>2024-09-25T08:33:15Z</time>
      </trkpt>
      <trkpt lat="42.36369" lon="2.17505">
        <ele>1195.6</ele>
        <time>2024-09-25T08:33:16Z</time>
      </trkpt>
      <trkpt lat="42.3637" lon="2.17506">
        <ele>1195.6</ele>
        <time>2024-09-25T08:33:17Z</time>
      </trkpt>
      <trkpt lat="42.36371" lon="2.17506">
        <ele>1195.7</ele>
        <time>2024-09-25T08:33:18Z</time>
      </trkpt>
      <trkpt lat="42.36373" lon="2.17505">
        <ele>1195.7</ele>
        <time>2024-09-25T08:33:19Z</time>
      </trkpt>
      <trkpt lat="42.36374" lon="2.17504">
        <ele>1195.7</ele>
        <time>2024-09-25T08:33:20Z</time>
      </trkpt>
      <trkpt lat="42.36375" lon="2.17505">
        <ele>1195.7</ele>
        <time>2024-09-25T08:33:21Z</time>
      </trkpt>
      <trkpt lat="42.36375" lon="2.17504">
        <ele>1195.7</ele>
        <time>2024-09-25T08:33:22Z</time>
      </trkpt>
      <trkpt lat="42.36376" lon="2.17503">
        <ele>1195.7</ele>
        <time>2024-09-25T08:33:23Z</time>
      </trkpt>
      <trkpt lat="42.36375" lon="2.17502">
        <ele>1195.7</ele>
        <time>2024-09-25T08:33:24Z</time>
      </trkpt>
      <trkpt lat="42.36374" lon="2.17502">
        <ele>1195.7</ele>
        <time>2024-09-25T08:33:25Z</time>
      </trkpt>
      <trkpt lat="42.36373" lon="2.17502">
        <ele>1195.8</ele>
        <time>2024-09-25T08:33:26Z</time>
      </trkpt>
      <trkpt lat="42.36372" lon="2.17503">
        <ele>1195.8</ele>
        <time>2024-09-25T08:33:27Z</time>
      </trkpt>
      <trkpt lat="42.36377" lon="2.17508">
        <ele>1195.8</ele>
        <time>2024-09-25T08:33:28Z</time>
      </trkpt>
      <trkpt lat="42.36383" lon="2.17513">
        <ele>1195.8</ele>
        <time>2024-09-25T08:33:29Z</time>
      </trkpt>
      <trkpt lat="42.3639" lon="2.17515">
        <ele>1195.7</ele>
        <time>2024-09-25T08:33:30Z</time>
      </trkpt>
      <trkpt lat="42.36391" lon="2.17515">
        <ele>1195.7</ele>
        <time>2024-09-25T08:33:31Z</time>
      </trkpt>
      <trkpt lat="42.36392" lon="2.17515">
        <ele>1195.7</ele>
        <time>2024-09-25T08:33:32Z</time>
      </trkpt>
      <trkpt lat="42.36393" lon="2.17515">
        <ele>1195.7</ele>
        <time>2024-09-25T08:33:33Z</time>
      </trkpt>
      <trkpt lat="42.36394" lon="2.17516">
        <ele>1195.7</ele>
        <time>2024-09-25T08:33:34Z</time>
      </trkpt>
      <trkpt lat="42.36395" lon="2.17517">
        <ele>1195.7</ele>
        <time>2024-09-25T08:33:35Z</time>
      </trkpt>
      <trkpt lat="42.36396" lon="2.17516">
        <ele>1195.7</ele>
        <time>2024-09-25T08:33:36Z</time>
      </trkpt>
      <trkpt lat="42.36397" lon="2.17517">
        <ele>1195.7</ele>
        <time>2024-09-25T08:33:37Z</time>
      </trkpt>
      <trkpt lat="42.36398" lon="2.17515">
        <ele>1195.7</ele>
        <time>2024-09-25T08:33:38Z</time>
      </trkpt>
      <trkpt lat="42.36399" lon="2.17515">
        <ele>1195.7</ele>
        <time>2024-09-25T08:33:39Z</time>
      </trkpt>
      <trkpt lat="42.364" lon="2.17515">
        <ele>1195.7</ele>
        <time>2024-09-25T08:33:40Z</time>
      </trkpt>
      <trkpt lat="42.36401" lon="2.17515">
        <ele>1195.7</ele>
        <time>2024-09-25T08:33:41Z</time>
      </trkpt>
      <trkpt lat="42.36402" lon="2.17515">
        <ele>1195.7</ele>
        <time>2024-09-25T08:33:42Z</time>
      </trkpt>
      <trkpt lat="42.36404" lon="2.17515">
        <ele>1195.7</ele>
        <time>2024-09-25T08:33:43Z</time>
      </trkpt>
      <trkpt lat="42.36405" lon="2.17517">
        <ele>1195.7</ele>
        <time>2024-09-25T08:33:44Z</time>
      </trkpt>
      <trkpt lat="42.36405" lon="2.17518">
        <ele>1195.7</ele>
        <time>2024-09-25T08:33:45Z</time>
      </trkpt>
      <trkpt lat="42.36406" lon="2.17519">
        <ele>1195.7</ele>
        <time>2024-09-25T08:33:46Z</time>
      </trkpt>
      <trkpt lat="42.36407" lon="2.1752">
        <ele>1195.7</ele>
        <time>2024-09-25T08:33:47Z</time>
      </trkpt>
      <trkpt lat="42.36409" lon="2.17521">
        <ele>1195.8</ele>
        <time>2024-09-25T08:33:48Z</time>
      </trkpt>
      <trkpt lat="42.3641" lon="2.17521">
        <ele>1195.9</ele>
        <time>2024-09-25T08:33:49Z</time>
      </trkpt>
      <trkpt lat="42.36411" lon="2.17521">
        <ele>1195.9</ele>
        <time>2024-09-25T08:33:50Z</time>
      </trkpt>
      <trkpt lat="42.36413" lon="2.17521">
        <ele>1196.1</ele>
        <time>2024-09-25T08:33:51Z</time>
      </trkpt>
      <trkpt lat="42.36414" lon="2.17521">
        <ele>1196.2</ele>
        <time>2024-09-25T08:33:52Z</time>
      </trkpt>
      <trkpt lat="42.36415" lon="2.17521">
        <ele>1196.3</ele>
        <time>2024-09-25T08:33:53Z</time>
      </trkpt>
      <trkpt lat="42.36416" lon="2.17521">
        <ele>1196.4</ele>
        <time>2024-09-25T08:33:54Z</time>
      </trkpt>
      <trkpt lat="42.36417" lon="2.17521">
        <ele>1196.5</ele>
        <time>2024-09-25T08:33:55Z</time>
      </trkpt>
      <trkpt lat="42.36418" lon="2.17522">
        <ele>1196.5</ele>
        <time>2024-09-25T08:33:56Z</time>
      </trkpt>
      <trkpt lat="42.36419" lon="2.17522">
        <ele>1196.6</ele>
        <time>2024-09-25T08:33:57Z</time>
      </trkpt>
      <trkpt lat="42.3642" lon="2.17522">
        <ele>1196.7</ele>
        <time>2024-09-25T08:33:58Z</time>
      </trkpt>
      <trkpt lat="42.36421" lon="2.17522">
        <ele>1196.8</ele>
        <time>2024-09-25T08:33:59Z</time>
      </trkpt>
      <trkpt lat="42.36422" lon="2.17523">
        <ele>1196.9</ele>
        <time>2024-09-25T08:34:00Z</time>
      </trkpt>
      <trkpt lat="42.36423" lon="2.17523">
        <ele>1197</ele>
        <time>2024-09-25T08:34:01Z</time>
      </trkpt>
      <trkpt lat="42.36424" lon="2.17524">
        <ele>1197.1</ele>
        <time>2024-09-25T08:34:02Z</time>
      </trkpt>
      <trkpt lat="42.36425" lon="2.17525">
        <ele>1197.2</ele>
        <time>2024-09-25T08:34:03Z</time>
      </trkpt>
      <trkpt lat="42.36426" lon="2.17526">
        <ele>1197.3</ele>
        <time>2024-09-25T08:34:04Z</time>
      </trkpt>
      <trkpt lat="42.36427" lon="2.17526">
        <ele>1197.4</ele>
        <time>2024-09-25T08:34:05Z</time>
      </trkpt>
      <trkpt lat="42.36426" lon="2.17526">
        <ele>1197.4</ele>
        <time>2024-09-25T08:34:06Z</time>
      </trkpt>
      <trkpt lat="42.36427" lon="2.17526">
        <ele>1197.5</ele>
        <time>2024-09-25T08:34:07Z</time>
      </trkpt>
      <trkpt lat="42.36429" lon="2.17529">
        <ele>1197.7</ele>
        <time>2024-09-25T08:34:08Z</time>
      </trkpt>
      <trkpt lat="42.3643" lon="2.1753">
        <ele>1197.9</ele>
        <time>2024-09-25T08:34:09Z</time>
      </trkpt>
      <trkpt lat="42.36431" lon="2.17532">
        <ele>1198</ele>
        <time>2024-09-25T08:34:10Z</time>
      </trkpt>
      <trkpt lat="42.36431" lon="2.17536">
        <ele>1198.3</ele>
        <time>2024-09-25T08:34:11Z</time>
      </trkpt>
      <trkpt lat="42.36432" lon="2.17539">
        <ele>1198.5</ele>
        <time>2024-09-25T08:34:12Z</time>
      </trkpt>
      <trkpt lat="42.36433" lon="2.1754">
        <ele>1198.5</ele>
        <time>2024-09-25T08:34:13Z</time>
      </trkpt>
      <trkpt lat="42.36434" lon="2.17541">
        <ele>1198.6</ele>
        <time>2024-09-25T08:34:14Z</time>
      </trkpt>
      <trkpt lat="42.36435" lon="2.17542">
        <ele>1198.6</ele>
        <time>2024-09-25T08:34:15Z</time>
      </trkpt>
      <trkpt lat="42.36436" lon="2.17543">
        <ele>1198.7</ele>
        <time>2024-09-25T08:34:16Z</time>
      </trkpt>
      <trkpt lat="42.36436" lon="2.17544">
        <ele>1198.7</ele>
        <time>2024-09-25T08:34:17Z</time>
      </trkpt>
      <trkpt lat="42.36437" lon="2.17544">
        <ele>1198.7</ele>
        <time>2024-09-25T08:34:18Z</time>
      </trkpt>
      <trkpt lat="42.36437" lon="2.17545">
        <ele>1198.7</ele>
        <time>2024-09-25T08:34:19Z</time>
      </trkpt>
      <trkpt lat="42.36438" lon="2.17544">
        <ele>1198.8</ele>
        <time>2024-09-25T08:34:20Z</time>
      </trkpt>
      <trkpt lat="42.36438" lon="2.17544">
        <ele>1198.8</ele>
        <time>2024-09-25T08:34:21Z</time>
      </trkpt>
      <trkpt lat="42.36439" lon="2.17544">
        <ele>1198.8</ele>
        <time>2024-09-25T08:34:22Z</time>
      </trkpt>
      <trkpt lat="42.36439" lon="2.17543">
        <ele>1198.8</ele>
        <time>2024-09-25T08:34:23Z</time>
      </trkpt>
      <trkpt lat="42.36439" lon="2.17543">
        <ele>1198.8</ele>
        <time>2024-09-25T08:34:24Z</time>
      </trkpt>
      <trkpt lat="42.36439" lon="2.17543">
        <ele>1198.8</ele>
        <time>2024-09-25T08:34:25Z</time>
      </trkpt>
      <trkpt lat="42.36439" lon="2.17544">
        <ele>1198.8</ele>
        <time>2024-09-25T08:34:26Z</time>
      </trkpt>
      <trkpt lat="42.36439" lon="2.17544">
        <ele>1198.8</ele>
        <time>2024-09-25T08:34:27Z</time>
      </trkpt>
      <trkpt lat="42.36439" lon="2.17544">
        <ele>1198.8</ele>
        <time>2024-09-25T08:34:28Z</time>
      </trkpt>
      <trkpt lat="42.36439" lon="2.17543">
        <ele>1198.9</ele>
        <time>2024-09-25T08:34:29Z</time>
      </trkpt>
      <trkpt lat="42.36439" lon="2.17543">
        <ele>1198.9</ele>
        <time>2024-09-25T08:34:30Z</time>
      </trkpt>
      <trkpt lat="42.36439" lon="2.17543">
        <ele>1198.9</ele>
        <time>2024-09-25T08:34:31Z</time>
      </trkpt>
      <trkpt lat="42.36439" lon="2.17543">
        <ele>1198.9</ele>
        <time>2024-09-25T08:34:32Z</time>
      </trkpt>
      <trkpt lat="42.36439" lon="2.17543">
        <ele>1198.9</ele>
        <time>2024-09-25T08:34:33Z</time>
      </trkpt>
      <trkpt lat="42.36439" lon="2.17543">
        <ele>1198.9</ele>
        <time>2024-09-25T08:34:34Z</time>
      </trkpt>
      <trkpt lat="42.36439" lon="2.17543">
        <ele>1198.9</ele>
        <time>2024-09-25T08:34:35Z</time>
      </trkpt>
      <trkpt lat="42.36439" lon="2.17543">
        <ele>1198.9</ele>
        <time>2024-09-25T08:34:36Z</time>
      </trkpt>
      <trkpt lat="42.36439" lon="2.17543">
        <ele>1198.9</ele>
        <time>2024-09-25T08:34:37Z</time>
      </trkpt>
      <trkpt lat="42.36439" lon="2.17543">
        <ele>1198.9</ele>
        <time>2024-09-25T08:34:38Z</time>
      </trkpt>
      <trkpt lat="42.36439" lon="2.17543">
        <ele>1198.9</ele>
        <time>2024-09-25T08:34:39Z</time>
      </trkpt>
      <trkpt lat="42.36439" lon="2.17543">
        <ele>1198.9</ele>
        <time>2024-09-25T08:34:40Z</time>
      </trkpt>
      <trkpt lat="42.36439" lon="2.17543">
        <ele>1198.9</ele>
        <time>2024-09-25T08:34:41Z</time>
      </trkpt>
      <trkpt lat="42.36439" lon="2.17543">
        <ele>1198.9</ele>
        <time>2024-09-25T08:34:42Z</time>
      </trkpt>
      <trkpt lat="42.36439" lon="2.17543">
        <ele>1198.9</ele>
        <time>2024-09-25T08:34:43Z</time>
      </trkpt>
      <trkpt lat="42.36439" lon="2.17543">
        <ele>1198.9</ele>
        <time>2024-09-25T08:34:44Z</time>
      </trkpt>
      <trkpt lat="42.36439" lon="2.17543">
        <ele>1198.9</ele>
        <time>2024-09-25T08:34:45Z</time>
      </trkpt>
      <trkpt lat="42.36439" lon="2.17543">
        <ele>1198.9</ele>
        <time>2024-09-25T08:34:46Z</time>
      </trkpt>
      <trkpt lat="42.36439" lon="2.17543">
        <ele>1198.9</ele>
        <time>2024-09-25T08:34:47Z</time>
      </trkpt>
      <trkpt lat="42.36439" lon="2.17543">
        <ele>1198.9</ele>
        <time>2024-09-25T08:34:48Z</time>
      </trkpt>
      <trkpt lat="42.36439" lon="2.17543">
        <ele>1198.9</ele>
        <time>2024-09-25T08:34:49Z</time>
      </trkpt>
      <trkpt lat="42.36439" lon="2.17543">
        <ele>1198.9</ele>
        <time>2024-09-25T08:34:50Z</time>
      </trkpt>
      <trkpt lat="42.36439" lon="2.17543">
        <ele>1198.9</ele>
        <time>2024-09-25T08:34:51Z</time>
      </trkpt>
      <trkpt lat="42.36439" lon="2.17543">
        <ele>1198.9</ele>
        <time>2024-09-25T08:34:52Z</time>
      </trkpt>
      <trkpt lat="42.36439" lon="2.17543">
        <ele>1198.9</ele>
        <time>2024-09-25T08:34:53Z</time>
      </trkpt>
      <trkpt lat="42.36439" lon="2.17543">
        <ele>1198.9</ele>
        <time>2024-09-25T08:34:54Z</time>
      </trkpt>
      <trkpt lat="42.36439" lon="2.17543">
        <ele>1198.9</ele>
        <time>2024-09-25T08:34:55Z</time>
      </trkpt>
      <trkpt lat="42.36439" lon="2.17543">
        <ele>1198.9</ele>
        <time>2024-09-25T08:34:56Z</time>
      </trkpt>
      <trkpt lat="42.36439" lon="2.17543">
        <ele>1198.9</ele>
        <time>2024-09-25T08:34:57Z</time>
      </trkpt>
      <trkpt lat="42.36439" lon="2.17543">
        <ele>1198.9</ele>
        <time>2024-09-25T08:34:58Z</time>
      </trkpt>
      <trkpt lat="42.36439" lon="2.17543">
        <ele>1198.9</ele>
        <time>2024-09-25T08:34:59Z</time>
      </trkpt>
      <trkpt lat="42.3644" lon="2.17544">
        <ele>1198.9</ele>
        <time>2024-09-25T08:35:00Z</time>
      </trkpt>
      <trkpt lat="42.3644" lon="2.17544">
        <ele>1198.9</ele>
        <time>2024-09-25T08:35:01Z</time>
      </trkpt>
      <trkpt lat="42.36439" lon="2.17544">
        <ele>1198.9</ele>
        <time>2024-09-25T08:35:02Z</time>
      </trkpt>
      <trkpt lat="42.36439" lon="2.17544">
        <ele>1198.9</ele>
        <time>2024-09-25T08:35:03Z</time>
      </trkpt>
      <trkpt lat="42.36439" lon="2.17544">
        <ele>1198.9</ele>
        <time>2024-09-25T08:35:04Z</time>
      </trkpt>
      <trkpt lat="42.36439" lon="2.17544">
        <ele>1198.9</ele>
        <time>2024-09-25T08:35:05Z</time>
      </trkpt>
      <trkpt lat="42.36439" lon="2.17544">
        <ele>1198.9</ele>
        <time>2024-09-25T08:35:06Z</time>
      </trkpt>
      <trkpt lat="42.36439" lon="2.17544">
        <ele>1198.9</ele>
        <time>2024-09-25T08:35:07Z</time>
      </trkpt>
      <trkpt lat="42.36439" lon="2.17544">
        <ele>1198.9</ele>
        <time>2024-09-25T08:35:08Z</time>
      </trkpt>
      <trkpt lat="42.36439" lon="2.17544">
        <ele>1198.9</ele>
        <time>2024-09-25T08:35:09Z</time>
      </trkpt>
      <trkpt lat="42.36439" lon="2.17544">
        <ele>1198.9</ele>
        <time>2024-09-25T08:35:10Z</time>
      </trkpt>
      <trkpt lat="42.36439" lon="2.17544">
        <ele>1198.9</ele>
        <time>2024-09-25T08:35:11Z</time>
      </trkpt>
      <trkpt lat="42.36439" lon="2.17544">
        <ele>1198.9</ele>
        <time>2024-09-25T08:35:12Z</time>
      </trkpt>
      <trkpt lat="42.36439" lon="2.17544">
        <ele>1198.9</ele>
        <time>2024-09-25T08:35:13Z</time>
      </trkpt>
      <trkpt lat="42.36439" lon="2.17544">
        <ele>1198.9</ele>
        <time>2024-09-25T08:35:14Z</time>
      </trkpt>
      <trkpt lat="42.36439" lon="2.17544">
        <ele>1198.9</ele>
        <time>2024-09-25T08:35:15Z</time>
      </trkpt>
      <trkpt lat="42.36439" lon="2.17544">
        <ele>1198.9</ele>
        <time>2024-09-25T08:35:16Z</time>
      </trkpt>
      <trkpt lat="42.36439" lon="2.17544">
        <ele>1198.9</ele>
        <time>2024-09-25T08:35:17Z</time>
      </trkpt>
      <trkpt lat="42.36439" lon="2.17544">
        <ele>1198.9</ele>
        <time>2024-09-25T08:35:18Z</time>
      </trkpt>
      <trkpt lat="42.36439" lon="2.17544">
        <ele>1198.9</ele>
        <time>2024-09-25T08:35:19Z</time>
      </trkpt>
      <trkpt lat="42.36439" lon="2.17544">
        <ele>1198.9</ele>
        <time>2024-09-25T08:35:20Z</time>
      </trkpt>
      <trkpt lat="42.36439" lon="2.17544">
        <ele>1198.9</ele>
        <time>2024-09-25T08:35:21Z</time>
      </trkpt>
      <trkpt lat="42.3644" lon="2.17545">
        <ele>1199</ele>
        <time>2024-09-25T08:35:22Z</time>
      </trkpt>
      <trkpt lat="42.3644" lon="2.17546">
        <ele>1199</ele>
        <time>2024-09-25T08:35:23Z</time>
      </trkpt>
      <trkpt lat="42.3644" lon="2.17546">
        <ele>1199</ele>
        <time>2024-09-25T08:35:24Z</time>
      </trkpt>
      <trkpt lat="42.3644" lon="2.17546">
        <ele>1199</ele>
        <time>2024-09-25T08:35:25Z</time>
      </trkpt>
      <trkpt lat="42.3644" lon="2.17546">
        <ele>1199</ele>
        <time>2024-09-25T08:35:26Z</time>
      </trkpt>
      <trkpt lat="42.3644" lon="2.17546">
        <ele>1199</ele>
        <time>2024-09-25T08:35:27Z</time>
      </trkpt>
      <trkpt lat="42.3644" lon="2.17546">
        <ele>1199</ele>
        <time>2024-09-25T08:35:28Z</time>
      </trkpt>
      <trkpt lat="42.3644" lon="2.17546">
        <ele>1199</ele>
        <time>2024-09-25T08:35:29Z</time>
      </trkpt>
      <trkpt lat="42.3644" lon="2.17546">
        <ele>1199</ele>
        <time>2024-09-25T08:35:30Z</time>
      </trkpt>
      <trkpt lat="42.3644" lon="2.17546">
        <ele>1199</ele>
        <time>2024-09-25T08:35:31Z</time>
      </trkpt>
      <trkpt lat="42.3644" lon="2.17546">
        <ele>1199</ele>
        <time>2024-09-25T08:35:32Z</time>
      </trkpt>
      <trkpt lat="42.3644" lon="2.17546">
        <ele>1199</ele>
        <time>2024-09-25T08:35:33Z</time>
      </trkpt>
      <trkpt lat="42.3644" lon="2.17546">
        <ele>1199</ele>
        <time>2024-09-25T08:35:34Z</time>
      </trkpt>
      <trkpt lat="42.3644" lon="2.17546">
        <ele>1199</ele>
        <time>2024-09-25T08:35:35Z</time>
      </trkpt>
      <trkpt lat="42.3644" lon="2.17546">
        <ele>1199</ele>
        <time>2024-09-25T08:35:36Z</time>
      </trkpt>
      <trkpt lat="42.3644" lon="2.17546">
        <ele>1199</ele>
        <time>2024-09-25T08:35:37Z</time>
      </trkpt>
      <trkpt lat="42.3644" lon="2.17546">
        <ele>1199</ele>
        <time>2024-09-25T08:35:38Z</time>
      </trkpt>
      <trkpt lat="42.3644" lon="2.17546">
        <ele>1199</ele>
        <time>2024-09-25T08:35:39Z</time>
      </trkpt>
      <trkpt lat="42.3644" lon="2.17546">
        <ele>1199</ele>
        <time>2024-09-25T08:35:40Z</time>
      </trkpt>
      <trkpt lat="42.3644" lon="2.17546">
        <ele>1199</ele>
        <time>2024-09-25T08:35:41Z</time>
      </trkpt>
      <trkpt lat="42.3644" lon="2.17546">
        <ele>1199</ele>
        <time>2024-09-25T08:35:42Z</time>
      </trkpt>
      <trkpt lat="42.3644" lon="2.17546">
        <ele>1199</ele>
        <time>2024-09-25T08:35:43Z</time>
      </trkpt>
      <trkpt lat="42.3644" lon="2.17546">
        <ele>1199</ele>
        <time>2024-09-25T08:35:44Z</time>
      </trkpt>
      <trkpt lat="42.3644" lon="2.17546">
        <ele>1199</ele>
        <time>2024-09-25T08:35:45Z</time>
      </trkpt>
      <trkpt lat="42.3644" lon="2.17546">
        <ele>1199</ele>
        <time>2024-09-25T08:35:46Z</time>
      </trkpt>
      <trkpt lat="42.3644" lon="2.17546">
        <ele>1199</ele>
        <time>2024-09-25T08:35:47Z</time>
      </trkpt>
      <trkpt lat="42.3644" lon="2.17546">
        <ele>1199</ele>
        <time>2024-09-25T08:35:48Z</time>
      </trkpt>
      <trkpt lat="42.36441" lon="2.17546">
        <ele>1199</ele>
        <time>2024-09-25T08:35:49Z</time>
      </trkpt>
      <trkpt lat="42.36441" lon="2.17546">
        <ele>1199</ele>
        <time>2024-09-25T08:35:50Z</time>
      </trkpt>
      <trkpt lat="42.36441" lon="2.17547">
        <ele>1199.1</ele>
        <time>2024-09-25T08:35:51Z</time>
      </trkpt>
      <trkpt lat="42.36442" lon="2.17547">
        <ele>1199.1</ele>
        <time>2024-09-25T08:35:52Z</time>
      </trkpt>
      <trkpt lat="42.36443" lon="2.17547">
        <ele>1199.2</ele>
        <time>2024-09-25T08:35:53Z</time>
      </trkpt>
      <trkpt lat="42.36444" lon="2.17546">
        <ele>1199.4</ele>
        <time>2024-09-25T08:35:54Z</time>
      </trkpt>
      <trkpt lat="42.36445" lon="2.17545">
        <ele>1199.5</ele>
        <time>2024-09-25T08:35:55Z</time>
      </trkpt>
      <trkpt lat="42.36446" lon="2.17544">
        <ele>1199.7</ele>
        <time>2024-09-25T08:35:56Z</time>
      </trkpt>
      <trkpt lat="42.36446" lon="2.17544">
        <ele>1199.8</ele>
        <time>2024-09-25T08:35:57Z</time>
      </trkpt>
      <trkpt lat="42.36446" lon="2.17544">
        <ele>1199.8</ele>
        <time>2024-09-25T08:35:58Z</time>
      </trkpt>
      <trkpt lat="42.36448" lon="2.17543">
        <ele>1200</ele>
        <time>2024-09-25T08:35:59Z</time>
      </trkpt>
      <trkpt lat="42.36448" lon="2.17542">
        <ele>1200.2</ele>
        <time>2024-09-25T08:36:00Z</time>
      </trkpt>
      <trkpt lat="42.36449" lon="2.17541">
        <ele>1200.3</ele>
        <time>2024-09-25T08:36:01Z</time>
      </trkpt>
      <trkpt lat="42.3645" lon="2.1754">
        <ele>1200.4</ele>
        <time>2024-09-25T08:36:02Z</time>
      </trkpt>
      <trkpt lat="42.3645" lon="2.17539">
        <ele>1200.5</ele>
        <time>2024-09-25T08:36:03Z</time>
      </trkpt>
      <trkpt lat="42.36451" lon="2.17538">
        <ele>1200.7</ele>
        <time>2024-09-25T08:36:04Z</time>
      </trkpt>
      <trkpt lat="42.36451" lon="2.17536">
        <ele>1200.8</ele>
        <time>2024-09-25T08:36:05Z</time>
      </trkpt>
      <trkpt lat="42.36452" lon="2.17536">
        <ele>1200.9</ele>
        <time>2024-09-25T08:36:06Z</time>
      </trkpt>
      <trkpt lat="42.36452" lon="2.17536">
        <ele>1200.9</ele>
        <time>2024-09-25T08:36:07Z</time>
      </trkpt>
      <trkpt lat="42.36453" lon="2.17536">
        <ele>1201</ele>
        <time>2024-09-25T08:36:08Z</time>
      </trkpt>
      <trkpt lat="42.36453" lon="2.17537">
        <ele>1201</ele>
        <time>2024-09-25T08:36:09Z</time>
      </trkpt>
      <trkpt lat="42.36454" lon="2.17537">
        <ele>1201.2</ele>
        <time>2024-09-25T08:36:10Z</time>
      </trkpt>
      <trkpt lat="42.36455" lon="2.17538">
        <ele>1201.2</ele>
        <time>2024-09-25T08:36:11Z</time>
      </trkpt>
      <trkpt lat="42.36458" lon="2.17537">
        <ele>1201.2</ele>
        <time>2024-09-25T08:36:12Z</time>
      </trkpt>
      <trkpt lat="42.36459" lon="2.17536">
        <ele>1201.2</ele>
        <time>2024-09-25T08:36:13Z</time>
      </trkpt>
      <trkpt lat="42.3646" lon="2.17535">
        <ele>1201.2</ele>
        <time>2024-09-25T08:36:14Z</time>
      </trkpt>
      <trkpt lat="42.3646" lon="2.17535">
        <ele>1201.2</ele>
        <time>2024-09-25T08:36:15Z</time>
      </trkpt>
      <trkpt lat="42.3646" lon="2.17534">
        <ele>1201.3</ele>
        <time>2024-09-25T08:36:16Z</time>
      </trkpt>
      <trkpt lat="42.3646" lon="2.17534">
        <ele>1201.3</ele>
        <time>2024-09-25T08:36:17Z</time>
      </trkpt>
      <trkpt lat="42.3646" lon="2.17534">
        <ele>1201.3</ele>
        <time>2024-09-25T08:36:18Z</time>
      </trkpt>
      <trkpt lat="42.3646" lon="2.17534">
        <ele>1201.3</ele>
        <time>2024-09-25T08:36:19Z</time>
      </trkpt>
      <trkpt lat="42.3646" lon="2.17534">
        <ele>1201.3</ele>
        <time>2024-09-25T08:36:20Z</time>
      </trkpt>
      <trkpt lat="42.3646" lon="2.17534">
        <ele>1201.3</ele>
        <time>2024-09-25T08:36:21Z</time>
      </trkpt>
      <trkpt lat="42.3646" lon="2.17534">
        <ele>1201.3</ele>
        <time>2024-09-25T08:36:22Z</time>
      </trkpt>
      <trkpt lat="42.3646" lon="2.17534">
        <ele>1201.3</ele>
        <time>2024-09-25T08:36:23Z</time>
      </trkpt>
      <trkpt lat="42.36459" lon="2.17534">
        <ele>1201.3</ele>
        <time>2024-09-25T08:36:24Z</time>
      </trkpt>
      <trkpt lat="42.3646" lon="2.17534">
        <ele>1201.3</ele>
        <time>2024-09-25T08:36:25Z</time>
      </trkpt>
      <trkpt lat="42.3646" lon="2.17534">
        <ele>1201.3</ele>
        <time>2024-09-25T08:36:26Z</time>
      </trkpt>
      <trkpt lat="42.3646" lon="2.17534">
        <ele>1201.3</ele>
        <time>2024-09-25T08:36:27Z</time>
      </trkpt>
      <trkpt lat="42.3646" lon="2.17534">
        <ele>1201.3</ele>
        <time>2024-09-25T08:36:28Z</time>
      </trkpt>
      <trkpt lat="42.36459" lon="2.17534">
        <ele>1201.3</ele>
        <time>2024-09-25T08:36:29Z</time>
      </trkpt>
      <trkpt lat="42.36459" lon="2.17534">
        <ele>1201.3</ele>
        <time>2024-09-25T08:36:30Z</time>
      </trkpt>
      <trkpt lat="42.36459" lon="2.17534">
        <ele>1201.3</ele>
        <time>2024-09-25T08:36:31Z</time>
      </trkpt>
      <trkpt lat="42.36459" lon="2.17534">
        <ele>1201.3</ele>
        <time>2024-09-25T08:36:32Z</time>
      </trkpt>
      <trkpt lat="42.3646" lon="2.17534">
        <ele>1201.3</ele>
        <time>2024-09-25T08:36:33Z</time>
      </trkpt>
      <trkpt lat="42.3646" lon="2.17534">
        <ele>1201.3</ele>
        <time>2024-09-25T08:36:34Z</time>
      </trkpt>
      <trkpt lat="42.3646" lon="2.17534">
        <ele>1201.3</ele>
        <time>2024-09-25T08:36:35Z</time>
      </trkpt>
      <trkpt lat="42.3646" lon="2.17534">
        <ele>1201.3</ele>
        <time>2024-09-25T08:36:36Z</time>
      </trkpt>
      <trkpt lat="42.3646" lon="2.17534">
        <ele>1201.3</ele>
        <time>2024-09-25T08:36:37Z</time>
      </trkpt>
      <trkpt lat="42.3646" lon="2.17534">
        <ele>1201.3</ele>
        <time>2024-09-25T08:36:38Z</time>
      </trkpt>
      <trkpt lat="42.3646" lon="2.17534">
        <ele>1201.3</ele>
        <time>2024-09-25T08:36:39Z</time>
      </trkpt>
      <trkpt lat="42.3646" lon="2.17534">
        <ele>1201.3</ele>
        <time>2024-09-25T08:36:40Z</time>
      </trkpt>
      <trkpt lat="42.3646" lon="2.17534">
        <ele>1201.3</ele>
        <time>2024-09-25T08:36:41Z</time>
      </trkpt>
      <trkpt lat="42.3646" lon="2.17534">
        <ele>1201.3</ele>
        <time>2024-09-25T08:36:42Z</time>
      </trkpt>
      <trkpt lat="42.3646" lon="2.17534">
        <ele>1201.3</ele>
        <time>2024-09-25T08:36:43Z</time>
      </trkpt>
      <trkpt lat="42.3646" lon="2.17534">
        <ele>1201.3</ele>
        <time>2024-09-25T08:36:44Z</time>
      </trkpt>
      <trkpt lat="42.3646" lon="2.17534">
        <ele>1201.3</ele>
        <time>2024-09-25T08:36:45Z</time>
      </trkpt>
      <trkpt lat="42.3646" lon="2.17534">
        <ele>1201.3</ele>
        <time>2024-09-25T08:36:46Z</time>
      </trkpt>
      <trkpt lat="42.3646" lon="2.17534">
        <ele>1201.3</ele>
        <time>2024-09-25T08:36:47Z</time>
      </trkpt>
      <trkpt lat="42.3646" lon="2.17533">
        <ele>1201.3</ele>
        <time>2024-09-25T08:36:48Z</time>
      </trkpt>
      <trkpt lat="42.3646" lon="2.17533">
        <ele>1201.3</ele>
        <time>2024-09-25T08:36:49Z</time>
      </trkpt>
      <trkpt lat="42.3646" lon="2.17532">
        <ele>1201.3</ele>
        <time>2024-09-25T08:36:50Z</time>
      </trkpt>
      <trkpt lat="42.3646" lon="2.17532">
        <ele>1201.3</ele>
        <time>2024-09-25T08:36:51Z</time>
      </trkpt>
      <trkpt lat="42.3646" lon="2.17532">
        <ele>1201.3</ele>
        <time>2024-09-25T08:36:52Z</time>
      </trkpt>
      <trkpt lat="42.3646" lon="2.17532">
        <ele>1201.3</ele>
        <time>2024-09-25T08:36:53Z</time>
      </trkpt>
      <trkpt lat="42.3646" lon="2.17532">
        <ele>1201.3</ele>
        <time>2024-09-25T08:36:54Z</time>
      </trkpt>
      <trkpt lat="42.3646" lon="2.17533">
        <ele>1201.3</ele>
        <time>2024-09-25T08:36:55Z</time>
      </trkpt>
      <trkpt lat="42.3646" lon="2.17533">
        <ele>1201.3</ele>
        <time>2024-09-25T08:36:56Z</time>
      </trkpt>
      <trkpt lat="42.36461" lon="2.17533">
        <ele>1201.3</ele>
        <time>2024-09-25T08:36:57Z</time>
      </trkpt>
      <trkpt lat="42.3646" lon="2.17533">
        <ele>1201.2</ele>
        <time>2024-09-25T08:36:58Z</time>
      </trkpt>
      <trkpt lat="42.3646" lon="2.17533">
        <ele>1201.2</ele>
        <time>2024-09-25T08:36:59Z</time>
      </trkpt>
      <trkpt lat="42.3646" lon="2.17533">
        <ele>1201.2</ele>
        <time>2024-09-25T08:37:00Z</time>
      </trkpt>
      <trkpt lat="42.3646" lon="2.17534">
        <ele>1201.2</ele>
        <time>2024-09-25T08:37:01Z</time>
      </trkpt>
      <trkpt lat="42.3646" lon="2.17534">
        <ele>1201.2</ele>
        <time>2024-09-25T08:37:02Z</time>
      </trkpt>
      <trkpt lat="42.3646" lon="2.17534">
        <ele>1201.2</ele>
        <time>2024-09-25T08:37:03Z</time>
      </trkpt>
      <trkpt lat="42.3646" lon="2.17534">
        <ele>1201.2</ele>
        <time>2024-09-25T08:37:04Z</time>
      </trkpt>
      <trkpt lat="42.3646" lon="2.17535">
        <ele>1201.2</ele>
        <time>2024-09-25T08:37:05Z</time>
      </trkpt>
      <trkpt lat="42.3646" lon="2.17535">
        <ele>1201.1</ele>
        <time>2024-09-25T08:37:06Z</time>
      </trkpt>
      <trkpt lat="42.3646" lon="2.17535">
        <ele>1201.1</ele>
        <time>2024-09-25T08:37:07Z</time>
      </trkpt>
      <trkpt lat="42.3646" lon="2.17536">
        <ele>1201.1</ele>
        <time>2024-09-25T08:37:08Z</time>
      </trkpt>
      <trkpt lat="42.3646" lon="2.17536">
        <ele>1201.1</ele>
        <time>2024-09-25T08:37:09Z</time>
      </trkpt>
      <trkpt lat="42.3646" lon="2.17537">
        <ele>1201.1</ele>
        <time>2024-09-25T08:37:10Z</time>
      </trkpt>
      <trkpt lat="42.3646" lon="2.17538">
        <ele>1201</ele>
        <time>2024-09-25T08:37:11Z</time>
      </trkpt>
      <trkpt lat="42.36461" lon="2.17539">
        <ele>1201</ele>
        <time>2024-09-25T08:37:12Z</time>
      </trkpt>
      <trkpt lat="42.36461" lon="2.1754">
        <ele>1201</ele>
        <time>2024-09-25T08:37:13Z</time>
      </trkpt>
      <trkpt lat="42.36461" lon="2.17541">
        <ele>1200.9</ele>
        <time>2024-09-25T08:37:14Z</time>
      </trkpt>
      <trkpt lat="42.36462" lon="2.17542">
        <ele>1200.9</ele>
        <time>2024-09-25T08:37:15Z</time>
      </trkpt>
      <trkpt lat="42.36462" lon="2.17544">
        <ele>1200.8</ele>
        <time>2024-09-25T08:37:16Z</time>
      </trkpt>
      <trkpt lat="42.36462" lon="2.17546">
        <ele>1200.8</ele>
        <time>2024-09-25T08:37:17Z</time>
      </trkpt>
      <trkpt lat="42.36463" lon="2.17548">
        <ele>1200.8</ele>
        <time>2024-09-25T08:37:18Z</time>
      </trkpt>
      <trkpt lat="42.36465" lon="2.1755">
        <ele>1200.8</ele>
        <time>2024-09-25T08:37:19Z</time>
      </trkpt>
      <trkpt lat="42.36465" lon="2.17551">
        <ele>1200.8</ele>
        <time>2024-09-25T08:37:20Z</time>
      </trkpt>
      <trkpt lat="42.36466" lon="2.17551">
        <ele>1200.8</ele>
        <time>2024-09-25T08:37:21Z</time>
      </trkpt>
      <trkpt lat="42.36468" lon="2.17552">
        <ele>1200.8</ele>
        <time>2024-09-25T08:37:22Z</time>
      </trkpt>
      <trkpt lat="42.36469" lon="2.17553">
        <ele>1200.9</ele>
        <time>2024-09-25T08:37:23Z</time>
      </trkpt>
      <trkpt lat="42.3647" lon="2.17553">
        <ele>1200.9</ele>
        <time>2024-09-25T08:37:24Z</time>
      </trkpt>
      <trkpt lat="42.36471" lon="2.17554">
        <ele>1200.9</ele>
        <time>2024-09-25T08:37:25Z</time>
      </trkpt>
      <trkpt lat="42.36472" lon="2.17555">
        <ele>1201</ele>
        <time>2024-09-25T08:37:26Z</time>
      </trkpt>
      <trkpt lat="42.36473" lon="2.17555">
        <ele>1201</ele>
        <time>2024-09-25T08:37:27Z</time>
      </trkpt>
      <trkpt lat="42.36474" lon="2.17557">
        <ele>1201.1</ele>
        <time>2024-09-25T08:37:28Z</time>
      </trkpt>
      <trkpt lat="42.36474" lon="2.17557">
        <ele>1201.1</ele>
        <time>2024-09-25T08:37:29Z</time>
      </trkpt>
      <trkpt lat="42.36474" lon="2.17558">
        <ele>1201.2</ele>
        <time>2024-09-25T08:37:30Z</time>
      </trkpt>
      <trkpt lat="42.36474" lon="2.17558">
        <ele>1201.2</ele>
        <time>2024-09-25T08:37:31Z</time>
      </trkpt>
      <trkpt lat="42.36475" lon="2.17559">
        <ele>1201.3</ele>
        <time>2024-09-25T08:37:32Z</time>
      </trkpt>
      <trkpt lat="42.36475" lon="2.1756">
        <ele>1201.3</ele>
        <time>2024-09-25T08:37:33Z</time>
      </trkpt>
      <trkpt lat="42.36476" lon="2.1756">
        <ele>1201.4</ele>
        <time>2024-09-25T08:37:34Z</time>
      </trkpt>
      <trkpt lat="42.36476" lon="2.17561">
        <ele>1201.5</ele>
        <time>2024-09-25T08:37:35Z</time>
      </trkpt>
      <trkpt lat="42.36476" lon="2.17562">
        <ele>1201.5</ele>
        <time>2024-09-25T08:37:36Z</time>
      </trkpt>
      <trkpt lat="42.36477" lon="2.17562">
        <ele>1201.5</ele>
        <time>2024-09-25T08:37:37Z</time>
      </trkpt>
      <trkpt lat="42.36477" lon="2.17562">
        <ele>1201.6</ele>
        <time>2024-09-25T08:37:38Z</time>
      </trkpt>
      <trkpt lat="42.36478" lon="2.17563">
        <ele>1201.6</ele>
        <time>2024-09-25T08:37:39Z</time>
      </trkpt>
      <trkpt lat="42.36479" lon="2.17564">
        <ele>1201.7</ele>
        <time>2024-09-25T08:37:40Z</time>
      </trkpt>
      <trkpt lat="42.3648" lon="2.17564">
        <ele>1201.9</ele>
        <time>2024-09-25T08:37:41Z</time>
      </trkpt>
      <trkpt lat="42.36481" lon="2.17564">
        <ele>1202</ele>
        <time>2024-09-25T08:37:42Z</time>
      </trkpt>
      <trkpt lat="42.36482" lon="2.17565">
        <ele>1202.2</ele>
        <time>2024-09-25T08:37:43Z</time>
      </trkpt>
      <trkpt lat="42.36482" lon="2.17566">
        <ele>1202.2</ele>
        <time>2024-09-25T08:37:44Z</time>
      </trkpt>
      <trkpt lat="42.36483" lon="2.17567">
        <ele>1202.3</ele>
        <time>2024-09-25T08:37:45Z</time>
      </trkpt>
      <trkpt lat="42.36483" lon="2.17568">
        <ele>1202.5</ele>
        <time>2024-09-25T08:37:46Z</time>
      </trkpt>
      <trkpt lat="42.36484" lon="2.17569">
        <ele>1202.6</ele>
        <time>2024-09-25T08:37:47Z</time>
      </trkpt>
      <trkpt lat="42.36485" lon="2.1757">
        <ele>1202.8</ele>
        <time>2024-09-25T08:37:48Z</time>
      </trkpt>
      <trkpt lat="42.36485" lon="2.17571">
        <ele>1202.9</ele>
        <time>2024-09-25T08:37:49Z</time>
      </trkpt>
      <trkpt lat="42.36485" lon="2.17571">
        <ele>1202.9</ele>
        <time>2024-09-25T08:37:50Z</time>
      </trkpt>
      <trkpt lat="42.36486" lon="2.17572">
        <ele>1203</ele>
        <time>2024-09-25T08:37:51Z</time>
      </trkpt>
      <trkpt lat="42.36486" lon="2.17572">
        <ele>1203.1</ele>
        <time>2024-09-25T08:37:52Z</time>
      </trkpt>
      <trkpt lat="42.36486" lon="2.17572">
        <ele>1203.1</ele>
        <time>2024-09-25T08:37:53Z</time>
      </trkpt>
      <trkpt lat="42.36486" lon="2.17572">
        <ele>1203.1</ele>
        <time>2024-09-25T08:37:54Z</time>
      </trkpt>
      <trkpt lat="42.36486" lon="2.17572">
        <ele>1203.1</ele>
        <time>2024-09-25T08:37:55Z</time>
      </trkpt>
      <trkpt lat="42.36487" lon="2.17573">
        <ele>1203.2</ele>
        <time>2024-09-25T08:37:56Z</time>
      </trkpt>
      <trkpt lat="42.36487" lon="2.17573">
        <ele>1203.3</ele>
        <time>2024-09-25T08:37:57Z</time>
      </trkpt>
      <trkpt lat="42.36488" lon="2.17573">
        <ele>1203.4</ele>
        <time>2024-09-25T08:37:58Z</time>
      </trkpt>
      <trkpt lat="42.36488" lon="2.17573">
        <ele>1203.4</ele>
        <time>2024-09-25T08:37:59Z</time>
      </trkpt>
      <trkpt lat="42.36488" lon="2.17574">
        <ele>1203.5</ele>
        <time>2024-09-25T08:38:00Z</time>
      </trkpt>
      <trkpt lat="42.36489" lon="2.17575">
        <ele>1203.6</ele>
        <time>2024-09-25T08:38:01Z</time>
      </trkpt>
      <trkpt lat="42.36489" lon="2.17576">
        <ele>1203.7</ele>
        <time>2024-09-25T08:38:02Z</time>
      </trkpt>
      <trkpt lat="42.36489" lon="2.17576">
        <ele>1203.8</ele>
        <time>2024-09-25T08:38:03Z</time>
      </trkpt>
      <trkpt lat="42.36489" lon="2.17577">
        <ele>1203.9</ele>
        <time>2024-09-25T08:38:04Z</time>
      </trkpt>
      <trkpt lat="42.3649" lon="2.17577">
        <ele>1203.9</ele>
        <time>2024-09-25T08:38:05Z</time>
      </trkpt>
      <trkpt lat="42.3649" lon="2.17577">
        <ele>1204</ele>
        <time>2024-09-25T08:38:06Z</time>
      </trkpt>
      <trkpt lat="42.3649" lon="2.17578">
        <ele>1204.1</ele>
        <time>2024-09-25T08:38:07Z</time>
      </trkpt>
      <trkpt lat="42.36491" lon="2.17579">
        <ele>1204.2</ele>
        <time>2024-09-25T08:38:08Z</time>
      </trkpt>
      <trkpt lat="42.36492" lon="2.17579">
        <ele>1204.3</ele>
        <time>2024-09-25T08:38:09Z</time>
      </trkpt>
      <trkpt lat="42.36492" lon="2.17579">
        <ele>1204.4</ele>
        <time>2024-09-25T08:38:10Z</time>
      </trkpt>
      <trkpt lat="42.36492" lon="2.17579">
        <ele>1204.5</ele>
        <time>2024-09-25T08:38:11Z</time>
      </trkpt>
      <trkpt lat="42.36492" lon="2.17579">
        <ele>1204.5</ele>
        <time>2024-09-25T08:38:12Z</time>
      </trkpt>
      <trkpt lat="42.36492" lon="2.17579">
        <ele>1204.6</ele>
        <time>2024-09-25T08:38:13Z</time>
      </trkpt>
      <trkpt lat="42.36493" lon="2.17579">
        <ele>1204.6</ele>
        <time>2024-09-25T08:38:14Z</time>
      </trkpt>
      <trkpt lat="42.36493" lon="2.17579">
        <ele>1204.7</ele>
        <time>2024-09-25T08:38:15Z</time>
      </trkpt>
      <trkpt lat="42.36494" lon="2.17579">
        <ele>1204.7</ele>
        <time>2024-09-25T08:38:16Z</time>
      </trkpt>
      <trkpt lat="42.36494" lon="2.17579">
        <ele>1204.8</ele>
        <time>2024-09-25T08:38:17Z</time>
      </trkpt>
      <trkpt lat="42.36495" lon="2.17579">
        <ele>1204.9</ele>
        <time>2024-09-25T08:38:18Z</time>
      </trkpt>
      <trkpt lat="42.36495" lon="2.17579">
        <ele>1204.9</ele>
        <time>2024-09-25T08:38:19Z</time>
      </trkpt>
      <trkpt lat="42.36495" lon="2.17579">
        <ele>1205</ele>
        <time>2024-09-25T08:38:20Z</time>
      </trkpt>
      <trkpt lat="42.36496" lon="2.17579">
        <ele>1205.1</ele>
        <time>2024-09-25T08:38:21Z</time>
      </trkpt>
      <trkpt lat="42.36497" lon="2.1758">
        <ele>1205.2</ele>
        <time>2024-09-25T08:38:22Z</time>
      </trkpt>
      <trkpt lat="42.36497" lon="2.1758">
        <ele>1205.4</ele>
        <time>2024-09-25T08:38:23Z</time>
      </trkpt>
      <trkpt lat="42.36498" lon="2.17581">
        <ele>1205.4</ele>
        <time>2024-09-25T08:38:24Z</time>
      </trkpt>
      <trkpt lat="42.36498" lon="2.17582">
        <ele>1205.6</ele>
        <time>2024-09-25T08:38:25Z</time>
      </trkpt>
      <trkpt lat="42.36499" lon="2.17583">
        <ele>1205.7</ele>
        <time>2024-09-25T08:38:26Z</time>
      </trkpt>
      <trkpt lat="42.36499" lon="2.17584">
        <ele>1205.8</ele>
        <time>2024-09-25T08:38:27Z</time>
      </trkpt>
      <trkpt lat="42.365" lon="2.17585">
        <ele>1206</ele>
        <time>2024-09-25T08:38:28Z</time>
      </trkpt>
      <trkpt lat="42.365" lon="2.17586">
        <ele>1206.1</ele>
        <time>2024-09-25T08:38:29Z</time>
      </trkpt>
      <trkpt lat="42.36501" lon="2.17587">
        <ele>1206.2</ele>
        <time>2024-09-25T08:38:30Z</time>
      </trkpt>
      <trkpt lat="42.36501" lon="2.17588">
        <ele>1206.3</ele>
        <time>2024-09-25T08:38:31Z</time>
      </trkpt>
      <trkpt lat="42.36501" lon="2.17589">
        <ele>1206.4</ele>
        <time>2024-09-25T08:38:32Z</time>
      </trkpt>
      <trkpt lat="42.36501" lon="2.1759">
        <ele>1206.5</ele>
        <time>2024-09-25T08:38:33Z</time>
      </trkpt>
      <trkpt lat="42.36502" lon="2.17591">
        <ele>1206.6</ele>
        <time>2024-09-25T08:38:34Z</time>
      </trkpt>
      <trkpt lat="42.36502" lon="2.17591">
        <ele>1206.7</ele>
        <time>2024-09-25T08:38:35Z</time>
      </trkpt>
      <trkpt lat="42.36503" lon="2.17592">
        <ele>1206.8</ele>
        <time>2024-09-25T08:38:36Z</time>
      </trkpt>
      <trkpt lat="42.36504" lon="2.17593">
        <ele>1206.9</ele>
        <time>2024-09-25T08:38:37Z</time>
      </trkpt>
      <trkpt lat="42.36504" lon="2.17593">
        <ele>1206.9</ele>
        <time>2024-09-25T08:38:38Z</time>
      </trkpt>
      <trkpt lat="42.36504" lon="2.17594">
        <ele>1207</ele>
        <time>2024-09-25T08:38:39Z</time>
      </trkpt>
      <trkpt lat="42.36505" lon="2.17594">
        <ele>1207.1</ele>
        <time>2024-09-25T08:38:40Z</time>
      </trkpt>
      <trkpt lat="42.36505" lon="2.17594">
        <ele>1207.1</ele>
        <time>2024-09-25T08:38:41Z</time>
      </trkpt>
      <trkpt lat="42.36505" lon="2.17595">
        <ele>1207.2</ele>
        <time>2024-09-25T08:38:42Z</time>
      </trkpt>
      <trkpt lat="42.36506" lon="2.17595">
        <ele>1207.2</ele>
        <time>2024-09-25T08:38:43Z</time>
      </trkpt>
      <trkpt lat="42.36506" lon="2.17596">
        <ele>1207.3</ele>
        <time>2024-09-25T08:38:44Z</time>
      </trkpt>
      <trkpt lat="42.36507" lon="2.17596">
        <ele>1207.4</ele>
        <time>2024-09-25T08:38:45Z</time>
      </trkpt>
      <trkpt lat="42.36507" lon="2.17597">
        <ele>1207.5</ele>
        <time>2024-09-25T08:38:46Z</time>
      </trkpt>
      <trkpt lat="42.36508" lon="2.17598">
        <ele>1207.6</ele>
        <time>2024-09-25T08:38:47Z</time>
      </trkpt>
      <trkpt lat="42.36508" lon="2.17599">
        <ele>1207.7</ele>
        <time>2024-09-25T08:38:48Z</time>
      </trkpt>
      <trkpt lat="42.36509" lon="2.17599">
        <ele>1207.8</ele>
        <time>2024-09-25T08:38:49Z</time>
      </trkpt>
      <trkpt lat="42.36509" lon="2.17599">
        <ele>1207.9</ele>
        <time>2024-09-25T08:38:50Z</time>
      </trkpt>
      <trkpt lat="42.3651" lon="2.176">
        <ele>1208</ele>
        <time>2024-09-25T08:38:51Z</time>
      </trkpt>
      <trkpt lat="42.3651" lon="2.176">
        <ele>1208</ele>
        <time>2024-09-25T08:38:52Z</time>
      </trkpt>
      <trkpt lat="42.36511" lon="2.176">
        <ele>1208.1</ele>
        <time>2024-09-25T08:38:53Z</time>
      </trkpt>
      <trkpt lat="42.36511" lon="2.17601">
        <ele>1208.2</ele>
        <time>2024-09-25T08:38:54Z</time>
      </trkpt>
      <trkpt lat="42.36512" lon="2.17601">
        <ele>1208.2</ele>
        <time>2024-09-25T08:38:55Z</time>
      </trkpt>
      <trkpt lat="42.36512" lon="2.17602">
        <ele>1208.3</ele>
        <time>2024-09-25T08:38:56Z</time>
      </trkpt>
      <trkpt lat="42.36513" lon="2.17602">
        <ele>1208.4</ele>
        <time>2024-09-25T08:38:57Z</time>
      </trkpt>
      <trkpt lat="42.36513" lon="2.17603">
        <ele>1208.5</ele>
        <time>2024-09-25T08:38:58Z</time>
      </trkpt>
      <trkpt lat="42.36513" lon="2.17603">
        <ele>1208.5</ele>
        <time>2024-09-25T08:38:59Z</time>
      </trkpt>
      <trkpt lat="42.36513" lon="2.17603">
        <ele>1208.6</ele>
        <time>2024-09-25T08:39:00Z</time>
      </trkpt>
      <trkpt lat="42.36514" lon="2.17604">
        <ele>1208.7</ele>
        <time>2024-09-25T08:39:01Z</time>
      </trkpt>
      <trkpt lat="42.36514" lon="2.17604">
        <ele>1208.7</ele>
        <time>2024-09-25T08:39:02Z</time>
      </trkpt>
      <trkpt lat="42.36515" lon="2.17605">
        <ele>1208.9</ele>
        <time>2024-09-25T08:39:03Z</time>
      </trkpt>
      <trkpt lat="42.36516" lon="2.17606">
        <ele>1209</ele>
        <time>2024-09-25T08:39:04Z</time>
      </trkpt>
      <trkpt lat="42.36516" lon="2.17606">
        <ele>1209.1</ele>
        <time>2024-09-25T08:39:05Z</time>
      </trkpt>
      <trkpt lat="42.36516" lon="2.17607">
        <ele>1209.2</ele>
        <time>2024-09-25T08:39:06Z</time>
      </trkpt>
      <trkpt lat="42.36516" lon="2.17608">
        <ele>1209.3</ele>
        <time>2024-09-25T08:39:07Z</time>
      </trkpt>
      <trkpt lat="42.36517" lon="2.17608">
        <ele>1209.4</ele>
        <time>2024-09-25T08:39:08Z</time>
      </trkpt>
      <trkpt lat="42.36517" lon="2.17609">
        <ele>1209.5</ele>
        <time>2024-09-25T08:39:09Z</time>
      </trkpt>
      <trkpt lat="42.36518" lon="2.17609">
        <ele>1209.6</ele>
        <time>2024-09-25T08:39:10Z</time>
      </trkpt>
      <trkpt lat="42.36518" lon="2.1761">
        <ele>1209.7</ele>
        <time>2024-09-25T08:39:11Z</time>
      </trkpt>
      <trkpt lat="42.36519" lon="2.1761">
        <ele>1209.8</ele>
        <time>2024-09-25T08:39:12Z</time>
      </trkpt>
      <trkpt lat="42.36519" lon="2.17611">
        <ele>1209.9</ele>
        <time>2024-09-25T08:39:13Z</time>
      </trkpt>
      <trkpt lat="42.3652" lon="2.17611">
        <ele>1210</ele>
        <time>2024-09-25T08:39:14Z</time>
      </trkpt>
      <trkpt lat="42.3652" lon="2.17612">
        <ele>1210.1</ele>
        <time>2024-09-25T08:39:15Z</time>
      </trkpt>
      <trkpt lat="42.36521" lon="2.17612">
        <ele>1210.2</ele>
        <time>2024-09-25T08:39:16Z</time>
      </trkpt>
      <trkpt lat="42.36521" lon="2.17613">
        <ele>1210.3</ele>
        <time>2024-09-25T08:39:17Z</time>
      </trkpt>
      <trkpt lat="42.36521" lon="2.17613">
        <ele>1210.4</ele>
        <time>2024-09-25T08:39:18Z</time>
      </trkpt>
      <trkpt lat="42.36522" lon="2.17614">
        <ele>1210.5</ele>
        <time>2024-09-25T08:39:19Z</time>
      </trkpt>
      <trkpt lat="42.36522" lon="2.17615">
        <ele>1210.6</ele>
        <time>2024-09-25T08:39:20Z</time>
      </trkpt>
      <trkpt lat="42.36522" lon="2.17615">
        <ele>1210.7</ele>
        <time>2024-09-25T08:39:21Z</time>
      </trkpt>
      <trkpt lat="42.36523" lon="2.17616">
        <ele>1210.8</ele>
        <time>2024-09-25T08:39:22Z</time>
      </trkpt>
      <trkpt lat="42.36523" lon="2.17617">
        <ele>1211</ele>
        <time>2024-09-25T08:39:23Z</time>
      </trkpt>
      <trkpt lat="42.36523" lon="2.17618">
        <ele>1211.2</ele>
        <time>2024-09-25T08:39:24Z</time>
      </trkpt>
      <trkpt lat="42.36524" lon="2.17619">
        <ele>1211.3</ele>
        <time>2024-09-25T08:39:25Z</time>
      </trkpt>
      <trkpt lat="42.36524" lon="2.17619">
        <ele>1211.4</ele>
        <time>2024-09-25T08:39:26Z</time>
      </trkpt>
      <trkpt lat="42.36525" lon="2.1762">
        <ele>1211.5</ele>
        <time>2024-09-25T08:39:27Z</time>
      </trkpt>
      <trkpt lat="42.36525" lon="2.17621">
        <ele>1211.6</ele>
        <time>2024-09-25T08:39:28Z</time>
      </trkpt>
      <trkpt lat="42.36525" lon="2.17621">
        <ele>1211.7</ele>
        <time>2024-09-25T08:39:29Z</time>
      </trkpt>
      <trkpt lat="42.36525" lon="2.17622">
        <ele>1211.8</ele>
        <time>2024-09-25T08:39:30Z</time>
      </trkpt>
      <trkpt lat="42.36526" lon="2.17623">
        <ele>1211.9</ele>
        <time>2024-09-25T08:39:31Z</time>
      </trkpt>
      <trkpt lat="42.36526" lon="2.17624">
        <ele>1212</ele>
        <time>2024-09-25T08:39:32Z</time>
      </trkpt>
      <trkpt lat="42.36526" lon="2.17624">
        <ele>1212.1</ele>
        <time>2024-09-25T08:39:33Z</time>
      </trkpt>
      <trkpt lat="42.36526" lon="2.17625">
        <ele>1212.1</ele>
        <time>2024-09-25T08:39:34Z</time>
      </trkpt>
      <trkpt lat="42.36526" lon="2.17625">
        <ele>1212.2</ele>
        <time>2024-09-25T08:39:35Z</time>
      </trkpt>
      <trkpt lat="42.36527" lon="2.17626">
        <ele>1212.3</ele>
        <time>2024-09-25T08:39:36Z</time>
      </trkpt>
      <trkpt lat="42.36527" lon="2.17627">
        <ele>1212.5</ele>
        <time>2024-09-25T08:39:37Z</time>
      </trkpt>
      <trkpt lat="42.36528" lon="2.17628">
        <ele>1212.6</ele>
        <time>2024-09-25T08:39:38Z</time>
      </trkpt>
      <trkpt lat="42.36528" lon="2.17628">
        <ele>1212.7</ele>
        <time>2024-09-25T08:39:39Z</time>
      </trkpt>
      <trkpt lat="42.36528" lon="2.17629">
        <ele>1212.8</ele>
        <time>2024-09-25T08:39:40Z</time>
      </trkpt>
      <trkpt lat="42.36529" lon="2.1763">
        <ele>1212.9</ele>
        <time>2024-09-25T08:39:41Z</time>
      </trkpt>
      <trkpt lat="42.36529" lon="2.1763">
        <ele>1213</ele>
        <time>2024-09-25T08:39:42Z</time>
      </trkpt>
      <trkpt lat="42.36529" lon="2.17631">
        <ele>1213.1</ele>
        <time>2024-09-25T08:39:43Z</time>
      </trkpt>
      <trkpt lat="42.36529" lon="2.17632">
        <ele>1213.2</ele>
        <time>2024-09-25T08:39:44Z</time>
      </trkpt>
      <trkpt lat="42.3653" lon="2.17632">
        <ele>1213.3</ele>
        <time>2024-09-25T08:39:45Z</time>
      </trkpt>
      <trkpt lat="42.3653" lon="2.17634">
        <ele>1213.4</ele>
        <time>2024-09-25T08:39:46Z</time>
      </trkpt>
      <trkpt lat="42.3653" lon="2.17634">
        <ele>1213.6</ele>
        <time>2024-09-25T08:39:47Z</time>
      </trkpt>
      <trkpt lat="42.36531" lon="2.17635">
        <ele>1213.7</ele>
        <time>2024-09-25T08:39:48Z</time>
      </trkpt>
      <trkpt lat="42.36532" lon="2.17636">
        <ele>1213.9</ele>
        <time>2024-09-25T08:39:49Z</time>
      </trkpt>
      <trkpt lat="42.36532" lon="2.17637">
        <ele>1214</ele>
        <time>2024-09-25T08:39:50Z</time>
      </trkpt>
      <trkpt lat="42.36533" lon="2.17639">
        <ele>1214.2</ele>
        <time>2024-09-25T08:39:51Z</time>
      </trkpt>
      <trkpt lat="42.36533" lon="2.1764">
        <ele>1214.3</ele>
        <time>2024-09-25T08:39:52Z</time>
      </trkpt>
      <trkpt lat="42.36533" lon="2.17641">
        <ele>1214.5</ele>
        <time>2024-09-25T08:39:53Z</time>
      </trkpt>
      <trkpt lat="42.36534" lon="2.17642">
        <ele>1214.6</ele>
        <time>2024-09-25T08:39:54Z</time>
      </trkpt>
      <trkpt lat="42.36534" lon="2.17642">
        <ele>1214.7</ele>
        <time>2024-09-25T08:39:55Z</time>
      </trkpt>
      <trkpt lat="42.36534" lon="2.17643">
        <ele>1214.7</ele>
        <time>2024-09-25T08:39:56Z</time>
      </trkpt>
      <trkpt lat="42.36535" lon="2.17643">
        <ele>1214.8</ele>
        <time>2024-09-25T08:39:57Z</time>
      </trkpt>
      <trkpt lat="42.36535" lon="2.17644">
        <ele>1214.9</ele>
        <time>2024-09-25T08:39:58Z</time>
      </trkpt>
      <trkpt lat="42.36536" lon="2.17644">
        <ele>1215</ele>
        <time>2024-09-25T08:39:59Z</time>
      </trkpt>
      <trkpt lat="42.36536" lon="2.17645">
        <ele>1215.1</ele>
        <time>2024-09-25T08:40:00Z</time>
      </trkpt>
      <trkpt lat="42.36537" lon="2.17645">
        <ele>1215.2</ele>
        <time>2024-09-25T08:40:01Z</time>
      </trkpt>
      <trkpt lat="42.36538" lon="2.17645">
        <ele>1215.3</ele>
        <time>2024-09-25T08:40:02Z</time>
      </trkpt>
      <trkpt lat="42.36538" lon="2.17646">
        <ele>1215.4</ele>
        <time>2024-09-25T08:40:03Z</time>
      </trkpt>
      <trkpt lat="42.36539" lon="2.17646">
        <ele>1215.5</ele>
        <time>2024-09-25T08:40:04Z</time>
      </trkpt>
      <trkpt lat="42.36539" lon="2.17647">
        <ele>1215.6</ele>
        <time>2024-09-25T08:40:05Z</time>
      </trkpt>
      <trkpt lat="42.3654" lon="2.17647">
        <ele>1215.7</ele>
        <time>2024-09-25T08:40:06Z</time>
      </trkpt>
      <trkpt lat="42.3654" lon="2.17647">
        <ele>1215.8</ele>
        <time>2024-09-25T08:40:07Z</time>
      </trkpt>
      <trkpt lat="42.36541" lon="2.17648">
        <ele>1215.9</ele>
        <time>2024-09-25T08:40:08Z</time>
      </trkpt>
      <trkpt lat="42.36541" lon="2.17648">
        <ele>1215.9</ele>
        <time>2024-09-25T08:40:09Z</time>
      </trkpt>
      <trkpt lat="42.36542" lon="2.17649">
        <ele>1216</ele>
        <time>2024-09-25T08:40:10Z</time>
      </trkpt>
      <trkpt lat="42.36542" lon="2.17649">
        <ele>1216.1</ele>
        <time>2024-09-25T08:40:11Z</time>
      </trkpt>
      <trkpt lat="42.36542" lon="2.1765">
        <ele>1216.1</ele>
        <time>2024-09-25T08:40:12Z</time>
      </trkpt>
      <trkpt lat="42.36542" lon="2.17651">
        <ele>1216.2</ele>
        <time>2024-09-25T08:40:13Z</time>
      </trkpt>
      <trkpt lat="42.36543" lon="2.17652">
        <ele>1216.3</ele>
        <time>2024-09-25T08:40:14Z</time>
      </trkpt>
      <trkpt lat="42.36543" lon="2.17652">
        <ele>1216.4</ele>
        <time>2024-09-25T08:40:15Z</time>
      </trkpt>
      <trkpt lat="42.36543" lon="2.17653">
        <ele>1216.5</ele>
        <time>2024-09-25T08:40:16Z</time>
      </trkpt>
      <trkpt lat="42.36543" lon="2.17654">
        <ele>1216.6</ele>
        <time>2024-09-25T08:40:17Z</time>
      </trkpt>
      <trkpt lat="42.36543" lon="2.17655">
        <ele>1216.7</ele>
        <time>2024-09-25T08:40:18Z</time>
      </trkpt>
      <trkpt lat="42.36544" lon="2.17656">
        <ele>1216.8</ele>
        <time>2024-09-25T08:40:19Z</time>
      </trkpt>
      <trkpt lat="42.36544" lon="2.17657">
        <ele>1216.9</ele>
        <time>2024-09-25T08:40:20Z</time>
      </trkpt>
      <trkpt lat="42.36544" lon="2.17658">
        <ele>1217</ele>
        <time>2024-09-25T08:40:21Z</time>
      </trkpt>
      <trkpt lat="42.36544" lon="2.17659">
        <ele>1217.1</ele>
        <time>2024-09-25T08:40:22Z</time>
      </trkpt>
      <trkpt lat="42.36544" lon="2.1766">
        <ele>1217.2</ele>
        <time>2024-09-25T08:40:23Z</time>
      </trkpt>
      <trkpt lat="42.36545" lon="2.17661">
        <ele>1217.3</ele>
        <time>2024-09-25T08:40:24Z</time>
      </trkpt>
      <trkpt lat="42.36545" lon="2.17662">
        <ele>1217.4</ele>
        <time>2024-09-25T08:40:25Z</time>
      </trkpt>
      <trkpt lat="42.36545" lon="2.17663">
        <ele>1217.4</ele>
        <time>2024-09-25T08:40:26Z</time>
      </trkpt>
      <trkpt lat="42.36545" lon="2.17663">
        <ele>1217.5</ele>
        <time>2024-09-25T08:40:27Z</time>
      </trkpt>
      <trkpt lat="42.36545" lon="2.17664">
        <ele>1217.6</ele>
        <time>2024-09-25T08:40:28Z</time>
      </trkpt>
      <trkpt lat="42.36546" lon="2.17666">
        <ele>1217.8</ele>
        <time>2024-09-25T08:40:29Z</time>
      </trkpt>
      <trkpt lat="42.36547" lon="2.17666">
        <ele>1217.9</ele>
        <time>2024-09-25T08:40:30Z</time>
      </trkpt>
      <trkpt lat="42.36547" lon="2.17667">
        <ele>1218</ele>
        <time>2024-09-25T08:40:31Z</time>
      </trkpt>
      <trkpt lat="42.36548" lon="2.17667">
        <ele>1218.1</ele>
        <time>2024-09-25T08:40:32Z</time>
      </trkpt>
      <trkpt lat="42.36548" lon="2.17668">
        <ele>1218.2</ele>
        <time>2024-09-25T08:40:33Z</time>
      </trkpt>
      <trkpt lat="42.36549" lon="2.1767">
        <ele>1218.4</ele>
        <time>2024-09-25T08:40:34Z</time>
      </trkpt>
      <trkpt lat="42.3655" lon="2.17671">
        <ele>1218.5</ele>
        <time>2024-09-25T08:40:35Z</time>
      </trkpt>
      <trkpt lat="42.3655" lon="2.17672">
        <ele>1218.7</ele>
        <time>2024-09-25T08:40:36Z</time>
      </trkpt>
      <trkpt lat="42.36551" lon="2.17673">
        <ele>1218.8</ele>
        <time>2024-09-25T08:40:37Z</time>
      </trkpt>
      <trkpt lat="42.36551" lon="2.17675">
        <ele>1218.9</ele>
        <time>2024-09-25T08:40:38Z</time>
      </trkpt>
      <trkpt lat="42.36551" lon="2.17676">
        <ele>1219.1</ele>
        <time>2024-09-25T08:40:39Z</time>
      </trkpt>
      <trkpt lat="42.36551" lon="2.17677">
        <ele>1219.1</ele>
        <time>2024-09-25T08:40:40Z</time>
      </trkpt>
      <trkpt lat="42.36551" lon="2.17679">
        <ele>1219.2</ele>
        <time>2024-09-25T08:40:41Z</time>
      </trkpt>
      <trkpt lat="42.36551" lon="2.17679">
        <ele>1219.3</ele>
        <time>2024-09-25T08:40:42Z</time>
      </trkpt>
      <trkpt lat="42.36552" lon="2.1768">
        <ele>1219.4</ele>
        <time>2024-09-25T08:40:43Z</time>
      </trkpt>
      <trkpt lat="42.36552" lon="2.17681">
        <ele>1219.5</ele>
        <time>2024-09-25T08:40:44Z</time>
      </trkpt>
      <trkpt lat="42.36553" lon="2.17682">
        <ele>1219.6</ele>
        <time>2024-09-25T08:40:45Z</time>
      </trkpt>
      <trkpt lat="42.36553" lon="2.17683">
        <ele>1219.7</ele>
        <time>2024-09-25T08:40:46Z</time>
      </trkpt>
      <trkpt lat="42.36554" lon="2.17683">
        <ele>1219.8</ele>
        <time>2024-09-25T08:40:47Z</time>
      </trkpt>
      <trkpt lat="42.36555" lon="2.17684">
        <ele>1219.8</ele>
        <time>2024-09-25T08:40:48Z</time>
      </trkpt>
      <trkpt lat="42.36555" lon="2.17684">
        <ele>1219.9</ele>
        <time>2024-09-25T08:40:49Z</time>
      </trkpt>
      <trkpt lat="42.36556" lon="2.17684">
        <ele>1220</ele>
        <time>2024-09-25T08:40:50Z</time>
      </trkpt>
      <trkpt lat="42.36557" lon="2.17685">
        <ele>1220.1</ele>
        <time>2024-09-25T08:40:51Z</time>
      </trkpt>
      <trkpt lat="42.36557" lon="2.17685">
        <ele>1220.2</ele>
        <time>2024-09-25T08:40:52Z</time>
      </trkpt>
      <trkpt lat="42.36558" lon="2.17686">
        <ele>1220.2</ele>
        <time>2024-09-25T08:40:53Z</time>
      </trkpt>
      <trkpt lat="42.36558" lon="2.17686">
        <ele>1220.3</ele>
        <time>2024-09-25T08:40:54Z</time>
      </trkpt>
      <trkpt lat="42.36558" lon="2.17687">
        <ele>1220.3</ele>
        <time>2024-09-25T08:40:55Z</time>
      </trkpt>
      <trkpt lat="42.36558" lon="2.17687">
        <ele>1220.4</ele>
        <time>2024-09-25T08:40:56Z</time>
      </trkpt>
      <trkpt lat="42.36558" lon="2.17688">
        <ele>1220.4</ele>
        <time>2024-09-25T08:40:57Z</time>
      </trkpt>
      <trkpt lat="42.36559" lon="2.17688">
        <ele>1220.5</ele>
        <time>2024-09-25T08:40:58Z</time>
      </trkpt>
      <trkpt lat="42.36559" lon="2.17688">
        <ele>1220.5</ele>
        <time>2024-09-25T08:40:59Z</time>
      </trkpt>
      <trkpt lat="42.36559" lon="2.17689">
        <ele>1220.6</ele>
        <time>2024-09-25T08:41:00Z</time>
      </trkpt>
      <trkpt lat="42.3656" lon="2.17689">
        <ele>1220.6</ele>
        <time>2024-09-25T08:41:01Z</time>
      </trkpt>
      <trkpt lat="42.3656" lon="2.17689">
        <ele>1220.7</ele>
        <time>2024-09-25T08:41:02Z</time>
      </trkpt>
      <trkpt lat="42.36561" lon="2.17689">
        <ele>1220.7</ele>
        <time>2024-09-25T08:41:03Z</time>
      </trkpt>
      <trkpt lat="42.36561" lon="2.1769">
        <ele>1220.8</ele>
        <time>2024-09-25T08:41:04Z</time>
      </trkpt>
      <trkpt lat="42.36562" lon="2.1769">
        <ele>1220.8</ele>
        <time>2024-09-25T08:41:05Z</time>
      </trkpt>
      <trkpt lat="42.36562" lon="2.1769">
        <ele>1220.9</ele>
        <time>2024-09-25T08:41:06Z</time>
      </trkpt>
      <trkpt lat="42.36562" lon="2.1769">
        <ele>1220.9</ele>
        <time>2024-09-25T08:41:07Z</time>
      </trkpt>
      <trkpt lat="42.36562" lon="2.1769">
        <ele>1220.9</ele>
        <time>2024-09-25T08:41:08Z</time>
      </trkpt>
      <trkpt lat="42.36562" lon="2.17691">
        <ele>1221</ele>
        <time>2024-09-25T08:41:09Z</time>
      </trkpt>
      <trkpt lat="42.36562" lon="2.17691">
        <ele>1221</ele>
        <time>2024-09-25T08:41:10Z</time>
      </trkpt>
      <trkpt lat="42.36562" lon="2.17691">
        <ele>1221</ele>
        <time>2024-09-25T08:41:11Z</time>
      </trkpt>
      <trkpt lat="42.36562" lon="2.17692">
        <ele>1221</ele>
        <time>2024-09-25T08:41:12Z</time>
      </trkpt>
      <trkpt lat="42.36562" lon="2.17692">
        <ele>1221.1</ele>
        <time>2024-09-25T08:41:13Z</time>
      </trkpt>
      <trkpt lat="42.36562" lon="2.17693">
        <ele>1221.2</ele>
        <time>2024-09-25T08:41:14Z</time>
      </trkpt>
      <trkpt lat="42.36562" lon="2.17694">
        <ele>1221.2</ele>
        <time>2024-09-25T08:41:15Z</time>
      </trkpt>
      <trkpt lat="42.36562" lon="2.17695">
        <ele>1221.3</ele>
        <time>2024-09-25T08:41:16Z</time>
      </trkpt>
      <trkpt lat="42.36562" lon="2.17696">
        <ele>1221.4</ele>
        <time>2024-09-25T08:41:17Z</time>
      </trkpt>
      <trkpt lat="42.36562" lon="2.17696">
        <ele>1221.5</ele>
        <time>2024-09-25T08:41:18Z</time>
      </trkpt>
      <trkpt lat="42.36561" lon="2.17697">
        <ele>1221.6</ele>
        <time>2024-09-25T08:41:19Z</time>
      </trkpt>
      <trkpt lat="42.36561" lon="2.17697">
        <ele>1221.6</ele>
        <time>2024-09-25T08:41:20Z</time>
      </trkpt>
      <trkpt lat="42.36561" lon="2.17698">
        <ele>1221.6</ele>
        <time>2024-09-25T08:41:21Z</time>
      </trkpt>
      <trkpt lat="42.36562" lon="2.17698">
        <ele>1221.7</ele>
        <time>2024-09-25T08:41:22Z</time>
      </trkpt>
      <trkpt lat="42.36562" lon="2.17699">
        <ele>1221.7</ele>
        <time>2024-09-25T08:41:23Z</time>
      </trkpt>
      <trkpt lat="42.36562" lon="2.17699">
        <ele>1221.8</ele>
        <time>2024-09-25T08:41:24Z</time>
      </trkpt>
      <trkpt lat="42.36562" lon="2.17699">
        <ele>1221.8</ele>
        <time>2024-09-25T08:41:25Z</time>
      </trkpt>
      <trkpt lat="42.36562" lon="2.177">
        <ele>1221.9</ele>
        <time>2024-09-25T08:41:26Z</time>
      </trkpt>
      <trkpt lat="42.36563" lon="2.17701">
        <ele>1222</ele>
        <time>2024-09-25T08:41:27Z</time>
      </trkpt>
      <trkpt lat="42.36563" lon="2.17702">
        <ele>1222.1</ele>
        <time>2024-09-25T08:41:28Z</time>
      </trkpt>
      <trkpt lat="42.36563" lon="2.17703">
        <ele>1222.2</ele>
        <time>2024-09-25T08:41:29Z</time>
      </trkpt>
      <trkpt lat="42.36563" lon="2.17704">
        <ele>1222.3</ele>
        <time>2024-09-25T08:41:30Z</time>
      </trkpt>
      <trkpt lat="42.36564" lon="2.17704">
        <ele>1222.4</ele>
        <time>2024-09-25T08:41:31Z</time>
      </trkpt>
      <trkpt lat="42.36564" lon="2.17705">
        <ele>1222.5</ele>
        <time>2024-09-25T08:41:32Z</time>
      </trkpt>
      <trkpt lat="42.36564" lon="2.17706">
        <ele>1222.5</ele>
        <time>2024-09-25T08:41:33Z</time>
      </trkpt>
      <trkpt lat="42.36564" lon="2.17706">
        <ele>1222.6</ele>
        <time>2024-09-25T08:41:34Z</time>
      </trkpt>
      <trkpt lat="42.36565" lon="2.17707">
        <ele>1222.7</ele>
        <time>2024-09-25T08:41:35Z</time>
      </trkpt>
      <trkpt lat="42.36565" lon="2.17708">
        <ele>1222.8</ele>
        <time>2024-09-25T08:41:36Z</time>
      </trkpt>
      <trkpt lat="42.36565" lon="2.17708">
        <ele>1222.8</ele>
        <time>2024-09-25T08:41:37Z</time>
      </trkpt>
      <trkpt lat="42.36565" lon="2.17708">
        <ele>1222.9</ele>
        <time>2024-09-25T08:41:38Z</time>
      </trkpt>
      <trkpt lat="42.36565" lon="2.17709">
        <ele>1222.9</ele>
        <time>2024-09-25T08:41:39Z</time>
      </trkpt>
      <trkpt lat="42.36565" lon="2.1771">
        <ele>1223</ele>
        <time>2024-09-25T08:41:40Z</time>
      </trkpt>
      <trkpt lat="42.36565" lon="2.1771">
        <ele>1223.1</ele>
        <time>2024-09-25T08:41:41Z</time>
      </trkpt>
      <trkpt lat="42.36565" lon="2.17711">
        <ele>1223.2</ele>
        <time>2024-09-25T08:41:42Z</time>
      </trkpt>
      <trkpt lat="42.36566" lon="2.17713">
        <ele>1223.3</ele>
        <time>2024-09-25T08:41:43Z</time>
      </trkpt>
      <trkpt lat="42.36566" lon="2.17714">
        <ele>1223.5</ele>
        <time>2024-09-25T08:41:44Z</time>
      </trkpt>
      <trkpt lat="42.36566" lon="2.17715">
        <ele>1223.6</ele>
        <time>2024-09-25T08:41:45Z</time>
      </trkpt>
      <trkpt lat="42.36566" lon="2.17716">
        <ele>1223.7</ele>
        <time>2024-09-25T08:41:46Z</time>
      </trkpt>
      <trkpt lat="42.36566" lon="2.17717">
        <ele>1223.8</ele>
        <time>2024-09-25T08:41:47Z</time>
      </trkpt>
      <trkpt lat="42.36566" lon="2.17718">
        <ele>1223.9</ele>
        <time>2024-09-25T08:41:48Z</time>
      </trkpt>
      <trkpt lat="42.36566" lon="2.17719">
        <ele>1224</ele>
        <time>2024-09-25T08:41:49Z</time>
      </trkpt>
      <trkpt lat="42.36566" lon="2.1772">
        <ele>1224.1</ele>
        <time>2024-09-25T08:41:50Z</time>
      </trkpt>
      <trkpt lat="42.36566" lon="2.17721">
        <ele>1224.2</ele>
        <time>2024-09-25T08:41:51Z</time>
      </trkpt>
      <trkpt lat="42.36566" lon="2.17722">
        <ele>1224.4</ele>
        <time>2024-09-25T08:41:52Z</time>
      </trkpt>
      <trkpt lat="42.36566" lon="2.17723">
        <ele>1224.5</ele>
        <time>2024-09-25T08:41:53Z</time>
      </trkpt>
      <trkpt lat="42.36566" lon="2.17725">
        <ele>1224.7</ele>
        <time>2024-09-25T08:41:54Z</time>
      </trkpt>
      <trkpt lat="42.36566" lon="2.17726">
        <ele>1224.8</ele>
        <time>2024-09-25T08:41:55Z</time>
      </trkpt>
      <trkpt lat="42.36566" lon="2.17727">
        <ele>1224.9</ele>
        <time>2024-09-25T08:41:56Z</time>
      </trkpt>
      <trkpt lat="42.36566" lon="2.17728">
        <ele>1225</ele>
        <time>2024-09-25T08:41:57Z</time>
      </trkpt>
      <trkpt lat="42.36566" lon="2.17729">
        <ele>1225.1</ele>
        <time>2024-09-25T08:41:58Z</time>
      </trkpt>
      <trkpt lat="42.36565" lon="2.1773">
        <ele>1225.2</ele>
        <time>2024-09-25T08:41:59Z</time>
      </trkpt>
      <trkpt lat="42.36565" lon="2.17731">
        <ele>1225.3</ele>
        <time>2024-09-25T08:42:00Z</time>
      </trkpt>
      <trkpt lat="42.36565" lon="2.17732">
        <ele>1225.4</ele>
        <time>2024-09-25T08:42:01Z</time>
      </trkpt>
      <trkpt lat="42.36565" lon="2.17732">
        <ele>1225.4</ele>
        <time>2024-09-25T08:42:02Z</time>
      </trkpt>
      <trkpt lat="42.36565" lon="2.17733">
        <ele>1225.5</ele>
        <time>2024-09-25T08:42:03Z</time>
      </trkpt>
      <trkpt lat="42.36565" lon="2.17733">
        <ele>1225.6</ele>
        <time>2024-09-25T08:42:04Z</time>
      </trkpt>
      <trkpt lat="42.36565" lon="2.17734">
        <ele>1225.7</ele>
        <time>2024-09-25T08:42:05Z</time>
      </trkpt>
      <trkpt lat="42.36565" lon="2.17735">
        <ele>1225.8</ele>
        <time>2024-09-25T08:42:06Z</time>
      </trkpt>
      <trkpt lat="42.36565" lon="2.17736">
        <ele>1225.9</ele>
        <time>2024-09-25T08:42:07Z</time>
      </trkpt>
      <trkpt lat="42.36566" lon="2.17738">
        <ele>1226</ele>
        <time>2024-09-25T08:42:08Z</time>
      </trkpt>
      <trkpt lat="42.36566" lon="2.17739">
        <ele>1226.1</ele>
        <time>2024-09-25T08:42:09Z</time>
      </trkpt>
      <trkpt lat="42.36566" lon="2.1774">
        <ele>1226.2</ele>
        <time>2024-09-25T08:42:10Z</time>
      </trkpt>
      <trkpt lat="42.36566" lon="2.17741">
        <ele>1226.3</ele>
        <time>2024-09-25T08:42:11Z</time>
      </trkpt>
      <trkpt lat="42.36566" lon="2.17743">
        <ele>1226.5</ele>
        <time>2024-09-25T08:42:12Z</time>
      </trkpt>
      <trkpt lat="42.36566" lon="2.17744">
        <ele>1226.6</ele>
        <time>2024-09-25T08:42:13Z</time>
      </trkpt>
      <trkpt lat="42.36566" lon="2.17745">
        <ele>1226.7</ele>
        <time>2024-09-25T08:42:14Z</time>
      </trkpt>
      <trkpt lat="42.36566" lon="2.17747">
        <ele>1226.8</ele>
        <time>2024-09-25T08:42:15Z</time>
      </trkpt>
      <trkpt lat="42.36566" lon="2.17748">
        <ele>1226.9</ele>
        <time>2024-09-25T08:42:16Z</time>
      </trkpt>
      <trkpt lat="42.36565" lon="2.17749">
        <ele>1227</ele>
        <time>2024-09-25T08:42:17Z</time>
      </trkpt>
      <trkpt lat="42.36565" lon="2.1775">
        <ele>1227.1</ele>
        <time>2024-09-25T08:42:18Z</time>
      </trkpt>
      <trkpt lat="42.36565" lon="2.17751">
        <ele>1227.2</ele>
        <time>2024-09-25T08:42:19Z</time>
      </trkpt>
      <trkpt lat="42.36565" lon="2.17753">
        <ele>1227.3</ele>
        <time>2024-09-25T08:42:20Z</time>
      </trkpt>
      <trkpt lat="42.36565" lon="2.17754">
        <ele>1227.4</ele>
        <time>2024-09-25T08:42:21Z</time>
      </trkpt>
      <trkpt lat="42.36565" lon="2.17755">
        <ele>1227.5</ele>
        <time>2024-09-25T08:42:22Z</time>
      </trkpt>
      <trkpt lat="42.36565" lon="2.17756">
        <ele>1227.6</ele>
        <time>2024-09-25T08:42:23Z</time>
      </trkpt>
      <trkpt lat="42.36565" lon="2.17757">
        <ele>1227.7</ele>
        <time>2024-09-25T08:42:24Z</time>
      </trkpt>
      <trkpt lat="42.36565" lon="2.17758">
        <ele>1227.8</ele>
        <time>2024-09-25T08:42:25Z</time>
      </trkpt>
      <trkpt lat="42.36565" lon="2.17759">
        <ele>1227.9</ele>
        <time>2024-09-25T08:42:26Z</time>
      </trkpt>
      <trkpt lat="42.36565" lon="2.17761">
        <ele>1228</ele>
        <time>2024-09-25T08:42:27Z</time>
      </trkpt>
      <trkpt lat="42.36565" lon="2.17762">
        <ele>1228.1</ele>
        <time>2024-09-25T08:42:28Z</time>
      </trkpt>
      <trkpt lat="42.36566" lon="2.17763">
        <ele>1228.2</ele>
        <time>2024-09-25T08:42:29Z</time>
      </trkpt>
      <trkpt lat="42.36566" lon="2.17765">
        <ele>1228.3</ele>
        <time>2024-09-25T08:42:30Z</time>
      </trkpt>
      <trkpt lat="42.36566" lon="2.17766">
        <ele>1228.4</ele>
        <time>2024-09-25T08:42:31Z</time>
      </trkpt>
      <trkpt lat="42.36566" lon="2.17767">
        <ele>1228.4</ele>
        <time>2024-09-25T08:42:32Z</time>
      </trkpt>
      <trkpt lat="42.36567" lon="2.17767">
        <ele>1228.5</ele>
        <time>2024-09-25T08:42:33Z</time>
      </trkpt>
      <trkpt lat="42.36567" lon="2.17768">
        <ele>1228.6</ele>
        <time>2024-09-25T08:42:34Z</time>
      </trkpt>
      <trkpt lat="42.36567" lon="2.17769">
        <ele>1228.7</ele>
        <time>2024-09-25T08:42:35Z</time>
      </trkpt>
      <trkpt lat="42.36568" lon="2.1777">
        <ele>1228.7</ele>
        <time>2024-09-25T08:42:36Z</time>
      </trkpt>
      <trkpt lat="42.36568" lon="2.17771">
        <ele>1228.8</ele>
        <time>2024-09-25T08:42:37Z</time>
      </trkpt>
      <trkpt lat="42.36569" lon="2.17772">
        <ele>1228.9</ele>
        <time>2024-09-25T08:42:38Z</time>
      </trkpt>
      <trkpt lat="42.36569" lon="2.17773">
        <ele>1229</ele>
        <time>2024-09-25T08:42:39Z</time>
      </trkpt>
      <trkpt lat="42.36569" lon="2.17774">
        <ele>1229</ele>
        <time>2024-09-25T08:42:40Z</time>
      </trkpt>
      <trkpt lat="42.36569" lon="2.17775">
        <ele>1229.1</ele>
        <time>2024-09-25T08:42:41Z</time>
      </trkpt>
      <trkpt lat="42.36569" lon="2.17775">
        <ele>1229.1</ele>
        <time>2024-09-25T08:42:42Z</time>
      </trkpt>
      <trkpt lat="42.36569" lon="2.17776">
        <ele>1229.2</ele>
        <time>2024-09-25T08:42:43Z</time>
      </trkpt>
      <trkpt lat="42.36569" lon="2.17776">
        <ele>1229.2</ele>
        <time>2024-09-25T08:42:44Z</time>
      </trkpt>
      <trkpt lat="42.3657" lon="2.17777">
        <ele>1229.2</ele>
        <time>2024-09-25T08:42:45Z</time>
      </trkpt>
      <trkpt lat="42.3657" lon="2.17777">
        <ele>1229.3</ele>
        <time>2024-09-25T08:42:46Z</time>
      </trkpt>
      <trkpt lat="42.3657" lon="2.17777">
        <ele>1229.3</ele>
        <time>2024-09-25T08:42:47Z</time>
      </trkpt>
      <trkpt lat="42.3657" lon="2.17778">
        <ele>1229.3</ele>
        <time>2024-09-25T08:42:48Z</time>
      </trkpt>
      <trkpt lat="42.3657" lon="2.17778">
        <ele>1229.4</ele>
        <time>2024-09-25T08:42:49Z</time>
      </trkpt>
      <trkpt lat="42.3657" lon="2.17779">
        <ele>1229.4</ele>
        <time>2024-09-25T08:42:50Z</time>
      </trkpt>
      <trkpt lat="42.3657" lon="2.17779">
        <ele>1229.4</ele>
        <time>2024-09-25T08:42:51Z</time>
      </trkpt>
      <trkpt lat="42.3657" lon="2.17781">
        <ele>1229.6</ele>
        <time>2024-09-25T08:42:52Z</time>
      </trkpt>
      <trkpt lat="42.3657" lon="2.17783">
        <ele>1229.7</ele>
        <time>2024-09-25T08:42:53Z</time>
      </trkpt>
      <trkpt lat="42.36569" lon="2.17785">
        <ele>1229.8</ele>
        <time>2024-09-25T08:42:54Z</time>
      </trkpt>
      <trkpt lat="42.3657" lon="2.17786">
        <ele>1229.9</ele>
        <time>2024-09-25T08:42:55Z</time>
      </trkpt>
      <trkpt lat="42.3657" lon="2.17787">
        <ele>1230</ele>
        <time>2024-09-25T08:42:56Z</time>
      </trkpt>
      <trkpt lat="42.36571" lon="2.17788">
        <ele>1230</ele>
        <time>2024-09-25T08:42:57Z</time>
      </trkpt>
      <trkpt lat="42.36571" lon="2.17788">
        <ele>1230.1</ele>
        <time>2024-09-25T08:42:58Z</time>
      </trkpt>
      <trkpt lat="42.36571" lon="2.17789">
        <ele>1230.1</ele>
        <time>2024-09-25T08:42:59Z</time>
      </trkpt>
      <trkpt lat="42.36572" lon="2.17789">
        <ele>1230.2</ele>
        <time>2024-09-25T08:43:00Z</time>
      </trkpt>
      <trkpt lat="42.36572" lon="2.1779">
        <ele>1230.2</ele>
        <time>2024-09-25T08:43:01Z</time>
      </trkpt>
      <trkpt lat="42.36572" lon="2.1779">
        <ele>1230.3</ele>
        <time>2024-09-25T08:43:02Z</time>
      </trkpt>
      <trkpt lat="42.36572" lon="2.17791">
        <ele>1230.3</ele>
        <time>2024-09-25T08:43:03Z</time>
      </trkpt>
      <trkpt lat="42.36573" lon="2.17791">
        <ele>1230.4</ele>
        <time>2024-09-25T08:43:04Z</time>
      </trkpt>
      <trkpt lat="42.36573" lon="2.17792">
        <ele>1230.4</ele>
        <time>2024-09-25T08:43:05Z</time>
      </trkpt>
      <trkpt lat="42.36573" lon="2.17793">
        <ele>1230.5</ele>
        <time>2024-09-25T08:43:06Z</time>
      </trkpt>
      <trkpt lat="42.36574" lon="2.17793">
        <ele>1230.5</ele>
        <time>2024-09-25T08:43:07Z</time>
      </trkpt>
      <trkpt lat="42.36574" lon="2.17794">
        <ele>1230.6</ele>
        <time>2024-09-25T08:43:08Z</time>
      </trkpt>
      <trkpt lat="42.36574" lon="2.17795">
        <ele>1230.7</ele>
        <time>2024-09-25T08:43:09Z</time>
      </trkpt>
      <trkpt lat="42.36575" lon="2.17796">
        <ele>1230.8</ele>
        <time>2024-09-25T08:43:10Z</time>
      </trkpt>
      <trkpt lat="42.36575" lon="2.17797">
        <ele>1230.9</ele>
        <time>2024-09-25T08:43:11Z</time>
      </trkpt>
      <trkpt lat="42.36575" lon="2.17798">
        <ele>1230.9</ele>
        <time>2024-09-25T08:43:12Z</time>
      </trkpt>
      <trkpt lat="42.36576" lon="2.17799">
        <ele>1231</ele>
        <time>2024-09-25T08:43:13Z</time>
      </trkpt>
      <trkpt lat="42.36576" lon="2.178">
        <ele>1231.1</ele>
        <time>2024-09-25T08:43:14Z</time>
      </trkpt>
      <trkpt lat="42.36576" lon="2.17801">
        <ele>1231.2</ele>
        <time>2024-09-25T08:43:15Z</time>
      </trkpt>
      <trkpt lat="42.36577" lon="2.17803">
        <ele>1231.3</ele>
        <time>2024-09-25T08:43:16Z</time>
      </trkpt>
      <trkpt lat="42.36577" lon="2.17804">
        <ele>1231.5</ele>
        <time>2024-09-25T08:43:17Z</time>
      </trkpt>
      <trkpt lat="42.36578" lon="2.17806">
        <ele>1231.6</ele>
        <time>2024-09-25T08:43:18Z</time>
      </trkpt>
      <trkpt lat="42.36578" lon="2.17807">
        <ele>1231.7</ele>
        <time>2024-09-25T08:43:19Z</time>
      </trkpt>
      <trkpt lat="42.36579" lon="2.17808">
        <ele>1231.8</ele>
        <time>2024-09-25T08:43:20Z</time>
      </trkpt>
      <trkpt lat="42.36579" lon="2.17809">
        <ele>1231.9</ele>
        <time>2024-09-25T08:43:21Z</time>
      </trkpt>
      <trkpt lat="42.36579" lon="2.1781">
        <ele>1231.9</ele>
        <time>2024-09-25T08:43:22Z</time>
      </trkpt>
      <trkpt lat="42.36579" lon="2.1781">
        <ele>1232</ele>
        <time>2024-09-25T08:43:23Z</time>
      </trkpt>
      <trkpt lat="42.3658" lon="2.17811">
        <ele>1232.1</ele>
        <time>2024-09-25T08:43:24Z</time>
      </trkpt>
      <trkpt lat="42.3658" lon="2.17812">
        <ele>1232.2</ele>
        <time>2024-09-25T08:43:25Z</time>
      </trkpt>
      <trkpt lat="42.3658" lon="2.17814">
        <ele>1232.3</ele>
        <time>2024-09-25T08:43:26Z</time>
      </trkpt>
      <trkpt lat="42.3658" lon="2.17815">
        <ele>1232.4</ele>
        <time>2024-09-25T08:43:27Z</time>
      </trkpt>
      <trkpt lat="42.36581" lon="2.17816">
        <ele>1232.5</ele>
        <time>2024-09-25T08:43:28Z</time>
      </trkpt>
      <trkpt lat="42.36581" lon="2.17817">
        <ele>1232.6</ele>
        <time>2024-09-25T08:43:29Z</time>
      </trkpt>
      <trkpt lat="42.36581" lon="2.17818">
        <ele>1232.7</ele>
        <time>2024-09-25T08:43:30Z</time>
      </trkpt>
      <trkpt lat="42.36581" lon="2.17819">
        <ele>1232.8</ele>
        <time>2024-09-25T08:43:31Z</time>
      </trkpt>
      <trkpt lat="42.36582" lon="2.1782">
        <ele>1232.9</ele>
        <time>2024-09-25T08:43:32Z</time>
      </trkpt>
      <trkpt lat="42.36582" lon="2.1782">
        <ele>1232.9</ele>
        <time>2024-09-25T08:43:33Z</time>
      </trkpt>
      <trkpt lat="42.36583" lon="2.17821">
        <ele>1233</ele>
        <time>2024-09-25T08:43:34Z</time>
      </trkpt>
      <trkpt lat="42.36583" lon="2.17822">
        <ele>1233.1</ele>
        <time>2024-09-25T08:43:35Z</time>
      </trkpt>
      <trkpt lat="42.36583" lon="2.17823">
        <ele>1233.2</ele>
        <time>2024-09-25T08:43:36Z</time>
      </trkpt>
      <trkpt lat="42.36584" lon="2.17824">
        <ele>1233.3</ele>
        <time>2024-09-25T08:43:37Z</time>
      </trkpt>
      <trkpt lat="42.36584" lon="2.17824">
        <ele>1233.4</ele>
        <time>2024-09-25T08:43:38Z</time>
      </trkpt>
      <trkpt lat="42.36585" lon="2.17826">
        <ele>1233.5</ele>
        <time>2024-09-25T08:43:39Z</time>
      </trkpt>
      <trkpt lat="42.36585" lon="2.17826">
        <ele>1233.5</ele>
        <time>2024-09-25T08:43:40Z</time>
      </trkpt>
      <trkpt lat="42.36585" lon="2.17827">
        <ele>1233.6</ele>
        <time>2024-09-25T08:43:41Z</time>
      </trkpt>
      <trkpt lat="42.36586" lon="2.17828">
        <ele>1233.7</ele>
        <time>2024-09-25T08:43:42Z</time>
      </trkpt>
      <trkpt lat="42.36586" lon="2.17829">
        <ele>1233.8</ele>
        <time>2024-09-25T08:43:43Z</time>
      </trkpt>
      <trkpt lat="42.36587" lon="2.1783">
        <ele>1233.9</ele>
        <time>2024-09-25T08:43:44Z</time>
      </trkpt>
      <trkpt lat="42.36587" lon="2.17831">
        <ele>1234</ele>
        <time>2024-09-25T08:43:45Z</time>
      </trkpt>
      <trkpt lat="42.36587" lon="2.17832">
        <ele>1234</ele>
        <time>2024-09-25T08:43:46Z</time>
      </trkpt>
      <trkpt lat="42.36587" lon="2.17833">
        <ele>1234.1</ele>
        <time>2024-09-25T08:43:47Z</time>
      </trkpt>
      <trkpt lat="42.36588" lon="2.17835">
        <ele>1234.2</ele>
        <time>2024-09-25T08:43:48Z</time>
      </trkpt>
      <trkpt lat="42.36588" lon="2.17836">
        <ele>1234.3</ele>
        <time>2024-09-25T08:43:49Z</time>
      </trkpt>
      <trkpt lat="42.36589" lon="2.17837">
        <ele>1234.4</ele>
        <time>2024-09-25T08:43:50Z</time>
      </trkpt>
      <trkpt lat="42.36589" lon="2.17838">
        <ele>1234.5</ele>
        <time>2024-09-25T08:43:51Z</time>
      </trkpt>
      <trkpt lat="42.36589" lon="2.17839">
        <ele>1234.6</ele>
        <time>2024-09-25T08:43:52Z</time>
      </trkpt>
      <trkpt lat="42.36589" lon="2.17841">
        <ele>1234.7</ele>
        <time>2024-09-25T08:43:53Z</time>
      </trkpt>
      <trkpt lat="42.3659" lon="2.17842">
        <ele>1234.8</ele>
        <time>2024-09-25T08:43:54Z</time>
      </trkpt>
      <trkpt lat="42.3659" lon="2.17843">
        <ele>1234.9</ele>
        <time>2024-09-25T08:43:55Z</time>
      </trkpt>
      <trkpt lat="42.36591" lon="2.17844">
        <ele>1235</ele>
        <time>2024-09-25T08:43:56Z</time>
      </trkpt>
      <trkpt lat="42.36591" lon="2.17845">
        <ele>1235.1</ele>
        <time>2024-09-25T08:43:57Z</time>
      </trkpt>
      <trkpt lat="42.36591" lon="2.17848">
        <ele>1235.2</ele>
        <time>2024-09-25T08:43:58Z</time>
      </trkpt>
      <trkpt lat="42.36591" lon="2.17849">
        <ele>1235.3</ele>
        <time>2024-09-25T08:43:59Z</time>
      </trkpt>
      <trkpt lat="42.36591" lon="2.1785">
        <ele>1235.4</ele>
        <time>2024-09-25T08:44:00Z</time>
      </trkpt>
      <trkpt lat="42.36591" lon="2.17851">
        <ele>1235.5</ele>
        <time>2024-09-25T08:44:01Z</time>
      </trkpt>
      <trkpt lat="42.36591" lon="2.17852">
        <ele>1235.5</ele>
        <time>2024-09-25T08:44:02Z</time>
      </trkpt>
      <trkpt lat="42.36592" lon="2.17853">
        <ele>1235.6</ele>
        <time>2024-09-25T08:44:03Z</time>
      </trkpt>
      <trkpt lat="42.36592" lon="2.17854">
        <ele>1235.7</ele>
        <time>2024-09-25T08:44:04Z</time>
      </trkpt>
      <trkpt lat="42.36592" lon="2.17855">
        <ele>1235.7</ele>
        <time>2024-09-25T08:44:05Z</time>
      </trkpt>
      <trkpt lat="42.36594" lon="2.17857">
        <ele>1235.9</ele>
        <time>2024-09-25T08:44:06Z</time>
      </trkpt>
      <trkpt lat="42.36594" lon="2.17858">
        <ele>1236</ele>
        <time>2024-09-25T08:44:07Z</time>
      </trkpt>
      <trkpt lat="42.36595" lon="2.17858">
        <ele>1236</ele>
        <time>2024-09-25T08:44:08Z</time>
      </trkpt>
      <trkpt lat="42.36596" lon="2.1786">
        <ele>1236.1</ele>
        <time>2024-09-25T08:44:09Z</time>
      </trkpt>
      <trkpt lat="42.36597" lon="2.1786">
        <ele>1236.2</ele>
        <time>2024-09-25T08:44:10Z</time>
      </trkpt>
      <trkpt lat="42.36598" lon="2.1786">
        <ele>1236.3</ele>
        <time>2024-09-25T08:44:11Z</time>
      </trkpt>
      <trkpt lat="42.36598" lon="2.17861">
        <ele>1236.3</ele>
        <time>2024-09-25T08:44:12Z</time>
      </trkpt>
      <trkpt lat="42.36599" lon="2.17861">
        <ele>1236.4</ele>
        <time>2024-09-25T08:44:13Z</time>
      </trkpt>
      <trkpt lat="42.366" lon="2.17861">
        <ele>1236.4</ele>
        <time>2024-09-25T08:44:14Z</time>
      </trkpt>
      <trkpt lat="42.366" lon="2.17861">
        <ele>1236.4</ele>
        <time>2024-09-25T08:44:15Z</time>
      </trkpt>
      <trkpt lat="42.36601" lon="2.17861">
        <ele>1236.5</ele>
        <time>2024-09-25T08:44:16Z</time>
      </trkpt>
      <trkpt lat="42.36601" lon="2.1786">
        <ele>1236.5</ele>
        <time>2024-09-25T08:44:17Z</time>
      </trkpt>
      <trkpt lat="42.36602" lon="2.17861">
        <ele>1236.6</ele>
        <time>2024-09-25T08:44:18Z</time>
      </trkpt>
      <trkpt lat="42.36603" lon="2.17861">
        <ele>1236.6</ele>
        <time>2024-09-25T08:44:19Z</time>
      </trkpt>
      <trkpt lat="42.36603" lon="2.17861">
        <ele>1236.7</ele>
        <time>2024-09-25T08:44:20Z</time>
      </trkpt>
      <trkpt lat="42.36604" lon="2.17861">
        <ele>1236.7</ele>
        <time>2024-09-25T08:44:21Z</time>
      </trkpt>
      <trkpt lat="42.36604" lon="2.17861">
        <ele>1236.7</ele>
        <time>2024-09-25T08:44:22Z</time>
      </trkpt>
      <trkpt lat="42.36605" lon="2.17861">
        <ele>1236.8</ele>
        <time>2024-09-25T08:44:23Z</time>
      </trkpt>
      <trkpt lat="42.36606" lon="2.17861">
        <ele>1236.9</ele>
        <time>2024-09-25T08:44:24Z</time>
      </trkpt>
      <trkpt lat="42.36606" lon="2.17861">
        <ele>1236.9</ele>
        <time>2024-09-25T08:44:25Z</time>
      </trkpt>
      <trkpt lat="42.36606" lon="2.17861">
        <ele>1236.9</ele>
        <time>2024-09-25T08:44:26Z</time>
      </trkpt>
      <trkpt lat="42.36607" lon="2.17861">
        <ele>1236.9</ele>
        <time>2024-09-25T08:44:27Z</time>
      </trkpt>
      <trkpt lat="42.36607" lon="2.17862">
        <ele>1237</ele>
        <time>2024-09-25T08:44:28Z</time>
      </trkpt>
      <trkpt lat="42.36607" lon="2.17861">
        <ele>1237</ele>
        <time>2024-09-25T08:44:29Z</time>
      </trkpt>
      <trkpt lat="42.36607" lon="2.17862">
        <ele>1237</ele>
        <time>2024-09-25T08:44:30Z</time>
      </trkpt>
      <trkpt lat="42.36607" lon="2.17862">
        <ele>1237</ele>
        <time>2024-09-25T08:44:31Z</time>
      </trkpt>
      <trkpt lat="42.36607" lon="2.17862">
        <ele>1237</ele>
        <time>2024-09-25T08:44:32Z</time>
      </trkpt>
      <trkpt lat="42.36608" lon="2.17862">
        <ele>1237</ele>
        <time>2024-09-25T08:44:33Z</time>
      </trkpt>
      <trkpt lat="42.36608" lon="2.17862">
        <ele>1237</ele>
        <time>2024-09-25T08:44:34Z</time>
      </trkpt>
      <trkpt lat="42.36608" lon="2.17862">
        <ele>1237.1</ele>
        <time>2024-09-25T08:44:35Z</time>
      </trkpt>
      <trkpt lat="42.36608" lon="2.17862">
        <ele>1237.1</ele>
        <time>2024-09-25T08:44:36Z</time>
      </trkpt>
      <trkpt lat="42.36609" lon="2.17863">
        <ele>1237.1</ele>
        <time>2024-09-25T08:44:37Z</time>
      </trkpt>
      <trkpt lat="42.36609" lon="2.17863">
        <ele>1237.1</ele>
        <time>2024-09-25T08:44:38Z</time>
      </trkpt>
      <trkpt lat="42.36609" lon="2.17863">
        <ele>1237.1</ele>
        <time>2024-09-25T08:44:39Z</time>
      </trkpt>
      <trkpt lat="42.3661" lon="2.17863">
        <ele>1237.2</ele>
        <time>2024-09-25T08:44:40Z</time>
      </trkpt>
      <trkpt lat="42.3661" lon="2.17864">
        <ele>1237.2</ele>
        <time>2024-09-25T08:44:41Z</time>
      </trkpt>
      <trkpt lat="42.3661" lon="2.17864">
        <ele>1237.2</ele>
        <time>2024-09-25T08:44:42Z</time>
      </trkpt>
      <trkpt lat="42.3661" lon="2.17864">
        <ele>1237.2</ele>
        <time>2024-09-25T08:44:43Z</time>
      </trkpt>
      <trkpt lat="42.36611" lon="2.17864">
        <ele>1237.3</ele>
        <time>2024-09-25T08:44:44Z</time>
      </trkpt>
      <trkpt lat="42.36611" lon="2.17865">
        <ele>1237.3</ele>
        <time>2024-09-25T08:44:45Z</time>
      </trkpt>
      <trkpt lat="42.36611" lon="2.17865">
        <ele>1237.3</ele>
        <time>2024-09-25T08:44:46Z</time>
      </trkpt>
      <trkpt lat="42.36612" lon="2.17865">
        <ele>1237.4</ele>
        <time>2024-09-25T08:44:47Z</time>
      </trkpt>
      <trkpt lat="42.36612" lon="2.17866">
        <ele>1237.4</ele>
        <time>2024-09-25T08:44:48Z</time>
      </trkpt>
      <trkpt lat="42.36612" lon="2.17866">
        <ele>1237.4</ele>
        <time>2024-09-25T08:44:49Z</time>
      </trkpt>
      <trkpt lat="42.36613" lon="2.17866">
        <ele>1237.4</ele>
        <time>2024-09-25T08:44:50Z</time>
      </trkpt>
      <trkpt lat="42.36613" lon="2.17867">
        <ele>1237.5</ele>
        <time>2024-09-25T08:44:51Z</time>
      </trkpt>
      <trkpt lat="42.36613" lon="2.17867">
        <ele>1237.5</ele>
        <time>2024-09-25T08:44:52Z</time>
      </trkpt>
      <trkpt lat="42.36614" lon="2.17867">
        <ele>1237.5</ele>
        <time>2024-09-25T08:44:53Z</time>
      </trkpt>
      <trkpt lat="42.36614" lon="2.17867">
        <ele>1237.5</ele>
        <time>2024-09-25T08:44:54Z</time>
      </trkpt>
      <trkpt lat="42.36614" lon="2.17867">
        <ele>1237.6</ele>
        <time>2024-09-25T08:44:55Z</time>
      </trkpt>
      <trkpt lat="42.36614" lon="2.17868">
        <ele>1237.6</ele>
        <time>2024-09-25T08:44:56Z</time>
      </trkpt>
      <trkpt lat="42.36615" lon="2.17869">
        <ele>1237.6</ele>
        <time>2024-09-25T08:44:57Z</time>
      </trkpt>
      <trkpt lat="42.36615" lon="2.17869">
        <ele>1237.7</ele>
        <time>2024-09-25T08:44:58Z</time>
      </trkpt>
      <trkpt lat="42.36615" lon="2.1787">
        <ele>1237.7</ele>
        <time>2024-09-25T08:44:59Z</time>
      </trkpt>
      <trkpt lat="42.36616" lon="2.17871">
        <ele>1237.8</ele>
        <time>2024-09-25T08:45:00Z</time>
      </trkpt>
      <trkpt lat="42.36616" lon="2.17871">
        <ele>1237.8</ele>
        <time>2024-09-25T08:45:01Z</time>
      </trkpt>
      <trkpt lat="42.36616" lon="2.17872">
        <ele>1237.9</ele>
        <time>2024-09-25T08:45:02Z</time>
      </trkpt>
      <trkpt lat="42.36616" lon="2.17872">
        <ele>1237.9</ele>
        <time>2024-09-25T08:45:03Z</time>
      </trkpt>
      <trkpt lat="42.36617" lon="2.17873">
        <ele>1237.9</ele>
        <time>2024-09-25T08:45:04Z</time>
      </trkpt>
      <trkpt lat="42.36617" lon="2.17873">
        <ele>1237.9</ele>
        <time>2024-09-25T08:45:05Z</time>
      </trkpt>
      <trkpt lat="42.36617" lon="2.17874">
        <ele>1238</ele>
        <time>2024-09-25T08:45:06Z</time>
      </trkpt>
      <trkpt lat="42.36617" lon="2.17874">
        <ele>1238</ele>
        <time>2024-09-25T08:45:07Z</time>
      </trkpt>
      <trkpt lat="42.36617" lon="2.17874">
        <ele>1238</ele>
        <time>2024-09-25T08:45:08Z</time>
      </trkpt>
      <trkpt lat="42.36618" lon="2.17875">
        <ele>1238</ele>
        <time>2024-09-25T08:45:09Z</time>
      </trkpt>
      <trkpt lat="42.36618" lon="2.17875">
        <ele>1238.1</ele>
        <time>2024-09-25T08:45:10Z</time>
      </trkpt>
      <trkpt lat="42.36618" lon="2.17876">
        <ele>1238.1</ele>
        <time>2024-09-25T08:45:11Z</time>
      </trkpt>
      <trkpt lat="42.36619" lon="2.17877">
        <ele>1238.2</ele>
        <time>2024-09-25T08:45:12Z</time>
      </trkpt>
      <trkpt lat="42.36619" lon="2.17877">
        <ele>1238.2</ele>
        <time>2024-09-25T08:45:13Z</time>
      </trkpt>
      <trkpt lat="42.3662" lon="2.17878">
        <ele>1238.3</ele>
        <time>2024-09-25T08:45:14Z</time>
      </trkpt>
      <trkpt lat="42.36621" lon="2.17878">
        <ele>1238.4</ele>
        <time>2024-09-25T08:45:15Z</time>
      </trkpt>
      <trkpt lat="42.36622" lon="2.17878">
        <ele>1238.4</ele>
        <time>2024-09-25T08:45:16Z</time>
      </trkpt>
      <trkpt lat="42.36622" lon="2.17878">
        <ele>1238.5</ele>
        <time>2024-09-25T08:45:17Z</time>
      </trkpt>
      <trkpt lat="42.36623" lon="2.17879">
        <ele>1238.5</ele>
        <time>2024-09-25T08:45:18Z</time>
      </trkpt>
      <trkpt lat="42.36623" lon="2.17879">
        <ele>1238.6</ele>
        <time>2024-09-25T08:45:19Z</time>
      </trkpt>
      <trkpt lat="42.36624" lon="2.17879">
        <ele>1238.6</ele>
        <time>2024-09-25T08:45:20Z</time>
      </trkpt>
      <trkpt lat="42.36624" lon="2.17879">
        <ele>1238.6</ele>
        <time>2024-09-25T08:45:21Z</time>
      </trkpt>
      <trkpt lat="42.36624" lon="2.17879">
        <ele>1238.7</ele>
        <time>2024-09-25T08:45:22Z</time>
      </trkpt>
      <trkpt lat="42.36624" lon="2.17879">
        <ele>1238.7</ele>
        <time>2024-09-25T08:45:23Z</time>
      </trkpt>
      <trkpt lat="42.36624" lon="2.17879">
        <ele>1238.7</ele>
        <time>2024-09-25T08:45:24Z</time>
      </trkpt>
      <trkpt lat="42.36624" lon="2.17879">
        <ele>1238.7</ele>
        <time>2024-09-25T08:45:25Z</time>
      </trkpt>
      <trkpt lat="42.36624" lon="2.17879">
        <ele>1238.7</ele>
        <time>2024-09-25T08:45:26Z</time>
      </trkpt>
      <trkpt lat="42.36625" lon="2.17879">
        <ele>1238.7</ele>
        <time>2024-09-25T08:45:27Z</time>
      </trkpt>
      <trkpt lat="42.36625" lon="2.17879">
        <ele>1238.8</ele>
        <time>2024-09-25T08:45:28Z</time>
      </trkpt>
      <trkpt lat="42.36625" lon="2.17879">
        <ele>1238.8</ele>
        <time>2024-09-25T08:45:29Z</time>
      </trkpt>
      <trkpt lat="42.36625" lon="2.17879">
        <ele>1238.8</ele>
        <time>2024-09-25T08:45:30Z</time>
      </trkpt>
      <trkpt lat="42.36625" lon="2.17879">
        <ele>1238.8</ele>
        <time>2024-09-25T08:45:31Z</time>
      </trkpt>
      <trkpt lat="42.36625" lon="2.1788">
        <ele>1238.8</ele>
        <time>2024-09-25T08:45:32Z</time>
      </trkpt>
      <trkpt lat="42.36625" lon="2.1788">
        <ele>1238.9</ele>
        <time>2024-09-25T08:45:33Z</time>
      </trkpt>
      <trkpt lat="42.36625" lon="2.1788">
        <ele>1238.9</ele>
        <time>2024-09-25T08:45:34Z</time>
      </trkpt>
      <trkpt lat="42.36625" lon="2.1788">
        <ele>1238.9</ele>
        <time>2024-09-25T08:45:35Z</time>
      </trkpt>
      <trkpt lat="42.36625" lon="2.1788">
        <ele>1238.9</ele>
        <time>2024-09-25T08:45:36Z</time>
      </trkpt>
      <trkpt lat="42.36625" lon="2.1788">
        <ele>1238.9</ele>
        <time>2024-09-25T08:45:37Z</time>
      </trkpt>
      <trkpt lat="42.36625" lon="2.1788">
        <ele>1238.9</ele>
        <time>2024-09-25T08:45:38Z</time>
      </trkpt>
      <trkpt lat="42.36625" lon="2.1788">
        <ele>1238.9</ele>
        <time>2024-09-25T08:45:39Z</time>
      </trkpt>
      <trkpt lat="42.36625" lon="2.1788">
        <ele>1238.9</ele>
        <time>2024-09-25T08:45:40Z</time>
      </trkpt>
      <trkpt lat="42.36626" lon="2.1788">
        <ele>1239</ele>
        <time>2024-09-25T08:45:41Z</time>
      </trkpt>
      <trkpt lat="42.36626" lon="2.1788">
        <ele>1239</ele>
        <time>2024-09-25T08:45:42Z</time>
      </trkpt>
      <trkpt lat="42.36626" lon="2.1788">
        <ele>1239</ele>
        <time>2024-09-25T08:45:43Z</time>
      </trkpt>
      <trkpt lat="42.36626" lon="2.1788">
        <ele>1239</ele>
        <time>2024-09-25T08:45:45Z</time>
      </trkpt>
      <trkpt lat="42.36627" lon="2.1788">
        <ele>1239.1</ele>
        <time>2024-09-25T08:45:46Z</time>
      </trkpt>
      <trkpt lat="42.36627" lon="2.1788">
        <ele>1239.1</ele>
        <time>2024-09-25T08:45:47Z</time>
      </trkpt>
      <trkpt lat="42.36627" lon="2.1788">
        <ele>1239.1</ele>
        <time>2024-09-25T08:45:48Z</time>
      </trkpt>
      <trkpt lat="42.36627" lon="2.17879">
        <ele>1239.1</ele>
        <time>2024-09-25T08:45:49Z</time>
      </trkpt>
      <trkpt lat="42.36627" lon="2.17879">
        <ele>1239.1</ele>
        <time>2024-09-25T08:45:50Z</time>
      </trkpt>
      <trkpt lat="42.36627" lon="2.17879">
        <ele>1239.1</ele>
        <time>2024-09-25T08:45:51Z</time>
      </trkpt>
      <trkpt lat="42.36627" lon="2.17879">
        <ele>1239.1</ele>
        <time>2024-09-25T08:45:53Z</time>
      </trkpt>
      <trkpt lat="42.36627" lon="2.17879">
        <ele>1239.1</ele>
        <time>2024-09-25T08:45:54Z</time>
      </trkpt>
      <trkpt lat="42.36627" lon="2.17879">
        <ele>1239.2</ele>
        <time>2024-09-25T08:45:55Z</time>
      </trkpt>
      <trkpt lat="42.36627" lon="2.17879">
        <ele>1239.2</ele>
        <time>2024-09-25T08:45:56Z</time>
      </trkpt>
      <trkpt lat="42.36627" lon="2.17879">
        <ele>1239.2</ele>
        <time>2024-09-25T08:45:57Z</time>
      </trkpt>
      <trkpt lat="42.36627" lon="2.17879">
        <ele>1239.2</ele>
        <time>2024-09-25T08:45:58Z</time>
      </trkpt>
      <trkpt lat="42.36627" lon="2.17879">
        <ele>1239.2</ele>
        <time>2024-09-25T08:45:59Z</time>
      </trkpt>
      <trkpt lat="42.36627" lon="2.17879">
        <ele>1239.2</ele>
        <time>2024-09-25T08:46:00Z</time>
      </trkpt>
      <trkpt lat="42.36627" lon="2.17879">
        <ele>1239.2</ele>
        <time>2024-09-25T08:46:01Z</time>
      </trkpt>
      <trkpt lat="42.36627" lon="2.17879">
        <ele>1239.2</ele>
        <time>2024-09-25T08:46:02Z</time>
      </trkpt>
      <trkpt lat="42.36627" lon="2.17879">
        <ele>1239.2</ele>
        <time>2024-09-25T08:46:03Z</time>
      </trkpt>
      <trkpt lat="42.36628" lon="2.1788">
        <ele>1239.4</ele>
        <time>2024-09-25T08:46:04Z</time>
      </trkpt>
      <trkpt lat="42.36629" lon="2.1788">
        <ele>1239.5</ele>
        <time>2024-09-25T08:46:05Z</time>
      </trkpt>
      <trkpt lat="42.3663" lon="2.1788">
        <ele>1239.6</ele>
        <time>2024-09-25T08:46:06Z</time>
      </trkpt>
      <trkpt lat="42.3663" lon="2.17881">
        <ele>1239.6</ele>
        <time>2024-09-25T08:46:07Z</time>
      </trkpt>
      <trkpt lat="42.3663" lon="2.17881">
        <ele>1239.6</ele>
        <time>2024-09-25T08:46:08Z</time>
      </trkpt>
      <trkpt lat="42.3663" lon="2.17881">
        <ele>1239.6</ele>
        <time>2024-09-25T08:46:09Z</time>
      </trkpt>
      <trkpt lat="42.3663" lon="2.17882">
        <ele>1239.7</ele>
        <time>2024-09-25T08:46:10Z</time>
      </trkpt>
      <trkpt lat="42.3663" lon="2.17882">
        <ele>1239.8</ele>
        <time>2024-09-25T08:46:11Z</time>
      </trkpt>
      <trkpt lat="42.3663" lon="2.17882">
        <ele>1239.8</ele>
        <time>2024-09-25T08:46:12Z</time>
      </trkpt>
      <trkpt lat="42.3663" lon="2.17882">
        <ele>1239.8</ele>
        <time>2024-09-25T08:46:13Z</time>
      </trkpt>
      <trkpt lat="42.3663" lon="2.17882">
        <ele>1239.8</ele>
        <time>2024-09-25T08:46:14Z</time>
      </trkpt>
      <trkpt lat="42.3663" lon="2.17882">
        <ele>1239.8</ele>
        <time>2024-09-25T08:46:15Z</time>
      </trkpt>
      <trkpt lat="42.3663" lon="2.17883">
        <ele>1239.8</ele>
        <time>2024-09-25T08:46:16Z</time>
      </trkpt>
      <trkpt lat="42.3663" lon="2.17883">
        <ele>1239.8</ele>
        <time>2024-09-25T08:46:17Z</time>
      </trkpt>
      <trkpt lat="42.3663" lon="2.17882">
        <ele>1239.8</ele>
        <time>2024-09-25T08:46:18Z</time>
      </trkpt>
      <trkpt lat="42.3663" lon="2.17882">
        <ele>1239.8</ele>
        <time>2024-09-25T08:46:19Z</time>
      </trkpt>
      <trkpt lat="42.3663" lon="2.17882">
        <ele>1239.8</ele>
        <time>2024-09-25T08:46:20Z</time>
      </trkpt>
      <trkpt lat="42.3663" lon="2.17882">
        <ele>1239.8</ele>
        <time>2024-09-25T08:46:21Z</time>
      </trkpt>
      <trkpt lat="42.3663" lon="2.17882">
        <ele>1239.9</ele>
        <time>2024-09-25T08:46:22Z</time>
      </trkpt>
      <trkpt lat="42.3663" lon="2.17882">
        <ele>1239.9</ele>
        <time>2024-09-25T08:46:23Z</time>
      </trkpt>
      <trkpt lat="42.3663" lon="2.17882">
        <ele>1239.9</ele>
        <time>2024-09-25T08:46:24Z</time>
      </trkpt>
      <trkpt lat="42.3663" lon="2.17882">
        <ele>1239.9</ele>
        <time>2024-09-25T08:46:25Z</time>
      </trkpt>
      <trkpt lat="42.3663" lon="2.17882">
        <ele>1239.9</ele>
        <time>2024-09-25T08:46:26Z</time>
      </trkpt>
      <trkpt lat="42.3663" lon="2.17882">
        <ele>1239.9</ele>
        <time>2024-09-25T08:46:27Z</time>
      </trkpt>
      <trkpt lat="42.3663" lon="2.17882">
        <ele>1239.9</ele>
        <time>2024-09-25T08:46:28Z</time>
      </trkpt>
      <trkpt lat="42.3663" lon="2.17882">
        <ele>1239.9</ele>
        <time>2024-09-25T08:46:29Z</time>
      </trkpt>
      <trkpt lat="42.3663" lon="2.17882">
        <ele>1239.9</ele>
        <time>2024-09-25T08:46:30Z</time>
      </trkpt>
      <trkpt lat="42.3663" lon="2.17882">
        <ele>1239.9</ele>
        <time>2024-09-25T08:46:31Z</time>
      </trkpt>
      <trkpt lat="42.3663" lon="2.17882">
        <ele>1239.9</ele>
        <time>2024-09-25T08:46:32Z</time>
      </trkpt>
      <trkpt lat="42.3663" lon="2.17882">
        <ele>1239.9</ele>
        <time>2024-09-25T08:46:33Z</time>
      </trkpt>
      <trkpt lat="42.3663" lon="2.17882">
        <ele>1239.9</ele>
        <time>2024-09-25T08:46:34Z</time>
      </trkpt>
      <trkpt lat="42.3663" lon="2.17882">
        <ele>1239.9</ele>
        <time>2024-09-25T08:46:35Z</time>
      </trkpt>
      <trkpt lat="42.3663" lon="2.17882">
        <ele>1239.9</ele>
        <time>2024-09-25T08:46:36Z</time>
      </trkpt>
      <trkpt lat="42.3663" lon="2.17882">
        <ele>1239.9</ele>
        <time>2024-09-25T08:46:37Z</time>
      </trkpt>
      <trkpt lat="42.3663" lon="2.17882">
        <ele>1239.9</ele>
        <time>2024-09-25T08:46:38Z</time>
      </trkpt>
      <trkpt lat="42.3663" lon="2.17882">
        <ele>1239.9</ele>
        <time>2024-09-25T08:46:39Z</time>
      </trkpt>
      <trkpt lat="42.3663" lon="2.17882">
        <ele>1239.9</ele>
        <time>2024-09-25T08:46:40Z</time>
      </trkpt>
      <trkpt lat="42.3663" lon="2.17882">
        <ele>1239.9</ele>
        <time>2024-09-25T08:46:41Z</time>
      </trkpt>
      <trkpt lat="42.3663" lon="2.17882">
        <ele>1239.9</ele>
        <time>2024-09-25T08:46:42Z</time>
      </trkpt>
      <trkpt lat="42.3663" lon="2.17882">
        <ele>1239.9</ele>
        <time>2024-09-25T08:46:43Z</time>
      </trkpt>
      <trkpt lat="42.3663" lon="2.17882">
        <ele>1239.9</ele>
        <time>2024-09-25T08:46:44Z</time>
      </trkpt>
      <trkpt lat="42.3663" lon="2.17882">
        <ele>1239.9</ele>
        <time>2024-09-25T08:46:45Z</time>
      </trkpt>
      <trkpt lat="42.3663" lon="2.17882">
        <ele>1239.9</ele>
        <time>2024-09-25T08:46:46Z</time>
      </trkpt>
      <trkpt lat="42.3663" lon="2.17882">
        <ele>1239.9</ele>
        <time>2024-09-25T08:46:47Z</time>
      </trkpt>
      <trkpt lat="42.3663" lon="2.17882">
        <ele>1239.9</ele>
        <time>2024-09-25T08:46:48Z</time>
      </trkpt>
      <trkpt lat="42.3663" lon="2.17882">
        <ele>1239.9</ele>
        <time>2024-09-25T08:46:49Z</time>
      </trkpt>
      <trkpt lat="42.3663" lon="2.17882">
        <ele>1239.9</ele>
        <time>2024-09-25T08:46:50Z</time>
      </trkpt>
      <trkpt lat="42.3663" lon="2.17882">
        <ele>1239.9</ele>
        <time>2024-09-25T08:46:51Z</time>
      </trkpt>
      <trkpt lat="42.36629" lon="2.17883">
        <ele>1239.9</ele>
        <time>2024-09-25T08:46:52Z</time>
      </trkpt>
      <trkpt lat="42.36629" lon="2.17883">
        <ele>1240</ele>
        <time>2024-09-25T08:46:53Z</time>
      </trkpt>
      <trkpt lat="42.36629" lon="2.17883">
        <ele>1240</ele>
        <time>2024-09-25T08:46:54Z</time>
      </trkpt>
      <trkpt lat="42.36629" lon="2.17883">
        <ele>1240</ele>
        <time>2024-09-25T08:46:55Z</time>
      </trkpt>
      <trkpt lat="42.36629" lon="2.17883">
        <ele>1240</ele>
        <time>2024-09-25T08:46:56Z</time>
      </trkpt>
      <trkpt lat="42.36629" lon="2.17883">
        <ele>1240</ele>
        <time>2024-09-25T08:46:57Z</time>
      </trkpt>
      <trkpt lat="42.36629" lon="2.17883">
        <ele>1240</ele>
        <time>2024-09-25T08:46:58Z</time>
      </trkpt>
      <trkpt lat="42.3663" lon="2.17882">
        <ele>1240.1</ele>
        <time>2024-09-25T08:46:59Z</time>
      </trkpt>
      <trkpt lat="42.36631" lon="2.17881">
        <ele>1240.3</ele>
        <time>2024-09-25T08:47:00Z</time>
      </trkpt>
      <trkpt lat="42.36631" lon="2.1788">
        <ele>1240.3</ele>
        <time>2024-09-25T08:47:01Z</time>
      </trkpt>
      <trkpt lat="42.36631" lon="2.17881">
        <ele>1240.4</ele>
        <time>2024-09-25T08:47:02Z</time>
      </trkpt>
      <trkpt lat="42.36631" lon="2.17881">
        <ele>1240.4</ele>
        <time>2024-09-25T08:47:03Z</time>
      </trkpt>
      <trkpt lat="42.36631" lon="2.17881">
        <ele>1240.5</ele>
        <time>2024-09-25T08:47:04Z</time>
      </trkpt>
      <trkpt lat="42.3663" lon="2.17881">
        <ele>1240.5</ele>
        <time>2024-09-25T08:47:05Z</time>
      </trkpt>
      <trkpt lat="42.36631" lon="2.17881">
        <ele>1240.6</ele>
        <time>2024-09-25T08:47:06Z</time>
      </trkpt>
      <trkpt lat="42.36631" lon="2.17881">
        <ele>1240.6</ele>
        <time>2024-09-25T08:47:07Z</time>
      </trkpt>
      <trkpt lat="42.36631" lon="2.17882">
        <ele>1240.7</ele>
        <time>2024-09-25T08:47:08Z</time>
      </trkpt>
      <trkpt lat="42.36631" lon="2.17882">
        <ele>1240.7</ele>
        <time>2024-09-25T08:47:09Z</time>
      </trkpt>
      <trkpt lat="42.36631" lon="2.17882">
        <ele>1240.7</ele>
        <time>2024-09-25T08:47:10Z</time>
      </trkpt>
      <trkpt lat="42.36632" lon="2.17882">
        <ele>1240.8</ele>
        <time>2024-09-25T08:47:11Z</time>
      </trkpt>
      <trkpt lat="42.36632" lon="2.17882">
        <ele>1240.9</ele>
        <time>2024-09-25T08:47:12Z</time>
      </trkpt>
      <trkpt lat="42.36632" lon="2.17882">
        <ele>1241</ele>
        <time>2024-09-25T08:47:13Z</time>
      </trkpt>
      <trkpt lat="42.36633" lon="2.17882">
        <ele>1241.1</ele>
        <time>2024-09-25T08:47:14Z</time>
      </trkpt>
      <trkpt lat="42.36634" lon="2.17883">
        <ele>1241.2</ele>
        <time>2024-09-25T08:47:15Z</time>
      </trkpt>
      <trkpt lat="42.36634" lon="2.17883">
        <ele>1241.3</ele>
        <time>2024-09-25T08:47:16Z</time>
      </trkpt>
      <trkpt lat="42.36635" lon="2.17884">
        <ele>1241.5</ele>
        <time>2024-09-25T08:47:17Z</time>
      </trkpt>
      <trkpt lat="42.36635" lon="2.17885">
        <ele>1241.7</ele>
        <time>2024-09-25T08:47:18Z</time>
      </trkpt>
      <trkpt lat="42.36636" lon="2.17886">
        <ele>1241.9</ele>
        <time>2024-09-25T08:47:19Z</time>
      </trkpt>
      <trkpt lat="42.36636" lon="2.17887">
        <ele>1242</ele>
        <time>2024-09-25T08:47:20Z</time>
      </trkpt>
      <trkpt lat="42.36637" lon="2.17888">
        <ele>1242.2</ele>
        <time>2024-09-25T08:47:21Z</time>
      </trkpt>
      <trkpt lat="42.36638" lon="2.1789">
        <ele>1242.5</ele>
        <time>2024-09-25T08:47:22Z</time>
      </trkpt>
      <trkpt lat="42.36639" lon="2.1789">
        <ele>1242.7</ele>
        <time>2024-09-25T08:47:23Z</time>
      </trkpt>
      <trkpt lat="42.3664" lon="2.1789">
        <ele>1243</ele>
        <time>2024-09-25T08:47:24Z</time>
      </trkpt>
      <trkpt lat="42.36641" lon="2.17891">
        <ele>1243.2</ele>
        <time>2024-09-25T08:47:25Z</time>
      </trkpt>
      <trkpt lat="42.36641" lon="2.17892">
        <ele>1243.4</ele>
        <time>2024-09-25T08:47:26Z</time>
      </trkpt>
      <trkpt lat="42.36642" lon="2.17893">
        <ele>1243.6</ele>
        <time>2024-09-25T08:47:27Z</time>
      </trkpt>
      <trkpt lat="42.36642" lon="2.17894">
        <ele>1243.7</ele>
        <time>2024-09-25T08:47:28Z</time>
      </trkpt>
      <trkpt lat="42.36642" lon="2.17895">
        <ele>1243.9</ele>
        <time>2024-09-25T08:47:29Z</time>
      </trkpt>
      <trkpt lat="42.36642" lon="2.17895">
        <ele>1244</ele>
        <time>2024-09-25T08:47:30Z</time>
      </trkpt>
      <trkpt lat="42.36642" lon="2.17894">
        <ele>1244.1</ele>
        <time>2024-09-25T08:47:31Z</time>
      </trkpt>
      <trkpt lat="42.36642" lon="2.17893">
        <ele>1244.3</ele>
        <time>2024-09-25T08:47:32Z</time>
      </trkpt>
      <trkpt lat="42.36643" lon="2.17893">
        <ele>1244.4</ele>
        <time>2024-09-25T08:47:33Z</time>
      </trkpt>
      <trkpt lat="42.36644" lon="2.17893">
        <ele>1244.5</ele>
        <time>2024-09-25T08:47:34Z</time>
      </trkpt>
      <trkpt lat="42.36645" lon="2.17893">
        <ele>1244.8</ele>
        <time>2024-09-25T08:47:35Z</time>
      </trkpt>
      <trkpt lat="42.36646" lon="2.17894">
        <ele>1245</ele>
        <time>2024-09-25T08:47:36Z</time>
      </trkpt>
      <trkpt lat="42.36646" lon="2.17894">
        <ele>1245.1</ele>
        <time>2024-09-25T08:47:37Z</time>
      </trkpt>
      <trkpt lat="42.36647" lon="2.17895">
        <ele>1245.3</ele>
        <time>2024-09-25T08:47:38Z</time>
      </trkpt>
      <trkpt lat="42.36648" lon="2.17896">
        <ele>1245.5</ele>
        <time>2024-09-25T08:47:39Z</time>
      </trkpt>
      <trkpt lat="42.36649" lon="2.17897">
        <ele>1245.7</ele>
        <time>2024-09-25T08:47:40Z</time>
      </trkpt>
      <trkpt lat="42.36649" lon="2.17898">
        <ele>1245.9</ele>
        <time>2024-09-25T08:47:41Z</time>
      </trkpt>
      <trkpt lat="42.36649" lon="2.17898">
        <ele>1246</ele>
        <time>2024-09-25T08:47:42Z</time>
      </trkpt>
      <trkpt lat="42.3665" lon="2.17899">
        <ele>1246.1</ele>
        <time>2024-09-25T08:47:43Z</time>
      </trkpt>
      <trkpt lat="42.3665" lon="2.179">
        <ele>1246.2</ele>
        <time>2024-09-25T08:47:44Z</time>
      </trkpt>
      <trkpt lat="42.36651" lon="2.17901">
        <ele>1246.4</ele>
        <time>2024-09-25T08:47:45Z</time>
      </trkpt>
      <trkpt lat="42.36651" lon="2.17902">
        <ele>1246.6</ele>
        <time>2024-09-25T08:47:46Z</time>
      </trkpt>
      <trkpt lat="42.36651" lon="2.17903">
        <ele>1246.7</ele>
        <time>2024-09-25T08:47:47Z</time>
      </trkpt>
      <trkpt lat="42.36651" lon="2.17904">
        <ele>1246.8</ele>
        <time>2024-09-25T08:47:48Z</time>
      </trkpt>
      <trkpt lat="42.36652" lon="2.17905">
        <ele>1247</ele>
        <time>2024-09-25T08:47:49Z</time>
      </trkpt>
      <trkpt lat="42.36652" lon="2.17906">
        <ele>1247.2</ele>
        <time>2024-09-25T08:47:50Z</time>
      </trkpt>
      <trkpt lat="42.36653" lon="2.17907">
        <ele>1247.3</ele>
        <time>2024-09-25T08:47:51Z</time>
      </trkpt>
      <trkpt lat="42.36654" lon="2.17907">
        <ele>1247.5</ele>
        <time>2024-09-25T08:47:52Z</time>
      </trkpt>
      <trkpt lat="42.36655" lon="2.17908">
        <ele>1247.8</ele>
        <time>2024-09-25T08:47:53Z</time>
      </trkpt>
      <trkpt lat="42.36656" lon="2.17909">
        <ele>1248</ele>
        <time>2024-09-25T08:47:54Z</time>
      </trkpt>
      <trkpt lat="42.36657" lon="2.17908">
        <ele>1248.1</ele>
        <time>2024-09-25T08:47:55Z</time>
      </trkpt>
      <trkpt lat="42.36658" lon="2.17908">
        <ele>1248.2</ele>
        <time>2024-09-25T08:47:56Z</time>
      </trkpt>
      <trkpt lat="42.36659" lon="2.1791">
        <ele>1248.4</ele>
        <time>2024-09-25T08:47:57Z</time>
      </trkpt>
      <trkpt lat="42.3666" lon="2.17911">
        <ele>1248.6</ele>
        <time>2024-09-25T08:47:58Z</time>
      </trkpt>
      <trkpt lat="42.36661" lon="2.17911">
        <ele>1248.8</ele>
        <time>2024-09-25T08:47:59Z</time>
      </trkpt>
      <trkpt lat="42.36662" lon="2.17911">
        <ele>1248.9</ele>
        <time>2024-09-25T08:48:00Z</time>
      </trkpt>
      <trkpt lat="42.36662" lon="2.17911">
        <ele>1249</ele>
        <time>2024-09-25T08:48:01Z</time>
      </trkpt>
      <trkpt lat="42.36663" lon="2.17911">
        <ele>1249</ele>
        <time>2024-09-25T08:48:02Z</time>
      </trkpt>
      <trkpt lat="42.36663" lon="2.17911">
        <ele>1249.1</ele>
        <time>2024-09-25T08:48:03Z</time>
      </trkpt>
      <trkpt lat="42.36664" lon="2.17912">
        <ele>1249.2</ele>
        <time>2024-09-25T08:48:04Z</time>
      </trkpt>
      <trkpt lat="42.36664" lon="2.17912">
        <ele>1249.3</ele>
        <time>2024-09-25T08:48:05Z</time>
      </trkpt>
      <trkpt lat="42.36665" lon="2.17912">
        <ele>1249.3</ele>
        <time>2024-09-25T08:48:06Z</time>
      </trkpt>
      <trkpt lat="42.36665" lon="2.17912">
        <ele>1249.4</ele>
        <time>2024-09-25T08:48:07Z</time>
      </trkpt>
      <trkpt lat="42.36665" lon="2.17913">
        <ele>1249.4</ele>
        <time>2024-09-25T08:48:08Z</time>
      </trkpt>
      <trkpt lat="42.36666" lon="2.17913">
        <ele>1249.5</ele>
        <time>2024-09-25T08:48:09Z</time>
      </trkpt>
      <trkpt lat="42.36666" lon="2.17913">
        <ele>1249.6</ele>
        <time>2024-09-25T08:48:10Z</time>
      </trkpt>
      <trkpt lat="42.36666" lon="2.17913">
        <ele>1249.6</ele>
        <time>2024-09-25T08:48:11Z</time>
      </trkpt>
      <trkpt lat="42.36666" lon="2.17913">
        <ele>1249.6</ele>
        <time>2024-09-25T08:48:12Z</time>
      </trkpt>
      <trkpt lat="42.36667" lon="2.17913">
        <ele>1249.6</ele>
        <time>2024-09-25T08:48:13Z</time>
      </trkpt>
      <trkpt lat="42.36667" lon="2.17913">
        <ele>1249.7</ele>
        <time>2024-09-25T08:48:14Z</time>
      </trkpt>
      <trkpt lat="42.36667" lon="2.17913">
        <ele>1249.7</ele>
        <time>2024-09-25T08:48:15Z</time>
      </trkpt>
      <trkpt lat="42.36668" lon="2.17913">
        <ele>1249.7</ele>
        <time>2024-09-25T08:48:16Z</time>
      </trkpt>
      <trkpt lat="42.36668" lon="2.17913">
        <ele>1249.8</ele>
        <time>2024-09-25T08:48:17Z</time>
      </trkpt>
      <trkpt lat="42.36669" lon="2.17913">
        <ele>1249.9</ele>
        <time>2024-09-25T08:48:18Z</time>
      </trkpt>
      <trkpt lat="42.36669" lon="2.17913">
        <ele>1249.9</ele>
        <time>2024-09-25T08:48:19Z</time>
      </trkpt>
      <trkpt lat="42.3667" lon="2.17913">
        <ele>1250</ele>
        <time>2024-09-25T08:48:20Z</time>
      </trkpt>
      <trkpt lat="42.3667" lon="2.17913">
        <ele>1250.1</ele>
        <time>2024-09-25T08:48:21Z</time>
      </trkpt>
      <trkpt lat="42.36671" lon="2.17913">
        <ele>1250.1</ele>
        <time>2024-09-25T08:48:22Z</time>
      </trkpt>
      <trkpt lat="42.36673" lon="2.17913">
        <ele>1250.4</ele>
        <time>2024-09-25T08:48:23Z</time>
      </trkpt>
      <trkpt lat="42.36671" lon="2.17913">
        <ele>1250.5</ele>
        <time>2024-09-25T08:48:24Z</time>
      </trkpt>
      <trkpt lat="42.36672" lon="2.17913">
        <ele>1250.6</ele>
        <time>2024-09-25T08:48:25Z</time>
      </trkpt>
      <trkpt lat="42.36672" lon="2.17913">
        <ele>1250.7</ele>
        <time>2024-09-25T08:48:26Z</time>
      </trkpt>
      <trkpt lat="42.36673" lon="2.17914">
        <ele>1250.8</ele>
        <time>2024-09-25T08:48:27Z</time>
      </trkpt>
      <trkpt lat="42.36674" lon="2.17914">
        <ele>1250.8</ele>
        <time>2024-09-25T08:48:28Z</time>
      </trkpt>
      <trkpt lat="42.36675" lon="2.17914">
        <ele>1250.9</ele>
        <time>2024-09-25T08:48:29Z</time>
      </trkpt>
      <trkpt lat="42.36676" lon="2.17914">
        <ele>1251.1</ele>
        <time>2024-09-25T08:48:30Z</time>
      </trkpt>
      <trkpt lat="42.36677" lon="2.17914">
        <ele>1251.2</ele>
        <time>2024-09-25T08:48:31Z</time>
      </trkpt>
      <trkpt lat="42.36678" lon="2.17914">
        <ele>1251.3</ele>
        <time>2024-09-25T08:48:32Z</time>
      </trkpt>
      <trkpt lat="42.36678" lon="2.17914">
        <ele>1251.4</ele>
        <time>2024-09-25T08:48:33Z</time>
      </trkpt>
      <trkpt lat="42.36679" lon="2.17913">
        <ele>1251.5</ele>
        <time>2024-09-25T08:48:34Z</time>
      </trkpt>
      <trkpt lat="42.3668" lon="2.17913">
        <ele>1251.5</ele>
        <time>2024-09-25T08:48:35Z</time>
      </trkpt>
      <trkpt lat="42.3668" lon="2.17913">
        <ele>1251.6</ele>
        <time>2024-09-25T08:48:36Z</time>
      </trkpt>
      <trkpt lat="42.3668" lon="2.17913">
        <ele>1251.7</ele>
        <time>2024-09-25T08:48:37Z</time>
      </trkpt>
      <trkpt lat="42.36681" lon="2.17914">
        <ele>1251.7</ele>
        <time>2024-09-25T08:48:38Z</time>
      </trkpt>
      <trkpt lat="42.36681" lon="2.17914">
        <ele>1251.7</ele>
        <time>2024-09-25T08:48:39Z</time>
      </trkpt>
      <trkpt lat="42.36682" lon="2.17914">
        <ele>1251.8</ele>
        <time>2024-09-25T08:48:40Z</time>
      </trkpt>
      <trkpt lat="42.36682" lon="2.17914">
        <ele>1251.9</ele>
        <time>2024-09-25T08:48:41Z</time>
      </trkpt>
      <trkpt lat="42.36683" lon="2.17915">
        <ele>1252</ele>
        <time>2024-09-25T08:48:42Z</time>
      </trkpt>
      <trkpt lat="42.36683" lon="2.17915">
        <ele>1252</ele>
        <time>2024-09-25T08:48:43Z</time>
      </trkpt>
      <trkpt lat="42.36684" lon="2.17916">
        <ele>1252.1</ele>
        <time>2024-09-25T08:48:44Z</time>
      </trkpt>
      <trkpt lat="42.36684" lon="2.17916">
        <ele>1252.2</ele>
        <time>2024-09-25T08:48:45Z</time>
      </trkpt>
      <trkpt lat="42.36684" lon="2.17917">
        <ele>1252.3</ele>
        <time>2024-09-25T08:48:46Z</time>
      </trkpt>
      <trkpt lat="42.36685" lon="2.17917">
        <ele>1252.3</ele>
        <time>2024-09-25T08:48:47Z</time>
      </trkpt>
      <trkpt lat="42.36685" lon="2.17917">
        <ele>1252.3</ele>
        <time>2024-09-25T08:48:48Z</time>
      </trkpt>
      <trkpt lat="42.36685" lon="2.17917">
        <ele>1252.4</ele>
        <time>2024-09-25T08:48:49Z</time>
      </trkpt>
      <trkpt lat="42.36685" lon="2.17918">
        <ele>1252.4</ele>
        <time>2024-09-25T08:48:50Z</time>
      </trkpt>
      <trkpt lat="42.36686" lon="2.17918">
        <ele>1252.5</ele>
        <time>2024-09-25T08:48:51Z</time>
      </trkpt>
      <trkpt lat="42.36686" lon="2.17918">
        <ele>1252.5</ele>
        <time>2024-09-25T08:48:52Z</time>
      </trkpt>
      <trkpt lat="42.36686" lon="2.17918">
        <ele>1252.5</ele>
        <time>2024-09-25T08:48:53Z</time>
      </trkpt>
      <trkpt lat="42.36686" lon="2.17918">
        <ele>1252.5</ele>
        <time>2024-09-25T08:48:54Z</time>
      </trkpt>
      <trkpt lat="42.36686" lon="2.17918">
        <ele>1252.6</ele>
        <time>2024-09-25T08:48:55Z</time>
      </trkpt>
      <trkpt lat="42.36687" lon="2.17918">
        <ele>1252.6</ele>
        <time>2024-09-25T08:48:56Z</time>
      </trkpt>
      <trkpt lat="42.36687" lon="2.17918">
        <ele>1252.6</ele>
        <time>2024-09-25T08:48:57Z</time>
      </trkpt>
      <trkpt lat="42.36687" lon="2.17918">
        <ele>1252.7</ele>
        <time>2024-09-25T08:48:58Z</time>
      </trkpt>
      <trkpt lat="42.36687" lon="2.17918">
        <ele>1252.7</ele>
        <time>2024-09-25T08:48:59Z</time>
      </trkpt>
      <trkpt lat="42.36688" lon="2.17918">
        <ele>1252.8</ele>
        <time>2024-09-25T08:49:00Z</time>
      </trkpt>
      <trkpt lat="42.36688" lon="2.17918">
        <ele>1252.8</ele>
        <time>2024-09-25T08:49:01Z</time>
      </trkpt>
      <trkpt lat="42.36689" lon="2.17919">
        <ele>1252.9</ele>
        <time>2024-09-25T08:49:02Z</time>
      </trkpt>
      <trkpt lat="42.3669" lon="2.17919">
        <ele>1253.1</ele>
        <time>2024-09-25T08:49:03Z</time>
      </trkpt>
      <trkpt lat="42.36692" lon="2.1792">
        <ele>1253.3</ele>
        <time>2024-09-25T08:49:04Z</time>
      </trkpt>
      <trkpt lat="42.36693" lon="2.1792">
        <ele>1253.5</ele>
        <time>2024-09-25T08:49:05Z</time>
      </trkpt>
      <trkpt lat="42.36694" lon="2.17921">
        <ele>1253.6</ele>
        <time>2024-09-25T08:49:06Z</time>
      </trkpt>
      <trkpt lat="42.36694" lon="2.17922">
        <ele>1253.8</ele>
        <time>2024-09-25T08:49:07Z</time>
      </trkpt>
      <trkpt lat="42.36695" lon="2.17923">
        <ele>1253.9</ele>
        <time>2024-09-25T08:49:08Z</time>
      </trkpt>
      <trkpt lat="42.36696" lon="2.17924">
        <ele>1254.1</ele>
        <time>2024-09-25T08:49:09Z</time>
      </trkpt>
      <trkpt lat="42.36697" lon="2.17924">
        <ele>1254.3</ele>
        <time>2024-09-25T08:49:10Z</time>
      </trkpt>
      <trkpt lat="42.36699" lon="2.17925">
        <ele>1254.7</ele>
        <time>2024-09-25T08:49:11Z</time>
      </trkpt>
      <trkpt lat="42.367" lon="2.17924">
        <ele>1254.9</ele>
        <time>2024-09-25T08:49:12Z</time>
      </trkpt>
      <trkpt lat="42.36701" lon="2.17924">
        <ele>1255</ele>
        <time>2024-09-25T08:49:13Z</time>
      </trkpt>
      <trkpt lat="42.36702" lon="2.17925">
        <ele>1255.2</ele>
        <time>2024-09-25T08:49:14Z</time>
      </trkpt>
      <trkpt lat="42.36703" lon="2.17924">
        <ele>1255.3</ele>
        <time>2024-09-25T08:49:15Z</time>
      </trkpt>
      <trkpt lat="42.36704" lon="2.17925">
        <ele>1255.5</ele>
        <time>2024-09-25T08:49:16Z</time>
      </trkpt>
      <trkpt lat="42.36703" lon="2.17926">
        <ele>1255.7</ele>
        <time>2024-09-25T08:49:17Z</time>
      </trkpt>
      <trkpt lat="42.36703" lon="2.17928">
        <ele>1255.9</ele>
        <time>2024-09-25T08:49:18Z</time>
      </trkpt>
      <trkpt lat="42.36703" lon="2.17929">
        <ele>1256.1</ele>
        <time>2024-09-25T08:49:19Z</time>
      </trkpt>
      <trkpt lat="42.36703" lon="2.1793">
        <ele>1256.2</ele>
        <time>2024-09-25T08:49:20Z</time>
      </trkpt>
      <trkpt lat="42.36703" lon="2.1793">
        <ele>1256.2</ele>
        <time>2024-09-25T08:49:21Z</time>
      </trkpt>
      <trkpt lat="42.36704" lon="2.17929">
        <ele>1256.4</ele>
        <time>2024-09-25T08:49:22Z</time>
      </trkpt>
      <trkpt lat="42.36704" lon="2.17929">
        <ele>1256.4</ele>
        <time>2024-09-25T08:49:23Z</time>
      </trkpt>
      <trkpt lat="42.36705" lon="2.17929">
        <ele>1256.6</ele>
        <time>2024-09-25T08:49:24Z</time>
      </trkpt>
      <trkpt lat="42.36707" lon="2.1793">
        <ele>1256.9</ele>
        <time>2024-09-25T08:49:25Z</time>
      </trkpt>
      <trkpt lat="42.36707" lon="2.1793">
        <ele>1257</ele>
        <time>2024-09-25T08:49:26Z</time>
      </trkpt>
      <trkpt lat="42.36708" lon="2.1793">
        <ele>1257.1</ele>
        <time>2024-09-25T08:49:27Z</time>
      </trkpt>
      <trkpt lat="42.36709" lon="2.1793">
        <ele>1257.3</ele>
        <time>2024-09-25T08:49:28Z</time>
      </trkpt>
      <trkpt lat="42.3671" lon="2.1793">
        <ele>1257.5</ele>
        <time>2024-09-25T08:49:29Z</time>
      </trkpt>
      <trkpt lat="42.36712" lon="2.17931">
        <ele>1257.9</ele>
        <time>2024-09-25T08:49:30Z</time>
      </trkpt>
      <trkpt lat="42.36711" lon="2.1793">
        <ele>1258.1</ele>
        <time>2024-09-25T08:49:31Z</time>
      </trkpt>
      <trkpt lat="42.36711" lon="2.1793">
        <ele>1258.1</ele>
        <time>2024-09-25T08:49:32Z</time>
      </trkpt>
      <trkpt lat="42.36712" lon="2.1793">
        <ele>1258.2</ele>
        <time>2024-09-25T08:49:33Z</time>
      </trkpt>
      <trkpt lat="42.36712" lon="2.1793">
        <ele>1258.3</ele>
        <time>2024-09-25T08:49:34Z</time>
      </trkpt>
      <trkpt lat="42.36712" lon="2.1793">
        <ele>1258.3</ele>
        <time>2024-09-25T08:49:35Z</time>
      </trkpt>
      <trkpt lat="42.36713" lon="2.1793">
        <ele>1258.4</ele>
        <time>2024-09-25T08:49:36Z</time>
      </trkpt>
      <trkpt lat="42.36713" lon="2.1793">
        <ele>1258.5</ele>
        <time>2024-09-25T08:49:37Z</time>
      </trkpt>
      <trkpt lat="42.36713" lon="2.1793">
        <ele>1258.5</ele>
        <time>2024-09-25T08:49:38Z</time>
      </trkpt>
      <trkpt lat="42.36714" lon="2.1793">
        <ele>1258.6</ele>
        <time>2024-09-25T08:49:39Z</time>
      </trkpt>
      <trkpt lat="42.36714" lon="2.1793">
        <ele>1258.7</ele>
        <time>2024-09-25T08:49:40Z</time>
      </trkpt>
      <trkpt lat="42.36715" lon="2.1793">
        <ele>1258.8</ele>
        <time>2024-09-25T08:49:41Z</time>
      </trkpt>
      <trkpt lat="42.36715" lon="2.1793">
        <ele>1258.8</ele>
        <time>2024-09-25T08:49:42Z</time>
      </trkpt>
      <trkpt lat="42.36715" lon="2.1793">
        <ele>1258.9</ele>
        <time>2024-09-25T08:49:43Z</time>
      </trkpt>
      <trkpt lat="42.36716" lon="2.1793">
        <ele>1259</ele>
        <time>2024-09-25T08:49:44Z</time>
      </trkpt>
      <trkpt lat="42.36716" lon="2.1793">
        <ele>1259</ele>
        <time>2024-09-25T08:49:45Z</time>
      </trkpt>
      <trkpt lat="42.36716" lon="2.1793">
        <ele>1259.1</ele>
        <time>2024-09-25T08:49:46Z</time>
      </trkpt>
      <trkpt lat="42.36717" lon="2.1793">
        <ele>1259.2</ele>
        <time>2024-09-25T08:49:47Z</time>
      </trkpt>
      <trkpt lat="42.36717" lon="2.1793">
        <ele>1259.2</ele>
        <time>2024-09-25T08:49:48Z</time>
      </trkpt>
      <trkpt lat="42.36718" lon="2.1793">
        <ele>1259.4</ele>
        <time>2024-09-25T08:49:49Z</time>
      </trkpt>
      <trkpt lat="42.36719" lon="2.1793">
        <ele>1259.5</ele>
        <time>2024-09-25T08:49:50Z</time>
      </trkpt>
      <trkpt lat="42.36719" lon="2.1793">
        <ele>1259.6</ele>
        <time>2024-09-25T08:49:51Z</time>
      </trkpt>
      <trkpt lat="42.3672" lon="2.1793">
        <ele>1259.7</ele>
        <time>2024-09-25T08:49:52Z</time>
      </trkpt>
      <trkpt lat="42.3672" lon="2.1793">
        <ele>1259.8</ele>
        <time>2024-09-25T08:49:53Z</time>
      </trkpt>
      <trkpt lat="42.36721" lon="2.1793">
        <ele>1259.9</ele>
        <time>2024-09-25T08:49:54Z</time>
      </trkpt>
      <trkpt lat="42.36722" lon="2.1793">
        <ele>1260</ele>
        <time>2024-09-25T08:49:55Z</time>
      </trkpt>
      <trkpt lat="42.36722" lon="2.17929">
        <ele>1260.1</ele>
        <time>2024-09-25T08:49:56Z</time>
      </trkpt>
      <trkpt lat="42.36722" lon="2.17929">
        <ele>1260.1</ele>
        <time>2024-09-25T08:49:57Z</time>
      </trkpt>
      <trkpt lat="42.36723" lon="2.17929">
        <ele>1260.2</ele>
        <time>2024-09-25T08:49:58Z</time>
      </trkpt>
      <trkpt lat="42.36723" lon="2.17929">
        <ele>1260.3</ele>
        <time>2024-09-25T08:49:59Z</time>
      </trkpt>
      <trkpt lat="42.36723" lon="2.17928">
        <ele>1260.3</ele>
        <time>2024-09-25T08:50:00Z</time>
      </trkpt>
      <trkpt lat="42.36724" lon="2.17928">
        <ele>1260.4</ele>
        <time>2024-09-25T08:50:01Z</time>
      </trkpt>
      <trkpt lat="42.36724" lon="2.17928">
        <ele>1260.5</ele>
        <time>2024-09-25T08:50:02Z</time>
      </trkpt>
      <trkpt lat="42.36725" lon="2.17928">
        <ele>1260.6</ele>
        <time>2024-09-25T08:50:03Z</time>
      </trkpt>
      <trkpt lat="42.36725" lon="2.17928">
        <ele>1260.6</ele>
        <time>2024-09-25T08:50:04Z</time>
      </trkpt>
      <trkpt lat="42.36726" lon="2.17928">
        <ele>1260.7</ele>
        <time>2024-09-25T08:50:05Z</time>
      </trkpt>
      <trkpt lat="42.36726" lon="2.17928">
        <ele>1260.8</ele>
        <time>2024-09-25T08:50:06Z</time>
      </trkpt>
      <trkpt lat="42.36727" lon="2.17928">
        <ele>1260.9</ele>
        <time>2024-09-25T08:50:07Z</time>
      </trkpt>
      <trkpt lat="42.36728" lon="2.17928">
        <ele>1261</ele>
        <time>2024-09-25T08:50:08Z</time>
      </trkpt>
      <trkpt lat="42.36728" lon="2.17928">
        <ele>1261.1</ele>
        <time>2024-09-25T08:50:09Z</time>
      </trkpt>
      <trkpt lat="42.36728" lon="2.17928">
        <ele>1261.2</ele>
        <time>2024-09-25T08:50:10Z</time>
      </trkpt>
      <trkpt lat="42.36729" lon="2.17928">
        <ele>1261.2</ele>
        <time>2024-09-25T08:50:11Z</time>
      </trkpt>
      <trkpt lat="42.3673" lon="2.17928">
        <ele>1261.4</ele>
        <time>2024-09-25T08:50:12Z</time>
      </trkpt>
      <trkpt lat="42.3673" lon="2.17928">
        <ele>1261.4</ele>
        <time>2024-09-25T08:50:13Z</time>
      </trkpt>
      <trkpt lat="42.3673" lon="2.17928">
        <ele>1261.5</ele>
        <time>2024-09-25T08:50:14Z</time>
      </trkpt>
      <trkpt lat="42.36731" lon="2.17928">
        <ele>1261.6</ele>
        <time>2024-09-25T08:50:15Z</time>
      </trkpt>
      <trkpt lat="42.36731" lon="2.17928">
        <ele>1261.6</ele>
        <time>2024-09-25T08:50:16Z</time>
      </trkpt>
      <trkpt lat="42.36731" lon="2.17928">
        <ele>1261.6</ele>
        <time>2024-09-25T08:50:17Z</time>
      </trkpt>
      <trkpt lat="42.36731" lon="2.17928">
        <ele>1261.6</ele>
        <time>2024-09-25T08:50:18Z</time>
      </trkpt>
      <trkpt lat="42.36732" lon="2.17928">
        <ele>1261.7</ele>
        <time>2024-09-25T08:50:19Z</time>
      </trkpt>
      <trkpt lat="42.36732" lon="2.17928">
        <ele>1261.7</ele>
        <time>2024-09-25T08:50:20Z</time>
      </trkpt>
      <trkpt lat="42.36733" lon="2.17928">
        <ele>1261.8</ele>
        <time>2024-09-25T08:50:21Z</time>
      </trkpt>
      <trkpt lat="42.36733" lon="2.17928">
        <ele>1261.9</ele>
        <time>2024-09-25T08:50:22Z</time>
      </trkpt>
      <trkpt lat="42.36733" lon="2.17927">
        <ele>1261.9</ele>
        <time>2024-09-25T08:50:23Z</time>
      </trkpt>
      <trkpt lat="42.36734" lon="2.17927">
        <ele>1262</ele>
        <time>2024-09-25T08:50:24Z</time>
      </trkpt>
      <trkpt lat="42.36734" lon="2.17927">
        <ele>1262.1</ele>
        <time>2024-09-25T08:50:25Z</time>
      </trkpt>
      <trkpt lat="42.36735" lon="2.17927">
        <ele>1262.2</ele>
        <time>2024-09-25T08:50:26Z</time>
      </trkpt>
      <trkpt lat="42.36736" lon="2.17928">
        <ele>1262.3</ele>
        <time>2024-09-25T08:50:27Z</time>
      </trkpt>
      <trkpt lat="42.36736" lon="2.17928">
        <ele>1262.4</ele>
        <time>2024-09-25T08:50:28Z</time>
      </trkpt>
      <trkpt lat="42.36737" lon="2.17928">
        <ele>1262.5</ele>
        <time>2024-09-25T08:50:29Z</time>
      </trkpt>
      <trkpt lat="42.36737" lon="2.17927">
        <ele>1262.6</ele>
        <time>2024-09-25T08:50:30Z</time>
      </trkpt>
      <trkpt lat="42.36738" lon="2.17928">
        <ele>1262.6</ele>
        <time>2024-09-25T08:50:31Z</time>
      </trkpt>
      <trkpt lat="42.36738" lon="2.17928">
        <ele>1262.8</ele>
        <time>2024-09-25T08:50:32Z</time>
      </trkpt>
      <trkpt lat="42.36739" lon="2.17929">
        <ele>1262.9</ele>
        <time>2024-09-25T08:50:33Z</time>
      </trkpt>
      <trkpt lat="42.36739" lon="2.17929">
        <ele>1262.9</ele>
        <time>2024-09-25T08:50:34Z</time>
      </trkpt>
      <trkpt lat="42.3674" lon="2.1793">
        <ele>1263.1</ele>
        <time>2024-09-25T08:50:35Z</time>
      </trkpt>
      <trkpt lat="42.36741" lon="2.1793">
        <ele>1263.2</ele>
        <time>2024-09-25T08:50:36Z</time>
      </trkpt>
      <trkpt lat="42.36741" lon="2.17931">
        <ele>1263.3</ele>
        <time>2024-09-25T08:50:37Z</time>
      </trkpt>
      <trkpt lat="42.36742" lon="2.17931">
        <ele>1263.3</ele>
        <time>2024-09-25T08:50:38Z</time>
      </trkpt>
      <trkpt lat="42.36742" lon="2.17931">
        <ele>1263.3</ele>
        <time>2024-09-25T08:50:39Z</time>
      </trkpt>
      <trkpt lat="42.36742" lon="2.17931">
        <ele>1263.4</ele>
        <time>2024-09-25T08:50:40Z</time>
      </trkpt>
      <trkpt lat="42.36742" lon="2.17931">
        <ele>1263.4</ele>
        <time>2024-09-25T08:50:41Z</time>
      </trkpt>
      <trkpt lat="42.36742" lon="2.17931">
        <ele>1263.4</ele>
        <time>2024-09-25T08:50:42Z</time>
      </trkpt>
      <trkpt lat="42.36742" lon="2.17931">
        <ele>1263.4</ele>
        <time>2024-09-25T08:50:43Z</time>
      </trkpt>
      <trkpt lat="42.36743" lon="2.17931">
        <ele>1263.5</ele>
        <time>2024-09-25T08:50:44Z</time>
      </trkpt>
      <trkpt lat="42.36743" lon="2.17931">
        <ele>1263.5</ele>
        <time>2024-09-25T08:50:45Z</time>
      </trkpt>
      <trkpt lat="42.36744" lon="2.17931">
        <ele>1263.6</ele>
        <time>2024-09-25T08:50:46Z</time>
      </trkpt>
      <trkpt lat="42.36744" lon="2.17931">
        <ele>1263.6</ele>
        <time>2024-09-25T08:50:47Z</time>
      </trkpt>
      <trkpt lat="42.36744" lon="2.17931">
        <ele>1263.7</ele>
        <time>2024-09-25T08:50:48Z</time>
      </trkpt>
      <trkpt lat="42.36745" lon="2.17931">
        <ele>1263.7</ele>
        <time>2024-09-25T08:50:49Z</time>
      </trkpt>
      <trkpt lat="42.36745" lon="2.17931">
        <ele>1263.8</ele>
        <time>2024-09-25T08:50:50Z</time>
      </trkpt>
      <trkpt lat="42.36745" lon="2.17932">
        <ele>1263.9</ele>
        <time>2024-09-25T08:50:51Z</time>
      </trkpt>
      <trkpt lat="42.36746" lon="2.17932">
        <ele>1263.9</ele>
        <time>2024-09-25T08:50:52Z</time>
      </trkpt>
      <trkpt lat="42.36746" lon="2.17932">
        <ele>1264</ele>
        <time>2024-09-25T08:50:53Z</time>
      </trkpt>
      <trkpt lat="42.36747" lon="2.17932">
        <ele>1264.1</ele>
        <time>2024-09-25T08:50:54Z</time>
      </trkpt>
      <trkpt lat="42.36747" lon="2.17932">
        <ele>1264.1</ele>
        <time>2024-09-25T08:50:55Z</time>
      </trkpt>
      <trkpt lat="42.36748" lon="2.17932">
        <ele>1264.2</ele>
        <time>2024-09-25T08:50:56Z</time>
      </trkpt>
      <trkpt lat="42.36748" lon="2.17932">
        <ele>1264.3</ele>
        <time>2024-09-25T08:50:57Z</time>
      </trkpt>
      <trkpt lat="42.36749" lon="2.17932">
        <ele>1264.4</ele>
        <time>2024-09-25T08:50:58Z</time>
      </trkpt>
      <trkpt lat="42.3675" lon="2.17933">
        <ele>1264.6</ele>
        <time>2024-09-25T08:50:59Z</time>
      </trkpt>
      <trkpt lat="42.36751" lon="2.17933">
        <ele>1264.7</ele>
        <time>2024-09-25T08:51:00Z</time>
      </trkpt>
      <trkpt lat="42.36751" lon="2.17933">
        <ele>1264.8</ele>
        <time>2024-09-25T08:51:01Z</time>
      </trkpt>
      <trkpt lat="42.36752" lon="2.17934">
        <ele>1264.8</ele>
        <time>2024-09-25T08:51:02Z</time>
      </trkpt>
      <trkpt lat="42.36752" lon="2.17934">
        <ele>1264.9</ele>
        <time>2024-09-25T08:51:03Z</time>
      </trkpt>
      <trkpt lat="42.36752" lon="2.17934">
        <ele>1264.9</ele>
        <time>2024-09-25T08:51:04Z</time>
      </trkpt>
      <trkpt lat="42.36753" lon="2.17934">
        <ele>1265</ele>
        <time>2024-09-25T08:51:05Z</time>
      </trkpt>
      <trkpt lat="42.36753" lon="2.17934">
        <ele>1265.1</ele>
        <time>2024-09-25T08:51:06Z</time>
      </trkpt>
      <trkpt lat="42.36754" lon="2.17933">
        <ele>1265.1</ele>
        <time>2024-09-25T08:51:07Z</time>
      </trkpt>
      <trkpt lat="42.36754" lon="2.17934">
        <ele>1265.2</ele>
        <time>2024-09-25T08:51:08Z</time>
      </trkpt>
      <trkpt lat="42.36755" lon="2.17934">
        <ele>1265.3</ele>
        <time>2024-09-25T08:51:09Z</time>
      </trkpt>
      <trkpt lat="42.36755" lon="2.17934">
        <ele>1265.4</ele>
        <time>2024-09-25T08:51:10Z</time>
      </trkpt>
      <trkpt lat="42.36756" lon="2.17935">
        <ele>1265.5</ele>
        <time>2024-09-25T08:51:11Z</time>
      </trkpt>
      <trkpt lat="42.36757" lon="2.17935">
        <ele>1265.6</ele>
        <time>2024-09-25T08:51:12Z</time>
      </trkpt>
      <trkpt lat="42.36757" lon="2.17935">
        <ele>1265.7</ele>
        <time>2024-09-25T08:51:13Z</time>
      </trkpt>
      <trkpt lat="42.36758" lon="2.17936">
        <ele>1265.9</ele>
        <time>2024-09-25T08:51:14Z</time>
      </trkpt>
      <trkpt lat="42.36759" lon="2.17936">
        <ele>1266</ele>
        <time>2024-09-25T08:51:15Z</time>
      </trkpt>
      <trkpt lat="42.3676" lon="2.17936">
        <ele>1266.1</ele>
        <time>2024-09-25T08:51:16Z</time>
      </trkpt>
      <trkpt lat="42.36761" lon="2.17937">
        <ele>1266.3</ele>
        <time>2024-09-25T08:51:17Z</time>
      </trkpt>
      <trkpt lat="42.36761" lon="2.17937">
        <ele>1266.4</ele>
        <time>2024-09-25T08:51:18Z</time>
      </trkpt>
      <trkpt lat="42.36762" lon="2.17938">
        <ele>1266.5</ele>
        <time>2024-09-25T08:51:19Z</time>
      </trkpt>
      <trkpt lat="42.36762" lon="2.17938">
        <ele>1266.6</ele>
        <time>2024-09-25T08:51:20Z</time>
      </trkpt>
      <trkpt lat="42.36762" lon="2.17939">
        <ele>1266.6</ele>
        <time>2024-09-25T08:51:21Z</time>
      </trkpt>
      <trkpt lat="42.36762" lon="2.17939">
        <ele>1266.7</ele>
        <time>2024-09-25T08:51:22Z</time>
      </trkpt>
      <trkpt lat="42.36762" lon="2.17939">
        <ele>1266.7</ele>
        <time>2024-09-25T08:51:23Z</time>
      </trkpt>
      <trkpt lat="42.36762" lon="2.17939">
        <ele>1266.7</ele>
        <time>2024-09-25T08:51:24Z</time>
      </trkpt>
      <trkpt lat="42.36763" lon="2.17939">
        <ele>1266.8</ele>
        <time>2024-09-25T08:51:25Z</time>
      </trkpt>
      <trkpt lat="42.36763" lon="2.17939">
        <ele>1266.8</ele>
        <time>2024-09-25T08:51:26Z</time>
      </trkpt>
      <trkpt lat="42.36763" lon="2.17939">
        <ele>1266.8</ele>
        <time>2024-09-25T08:51:27Z</time>
      </trkpt>
      <trkpt lat="42.36763" lon="2.17939">
        <ele>1266.8</ele>
        <time>2024-09-25T08:51:28Z</time>
      </trkpt>
      <trkpt lat="42.36763" lon="2.17939">
        <ele>1266.8</ele>
        <time>2024-09-25T08:51:29Z</time>
      </trkpt>
      <trkpt lat="42.36763" lon="2.17939">
        <ele>1266.8</ele>
        <time>2024-09-25T08:51:30Z</time>
      </trkpt>
      <trkpt lat="42.36763" lon="2.17939">
        <ele>1266.9</ele>
        <time>2024-09-25T08:51:31Z</time>
      </trkpt>
      <trkpt lat="42.36763" lon="2.1794">
        <ele>1266.9</ele>
        <time>2024-09-25T08:51:32Z</time>
      </trkpt>
      <trkpt lat="42.36763" lon="2.1794">
        <ele>1266.9</ele>
        <time>2024-09-25T08:51:33Z</time>
      </trkpt>
      <trkpt lat="42.36763" lon="2.1794">
        <ele>1266.9</ele>
        <time>2024-09-25T08:51:34Z</time>
      </trkpt>
      <trkpt lat="42.36764" lon="2.1794">
        <ele>1266.9</ele>
        <time>2024-09-25T08:51:35Z</time>
      </trkpt>
      <trkpt lat="42.36764" lon="2.1794">
        <ele>1267</ele>
        <time>2024-09-25T08:51:36Z</time>
      </trkpt>
      <trkpt lat="42.36764" lon="2.17939">
        <ele>1267</ele>
        <time>2024-09-25T08:51:37Z</time>
      </trkpt>
      <trkpt lat="42.36764" lon="2.17939">
        <ele>1267</ele>
        <time>2024-09-25T08:51:38Z</time>
      </trkpt>
      <trkpt lat="42.36764" lon="2.17939">
        <ele>1267</ele>
        <time>2024-09-25T08:51:39Z</time>
      </trkpt>
      <trkpt lat="42.36764" lon="2.17939">
        <ele>1267</ele>
        <time>2024-09-25T08:51:40Z</time>
      </trkpt>
      <trkpt lat="42.36764" lon="2.17939">
        <ele>1267.1</ele>
        <time>2024-09-25T08:51:41Z</time>
      </trkpt>
      <trkpt lat="42.36764" lon="2.17939">
        <ele>1267.1</ele>
        <time>2024-09-25T08:51:42Z</time>
      </trkpt>
      <trkpt lat="42.36764" lon="2.17939">
        <ele>1267.1</ele>
        <time>2024-09-25T08:51:43Z</time>
      </trkpt>
      <trkpt lat="42.36764" lon="2.17939">
        <ele>1267.1</ele>
        <time>2024-09-25T08:51:44Z</time>
      </trkpt>
      <trkpt lat="42.36764" lon="2.17939">
        <ele>1267.1</ele>
        <time>2024-09-25T08:51:45Z</time>
      </trkpt>
      <trkpt lat="42.36764" lon="2.17939">
        <ele>1267.1</ele>
        <time>2024-09-25T08:51:46Z</time>
      </trkpt>
      <trkpt lat="42.36764" lon="2.17939">
        <ele>1267.1</ele>
        <time>2024-09-25T08:51:47Z</time>
      </trkpt>
      <trkpt lat="42.36764" lon="2.17939">
        <ele>1267.1</ele>
        <time>2024-09-25T08:51:48Z</time>
      </trkpt>
      <trkpt lat="42.36764" lon="2.17939">
        <ele>1267.1</ele>
        <time>2024-09-25T08:51:49Z</time>
      </trkpt>
      <trkpt lat="42.36764" lon="2.17939">
        <ele>1267.1</ele>
        <time>2024-09-25T08:51:50Z</time>
      </trkpt>
      <trkpt lat="42.36764" lon="2.17939">
        <ele>1267.1</ele>
        <time>2024-09-25T08:51:51Z</time>
      </trkpt>
      <trkpt lat="42.36764" lon="2.1794">
        <ele>1267.1</ele>
        <time>2024-09-25T08:51:52Z</time>
      </trkpt>
      <trkpt lat="42.36764" lon="2.1794">
        <ele>1267.1</ele>
        <time>2024-09-25T08:51:53Z</time>
      </trkpt>
      <trkpt lat="42.36764" lon="2.1794">
        <ele>1267.1</ele>
        <time>2024-09-25T08:51:54Z</time>
      </trkpt>
      <trkpt lat="42.36764" lon="2.1794">
        <ele>1267.2</ele>
        <time>2024-09-25T08:51:55Z</time>
      </trkpt>
      <trkpt lat="42.36764" lon="2.1794">
        <ele>1267.2</ele>
        <time>2024-09-25T08:51:56Z</time>
      </trkpt>
      <trkpt lat="42.36764" lon="2.1794">
        <ele>1267.2</ele>
        <time>2024-09-25T08:51:57Z</time>
      </trkpt>
      <trkpt lat="42.36764" lon="2.1794">
        <ele>1267.2</ele>
        <time>2024-09-25T08:51:58Z</time>
      </trkpt>
      <trkpt lat="42.36764" lon="2.1794">
        <ele>1267.2</ele>
        <time>2024-09-25T08:51:59Z</time>
      </trkpt>
      <trkpt lat="42.36764" lon="2.1794">
        <ele>1267.2</ele>
        <time>2024-09-25T08:52:00Z</time>
      </trkpt>
      <trkpt lat="42.36764" lon="2.1794">
        <ele>1267.2</ele>
        <time>2024-09-25T08:52:01Z</time>
      </trkpt>
      <trkpt lat="42.36764" lon="2.1794">
        <ele>1267.3</ele>
        <time>2024-09-25T08:52:02Z</time>
      </trkpt>
      <trkpt lat="42.36764" lon="2.1794">
        <ele>1267.3</ele>
        <time>2024-09-25T08:52:03Z</time>
      </trkpt>
      <trkpt lat="42.36765" lon="2.1794">
        <ele>1267.3</ele>
        <time>2024-09-25T08:52:04Z</time>
      </trkpt>
      <trkpt lat="42.36765" lon="2.1794">
        <ele>1267.4</ele>
        <time>2024-09-25T08:52:05Z</time>
      </trkpt>
      <trkpt lat="42.36765" lon="2.1794">
        <ele>1267.4</ele>
        <time>2024-09-25T08:52:06Z</time>
      </trkpt>
      <trkpt lat="42.36765" lon="2.17941">
        <ele>1267.5</ele>
        <time>2024-09-25T08:52:07Z</time>
      </trkpt>
      <trkpt lat="42.36765" lon="2.17941">
        <ele>1267.5</ele>
        <time>2024-09-25T08:52:08Z</time>
      </trkpt>
      <trkpt lat="42.36765" lon="2.17941">
        <ele>1267.5</ele>
        <time>2024-09-25T08:52:09Z</time>
      </trkpt>
      <trkpt lat="42.36765" lon="2.17941">
        <ele>1267.5</ele>
        <time>2024-09-25T08:52:10Z</time>
      </trkpt>
      <trkpt lat="42.36765" lon="2.17941">
        <ele>1267.5</ele>
        <time>2024-09-25T08:52:11Z</time>
      </trkpt>
      <trkpt lat="42.36765" lon="2.17941">
        <ele>1267.5</ele>
        <time>2024-09-25T08:52:12Z</time>
      </trkpt>
      <trkpt lat="42.36765" lon="2.17941">
        <ele>1267.5</ele>
        <time>2024-09-25T08:52:13Z</time>
      </trkpt>
      <trkpt lat="42.36765" lon="2.17941">
        <ele>1267.5</ele>
        <time>2024-09-25T08:52:14Z</time>
      </trkpt>
      <trkpt lat="42.36765" lon="2.17941">
        <ele>1267.5</ele>
        <time>2024-09-25T08:52:15Z</time>
      </trkpt>
      <trkpt lat="42.36765" lon="2.17941">
        <ele>1267.5</ele>
        <time>2024-09-25T08:52:16Z</time>
      </trkpt>
      <trkpt lat="42.36765" lon="2.17941">
        <ele>1267.5</ele>
        <time>2024-09-25T08:52:17Z</time>
      </trkpt>
      <trkpt lat="42.36765" lon="2.17941">
        <ele>1267.5</ele>
        <time>2024-09-25T08:52:18Z</time>
      </trkpt>
      <trkpt lat="42.36765" lon="2.17941">
        <ele>1267.5</ele>
        <time>2024-09-25T08:52:19Z</time>
      </trkpt>
      <trkpt lat="42.36765" lon="2.17941">
        <ele>1267.5</ele>
        <time>2024-09-25T08:52:20Z</time>
      </trkpt>
      <trkpt lat="42.36765" lon="2.17941">
        <ele>1267.5</ele>
        <time>2024-09-25T08:52:21Z</time>
      </trkpt>
      <trkpt lat="42.36765" lon="2.17941">
        <ele>1267.6</ele>
        <time>2024-09-25T08:52:22Z</time>
      </trkpt>
      <trkpt lat="42.36765" lon="2.17941">
        <ele>1267.6</ele>
        <time>2024-09-25T08:52:23Z</time>
      </trkpt>
      <trkpt lat="42.36765" lon="2.17941">
        <ele>1267.6</ele>
        <time>2024-09-25T08:52:24Z</time>
      </trkpt>
      <trkpt lat="42.36765" lon="2.17941">
        <ele>1267.6</ele>
        <time>2024-09-25T08:52:25Z</time>
      </trkpt>
      <trkpt lat="42.36765" lon="2.17941">
        <ele>1267.6</ele>
        <time>2024-09-25T08:52:26Z</time>
      </trkpt>
      <trkpt lat="42.36765" lon="2.17941">
        <ele>1267.6</ele>
        <time>2024-09-25T08:52:27Z</time>
      </trkpt>
      <trkpt lat="42.36765" lon="2.17941">
        <ele>1267.6</ele>
        <time>2024-09-25T08:52:28Z</time>
      </trkpt>
      <trkpt lat="42.36765" lon="2.17941">
        <ele>1267.6</ele>
        <time>2024-09-25T08:52:29Z</time>
      </trkpt>
      <trkpt lat="42.36765" lon="2.17941">
        <ele>1267.6</ele>
        <time>2024-09-25T08:52:30Z</time>
      </trkpt>
      <trkpt lat="42.36765" lon="2.17941">
        <ele>1267.6</ele>
        <time>2024-09-25T08:52:31Z</time>
      </trkpt>
      <trkpt lat="42.36765" lon="2.17941">
        <ele>1267.6</ele>
        <time>2024-09-25T08:52:32Z</time>
      </trkpt>
      <trkpt lat="42.36765" lon="2.17941">
        <ele>1267.6</ele>
        <time>2024-09-25T08:52:33Z</time>
      </trkpt>
      <trkpt lat="42.36765" lon="2.17941">
        <ele>1267.6</ele>
        <time>2024-09-25T08:52:34Z</time>
      </trkpt>
      <trkpt lat="42.36765" lon="2.17941">
        <ele>1267.6</ele>
        <time>2024-09-25T08:52:35Z</time>
      </trkpt>
      <trkpt lat="42.36765" lon="2.17941">
        <ele>1267.6</ele>
        <time>2024-09-25T08:52:36Z</time>
      </trkpt>
      <trkpt lat="42.36765" lon="2.17941">
        <ele>1267.6</ele>
        <time>2024-09-25T08:52:37Z</time>
      </trkpt>
      <trkpt lat="42.36765" lon="2.17941">
        <ele>1267.7</ele>
        <time>2024-09-25T08:52:38Z</time>
      </trkpt>
      <trkpt lat="42.36764" lon="2.17941">
        <ele>1267.7</ele>
        <time>2024-09-25T08:52:39Z</time>
      </trkpt>
      <trkpt lat="42.36764" lon="2.17941">
        <ele>1267.7</ele>
        <time>2024-09-25T08:52:40Z</time>
      </trkpt>
      <trkpt lat="42.36764" lon="2.17941">
        <ele>1267.7</ele>
        <time>2024-09-25T08:52:41Z</time>
      </trkpt>
      <trkpt lat="42.36764" lon="2.17941">
        <ele>1267.7</ele>
        <time>2024-09-25T08:52:42Z</time>
      </trkpt>
      <trkpt lat="42.36765" lon="2.17941">
        <ele>1267.7</ele>
        <time>2024-09-25T08:52:43Z</time>
      </trkpt>
      <trkpt lat="42.36765" lon="2.17941">
        <ele>1267.7</ele>
        <time>2024-09-25T08:52:44Z</time>
      </trkpt>
      <trkpt lat="42.36765" lon="2.17941">
        <ele>1267.8</ele>
        <time>2024-09-25T08:52:45Z</time>
      </trkpt>
      <trkpt lat="42.36765" lon="2.17941">
        <ele>1267.8</ele>
        <time>2024-09-25T08:52:46Z</time>
      </trkpt>
      <trkpt lat="42.36765" lon="2.17941">
        <ele>1267.8</ele>
        <time>2024-09-25T08:52:47Z</time>
      </trkpt>
      <trkpt lat="42.36765" lon="2.17941">
        <ele>1267.8</ele>
        <time>2024-09-25T08:52:48Z</time>
      </trkpt>
      <trkpt lat="42.36765" lon="2.17941">
        <ele>1267.8</ele>
        <time>2024-09-25T08:52:49Z</time>
      </trkpt>
      <trkpt lat="42.36765" lon="2.17941">
        <ele>1267.8</ele>
        <time>2024-09-25T08:52:50Z</time>
      </trkpt>
      <trkpt lat="42.36765" lon="2.17941">
        <ele>1267.8</ele>
        <time>2024-09-25T08:52:51Z</time>
      </trkpt>
      <trkpt lat="42.36764" lon="2.17941">
        <ele>1267.8</ele>
        <time>2024-09-25T08:52:52Z</time>
      </trkpt>
      <trkpt lat="42.36764" lon="2.17941">
        <ele>1267.8</ele>
        <time>2024-09-25T08:52:53Z</time>
      </trkpt>
      <trkpt lat="42.36764" lon="2.17941">
        <ele>1267.8</ele>
        <time>2024-09-25T08:52:54Z</time>
      </trkpt>
      <trkpt lat="42.36764" lon="2.17941">
        <ele>1267.8</ele>
        <time>2024-09-25T08:52:55Z</time>
      </trkpt>
      <trkpt lat="42.36764" lon="2.17941">
        <ele>1267.8</ele>
        <time>2024-09-25T08:52:56Z</time>
      </trkpt>
      <trkpt lat="42.36764" lon="2.17942">
        <ele>1267.8</ele>
        <time>2024-09-25T08:52:57Z</time>
      </trkpt>
      <trkpt lat="42.36764" lon="2.17942">
        <ele>1267.8</ele>
        <time>2024-09-25T08:52:58Z</time>
      </trkpt>
      <trkpt lat="42.36764" lon="2.17942">
        <ele>1267.8</ele>
        <time>2024-09-25T08:52:59Z</time>
      </trkpt>
      <trkpt lat="42.36764" lon="2.17941">
        <ele>1267.9</ele>
        <time>2024-09-25T08:53:00Z</time>
      </trkpt>
      <trkpt lat="42.36764" lon="2.17941">
        <ele>1267.9</ele>
        <time>2024-09-25T08:53:01Z</time>
      </trkpt>
      <trkpt lat="42.36764" lon="2.17941">
        <ele>1267.9</ele>
        <time>2024-09-25T08:53:02Z</time>
      </trkpt>
      <trkpt lat="42.36764" lon="2.17941">
        <ele>1267.9</ele>
        <time>2024-09-25T08:53:03Z</time>
      </trkpt>
      <trkpt lat="42.36764" lon="2.17941">
        <ele>1267.9</ele>
        <time>2024-09-25T08:53:04Z</time>
      </trkpt>
      <trkpt lat="42.36764" lon="2.17941">
        <ele>1267.9</ele>
        <time>2024-09-25T08:53:05Z</time>
      </trkpt>
      <trkpt lat="42.36764" lon="2.17941">
        <ele>1267.9</ele>
        <time>2024-09-25T08:53:06Z</time>
      </trkpt>
      <trkpt lat="42.36764" lon="2.17941">
        <ele>1267.9</ele>
        <time>2024-09-25T08:53:07Z</time>
      </trkpt>
      <trkpt lat="42.36764" lon="2.17941">
        <ele>1267.9</ele>
        <time>2024-09-25T08:53:09Z</time>
      </trkpt>
      <trkpt lat="42.36764" lon="2.17942">
        <ele>1268</ele>
        <time>2024-09-25T08:53:10Z</time>
      </trkpt>
      <trkpt lat="42.36764" lon="2.17942">
        <ele>1268</ele>
        <time>2024-09-25T08:53:11Z</time>
      </trkpt>
      <trkpt lat="42.36764" lon="2.17942">
        <ele>1268</ele>
        <time>2024-09-25T08:53:12Z</time>
      </trkpt>
      <trkpt lat="42.36764" lon="2.17942">
        <ele>1268</ele>
        <time>2024-09-25T08:53:13Z</time>
      </trkpt>
      <trkpt lat="42.36764" lon="2.17942">
        <ele>1268</ele>
        <time>2024-09-25T08:53:14Z</time>
      </trkpt>
      <trkpt lat="42.36764" lon="2.17942">
        <ele>1268</ele>
        <time>2024-09-25T08:53:15Z</time>
      </trkpt>
      <trkpt lat="42.36764" lon="2.17942">
        <ele>1268.1</ele>
        <time>2024-09-25T08:53:16Z</time>
      </trkpt>
      <trkpt lat="42.36765" lon="2.17942">
        <ele>1268.1</ele>
        <time>2024-09-25T08:53:17Z</time>
      </trkpt>
      <trkpt lat="42.36765" lon="2.17942">
        <ele>1268.2</ele>
        <time>2024-09-25T08:53:18Z</time>
      </trkpt>
      <trkpt lat="42.36766" lon="2.17942">
        <ele>1268.3</ele>
        <time>2024-09-25T08:53:19Z</time>
      </trkpt>
      <trkpt lat="42.36766" lon="2.17942">
        <ele>1268.3</ele>
        <time>2024-09-25T08:53:20Z</time>
      </trkpt>
      <trkpt lat="42.36765" lon="2.17942">
        <ele>1268.4</ele>
        <time>2024-09-25T08:53:21Z</time>
      </trkpt>
      <trkpt lat="42.36765" lon="2.17942">
        <ele>1268.5</ele>
        <time>2024-09-25T08:53:22Z</time>
      </trkpt>
      <trkpt lat="42.36765" lon="2.17942">
        <ele>1268.5</ele>
        <time>2024-09-25T08:53:23Z</time>
      </trkpt>
      <trkpt lat="42.36765" lon="2.17942">
        <ele>1268.5</ele>
        <time>2024-09-25T08:53:24Z</time>
      </trkpt>
      <trkpt lat="42.36765" lon="2.17942">
        <ele>1268.5</ele>
        <time>2024-09-25T08:53:25Z</time>
      </trkpt>
      <trkpt lat="42.36765" lon="2.17942">
        <ele>1268.5</ele>
        <time>2024-09-25T08:53:26Z</time>
      </trkpt>
      <trkpt lat="42.36766" lon="2.17942">
        <ele>1268.6</ele>
        <time>2024-09-25T08:53:27Z</time>
      </trkpt>
      <trkpt lat="42.36766" lon="2.17942">
        <ele>1268.6</ele>
        <time>2024-09-25T08:53:28Z</time>
      </trkpt>
      <trkpt lat="42.36766" lon="2.17942">
        <ele>1268.6</ele>
        <time>2024-09-25T08:53:29Z</time>
      </trkpt>
      <trkpt lat="42.36766" lon="2.17942">
        <ele>1268.6</ele>
        <time>2024-09-25T08:53:30Z</time>
      </trkpt>
      <trkpt lat="42.36766" lon="2.17943">
        <ele>1268.6</ele>
        <time>2024-09-25T08:53:31Z</time>
      </trkpt>
      <trkpt lat="42.36766" lon="2.17943">
        <ele>1268.6</ele>
        <time>2024-09-25T08:53:32Z</time>
      </trkpt>
      <trkpt lat="42.36766" lon="2.17943">
        <ele>1268.6</ele>
        <time>2024-09-25T08:53:33Z</time>
      </trkpt>
      <trkpt lat="42.36766" lon="2.17943">
        <ele>1268.6</ele>
        <time>2024-09-25T08:53:34Z</time>
      </trkpt>
      <trkpt lat="42.36766" lon="2.17943">
        <ele>1268.6</ele>
        <time>2024-09-25T08:53:35Z</time>
      </trkpt>
      <trkpt lat="42.36766" lon="2.17943">
        <ele>1268.7</ele>
        <time>2024-09-25T08:53:36Z</time>
      </trkpt>
      <trkpt lat="42.36766" lon="2.17943">
        <ele>1268.7</ele>
        <time>2024-09-25T08:53:37Z</time>
      </trkpt>
      <trkpt lat="42.36766" lon="2.17943">
        <ele>1268.7</ele>
        <time>2024-09-25T08:53:38Z</time>
      </trkpt>
      <trkpt lat="42.36766" lon="2.17943">
        <ele>1268.7</ele>
        <time>2024-09-25T08:53:39Z</time>
      </trkpt>
      <trkpt lat="42.36766" lon="2.17943">
        <ele>1268.7</ele>
        <time>2024-09-25T08:53:40Z</time>
      </trkpt>
      <trkpt lat="42.36766" lon="2.17943">
        <ele>1268.7</ele>
        <time>2024-09-25T08:53:41Z</time>
      </trkpt>
      <trkpt lat="42.36766" lon="2.17943">
        <ele>1268.7</ele>
        <time>2024-09-25T08:53:42Z</time>
      </trkpt>
      <trkpt lat="42.36766" lon="2.17943">
        <ele>1268.7</ele>
        <time>2024-09-25T08:53:43Z</time>
      </trkpt>
      <trkpt lat="42.36766" lon="2.17943">
        <ele>1268.7</ele>
        <time>2024-09-25T08:53:44Z</time>
      </trkpt>
      <trkpt lat="42.36766" lon="2.17943">
        <ele>1268.7</ele>
        <time>2024-09-25T08:53:45Z</time>
      </trkpt>
      <trkpt lat="42.36766" lon="2.17943">
        <ele>1268.7</ele>
        <time>2024-09-25T08:53:46Z</time>
      </trkpt>
      <trkpt lat="42.36766" lon="2.17943">
        <ele>1268.7</ele>
        <time>2024-09-25T08:53:47Z</time>
      </trkpt>
      <trkpt lat="42.36766" lon="2.17943">
        <ele>1268.7</ele>
        <time>2024-09-25T08:53:48Z</time>
      </trkpt>
      <trkpt lat="42.36766" lon="2.17943">
        <ele>1268.7</ele>
        <time>2024-09-25T08:53:49Z</time>
      </trkpt>
      <trkpt lat="42.36766" lon="2.17943">
        <ele>1268.7</ele>
        <time>2024-09-25T08:53:50Z</time>
      </trkpt>
      <trkpt lat="42.36766" lon="2.17943">
        <ele>1268.7</ele>
        <time>2024-09-25T08:53:51Z</time>
      </trkpt>
      <trkpt lat="42.36766" lon="2.17943">
        <ele>1268.7</ele>
        <time>2024-09-25T08:53:52Z</time>
      </trkpt>
      <trkpt lat="42.36766" lon="2.17943">
        <ele>1268.7</ele>
        <time>2024-09-25T08:53:53Z</time>
      </trkpt>
      <trkpt lat="42.36766" lon="2.17943">
        <ele>1268.7</ele>
        <time>2024-09-25T08:53:54Z</time>
      </trkpt>
      <trkpt lat="42.36766" lon="2.17943">
        <ele>1268.7</ele>
        <time>2024-09-25T08:53:55Z</time>
      </trkpt>
      <trkpt lat="42.36766" lon="2.17943">
        <ele>1268.7</ele>
        <time>2024-09-25T08:53:56Z</time>
      </trkpt>
      <trkpt lat="42.36766" lon="2.17943">
        <ele>1268.7</ele>
        <time>2024-09-25T08:53:57Z</time>
      </trkpt>
      <trkpt lat="42.36766" lon="2.17943">
        <ele>1268.7</ele>
        <time>2024-09-25T08:53:58Z</time>
      </trkpt>
      <trkpt lat="42.36766" lon="2.17943">
        <ele>1268.7</ele>
        <time>2024-09-25T08:53:59Z</time>
      </trkpt>
      <trkpt lat="42.36766" lon="2.17943">
        <ele>1268.7</ele>
        <time>2024-09-25T08:54:00Z</time>
      </trkpt>
      <trkpt lat="42.36766" lon="2.17943">
        <ele>1268.7</ele>
        <time>2024-09-25T08:54:01Z</time>
      </trkpt>
      <trkpt lat="42.36766" lon="2.17943">
        <ele>1268.7</ele>
        <time>2024-09-25T08:54:02Z</time>
      </trkpt>
      <trkpt lat="42.36766" lon="2.17943">
        <ele>1268.7</ele>
        <time>2024-09-25T08:54:03Z</time>
      </trkpt>
      <trkpt lat="42.36766" lon="2.17943">
        <ele>1268.7</ele>
        <time>2024-09-25T08:54:04Z</time>
      </trkpt>
      <trkpt lat="42.36766" lon="2.17943">
        <ele>1268.7</ele>
        <time>2024-09-25T08:54:05Z</time>
      </trkpt>
      <trkpt lat="42.36766" lon="2.17943">
        <ele>1268.7</ele>
        <time>2024-09-25T08:54:06Z</time>
      </trkpt>
      <trkpt lat="42.36766" lon="2.17943">
        <ele>1268.7</ele>
        <time>2024-09-25T08:54:07Z</time>
      </trkpt>
      <trkpt lat="42.36766" lon="2.17943">
        <ele>1268.7</ele>
        <time>2024-09-25T08:54:08Z</time>
      </trkpt>
      <trkpt lat="42.36766" lon="2.17943">
        <ele>1268.7</ele>
        <time>2024-09-25T08:54:09Z</time>
      </trkpt>
      <trkpt lat="42.36766" lon="2.17943">
        <ele>1268.7</ele>
        <time>2024-09-25T08:54:10Z</time>
      </trkpt>
      <trkpt lat="42.36766" lon="2.17943">
        <ele>1268.7</ele>
        <time>2024-09-25T08:54:11Z</time>
      </trkpt>
      <trkpt lat="42.36766" lon="2.17943">
        <ele>1268.7</ele>
        <time>2024-09-25T08:54:12Z</time>
      </trkpt>
      <trkpt lat="42.36766" lon="2.17943">
        <ele>1268.7</ele>
        <time>2024-09-25T08:54:13Z</time>
      </trkpt>
      <trkpt lat="42.36766" lon="2.17943">
        <ele>1268.7</ele>
        <time>2024-09-25T08:54:14Z</time>
      </trkpt>
      <trkpt lat="42.36766" lon="2.17943">
        <ele>1268.7</ele>
        <time>2024-09-25T08:54:15Z</time>
      </trkpt>
      <trkpt lat="42.36766" lon="2.17943">
        <ele>1268.7</ele>
        <time>2024-09-25T08:54:16Z</time>
      </trkpt>
      <trkpt lat="42.36766" lon="2.17943">
        <ele>1268.7</ele>
        <time>2024-09-25T08:54:17Z</time>
      </trkpt>
      <trkpt lat="42.36766" lon="2.17943">
        <ele>1268.7</ele>
        <time>2024-09-25T08:54:18Z</time>
      </trkpt>
      <trkpt lat="42.36766" lon="2.17943">
        <ele>1268.7</ele>
        <time>2024-09-25T08:54:19Z</time>
      </trkpt>
      <trkpt lat="42.36766" lon="2.17943">
        <ele>1268.7</ele>
        <time>2024-09-25T08:54:20Z</time>
      </trkpt>
      <trkpt lat="42.36766" lon="2.17943">
        <ele>1268.7</ele>
        <time>2024-09-25T08:54:21Z</time>
      </trkpt>
      <trkpt lat="42.36766" lon="2.17943">
        <ele>1268.7</ele>
        <time>2024-09-25T08:54:22Z</time>
      </trkpt>
      <trkpt lat="42.36766" lon="2.17943">
        <ele>1268.7</ele>
        <time>2024-09-25T08:54:23Z</time>
      </trkpt>
      <trkpt lat="42.36766" lon="2.17943">
        <ele>1268.7</ele>
        <time>2024-09-25T08:54:24Z</time>
      </trkpt>
      <trkpt lat="42.36766" lon="2.17943">
        <ele>1268.7</ele>
        <time>2024-09-25T08:54:25Z</time>
      </trkpt>
      <trkpt lat="42.36766" lon="2.17943">
        <ele>1268.7</ele>
        <time>2024-09-25T08:54:26Z</time>
      </trkpt>
      <trkpt lat="42.36766" lon="2.17943">
        <ele>1268.7</ele>
        <time>2024-09-25T08:54:27Z</time>
      </trkpt>
      <trkpt lat="42.36766" lon="2.17943">
        <ele>1268.7</ele>
        <time>2024-09-25T08:54:28Z</time>
      </trkpt>
      <trkpt lat="42.36766" lon="2.17943">
        <ele>1268.7</ele>
        <time>2024-09-25T08:54:29Z</time>
      </trkpt>
      <trkpt lat="42.36766" lon="2.17943">
        <ele>1268.7</ele>
        <time>2024-09-25T08:54:30Z</time>
      </trkpt>
      <trkpt lat="42.36766" lon="2.17943">
        <ele>1268.7</ele>
        <time>2024-09-25T08:54:31Z</time>
      </trkpt>
      <trkpt lat="42.36766" lon="2.17943">
        <ele>1268.7</ele>
        <time>2024-09-25T08:54:32Z</time>
      </trkpt>
      <trkpt lat="42.36766" lon="2.17943">
        <ele>1268.7</ele>
        <time>2024-09-25T08:54:33Z</time>
      </trkpt>
      <trkpt lat="42.36766" lon="2.17943">
        <ele>1268.7</ele>
        <time>2024-09-25T08:54:34Z</time>
      </trkpt>
      <trkpt lat="42.36766" lon="2.17943">
        <ele>1268.7</ele>
        <time>2024-09-25T08:54:35Z</time>
      </trkpt>
      <trkpt lat="42.36766" lon="2.17943">
        <ele>1268.7</ele>
        <time>2024-09-25T08:54:36Z</time>
      </trkpt>
      <trkpt lat="42.36766" lon="2.17943">
        <ele>1268.7</ele>
        <time>2024-09-25T08:54:37Z</time>
      </trkpt>
      <trkpt lat="42.36766" lon="2.17943">
        <ele>1268.7</ele>
        <time>2024-09-25T08:54:38Z</time>
      </trkpt>
      <trkpt lat="42.36766" lon="2.17943">
        <ele>1268.7</ele>
        <time>2024-09-25T08:54:39Z</time>
      </trkpt>
      <trkpt lat="42.36766" lon="2.17943">
        <ele>1268.7</ele>
        <time>2024-09-25T08:54:40Z</time>
      </trkpt>
      <trkpt lat="42.36766" lon="2.17943">
        <ele>1268.7</ele>
        <time>2024-09-25T08:54:41Z</time>
      </trkpt>
      <trkpt lat="42.36766" lon="2.17943">
        <ele>1268.7</ele>
        <time>2024-09-25T08:54:42Z</time>
      </trkpt>
      <trkpt lat="42.36766" lon="2.17943">
        <ele>1268.7</ele>
        <time>2024-09-25T08:54:43Z</time>
      </trkpt>
      <trkpt lat="42.36766" lon="2.17943">
        <ele>1268.7</ele>
        <time>2024-09-25T08:54:44Z</time>
      </trkpt>
      <trkpt lat="42.36766" lon="2.17943">
        <ele>1268.7</ele>
        <time>2024-09-25T08:54:45Z</time>
      </trkpt>
      <trkpt lat="42.36766" lon="2.17943">
        <ele>1268.7</ele>
        <time>2024-09-25T08:54:46Z</time>
      </trkpt>
      <trkpt lat="42.36766" lon="2.17943">
        <ele>1268.7</ele>
        <time>2024-09-25T08:54:47Z</time>
      </trkpt>
      <trkpt lat="42.36766" lon="2.17943">
        <ele>1268.7</ele>
        <time>2024-09-25T08:54:48Z</time>
      </trkpt>
      <trkpt lat="42.36766" lon="2.17943">
        <ele>1268.7</ele>
        <time>2024-09-25T08:54:49Z</time>
      </trkpt>
      <trkpt lat="42.36766" lon="2.17943">
        <ele>1268.7</ele>
        <time>2024-09-25T08:54:50Z</time>
      </trkpt>
      <trkpt lat="42.36766" lon="2.17943">
        <ele>1268.7</ele>
        <time>2024-09-25T08:54:51Z</time>
      </trkpt>
      <trkpt lat="42.36766" lon="2.17943">
        <ele>1268.7</ele>
        <time>2024-09-25T08:54:52Z</time>
      </trkpt>
      <trkpt lat="42.36766" lon="2.17943">
        <ele>1268.7</ele>
        <time>2024-09-25T08:54:53Z</time>
      </trkpt>
      <trkpt lat="42.36766" lon="2.17943">
        <ele>1268.7</ele>
        <time>2024-09-25T08:54:54Z</time>
      </trkpt>
      <trkpt lat="42.36766" lon="2.17943">
        <ele>1268.7</ele>
        <time>2024-09-25T08:54:55Z</time>
      </trkpt>
      <trkpt lat="42.36766" lon="2.17943">
        <ele>1268.7</ele>
        <time>2024-09-25T08:54:56Z</time>
      </trkpt>
      <trkpt lat="42.36766" lon="2.17943">
        <ele>1268.7</ele>
        <time>2024-09-25T08:54:57Z</time>
      </trkpt>
      <trkpt lat="42.36766" lon="2.17943">
        <ele>1268.7</ele>
        <time>2024-09-25T08:54:58Z</time>
      </trkpt>
      <trkpt lat="42.36766" lon="2.17943">
        <ele>1268.8</ele>
        <time>2024-09-25T08:54:59Z</time>
      </trkpt>
      <trkpt lat="42.36766" lon="2.17943">
        <ele>1268.8</ele>
        <time>2024-09-25T08:55:00Z</time>
      </trkpt>
      <trkpt lat="42.36766" lon="2.17943">
        <ele>1268.8</ele>
        <time>2024-09-25T08:55:01Z</time>
      </trkpt>
      <trkpt lat="42.36766" lon="2.17943">
        <ele>1268.8</ele>
        <time>2024-09-25T08:55:02Z</time>
      </trkpt>
      <trkpt lat="42.36766" lon="2.17943">
        <ele>1268.8</ele>
        <time>2024-09-25T08:55:03Z</time>
      </trkpt>
      <trkpt lat="42.36766" lon="2.17943">
        <ele>1268.8</ele>
        <time>2024-09-25T08:55:04Z</time>
      </trkpt>
      <trkpt lat="42.36766" lon="2.17943">
        <ele>1268.8</ele>
        <time>2024-09-25T08:55:05Z</time>
      </trkpt>
      <trkpt lat="42.36766" lon="2.17943">
        <ele>1268.8</ele>
        <time>2024-09-25T08:55:06Z</time>
      </trkpt>
      <trkpt lat="42.36766" lon="2.17943">
        <ele>1268.9</ele>
        <time>2024-09-25T08:55:07Z</time>
      </trkpt>
      <trkpt lat="42.36766" lon="2.17943">
        <ele>1268.9</ele>
        <time>2024-09-25T08:55:08Z</time>
      </trkpt>
      <trkpt lat="42.36766" lon="2.17944">
        <ele>1269</ele>
        <time>2024-09-25T08:55:09Z</time>
      </trkpt>
      <trkpt lat="42.36767" lon="2.17945">
        <ele>1269.2</ele>
        <time>2024-09-25T08:55:10Z</time>
      </trkpt>
      <trkpt lat="42.36767" lon="2.17945">
        <ele>1269.3</ele>
        <time>2024-09-25T08:55:11Z</time>
      </trkpt>
      <trkpt lat="42.36767" lon="2.17946">
        <ele>1269.4</ele>
        <time>2024-09-25T08:55:12Z</time>
      </trkpt>
      <trkpt lat="42.36767" lon="2.17946">
        <ele>1269.5</ele>
        <time>2024-09-25T08:55:13Z</time>
      </trkpt>
      <trkpt lat="42.36767" lon="2.17947">
        <ele>1269.6</ele>
        <time>2024-09-25T08:55:14Z</time>
      </trkpt>
      <trkpt lat="42.36767" lon="2.17947">
        <ele>1269.7</ele>
        <time>2024-09-25T08:55:15Z</time>
      </trkpt>
      <trkpt lat="42.36769" lon="2.17947">
        <ele>1269.9</ele>
        <time>2024-09-25T08:55:16Z</time>
      </trkpt>
      <trkpt lat="42.3677" lon="2.17946">
        <ele>1270.2</ele>
        <time>2024-09-25T08:55:17Z</time>
      </trkpt>
      <trkpt lat="42.36772" lon="2.17946">
        <ele>1270.5</ele>
        <time>2024-09-25T08:55:18Z</time>
      </trkpt>
      <trkpt lat="42.36773" lon="2.17947">
        <ele>1270.7</ele>
        <time>2024-09-25T08:55:19Z</time>
      </trkpt>
      <trkpt lat="42.36774" lon="2.17947">
        <ele>1271.1</ele>
        <time>2024-09-25T08:55:20Z</time>
      </trkpt>
      <trkpt lat="42.36775" lon="2.17947">
        <ele>1271.2</ele>
        <time>2024-09-25T08:55:21Z</time>
      </trkpt>
      <trkpt lat="42.36776" lon="2.17947">
        <ele>1271.3</ele>
        <time>2024-09-25T08:55:22Z</time>
      </trkpt>
      <trkpt lat="42.36776" lon="2.17947">
        <ele>1271.5</ele>
        <time>2024-09-25T08:55:23Z</time>
      </trkpt>
      <trkpt lat="42.36776" lon="2.17946">
        <ele>1271.5</ele>
        <time>2024-09-25T08:55:24Z</time>
      </trkpt>
      <trkpt lat="42.36777" lon="2.17947">
        <ele>1271.6</ele>
        <time>2024-09-25T08:55:25Z</time>
      </trkpt>
      <trkpt lat="42.36777" lon="2.17947">
        <ele>1271.7</ele>
        <time>2024-09-25T08:55:26Z</time>
      </trkpt>
      <trkpt lat="42.36778" lon="2.17947">
        <ele>1271.8</ele>
        <time>2024-09-25T08:55:27Z</time>
      </trkpt>
      <trkpt lat="42.36778" lon="2.17947">
        <ele>1271.9</ele>
        <time>2024-09-25T08:55:28Z</time>
      </trkpt>
      <trkpt lat="42.36779" lon="2.17948">
        <ele>1272</ele>
        <time>2024-09-25T08:55:29Z</time>
      </trkpt>
      <trkpt lat="42.36779" lon="2.17948">
        <ele>1272.2</ele>
        <time>2024-09-25T08:55:30Z</time>
      </trkpt>
      <trkpt lat="42.3678" lon="2.17948">
        <ele>1272.2</ele>
        <time>2024-09-25T08:55:31Z</time>
      </trkpt>
      <trkpt lat="42.3678" lon="2.17948">
        <ele>1272.3</ele>
        <time>2024-09-25T08:55:32Z</time>
      </trkpt>
      <trkpt lat="42.3678" lon="2.17949">
        <ele>1272.4</ele>
        <time>2024-09-25T08:55:33Z</time>
      </trkpt>
      <trkpt lat="42.36781" lon="2.17949">
        <ele>1272.5</ele>
        <time>2024-09-25T08:55:34Z</time>
      </trkpt>
      <trkpt lat="42.36781" lon="2.17949">
        <ele>1272.6</ele>
        <time>2024-09-25T08:55:35Z</time>
      </trkpt>
      <trkpt lat="42.36782" lon="2.17949">
        <ele>1272.7</ele>
        <time>2024-09-25T08:55:36Z</time>
      </trkpt>
      <trkpt lat="42.36783" lon="2.17949">
        <ele>1272.9</ele>
        <time>2024-09-25T08:55:37Z</time>
      </trkpt>
      <trkpt lat="42.36783" lon="2.17949">
        <ele>1273</ele>
        <time>2024-09-25T08:55:38Z</time>
      </trkpt>
      <trkpt lat="42.36784" lon="2.1795">
        <ele>1273.1</ele>
        <time>2024-09-25T08:55:39Z</time>
      </trkpt>
      <trkpt lat="42.36784" lon="2.1795">
        <ele>1273.3</ele>
        <time>2024-09-25T08:55:40Z</time>
      </trkpt>
      <trkpt lat="42.36785" lon="2.1795">
        <ele>1273.4</ele>
        <time>2024-09-25T08:55:41Z</time>
      </trkpt>
      <trkpt lat="42.36785" lon="2.1795">
        <ele>1273.5</ele>
        <time>2024-09-25T08:55:42Z</time>
      </trkpt>
      <trkpt lat="42.36786" lon="2.17951">
        <ele>1273.6</ele>
        <time>2024-09-25T08:55:43Z</time>
      </trkpt>
      <trkpt lat="42.36786" lon="2.17951">
        <ele>1273.7</ele>
        <time>2024-09-25T08:55:44Z</time>
      </trkpt>
      <trkpt lat="42.36787" lon="2.17951">
        <ele>1273.8</ele>
        <time>2024-09-25T08:55:45Z</time>
      </trkpt>
      <trkpt lat="42.36787" lon="2.17952">
        <ele>1273.8</ele>
        <time>2024-09-25T08:55:46Z</time>
      </trkpt>
      <trkpt lat="42.36787" lon="2.17952">
        <ele>1274</ele>
        <time>2024-09-25T08:55:47Z</time>
      </trkpt>
      <trkpt lat="42.36788" lon="2.17953">
        <ele>1274.2</ele>
        <time>2024-09-25T08:55:48Z</time>
      </trkpt>
      <trkpt lat="42.36788" lon="2.17954">
        <ele>1274.3</ele>
        <time>2024-09-25T08:55:49Z</time>
      </trkpt>
      <trkpt lat="42.36789" lon="2.17954">
        <ele>1274.4</ele>
        <time>2024-09-25T08:55:50Z</time>
      </trkpt>
      <trkpt lat="42.36789" lon="2.17955">
        <ele>1274.6</ele>
        <time>2024-09-25T08:55:51Z</time>
      </trkpt>
      <trkpt lat="42.36791" lon="2.17956">
        <ele>1274.9</ele>
        <time>2024-09-25T08:55:52Z</time>
      </trkpt>
      <trkpt lat="42.36791" lon="2.17956">
        <ele>1275.1</ele>
        <time>2024-09-25T08:55:53Z</time>
      </trkpt>
      <trkpt lat="42.36792" lon="2.17957">
        <ele>1275.1</ele>
        <time>2024-09-25T08:55:54Z</time>
      </trkpt>
      <trkpt lat="42.36792" lon="2.17957">
        <ele>1275.3</ele>
        <time>2024-09-25T08:55:55Z</time>
      </trkpt>
      <trkpt lat="42.36793" lon="2.17958">
        <ele>1275.5</ele>
        <time>2024-09-25T08:55:56Z</time>
      </trkpt>
      <trkpt lat="42.36794" lon="2.17959">
        <ele>1275.7</ele>
        <time>2024-09-25T08:55:57Z</time>
      </trkpt>
      <trkpt lat="42.36794" lon="2.1796">
        <ele>1275.9</ele>
        <time>2024-09-25T08:55:58Z</time>
      </trkpt>
      <trkpt lat="42.36794" lon="2.17961">
        <ele>1276</ele>
        <time>2024-09-25T08:55:59Z</time>
      </trkpt>
      <trkpt lat="42.36794" lon="2.17962">
        <ele>1276.1</ele>
        <time>2024-09-25T08:56:00Z</time>
      </trkpt>
      <trkpt lat="42.36794" lon="2.17962">
        <ele>1276.2</ele>
        <time>2024-09-25T08:56:01Z</time>
      </trkpt>
      <trkpt lat="42.36794" lon="2.17963">
        <ele>1276.3</ele>
        <time>2024-09-25T08:56:02Z</time>
      </trkpt>
      <trkpt lat="42.36795" lon="2.17964">
        <ele>1276.5</ele>
        <time>2024-09-25T08:56:03Z</time>
      </trkpt>
      <trkpt lat="42.36796" lon="2.17965">
        <ele>1276.7</ele>
        <time>2024-09-25T08:56:04Z</time>
      </trkpt>
      <trkpt lat="42.36796" lon="2.17965">
        <ele>1276.8</ele>
        <time>2024-09-25T08:56:05Z</time>
      </trkpt>
      <trkpt lat="42.36796" lon="2.17966">
        <ele>1277</ele>
        <time>2024-09-25T08:56:06Z</time>
      </trkpt>
      <trkpt lat="42.36797" lon="2.17967">
        <ele>1277.1</ele>
        <time>2024-09-25T08:56:07Z</time>
      </trkpt>
      <trkpt lat="42.36797" lon="2.17968">
        <ele>1277.3</ele>
        <time>2024-09-25T08:56:08Z</time>
      </trkpt>
      <trkpt lat="42.36798" lon="2.17968">
        <ele>1277.4</ele>
        <time>2024-09-25T08:56:09Z</time>
      </trkpt>
      <trkpt lat="42.36798" lon="2.17969">
        <ele>1277.5</ele>
        <time>2024-09-25T08:56:10Z</time>
      </trkpt>
      <trkpt lat="42.36799" lon="2.17969">
        <ele>1277.7</ele>
        <time>2024-09-25T08:56:11Z</time>
      </trkpt>
      <trkpt lat="42.36799" lon="2.1797">
        <ele>1277.8</ele>
        <time>2024-09-25T08:56:12Z</time>
      </trkpt>
      <trkpt lat="42.36799" lon="2.1797">
        <ele>1277.9</ele>
        <time>2024-09-25T08:56:13Z</time>
      </trkpt>
      <trkpt lat="42.368" lon="2.1797">
        <ele>1278</ele>
        <time>2024-09-25T08:56:14Z</time>
      </trkpt>
      <trkpt lat="42.368" lon="2.1797">
        <ele>1278.1</ele>
        <time>2024-09-25T08:56:15Z</time>
      </trkpt>
      <trkpt lat="42.36801" lon="2.1797">
        <ele>1278.3</ele>
        <time>2024-09-25T08:56:16Z</time>
      </trkpt>
      <trkpt lat="42.36803" lon="2.1797">
        <ele>1278.6</ele>
        <time>2024-09-25T08:56:17Z</time>
      </trkpt>
      <trkpt lat="42.36804" lon="2.1797">
        <ele>1278.7</ele>
        <time>2024-09-25T08:56:18Z</time>
      </trkpt>
      <trkpt lat="42.36805" lon="2.17969">
        <ele>1279</ele>
        <time>2024-09-25T08:56:19Z</time>
      </trkpt>
      <trkpt lat="42.36805" lon="2.17969">
        <ele>1279.1</ele>
        <time>2024-09-25T08:56:20Z</time>
      </trkpt>
      <trkpt lat="42.36806" lon="2.17968">
        <ele>1279.3</ele>
        <time>2024-09-25T08:56:21Z</time>
      </trkpt>
      <trkpt lat="42.36807" lon="2.17968">
        <ele>1279.4</ele>
        <time>2024-09-25T08:56:22Z</time>
      </trkpt>
      <trkpt lat="42.36807" lon="2.17969">
        <ele>1279.5</ele>
        <time>2024-09-25T08:56:23Z</time>
      </trkpt>
      <trkpt lat="42.36807" lon="2.17969">
        <ele>1279.6</ele>
        <time>2024-09-25T08:56:24Z</time>
      </trkpt>
      <trkpt lat="42.36809" lon="2.17969">
        <ele>1279.8</ele>
        <time>2024-09-25T08:56:25Z</time>
      </trkpt>
      <trkpt lat="42.36809" lon="2.17969">
        <ele>1279.9</ele>
        <time>2024-09-25T08:56:26Z</time>
      </trkpt>
      <trkpt lat="42.36811" lon="2.1797">
        <ele>1280.2</ele>
        <time>2024-09-25T08:56:27Z</time>
      </trkpt>
      <trkpt lat="42.36812" lon="2.1797">
        <ele>1280.4</ele>
        <time>2024-09-25T08:56:28Z</time>
      </trkpt>
      <trkpt lat="42.36812" lon="2.1797">
        <ele>1280.5</ele>
        <time>2024-09-25T08:56:29Z</time>
      </trkpt>
      <trkpt lat="42.36813" lon="2.1797">
        <ele>1280.7</ele>
        <time>2024-09-25T08:56:30Z</time>
      </trkpt>
      <trkpt lat="42.36814" lon="2.1797">
        <ele>1280.8</ele>
        <time>2024-09-25T08:56:31Z</time>
      </trkpt>
      <trkpt lat="42.36815" lon="2.17971">
        <ele>1281</ele>
        <time>2024-09-25T08:56:32Z</time>
      </trkpt>
      <trkpt lat="42.36816" lon="2.17972">
        <ele>1281.3</ele>
        <time>2024-09-25T08:56:33Z</time>
      </trkpt>
      <trkpt lat="42.36817" lon="2.17972">
        <ele>1281.5</ele>
        <time>2024-09-25T08:56:34Z</time>
      </trkpt>
      <trkpt lat="42.36818" lon="2.17972">
        <ele>1281.6</ele>
        <time>2024-09-25T08:56:35Z</time>
      </trkpt>
      <trkpt lat="42.36819" lon="2.17972">
        <ele>1281.8</ele>
        <time>2024-09-25T08:56:36Z</time>
      </trkpt>
      <trkpt lat="42.36818" lon="2.17972">
        <ele>1282</ele>
        <time>2024-09-25T08:56:37Z</time>
      </trkpt>
      <trkpt lat="42.36819" lon="2.17972">
        <ele>1282.2</ele>
        <time>2024-09-25T08:56:38Z</time>
      </trkpt>
      <trkpt lat="42.36821" lon="2.17972">
        <ele>1282.6</ele>
        <time>2024-09-25T08:56:39Z</time>
      </trkpt>
      <trkpt lat="42.3682" lon="2.17972">
        <ele>1282.8</ele>
        <time>2024-09-25T08:56:40Z</time>
      </trkpt>
      <trkpt lat="42.36821" lon="2.17972">
        <ele>1282.9</ele>
        <time>2024-09-25T08:56:41Z</time>
      </trkpt>
      <trkpt lat="42.36822" lon="2.17971">
        <ele>1283.1</ele>
        <time>2024-09-25T08:56:42Z</time>
      </trkpt>
      <trkpt lat="42.36824" lon="2.17971">
        <ele>1283.3</ele>
        <time>2024-09-25T08:56:43Z</time>
      </trkpt>
      <trkpt lat="42.36824" lon="2.17971">
        <ele>1283.4</ele>
        <time>2024-09-25T08:56:44Z</time>
      </trkpt>
      <trkpt lat="42.36825" lon="2.17971">
        <ele>1283.5</ele>
        <time>2024-09-25T08:56:45Z</time>
      </trkpt>
      <trkpt lat="42.36825" lon="2.17971">
        <ele>1283.6</ele>
        <time>2024-09-25T08:56:46Z</time>
      </trkpt>
      <trkpt lat="42.36826" lon="2.17971">
        <ele>1283.7</ele>
        <time>2024-09-25T08:56:47Z</time>
      </trkpt>
      <trkpt lat="42.36826" lon="2.17972">
        <ele>1283.8</ele>
        <time>2024-09-25T08:56:48Z</time>
      </trkpt>
      <trkpt lat="42.36827" lon="2.17972">
        <ele>1283.9</ele>
        <time>2024-09-25T08:56:49Z</time>
      </trkpt>
      <trkpt lat="42.36828" lon="2.17972">
        <ele>1284</ele>
        <time>2024-09-25T08:56:50Z</time>
      </trkpt>
      <trkpt lat="42.36828" lon="2.17972">
        <ele>1284.1</ele>
        <time>2024-09-25T08:56:51Z</time>
      </trkpt>
      <trkpt lat="42.36829" lon="2.17972">
        <ele>1284.2</ele>
        <time>2024-09-25T08:56:52Z</time>
      </trkpt>
      <trkpt lat="42.3683" lon="2.17973">
        <ele>1284.4</ele>
        <time>2024-09-25T08:56:53Z</time>
      </trkpt>
      <trkpt lat="42.3683" lon="2.17973">
        <ele>1284.4</ele>
        <time>2024-09-25T08:56:54Z</time>
      </trkpt>
      <trkpt lat="42.3683" lon="2.17973">
        <ele>1284.5</ele>
        <time>2024-09-25T08:56:55Z</time>
      </trkpt>
      <trkpt lat="42.3683" lon="2.17973">
        <ele>1284.5</ele>
        <time>2024-09-25T08:56:56Z</time>
      </trkpt>
      <trkpt lat="42.36831" lon="2.17974">
        <ele>1284.7</ele>
        <time>2024-09-25T08:56:57Z</time>
      </trkpt>
      <trkpt lat="42.36832" lon="2.17974">
        <ele>1284.8</ele>
        <time>2024-09-25T08:56:58Z</time>
      </trkpt>
      <trkpt lat="42.36832" lon="2.17974">
        <ele>1284.9</ele>
        <time>2024-09-25T08:56:59Z</time>
      </trkpt>
      <trkpt lat="42.36833" lon="2.17975">
        <ele>1285</ele>
        <time>2024-09-25T08:57:00Z</time>
      </trkpt>
      <trkpt lat="42.36833" lon="2.17975">
        <ele>1285</ele>
        <time>2024-09-25T08:57:01Z</time>
      </trkpt>
      <trkpt lat="42.36834" lon="2.17976">
        <ele>1285.1</ele>
        <time>2024-09-25T08:57:02Z</time>
      </trkpt>
      <trkpt lat="42.36834" lon="2.17977">
        <ele>1285.2</ele>
        <time>2024-09-25T08:57:03Z</time>
      </trkpt>
      <trkpt lat="42.36834" lon="2.17977">
        <ele>1285.3</ele>
        <time>2024-09-25T08:57:04Z</time>
      </trkpt>
      <trkpt lat="42.36835" lon="2.17978">
        <ele>1285.4</ele>
        <time>2024-09-25T08:57:05Z</time>
      </trkpt>
      <trkpt lat="42.36835" lon="2.17978">
        <ele>1285.5</ele>
        <time>2024-09-25T08:57:06Z</time>
      </trkpt>
      <trkpt lat="42.36835" lon="2.17979">
        <ele>1285.6</ele>
        <time>2024-09-25T08:57:07Z</time>
      </trkpt>
      <trkpt lat="42.36836" lon="2.17979">
        <ele>1285.7</ele>
        <time>2024-09-25T08:57:08Z</time>
      </trkpt>
      <trkpt lat="42.36837" lon="2.17979">
        <ele>1285.8</ele>
        <time>2024-09-25T08:57:09Z</time>
      </trkpt>
      <trkpt lat="42.36837" lon="2.1798">
        <ele>1285.8</ele>
        <time>2024-09-25T08:57:10Z</time>
      </trkpt>
      <trkpt lat="42.36837" lon="2.1798">
        <ele>1285.9</ele>
        <time>2024-09-25T08:57:11Z</time>
      </trkpt>
      <trkpt lat="42.36838" lon="2.1798">
        <ele>1285.9</ele>
        <time>2024-09-25T08:57:12Z</time>
      </trkpt>
      <trkpt lat="42.36838" lon="2.1798">
        <ele>1285.9</ele>
        <time>2024-09-25T08:57:13Z</time>
      </trkpt>
      <trkpt lat="42.36838" lon="2.1798">
        <ele>1286</ele>
        <time>2024-09-25T08:57:14Z</time>
      </trkpt>
      <trkpt lat="42.36838" lon="2.1798">
        <ele>1286</ele>
        <time>2024-09-25T08:57:15Z</time>
      </trkpt>
      <trkpt lat="42.36839" lon="2.17981">
        <ele>1286.1</ele>
        <time>2024-09-25T08:57:16Z</time>
      </trkpt>
      <trkpt lat="42.36839" lon="2.17981">
        <ele>1286.2</ele>
        <time>2024-09-25T08:57:17Z</time>
      </trkpt>
      <trkpt lat="42.3684" lon="2.17981">
        <ele>1286.2</ele>
        <time>2024-09-25T08:57:18Z</time>
      </trkpt>
      <trkpt lat="42.3684" lon="2.17982">
        <ele>1286.4</ele>
        <time>2024-09-25T08:57:19Z</time>
      </trkpt>
      <trkpt lat="42.36841" lon="2.17982">
        <ele>1286.4</ele>
        <time>2024-09-25T08:57:20Z</time>
      </trkpt>
      <trkpt lat="42.36842" lon="2.17982">
        <ele>1286.6</ele>
        <time>2024-09-25T08:57:21Z</time>
      </trkpt>
      <trkpt lat="42.36843" lon="2.17983">
        <ele>1286.8</ele>
        <time>2024-09-25T08:57:22Z</time>
      </trkpt>
      <trkpt lat="42.36844" lon="2.17983">
        <ele>1286.9</ele>
        <time>2024-09-25T08:57:23Z</time>
      </trkpt>
      <trkpt lat="42.36845" lon="2.17984">
        <ele>1287</ele>
        <time>2024-09-25T08:57:24Z</time>
      </trkpt>
      <trkpt lat="42.36846" lon="2.17984">
        <ele>1287.1</ele>
        <time>2024-09-25T08:57:25Z</time>
      </trkpt>
      <trkpt lat="42.36846" lon="2.17984">
        <ele>1287.2</ele>
        <time>2024-09-25T08:57:26Z</time>
      </trkpt>
      <trkpt lat="42.36847" lon="2.17985">
        <ele>1287.3</ele>
        <time>2024-09-25T08:57:27Z</time>
      </trkpt>
      <trkpt lat="42.36847" lon="2.17985">
        <ele>1287.3</ele>
        <time>2024-09-25T08:57:28Z</time>
      </trkpt>
      <trkpt lat="42.36848" lon="2.17985">
        <ele>1287.5</ele>
        <time>2024-09-25T08:57:29Z</time>
      </trkpt>
      <trkpt lat="42.36848" lon="2.17986">
        <ele>1287.5</ele>
        <time>2024-09-25T08:57:30Z</time>
      </trkpt>
      <trkpt lat="42.36849" lon="2.17986">
        <ele>1287.6</ele>
        <time>2024-09-25T08:57:31Z</time>
      </trkpt>
      <trkpt lat="42.3685" lon="2.17986">
        <ele>1287.7</ele>
        <time>2024-09-25T08:57:32Z</time>
      </trkpt>
      <trkpt lat="42.3685" lon="2.17986">
        <ele>1287.8</ele>
        <time>2024-09-25T08:57:33Z</time>
      </trkpt>
      <trkpt lat="42.36851" lon="2.17986">
        <ele>1287.9</ele>
        <time>2024-09-25T08:57:34Z</time>
      </trkpt>
      <trkpt lat="42.36852" lon="2.17986">
        <ele>1288</ele>
        <time>2024-09-25T08:57:35Z</time>
      </trkpt>
      <trkpt lat="42.36853" lon="2.17986">
        <ele>1288.1</ele>
        <time>2024-09-25T08:57:36Z</time>
      </trkpt>
      <trkpt lat="42.36854" lon="2.17986">
        <ele>1288.2</ele>
        <time>2024-09-25T08:57:37Z</time>
      </trkpt>
      <trkpt lat="42.36854" lon="2.17986">
        <ele>1288.2</ele>
        <time>2024-09-25T08:57:38Z</time>
      </trkpt>
      <trkpt lat="42.36855" lon="2.17986">
        <ele>1288.3</ele>
        <time>2024-09-25T08:57:39Z</time>
      </trkpt>
      <trkpt lat="42.36855" lon="2.17986">
        <ele>1288.3</ele>
        <time>2024-09-25T08:57:40Z</time>
      </trkpt>
      <trkpt lat="42.36856" lon="2.17986">
        <ele>1288.4</ele>
        <time>2024-09-25T08:57:41Z</time>
      </trkpt>
      <trkpt lat="42.36856" lon="2.17987">
        <ele>1288.5</ele>
        <time>2024-09-25T08:57:42Z</time>
      </trkpt>
      <trkpt lat="42.36856" lon="2.17987">
        <ele>1288.5</ele>
        <time>2024-09-25T08:57:43Z</time>
      </trkpt>
      <trkpt lat="42.36857" lon="2.17988">
        <ele>1288.6</ele>
        <time>2024-09-25T08:57:44Z</time>
      </trkpt>
      <trkpt lat="42.36857" lon="2.17988">
        <ele>1288.7</ele>
        <time>2024-09-25T08:57:45Z</time>
      </trkpt>
      <trkpt lat="42.36858" lon="2.17988">
        <ele>1288.7</ele>
        <time>2024-09-25T08:57:46Z</time>
      </trkpt>
      <trkpt lat="42.36858" lon="2.17989">
        <ele>1288.8</ele>
        <time>2024-09-25T08:57:47Z</time>
      </trkpt>
      <trkpt lat="42.36859" lon="2.17989">
        <ele>1288.9</ele>
        <time>2024-09-25T08:57:48Z</time>
      </trkpt>
      <trkpt lat="42.36859" lon="2.1799">
        <ele>1288.9</ele>
        <time>2024-09-25T08:57:49Z</time>
      </trkpt>
      <trkpt lat="42.3686" lon="2.1799">
        <ele>1289</ele>
        <time>2024-09-25T08:57:50Z</time>
      </trkpt>
      <trkpt lat="42.3686" lon="2.17991">
        <ele>1289</ele>
        <time>2024-09-25T08:57:51Z</time>
      </trkpt>
      <trkpt lat="42.36861" lon="2.17991">
        <ele>1289.1</ele>
        <time>2024-09-25T08:57:52Z</time>
      </trkpt>
      <trkpt lat="42.36861" lon="2.17992">
        <ele>1289.1</ele>
        <time>2024-09-25T08:57:53Z</time>
      </trkpt>
      <trkpt lat="42.36861" lon="2.17992">
        <ele>1289.2</ele>
        <time>2024-09-25T08:57:54Z</time>
      </trkpt>
      <trkpt lat="42.36862" lon="2.17993">
        <ele>1289.3</ele>
        <time>2024-09-25T08:57:55Z</time>
      </trkpt>
      <trkpt lat="42.36863" lon="2.17993">
        <ele>1289.4</ele>
        <time>2024-09-25T08:57:56Z</time>
      </trkpt>
      <trkpt lat="42.36864" lon="2.17994">
        <ele>1289.5</ele>
        <time>2024-09-25T08:57:57Z</time>
      </trkpt>
      <trkpt lat="42.36864" lon="2.17993">
        <ele>1289.5</ele>
        <time>2024-09-25T08:57:58Z</time>
      </trkpt>
      <trkpt lat="42.36864" lon="2.17994">
        <ele>1289.6</ele>
        <time>2024-09-25T08:57:59Z</time>
      </trkpt>
      <trkpt lat="42.36865" lon="2.17994">
        <ele>1289.6</ele>
        <time>2024-09-25T08:58:00Z</time>
      </trkpt>
      <trkpt lat="42.36866" lon="2.17994">
        <ele>1289.8</ele>
        <time>2024-09-25T08:58:01Z</time>
      </trkpt>
      <trkpt lat="42.36867" lon="2.17995">
        <ele>1289.9</ele>
        <time>2024-09-25T08:58:02Z</time>
      </trkpt>
      <trkpt lat="42.36867" lon="2.17997">
        <ele>1290</ele>
        <time>2024-09-25T08:58:03Z</time>
      </trkpt>
      <trkpt lat="42.36868" lon="2.17997">
        <ele>1290.1</ele>
        <time>2024-09-25T08:58:04Z</time>
      </trkpt>
      <trkpt lat="42.36868" lon="2.17998">
        <ele>1290.2</ele>
        <time>2024-09-25T08:58:05Z</time>
      </trkpt>
      <trkpt lat="42.36869" lon="2.17999">
        <ele>1290.2</ele>
        <time>2024-09-25T08:58:06Z</time>
      </trkpt>
      <trkpt lat="42.36869" lon="2.17999">
        <ele>1290.3</ele>
        <time>2024-09-25T08:58:07Z</time>
      </trkpt>
      <trkpt lat="42.3687" lon="2.17999">
        <ele>1290.4</ele>
        <time>2024-09-25T08:58:08Z</time>
      </trkpt>
      <trkpt lat="42.3687" lon="2.17999">
        <ele>1290.4</ele>
        <time>2024-09-25T08:58:09Z</time>
      </trkpt>
      <trkpt lat="42.3687" lon="2.17999">
        <ele>1290.4</ele>
        <time>2024-09-25T08:58:10Z</time>
      </trkpt>
      <trkpt lat="42.36871" lon="2.17999">
        <ele>1290.5</ele>
        <time>2024-09-25T08:58:11Z</time>
      </trkpt>
      <trkpt lat="42.36871" lon="2.18">
        <ele>1290.5</ele>
        <time>2024-09-25T08:58:12Z</time>
      </trkpt>
      <trkpt lat="42.36871" lon="2.18">
        <ele>1290.6</ele>
        <time>2024-09-25T08:58:13Z</time>
      </trkpt>
      <trkpt lat="42.36872" lon="2.18001">
        <ele>1290.7</ele>
        <time>2024-09-25T08:58:14Z</time>
      </trkpt>
      <trkpt lat="42.36872" lon="2.18002">
        <ele>1290.8</ele>
        <time>2024-09-25T08:58:15Z</time>
      </trkpt>
      <trkpt lat="42.36873" lon="2.18003">
        <ele>1290.9</ele>
        <time>2024-09-25T08:58:16Z</time>
      </trkpt>
      <trkpt lat="42.36873" lon="2.18003">
        <ele>1290.9</ele>
        <time>2024-09-25T08:58:17Z</time>
      </trkpt>
      <trkpt lat="42.36874" lon="2.18004">
        <ele>1291</ele>
        <time>2024-09-25T08:58:18Z</time>
      </trkpt>
      <trkpt lat="42.36875" lon="2.18004">
        <ele>1291.1</ele>
        <time>2024-09-25T08:58:19Z</time>
      </trkpt>
      <trkpt lat="42.36875" lon="2.18004">
        <ele>1291.2</ele>
        <time>2024-09-25T08:58:20Z</time>
      </trkpt>
      <trkpt lat="42.36876" lon="2.18004">
        <ele>1291.3</ele>
        <time>2024-09-25T08:58:21Z</time>
      </trkpt>
      <trkpt lat="42.36876" lon="2.18003">
        <ele>1291.3</ele>
        <time>2024-09-25T08:58:22Z</time>
      </trkpt>
      <trkpt lat="42.36877" lon="2.18003">
        <ele>1291.4</ele>
        <time>2024-09-25T08:58:23Z</time>
      </trkpt>
      <trkpt lat="42.36879" lon="2.18004">
        <ele>1291.6</ele>
        <time>2024-09-25T08:58:24Z</time>
      </trkpt>
      <trkpt lat="42.36878" lon="2.18004">
        <ele>1291.8</ele>
        <time>2024-09-25T08:58:25Z</time>
      </trkpt>
      <trkpt lat="42.36878" lon="2.18004">
        <ele>1291.8</ele>
        <time>2024-09-25T08:58:26Z</time>
      </trkpt>
      <trkpt lat="42.36878" lon="2.18004">
        <ele>1291.8</ele>
        <time>2024-09-25T08:58:27Z</time>
      </trkpt>
      <trkpt lat="42.36879" lon="2.18004">
        <ele>1291.9</ele>
        <time>2024-09-25T08:58:28Z</time>
      </trkpt>
      <trkpt lat="42.36879" lon="2.18004">
        <ele>1291.9</ele>
        <time>2024-09-25T08:58:29Z</time>
      </trkpt>
      <trkpt lat="42.36879" lon="2.18004">
        <ele>1291.9</ele>
        <time>2024-09-25T08:58:30Z</time>
      </trkpt>
      <trkpt lat="42.3688" lon="2.18004">
        <ele>1292</ele>
        <time>2024-09-25T08:58:31Z</time>
      </trkpt>
      <trkpt lat="42.3688" lon="2.18004">
        <ele>1292.1</ele>
        <time>2024-09-25T08:58:32Z</time>
      </trkpt>
      <trkpt lat="42.36881" lon="2.18004">
        <ele>1292.2</ele>
        <time>2024-09-25T08:58:33Z</time>
      </trkpt>
      <trkpt lat="42.36882" lon="2.18005">
        <ele>1292.3</ele>
        <time>2024-09-25T08:58:34Z</time>
      </trkpt>
      <trkpt lat="42.36882" lon="2.18005">
        <ele>1292.3</ele>
        <time>2024-09-25T08:58:35Z</time>
      </trkpt>
      <trkpt lat="42.36883" lon="2.18005">
        <ele>1292.4</ele>
        <time>2024-09-25T08:58:36Z</time>
      </trkpt>
      <trkpt lat="42.36883" lon="2.18006">
        <ele>1292.5</ele>
        <time>2024-09-25T08:58:37Z</time>
      </trkpt>
      <trkpt lat="42.36885" lon="2.18007">
        <ele>1292.7</ele>
        <time>2024-09-25T08:58:38Z</time>
      </trkpt>
      <trkpt lat="42.36886" lon="2.18008">
        <ele>1292.9</ele>
        <time>2024-09-25T08:58:39Z</time>
      </trkpt>
      <trkpt lat="42.36886" lon="2.18008">
        <ele>1292.9</ele>
        <time>2024-09-25T08:58:40Z</time>
      </trkpt>
      <trkpt lat="42.36886" lon="2.18008">
        <ele>1292.9</ele>
        <time>2024-09-25T08:58:41Z</time>
      </trkpt>
      <trkpt lat="42.36886" lon="2.18008">
        <ele>1293</ele>
        <time>2024-09-25T08:58:42Z</time>
      </trkpt>
      <trkpt lat="42.36886" lon="2.18008">
        <ele>1293</ele>
        <time>2024-09-25T08:58:43Z</time>
      </trkpt>
      <trkpt lat="42.36886" lon="2.18009">
        <ele>1293</ele>
        <time>2024-09-25T08:58:44Z</time>
      </trkpt>
      <trkpt lat="42.36886" lon="2.18009">
        <ele>1293</ele>
        <time>2024-09-25T08:58:45Z</time>
      </trkpt>
      <trkpt lat="42.36887" lon="2.18009">
        <ele>1293.1</ele>
        <time>2024-09-25T08:58:46Z</time>
      </trkpt>
      <trkpt lat="42.36888" lon="2.1801">
        <ele>1293.3</ele>
        <time>2024-09-25T08:58:47Z</time>
      </trkpt>
      <trkpt lat="42.36889" lon="2.18011">
        <ele>1293.4</ele>
        <time>2024-09-25T08:58:48Z</time>
      </trkpt>
      <trkpt lat="42.3689" lon="2.18012">
        <ele>1293.6</ele>
        <time>2024-09-25T08:58:49Z</time>
      </trkpt>
      <trkpt lat="42.3689" lon="2.18012">
        <ele>1293.7</ele>
        <time>2024-09-25T08:58:50Z</time>
      </trkpt>
      <trkpt lat="42.36892" lon="2.18014">
        <ele>1294</ele>
        <time>2024-09-25T08:58:51Z</time>
      </trkpt>
      <trkpt lat="42.36893" lon="2.18014">
        <ele>1294.1</ele>
        <time>2024-09-25T08:58:52Z</time>
      </trkpt>
      <trkpt lat="42.36894" lon="2.18015">
        <ele>1294.2</ele>
        <time>2024-09-25T08:58:53Z</time>
      </trkpt>
      <trkpt lat="42.36893" lon="2.18014">
        <ele>1294.3</ele>
        <time>2024-09-25T08:58:54Z</time>
      </trkpt>
      <trkpt lat="42.36894" lon="2.18015">
        <ele>1294.5</ele>
        <time>2024-09-25T08:58:55Z</time>
      </trkpt>
      <trkpt lat="42.36894" lon="2.18016">
        <ele>1294.6</ele>
        <time>2024-09-25T08:58:56Z</time>
      </trkpt>
      <trkpt lat="42.36894" lon="2.18016">
        <ele>1294.7</ele>
        <time>2024-09-25T08:58:57Z</time>
      </trkpt>
      <trkpt lat="42.36895" lon="2.18017">
        <ele>1294.9</ele>
        <time>2024-09-25T08:58:58Z</time>
      </trkpt>
      <trkpt lat="42.36897" lon="2.18018">
        <ele>1295.1</ele>
        <time>2024-09-25T08:58:59Z</time>
      </trkpt>
      <trkpt lat="42.36897" lon="2.18018">
        <ele>1295.1</ele>
        <time>2024-09-25T08:59:00Z</time>
      </trkpt>
      <trkpt lat="42.36897" lon="2.18018">
        <ele>1295.1</ele>
        <time>2024-09-25T08:59:01Z</time>
      </trkpt>
      <trkpt lat="42.36898" lon="2.18017">
        <ele>1295.2</ele>
        <time>2024-09-25T08:59:02Z</time>
      </trkpt>
      <trkpt lat="42.36898" lon="2.18017">
        <ele>1295.3</ele>
        <time>2024-09-25T08:59:03Z</time>
      </trkpt>
      <trkpt lat="42.36898" lon="2.18017">
        <ele>1295.3</ele>
        <time>2024-09-25T08:59:04Z</time>
      </trkpt>
      <trkpt lat="42.36899" lon="2.18017">
        <ele>1295.4</ele>
        <time>2024-09-25T08:59:05Z</time>
      </trkpt>
      <trkpt lat="42.36899" lon="2.18018">
        <ele>1295.5</ele>
        <time>2024-09-25T08:59:06Z</time>
      </trkpt>
      <trkpt lat="42.369" lon="2.18018">
        <ele>1295.5</ele>
        <time>2024-09-25T08:59:07Z</time>
      </trkpt>
      <trkpt lat="42.369" lon="2.18018">
        <ele>1295.6</ele>
        <time>2024-09-25T08:59:08Z</time>
      </trkpt>
      <trkpt lat="42.36901" lon="2.18018">
        <ele>1295.7</ele>
        <time>2024-09-25T08:59:09Z</time>
      </trkpt>
      <trkpt lat="42.36901" lon="2.18019">
        <ele>1295.7</ele>
        <time>2024-09-25T08:59:10Z</time>
      </trkpt>
      <trkpt lat="42.36902" lon="2.18019">
        <ele>1295.8</ele>
        <time>2024-09-25T08:59:11Z</time>
      </trkpt>
      <trkpt lat="42.36902" lon="2.1802">
        <ele>1295.9</ele>
        <time>2024-09-25T08:59:12Z</time>
      </trkpt>
      <trkpt lat="42.36903" lon="2.1802">
        <ele>1296</ele>
        <time>2024-09-25T08:59:13Z</time>
      </trkpt>
      <trkpt lat="42.36903" lon="2.18021">
        <ele>1296.1</ele>
        <time>2024-09-25T08:59:14Z</time>
      </trkpt>
      <trkpt lat="42.36904" lon="2.18022">
        <ele>1296.2</ele>
        <time>2024-09-25T08:59:15Z</time>
      </trkpt>
      <trkpt lat="42.36905" lon="2.18022">
        <ele>1296.3</ele>
        <time>2024-09-25T08:59:16Z</time>
      </trkpt>
      <trkpt lat="42.36907" lon="2.18024">
        <ele>1296.7</ele>
        <time>2024-09-25T08:59:17Z</time>
      </trkpt>
      <trkpt lat="42.36908" lon="2.18025">
        <ele>1296.8</ele>
        <time>2024-09-25T08:59:18Z</time>
      </trkpt>
      <trkpt lat="42.3691" lon="2.18026">
        <ele>1297</ele>
        <time>2024-09-25T08:59:19Z</time>
      </trkpt>
      <trkpt lat="42.36911" lon="2.18026">
        <ele>1297.1</ele>
        <time>2024-09-25T08:59:20Z</time>
      </trkpt>
      <trkpt lat="42.36912" lon="2.18027">
        <ele>1297.3</ele>
        <time>2024-09-25T08:59:21Z</time>
      </trkpt>
      <trkpt lat="42.36913" lon="2.18027">
        <ele>1297.4</ele>
        <time>2024-09-25T08:59:22Z</time>
      </trkpt>
      <trkpt lat="42.36914" lon="2.18028">
        <ele>1297.5</ele>
        <time>2024-09-25T08:59:23Z</time>
      </trkpt>
      <trkpt lat="42.36914" lon="2.1803">
        <ele>1297.6</ele>
        <time>2024-09-25T08:59:24Z</time>
      </trkpt>
      <trkpt lat="42.36914" lon="2.1803">
        <ele>1297.7</ele>
        <time>2024-09-25T08:59:25Z</time>
      </trkpt>
      <trkpt lat="42.36916" lon="2.1803">
        <ele>1297.8</ele>
        <time>2024-09-25T08:59:26Z</time>
      </trkpt>
      <trkpt lat="42.36916" lon="2.18028">
        <ele>1298</ele>
        <time>2024-09-25T08:59:27Z</time>
      </trkpt>
      <trkpt lat="42.36917" lon="2.18027">
        <ele>1298.1</ele>
        <time>2024-09-25T08:59:28Z</time>
      </trkpt>
      <trkpt lat="42.36917" lon="2.18025">
        <ele>1298.2</ele>
        <time>2024-09-25T08:59:29Z</time>
      </trkpt>
      <trkpt lat="42.36917" lon="2.18025">
        <ele>1298.2</ele>
        <time>2024-09-25T08:59:30Z</time>
      </trkpt>
      <trkpt lat="42.36917" lon="2.18027">
        <ele>1298.3</ele>
        <time>2024-09-25T08:59:31Z</time>
      </trkpt>
      <trkpt lat="42.36918" lon="2.18028">
        <ele>1298.5</ele>
        <time>2024-09-25T08:59:32Z</time>
      </trkpt>
      <trkpt lat="42.36919" lon="2.1803">
        <ele>1298.6</ele>
        <time>2024-09-25T08:59:33Z</time>
      </trkpt>
      <trkpt lat="42.36919" lon="2.18029">
        <ele>1298.6</ele>
        <time>2024-09-25T08:59:34Z</time>
      </trkpt>
      <trkpt lat="42.3692" lon="2.1803">
        <ele>1298.7</ele>
        <time>2024-09-25T08:59:35Z</time>
      </trkpt>
      <trkpt lat="42.36922" lon="2.18029">
        <ele>1298.9</ele>
        <time>2024-09-25T08:59:36Z</time>
      </trkpt>
      <trkpt lat="42.36924" lon="2.18025">
        <ele>1299.2</ele>
        <time>2024-09-25T08:59:37Z</time>
      </trkpt>
      <trkpt lat="42.36924" lon="2.18024">
        <ele>1299.2</ele>
        <time>2024-09-25T08:59:38Z</time>
      </trkpt>
      <trkpt lat="42.36923" lon="2.18024">
        <ele>1299.3</ele>
        <time>2024-09-25T08:59:39Z</time>
      </trkpt>
      <trkpt lat="42.36924" lon="2.18025">
        <ele>1299.3</ele>
        <time>2024-09-25T08:59:40Z</time>
      </trkpt>
      <trkpt lat="42.36925" lon="2.18025">
        <ele>1299.4</ele>
        <time>2024-09-25T08:59:41Z</time>
      </trkpt>
      <trkpt lat="42.36926" lon="2.18024">
        <ele>1299.6</ele>
        <time>2024-09-25T08:59:42Z</time>
      </trkpt>
      <trkpt lat="42.36927" lon="2.18022">
        <ele>1299.7</ele>
        <time>2024-09-25T08:59:43Z</time>
      </trkpt>
      <trkpt lat="42.36927" lon="2.1802">
        <ele>1299.8</ele>
        <time>2024-09-25T08:59:44Z</time>
      </trkpt>
      <trkpt lat="42.36928" lon="2.18019">
        <ele>1299.9</ele>
        <time>2024-09-25T08:59:45Z</time>
      </trkpt>
      <trkpt lat="42.36929" lon="2.18019">
        <ele>1300</ele>
        <time>2024-09-25T08:59:46Z</time>
      </trkpt>
      <trkpt lat="42.3693" lon="2.18019">
        <ele>1300.1</ele>
        <time>2024-09-25T08:59:47Z</time>
      </trkpt>
      <trkpt lat="42.36931" lon="2.18019">
        <ele>1300.2</ele>
        <time>2024-09-25T08:59:48Z</time>
      </trkpt>
      <trkpt lat="42.36932" lon="2.18018">
        <ele>1300.3</ele>
        <time>2024-09-25T08:59:49Z</time>
      </trkpt>
      <trkpt lat="42.36934" lon="2.18017">
        <ele>1300.4</ele>
        <time>2024-09-25T08:59:50Z</time>
      </trkpt>
      <trkpt lat="42.36934" lon="2.18016">
        <ele>1300.5</ele>
        <time>2024-09-25T08:59:51Z</time>
      </trkpt>
      <trkpt lat="42.36935" lon="2.18015">
        <ele>1300.5</ele>
        <time>2024-09-25T08:59:52Z</time>
      </trkpt>
      <trkpt lat="42.36937" lon="2.18014">
        <ele>1300.6</ele>
        <time>2024-09-25T08:59:53Z</time>
      </trkpt>
      <trkpt lat="42.36938" lon="2.18014">
        <ele>1300.7</ele>
        <time>2024-09-25T08:59:54Z</time>
      </trkpt>
      <trkpt lat="42.36939" lon="2.18014">
        <ele>1300.8</ele>
        <time>2024-09-25T08:59:55Z</time>
      </trkpt>
      <trkpt lat="42.36939" lon="2.18014">
        <ele>1300.8</ele>
        <time>2024-09-25T08:59:56Z</time>
      </trkpt>
      <trkpt lat="42.36939" lon="2.18014">
        <ele>1300.9</ele>
        <time>2024-09-25T08:59:57Z</time>
      </trkpt>
      <trkpt lat="42.36939" lon="2.18014">
        <ele>1300.9</ele>
        <time>2024-09-25T08:59:58Z</time>
      </trkpt>
      <trkpt lat="42.36939" lon="2.18014">
        <ele>1300.9</ele>
        <time>2024-09-25T08:59:59Z</time>
      </trkpt>
      <trkpt lat="42.36939" lon="2.18014">
        <ele>1300.9</ele>
        <time>2024-09-25T09:00:00Z</time>
      </trkpt>
      <trkpt lat="42.36938" lon="2.18013">
        <ele>1301</ele>
        <time>2024-09-25T09:00:01Z</time>
      </trkpt>
      <trkpt lat="42.36938" lon="2.18012">
        <ele>1301</ele>
        <time>2024-09-25T09:00:02Z</time>
      </trkpt>
      <trkpt lat="42.36938" lon="2.18011">
        <ele>1301.1</ele>
        <time>2024-09-25T09:00:03Z</time>
      </trkpt>
      <trkpt lat="42.36938" lon="2.1801">
        <ele>1301.2</ele>
        <time>2024-09-25T09:00:04Z</time>
      </trkpt>
      <trkpt lat="42.36937" lon="2.18009">
        <ele>1301.2</ele>
        <time>2024-09-25T09:00:05Z</time>
      </trkpt>
      <trkpt lat="42.36937" lon="2.18008">
        <ele>1301.3</ele>
        <time>2024-09-25T09:00:06Z</time>
      </trkpt>
      <trkpt lat="42.36936" lon="2.18007">
        <ele>1301.3</ele>
        <time>2024-09-25T09:00:07Z</time>
      </trkpt>
      <trkpt lat="42.36936" lon="2.18006">
        <ele>1301.4</ele>
        <time>2024-09-25T09:00:08Z</time>
      </trkpt>
      <trkpt lat="42.36937" lon="2.18005">
        <ele>1301.5</ele>
        <time>2024-09-25T09:00:09Z</time>
      </trkpt>
      <trkpt lat="42.36938" lon="2.18005">
        <ele>1301.5</ele>
        <time>2024-09-25T09:00:10Z</time>
      </trkpt>
      <trkpt lat="42.36938" lon="2.18004">
        <ele>1301.6</ele>
        <time>2024-09-25T09:00:11Z</time>
      </trkpt>
      <trkpt lat="42.36939" lon="2.18004">
        <ele>1301.6</ele>
        <time>2024-09-25T09:00:12Z</time>
      </trkpt>
      <trkpt lat="42.36939" lon="2.18003">
        <ele>1301.6</ele>
        <time>2024-09-25T09:00:13Z</time>
      </trkpt>
      <trkpt lat="42.36939" lon="2.18004">
        <ele>1301.6</ele>
        <time>2024-09-25T09:00:14Z</time>
      </trkpt>
      <trkpt lat="42.36939" lon="2.18004">
        <ele>1301.6</ele>
        <time>2024-09-25T09:00:15Z</time>
      </trkpt>
      <trkpt lat="42.36939" lon="2.18003">
        <ele>1301.7</ele>
        <time>2024-09-25T09:00:16Z</time>
      </trkpt>
      <trkpt lat="42.36939" lon="2.18003">
        <ele>1301.7</ele>
        <time>2024-09-25T09:00:17Z</time>
      </trkpt>
      <trkpt lat="42.3694" lon="2.18003">
        <ele>1301.7</ele>
        <time>2024-09-25T09:00:18Z</time>
      </trkpt>
      <trkpt lat="42.3694" lon="2.18003">
        <ele>1301.7</ele>
        <time>2024-09-25T09:00:19Z</time>
      </trkpt>
      <trkpt lat="42.36941" lon="2.18002">
        <ele>1301.8</ele>
        <time>2024-09-25T09:00:20Z</time>
      </trkpt>
      <trkpt lat="42.36941" lon="2.18002">
        <ele>1301.8</ele>
        <time>2024-09-25T09:00:21Z</time>
      </trkpt>
      <trkpt lat="42.36941" lon="2.18001">
        <ele>1301.8</ele>
        <time>2024-09-25T09:00:22Z</time>
      </trkpt>
      <trkpt lat="42.36941" lon="2.18001">
        <ele>1301.8</ele>
        <time>2024-09-25T09:00:23Z</time>
      </trkpt>
      <trkpt lat="42.36941" lon="2.18">
        <ele>1301.8</ele>
        <time>2024-09-25T09:00:24Z</time>
      </trkpt>
      <trkpt lat="42.36941" lon="2.18">
        <ele>1301.9</ele>
        <time>2024-09-25T09:00:25Z</time>
      </trkpt>
      <trkpt lat="42.36942" lon="2.17999">
        <ele>1301.9</ele>
        <time>2024-09-25T09:00:26Z</time>
      </trkpt>
      <trkpt lat="42.36942" lon="2.17999">
        <ele>1301.9</ele>
        <time>2024-09-25T09:00:27Z</time>
      </trkpt>
      <trkpt lat="42.36942" lon="2.17999">
        <ele>1301.9</ele>
        <time>2024-09-25T09:00:28Z</time>
      </trkpt>
      <trkpt lat="42.36943" lon="2.17998">
        <ele>1301.9</ele>
        <time>2024-09-25T09:00:29Z</time>
      </trkpt>
      <trkpt lat="42.36943" lon="2.17998">
        <ele>1302</ele>
        <time>2024-09-25T09:00:30Z</time>
      </trkpt>
      <trkpt lat="42.36944" lon="2.17998">
        <ele>1302</ele>
        <time>2024-09-25T09:00:31Z</time>
      </trkpt>
      <trkpt lat="42.36944" lon="2.17997">
        <ele>1302</ele>
        <time>2024-09-25T09:00:32Z</time>
      </trkpt>
      <trkpt lat="42.36945" lon="2.17997">
        <ele>1302</ele>
        <time>2024-09-25T09:00:33Z</time>
      </trkpt>
      <trkpt lat="42.36945" lon="2.17997">
        <ele>1302</ele>
        <time>2024-09-25T09:00:34Z</time>
      </trkpt>
      <trkpt lat="42.36945" lon="2.17997">
        <ele>1302.1</ele>
        <time>2024-09-25T09:00:35Z</time>
      </trkpt>
      <trkpt lat="42.36946" lon="2.17996">
        <ele>1302.1</ele>
        <time>2024-09-25T09:00:36Z</time>
      </trkpt>
      <trkpt lat="42.36946" lon="2.17996">
        <ele>1302.1</ele>
        <time>2024-09-25T09:00:37Z</time>
      </trkpt>
      <trkpt lat="42.36946" lon="2.17995">
        <ele>1302.1</ele>
        <time>2024-09-25T09:00:38Z</time>
      </trkpt>
      <trkpt lat="42.36947" lon="2.17995">
        <ele>1302.1</ele>
        <time>2024-09-25T09:00:39Z</time>
      </trkpt>
      <trkpt lat="42.36947" lon="2.17995">
        <ele>1302.1</ele>
        <time>2024-09-25T09:00:40Z</time>
      </trkpt>
      <trkpt lat="42.36948" lon="2.17994">
        <ele>1302.1</ele>
        <time>2024-09-25T09:00:41Z</time>
      </trkpt>
      <trkpt lat="42.36948" lon="2.17994">
        <ele>1302.2</ele>
        <time>2024-09-25T09:00:42Z</time>
      </trkpt>
      <trkpt lat="42.36949" lon="2.17994">
        <ele>1302.2</ele>
        <time>2024-09-25T09:00:43Z</time>
      </trkpt>
      <trkpt lat="42.3695" lon="2.17995">
        <ele>1302.2</ele>
        <time>2024-09-25T09:00:44Z</time>
      </trkpt>
      <trkpt lat="42.36951" lon="2.17995">
        <ele>1302.2</ele>
        <time>2024-09-25T09:00:45Z</time>
      </trkpt>
      <trkpt lat="42.36951" lon="2.17995">
        <ele>1302.2</ele>
        <time>2024-09-25T09:00:46Z</time>
      </trkpt>
      <trkpt lat="42.36951" lon="2.17995">
        <ele>1302.2</ele>
        <time>2024-09-25T09:00:47Z</time>
      </trkpt>
      <trkpt lat="42.36951" lon="2.17995">
        <ele>1302.2</ele>
        <time>2024-09-25T09:00:48Z</time>
      </trkpt>
      <trkpt lat="42.36951" lon="2.17995">
        <ele>1302.2</ele>
        <time>2024-09-25T09:00:49Z</time>
      </trkpt>
      <trkpt lat="42.36952" lon="2.17995">
        <ele>1302.3</ele>
        <time>2024-09-25T09:00:50Z</time>
      </trkpt>
      <trkpt lat="42.36952" lon="2.17995">
        <ele>1302.3</ele>
        <time>2024-09-25T09:00:51Z</time>
      </trkpt>
      <trkpt lat="42.36952" lon="2.17995">
        <ele>1302.3</ele>
        <time>2024-09-25T09:00:52Z</time>
      </trkpt>
      <trkpt lat="42.36953" lon="2.17995">
        <ele>1302.3</ele>
        <time>2024-09-25T09:00:53Z</time>
      </trkpt>
      <trkpt lat="42.36953" lon="2.17994">
        <ele>1302.3</ele>
        <time>2024-09-25T09:00:54Z</time>
      </trkpt>
      <trkpt lat="42.36953" lon="2.17994">
        <ele>1302.3</ele>
        <time>2024-09-25T09:00:55Z</time>
      </trkpt>
      <trkpt lat="42.36953" lon="2.17994">
        <ele>1302.3</ele>
        <time>2024-09-25T09:00:56Z</time>
      </trkpt>
      <trkpt lat="42.36953" lon="2.17994">
        <ele>1302.3</ele>
        <time>2024-09-25T09:00:58Z</time>
      </trkpt>
      <trkpt lat="42.36953" lon="2.17994">
        <ele>1302.3</ele>
        <time>2024-09-25T09:00:59Z</time>
      </trkpt>
      <trkpt lat="42.36953" lon="2.17994">
        <ele>1302.3</ele>
        <time>2024-09-25T09:01:00Z</time>
      </trkpt>
      <trkpt lat="42.36953" lon="2.17994">
        <ele>1302.3</ele>
        <time>2024-09-25T09:01:01Z</time>
      </trkpt>
      <trkpt lat="42.36951" lon="2.17986">
        <ele>1302.4</ele>
        <time>2024-09-25T09:17:55Z</time>
      </trkpt>
      <trkpt lat="42.36951" lon="2.17989">
        <ele>1302.4</ele>
        <time>2024-09-25T09:17:56Z</time>
      </trkpt>
      <trkpt lat="42.36951" lon="2.1799">
        <ele>1302.4</ele>
        <time>2024-09-25T09:17:57Z</time>
      </trkpt>
      <trkpt lat="42.36951" lon="2.1799">
        <ele>1302.4</ele>
        <time>2024-09-25T09:17:58Z</time>
      </trkpt>
      <trkpt lat="42.36951" lon="2.17989">
        <ele>1302.4</ele>
        <time>2024-09-25T09:17:59Z</time>
      </trkpt>
      <trkpt lat="42.3695" lon="2.1799">
        <ele>1302.4</ele>
        <time>2024-09-25T09:18:00Z</time>
      </trkpt>
      <trkpt lat="42.3695" lon="2.17992">
        <ele>1302.4</ele>
        <time>2024-09-25T09:18:01Z</time>
      </trkpt>
      <trkpt lat="42.3695" lon="2.17992">
        <ele>1302.4</ele>
        <time>2024-09-25T09:18:02Z</time>
      </trkpt>
      <trkpt lat="42.3695" lon="2.17993">
        <ele>1302.4</ele>
        <time>2024-09-25T09:18:03Z</time>
      </trkpt>
      <trkpt lat="42.3695" lon="2.17993">
        <ele>1302.4</ele>
        <time>2024-09-25T09:18:04Z</time>
      </trkpt>
      <trkpt lat="42.3695" lon="2.17993">
        <ele>1302.4</ele>
        <time>2024-09-25T09:18:05Z</time>
      </trkpt>
      <trkpt lat="42.3695" lon="2.17994">
        <ele>1302.4</ele>
        <time>2024-09-25T09:18:06Z</time>
      </trkpt>
      <trkpt lat="42.3695" lon="2.17994">
        <ele>1302.4</ele>
        <time>2024-09-25T09:18:07Z</time>
      </trkpt>
      <trkpt lat="42.3695" lon="2.17995">
        <ele>1302.4</ele>
        <time>2024-09-25T09:18:08Z</time>
      </trkpt>
      <trkpt lat="42.36951" lon="2.17996">
        <ele>1302.3</ele>
        <time>2024-09-25T09:18:09Z</time>
      </trkpt>
      <trkpt lat="42.36951" lon="2.17996">
        <ele>1302.3</ele>
        <time>2024-09-25T09:18:10Z</time>
      </trkpt>
      <trkpt lat="42.36951" lon="2.17997">
        <ele>1302.3</ele>
        <time>2024-09-25T09:18:11Z</time>
      </trkpt>
      <trkpt lat="42.36951" lon="2.17997">
        <ele>1302.3</ele>
        <time>2024-09-25T09:18:12Z</time>
      </trkpt>
      <trkpt lat="42.36951" lon="2.17997">
        <ele>1302.3</ele>
        <time>2024-09-25T09:18:13Z</time>
      </trkpt>
      <trkpt lat="42.36951" lon="2.17998">
        <ele>1302.3</ele>
        <time>2024-09-25T09:18:14Z</time>
      </trkpt>
      <trkpt lat="42.36951" lon="2.17998">
        <ele>1302.3</ele>
        <time>2024-09-25T09:18:15Z</time>
      </trkpt>
      <trkpt lat="42.36951" lon="2.17998">
        <ele>1302.3</ele>
        <time>2024-09-25T09:18:16Z</time>
      </trkpt>
      <trkpt lat="42.36951" lon="2.17998">
        <ele>1302.3</ele>
        <time>2024-09-25T09:18:17Z</time>
      </trkpt>
      <trkpt lat="42.36951" lon="2.17998">
        <ele>1302.3</ele>
        <time>2024-09-25T09:18:18Z</time>
      </trkpt>
      <trkpt lat="42.36951" lon="2.17998">
        <ele>1302.3</ele>
        <time>2024-09-25T09:18:19Z</time>
      </trkpt>
      <trkpt lat="42.36951" lon="2.17998">
        <ele>1302.3</ele>
        <time>2024-09-25T09:18:20Z</time>
      </trkpt>
      <trkpt lat="42.36951" lon="2.17998">
        <ele>1302.3</ele>
        <time>2024-09-25T09:18:21Z</time>
      </trkpt>
      <trkpt lat="42.36951" lon="2.17998">
        <ele>1302.3</ele>
        <time>2024-09-25T09:18:22Z</time>
      </trkpt>
      <trkpt lat="42.3695" lon="2.17998">
        <ele>1302.3</ele>
        <time>2024-09-25T09:18:23Z</time>
      </trkpt>
      <trkpt lat="42.3695" lon="2.17998">
        <ele>1302.3</ele>
        <time>2024-09-25T09:18:24Z</time>
      </trkpt>
      <trkpt lat="42.3695" lon="2.17998">
        <ele>1302.3</ele>
        <time>2024-09-25T09:18:25Z</time>
      </trkpt>
      <trkpt lat="42.3695" lon="2.17998">
        <ele>1302.3</ele>
        <time>2024-09-25T09:18:26Z</time>
      </trkpt>
      <trkpt lat="42.3695" lon="2.17998">
        <ele>1302.3</ele>
        <time>2024-09-25T09:18:27Z</time>
      </trkpt>
      <trkpt lat="42.3695" lon="2.17998">
        <ele>1302.3</ele>
        <time>2024-09-25T09:18:28Z</time>
      </trkpt>
      <trkpt lat="42.3695" lon="2.17998">
        <ele>1302.3</ele>
        <time>2024-09-25T09:18:29Z</time>
      </trkpt>
      <trkpt lat="42.3695" lon="2.17998">
        <ele>1302.3</ele>
        <time>2024-09-25T09:18:30Z</time>
      </trkpt>
      <trkpt lat="42.3695" lon="2.17998">
        <ele>1302.3</ele>
        <time>2024-09-25T09:18:31Z</time>
      </trkpt>
      <trkpt lat="42.3695" lon="2.17998">
        <ele>1302.3</ele>
        <time>2024-09-25T09:18:32Z</time>
      </trkpt>
      <trkpt lat="42.3695" lon="2.17999">
        <ele>1302.3</ele>
        <time>2024-09-25T09:18:33Z</time>
      </trkpt>
      <trkpt lat="42.36949" lon="2.17999">
        <ele>1302.3</ele>
        <time>2024-09-25T09:18:34Z</time>
      </trkpt>
      <trkpt lat="42.36949" lon="2.18001">
        <ele>1302.3</ele>
        <time>2024-09-25T09:18:35Z</time>
      </trkpt>
      <trkpt lat="42.36948" lon="2.18003">
        <ele>1302.3</ele>
        <time>2024-09-25T09:18:36Z</time>
      </trkpt>
      <trkpt lat="42.36948" lon="2.18005">
        <ele>1302.3</ele>
        <time>2024-09-25T09:18:37Z</time>
      </trkpt>
      <trkpt lat="42.36948" lon="2.18006">
        <ele>1302.3</ele>
        <time>2024-09-25T09:18:38Z</time>
      </trkpt>
      <trkpt lat="42.36947" lon="2.18007">
        <ele>1302.3</ele>
        <time>2024-09-25T09:18:39Z</time>
      </trkpt>
      <trkpt lat="42.36947" lon="2.1801">
        <ele>1302.2</ele>
        <time>2024-09-25T09:18:40Z</time>
      </trkpt>
      <trkpt lat="42.36946" lon="2.18011">
        <ele>1302.2</ele>
        <time>2024-09-25T09:18:41Z</time>
      </trkpt>
      <trkpt lat="42.36944" lon="2.18013">
        <ele>1302.2</ele>
        <time>2024-09-25T09:18:42Z</time>
      </trkpt>
      <trkpt lat="42.36943" lon="2.18014">
        <ele>1302.2</ele>
        <time>2024-09-25T09:18:43Z</time>
      </trkpt>
      <trkpt lat="42.36942" lon="2.18015">
        <ele>1302.2</ele>
        <time>2024-09-25T09:18:44Z</time>
      </trkpt>
      <trkpt lat="42.36941" lon="2.18018">
        <ele>1302.2</ele>
        <time>2024-09-25T09:18:45Z</time>
      </trkpt>
      <trkpt lat="42.36941" lon="2.18019">
        <ele>1302.2</ele>
        <time>2024-09-25T09:18:46Z</time>
      </trkpt>
      <trkpt lat="42.36941" lon="2.1802">
        <ele>1302.2</ele>
        <time>2024-09-25T09:18:47Z</time>
      </trkpt>
      <trkpt lat="42.36941" lon="2.18021">
        <ele>1302.2</ele>
        <time>2024-09-25T09:18:48Z</time>
      </trkpt>
      <trkpt lat="42.36942" lon="2.18022">
        <ele>1302.2</ele>
        <time>2024-09-25T09:18:49Z</time>
      </trkpt>
      <trkpt lat="42.36942" lon="2.18022">
        <ele>1302.2</ele>
        <time>2024-09-25T09:18:50Z</time>
      </trkpt>
      <trkpt lat="42.36942" lon="2.18021">
        <ele>1302.2</ele>
        <time>2024-09-25T09:18:51Z</time>
      </trkpt>
      <trkpt lat="42.36942" lon="2.18021">
        <ele>1302.2</ele>
        <time>2024-09-25T09:18:52Z</time>
      </trkpt>
      <trkpt lat="42.36941" lon="2.18021">
        <ele>1302.2</ele>
        <time>2024-09-25T09:18:53Z</time>
      </trkpt>
      <trkpt lat="42.36941" lon="2.18021">
        <ele>1302.2</ele>
        <time>2024-09-25T09:18:54Z</time>
      </trkpt>
      <trkpt lat="42.36941" lon="2.18021">
        <ele>1302.2</ele>
        <time>2024-09-25T09:18:55Z</time>
      </trkpt>
      <trkpt lat="42.36941" lon="2.1802">
        <ele>1302.2</ele>
        <time>2024-09-25T09:18:56Z</time>
      </trkpt>
      <trkpt lat="42.36941" lon="2.1802">
        <ele>1302.2</ele>
        <time>2024-09-25T09:18:57Z</time>
      </trkpt>
      <trkpt lat="42.36942" lon="2.18021">
        <ele>1302.2</ele>
        <time>2024-09-25T09:18:58Z</time>
      </trkpt>
      <trkpt lat="42.36942" lon="2.18021">
        <ele>1302.2</ele>
        <time>2024-09-25T09:18:59Z</time>
      </trkpt>
      <trkpt lat="42.36942" lon="2.1802">
        <ele>1302.2</ele>
        <time>2024-09-25T09:19:00Z</time>
      </trkpt>
      <trkpt lat="42.36942" lon="2.18019">
        <ele>1302.3</ele>
        <time>2024-09-25T09:19:01Z</time>
      </trkpt>
      <trkpt lat="42.36942" lon="2.18019">
        <ele>1302.3</ele>
        <time>2024-09-25T09:19:02Z</time>
      </trkpt>
      <trkpt lat="42.36942" lon="2.18019">
        <ele>1302.3</ele>
        <time>2024-09-25T09:19:03Z</time>
      </trkpt>
      <trkpt lat="42.36942" lon="2.18019">
        <ele>1302.3</ele>
        <time>2024-09-25T09:19:04Z</time>
      </trkpt>
      <trkpt lat="42.36942" lon="2.18019">
        <ele>1302.3</ele>
        <time>2024-09-25T09:19:05Z</time>
      </trkpt>
      <trkpt lat="42.36942" lon="2.18019">
        <ele>1302.3</ele>
        <time>2024-09-25T09:19:06Z</time>
      </trkpt>
      <trkpt lat="42.36942" lon="2.18019">
        <ele>1302.3</ele>
        <time>2024-09-25T09:19:07Z</time>
      </trkpt>
      <trkpt lat="42.36942" lon="2.18019">
        <ele>1302.3</ele>
        <time>2024-09-25T09:19:08Z</time>
      </trkpt>
      <trkpt lat="42.36942" lon="2.18019">
        <ele>1302.3</ele>
        <time>2024-09-25T09:19:09Z</time>
      </trkpt>
      <trkpt lat="42.36942" lon="2.18019">
        <ele>1302.3</ele>
        <time>2024-09-25T09:19:10Z</time>
      </trkpt>
      <trkpt lat="42.36942" lon="2.18019">
        <ele>1302.3</ele>
        <time>2024-09-25T09:19:11Z</time>
      </trkpt>
      <trkpt lat="42.36942" lon="2.18019">
        <ele>1302.3</ele>
        <time>2024-09-25T09:19:12Z</time>
      </trkpt>
      <trkpt lat="42.36942" lon="2.18019">
        <ele>1302.3</ele>
        <time>2024-09-25T09:19:13Z</time>
      </trkpt>
      <trkpt lat="42.36942" lon="2.18019">
        <ele>1302.3</ele>
        <time>2024-09-25T09:19:14Z</time>
      </trkpt>
      <trkpt lat="42.36942" lon="2.18019">
        <ele>1302.3</ele>
        <time>2024-09-25T09:19:15Z</time>
      </trkpt>
      <trkpt lat="42.36942" lon="2.18019">
        <ele>1302.3</ele>
        <time>2024-09-25T09:19:16Z</time>
      </trkpt>
      <trkpt lat="42.36942" lon="2.18019">
        <ele>1302.3</ele>
        <time>2024-09-25T09:19:17Z</time>
      </trkpt>
      <trkpt lat="42.36942" lon="2.18019">
        <ele>1302.3</ele>
        <time>2024-09-25T09:19:18Z</time>
      </trkpt>
      <trkpt lat="42.36941" lon="2.18019">
        <ele>1302.3</ele>
        <time>2024-09-25T09:19:19Z</time>
      </trkpt>
      <trkpt lat="42.3694" lon="2.18019">
        <ele>1302.3</ele>
        <time>2024-09-25T09:19:20Z</time>
      </trkpt>
      <trkpt lat="42.3694" lon="2.18018">
        <ele>1302.3</ele>
        <time>2024-09-25T09:19:21Z</time>
      </trkpt>
      <trkpt lat="42.36939" lon="2.18018">
        <ele>1302.4</ele>
        <time>2024-09-25T09:19:22Z</time>
      </trkpt>
      <trkpt lat="42.36939" lon="2.18019">
        <ele>1302.4</ele>
        <time>2024-09-25T09:19:23Z</time>
      </trkpt>
      <trkpt lat="42.36939" lon="2.18019">
        <ele>1302.4</ele>
        <time>2024-09-25T09:19:24Z</time>
      </trkpt>
      <trkpt lat="42.36939" lon="2.18018">
        <ele>1302.4</ele>
        <time>2024-09-25T09:19:25Z</time>
      </trkpt>
      <trkpt lat="42.36938" lon="2.18018">
        <ele>1302.4</ele>
        <time>2024-09-25T09:19:26Z</time>
      </trkpt>
      <trkpt lat="42.36937" lon="2.18018">
        <ele>1302.5</ele>
        <time>2024-09-25T09:19:27Z</time>
      </trkpt>
      <trkpt lat="42.36936" lon="2.18018">
        <ele>1302.5</ele>
        <time>2024-09-25T09:19:28Z</time>
      </trkpt>
      <trkpt lat="42.36935" lon="2.18018">
        <ele>1302.5</ele>
        <time>2024-09-25T09:19:29Z</time>
      </trkpt>
      <trkpt lat="42.36935" lon="2.18018">
        <ele>1302.6</ele>
        <time>2024-09-25T09:19:30Z</time>
      </trkpt>
      <trkpt lat="42.36935" lon="2.18018">
        <ele>1302.6</ele>
        <time>2024-09-25T09:19:31Z</time>
      </trkpt>
      <trkpt lat="42.36935" lon="2.18019">
        <ele>1302.6</ele>
        <time>2024-09-25T09:19:32Z</time>
      </trkpt>
      <trkpt lat="42.36935" lon="2.18019">
        <ele>1302.6</ele>
        <time>2024-09-25T09:19:33Z</time>
      </trkpt>
      <trkpt lat="42.36935" lon="2.18019">
        <ele>1302.6</ele>
        <time>2024-09-25T09:19:34Z</time>
      </trkpt>
      <trkpt lat="42.36935" lon="2.18019">
        <ele>1302.6</ele>
        <time>2024-09-25T09:19:35Z</time>
      </trkpt>
      <trkpt lat="42.36935" lon="2.18019">
        <ele>1302.6</ele>
        <time>2024-09-25T09:19:36Z</time>
      </trkpt>
      <trkpt lat="42.36935" lon="2.18019">
        <ele>1302.6</ele>
        <time>2024-09-25T09:19:37Z</time>
      </trkpt>
      <trkpt lat="42.36934" lon="2.18019">
        <ele>1302.6</ele>
        <time>2024-09-25T09:19:38Z</time>
      </trkpt>
      <trkpt lat="42.36934" lon="2.18019">
        <ele>1302.6</ele>
        <time>2024-09-25T09:19:39Z</time>
      </trkpt>
      <trkpt lat="42.36934" lon="2.18019">
        <ele>1302.6</ele>
        <time>2024-09-25T09:19:40Z</time>
      </trkpt>
      <trkpt lat="42.36934" lon="2.18019">
        <ele>1302.6</ele>
        <time>2024-09-25T09:19:41Z</time>
      </trkpt>
      <trkpt lat="42.36934" lon="2.18019">
        <ele>1302.6</ele>
        <time>2024-09-25T09:19:42Z</time>
      </trkpt>
      <trkpt lat="42.36934" lon="2.18019">
        <ele>1302.6</ele>
        <time>2024-09-25T09:19:43Z</time>
      </trkpt>
      <trkpt lat="42.36934" lon="2.1802">
        <ele>1302.7</ele>
        <time>2024-09-25T09:19:44Z</time>
      </trkpt>
      <trkpt lat="42.36934" lon="2.1802">
        <ele>1302.7</ele>
        <time>2024-09-25T09:19:45Z</time>
      </trkpt>
      <trkpt lat="42.36934" lon="2.1802">
        <ele>1302.7</ele>
        <time>2024-09-25T09:19:46Z</time>
      </trkpt>
      <trkpt lat="42.36934" lon="2.1802">
        <ele>1302.7</ele>
        <time>2024-09-25T09:19:47Z</time>
      </trkpt>
      <trkpt lat="42.36934" lon="2.1802">
        <ele>1302.7</ele>
        <time>2024-09-25T09:19:48Z</time>
      </trkpt>
      <trkpt lat="42.36934" lon="2.1802">
        <ele>1302.7</ele>
        <time>2024-09-25T09:19:49Z</time>
      </trkpt>
      <trkpt lat="42.36934" lon="2.1802">
        <ele>1302.7</ele>
        <time>2024-09-25T09:19:50Z</time>
      </trkpt>
      <trkpt lat="42.36934" lon="2.1802">
        <ele>1302.7</ele>
        <time>2024-09-25T09:19:51Z</time>
      </trkpt>
      <trkpt lat="42.36934" lon="2.1802">
        <ele>1302.7</ele>
        <time>2024-09-25T09:19:52Z</time>
      </trkpt>
      <trkpt lat="42.36933" lon="2.1802">
        <ele>1302.7</ele>
        <time>2024-09-25T09:19:53Z</time>
      </trkpt>
      <trkpt lat="42.36933" lon="2.1802">
        <ele>1302.7</ele>
        <time>2024-09-25T09:19:54Z</time>
      </trkpt>
      <trkpt lat="42.36933" lon="2.1802">
        <ele>1302.7</ele>
        <time>2024-09-25T09:19:55Z</time>
      </trkpt>
      <trkpt lat="42.36933" lon="2.1802">
        <ele>1302.7</ele>
        <time>2024-09-25T09:19:56Z</time>
      </trkpt>
      <trkpt lat="42.36933" lon="2.1802">
        <ele>1302.7</ele>
        <time>2024-09-25T09:19:57Z</time>
      </trkpt>
      <trkpt lat="42.36933" lon="2.18021">
        <ele>1302.8</ele>
        <time>2024-09-25T09:19:58Z</time>
      </trkpt>
      <trkpt lat="42.36933" lon="2.18021">
        <ele>1302.8</ele>
        <time>2024-09-25T09:19:59Z</time>
      </trkpt>
      <trkpt lat="42.36933" lon="2.18021">
        <ele>1302.8</ele>
        <time>2024-09-25T09:20:00Z</time>
      </trkpt>
      <trkpt lat="42.36933" lon="2.18021">
        <ele>1302.8</ele>
        <time>2024-09-25T09:20:01Z</time>
      </trkpt>
      <trkpt lat="42.36933" lon="2.18021">
        <ele>1302.8</ele>
        <time>2024-09-25T09:20:02Z</time>
      </trkpt>
      <trkpt lat="42.36933" lon="2.18021">
        <ele>1302.8</ele>
        <time>2024-09-25T09:20:03Z</time>
      </trkpt>
      <trkpt lat="42.36933" lon="2.18021">
        <ele>1302.8</ele>
        <time>2024-09-25T09:20:04Z</time>
      </trkpt>
      <trkpt lat="42.36933" lon="2.18021">
        <ele>1302.8</ele>
        <time>2024-09-25T09:20:05Z</time>
      </trkpt>
      <trkpt lat="42.36933" lon="2.18021">
        <ele>1302.8</ele>
        <time>2024-09-25T09:20:06Z</time>
      </trkpt>
      <trkpt lat="42.36933" lon="2.18021">
        <ele>1302.8</ele>
        <time>2024-09-25T09:20:07Z</time>
      </trkpt>
      <trkpt lat="42.36933" lon="2.18021">
        <ele>1302.8</ele>
        <time>2024-09-25T09:20:08Z</time>
      </trkpt>
      <trkpt lat="42.36932" lon="2.18021">
        <ele>1302.8</ele>
        <time>2024-09-25T09:20:09Z</time>
      </trkpt>
      <trkpt lat="42.36932" lon="2.18021">
        <ele>1302.8</ele>
        <time>2024-09-25T09:20:10Z</time>
      </trkpt>
      <trkpt lat="42.36932" lon="2.18021">
        <ele>1302.8</ele>
        <time>2024-09-25T09:20:11Z</time>
      </trkpt>
      <trkpt lat="42.36932" lon="2.18021">
        <ele>1302.8</ele>
        <time>2024-09-25T09:20:12Z</time>
      </trkpt>
      <trkpt lat="42.36932" lon="2.18022">
        <ele>1302.9</ele>
        <time>2024-09-25T09:20:13Z</time>
      </trkpt>
      <trkpt lat="42.36932" lon="2.18022">
        <ele>1302.9</ele>
        <time>2024-09-25T09:20:14Z</time>
      </trkpt>
      <trkpt lat="42.36932" lon="2.18022">
        <ele>1302.9</ele>
        <time>2024-09-25T09:20:15Z</time>
      </trkpt>
      <trkpt lat="42.36932" lon="2.18022">
        <ele>1302.9</ele>
        <time>2024-09-25T09:20:16Z</time>
      </trkpt>
      <trkpt lat="42.36932" lon="2.18022">
        <ele>1302.9</ele>
        <time>2024-09-25T09:20:17Z</time>
      </trkpt>
      <trkpt lat="42.36932" lon="2.18022">
        <ele>1302.9</ele>
        <time>2024-09-25T09:20:18Z</time>
      </trkpt>
      <trkpt lat="42.36931" lon="2.18024">
        <ele>1303</ele>
        <time>2024-09-25T09:20:19Z</time>
      </trkpt>
      <trkpt lat="42.36931" lon="2.18025">
        <ele>1303.1</ele>
        <time>2024-09-25T09:20:20Z</time>
      </trkpt>
      <trkpt lat="42.36932" lon="2.18027">
        <ele>1303.3</ele>
        <time>2024-09-25T09:20:22Z</time>
      </trkpt>
      <trkpt lat="42.36933" lon="2.18027">
        <ele>1303.4</ele>
        <time>2024-09-25T09:20:23Z</time>
      </trkpt>
      <trkpt lat="42.36934" lon="2.18028">
        <ele>1303.5</ele>
        <time>2024-09-25T09:20:24Z</time>
      </trkpt>
      <trkpt lat="42.36935" lon="2.18028">
        <ele>1303.6</ele>
        <time>2024-09-25T09:20:25Z</time>
      </trkpt>
      <trkpt lat="42.36936" lon="2.18029">
        <ele>1303.7</ele>
        <time>2024-09-25T09:20:26Z</time>
      </trkpt>
      <trkpt lat="42.36937" lon="2.18031">
        <ele>1303.9</ele>
        <time>2024-09-25T09:20:27Z</time>
      </trkpt>
      <trkpt lat="42.36937" lon="2.18032">
        <ele>1304</ele>
        <time>2024-09-25T09:20:28Z</time>
      </trkpt>
      <trkpt lat="42.36937" lon="2.18033">
        <ele>1304.2</ele>
        <time>2024-09-25T09:20:29Z</time>
      </trkpt>
      <trkpt lat="42.36938" lon="2.18035">
        <ele>1304.3</ele>
        <time>2024-09-25T09:20:30Z</time>
      </trkpt>
      <trkpt lat="42.36939" lon="2.18036">
        <ele>1304.5</ele>
        <time>2024-09-25T09:20:31Z</time>
      </trkpt>
      <trkpt lat="42.36939" lon="2.18037">
        <ele>1304.6</ele>
        <time>2024-09-25T09:20:32Z</time>
      </trkpt>
      <trkpt lat="42.3694" lon="2.18038">
        <ele>1304.8</ele>
        <time>2024-09-25T09:20:33Z</time>
      </trkpt>
      <trkpt lat="42.3694" lon="2.18038">
        <ele>1304.8</ele>
        <time>2024-09-25T09:20:34Z</time>
      </trkpt>
      <trkpt lat="42.3694" lon="2.18039">
        <ele>1304.9</ele>
        <time>2024-09-25T09:20:35Z</time>
      </trkpt>
      <trkpt lat="42.3694" lon="2.18039">
        <ele>1305</ele>
        <time>2024-09-25T09:20:36Z</time>
      </trkpt>
      <trkpt lat="42.3694" lon="2.1804">
        <ele>1305</ele>
        <time>2024-09-25T09:20:37Z</time>
      </trkpt>
      <trkpt lat="42.3694" lon="2.1804">
        <ele>1305</ele>
        <time>2024-09-25T09:20:38Z</time>
      </trkpt>
      <trkpt lat="42.3694" lon="2.1804">
        <ele>1305</ele>
        <time>2024-09-25T09:20:39Z</time>
      </trkpt>
      <trkpt lat="42.3694" lon="2.1804">
        <ele>1305</ele>
        <time>2024-09-25T09:20:40Z</time>
      </trkpt>
      <trkpt lat="42.36939" lon="2.1804">
        <ele>1305.1</ele>
        <time>2024-09-25T09:20:41Z</time>
      </trkpt>
      <trkpt lat="42.36939" lon="2.1804">
        <ele>1305.2</ele>
        <time>2024-09-25T09:20:42Z</time>
      </trkpt>
      <trkpt lat="42.36938" lon="2.1804">
        <ele>1305.3</ele>
        <time>2024-09-25T09:20:43Z</time>
      </trkpt>
      <trkpt lat="42.36938" lon="2.1804">
        <ele>1305.4</ele>
        <time>2024-09-25T09:20:44Z</time>
      </trkpt>
      <trkpt lat="42.36937" lon="2.1804">
        <ele>1305.5</ele>
        <time>2024-09-25T09:20:45Z</time>
      </trkpt>
      <trkpt lat="42.36937" lon="2.1804">
        <ele>1305.6</ele>
        <time>2024-09-25T09:20:46Z</time>
      </trkpt>
      <trkpt lat="42.36936" lon="2.18041">
        <ele>1305.6</ele>
        <time>2024-09-25T09:20:47Z</time>
      </trkpt>
      <trkpt lat="42.36936" lon="2.18041">
        <ele>1305.7</ele>
        <time>2024-09-25T09:20:48Z</time>
      </trkpt>
      <trkpt lat="42.36935" lon="2.18041">
        <ele>1305.8</ele>
        <time>2024-09-25T09:20:49Z</time>
      </trkpt>
      <trkpt lat="42.36935" lon="2.18041">
        <ele>1305.8</ele>
        <time>2024-09-25T09:20:50Z</time>
      </trkpt>
      <trkpt lat="42.36935" lon="2.18041">
        <ele>1305.9</ele>
        <time>2024-09-25T09:20:51Z</time>
      </trkpt>
      <trkpt lat="42.36934" lon="2.18041">
        <ele>1305.9</ele>
        <time>2024-09-25T09:20:52Z</time>
      </trkpt>
      <trkpt lat="42.36934" lon="2.18041">
        <ele>1306</ele>
        <time>2024-09-25T09:20:53Z</time>
      </trkpt>
      <trkpt lat="42.36934" lon="2.18041">
        <ele>1306.1</ele>
        <time>2024-09-25T09:20:54Z</time>
      </trkpt>
      <trkpt lat="42.36933" lon="2.1804">
        <ele>1306.1</ele>
        <time>2024-09-25T09:20:55Z</time>
      </trkpt>
      <trkpt lat="42.36933" lon="2.1804">
        <ele>1306.3</ele>
        <time>2024-09-25T09:20:56Z</time>
      </trkpt>
      <trkpt lat="42.36932" lon="2.1804">
        <ele>1306.4</ele>
        <time>2024-09-25T09:20:57Z</time>
      </trkpt>
      <trkpt lat="42.36931" lon="2.18041">
        <ele>1306.5</ele>
        <time>2024-09-25T09:20:58Z</time>
      </trkpt>
      <trkpt lat="42.36931" lon="2.18041">
        <ele>1306.6</ele>
        <time>2024-09-25T09:20:59Z</time>
      </trkpt>
      <trkpt lat="42.3693" lon="2.18041">
        <ele>1306.7</ele>
        <time>2024-09-25T09:21:00Z</time>
      </trkpt>
      <trkpt lat="42.3693" lon="2.18041">
        <ele>1306.7</ele>
        <time>2024-09-25T09:21:01Z</time>
      </trkpt>
      <trkpt lat="42.36931" lon="2.18041">
        <ele>1306.7</ele>
        <time>2024-09-25T09:21:02Z</time>
      </trkpt>
      <trkpt lat="42.36931" lon="2.18041">
        <ele>1306.8</ele>
        <time>2024-09-25T09:21:03Z</time>
      </trkpt>
      <trkpt lat="42.36931" lon="2.18041">
        <ele>1306.8</ele>
        <time>2024-09-25T09:21:04Z</time>
      </trkpt>
      <trkpt lat="42.36931" lon="2.18041">
        <ele>1306.9</ele>
        <time>2024-09-25T09:21:05Z</time>
      </trkpt>
      <trkpt lat="42.36932" lon="2.18041">
        <ele>1306.9</ele>
        <time>2024-09-25T09:21:06Z</time>
      </trkpt>
      <trkpt lat="42.36932" lon="2.18041">
        <ele>1306.9</ele>
        <time>2024-09-25T09:21:07Z</time>
      </trkpt>
      <trkpt lat="42.36932" lon="2.18041">
        <ele>1307</ele>
        <time>2024-09-25T09:21:08Z</time>
      </trkpt>
      <trkpt lat="42.36932" lon="2.18041">
        <ele>1307</ele>
        <time>2024-09-25T09:21:09Z</time>
      </trkpt>
      <trkpt lat="42.36932" lon="2.18042">
        <ele>1307</ele>
        <time>2024-09-25T09:21:10Z</time>
      </trkpt>
      <trkpt lat="42.36932" lon="2.18042">
        <ele>1307</ele>
        <time>2024-09-25T09:21:11Z</time>
      </trkpt>
      <trkpt lat="42.36932" lon="2.18042">
        <ele>1307</ele>
        <time>2024-09-25T09:21:12Z</time>
      </trkpt>
      <trkpt lat="42.36932" lon="2.18042">
        <ele>1307.1</ele>
        <time>2024-09-25T09:21:13Z</time>
      </trkpt>
      <trkpt lat="42.36932" lon="2.18042">
        <ele>1307.1</ele>
        <time>2024-09-25T09:21:14Z</time>
      </trkpt>
      <trkpt lat="42.36932" lon="2.18042">
        <ele>1307.1</ele>
        <time>2024-09-25T09:21:15Z</time>
      </trkpt>
      <trkpt lat="42.36932" lon="2.18042">
        <ele>1307.1</ele>
        <time>2024-09-25T09:21:16Z</time>
      </trkpt>
      <trkpt lat="42.36931" lon="2.18042">
        <ele>1307.1</ele>
        <time>2024-09-25T09:21:17Z</time>
      </trkpt>
      <trkpt lat="42.36931" lon="2.18042">
        <ele>1307.1</ele>
        <time>2024-09-25T09:21:18Z</time>
      </trkpt>
      <trkpt lat="42.36931" lon="2.18042">
        <ele>1307.1</ele>
        <time>2024-09-25T09:21:19Z</time>
      </trkpt>
      <trkpt lat="42.36931" lon="2.18042">
        <ele>1307.2</ele>
        <time>2024-09-25T09:21:20Z</time>
      </trkpt>
      <trkpt lat="42.36931" lon="2.18042">
        <ele>1307.2</ele>
        <time>2024-09-25T09:21:21Z</time>
      </trkpt>
      <trkpt lat="42.36931" lon="2.18042">
        <ele>1307.2</ele>
        <time>2024-09-25T09:21:22Z</time>
      </trkpt>
      <trkpt lat="42.36931" lon="2.18042">
        <ele>1307.2</ele>
        <time>2024-09-25T09:21:23Z</time>
      </trkpt>
      <trkpt lat="42.36932" lon="2.18043">
        <ele>1307.3</ele>
        <time>2024-09-25T09:21:24Z</time>
      </trkpt>
      <trkpt lat="42.36932" lon="2.18043">
        <ele>1307.4</ele>
        <time>2024-09-25T09:21:25Z</time>
      </trkpt>
      <trkpt lat="42.36932" lon="2.18043">
        <ele>1307.4</ele>
        <time>2024-09-25T09:21:26Z</time>
      </trkpt>
      <trkpt lat="42.36933" lon="2.18043">
        <ele>1307.5</ele>
        <time>2024-09-25T09:21:27Z</time>
      </trkpt>
      <trkpt lat="42.36933" lon="2.18043">
        <ele>1307.6</ele>
        <time>2024-09-25T09:21:28Z</time>
      </trkpt>
      <trkpt lat="42.36933" lon="2.18043">
        <ele>1307.6</ele>
        <time>2024-09-25T09:21:29Z</time>
      </trkpt>
      <trkpt lat="42.36933" lon="2.18044">
        <ele>1307.6</ele>
        <time>2024-09-25T09:21:30Z</time>
      </trkpt>
      <trkpt lat="42.36933" lon="2.18044">
        <ele>1307.7</ele>
        <time>2024-09-25T09:21:31Z</time>
      </trkpt>
      <trkpt lat="42.36933" lon="2.18044">
        <ele>1307.7</ele>
        <time>2024-09-25T09:21:32Z</time>
      </trkpt>
      <trkpt lat="42.36933" lon="2.18044">
        <ele>1307.8</ele>
        <time>2024-09-25T09:21:33Z</time>
      </trkpt>
      <trkpt lat="42.36934" lon="2.18044">
        <ele>1307.8</ele>
        <time>2024-09-25T09:21:34Z</time>
      </trkpt>
      <trkpt lat="42.36934" lon="2.18045">
        <ele>1307.9</ele>
        <time>2024-09-25T09:21:35Z</time>
      </trkpt>
      <trkpt lat="42.36934" lon="2.18046">
        <ele>1308.1</ele>
        <time>2024-09-25T09:21:36Z</time>
      </trkpt>
      <trkpt lat="42.36935" lon="2.18047">
        <ele>1308.3</ele>
        <time>2024-09-25T09:21:37Z</time>
      </trkpt>
      <trkpt lat="42.36935" lon="2.18049">
        <ele>1308.7</ele>
        <time>2024-09-25T09:21:38Z</time>
      </trkpt>
      <trkpt lat="42.36935" lon="2.1805">
        <ele>1308.9</ele>
        <time>2024-09-25T09:21:39Z</time>
      </trkpt>
      <trkpt lat="42.36935" lon="2.18052">
        <ele>1309.1</ele>
        <time>2024-09-25T09:21:40Z</time>
      </trkpt>
      <trkpt lat="42.36935" lon="2.18053">
        <ele>1309.3</ele>
        <time>2024-09-25T09:21:41Z</time>
      </trkpt>
      <trkpt lat="42.36936" lon="2.18056">
        <ele>1309.9</ele>
        <time>2024-09-25T09:21:42Z</time>
      </trkpt>
      <trkpt lat="42.36938" lon="2.18061">
        <ele>1310.8</ele>
        <time>2024-09-25T09:21:43Z</time>
      </trkpt>
      <trkpt lat="42.36938" lon="2.18062">
        <ele>1311.1</ele>
        <time>2024-09-25T09:21:44Z</time>
      </trkpt>
      <trkpt lat="42.36941" lon="2.18065">
        <ele>1311.9</ele>
        <time>2024-09-25T09:21:45Z</time>
      </trkpt>
      <trkpt lat="42.36942" lon="2.18065">
        <ele>1312.1</ele>
        <time>2024-09-25T09:21:46Z</time>
      </trkpt>
      <trkpt lat="42.36943" lon="2.18066">
        <ele>1312.4</ele>
        <time>2024-09-25T09:21:47Z</time>
      </trkpt>
      <trkpt lat="42.36943" lon="2.18067">
        <ele>1312.5</ele>
        <time>2024-09-25T09:21:48Z</time>
      </trkpt>
      <trkpt lat="42.36944" lon="2.18067">
        <ele>1312.7</ele>
        <time>2024-09-25T09:21:49Z</time>
      </trkpt>
      <trkpt lat="42.36944" lon="2.18067">
        <ele>1312.7</ele>
        <time>2024-09-25T09:21:50Z</time>
      </trkpt>
      <trkpt lat="42.36943" lon="2.18067">
        <ele>1312.8</ele>
        <time>2024-09-25T09:21:51Z</time>
      </trkpt>
      <trkpt lat="42.36943" lon="2.18068">
        <ele>1313</ele>
        <time>2024-09-25T09:21:52Z</time>
      </trkpt>
      <trkpt lat="42.36943" lon="2.18069">
        <ele>1313.2</ele>
        <time>2024-09-25T09:21:53Z</time>
      </trkpt>
      <trkpt lat="42.36943" lon="2.1807">
        <ele>1313.3</ele>
        <time>2024-09-25T09:21:54Z</time>
      </trkpt>
      <trkpt lat="42.36943" lon="2.1807">
        <ele>1313.3</ele>
        <time>2024-09-25T09:21:55Z</time>
      </trkpt>
      <trkpt lat="42.36943" lon="2.1807">
        <ele>1313.4</ele>
        <time>2024-09-25T09:21:56Z</time>
      </trkpt>
      <trkpt lat="42.36943" lon="2.1807">
        <ele>1313.4</ele>
        <time>2024-09-25T09:21:57Z</time>
      </trkpt>
      <trkpt lat="42.36943" lon="2.1807">
        <ele>1313.4</ele>
        <time>2024-09-25T09:21:58Z</time>
      </trkpt>
      <trkpt lat="42.36943" lon="2.1807">
        <ele>1313.4</ele>
        <time>2024-09-25T09:21:59Z</time>
      </trkpt>
      <trkpt lat="42.36943" lon="2.1807">
        <ele>1313.4</ele>
        <time>2024-09-25T09:22:00Z</time>
      </trkpt>
      <trkpt lat="42.36943" lon="2.1807">
        <ele>1313.4</ele>
        <time>2024-09-25T09:22:01Z</time>
      </trkpt>
      <trkpt lat="42.36943" lon="2.1807">
        <ele>1313.4</ele>
        <time>2024-09-25T09:22:02Z</time>
      </trkpt>
      <trkpt lat="42.36943" lon="2.1807">
        <ele>1313.4</ele>
        <time>2024-09-25T09:22:03Z</time>
      </trkpt>
      <trkpt lat="42.36943" lon="2.1807">
        <ele>1313.5</ele>
        <time>2024-09-25T09:22:04Z</time>
      </trkpt>
      <trkpt lat="42.36943" lon="2.1807">
        <ele>1313.5</ele>
        <time>2024-09-25T09:22:05Z</time>
      </trkpt>
      <trkpt lat="42.36943" lon="2.1807">
        <ele>1313.5</ele>
        <time>2024-09-25T09:22:06Z</time>
      </trkpt>
      <trkpt lat="42.36943" lon="2.1807">
        <ele>1313.5</ele>
        <time>2024-09-25T09:22:07Z</time>
      </trkpt>
      <trkpt lat="42.36943" lon="2.1807">
        <ele>1313.5</ele>
        <time>2024-09-25T09:22:08Z</time>
      </trkpt>
      <trkpt lat="42.36943" lon="2.1807">
        <ele>1313.5</ele>
        <time>2024-09-25T09:22:09Z</time>
      </trkpt>
      <trkpt lat="42.36943" lon="2.1807">
        <ele>1313.5</ele>
        <time>2024-09-25T09:22:10Z</time>
      </trkpt>
      <trkpt lat="42.36943" lon="2.1807">
        <ele>1313.5</ele>
        <time>2024-09-25T09:22:11Z</time>
      </trkpt>
      <trkpt lat="42.36943" lon="2.1807">
        <ele>1313.5</ele>
        <time>2024-09-25T09:22:12Z</time>
      </trkpt>
      <trkpt lat="42.36943" lon="2.18069">
        <ele>1313.6</ele>
        <time>2024-09-25T09:22:13Z</time>
      </trkpt>
      <trkpt lat="42.36943" lon="2.18069">
        <ele>1313.6</ele>
        <time>2024-09-25T09:22:14Z</time>
      </trkpt>
      <trkpt lat="42.36943" lon="2.1807">
        <ele>1313.6</ele>
        <time>2024-09-25T09:22:15Z</time>
      </trkpt>
      <trkpt lat="42.36943" lon="2.1807">
        <ele>1313.7</ele>
        <time>2024-09-25T09:22:16Z</time>
      </trkpt>
      <trkpt lat="42.36943" lon="2.1807">
        <ele>1313.7</ele>
        <time>2024-09-25T09:22:17Z</time>
      </trkpt>
      <trkpt lat="42.36943" lon="2.1807">
        <ele>1313.7</ele>
        <time>2024-09-25T09:22:18Z</time>
      </trkpt>
      <trkpt lat="42.36943" lon="2.1807">
        <ele>1313.7</ele>
        <time>2024-09-25T09:22:19Z</time>
      </trkpt>
      <trkpt lat="42.36943" lon="2.1807">
        <ele>1313.7</ele>
        <time>2024-09-25T09:22:20Z</time>
      </trkpt>
      <trkpt lat="42.36943" lon="2.1807">
        <ele>1313.7</ele>
        <time>2024-09-25T09:22:21Z</time>
      </trkpt>
      <trkpt lat="42.36943" lon="2.1807">
        <ele>1313.7</ele>
        <time>2024-09-25T09:22:22Z</time>
      </trkpt>
      <trkpt lat="42.36943" lon="2.1807">
        <ele>1313.7</ele>
        <time>2024-09-25T09:22:23Z</time>
      </trkpt>
      <trkpt lat="42.36943" lon="2.1807">
        <ele>1313.7</ele>
        <time>2024-09-25T09:22:24Z</time>
      </trkpt>
      <trkpt lat="42.36943" lon="2.18069">
        <ele>1313.7</ele>
        <time>2024-09-25T09:22:25Z</time>
      </trkpt>
      <trkpt lat="42.36943" lon="2.18069">
        <ele>1313.7</ele>
        <time>2024-09-25T09:22:26Z</time>
      </trkpt>
      <trkpt lat="42.36943" lon="2.18069">
        <ele>1313.7</ele>
        <time>2024-09-25T09:22:27Z</time>
      </trkpt>
      <trkpt lat="42.36943" lon="2.18069">
        <ele>1313.7</ele>
        <time>2024-09-25T09:22:28Z</time>
      </trkpt>
      <trkpt lat="42.36943" lon="2.18069">
        <ele>1313.7</ele>
        <time>2024-09-25T09:22:29Z</time>
      </trkpt>
      <trkpt lat="42.36943" lon="2.18069">
        <ele>1313.7</ele>
        <time>2024-09-25T09:22:30Z</time>
      </trkpt>
      <trkpt lat="42.36943" lon="2.18069">
        <ele>1313.8</ele>
        <time>2024-09-25T09:22:31Z</time>
      </trkpt>
      <trkpt lat="42.36943" lon="2.18069">
        <ele>1313.8</ele>
        <time>2024-09-25T09:22:32Z</time>
      </trkpt>
      <trkpt lat="42.36943" lon="2.18069">
        <ele>1313.8</ele>
        <time>2024-09-25T09:22:33Z</time>
      </trkpt>
      <trkpt lat="42.36943" lon="2.18069">
        <ele>1313.8</ele>
        <time>2024-09-25T09:22:34Z</time>
      </trkpt>
      <trkpt lat="42.36943" lon="2.18069">
        <ele>1313.8</ele>
        <time>2024-09-25T09:22:35Z</time>
      </trkpt>
      <trkpt lat="42.36943" lon="2.18069">
        <ele>1313.8</ele>
        <time>2024-09-25T09:22:36Z</time>
      </trkpt>
      <trkpt lat="42.36943" lon="2.18069">
        <ele>1313.8</ele>
        <time>2024-09-25T09:22:37Z</time>
      </trkpt>
      <trkpt lat="42.36943" lon="2.18069">
        <ele>1313.8</ele>
        <time>2024-09-25T09:22:38Z</time>
      </trkpt>
      <trkpt lat="42.36943" lon="2.18069">
        <ele>1313.8</ele>
        <time>2024-09-25T09:22:39Z</time>
      </trkpt>
      <trkpt lat="42.36943" lon="2.18069">
        <ele>1313.8</ele>
        <time>2024-09-25T09:22:40Z</time>
      </trkpt>
      <trkpt lat="42.36943" lon="2.18069">
        <ele>1313.8</ele>
        <time>2024-09-25T09:22:41Z</time>
      </trkpt>
      <trkpt lat="42.36943" lon="2.18069">
        <ele>1313.8</ele>
        <time>2024-09-25T09:22:42Z</time>
      </trkpt>
      <trkpt lat="42.36943" lon="2.18069">
        <ele>1313.8</ele>
        <time>2024-09-25T09:22:43Z</time>
      </trkpt>
      <trkpt lat="42.36943" lon="2.18069">
        <ele>1313.8</ele>
        <time>2024-09-25T09:22:44Z</time>
      </trkpt>
      <trkpt lat="42.36943" lon="2.18069">
        <ele>1313.8</ele>
        <time>2024-09-25T09:22:45Z</time>
      </trkpt>
      <trkpt lat="42.36943" lon="2.18069">
        <ele>1313.8</ele>
        <time>2024-09-25T09:22:46Z</time>
      </trkpt>
      <trkpt lat="42.36943" lon="2.18069">
        <ele>1313.8</ele>
        <time>2024-09-25T09:22:47Z</time>
      </trkpt>
      <trkpt lat="42.36943" lon="2.18069">
        <ele>1313.8</ele>
        <time>2024-09-25T09:22:48Z</time>
      </trkpt>
      <trkpt lat="42.36943" lon="2.18069">
        <ele>1313.8</ele>
        <time>2024-09-25T09:22:49Z</time>
      </trkpt>
      <trkpt lat="42.36943" lon="2.18069">
        <ele>1313.8</ele>
        <time>2024-09-25T09:22:50Z</time>
      </trkpt>
      <trkpt lat="42.36943" lon="2.18069">
        <ele>1313.8</ele>
        <time>2024-09-25T09:22:51Z</time>
      </trkpt>
      <trkpt lat="42.36943" lon="2.18069">
        <ele>1313.8</ele>
        <time>2024-09-25T09:22:52Z</time>
      </trkpt>
      <trkpt lat="42.36943" lon="2.18069">
        <ele>1313.8</ele>
        <time>2024-09-25T09:22:53Z</time>
      </trkpt>
      <trkpt lat="42.36943" lon="2.18069">
        <ele>1313.8</ele>
        <time>2024-09-25T09:22:54Z</time>
      </trkpt>
      <trkpt lat="42.36943" lon="2.18069">
        <ele>1313.8</ele>
        <time>2024-09-25T09:22:55Z</time>
      </trkpt>
      <trkpt lat="42.36943" lon="2.18069">
        <ele>1313.8</ele>
        <time>2024-09-25T09:22:56Z</time>
      </trkpt>
      <trkpt lat="42.36943" lon="2.18069">
        <ele>1313.8</ele>
        <time>2024-09-25T09:22:57Z</time>
      </trkpt>
      <trkpt lat="42.36943" lon="2.18069">
        <ele>1313.8</ele>
        <time>2024-09-25T09:22:58Z</time>
      </trkpt>
      <trkpt lat="42.36943" lon="2.18069">
        <ele>1313.8</ele>
        <time>2024-09-25T09:22:59Z</time>
      </trkpt>
      <trkpt lat="42.36943" lon="2.18069">
        <ele>1313.8</ele>
        <time>2024-09-25T09:23:00Z</time>
      </trkpt>
      <trkpt lat="42.36943" lon="2.18069">
        <ele>1313.8</ele>
        <time>2024-09-25T09:23:01Z</time>
      </trkpt>
      <trkpt lat="42.36943" lon="2.18069">
        <ele>1313.8</ele>
        <time>2024-09-25T09:23:02Z</time>
      </trkpt>
      <trkpt lat="42.36943" lon="2.18069">
        <ele>1313.8</ele>
        <time>2024-09-25T09:23:03Z</time>
      </trkpt>
      <trkpt lat="42.36943" lon="2.18069">
        <ele>1313.8</ele>
        <time>2024-09-25T09:23:04Z</time>
      </trkpt>
      <trkpt lat="42.36943" lon="2.18069">
        <ele>1313.8</ele>
        <time>2024-09-25T09:23:05Z</time>
      </trkpt>
      <trkpt lat="42.36943" lon="2.18069">
        <ele>1313.8</ele>
        <time>2024-09-25T09:23:06Z</time>
      </trkpt>
      <trkpt lat="42.36943" lon="2.18069">
        <ele>1313.9</ele>
        <time>2024-09-25T09:23:07Z</time>
      </trkpt>
      <trkpt lat="42.36943" lon="2.1807">
        <ele>1314</ele>
        <time>2024-09-25T09:23:08Z</time>
      </trkpt>
      <trkpt lat="42.36944" lon="2.1807">
        <ele>1314.1</ele>
        <time>2024-09-25T09:23:09Z</time>
      </trkpt>
      <trkpt lat="42.36944" lon="2.1807">
        <ele>1314.1</ele>
        <time>2024-09-25T09:23:10Z</time>
      </trkpt>
      <trkpt lat="42.36944" lon="2.18071">
        <ele>1314.2</ele>
        <time>2024-09-25T09:23:11Z</time>
      </trkpt>
      <trkpt lat="42.36944" lon="2.18071">
        <ele>1314.2</ele>
        <time>2024-09-25T09:23:12Z</time>
      </trkpt>
      <trkpt lat="42.36944" lon="2.18071">
        <ele>1314.3</ele>
        <time>2024-09-25T09:23:13Z</time>
      </trkpt>
      <trkpt lat="42.36944" lon="2.18071">
        <ele>1314.3</ele>
        <time>2024-09-25T09:23:14Z</time>
      </trkpt>
      <trkpt lat="42.36944" lon="2.18071">
        <ele>1314.3</ele>
        <time>2024-09-25T09:23:15Z</time>
      </trkpt>
      <trkpt lat="42.36944" lon="2.18071">
        <ele>1314.3</ele>
        <time>2024-09-25T09:23:16Z</time>
      </trkpt>
      <trkpt lat="42.36944" lon="2.18071">
        <ele>1314.3</ele>
        <time>2024-09-25T09:23:17Z</time>
      </trkpt>
      <trkpt lat="42.36944" lon="2.18071">
        <ele>1314.3</ele>
        <time>2024-09-25T09:23:18Z</time>
      </trkpt>
      <trkpt lat="42.36944" lon="2.18071">
        <ele>1314.3</ele>
        <time>2024-09-25T09:23:19Z</time>
      </trkpt>
      <trkpt lat="42.36944" lon="2.18071">
        <ele>1314.3</ele>
        <time>2024-09-25T09:23:20Z</time>
      </trkpt>
      <trkpt lat="42.36944" lon="2.18071">
        <ele>1314.3</ele>
        <time>2024-09-25T09:23:21Z</time>
      </trkpt>
      <trkpt lat="42.36944" lon="2.18071">
        <ele>1314.3</ele>
        <time>2024-09-25T09:23:22Z</time>
      </trkpt>
      <trkpt lat="42.36944" lon="2.18071">
        <ele>1314.3</ele>
        <time>2024-09-25T09:23:23Z</time>
      </trkpt>
      <trkpt lat="42.36944" lon="2.18071">
        <ele>1314.3</ele>
        <time>2024-09-25T09:23:24Z</time>
      </trkpt>
      <trkpt lat="42.36944" lon="2.18071">
        <ele>1314.3</ele>
        <time>2024-09-25T09:23:25Z</time>
      </trkpt>
      <trkpt lat="42.36944" lon="2.18071">
        <ele>1314.3</ele>
        <time>2024-09-25T09:23:26Z</time>
      </trkpt>
      <trkpt lat="42.36944" lon="2.18071">
        <ele>1314.3</ele>
        <time>2024-09-25T09:23:27Z</time>
      </trkpt>
      <trkpt lat="42.36944" lon="2.18071">
        <ele>1314.3</ele>
        <time>2024-09-25T09:23:28Z</time>
      </trkpt>
      <trkpt lat="42.36944" lon="2.18071">
        <ele>1314.3</ele>
        <time>2024-09-25T09:23:29Z</time>
      </trkpt>
      <trkpt lat="42.36944" lon="2.18071">
        <ele>1314.3</ele>
        <time>2024-09-25T09:23:30Z</time>
      </trkpt>
      <trkpt lat="42.36944" lon="2.18071">
        <ele>1314.3</ele>
        <time>2024-09-25T09:23:31Z</time>
      </trkpt>
      <trkpt lat="42.36944" lon="2.18071">
        <ele>1314.3</ele>
        <time>2024-09-25T09:23:32Z</time>
      </trkpt>
      <trkpt lat="42.36944" lon="2.18071">
        <ele>1314.3</ele>
        <time>2024-09-25T09:23:33Z</time>
      </trkpt>
      <trkpt lat="42.36944" lon="2.18071">
        <ele>1314.3</ele>
        <time>2024-09-25T09:23:34Z</time>
      </trkpt>
      <trkpt lat="42.36944" lon="2.18071">
        <ele>1314.3</ele>
        <time>2024-09-25T09:23:35Z</time>
      </trkpt>
      <trkpt lat="42.36944" lon="2.18071">
        <ele>1314.3</ele>
        <time>2024-09-25T09:23:36Z</time>
      </trkpt>
      <trkpt lat="42.36944" lon="2.18071">
        <ele>1314.3</ele>
        <time>2024-09-25T09:23:37Z</time>
      </trkpt>
      <trkpt lat="42.36944" lon="2.18071">
        <ele>1314.3</ele>
        <time>2024-09-25T09:23:38Z</time>
      </trkpt>
      <trkpt lat="42.36944" lon="2.18071">
        <ele>1314.3</ele>
        <time>2024-09-25T09:23:39Z</time>
      </trkpt>
      <trkpt lat="42.36944" lon="2.18071">
        <ele>1314.3</ele>
        <time>2024-09-25T09:23:40Z</time>
      </trkpt>
      <trkpt lat="42.36944" lon="2.18071">
        <ele>1314.3</ele>
        <time>2024-09-25T09:23:41Z</time>
      </trkpt>
      <trkpt lat="42.36944" lon="2.18071">
        <ele>1314.3</ele>
        <time>2024-09-25T09:23:42Z</time>
      </trkpt>
      <trkpt lat="42.36944" lon="2.18071">
        <ele>1314.3</ele>
        <time>2024-09-25T09:23:43Z</time>
      </trkpt>
      <trkpt lat="42.36944" lon="2.18071">
        <ele>1314.3</ele>
        <time>2024-09-25T09:23:44Z</time>
      </trkpt>
      <trkpt lat="42.36944" lon="2.18071">
        <ele>1314.3</ele>
        <time>2024-09-25T09:23:45Z</time>
      </trkpt>
      <trkpt lat="42.36944" lon="2.18071">
        <ele>1314.3</ele>
        <time>2024-09-25T09:23:46Z</time>
      </trkpt>
      <trkpt lat="42.36944" lon="2.18071">
        <ele>1314.3</ele>
        <time>2024-09-25T09:23:47Z</time>
      </trkpt>
      <trkpt lat="42.36944" lon="2.18071">
        <ele>1314.3</ele>
        <time>2024-09-25T09:23:48Z</time>
      </trkpt>
      <trkpt lat="42.36944" lon="2.18071">
        <ele>1314.3</ele>
        <time>2024-09-25T09:23:49Z</time>
      </trkpt>
      <trkpt lat="42.36944" lon="2.18071">
        <ele>1314.3</ele>
        <time>2024-09-25T09:23:50Z</time>
      </trkpt>
      <trkpt lat="42.36944" lon="2.18071">
        <ele>1314.3</ele>
        <time>2024-09-25T09:23:51Z</time>
      </trkpt>
      <trkpt lat="42.36944" lon="2.18071">
        <ele>1314.3</ele>
        <time>2024-09-25T09:23:52Z</time>
      </trkpt>
      <trkpt lat="42.36944" lon="2.18071">
        <ele>1314.3</ele>
        <time>2024-09-25T09:23:53Z</time>
      </trkpt>
      <trkpt lat="42.36944" lon="2.18071">
        <ele>1314.3</ele>
        <time>2024-09-25T09:23:54Z</time>
      </trkpt>
      <trkpt lat="42.36944" lon="2.18071">
        <ele>1314.4</ele>
        <time>2024-09-25T09:23:55Z</time>
      </trkpt>
      <trkpt lat="42.36944" lon="2.18071">
        <ele>1314.4</ele>
        <time>2024-09-25T09:23:56Z</time>
      </trkpt>
      <trkpt lat="42.36944" lon="2.18071">
        <ele>1314.4</ele>
        <time>2024-09-25T09:23:57Z</time>
      </trkpt>
      <trkpt lat="42.36944" lon="2.18071">
        <ele>1314.4</ele>
        <time>2024-09-25T09:23:58Z</time>
      </trkpt>
      <trkpt lat="42.36944" lon="2.18071">
        <ele>1314.4</ele>
        <time>2024-09-25T09:23:59Z</time>
      </trkpt>
      <trkpt lat="42.36944" lon="2.18071">
        <ele>1314.5</ele>
        <time>2024-09-25T09:24:00Z</time>
      </trkpt>
      <trkpt lat="42.36944" lon="2.18072">
        <ele>1314.6</ele>
        <time>2024-09-25T09:24:01Z</time>
      </trkpt>
      <trkpt lat="42.36945" lon="2.18072">
        <ele>1314.8</ele>
        <time>2024-09-25T09:24:02Z</time>
      </trkpt>
      <trkpt lat="42.36946" lon="2.18073">
        <ele>1315</ele>
        <time>2024-09-25T09:24:03Z</time>
      </trkpt>
      <trkpt lat="42.36946" lon="2.18074">
        <ele>1315.2</ele>
        <time>2024-09-25T09:24:04Z</time>
      </trkpt>
      <trkpt lat="42.36946" lon="2.18074">
        <ele>1315.4</ele>
        <time>2024-09-25T09:24:05Z</time>
      </trkpt>
      <trkpt lat="42.36947" lon="2.18075">
        <ele>1315.5</ele>
        <time>2024-09-25T09:24:06Z</time>
      </trkpt>
      <trkpt lat="42.36947" lon="2.18076">
        <ele>1315.8</ele>
        <time>2024-09-25T09:24:07Z</time>
      </trkpt>
      <trkpt lat="42.36947" lon="2.18077">
        <ele>1316</ele>
        <time>2024-09-25T09:24:08Z</time>
      </trkpt>
      <trkpt lat="42.36947" lon="2.18078">
        <ele>1316.1</ele>
        <time>2024-09-25T09:24:09Z</time>
      </trkpt>
      <trkpt lat="42.36947" lon="2.18079">
        <ele>1316.3</ele>
        <time>2024-09-25T09:24:10Z</time>
      </trkpt>
      <trkpt lat="42.36948" lon="2.1808">
        <ele>1316.5</ele>
        <time>2024-09-25T09:24:11Z</time>
      </trkpt>
      <trkpt lat="42.36947" lon="2.18081">
        <ele>1316.7</ele>
        <time>2024-09-25T09:24:12Z</time>
      </trkpt>
      <trkpt lat="42.36947" lon="2.18082">
        <ele>1317</ele>
        <time>2024-09-25T09:24:13Z</time>
      </trkpt>
      <trkpt lat="42.36947" lon="2.18083">
        <ele>1317.2</ele>
        <time>2024-09-25T09:24:14Z</time>
      </trkpt>
      <trkpt lat="42.36947" lon="2.18084">
        <ele>1317.4</ele>
        <time>2024-09-25T09:24:15Z</time>
      </trkpt>
      <trkpt lat="42.36947" lon="2.18085">
        <ele>1317.5</ele>
        <time>2024-09-25T09:24:16Z</time>
      </trkpt>
      <trkpt lat="42.36947" lon="2.18086">
        <ele>1317.6</ele>
        <time>2024-09-25T09:24:17Z</time>
      </trkpt>
      <trkpt lat="42.36947" lon="2.18086">
        <ele>1317.7</ele>
        <time>2024-09-25T09:24:18Z</time>
      </trkpt>
      <trkpt lat="42.36947" lon="2.18087">
        <ele>1317.8</ele>
        <time>2024-09-25T09:24:19Z</time>
      </trkpt>
      <trkpt lat="42.36947" lon="2.18087">
        <ele>1318</ele>
        <time>2024-09-25T09:24:20Z</time>
      </trkpt>
      <trkpt lat="42.36947" lon="2.18088">
        <ele>1318.1</ele>
        <time>2024-09-25T09:24:21Z</time>
      </trkpt>
      <trkpt lat="42.36947" lon="2.18088">
        <ele>1318.2</ele>
        <time>2024-09-25T09:24:22Z</time>
      </trkpt>
      <trkpt lat="42.36947" lon="2.18089">
        <ele>1318.3</ele>
        <time>2024-09-25T09:24:23Z</time>
      </trkpt>
      <trkpt lat="42.36947" lon="2.18089">
        <ele>1318.4</ele>
        <time>2024-09-25T09:24:24Z</time>
      </trkpt>
      <trkpt lat="42.36947" lon="2.1809">
        <ele>1318.5</ele>
        <time>2024-09-25T09:24:25Z</time>
      </trkpt>
      <trkpt lat="42.36947" lon="2.1809">
        <ele>1318.7</ele>
        <time>2024-09-25T09:24:26Z</time>
      </trkpt>
      <trkpt lat="42.36947" lon="2.18092">
        <ele>1318.9</ele>
        <time>2024-09-25T09:24:27Z</time>
      </trkpt>
      <trkpt lat="42.36947" lon="2.18093">
        <ele>1319.1</ele>
        <time>2024-09-25T09:24:28Z</time>
      </trkpt>
      <trkpt lat="42.36947" lon="2.18093">
        <ele>1319.2</ele>
        <time>2024-09-25T09:24:29Z</time>
      </trkpt>
      <trkpt lat="42.36947" lon="2.18094">
        <ele>1319.4</ele>
        <time>2024-09-25T09:24:30Z</time>
      </trkpt>
      <trkpt lat="42.36947" lon="2.18095">
        <ele>1319.5</ele>
        <time>2024-09-25T09:24:31Z</time>
      </trkpt>
      <trkpt lat="42.36948" lon="2.18095">
        <ele>1319.6</ele>
        <time>2024-09-25T09:24:32Z</time>
      </trkpt>
      <trkpt lat="42.36948" lon="2.18096">
        <ele>1319.8</ele>
        <time>2024-09-25T09:24:33Z</time>
      </trkpt>
      <trkpt lat="42.36948" lon="2.18097">
        <ele>1320.1</ele>
        <time>2024-09-25T09:24:34Z</time>
      </trkpt>
      <trkpt lat="42.36947" lon="2.18098">
        <ele>1320.2</ele>
        <time>2024-09-25T09:24:35Z</time>
      </trkpt>
      <trkpt lat="42.36947" lon="2.18099">
        <ele>1320.3</ele>
        <time>2024-09-25T09:24:36Z</time>
      </trkpt>
      <trkpt lat="42.36948" lon="2.18099">
        <ele>1320.5</ele>
        <time>2024-09-25T09:24:37Z</time>
      </trkpt>
      <trkpt lat="42.36948" lon="2.181">
        <ele>1320.5</ele>
        <time>2024-09-25T09:24:38Z</time>
      </trkpt>
      <trkpt lat="42.36948" lon="2.181">
        <ele>1320.7</ele>
        <time>2024-09-25T09:24:39Z</time>
      </trkpt>
      <trkpt lat="42.36949" lon="2.181">
        <ele>1320.8</ele>
        <time>2024-09-25T09:24:40Z</time>
      </trkpt>
      <trkpt lat="42.36949" lon="2.181">
        <ele>1321</ele>
        <time>2024-09-25T09:24:41Z</time>
      </trkpt>
      <trkpt lat="42.3695" lon="2.181">
        <ele>1321.1</ele>
        <time>2024-09-25T09:24:42Z</time>
      </trkpt>
      <trkpt lat="42.3695" lon="2.18101">
        <ele>1321.2</ele>
        <time>2024-09-25T09:24:43Z</time>
      </trkpt>
      <trkpt lat="42.3695" lon="2.18101">
        <ele>1321.3</ele>
        <time>2024-09-25T09:24:44Z</time>
      </trkpt>
      <trkpt lat="42.3695" lon="2.18102">
        <ele>1321.5</ele>
        <time>2024-09-25T09:24:45Z</time>
      </trkpt>
      <trkpt lat="42.3695" lon="2.18103">
        <ele>1321.6</ele>
        <time>2024-09-25T09:24:46Z</time>
      </trkpt>
      <trkpt lat="42.3695" lon="2.18104">
        <ele>1321.8</ele>
        <time>2024-09-25T09:24:47Z</time>
      </trkpt>
      <trkpt lat="42.3695" lon="2.18104">
        <ele>1321.9</ele>
        <time>2024-09-25T09:24:48Z</time>
      </trkpt>
      <trkpt lat="42.36949" lon="2.18105">
        <ele>1322</ele>
        <time>2024-09-25T09:24:49Z</time>
      </trkpt>
      <trkpt lat="42.36949" lon="2.18105">
        <ele>1322.1</ele>
        <time>2024-09-25T09:24:50Z</time>
      </trkpt>
      <trkpt lat="42.36949" lon="2.18106">
        <ele>1322.3</ele>
        <time>2024-09-25T09:24:51Z</time>
      </trkpt>
      <trkpt lat="42.36948" lon="2.18107">
        <ele>1322.4</ele>
        <time>2024-09-25T09:24:52Z</time>
      </trkpt>
      <trkpt lat="42.36949" lon="2.18107">
        <ele>1322.5</ele>
        <time>2024-09-25T09:24:53Z</time>
      </trkpt>
      <trkpt lat="42.36949" lon="2.18107">
        <ele>1322.6</ele>
        <time>2024-09-25T09:24:54Z</time>
      </trkpt>
      <trkpt lat="42.36949" lon="2.18108">
        <ele>1322.8</ele>
        <time>2024-09-25T09:24:55Z</time>
      </trkpt>
      <trkpt lat="42.3695" lon="2.18108">
        <ele>1322.9</ele>
        <time>2024-09-25T09:24:56Z</time>
      </trkpt>
      <trkpt lat="42.3695" lon="2.18108">
        <ele>1323</ele>
        <time>2024-09-25T09:24:57Z</time>
      </trkpt>
      <trkpt lat="42.3695" lon="2.18109">
        <ele>1323.1</ele>
        <time>2024-09-25T09:24:58Z</time>
      </trkpt>
      <trkpt lat="42.3695" lon="2.18109">
        <ele>1323.2</ele>
        <time>2024-09-25T09:24:59Z</time>
      </trkpt>
      <trkpt lat="42.3695" lon="2.1811">
        <ele>1323.3</ele>
        <time>2024-09-25T09:25:00Z</time>
      </trkpt>
      <trkpt lat="42.3695" lon="2.1811">
        <ele>1323.3</ele>
        <time>2024-09-25T09:25:01Z</time>
      </trkpt>
      <trkpt lat="42.3695" lon="2.18111">
        <ele>1323.5</ele>
        <time>2024-09-25T09:25:02Z</time>
      </trkpt>
      <trkpt lat="42.3695" lon="2.18111">
        <ele>1323.6</ele>
        <time>2024-09-25T09:25:03Z</time>
      </trkpt>
      <trkpt lat="42.3695" lon="2.18112">
        <ele>1323.7</ele>
        <time>2024-09-25T09:25:04Z</time>
      </trkpt>
      <trkpt lat="42.36951" lon="2.18112">
        <ele>1323.8</ele>
        <time>2024-09-25T09:25:05Z</time>
      </trkpt>
      <trkpt lat="42.36951" lon="2.18112">
        <ele>1323.8</ele>
        <time>2024-09-25T09:25:06Z</time>
      </trkpt>
      <trkpt lat="42.36951" lon="2.18113">
        <ele>1323.9</ele>
        <time>2024-09-25T09:25:07Z</time>
      </trkpt>
      <trkpt lat="42.36951" lon="2.18113">
        <ele>1324</ele>
        <time>2024-09-25T09:25:08Z</time>
      </trkpt>
      <trkpt lat="42.36951" lon="2.18114">
        <ele>1324.1</ele>
        <time>2024-09-25T09:25:09Z</time>
      </trkpt>
      <trkpt lat="42.36951" lon="2.18114">
        <ele>1324.1</ele>
        <time>2024-09-25T09:25:10Z</time>
      </trkpt>
      <trkpt lat="42.36951" lon="2.18114">
        <ele>1324.2</ele>
        <time>2024-09-25T09:25:11Z</time>
      </trkpt>
      <trkpt lat="42.36951" lon="2.18114">
        <ele>1324.3</ele>
        <time>2024-09-25T09:25:12Z</time>
      </trkpt>
      <trkpt lat="42.36951" lon="2.18114">
        <ele>1324.3</ele>
        <time>2024-09-25T09:25:13Z</time>
      </trkpt>
      <trkpt lat="42.36951" lon="2.18113">
        <ele>1324.3</ele>
        <time>2024-09-25T09:25:14Z</time>
      </trkpt>
      <trkpt lat="42.36951" lon="2.18114">
        <ele>1324.4</ele>
        <time>2024-09-25T09:25:15Z</time>
      </trkpt>
      <trkpt lat="42.36951" lon="2.18114">
        <ele>1324.4</ele>
        <time>2024-09-25T09:25:16Z</time>
      </trkpt>
      <trkpt lat="42.36951" lon="2.18114">
        <ele>1324.5</ele>
        <time>2024-09-25T09:25:17Z</time>
      </trkpt>
      <trkpt lat="42.36951" lon="2.18114">
        <ele>1324.5</ele>
        <time>2024-09-25T09:25:18Z</time>
      </trkpt>
      <trkpt lat="42.36952" lon="2.18115">
        <ele>1324.6</ele>
        <time>2024-09-25T09:25:19Z</time>
      </trkpt>
      <trkpt lat="42.36952" lon="2.18115">
        <ele>1324.7</ele>
        <time>2024-09-25T09:25:20Z</time>
      </trkpt>
      <trkpt lat="42.36951" lon="2.18116">
        <ele>1324.9</ele>
        <time>2024-09-25T09:25:21Z</time>
      </trkpt>
      <trkpt lat="42.36951" lon="2.18117">
        <ele>1325.1</ele>
        <time>2024-09-25T09:25:22Z</time>
      </trkpt>
      <trkpt lat="42.36951" lon="2.18118">
        <ele>1325.3</ele>
        <time>2024-09-25T09:25:23Z</time>
      </trkpt>
      <trkpt lat="42.36951" lon="2.18119">
        <ele>1325.5</ele>
        <time>2024-09-25T09:25:24Z</time>
      </trkpt>
      <trkpt lat="42.36951" lon="2.18121">
        <ele>1325.8</ele>
        <time>2024-09-25T09:25:25Z</time>
      </trkpt>
      <trkpt lat="42.36952" lon="2.18122">
        <ele>1326</ele>
        <time>2024-09-25T09:25:26Z</time>
      </trkpt>
      <trkpt lat="42.36952" lon="2.18122">
        <ele>1326.1</ele>
        <time>2024-09-25T09:25:27Z</time>
      </trkpt>
      <trkpt lat="42.36952" lon="2.18123">
        <ele>1326.2</ele>
        <time>2024-09-25T09:25:28Z</time>
      </trkpt>
      <trkpt lat="42.36952" lon="2.18123">
        <ele>1326.3</ele>
        <time>2024-09-25T09:25:29Z</time>
      </trkpt>
      <trkpt lat="42.36952" lon="2.18123">
        <ele>1326.3</ele>
        <time>2024-09-25T09:25:30Z</time>
      </trkpt>
      <trkpt lat="42.36952" lon="2.18123">
        <ele>1326.4</ele>
        <time>2024-09-25T09:25:31Z</time>
      </trkpt>
      <trkpt lat="42.36952" lon="2.18123">
        <ele>1326.5</ele>
        <time>2024-09-25T09:25:32Z</time>
      </trkpt>
      <trkpt lat="42.36951" lon="2.18123">
        <ele>1326.6</ele>
        <time>2024-09-25T09:25:33Z</time>
      </trkpt>
      <trkpt lat="42.36951" lon="2.18124">
        <ele>1326.6</ele>
        <time>2024-09-25T09:25:34Z</time>
      </trkpt>
      <trkpt lat="42.36951" lon="2.18124">
        <ele>1326.7</ele>
        <time>2024-09-25T09:25:35Z</time>
      </trkpt>
      <trkpt lat="42.36951" lon="2.18125">
        <ele>1326.8</ele>
        <time>2024-09-25T09:25:36Z</time>
      </trkpt>
      <trkpt lat="42.36951" lon="2.18125">
        <ele>1326.8</ele>
        <time>2024-09-25T09:25:37Z</time>
      </trkpt>
      <trkpt lat="42.36951" lon="2.18125">
        <ele>1326.9</ele>
        <time>2024-09-25T09:25:38Z</time>
      </trkpt>
      <trkpt lat="42.36951" lon="2.18126">
        <ele>1327</ele>
        <time>2024-09-25T09:25:39Z</time>
      </trkpt>
      <trkpt lat="42.36952" lon="2.18127">
        <ele>1327.2</ele>
        <time>2024-09-25T09:25:40Z</time>
      </trkpt>
      <trkpt lat="42.36952" lon="2.18127">
        <ele>1327.2</ele>
        <time>2024-09-25T09:25:41Z</time>
      </trkpt>
      <trkpt lat="42.36952" lon="2.18127">
        <ele>1327.3</ele>
        <time>2024-09-25T09:25:42Z</time>
      </trkpt>
      <trkpt lat="42.36952" lon="2.18128">
        <ele>1327.3</ele>
        <time>2024-09-25T09:25:43Z</time>
      </trkpt>
      <trkpt lat="42.36952" lon="2.18128">
        <ele>1327.3</ele>
        <time>2024-09-25T09:25:44Z</time>
      </trkpt>
      <trkpt lat="42.36952" lon="2.18128">
        <ele>1327.3</ele>
        <time>2024-09-25T09:25:45Z</time>
      </trkpt>
      <trkpt lat="42.36952" lon="2.18127">
        <ele>1327.3</ele>
        <time>2024-09-25T09:25:46Z</time>
      </trkpt>
      <trkpt lat="42.36952" lon="2.18127">
        <ele>1327.3</ele>
        <time>2024-09-25T09:25:47Z</time>
      </trkpt>
      <trkpt lat="42.36952" lon="2.18127">
        <ele>1327.4</ele>
        <time>2024-09-25T09:25:48Z</time>
      </trkpt>
      <trkpt lat="42.36952" lon="2.18127">
        <ele>1327.4</ele>
        <time>2024-09-25T09:25:49Z</time>
      </trkpt>
      <trkpt lat="42.36952" lon="2.18127">
        <ele>1327.5</ele>
        <time>2024-09-25T09:25:50Z</time>
      </trkpt>
      <trkpt lat="42.36953" lon="2.18127">
        <ele>1327.5</ele>
        <time>2024-09-25T09:25:51Z</time>
      </trkpt>
      <trkpt lat="42.36953" lon="2.18127">
        <ele>1327.6</ele>
        <time>2024-09-25T09:25:53Z</time>
      </trkpt>
      <trkpt lat="42.36953" lon="2.18127">
        <ele>1327.7</ele>
        <time>2024-09-25T09:25:54Z</time>
      </trkpt>
      <trkpt lat="42.36953" lon="2.18127">
        <ele>1327.7</ele>
        <time>2024-09-25T09:25:55Z</time>
      </trkpt>
      <trkpt lat="42.36953" lon="2.18127">
        <ele>1327.7</ele>
        <time>2024-09-25T09:25:56Z</time>
      </trkpt>
      <trkpt lat="42.36953" lon="2.18127">
        <ele>1327.8</ele>
        <time>2024-09-25T09:25:57Z</time>
      </trkpt>
      <trkpt lat="42.36953" lon="2.18127">
        <ele>1327.8</ele>
        <time>2024-09-25T09:25:58Z</time>
      </trkpt>
      <trkpt lat="42.36953" lon="2.18126">
        <ele>1327.8</ele>
        <time>2024-09-25T09:25:59Z</time>
      </trkpt>
      <trkpt lat="42.36953" lon="2.18126">
        <ele>1327.8</ele>
        <time>2024-09-25T09:26:00Z</time>
      </trkpt>
      <trkpt lat="42.36953" lon="2.18126">
        <ele>1327.8</ele>
        <time>2024-09-25T09:26:01Z</time>
      </trkpt>
      <trkpt lat="42.36953" lon="2.18126">
        <ele>1327.8</ele>
        <time>2024-09-25T09:26:02Z</time>
      </trkpt>
      <trkpt lat="42.36953" lon="2.18126">
        <ele>1327.9</ele>
        <time>2024-09-25T09:26:03Z</time>
      </trkpt>
      <trkpt lat="42.36953" lon="2.18126">
        <ele>1327.9</ele>
        <time>2024-09-25T09:26:04Z</time>
      </trkpt>
      <trkpt lat="42.36953" lon="2.18126">
        <ele>1327.9</ele>
        <time>2024-09-25T09:26:05Z</time>
      </trkpt>
      <trkpt lat="42.36953" lon="2.18127">
        <ele>1327.9</ele>
        <time>2024-09-25T09:26:06Z</time>
      </trkpt>
      <trkpt lat="42.36952" lon="2.18127">
        <ele>1328</ele>
        <time>2024-09-25T09:26:07Z</time>
      </trkpt>
      <trkpt lat="42.36952" lon="2.18127">
        <ele>1328.1</ele>
        <time>2024-09-25T09:26:08Z</time>
      </trkpt>
      <trkpt lat="42.36952" lon="2.18127">
        <ele>1328.1</ele>
        <time>2024-09-25T09:26:09Z</time>
      </trkpt>
      <trkpt lat="42.36951" lon="2.18126">
        <ele>1328.2</ele>
        <time>2024-09-25T09:26:10Z</time>
      </trkpt>
      <trkpt lat="42.36951" lon="2.18126">
        <ele>1328.3</ele>
        <time>2024-09-25T09:26:11Z</time>
      </trkpt>
      <trkpt lat="42.3695" lon="2.18126">
        <ele>1328.5</ele>
        <time>2024-09-25T09:26:12Z</time>
      </trkpt>
      <trkpt lat="42.36949" lon="2.18126">
        <ele>1328.8</ele>
        <time>2024-09-25T09:26:13Z</time>
      </trkpt>
      <trkpt lat="42.36948" lon="2.18127">
        <ele>1328.9</ele>
        <time>2024-09-25T09:26:14Z</time>
      </trkpt>
      <trkpt lat="42.36948" lon="2.18127">
        <ele>1329</ele>
        <time>2024-09-25T09:26:15Z</time>
      </trkpt>
      <trkpt lat="42.36948" lon="2.18128">
        <ele>1329.1</ele>
        <time>2024-09-25T09:26:16Z</time>
      </trkpt>
      <trkpt lat="42.36948" lon="2.18128">
        <ele>1329.2</ele>
        <time>2024-09-25T09:26:17Z</time>
      </trkpt>
      <trkpt lat="42.36948" lon="2.18129">
        <ele>1329.3</ele>
        <time>2024-09-25T09:26:18Z</time>
      </trkpt>
      <trkpt lat="42.36948" lon="2.18131">
        <ele>1329.5</ele>
        <time>2024-09-25T09:26:19Z</time>
      </trkpt>
      <trkpt lat="42.36948" lon="2.18131">
        <ele>1329.6</ele>
        <time>2024-09-25T09:26:20Z</time>
      </trkpt>
      <trkpt lat="42.36948" lon="2.18132">
        <ele>1329.8</ele>
        <time>2024-09-25T09:26:21Z</time>
      </trkpt>
      <trkpt lat="42.36948" lon="2.18134">
        <ele>1329.9</ele>
        <time>2024-09-25T09:26:22Z</time>
      </trkpt>
      <trkpt lat="42.36948" lon="2.18134">
        <ele>1330</ele>
        <time>2024-09-25T09:26:23Z</time>
      </trkpt>
      <trkpt lat="42.36948" lon="2.18134">
        <ele>1330.1</ele>
        <time>2024-09-25T09:26:24Z</time>
      </trkpt>
      <trkpt lat="42.36948" lon="2.18134">
        <ele>1330.1</ele>
        <time>2024-09-25T09:26:25Z</time>
      </trkpt>
      <trkpt lat="42.36949" lon="2.18135">
        <ele>1330.1</ele>
        <time>2024-09-25T09:26:26Z</time>
      </trkpt>
      <trkpt lat="42.36949" lon="2.18135">
        <ele>1330.1</ele>
        <time>2024-09-25T09:26:27Z</time>
      </trkpt>
      <trkpt lat="42.36949" lon="2.18135">
        <ele>1330.2</ele>
        <time>2024-09-25T09:26:28Z</time>
      </trkpt>
      <trkpt lat="42.36949" lon="2.18135">
        <ele>1330.2</ele>
        <time>2024-09-25T09:26:29Z</time>
      </trkpt>
      <trkpt lat="42.36949" lon="2.18135">
        <ele>1330.2</ele>
        <time>2024-09-25T09:26:30Z</time>
      </trkpt>
      <trkpt lat="42.36948" lon="2.18135">
        <ele>1330.2</ele>
        <time>2024-09-25T09:26:31Z</time>
      </trkpt>
      <trkpt lat="42.36948" lon="2.18135">
        <ele>1330.2</ele>
        <time>2024-09-25T09:26:32Z</time>
      </trkpt>
      <trkpt lat="42.36948" lon="2.18135">
        <ele>1330.2</ele>
        <time>2024-09-25T09:26:33Z</time>
      </trkpt>
      <trkpt lat="42.36948" lon="2.18135">
        <ele>1330.2</ele>
        <time>2024-09-25T09:26:34Z</time>
      </trkpt>
      <trkpt lat="42.36948" lon="2.18135">
        <ele>1330.3</ele>
        <time>2024-09-25T09:26:35Z</time>
      </trkpt>
      <trkpt lat="42.36948" lon="2.18135">
        <ele>1330.3</ele>
        <time>2024-09-25T09:26:36Z</time>
      </trkpt>
      <trkpt lat="42.36948" lon="2.18136">
        <ele>1330.3</ele>
        <time>2024-09-25T09:26:37Z</time>
      </trkpt>
      <trkpt lat="42.36948" lon="2.18136">
        <ele>1330.3</ele>
        <time>2024-09-25T09:26:38Z</time>
      </trkpt>
      <trkpt lat="42.36948" lon="2.18136">
        <ele>1330.4</ele>
        <time>2024-09-25T09:26:39Z</time>
      </trkpt>
      <trkpt lat="42.36948" lon="2.18137">
        <ele>1330.5</ele>
        <time>2024-09-25T09:26:40Z</time>
      </trkpt>
      <trkpt lat="42.36948" lon="2.18137">
        <ele>1330.6</ele>
        <time>2024-09-25T09:26:41Z</time>
      </trkpt>
      <trkpt lat="42.36948" lon="2.18137">
        <ele>1330.7</ele>
        <time>2024-09-25T09:26:42Z</time>
      </trkpt>
      <trkpt lat="42.36947" lon="2.18137">
        <ele>1330.7</ele>
        <time>2024-09-25T09:26:43Z</time>
      </trkpt>
      <trkpt lat="42.36947" lon="2.18138">
        <ele>1330.8</ele>
        <time>2024-09-25T09:26:44Z</time>
      </trkpt>
      <trkpt lat="42.36947" lon="2.1814">
        <ele>1331</ele>
        <time>2024-09-25T09:26:45Z</time>
      </trkpt>
      <trkpt lat="42.36947" lon="2.18141">
        <ele>1331.1</ele>
        <time>2024-09-25T09:26:46Z</time>
      </trkpt>
      <trkpt lat="42.36947" lon="2.18141">
        <ele>1331.3</ele>
        <time>2024-09-25T09:26:47Z</time>
      </trkpt>
      <trkpt lat="42.36946" lon="2.18143">
        <ele>1331.4</ele>
        <time>2024-09-25T09:26:48Z</time>
      </trkpt>
      <trkpt lat="42.36946" lon="2.18143">
        <ele>1331.6</ele>
        <time>2024-09-25T09:26:49Z</time>
      </trkpt>
      <trkpt lat="42.36946" lon="2.18144">
        <ele>1331.7</ele>
        <time>2024-09-25T09:26:50Z</time>
      </trkpt>
      <trkpt lat="42.36945" lon="2.18146">
        <ele>1332</ele>
        <time>2024-09-25T09:26:51Z</time>
      </trkpt>
      <trkpt lat="42.36945" lon="2.18146">
        <ele>1332</ele>
        <time>2024-09-25T09:26:52Z</time>
      </trkpt>
      <trkpt lat="42.36945" lon="2.18147">
        <ele>1332.1</ele>
        <time>2024-09-25T09:26:53Z</time>
      </trkpt>
      <trkpt lat="42.36945" lon="2.18148">
        <ele>1332.3</ele>
        <time>2024-09-25T09:26:54Z</time>
      </trkpt>
      <trkpt lat="42.36945" lon="2.18148">
        <ele>1332.3</ele>
        <time>2024-09-25T09:26:55Z</time>
      </trkpt>
      <trkpt lat="42.36945" lon="2.18149">
        <ele>1332.4</ele>
        <time>2024-09-25T09:26:56Z</time>
      </trkpt>
      <trkpt lat="42.36945" lon="2.1815">
        <ele>1332.6</ele>
        <time>2024-09-25T09:26:57Z</time>
      </trkpt>
      <trkpt lat="42.36945" lon="2.18151">
        <ele>1332.7</ele>
        <time>2024-09-25T09:26:58Z</time>
      </trkpt>
      <trkpt lat="42.36945" lon="2.18152">
        <ele>1332.8</ele>
        <time>2024-09-25T09:26:59Z</time>
      </trkpt>
      <trkpt lat="42.36945" lon="2.18153">
        <ele>1332.9</ele>
        <time>2024-09-25T09:27:00Z</time>
      </trkpt>
      <trkpt lat="42.36945" lon="2.18154">
        <ele>1333.1</ele>
        <time>2024-09-25T09:27:01Z</time>
      </trkpt>
      <trkpt lat="42.36945" lon="2.18154">
        <ele>1333.1</ele>
        <time>2024-09-25T09:27:02Z</time>
      </trkpt>
      <trkpt lat="42.36945" lon="2.18155">
        <ele>1333.3</ele>
        <time>2024-09-25T09:27:03Z</time>
      </trkpt>
      <trkpt lat="42.36945" lon="2.18156">
        <ele>1333.4</ele>
        <time>2024-09-25T09:27:04Z</time>
      </trkpt>
      <trkpt lat="42.36945" lon="2.18156">
        <ele>1333.5</ele>
        <time>2024-09-25T09:27:05Z</time>
      </trkpt>
      <trkpt lat="42.36945" lon="2.18158">
        <ele>1333.7</ele>
        <time>2024-09-25T09:27:06Z</time>
      </trkpt>
      <trkpt lat="42.36945" lon="2.18159">
        <ele>1333.9</ele>
        <time>2024-09-25T09:27:07Z</time>
      </trkpt>
      <trkpt lat="42.36944" lon="2.1816">
        <ele>1334</ele>
        <time>2024-09-25T09:27:08Z</time>
      </trkpt>
      <trkpt lat="42.36944" lon="2.18161">
        <ele>1334.1</ele>
        <time>2024-09-25T09:27:09Z</time>
      </trkpt>
      <trkpt lat="42.36944" lon="2.18161">
        <ele>1334.2</ele>
        <time>2024-09-25T09:27:10Z</time>
      </trkpt>
      <trkpt lat="42.36944" lon="2.18161">
        <ele>1334.2</ele>
        <time>2024-09-25T09:27:11Z</time>
      </trkpt>
      <trkpt lat="42.36943" lon="2.18162">
        <ele>1334.3</ele>
        <time>2024-09-25T09:27:12Z</time>
      </trkpt>
      <trkpt lat="42.36943" lon="2.18162">
        <ele>1334.4</ele>
        <time>2024-09-25T09:27:13Z</time>
      </trkpt>
      <trkpt lat="42.36943" lon="2.18163">
        <ele>1334.5</ele>
        <time>2024-09-25T09:27:14Z</time>
      </trkpt>
      <trkpt lat="42.36943" lon="2.18164">
        <ele>1334.6</ele>
        <time>2024-09-25T09:27:15Z</time>
      </trkpt>
      <trkpt lat="42.36943" lon="2.18165">
        <ele>1334.7</ele>
        <time>2024-09-25T09:27:16Z</time>
      </trkpt>
      <trkpt lat="42.36943" lon="2.18165">
        <ele>1334.8</ele>
        <time>2024-09-25T09:27:17Z</time>
      </trkpt>
      <trkpt lat="42.36943" lon="2.18166">
        <ele>1334.9</ele>
        <time>2024-09-25T09:27:18Z</time>
      </trkpt>
      <trkpt lat="42.36942" lon="2.18167">
        <ele>1335</ele>
        <time>2024-09-25T09:27:19Z</time>
      </trkpt>
      <trkpt lat="42.36942" lon="2.18168">
        <ele>1335.1</ele>
        <time>2024-09-25T09:27:20Z</time>
      </trkpt>
      <trkpt lat="42.36942" lon="2.18168">
        <ele>1335.1</ele>
        <time>2024-09-25T09:27:21Z</time>
      </trkpt>
      <trkpt lat="42.36942" lon="2.18169">
        <ele>1335.1</ele>
        <time>2024-09-25T09:27:22Z</time>
      </trkpt>
      <trkpt lat="42.36942" lon="2.18169">
        <ele>1335.2</ele>
        <time>2024-09-25T09:27:23Z</time>
      </trkpt>
      <trkpt lat="42.36942" lon="2.18169">
        <ele>1335.2</ele>
        <time>2024-09-25T09:27:24Z</time>
      </trkpt>
      <trkpt lat="42.36942" lon="2.18169">
        <ele>1335.2</ele>
        <time>2024-09-25T09:27:25Z</time>
      </trkpt>
      <trkpt lat="42.36942" lon="2.18169">
        <ele>1335.2</ele>
        <time>2024-09-25T09:27:26Z</time>
      </trkpt>
      <trkpt lat="42.36942" lon="2.18169">
        <ele>1335.2</ele>
        <time>2024-09-25T09:27:27Z</time>
      </trkpt>
      <trkpt lat="42.36942" lon="2.18169">
        <ele>1335.2</ele>
        <time>2024-09-25T09:27:28Z</time>
      </trkpt>
      <trkpt lat="42.36942" lon="2.18169">
        <ele>1335.2</ele>
        <time>2024-09-25T09:27:29Z</time>
      </trkpt>
      <trkpt lat="42.36942" lon="2.18168">
        <ele>1335.3</ele>
        <time>2024-09-25T09:27:30Z</time>
      </trkpt>
      <trkpt lat="42.36942" lon="2.18169">
        <ele>1335.3</ele>
        <time>2024-09-25T09:27:31Z</time>
      </trkpt>
      <trkpt lat="42.36942" lon="2.18169">
        <ele>1335.3</ele>
        <time>2024-09-25T09:27:32Z</time>
      </trkpt>
      <trkpt lat="42.36942" lon="2.18169">
        <ele>1335.3</ele>
        <time>2024-09-25T09:27:33Z</time>
      </trkpt>
      <trkpt lat="42.36942" lon="2.18169">
        <ele>1335.3</ele>
        <time>2024-09-25T09:27:34Z</time>
      </trkpt>
      <trkpt lat="42.36942" lon="2.18169">
        <ele>1335.3</ele>
        <time>2024-09-25T09:27:35Z</time>
      </trkpt>
      <trkpt lat="42.36942" lon="2.18169">
        <ele>1335.3</ele>
        <time>2024-09-25T09:27:36Z</time>
      </trkpt>
      <trkpt lat="42.36942" lon="2.18169">
        <ele>1335.3</ele>
        <time>2024-09-25T09:27:37Z</time>
      </trkpt>
      <trkpt lat="42.36942" lon="2.18169">
        <ele>1335.3</ele>
        <time>2024-09-25T09:27:38Z</time>
      </trkpt>
      <trkpt lat="42.36942" lon="2.18169">
        <ele>1335.3</ele>
        <time>2024-09-25T09:27:39Z</time>
      </trkpt>
      <trkpt lat="42.36942" lon="2.18169">
        <ele>1335.4</ele>
        <time>2024-09-25T09:27:40Z</time>
      </trkpt>
      <trkpt lat="42.36942" lon="2.18169">
        <ele>1335.4</ele>
        <time>2024-09-25T09:27:41Z</time>
      </trkpt>
      <trkpt lat="42.36942" lon="2.18169">
        <ele>1335.4</ele>
        <time>2024-09-25T09:27:42Z</time>
      </trkpt>
      <trkpt lat="42.36942" lon="2.1817">
        <ele>1335.4</ele>
        <time>2024-09-25T09:27:43Z</time>
      </trkpt>
      <trkpt lat="42.36942" lon="2.1817">
        <ele>1335.5</ele>
        <time>2024-09-25T09:27:44Z</time>
      </trkpt>
      <trkpt lat="42.36942" lon="2.18171">
        <ele>1335.5</ele>
        <time>2024-09-25T09:27:45Z</time>
      </trkpt>
      <trkpt lat="42.36942" lon="2.18171">
        <ele>1335.6</ele>
        <time>2024-09-25T09:27:46Z</time>
      </trkpt>
      <trkpt lat="42.36942" lon="2.18171">
        <ele>1335.6</ele>
        <time>2024-09-25T09:27:47Z</time>
      </trkpt>
      <trkpt lat="42.36943" lon="2.18171">
        <ele>1335.7</ele>
        <time>2024-09-25T09:27:48Z</time>
      </trkpt>
      <trkpt lat="42.36943" lon="2.18171">
        <ele>1335.7</ele>
        <time>2024-09-25T09:27:49Z</time>
      </trkpt>
      <trkpt lat="42.36943" lon="2.18171">
        <ele>1335.7</ele>
        <time>2024-09-25T09:27:50Z</time>
      </trkpt>
      <trkpt lat="42.36943" lon="2.18171">
        <ele>1335.8</ele>
        <time>2024-09-25T09:27:51Z</time>
      </trkpt>
      <trkpt lat="42.36943" lon="2.18171">
        <ele>1335.8</ele>
        <time>2024-09-25T09:27:52Z</time>
      </trkpt>
      <trkpt lat="42.36943" lon="2.18171">
        <ele>1335.8</ele>
        <time>2024-09-25T09:27:53Z</time>
      </trkpt>
      <trkpt lat="42.36943" lon="2.18171">
        <ele>1335.8</ele>
        <time>2024-09-25T09:27:54Z</time>
      </trkpt>
      <trkpt lat="42.36943" lon="2.18171">
        <ele>1335.8</ele>
        <time>2024-09-25T09:27:55Z</time>
      </trkpt>
      <trkpt lat="42.36943" lon="2.18171">
        <ele>1335.8</ele>
        <time>2024-09-25T09:27:56Z</time>
      </trkpt>
      <trkpt lat="42.36943" lon="2.18171">
        <ele>1335.8</ele>
        <time>2024-09-25T09:27:57Z</time>
      </trkpt>
      <trkpt lat="42.36943" lon="2.18171">
        <ele>1335.8</ele>
        <time>2024-09-25T09:27:58Z</time>
      </trkpt>
      <trkpt lat="42.36943" lon="2.18171">
        <ele>1335.8</ele>
        <time>2024-09-25T09:27:59Z</time>
      </trkpt>
      <trkpt lat="42.36943" lon="2.18171">
        <ele>1335.8</ele>
        <time>2024-09-25T09:28:00Z</time>
      </trkpt>
      <trkpt lat="42.36943" lon="2.18171">
        <ele>1335.8</ele>
        <time>2024-09-25T09:28:01Z</time>
      </trkpt>
      <trkpt lat="42.36943" lon="2.18171">
        <ele>1335.8</ele>
        <time>2024-09-25T09:28:02Z</time>
      </trkpt>
      <trkpt lat="42.36943" lon="2.18171">
        <ele>1335.8</ele>
        <time>2024-09-25T09:28:03Z</time>
      </trkpt>
      <trkpt lat="42.36943" lon="2.18171">
        <ele>1335.8</ele>
        <time>2024-09-25T09:28:04Z</time>
      </trkpt>
      <trkpt lat="42.36943" lon="2.18171">
        <ele>1335.8</ele>
        <time>2024-09-25T09:28:05Z</time>
      </trkpt>
      <trkpt lat="42.36943" lon="2.18171">
        <ele>1335.8</ele>
        <time>2024-09-25T09:28:06Z</time>
      </trkpt>
      <trkpt lat="42.36943" lon="2.18171">
        <ele>1335.8</ele>
        <time>2024-09-25T09:28:07Z</time>
      </trkpt>
      <trkpt lat="42.36943" lon="2.18171">
        <ele>1335.8</ele>
        <time>2024-09-25T09:28:08Z</time>
      </trkpt>
      <trkpt lat="42.36943" lon="2.18171">
        <ele>1335.9</ele>
        <time>2024-09-25T09:28:09Z</time>
      </trkpt>
      <trkpt lat="42.36943" lon="2.18172">
        <ele>1335.9</ele>
        <time>2024-09-25T09:28:10Z</time>
      </trkpt>
      <trkpt lat="42.36943" lon="2.18172">
        <ele>1336</ele>
        <time>2024-09-25T09:28:11Z</time>
      </trkpt>
      <trkpt lat="42.36942" lon="2.18172">
        <ele>1336</ele>
        <time>2024-09-25T09:28:12Z</time>
      </trkpt>
      <trkpt lat="42.36942" lon="2.18172">
        <ele>1336</ele>
        <time>2024-09-25T09:28:13Z</time>
      </trkpt>
      <trkpt lat="42.36942" lon="2.18171">
        <ele>1336</ele>
        <time>2024-09-25T09:28:14Z</time>
      </trkpt>
      <trkpt lat="42.36942" lon="2.18171">
        <ele>1336</ele>
        <time>2024-09-25T09:28:15Z</time>
      </trkpt>
      <trkpt lat="42.36942" lon="2.18171">
        <ele>1336</ele>
        <time>2024-09-25T09:28:16Z</time>
      </trkpt>
      <trkpt lat="42.36942" lon="2.18171">
        <ele>1336</ele>
        <time>2024-09-25T09:28:17Z</time>
      </trkpt>
      <trkpt lat="42.36942" lon="2.18171">
        <ele>1336</ele>
        <time>2024-09-25T09:28:18Z</time>
      </trkpt>
      <trkpt lat="42.36942" lon="2.18171">
        <ele>1336</ele>
        <time>2024-09-25T09:28:19Z</time>
      </trkpt>
      <trkpt lat="42.36942" lon="2.18171">
        <ele>1336</ele>
        <time>2024-09-25T09:28:20Z</time>
      </trkpt>
      <trkpt lat="42.36942" lon="2.18171">
        <ele>1336</ele>
        <time>2024-09-25T09:28:21Z</time>
      </trkpt>
      <trkpt lat="42.36942" lon="2.18171">
        <ele>1336</ele>
        <time>2024-09-25T09:28:22Z</time>
      </trkpt>
      <trkpt lat="42.36942" lon="2.18171">
        <ele>1336</ele>
        <time>2024-09-25T09:28:23Z</time>
      </trkpt>
      <trkpt lat="42.36942" lon="2.18171">
        <ele>1336</ele>
        <time>2024-09-25T09:28:24Z</time>
      </trkpt>
      <trkpt lat="42.36942" lon="2.18172">
        <ele>1336.1</ele>
        <time>2024-09-25T09:28:25Z</time>
      </trkpt>
      <trkpt lat="42.36942" lon="2.18172">
        <ele>1336.2</ele>
        <time>2024-09-25T09:28:26Z</time>
      </trkpt>
      <trkpt lat="42.36941" lon="2.18173">
        <ele>1336.2</ele>
        <time>2024-09-25T09:28:27Z</time>
      </trkpt>
      <trkpt lat="42.36941" lon="2.18174">
        <ele>1336.3</ele>
        <time>2024-09-25T09:28:28Z</time>
      </trkpt>
      <trkpt lat="42.36941" lon="2.18175">
        <ele>1336.4</ele>
        <time>2024-09-25T09:28:29Z</time>
      </trkpt>
      <trkpt lat="42.3694" lon="2.18175">
        <ele>1336.4</ele>
        <time>2024-09-25T09:28:30Z</time>
      </trkpt>
      <trkpt lat="42.3694" lon="2.18176">
        <ele>1336.5</ele>
        <time>2024-09-25T09:28:31Z</time>
      </trkpt>
      <trkpt lat="42.3694" lon="2.18177">
        <ele>1336.5</ele>
        <time>2024-09-25T09:28:32Z</time>
      </trkpt>
      <trkpt lat="42.3694" lon="2.18177">
        <ele>1336.6</ele>
        <time>2024-09-25T09:28:33Z</time>
      </trkpt>
      <trkpt lat="42.3694" lon="2.18178">
        <ele>1336.6</ele>
        <time>2024-09-25T09:28:34Z</time>
      </trkpt>
      <trkpt lat="42.3694" lon="2.18178">
        <ele>1336.6</ele>
        <time>2024-09-25T09:28:35Z</time>
      </trkpt>
      <trkpt lat="42.36939" lon="2.18179">
        <ele>1336.7</ele>
        <time>2024-09-25T09:28:36Z</time>
      </trkpt>
      <trkpt lat="42.36939" lon="2.1818">
        <ele>1336.8</ele>
        <time>2024-09-25T09:28:37Z</time>
      </trkpt>
      <trkpt lat="42.36939" lon="2.18181">
        <ele>1336.8</ele>
        <time>2024-09-25T09:28:38Z</time>
      </trkpt>
      <trkpt lat="42.36939" lon="2.18182">
        <ele>1336.9</ele>
        <time>2024-09-25T09:28:39Z</time>
      </trkpt>
      <trkpt lat="42.36938" lon="2.18183">
        <ele>1336.9</ele>
        <time>2024-09-25T09:28:40Z</time>
      </trkpt>
      <trkpt lat="42.36938" lon="2.18184">
        <ele>1337</ele>
        <time>2024-09-25T09:28:41Z</time>
      </trkpt>
      <trkpt lat="42.36938" lon="2.18185">
        <ele>1337</ele>
        <time>2024-09-25T09:28:42Z</time>
      </trkpt>
      <trkpt lat="42.36938" lon="2.18186">
        <ele>1337</ele>
        <time>2024-09-25T09:28:43Z</time>
      </trkpt>
      <trkpt lat="42.36938" lon="2.18187">
        <ele>1337.1</ele>
        <time>2024-09-25T09:28:44Z</time>
      </trkpt>
      <trkpt lat="42.36938" lon="2.18188">
        <ele>1337.1</ele>
        <time>2024-09-25T09:28:45Z</time>
      </trkpt>
      <trkpt lat="42.36938" lon="2.18189">
        <ele>1337.2</ele>
        <time>2024-09-25T09:28:46Z</time>
      </trkpt>
      <trkpt lat="42.36938" lon="2.1819">
        <ele>1337.2</ele>
        <time>2024-09-25T09:28:47Z</time>
      </trkpt>
      <trkpt lat="42.36938" lon="2.18191">
        <ele>1337.2</ele>
        <time>2024-09-25T09:28:48Z</time>
      </trkpt>
      <trkpt lat="42.36938" lon="2.18192">
        <ele>1337.2</ele>
        <time>2024-09-25T09:28:49Z</time>
      </trkpt>
      <trkpt lat="42.36938" lon="2.18192">
        <ele>1337.2</ele>
        <time>2024-09-25T09:28:50Z</time>
      </trkpt>
      <trkpt lat="42.36938" lon="2.18194">
        <ele>1337.3</ele>
        <time>2024-09-25T09:28:51Z</time>
      </trkpt>
      <trkpt lat="42.36937" lon="2.18195">
        <ele>1337.3</ele>
        <time>2024-09-25T09:28:52Z</time>
      </trkpt>
      <trkpt lat="42.36937" lon="2.18196">
        <ele>1337.3</ele>
        <time>2024-09-25T09:28:53Z</time>
      </trkpt>
      <trkpt lat="42.36937" lon="2.18197">
        <ele>1337.3</ele>
        <time>2024-09-25T09:28:54Z</time>
      </trkpt>
      <trkpt lat="42.36937" lon="2.18198">
        <ele>1337.4</ele>
        <time>2024-09-25T09:28:55Z</time>
      </trkpt>
      <trkpt lat="42.36937" lon="2.18199">
        <ele>1337.4</ele>
        <time>2024-09-25T09:28:56Z</time>
      </trkpt>
      <trkpt lat="42.36937" lon="2.182">
        <ele>1337.4</ele>
        <time>2024-09-25T09:28:57Z</time>
      </trkpt>
      <trkpt lat="42.36936" lon="2.182">
        <ele>1337.4</ele>
        <time>2024-09-25T09:28:58Z</time>
      </trkpt>
      <trkpt lat="42.36936" lon="2.18199">
        <ele>1337.4</ele>
        <time>2024-09-25T09:28:59Z</time>
      </trkpt>
      <trkpt lat="42.36936" lon="2.18198">
        <ele>1337.4</ele>
        <time>2024-09-25T09:29:00Z</time>
      </trkpt>
      <trkpt lat="42.36936" lon="2.18197">
        <ele>1337.4</ele>
        <time>2024-09-25T09:29:01Z</time>
      </trkpt>
      <trkpt lat="42.36936" lon="2.18196">
        <ele>1337.5</ele>
        <time>2024-09-25T09:29:02Z</time>
      </trkpt>
      <trkpt lat="42.36936" lon="2.18196">
        <ele>1337.5</ele>
        <time>2024-09-25T09:29:03Z</time>
      </trkpt>
      <trkpt lat="42.36936" lon="2.18196">
        <ele>1337.5</ele>
        <time>2024-09-25T09:29:04Z</time>
      </trkpt>
      <trkpt lat="42.36935" lon="2.18196">
        <ele>1337.5</ele>
        <time>2024-09-25T09:29:05Z</time>
      </trkpt>
      <trkpt lat="42.36935" lon="2.18196">
        <ele>1337.5</ele>
        <time>2024-09-25T09:29:06Z</time>
      </trkpt>
      <trkpt lat="42.36935" lon="2.18196">
        <ele>1337.5</ele>
        <time>2024-09-25T09:29:07Z</time>
      </trkpt>
      <trkpt lat="42.36935" lon="2.18196">
        <ele>1337.5</ele>
        <time>2024-09-25T09:29:08Z</time>
      </trkpt>
      <trkpt lat="42.36935" lon="2.18196">
        <ele>1337.5</ele>
        <time>2024-09-25T09:29:09Z</time>
      </trkpt>
      <trkpt lat="42.36935" lon="2.18196">
        <ele>1337.5</ele>
        <time>2024-09-25T09:29:10Z</time>
      </trkpt>
      <trkpt lat="42.36935" lon="2.18197">
        <ele>1337.5</ele>
        <time>2024-09-25T09:29:11Z</time>
      </trkpt>
      <trkpt lat="42.36935" lon="2.18197">
        <ele>1337.5</ele>
        <time>2024-09-25T09:29:12Z</time>
      </trkpt>
      <trkpt lat="42.36935" lon="2.18198">
        <ele>1337.5</ele>
        <time>2024-09-25T09:29:13Z</time>
      </trkpt>
      <trkpt lat="42.36935" lon="2.18198">
        <ele>1337.5</ele>
        <time>2024-09-25T09:29:14Z</time>
      </trkpt>
      <trkpt lat="42.36935" lon="2.18198">
        <ele>1337.5</ele>
        <time>2024-09-25T09:29:15Z</time>
      </trkpt>
      <trkpt lat="42.36935" lon="2.18198">
        <ele>1337.5</ele>
        <time>2024-09-25T09:29:16Z</time>
      </trkpt>
      <trkpt lat="42.36935" lon="2.18198">
        <ele>1337.5</ele>
        <time>2024-09-25T09:29:17Z</time>
      </trkpt>
      <trkpt lat="42.36935" lon="2.18198">
        <ele>1337.5</ele>
        <time>2024-09-25T09:29:18Z</time>
      </trkpt>
      <trkpt lat="42.36935" lon="2.18198">
        <ele>1337.5</ele>
        <time>2024-09-25T09:29:19Z</time>
      </trkpt>
      <trkpt lat="42.36935" lon="2.18198">
        <ele>1337.5</ele>
        <time>2024-09-25T09:29:20Z</time>
      </trkpt>
      <trkpt lat="42.36935" lon="2.18198">
        <ele>1337.5</ele>
        <time>2024-09-25T09:29:21Z</time>
      </trkpt>
      <trkpt lat="42.36935" lon="2.18198">
        <ele>1337.5</ele>
        <time>2024-09-25T09:29:22Z</time>
      </trkpt>
      <trkpt lat="42.36935" lon="2.18198">
        <ele>1337.5</ele>
        <time>2024-09-25T09:29:23Z</time>
      </trkpt>
      <trkpt lat="42.36935" lon="2.18198">
        <ele>1337.5</ele>
        <time>2024-09-25T09:29:24Z</time>
      </trkpt>
      <trkpt lat="42.36935" lon="2.18198">
        <ele>1337.5</ele>
        <time>2024-09-25T09:29:25Z</time>
      </trkpt>
      <trkpt lat="42.36935" lon="2.18198">
        <ele>1337.5</ele>
        <time>2024-09-25T09:29:26Z</time>
      </trkpt>
      <trkpt lat="42.36935" lon="2.18198">
        <ele>1337.5</ele>
        <time>2024-09-25T09:29:27Z</time>
      </trkpt>
      <trkpt lat="42.36935" lon="2.18198">
        <ele>1337.5</ele>
        <time>2024-09-25T09:29:28Z</time>
      </trkpt>
      <trkpt lat="42.36935" lon="2.18198">
        <ele>1337.5</ele>
        <time>2024-09-25T09:29:29Z</time>
      </trkpt>
      <trkpt lat="42.36935" lon="2.18198">
        <ele>1337.5</ele>
        <time>2024-09-25T09:29:30Z</time>
      </trkpt>
      <trkpt lat="42.36935" lon="2.18198">
        <ele>1337.5</ele>
        <time>2024-09-25T09:29:31Z</time>
      </trkpt>
      <trkpt lat="42.36935" lon="2.18198">
        <ele>1337.5</ele>
        <time>2024-09-25T09:29:32Z</time>
      </trkpt>
      <trkpt lat="42.36935" lon="2.18198">
        <ele>1337.5</ele>
        <time>2024-09-25T09:29:33Z</time>
      </trkpt>
      <trkpt lat="42.36935" lon="2.18198">
        <ele>1337.5</ele>
        <time>2024-09-25T09:29:34Z</time>
      </trkpt>
      <trkpt lat="42.36935" lon="2.18198">
        <ele>1337.5</ele>
        <time>2024-09-25T09:29:35Z</time>
      </trkpt>
      <trkpt lat="42.36935" lon="2.18198">
        <ele>1337.5</ele>
        <time>2024-09-25T09:29:36Z</time>
      </trkpt>
      <trkpt lat="42.36935" lon="2.18198">
        <ele>1337.5</ele>
        <time>2024-09-25T09:29:37Z</time>
      </trkpt>
      <trkpt lat="42.36935" lon="2.18198">
        <ele>1337.5</ele>
        <time>2024-09-25T09:29:38Z</time>
      </trkpt>
      <trkpt lat="42.36935" lon="2.18198">
        <ele>1337.5</ele>
        <time>2024-09-25T09:29:39Z</time>
      </trkpt>
      <trkpt lat="42.36935" lon="2.18198">
        <ele>1337.5</ele>
        <time>2024-09-25T09:29:40Z</time>
      </trkpt>
      <trkpt lat="42.36935" lon="2.18198">
        <ele>1337.5</ele>
        <time>2024-09-25T09:29:41Z</time>
      </trkpt>
      <trkpt lat="42.36935" lon="2.18198">
        <ele>1337.5</ele>
        <time>2024-09-25T09:29:42Z</time>
      </trkpt>
      <trkpt lat="42.36935" lon="2.18198">
        <ele>1337.5</ele>
        <time>2024-09-25T09:29:43Z</time>
      </trkpt>
      <trkpt lat="42.36935" lon="2.18198">
        <ele>1337.5</ele>
        <time>2024-09-25T09:29:44Z</time>
      </trkpt>
      <trkpt lat="42.36935" lon="2.182">
        <ele>1337.5</ele>
        <time>2024-09-25T09:29:45Z</time>
      </trkpt>
      <trkpt lat="42.36935" lon="2.18201">
        <ele>1337.5</ele>
        <time>2024-09-25T09:29:46Z</time>
      </trkpt>
      <trkpt lat="42.36935" lon="2.18202">
        <ele>1337.5</ele>
        <time>2024-09-25T09:29:47Z</time>
      </trkpt>
      <trkpt lat="42.36934" lon="2.18203">
        <ele>1337.5</ele>
        <time>2024-09-25T09:29:48Z</time>
      </trkpt>
      <trkpt lat="42.36934" lon="2.18204">
        <ele>1337.5</ele>
        <time>2024-09-25T09:29:49Z</time>
      </trkpt>
      <trkpt lat="42.36933" lon="2.18206">
        <ele>1337.6</ele>
        <time>2024-09-25T09:29:50Z</time>
      </trkpt>
      <trkpt lat="42.36933" lon="2.18207">
        <ele>1337.6</ele>
        <time>2024-09-25T09:29:51Z</time>
      </trkpt>
      <trkpt lat="42.36933" lon="2.18208">
        <ele>1337.6</ele>
        <time>2024-09-25T09:29:52Z</time>
      </trkpt>
      <trkpt lat="42.36933" lon="2.18209">
        <ele>1337.6</ele>
        <time>2024-09-25T09:29:53Z</time>
      </trkpt>
      <trkpt lat="42.36933" lon="2.1821">
        <ele>1337.6</ele>
        <time>2024-09-25T09:29:54Z</time>
      </trkpt>
      <trkpt lat="42.36933" lon="2.18211">
        <ele>1337.6</ele>
        <time>2024-09-25T09:29:55Z</time>
      </trkpt>
      <trkpt lat="42.36933" lon="2.18212">
        <ele>1337.6</ele>
        <time>2024-09-25T09:29:56Z</time>
      </trkpt>
      <trkpt lat="42.36933" lon="2.18213">
        <ele>1337.7</ele>
        <time>2024-09-25T09:29:57Z</time>
      </trkpt>
      <trkpt lat="42.36933" lon="2.18214">
        <ele>1337.7</ele>
        <time>2024-09-25T09:29:58Z</time>
      </trkpt>
      <trkpt lat="42.36933" lon="2.18216">
        <ele>1337.7</ele>
        <time>2024-09-25T09:29:59Z</time>
      </trkpt>
      <trkpt lat="42.36932" lon="2.18217">
        <ele>1337.7</ele>
        <time>2024-09-25T09:30:00Z</time>
      </trkpt>
      <trkpt lat="42.36932" lon="2.18218">
        <ele>1337.8</ele>
        <time>2024-09-25T09:30:01Z</time>
      </trkpt>
      <trkpt lat="42.36931" lon="2.18219">
        <ele>1337.8</ele>
        <time>2024-09-25T09:30:02Z</time>
      </trkpt>
      <trkpt lat="42.36931" lon="2.1822">
        <ele>1337.8</ele>
        <time>2024-09-25T09:30:03Z</time>
      </trkpt>
      <trkpt lat="42.3693" lon="2.1822">
        <ele>1337.8</ele>
        <time>2024-09-25T09:30:04Z</time>
      </trkpt>
      <trkpt lat="42.36929" lon="2.18221">
        <ele>1337.8</ele>
        <time>2024-09-25T09:30:05Z</time>
      </trkpt>
      <trkpt lat="42.36929" lon="2.18222">
        <ele>1337.9</ele>
        <time>2024-09-25T09:30:06Z</time>
      </trkpt>
      <trkpt lat="42.36928" lon="2.18224">
        <ele>1337.9</ele>
        <time>2024-09-25T09:30:07Z</time>
      </trkpt>
      <trkpt lat="42.36928" lon="2.18225">
        <ele>1337.9</ele>
        <time>2024-09-25T09:30:08Z</time>
      </trkpt>
      <trkpt lat="42.36928" lon="2.18226">
        <ele>1338</ele>
        <time>2024-09-25T09:30:09Z</time>
      </trkpt>
      <trkpt lat="42.36927" lon="2.18229">
        <ele>1338.1</ele>
        <time>2024-09-25T09:30:10Z</time>
      </trkpt>
      <trkpt lat="42.36927" lon="2.1823">
        <ele>1338.1</ele>
        <time>2024-09-25T09:30:11Z</time>
      </trkpt>
      <trkpt lat="42.36926" lon="2.18231">
        <ele>1338.1</ele>
        <time>2024-09-25T09:30:12Z</time>
      </trkpt>
      <trkpt lat="42.36926" lon="2.18232">
        <ele>1338.2</ele>
        <time>2024-09-25T09:30:13Z</time>
      </trkpt>
      <trkpt lat="42.36926" lon="2.18234">
        <ele>1338.2</ele>
        <time>2024-09-25T09:30:14Z</time>
      </trkpt>
      <trkpt lat="42.36926" lon="2.18235">
        <ele>1338.3</ele>
        <time>2024-09-25T09:30:15Z</time>
      </trkpt>
      <trkpt lat="42.36926" lon="2.18237">
        <ele>1338.3</ele>
        <time>2024-09-25T09:30:16Z</time>
      </trkpt>
      <trkpt lat="42.36926" lon="2.18238">
        <ele>1338.4</ele>
        <time>2024-09-25T09:30:17Z</time>
      </trkpt>
      <trkpt lat="42.36926" lon="2.1824">
        <ele>1338.4</ele>
        <time>2024-09-25T09:30:18Z</time>
      </trkpt>
      <trkpt lat="42.36926" lon="2.18241">
        <ele>1338.5</ele>
        <time>2024-09-25T09:30:19Z</time>
      </trkpt>
      <trkpt lat="42.36926" lon="2.18243">
        <ele>1338.5</ele>
        <time>2024-09-25T09:30:20Z</time>
      </trkpt>
      <trkpt lat="42.36927" lon="2.18245">
        <ele>1338.6</ele>
        <time>2024-09-25T09:30:21Z</time>
      </trkpt>
      <trkpt lat="42.36927" lon="2.18246">
        <ele>1338.6</ele>
        <time>2024-09-25T09:30:22Z</time>
      </trkpt>
      <trkpt lat="42.36927" lon="2.18247">
        <ele>1338.7</ele>
        <time>2024-09-25T09:30:23Z</time>
      </trkpt>
      <trkpt lat="42.36927" lon="2.18249">
        <ele>1338.7</ele>
        <time>2024-09-25T09:30:24Z</time>
      </trkpt>
      <trkpt lat="42.36927" lon="2.1825">
        <ele>1338.7</ele>
        <time>2024-09-25T09:30:25Z</time>
      </trkpt>
      <trkpt lat="42.36927" lon="2.18251">
        <ele>1338.8</ele>
        <time>2024-09-25T09:30:26Z</time>
      </trkpt>
      <trkpt lat="42.36927" lon="2.18252">
        <ele>1338.8</ele>
        <time>2024-09-25T09:30:27Z</time>
      </trkpt>
      <trkpt lat="42.36927" lon="2.18255">
        <ele>1338.9</ele>
        <time>2024-09-25T09:30:28Z</time>
      </trkpt>
      <trkpt lat="42.36927" lon="2.18255">
        <ele>1338.9</ele>
        <time>2024-09-25T09:30:29Z</time>
      </trkpt>
      <trkpt lat="42.36927" lon="2.18256">
        <ele>1338.9</ele>
        <time>2024-09-25T09:30:30Z</time>
      </trkpt>
      <trkpt lat="42.36927" lon="2.18257">
        <ele>1339</ele>
        <time>2024-09-25T09:30:31Z</time>
      </trkpt>
      <trkpt lat="42.36927" lon="2.18259">
        <ele>1339</ele>
        <time>2024-09-25T09:30:32Z</time>
      </trkpt>
      <trkpt lat="42.36927" lon="2.1826">
        <ele>1339</ele>
        <time>2024-09-25T09:30:33Z</time>
      </trkpt>
      <trkpt lat="42.36927" lon="2.18262">
        <ele>1339.1</ele>
        <time>2024-09-25T09:30:34Z</time>
      </trkpt>
      <trkpt lat="42.36927" lon="2.18264">
        <ele>1339.1</ele>
        <time>2024-09-25T09:30:35Z</time>
      </trkpt>
      <trkpt lat="42.36928" lon="2.18265">
        <ele>1339.2</ele>
        <time>2024-09-25T09:30:36Z</time>
      </trkpt>
      <trkpt lat="42.36928" lon="2.18267">
        <ele>1339.2</ele>
        <time>2024-09-25T09:30:37Z</time>
      </trkpt>
      <trkpt lat="42.36929" lon="2.18268">
        <ele>1339.2</ele>
        <time>2024-09-25T09:30:38Z</time>
      </trkpt>
      <trkpt lat="42.36929" lon="2.18269">
        <ele>1339.3</ele>
        <time>2024-09-25T09:30:39Z</time>
      </trkpt>
      <trkpt lat="42.3693" lon="2.1827">
        <ele>1339.3</ele>
        <time>2024-09-25T09:30:40Z</time>
      </trkpt>
      <trkpt lat="42.3693" lon="2.18271">
        <ele>1339.3</ele>
        <time>2024-09-25T09:30:41Z</time>
      </trkpt>
      <trkpt lat="42.36931" lon="2.18272">
        <ele>1339.3</ele>
        <time>2024-09-25T09:30:42Z</time>
      </trkpt>
      <trkpt lat="42.36931" lon="2.18273">
        <ele>1339.4</ele>
        <time>2024-09-25T09:30:43Z</time>
      </trkpt>
      <trkpt lat="42.36932" lon="2.18275">
        <ele>1339.4</ele>
        <time>2024-09-25T09:30:44Z</time>
      </trkpt>
      <trkpt lat="42.36932" lon="2.18276">
        <ele>1339.4</ele>
        <time>2024-09-25T09:30:45Z</time>
      </trkpt>
      <trkpt lat="42.36932" lon="2.18277">
        <ele>1339.5</ele>
        <time>2024-09-25T09:30:46Z</time>
      </trkpt>
      <trkpt lat="42.36932" lon="2.18279">
        <ele>1339.5</ele>
        <time>2024-09-25T09:30:47Z</time>
      </trkpt>
      <trkpt lat="42.36932" lon="2.1828">
        <ele>1339.5</ele>
        <time>2024-09-25T09:30:48Z</time>
      </trkpt>
      <trkpt lat="42.36931" lon="2.18282">
        <ele>1339.5</ele>
        <time>2024-09-25T09:30:49Z</time>
      </trkpt>
      <trkpt lat="42.36931" lon="2.18283">
        <ele>1339.6</ele>
        <time>2024-09-25T09:30:50Z</time>
      </trkpt>
      <trkpt lat="42.36932" lon="2.18284">
        <ele>1339.6</ele>
        <time>2024-09-25T09:30:51Z</time>
      </trkpt>
      <trkpt lat="42.36932" lon="2.18285">
        <ele>1339.6</ele>
        <time>2024-09-25T09:30:52Z</time>
      </trkpt>
      <trkpt lat="42.36932" lon="2.18286">
        <ele>1339.6</ele>
        <time>2024-09-25T09:30:53Z</time>
      </trkpt>
      <trkpt lat="42.36933" lon="2.18287">
        <ele>1339.7</ele>
        <time>2024-09-25T09:30:54Z</time>
      </trkpt>
      <trkpt lat="42.36934" lon="2.18288">
        <ele>1339.7</ele>
        <time>2024-09-25T09:30:55Z</time>
      </trkpt>
      <trkpt lat="42.36934" lon="2.18288">
        <ele>1339.7</ele>
        <time>2024-09-25T09:30:56Z</time>
      </trkpt>
      <trkpt lat="42.36935" lon="2.18288">
        <ele>1339.7</ele>
        <time>2024-09-25T09:30:57Z</time>
      </trkpt>
      <trkpt lat="42.36936" lon="2.18289">
        <ele>1339.7</ele>
        <time>2024-09-25T09:30:58Z</time>
      </trkpt>
      <trkpt lat="42.36937" lon="2.1829">
        <ele>1339.7</ele>
        <time>2024-09-25T09:30:59Z</time>
      </trkpt>
      <trkpt lat="42.36938" lon="2.18291">
        <ele>1339.7</ele>
        <time>2024-09-25T09:31:00Z</time>
      </trkpt>
      <trkpt lat="42.36939" lon="2.18291">
        <ele>1339.6</ele>
        <time>2024-09-25T09:31:01Z</time>
      </trkpt>
      <trkpt lat="42.3694" lon="2.18292">
        <ele>1339.6</ele>
        <time>2024-09-25T09:31:02Z</time>
      </trkpt>
      <trkpt lat="42.36941" lon="2.18293">
        <ele>1339.5</ele>
        <time>2024-09-25T09:31:03Z</time>
      </trkpt>
      <trkpt lat="42.36942" lon="2.18293">
        <ele>1339.5</ele>
        <time>2024-09-25T09:31:04Z</time>
      </trkpt>
      <trkpt lat="42.36943" lon="2.18294">
        <ele>1339.5</ele>
        <time>2024-09-25T09:31:05Z</time>
      </trkpt>
      <trkpt lat="42.36944" lon="2.18294">
        <ele>1339.4</ele>
        <time>2024-09-25T09:31:06Z</time>
      </trkpt>
      <trkpt lat="42.36945" lon="2.18294">
        <ele>1339.4</ele>
        <time>2024-09-25T09:31:07Z</time>
      </trkpt>
      <trkpt lat="42.36945" lon="2.18295">
        <ele>1339.4</ele>
        <time>2024-09-25T09:31:08Z</time>
      </trkpt>
      <trkpt lat="42.36946" lon="2.18296">
        <ele>1339.3</ele>
        <time>2024-09-25T09:31:09Z</time>
      </trkpt>
      <trkpt lat="42.36947" lon="2.18296">
        <ele>1339.3</ele>
        <time>2024-09-25T09:31:10Z</time>
      </trkpt>
      <trkpt lat="42.36948" lon="2.18297">
        <ele>1339.3</ele>
        <time>2024-09-25T09:31:11Z</time>
      </trkpt>
      <trkpt lat="42.36949" lon="2.18298">
        <ele>1339.3</ele>
        <time>2024-09-25T09:31:12Z</time>
      </trkpt>
      <trkpt lat="42.3695" lon="2.18298">
        <ele>1339.2</ele>
        <time>2024-09-25T09:31:13Z</time>
      </trkpt>
      <trkpt lat="42.3695" lon="2.18299">
        <ele>1339.2</ele>
        <time>2024-09-25T09:31:14Z</time>
      </trkpt>
      <trkpt lat="42.36951" lon="2.18299">
        <ele>1339.2</ele>
        <time>2024-09-25T09:31:15Z</time>
      </trkpt>
      <trkpt lat="42.36951" lon="2.18298">
        <ele>1339.2</ele>
        <time>2024-09-25T09:31:16Z</time>
      </trkpt>
      <trkpt lat="42.36952" lon="2.18299">
        <ele>1339.2</ele>
        <time>2024-09-25T09:31:17Z</time>
      </trkpt>
      <trkpt lat="42.36953" lon="2.183">
        <ele>1339.2</ele>
        <time>2024-09-25T09:31:18Z</time>
      </trkpt>
      <trkpt lat="42.36954" lon="2.183">
        <ele>1339.1</ele>
        <time>2024-09-25T09:31:19Z</time>
      </trkpt>
      <trkpt lat="42.36954" lon="2.183">
        <ele>1339.1</ele>
        <time>2024-09-25T09:31:20Z</time>
      </trkpt>
      <trkpt lat="42.36954" lon="2.18299">
        <ele>1339.1</ele>
        <time>2024-09-25T09:31:21Z</time>
      </trkpt>
      <trkpt lat="42.36955" lon="2.183">
        <ele>1339.1</ele>
        <time>2024-09-25T09:31:22Z</time>
      </trkpt>
      <trkpt lat="42.36956" lon="2.183">
        <ele>1339.1</ele>
        <time>2024-09-25T09:31:23Z</time>
      </trkpt>
      <trkpt lat="42.36956" lon="2.18299">
        <ele>1339.1</ele>
        <time>2024-09-25T09:31:24Z</time>
      </trkpt>
      <trkpt lat="42.36956" lon="2.18299">
        <ele>1339.1</ele>
        <time>2024-09-25T09:31:25Z</time>
      </trkpt>
      <trkpt lat="42.36956" lon="2.18301">
        <ele>1339.1</ele>
        <time>2024-09-25T09:31:26Z</time>
      </trkpt>
      <trkpt lat="42.36956" lon="2.18302">
        <ele>1339.1</ele>
        <time>2024-09-25T09:31:27Z</time>
      </trkpt>
      <trkpt lat="42.36958" lon="2.18303">
        <ele>1339.1</ele>
        <time>2024-09-25T09:31:28Z</time>
      </trkpt>
      <trkpt lat="42.36959" lon="2.18304">
        <ele>1339.1</ele>
        <time>2024-09-25T09:31:29Z</time>
      </trkpt>
      <trkpt lat="42.36959" lon="2.18305">
        <ele>1339.1</ele>
        <time>2024-09-25T09:31:30Z</time>
      </trkpt>
      <trkpt lat="42.36962" lon="2.18306">
        <ele>1339.2</ele>
        <time>2024-09-25T09:31:31Z</time>
      </trkpt>
      <trkpt lat="42.36964" lon="2.18306">
        <ele>1339.3</ele>
        <time>2024-09-25T09:31:32Z</time>
      </trkpt>
      <trkpt lat="42.36966" lon="2.18307">
        <ele>1339.3</ele>
        <time>2024-09-25T09:31:33Z</time>
      </trkpt>
      <trkpt lat="42.36967" lon="2.18306">
        <ele>1339.4</ele>
        <time>2024-09-25T09:31:34Z</time>
      </trkpt>
      <trkpt lat="42.36968" lon="2.18306">
        <ele>1339.4</ele>
        <time>2024-09-25T09:31:35Z</time>
      </trkpt>
      <trkpt lat="42.36968" lon="2.18306">
        <ele>1339.5</ele>
        <time>2024-09-25T09:31:36Z</time>
      </trkpt>
      <trkpt lat="42.36969" lon="2.18306">
        <ele>1339.5</ele>
        <time>2024-09-25T09:31:37Z</time>
      </trkpt>
      <trkpt lat="42.36969" lon="2.18306">
        <ele>1339.5</ele>
        <time>2024-09-25T09:31:38Z</time>
      </trkpt>
      <trkpt lat="42.3697" lon="2.18306">
        <ele>1339.6</ele>
        <time>2024-09-25T09:31:39Z</time>
      </trkpt>
      <trkpt lat="42.36971" lon="2.18306">
        <ele>1339.6</ele>
        <time>2024-09-25T09:31:40Z</time>
      </trkpt>
      <trkpt lat="42.36973" lon="2.18306">
        <ele>1339.8</ele>
        <time>2024-09-25T09:31:41Z</time>
      </trkpt>
      <trkpt lat="42.36974" lon="2.18306">
        <ele>1339.8</ele>
        <time>2024-09-25T09:31:42Z</time>
      </trkpt>
      <trkpt lat="42.36974" lon="2.18306">
        <ele>1339.9</ele>
        <time>2024-09-25T09:31:43Z</time>
      </trkpt>
      <trkpt lat="42.36975" lon="2.18305">
        <ele>1340</ele>
        <time>2024-09-25T09:31:44Z</time>
      </trkpt>
      <trkpt lat="42.36975" lon="2.18305">
        <ele>1340.1</ele>
        <time>2024-09-25T09:31:45Z</time>
      </trkpt>
      <trkpt lat="42.36976" lon="2.18305">
        <ele>1340.1</ele>
        <time>2024-09-25T09:31:46Z</time>
      </trkpt>
      <trkpt lat="42.36976" lon="2.18305">
        <ele>1340.2</ele>
        <time>2024-09-25T09:31:47Z</time>
      </trkpt>
      <trkpt lat="42.36977" lon="2.18305">
        <ele>1340.2</ele>
        <time>2024-09-25T09:31:48Z</time>
      </trkpt>
      <trkpt lat="42.36978" lon="2.18305">
        <ele>1340.3</ele>
        <time>2024-09-25T09:31:49Z</time>
      </trkpt>
      <trkpt lat="42.36978" lon="2.18305">
        <ele>1340.4</ele>
        <time>2024-09-25T09:31:50Z</time>
      </trkpt>
      <trkpt lat="42.36979" lon="2.18305">
        <ele>1340.5</ele>
        <time>2024-09-25T09:31:51Z</time>
      </trkpt>
      <trkpt lat="42.3698" lon="2.18305">
        <ele>1340.6</ele>
        <time>2024-09-25T09:31:52Z</time>
      </trkpt>
      <trkpt lat="42.36982" lon="2.18305">
        <ele>1340.8</ele>
        <time>2024-09-25T09:31:53Z</time>
      </trkpt>
      <trkpt lat="42.36983" lon="2.18305">
        <ele>1341</ele>
        <time>2024-09-25T09:31:54Z</time>
      </trkpt>
      <trkpt lat="42.36984" lon="2.18305">
        <ele>1341.1</ele>
        <time>2024-09-25T09:31:55Z</time>
      </trkpt>
      <trkpt lat="42.36984" lon="2.18305">
        <ele>1341.2</ele>
        <time>2024-09-25T09:31:56Z</time>
      </trkpt>
      <trkpt lat="42.36985" lon="2.18305">
        <ele>1341.2</ele>
        <time>2024-09-25T09:31:57Z</time>
      </trkpt>
      <trkpt lat="42.36985" lon="2.18306">
        <ele>1341.3</ele>
        <time>2024-09-25T09:31:58Z</time>
      </trkpt>
      <trkpt lat="42.36986" lon="2.18306">
        <ele>1341.4</ele>
        <time>2024-09-25T09:31:59Z</time>
      </trkpt>
      <trkpt lat="42.36986" lon="2.18306">
        <ele>1341.5</ele>
        <time>2024-09-25T09:32:00Z</time>
      </trkpt>
      <trkpt lat="42.36987" lon="2.18307">
        <ele>1341.7</ele>
        <time>2024-09-25T09:32:01Z</time>
      </trkpt>
      <trkpt lat="42.36988" lon="2.18307">
        <ele>1341.8</ele>
        <time>2024-09-25T09:32:02Z</time>
      </trkpt>
      <trkpt lat="42.36988" lon="2.18306">
        <ele>1341.9</ele>
        <time>2024-09-25T09:32:03Z</time>
      </trkpt>
      <trkpt lat="42.36989" lon="2.18305">
        <ele>1342.1</ele>
        <time>2024-09-25T09:32:04Z</time>
      </trkpt>
      <trkpt lat="42.3699" lon="2.18305">
        <ele>1342.2</ele>
        <time>2024-09-25T09:32:05Z</time>
      </trkpt>
      <trkpt lat="42.3699" lon="2.18305">
        <ele>1342.2</ele>
        <time>2024-09-25T09:32:06Z</time>
      </trkpt>
      <trkpt lat="42.3699" lon="2.18305">
        <ele>1342.2</ele>
        <time>2024-09-25T09:32:07Z</time>
      </trkpt>
      <trkpt lat="42.3699" lon="2.18305">
        <ele>1342.3</ele>
        <time>2024-09-25T09:32:08Z</time>
      </trkpt>
      <trkpt lat="42.3699" lon="2.18305">
        <ele>1342.3</ele>
        <time>2024-09-25T09:32:09Z</time>
      </trkpt>
      <trkpt lat="42.3699" lon="2.18305">
        <ele>1342.3</ele>
        <time>2024-09-25T09:32:10Z</time>
      </trkpt>
      <trkpt lat="42.3699" lon="2.18305">
        <ele>1342.4</ele>
        <time>2024-09-25T09:32:11Z</time>
      </trkpt>
      <trkpt lat="42.36991" lon="2.18305">
        <ele>1342.4</ele>
        <time>2024-09-25T09:32:12Z</time>
      </trkpt>
      <trkpt lat="42.36991" lon="2.18304">
        <ele>1342.5</ele>
        <time>2024-09-25T09:32:13Z</time>
      </trkpt>
      <trkpt lat="42.36991" lon="2.18304">
        <ele>1342.6</ele>
        <time>2024-09-25T09:32:14Z</time>
      </trkpt>
      <trkpt lat="42.36991" lon="2.18304">
        <ele>1342.6</ele>
        <time>2024-09-25T09:32:15Z</time>
      </trkpt>
      <trkpt lat="42.36992" lon="2.18304">
        <ele>1342.6</ele>
        <time>2024-09-25T09:32:16Z</time>
      </trkpt>
      <trkpt lat="42.36992" lon="2.18304">
        <ele>1342.7</ele>
        <time>2024-09-25T09:32:17Z</time>
      </trkpt>
      <trkpt lat="42.36992" lon="2.18303">
        <ele>1342.8</ele>
        <time>2024-09-25T09:32:18Z</time>
      </trkpt>
      <trkpt lat="42.36992" lon="2.18303">
        <ele>1342.8</ele>
        <time>2024-09-25T09:32:19Z</time>
      </trkpt>
      <trkpt lat="42.36993" lon="2.18303">
        <ele>1342.9</ele>
        <time>2024-09-25T09:32:20Z</time>
      </trkpt>
      <trkpt lat="42.36993" lon="2.18303">
        <ele>1342.9</ele>
        <time>2024-09-25T09:32:21Z</time>
      </trkpt>
      <trkpt lat="42.36993" lon="2.18303">
        <ele>1343</ele>
        <time>2024-09-25T09:32:22Z</time>
      </trkpt>
      <trkpt lat="42.36993" lon="2.18303">
        <ele>1343</ele>
        <time>2024-09-25T09:32:23Z</time>
      </trkpt>
      <trkpt lat="42.36994" lon="2.18303">
        <ele>1343.1</ele>
        <time>2024-09-25T09:32:24Z</time>
      </trkpt>
      <trkpt lat="42.36994" lon="2.18303">
        <ele>1343.1</ele>
        <time>2024-09-25T09:32:25Z</time>
      </trkpt>
      <trkpt lat="42.36994" lon="2.18302">
        <ele>1343.3</ele>
        <time>2024-09-25T09:32:26Z</time>
      </trkpt>
      <trkpt lat="42.36995" lon="2.18301">
        <ele>1343.6</ele>
        <time>2024-09-25T09:32:27Z</time>
      </trkpt>
      <trkpt lat="42.36996" lon="2.183">
        <ele>1343.8</ele>
        <time>2024-09-25T09:32:28Z</time>
      </trkpt>
      <trkpt lat="42.36997" lon="2.18299">
        <ele>1344</ele>
        <time>2024-09-25T09:32:29Z</time>
      </trkpt>
      <trkpt lat="42.36998" lon="2.18298">
        <ele>1344.3</ele>
        <time>2024-09-25T09:32:30Z</time>
      </trkpt>
      <trkpt lat="42.36999" lon="2.18298">
        <ele>1344.5</ele>
        <time>2024-09-25T09:32:31Z</time>
      </trkpt>
      <trkpt lat="42.36999" lon="2.18297">
        <ele>1344.7</ele>
        <time>2024-09-25T09:32:32Z</time>
      </trkpt>
      <trkpt lat="42.37" lon="2.18297">
        <ele>1344.9</ele>
        <time>2024-09-25T09:32:33Z</time>
      </trkpt>
      <trkpt lat="42.37001" lon="2.18298">
        <ele>1345.1</ele>
        <time>2024-09-25T09:32:34Z</time>
      </trkpt>
      <trkpt lat="42.37001" lon="2.18298">
        <ele>1345.2</ele>
        <time>2024-09-25T09:32:35Z</time>
      </trkpt>
      <trkpt lat="42.37002" lon="2.18297">
        <ele>1345.3</ele>
        <time>2024-09-25T09:32:36Z</time>
      </trkpt>
      <trkpt lat="42.37002" lon="2.18297">
        <ele>1345.4</ele>
        <time>2024-09-25T09:32:37Z</time>
      </trkpt>
      <trkpt lat="42.37002" lon="2.18296">
        <ele>1345.4</ele>
        <time>2024-09-25T09:32:38Z</time>
      </trkpt>
      <trkpt lat="42.37002" lon="2.18296">
        <ele>1345.5</ele>
        <time>2024-09-25T09:32:39Z</time>
      </trkpt>
      <trkpt lat="42.37003" lon="2.18296">
        <ele>1345.7</ele>
        <time>2024-09-25T09:32:40Z</time>
      </trkpt>
      <trkpt lat="42.37003" lon="2.18297">
        <ele>1345.8</ele>
        <time>2024-09-25T09:32:41Z</time>
      </trkpt>
      <trkpt lat="42.37003" lon="2.18297">
        <ele>1345.8</ele>
        <time>2024-09-25T09:32:42Z</time>
      </trkpt>
      <trkpt lat="42.37003" lon="2.18296">
        <ele>1345.8</ele>
        <time>2024-09-25T09:32:43Z</time>
      </trkpt>
      <trkpt lat="42.37003" lon="2.18296">
        <ele>1345.9</ele>
        <time>2024-09-25T09:32:44Z</time>
      </trkpt>
      <trkpt lat="42.37003" lon="2.18296">
        <ele>1345.9</ele>
        <time>2024-09-25T09:32:45Z</time>
      </trkpt>
      <trkpt lat="42.37003" lon="2.18296">
        <ele>1346</ele>
        <time>2024-09-25T09:32:46Z</time>
      </trkpt>
      <trkpt lat="42.37002" lon="2.18297">
        <ele>1346.2</ele>
        <time>2024-09-25T09:32:47Z</time>
      </trkpt>
      <trkpt lat="42.37002" lon="2.18297">
        <ele>1346.2</ele>
        <time>2024-09-25T09:32:48Z</time>
      </trkpt>
      <trkpt lat="42.37001" lon="2.18297">
        <ele>1346.3</ele>
        <time>2024-09-25T09:32:49Z</time>
      </trkpt>
      <trkpt lat="42.37001" lon="2.18297">
        <ele>1346.3</ele>
        <time>2024-09-25T09:32:50Z</time>
      </trkpt>
      <trkpt lat="42.37001" lon="2.18297">
        <ele>1346.4</ele>
        <time>2024-09-25T09:32:51Z</time>
      </trkpt>
      <trkpt lat="42.37002" lon="2.18297">
        <ele>1346.5</ele>
        <time>2024-09-25T09:32:52Z</time>
      </trkpt>
      <trkpt lat="42.37002" lon="2.18296">
        <ele>1346.6</ele>
        <time>2024-09-25T09:32:53Z</time>
      </trkpt>
      <trkpt lat="42.37002" lon="2.18296">
        <ele>1346.7</ele>
        <time>2024-09-25T09:32:54Z</time>
      </trkpt>
      <trkpt lat="42.37003" lon="2.18296">
        <ele>1346.8</ele>
        <time>2024-09-25T09:32:55Z</time>
      </trkpt>
      <trkpt lat="42.37003" lon="2.18296">
        <ele>1347</ele>
        <time>2024-09-25T09:32:56Z</time>
      </trkpt>
      <trkpt lat="42.37004" lon="2.18296">
        <ele>1347.2</ele>
        <time>2024-09-25T09:32:57Z</time>
      </trkpt>
      <trkpt lat="42.37005" lon="2.18297">
        <ele>1347.4</ele>
        <time>2024-09-25T09:32:58Z</time>
      </trkpt>
      <trkpt lat="42.37006" lon="2.18297">
        <ele>1347.7</ele>
        <time>2024-09-25T09:32:59Z</time>
      </trkpt>
      <trkpt lat="42.37007" lon="2.18297">
        <ele>1347.9</ele>
        <time>2024-09-25T09:33:00Z</time>
      </trkpt>
      <trkpt lat="42.37007" lon="2.18297">
        <ele>1348.1</ele>
        <time>2024-09-25T09:33:01Z</time>
      </trkpt>
      <trkpt lat="42.37008" lon="2.18297">
        <ele>1348.2</ele>
        <time>2024-09-25T09:33:02Z</time>
      </trkpt>
      <trkpt lat="42.37008" lon="2.18296">
        <ele>1348.4</ele>
        <time>2024-09-25T09:33:03Z</time>
      </trkpt>
      <trkpt lat="42.37009" lon="2.18295">
        <ele>1348.6</ele>
        <time>2024-09-25T09:33:04Z</time>
      </trkpt>
      <trkpt lat="42.3701" lon="2.18295">
        <ele>1348.8</ele>
        <time>2024-09-25T09:33:05Z</time>
      </trkpt>
      <trkpt lat="42.3701" lon="2.18295">
        <ele>1348.9</ele>
        <time>2024-09-25T09:33:06Z</time>
      </trkpt>
      <trkpt lat="42.3701" lon="2.18296">
        <ele>1349</ele>
        <time>2024-09-25T09:33:07Z</time>
      </trkpt>
      <trkpt lat="42.3701" lon="2.18296">
        <ele>1349.1</ele>
        <time>2024-09-25T09:33:08Z</time>
      </trkpt>
      <trkpt lat="42.37009" lon="2.18296">
        <ele>1349.2</ele>
        <time>2024-09-25T09:33:09Z</time>
      </trkpt>
      <trkpt lat="42.37009" lon="2.18296">
        <ele>1349.2</ele>
        <time>2024-09-25T09:33:10Z</time>
      </trkpt>
      <trkpt lat="42.37009" lon="2.18296">
        <ele>1349.2</ele>
        <time>2024-09-25T09:33:11Z</time>
      </trkpt>
      <trkpt lat="42.3701" lon="2.18296">
        <ele>1349.3</ele>
        <time>2024-09-25T09:33:12Z</time>
      </trkpt>
      <trkpt lat="42.3701" lon="2.18296">
        <ele>1349.3</ele>
        <time>2024-09-25T09:33:13Z</time>
      </trkpt>
      <trkpt lat="42.3701" lon="2.18296">
        <ele>1349.4</ele>
        <time>2024-09-25T09:33:14Z</time>
      </trkpt>
      <trkpt lat="42.3701" lon="2.18296">
        <ele>1349.5</ele>
        <time>2024-09-25T09:33:15Z</time>
      </trkpt>
      <trkpt lat="42.3701" lon="2.18296">
        <ele>1349.5</ele>
        <time>2024-09-25T09:33:16Z</time>
      </trkpt>
      <trkpt lat="42.37011" lon="2.18296">
        <ele>1349.6</ele>
        <time>2024-09-25T09:33:17Z</time>
      </trkpt>
      <trkpt lat="42.37011" lon="2.18296">
        <ele>1349.8</ele>
        <time>2024-09-25T09:33:18Z</time>
      </trkpt>
      <trkpt lat="42.37012" lon="2.18296">
        <ele>1349.9</ele>
        <time>2024-09-25T09:33:19Z</time>
      </trkpt>
      <trkpt lat="42.37013" lon="2.18296">
        <ele>1350.1</ele>
        <time>2024-09-25T09:33:20Z</time>
      </trkpt>
      <trkpt lat="42.37014" lon="2.18296">
        <ele>1350.3</ele>
        <time>2024-09-25T09:33:21Z</time>
      </trkpt>
      <trkpt lat="42.37014" lon="2.18296">
        <ele>1350.5</ele>
        <time>2024-09-25T09:33:22Z</time>
      </trkpt>
      <trkpt lat="42.37015" lon="2.18296">
        <ele>1350.6</ele>
        <time>2024-09-25T09:33:23Z</time>
      </trkpt>
      <trkpt lat="42.37015" lon="2.18296">
        <ele>1350.7</ele>
        <time>2024-09-25T09:33:24Z</time>
      </trkpt>
      <trkpt lat="42.37016" lon="2.18296">
        <ele>1350.9</ele>
        <time>2024-09-25T09:33:25Z</time>
      </trkpt>
      <trkpt lat="42.37016" lon="2.18296">
        <ele>1351.1</ele>
        <time>2024-09-25T09:33:26Z</time>
      </trkpt>
      <trkpt lat="42.37017" lon="2.18296">
        <ele>1351.1</ele>
        <time>2024-09-25T09:33:27Z</time>
      </trkpt>
      <trkpt lat="42.37017" lon="2.18296">
        <ele>1351.2</ele>
        <time>2024-09-25T09:33:28Z</time>
      </trkpt>
      <trkpt lat="42.37017" lon="2.18297">
        <ele>1351.3</ele>
        <time>2024-09-25T09:33:29Z</time>
      </trkpt>
      <trkpt lat="42.37017" lon="2.18297">
        <ele>1351.3</ele>
        <time>2024-09-25T09:33:30Z</time>
      </trkpt>
      <trkpt lat="42.37017" lon="2.18296">
        <ele>1351.4</ele>
        <time>2024-09-25T09:33:31Z</time>
      </trkpt>
      <trkpt lat="42.37017" lon="2.18296">
        <ele>1351.4</ele>
        <time>2024-09-25T09:33:32Z</time>
      </trkpt>
      <trkpt lat="42.37017" lon="2.18297">
        <ele>1351.4</ele>
        <time>2024-09-25T09:33:33Z</time>
      </trkpt>
      <trkpt lat="42.37017" lon="2.18297">
        <ele>1351.4</ele>
        <time>2024-09-25T09:33:34Z</time>
      </trkpt>
      <trkpt lat="42.37017" lon="2.18297">
        <ele>1351.4</ele>
        <time>2024-09-25T09:33:35Z</time>
      </trkpt>
      <trkpt lat="42.37017" lon="2.18297">
        <ele>1351.5</ele>
        <time>2024-09-25T09:33:36Z</time>
      </trkpt>
      <trkpt lat="42.37018" lon="2.18297">
        <ele>1351.6</ele>
        <time>2024-09-25T09:33:37Z</time>
      </trkpt>
      <trkpt lat="42.37018" lon="2.18297">
        <ele>1351.7</ele>
        <time>2024-09-25T09:33:38Z</time>
      </trkpt>
      <trkpt lat="42.37018" lon="2.18297">
        <ele>1351.8</ele>
        <time>2024-09-25T09:33:39Z</time>
      </trkpt>
      <trkpt lat="42.37019" lon="2.18297">
        <ele>1351.8</ele>
        <time>2024-09-25T09:33:40Z</time>
      </trkpt>
      <trkpt lat="42.37019" lon="2.18297">
        <ele>1351.9</ele>
        <time>2024-09-25T09:33:41Z</time>
      </trkpt>
      <trkpt lat="42.37019" lon="2.18297">
        <ele>1352</ele>
        <time>2024-09-25T09:33:42Z</time>
      </trkpt>
      <trkpt lat="42.37019" lon="2.18297">
        <ele>1352</ele>
        <time>2024-09-25T09:33:43Z</time>
      </trkpt>
      <trkpt lat="42.37019" lon="2.18297">
        <ele>1352</ele>
        <time>2024-09-25T09:33:44Z</time>
      </trkpt>
      <trkpt lat="42.37019" lon="2.18297">
        <ele>1352.1</ele>
        <time>2024-09-25T09:33:45Z</time>
      </trkpt>
      <trkpt lat="42.37019" lon="2.18297">
        <ele>1352.1</ele>
        <time>2024-09-25T09:33:46Z</time>
      </trkpt>
      <trkpt lat="42.37019" lon="2.18297">
        <ele>1352.1</ele>
        <time>2024-09-25T09:33:47Z</time>
      </trkpt>
      <trkpt lat="42.37019" lon="2.18298">
        <ele>1352.1</ele>
        <time>2024-09-25T09:33:48Z</time>
      </trkpt>
      <trkpt lat="42.3702" lon="2.18298">
        <ele>1352.3</ele>
        <time>2024-09-25T09:33:49Z</time>
      </trkpt>
      <trkpt lat="42.3702" lon="2.18298">
        <ele>1352.4</ele>
        <time>2024-09-25T09:33:50Z</time>
      </trkpt>
      <trkpt lat="42.3702" lon="2.18298">
        <ele>1352.4</ele>
        <time>2024-09-25T09:33:51Z</time>
      </trkpt>
      <trkpt lat="42.3702" lon="2.18298">
        <ele>1352.5</ele>
        <time>2024-09-25T09:33:52Z</time>
      </trkpt>
      <trkpt lat="42.3702" lon="2.18298">
        <ele>1352.6</ele>
        <time>2024-09-25T09:33:53Z</time>
      </trkpt>
      <trkpt lat="42.3702" lon="2.18298">
        <ele>1352.6</ele>
        <time>2024-09-25T09:33:54Z</time>
      </trkpt>
      <trkpt lat="42.3702" lon="2.18298">
        <ele>1352.6</ele>
        <time>2024-09-25T09:33:55Z</time>
      </trkpt>
      <trkpt lat="42.3702" lon="2.18298">
        <ele>1352.7</ele>
        <time>2024-09-25T09:33:56Z</time>
      </trkpt>
      <trkpt lat="42.3702" lon="2.18298">
        <ele>1352.7</ele>
        <time>2024-09-25T09:33:57Z</time>
      </trkpt>
      <trkpt lat="42.3702" lon="2.18298">
        <ele>1352.7</ele>
        <time>2024-09-25T09:33:58Z</time>
      </trkpt>
      <trkpt lat="42.3702" lon="2.18298">
        <ele>1352.8</ele>
        <time>2024-09-25T09:33:59Z</time>
      </trkpt>
      <trkpt lat="42.3702" lon="2.18298">
        <ele>1352.8</ele>
        <time>2024-09-25T09:34:00Z</time>
      </trkpt>
      <trkpt lat="42.3702" lon="2.18298">
        <ele>1352.8</ele>
        <time>2024-09-25T09:34:01Z</time>
      </trkpt>
      <trkpt lat="42.3702" lon="2.18298">
        <ele>1352.9</ele>
        <time>2024-09-25T09:34:02Z</time>
      </trkpt>
      <trkpt lat="42.3702" lon="2.18298">
        <ele>1352.9</ele>
        <time>2024-09-25T09:34:03Z</time>
      </trkpt>
      <trkpt lat="42.3702" lon="2.18298">
        <ele>1352.9</ele>
        <time>2024-09-25T09:34:04Z</time>
      </trkpt>
      <trkpt lat="42.3702" lon="2.18298">
        <ele>1352.9</ele>
        <time>2024-09-25T09:34:05Z</time>
      </trkpt>
      <trkpt lat="42.3702" lon="2.18298">
        <ele>1353</ele>
        <time>2024-09-25T09:34:06Z</time>
      </trkpt>
      <trkpt lat="42.3702" lon="2.18298">
        <ele>1353</ele>
        <time>2024-09-25T09:34:07Z</time>
      </trkpt>
      <trkpt lat="42.3702" lon="2.18299">
        <ele>1353</ele>
        <time>2024-09-25T09:34:08Z</time>
      </trkpt>
      <trkpt lat="42.3702" lon="2.18299">
        <ele>1353.1</ele>
        <time>2024-09-25T09:34:09Z</time>
      </trkpt>
      <trkpt lat="42.3702" lon="2.18299">
        <ele>1353.1</ele>
        <time>2024-09-25T09:34:10Z</time>
      </trkpt>
      <trkpt lat="42.3702" lon="2.18299">
        <ele>1353.1</ele>
        <time>2024-09-25T09:34:11Z</time>
      </trkpt>
      <trkpt lat="42.37019" lon="2.18299">
        <ele>1353.2</ele>
        <time>2024-09-25T09:34:12Z</time>
      </trkpt>
      <trkpt lat="42.37019" lon="2.18298">
        <ele>1353.2</ele>
        <time>2024-09-25T09:34:13Z</time>
      </trkpt>
      <trkpt lat="42.37019" lon="2.18298">
        <ele>1353.3</ele>
        <time>2024-09-25T09:34:14Z</time>
      </trkpt>
      <trkpt lat="42.37019" lon="2.18298">
        <ele>1353.3</ele>
        <time>2024-09-25T09:34:15Z</time>
      </trkpt>
      <trkpt lat="42.37019" lon="2.18298">
        <ele>1353.4</ele>
        <time>2024-09-25T09:34:16Z</time>
      </trkpt>
      <trkpt lat="42.3702" lon="2.18298">
        <ele>1353.4</ele>
        <time>2024-09-25T09:34:17Z</time>
      </trkpt>
      <trkpt lat="42.3702" lon="2.18298">
        <ele>1353.5</ele>
        <time>2024-09-25T09:34:18Z</time>
      </trkpt>
      <trkpt lat="42.3702" lon="2.18298">
        <ele>1353.5</ele>
        <time>2024-09-25T09:34:19Z</time>
      </trkpt>
      <trkpt lat="42.3702" lon="2.18298">
        <ele>1353.5</ele>
        <time>2024-09-25T09:34:20Z</time>
      </trkpt>
      <trkpt lat="42.3702" lon="2.18298">
        <ele>1353.5</ele>
        <time>2024-09-25T09:34:21Z</time>
      </trkpt>
      <trkpt lat="42.3702" lon="2.18298">
        <ele>1353.5</ele>
        <time>2024-09-25T09:34:22Z</time>
      </trkpt>
      <trkpt lat="42.3702" lon="2.18298">
        <ele>1353.5</ele>
        <time>2024-09-25T09:34:23Z</time>
      </trkpt>
      <trkpt lat="42.3702" lon="2.18298">
        <ele>1353.5</ele>
        <time>2024-09-25T09:34:24Z</time>
      </trkpt>
      <trkpt lat="42.3702" lon="2.18298">
        <ele>1353.5</ele>
        <time>2024-09-25T09:34:25Z</time>
      </trkpt>
      <trkpt lat="42.3702" lon="2.18298">
        <ele>1353.5</ele>
        <time>2024-09-25T09:34:26Z</time>
      </trkpt>
      <trkpt lat="42.3702" lon="2.18298">
        <ele>1353.5</ele>
        <time>2024-09-25T09:34:27Z</time>
      </trkpt>
      <trkpt lat="42.37019" lon="2.18298">
        <ele>1353.6</ele>
        <time>2024-09-25T09:34:28Z</time>
      </trkpt>
      <trkpt lat="42.37019" lon="2.18299">
        <ele>1353.7</ele>
        <time>2024-09-25T09:34:29Z</time>
      </trkpt>
      <trkpt lat="42.37019" lon="2.18299">
        <ele>1353.8</ele>
        <time>2024-09-25T09:34:30Z</time>
      </trkpt>
      <trkpt lat="42.37019" lon="2.18299">
        <ele>1353.9</ele>
        <time>2024-09-25T09:34:31Z</time>
      </trkpt>
      <trkpt lat="42.37019" lon="2.18299">
        <ele>1353.9</ele>
        <time>2024-09-25T09:34:32Z</time>
      </trkpt>
      <trkpt lat="42.37019" lon="2.18299">
        <ele>1353.9</ele>
        <time>2024-09-25T09:34:33Z</time>
      </trkpt>
      <trkpt lat="42.37019" lon="2.18299">
        <ele>1353.9</ele>
        <time>2024-09-25T09:34:34Z</time>
      </trkpt>
      <trkpt lat="42.37019" lon="2.18299">
        <ele>1353.9</ele>
        <time>2024-09-25T09:34:35Z</time>
      </trkpt>
      <trkpt lat="42.37019" lon="2.18299">
        <ele>1354</ele>
        <time>2024-09-25T09:34:36Z</time>
      </trkpt>
      <trkpt lat="42.37019" lon="2.18298">
        <ele>1354.1</ele>
        <time>2024-09-25T09:34:37Z</time>
      </trkpt>
      <trkpt lat="42.37019" lon="2.18298">
        <ele>1354.2</ele>
        <time>2024-09-25T09:34:39Z</time>
      </trkpt>
      <trkpt lat="42.37019" lon="2.18297">
        <ele>1354.3</ele>
        <time>2024-09-25T09:34:40Z</time>
      </trkpt>
      <trkpt lat="42.37019" lon="2.18297">
        <ele>1354.3</ele>
        <time>2024-09-25T09:34:41Z</time>
      </trkpt>
      <trkpt lat="42.37019" lon="2.18297">
        <ele>1354.3</ele>
        <time>2024-09-25T09:34:42Z</time>
      </trkpt>
      <trkpt lat="42.37019" lon="2.18297">
        <ele>1354.3</ele>
        <time>2024-09-25T09:34:43Z</time>
      </trkpt>
      <trkpt lat="42.37019" lon="2.18297">
        <ele>1354.3</ele>
        <time>2024-09-25T09:34:44Z</time>
      </trkpt>
      <trkpt lat="42.37019" lon="2.18297">
        <ele>1354.3</ele>
        <time>2024-09-25T09:34:45Z</time>
      </trkpt>
      <trkpt lat="42.37019" lon="2.18297">
        <ele>1354.3</ele>
        <time>2024-09-25T09:34:46Z</time>
      </trkpt>
      <trkpt lat="42.37019" lon="2.18297">
        <ele>1354.3</ele>
        <time>2024-09-25T09:34:47Z</time>
      </trkpt>
      <trkpt lat="42.37019" lon="2.18297">
        <ele>1354.3</ele>
        <time>2024-09-25T09:34:48Z</time>
      </trkpt>
      <trkpt lat="42.37019" lon="2.18297">
        <ele>1354.4</ele>
        <time>2024-09-25T09:34:49Z</time>
      </trkpt>
      <trkpt lat="42.37019" lon="2.18297">
        <ele>1354.4</ele>
        <time>2024-09-25T09:34:50Z</time>
      </trkpt>
      <trkpt lat="42.37019" lon="2.18297">
        <ele>1354.4</ele>
        <time>2024-09-25T09:34:51Z</time>
      </trkpt>
      <trkpt lat="42.37019" lon="2.18297">
        <ele>1354.4</ele>
        <time>2024-09-25T09:34:52Z</time>
      </trkpt>
      <trkpt lat="42.37019" lon="2.18297">
        <ele>1354.4</ele>
        <time>2024-09-25T09:34:53Z</time>
      </trkpt>
      <trkpt lat="42.37019" lon="2.18297">
        <ele>1354.4</ele>
        <time>2024-09-25T09:34:54Z</time>
      </trkpt>
      <trkpt lat="42.37019" lon="2.18297">
        <ele>1354.5</ele>
        <time>2024-09-25T09:34:55Z</time>
      </trkpt>
      <trkpt lat="42.37019" lon="2.18297">
        <ele>1354.5</ele>
        <time>2024-09-25T09:34:56Z</time>
      </trkpt>
      <trkpt lat="42.37019" lon="2.18296">
        <ele>1354.7</ele>
        <time>2024-09-25T09:34:57Z</time>
      </trkpt>
      <trkpt lat="42.37019" lon="2.18295">
        <ele>1354.8</ele>
        <time>2024-09-25T09:34:58Z</time>
      </trkpt>
      <trkpt lat="42.37019" lon="2.18295">
        <ele>1354.8</ele>
        <time>2024-09-25T09:34:59Z</time>
      </trkpt>
      <trkpt lat="42.37019" lon="2.18295">
        <ele>1354.8</ele>
        <time>2024-09-25T09:35:00Z</time>
      </trkpt>
      <trkpt lat="42.37019" lon="2.18295">
        <ele>1354.8</ele>
        <time>2024-09-25T09:35:01Z</time>
      </trkpt>
      <trkpt lat="42.37019" lon="2.18295">
        <ele>1354.8</ele>
        <time>2024-09-25T09:35:02Z</time>
      </trkpt>
      <trkpt lat="42.37019" lon="2.18295">
        <ele>1354.8</ele>
        <time>2024-09-25T09:35:03Z</time>
      </trkpt>
      <trkpt lat="42.37019" lon="2.18295">
        <ele>1354.9</ele>
        <time>2024-09-25T09:35:04Z</time>
      </trkpt>
      <trkpt lat="42.37019" lon="2.18295">
        <ele>1354.9</ele>
        <time>2024-09-25T09:35:05Z</time>
      </trkpt>
      <trkpt lat="42.37019" lon="2.18295">
        <ele>1354.9</ele>
        <time>2024-09-25T09:35:06Z</time>
      </trkpt>
      <trkpt lat="42.37019" lon="2.18295">
        <ele>1354.9</ele>
        <time>2024-09-25T09:35:07Z</time>
      </trkpt>
      <trkpt lat="42.37019" lon="2.18295">
        <ele>1354.9</ele>
        <time>2024-09-25T09:35:08Z</time>
      </trkpt>
      <trkpt lat="42.37019" lon="2.18295">
        <ele>1354.9</ele>
        <time>2024-09-25T09:35:09Z</time>
      </trkpt>
      <trkpt lat="42.37019" lon="2.18295">
        <ele>1354.9</ele>
        <time>2024-09-25T09:35:10Z</time>
      </trkpt>
      <trkpt lat="42.37019" lon="2.18295">
        <ele>1354.9</ele>
        <time>2024-09-25T09:35:11Z</time>
      </trkpt>
      <trkpt lat="42.37019" lon="2.18295">
        <ele>1354.9</ele>
        <time>2024-09-25T09:35:12Z</time>
      </trkpt>
      <trkpt lat="42.37019" lon="2.18295">
        <ele>1354.9</ele>
        <time>2024-09-25T09:35:13Z</time>
      </trkpt>
      <trkpt lat="42.37019" lon="2.18295">
        <ele>1354.9</ele>
        <time>2024-09-25T09:35:14Z</time>
      </trkpt>
      <trkpt lat="42.37019" lon="2.18295">
        <ele>1354.9</ele>
        <time>2024-09-25T09:35:15Z</time>
      </trkpt>
      <trkpt lat="42.37019" lon="2.18295">
        <ele>1354.9</ele>
        <time>2024-09-25T09:35:16Z</time>
      </trkpt>
      <trkpt lat="42.37019" lon="2.18294">
        <ele>1354.9</ele>
        <time>2024-09-25T09:35:17Z</time>
      </trkpt>
      <trkpt lat="42.37019" lon="2.18294">
        <ele>1355</ele>
        <time>2024-09-25T09:35:18Z</time>
      </trkpt>
      <trkpt lat="42.37019" lon="2.18294">
        <ele>1355</ele>
        <time>2024-09-25T09:35:19Z</time>
      </trkpt>
      <trkpt lat="42.37018" lon="2.18294">
        <ele>1355.1</ele>
        <time>2024-09-25T09:35:20Z</time>
      </trkpt>
      <trkpt lat="42.37018" lon="2.18294">
        <ele>1355.1</ele>
        <time>2024-09-25T09:35:21Z</time>
      </trkpt>
      <trkpt lat="42.37018" lon="2.18294">
        <ele>1355.2</ele>
        <time>2024-09-25T09:35:22Z</time>
      </trkpt>
      <trkpt lat="42.37018" lon="2.18294">
        <ele>1355.2</ele>
        <time>2024-09-25T09:35:23Z</time>
      </trkpt>
      <trkpt lat="42.37018" lon="2.18294">
        <ele>1355.2</ele>
        <time>2024-09-25T09:35:24Z</time>
      </trkpt>
      <trkpt lat="42.37018" lon="2.18294">
        <ele>1355.3</ele>
        <time>2024-09-25T09:35:25Z</time>
      </trkpt>
      <trkpt lat="42.37018" lon="2.18294">
        <ele>1355.3</ele>
        <time>2024-09-25T09:35:26Z</time>
      </trkpt>
      <trkpt lat="42.37017" lon="2.18294">
        <ele>1355.4</ele>
        <time>2024-09-25T09:35:27Z</time>
      </trkpt>
      <trkpt lat="42.37017" lon="2.18294">
        <ele>1355.4</ele>
        <time>2024-09-25T09:35:28Z</time>
      </trkpt>
      <trkpt lat="42.37017" lon="2.18293">
        <ele>1355.4</ele>
        <time>2024-09-25T09:35:29Z</time>
      </trkpt>
      <trkpt lat="42.37017" lon="2.18293">
        <ele>1355.4</ele>
        <time>2024-09-25T09:35:30Z</time>
      </trkpt>
      <trkpt lat="42.37017" lon="2.18293">
        <ele>1355.5</ele>
        <time>2024-09-25T09:35:31Z</time>
      </trkpt>
      <trkpt lat="42.37017" lon="2.18293">
        <ele>1355.5</ele>
        <time>2024-09-25T09:35:32Z</time>
      </trkpt>
      <trkpt lat="42.37017" lon="2.18294">
        <ele>1355.6</ele>
        <time>2024-09-25T09:35:33Z</time>
      </trkpt>
      <trkpt lat="42.37018" lon="2.18294">
        <ele>1355.6</ele>
        <time>2024-09-25T09:35:34Z</time>
      </trkpt>
      <trkpt lat="42.37018" lon="2.18294">
        <ele>1355.6</ele>
        <time>2024-09-25T09:35:35Z</time>
      </trkpt>
      <trkpt lat="42.37018" lon="2.18294">
        <ele>1355.7</ele>
        <time>2024-09-25T09:35:36Z</time>
      </trkpt>
      <trkpt lat="42.37017" lon="2.18294">
        <ele>1355.7</ele>
        <time>2024-09-25T09:35:37Z</time>
      </trkpt>
      <trkpt lat="42.37017" lon="2.18294">
        <ele>1355.7</ele>
        <time>2024-09-25T09:35:38Z</time>
      </trkpt>
      <trkpt lat="42.37017" lon="2.18294">
        <ele>1355.7</ele>
        <time>2024-09-25T09:35:39Z</time>
      </trkpt>
      <trkpt lat="42.37017" lon="2.18294">
        <ele>1355.7</ele>
        <time>2024-09-25T09:35:40Z</time>
      </trkpt>
      <trkpt lat="42.37018" lon="2.18294">
        <ele>1355.8</ele>
        <time>2024-09-25T09:35:41Z</time>
      </trkpt>
      <trkpt lat="42.37018" lon="2.18293">
        <ele>1355.9</ele>
        <time>2024-09-25T09:35:42Z</time>
      </trkpt>
      <trkpt lat="42.37018" lon="2.18293">
        <ele>1356</ele>
        <time>2024-09-25T09:35:43Z</time>
      </trkpt>
      <trkpt lat="42.37018" lon="2.18293">
        <ele>1356</ele>
        <time>2024-09-25T09:35:44Z</time>
      </trkpt>
      <trkpt lat="42.37018" lon="2.18294">
        <ele>1356</ele>
        <time>2024-09-25T09:35:45Z</time>
      </trkpt>
      <trkpt lat="42.37018" lon="2.18294">
        <ele>1356</ele>
        <time>2024-09-25T09:35:46Z</time>
      </trkpt>
      <trkpt lat="42.37018" lon="2.18294">
        <ele>1356</ele>
        <time>2024-09-25T09:35:47Z</time>
      </trkpt>
      <trkpt lat="42.37018" lon="2.18294">
        <ele>1356.1</ele>
        <time>2024-09-25T09:35:48Z</time>
      </trkpt>
      <trkpt lat="42.37018" lon="2.18294">
        <ele>1356.1</ele>
        <time>2024-09-25T09:35:49Z</time>
      </trkpt>
      <trkpt lat="42.37018" lon="2.18294">
        <ele>1356.1</ele>
        <time>2024-09-25T09:35:50Z</time>
      </trkpt>
      <trkpt lat="42.37018" lon="2.18294">
        <ele>1356.1</ele>
        <time>2024-09-25T09:35:51Z</time>
      </trkpt>
      <trkpt lat="42.37018" lon="2.18294">
        <ele>1356.1</ele>
        <time>2024-09-25T09:35:52Z</time>
      </trkpt>
      <trkpt lat="42.37018" lon="2.18294">
        <ele>1356.1</ele>
        <time>2024-09-25T09:35:53Z</time>
      </trkpt>
      <trkpt lat="42.37018" lon="2.18294">
        <ele>1356.1</ele>
        <time>2024-09-25T09:35:54Z</time>
      </trkpt>
      <trkpt lat="42.37018" lon="2.18294">
        <ele>1356.1</ele>
        <time>2024-09-25T09:35:55Z</time>
      </trkpt>
      <trkpt lat="42.37018" lon="2.18294">
        <ele>1356.1</ele>
        <time>2024-09-25T09:35:56Z</time>
      </trkpt>
      <trkpt lat="42.37018" lon="2.18294">
        <ele>1356.1</ele>
        <time>2024-09-25T09:35:57Z</time>
      </trkpt>
      <trkpt lat="42.37018" lon="2.18294">
        <ele>1356.2</ele>
        <time>2024-09-25T09:35:58Z</time>
      </trkpt>
      <trkpt lat="42.37018" lon="2.18294">
        <ele>1356.2</ele>
        <time>2024-09-25T09:35:59Z</time>
      </trkpt>
      <trkpt lat="42.37017" lon="2.18294">
        <ele>1356.2</ele>
        <time>2024-09-25T09:36:00Z</time>
      </trkpt>
      <trkpt lat="42.37017" lon="2.18294">
        <ele>1356.3</ele>
        <time>2024-09-25T09:36:01Z</time>
      </trkpt>
      <trkpt lat="42.37017" lon="2.18294">
        <ele>1356.3</ele>
        <time>2024-09-25T09:36:02Z</time>
      </trkpt>
      <trkpt lat="42.37018" lon="2.18293">
        <ele>1356.5</ele>
        <time>2024-09-25T09:36:03Z</time>
      </trkpt>
      <trkpt lat="42.37018" lon="2.18293">
        <ele>1356.5</ele>
        <time>2024-09-25T09:36:04Z</time>
      </trkpt>
      <trkpt lat="42.37018" lon="2.18293">
        <ele>1356.5</ele>
        <time>2024-09-25T09:36:05Z</time>
      </trkpt>
      <trkpt lat="42.37018" lon="2.18293">
        <ele>1356.6</ele>
        <time>2024-09-25T09:36:06Z</time>
      </trkpt>
      <trkpt lat="42.37018" lon="2.18293">
        <ele>1356.6</ele>
        <time>2024-09-25T09:36:07Z</time>
      </trkpt>
      <trkpt lat="42.37018" lon="2.18293">
        <ele>1356.6</ele>
        <time>2024-09-25T09:36:08Z</time>
      </trkpt>
      <trkpt lat="42.37018" lon="2.18293">
        <ele>1356.6</ele>
        <time>2024-09-25T09:36:09Z</time>
      </trkpt>
      <trkpt lat="42.37018" lon="2.18293">
        <ele>1356.6</ele>
        <time>2024-09-25T09:36:10Z</time>
      </trkpt>
      <trkpt lat="42.37018" lon="2.18293">
        <ele>1356.7</ele>
        <time>2024-09-25T09:36:11Z</time>
      </trkpt>
      <trkpt lat="42.37018" lon="2.18293">
        <ele>1356.7</ele>
        <time>2024-09-25T09:36:12Z</time>
      </trkpt>
      <trkpt lat="42.37018" lon="2.18293">
        <ele>1356.7</ele>
        <time>2024-09-25T09:36:13Z</time>
      </trkpt>
      <trkpt lat="42.37018" lon="2.18293">
        <ele>1356.7</ele>
        <time>2024-09-25T09:36:14Z</time>
      </trkpt>
      <trkpt lat="42.37018" lon="2.18293">
        <ele>1356.7</ele>
        <time>2024-09-25T09:36:15Z</time>
      </trkpt>
      <trkpt lat="42.37018" lon="2.18293">
        <ele>1356.7</ele>
        <time>2024-09-25T09:36:16Z</time>
      </trkpt>
      <trkpt lat="42.37018" lon="2.18294">
        <ele>1356.8</ele>
        <time>2024-09-25T09:36:17Z</time>
      </trkpt>
      <trkpt lat="42.37018" lon="2.18294">
        <ele>1356.8</ele>
        <time>2024-09-25T09:36:18Z</time>
      </trkpt>
      <trkpt lat="42.37018" lon="2.18294">
        <ele>1356.8</ele>
        <time>2024-09-25T09:36:19Z</time>
      </trkpt>
      <trkpt lat="42.37018" lon="2.18293">
        <ele>1356.8</ele>
        <time>2024-09-25T09:36:20Z</time>
      </trkpt>
      <trkpt lat="42.37017" lon="2.18293">
        <ele>1356.9</ele>
        <time>2024-09-25T09:36:21Z</time>
      </trkpt>
      <trkpt lat="42.37017" lon="2.18293">
        <ele>1356.9</ele>
        <time>2024-09-25T09:36:22Z</time>
      </trkpt>
      <trkpt lat="42.37017" lon="2.18293">
        <ele>1356.9</ele>
        <time>2024-09-25T09:36:23Z</time>
      </trkpt>
      <trkpt lat="42.37017" lon="2.18293">
        <ele>1357</ele>
        <time>2024-09-25T09:36:24Z</time>
      </trkpt>
      <trkpt lat="42.37017" lon="2.18293">
        <ele>1357</ele>
        <time>2024-09-25T09:36:25Z</time>
      </trkpt>
      <trkpt lat="42.37017" lon="2.18292">
        <ele>1357.1</ele>
        <time>2024-09-25T09:36:26Z</time>
      </trkpt>
      <trkpt lat="42.37017" lon="2.18292">
        <ele>1357.1</ele>
        <time>2024-09-25T09:36:27Z</time>
      </trkpt>
      <trkpt lat="42.37017" lon="2.18292">
        <ele>1357.1</ele>
        <time>2024-09-25T09:36:28Z</time>
      </trkpt>
      <trkpt lat="42.37017" lon="2.18292">
        <ele>1357.1</ele>
        <time>2024-09-25T09:36:29Z</time>
      </trkpt>
      <trkpt lat="42.37017" lon="2.18292">
        <ele>1357.1</ele>
        <time>2024-09-25T09:36:30Z</time>
      </trkpt>
      <trkpt lat="42.37017" lon="2.18292">
        <ele>1357.2</ele>
        <time>2024-09-25T09:36:31Z</time>
      </trkpt>
      <trkpt lat="42.37017" lon="2.18292">
        <ele>1357.2</ele>
        <time>2024-09-25T09:36:32Z</time>
      </trkpt>
      <trkpt lat="42.37017" lon="2.18291">
        <ele>1357.2</ele>
        <time>2024-09-25T09:36:33Z</time>
      </trkpt>
      <trkpt lat="42.37017" lon="2.18291">
        <ele>1357.2</ele>
        <time>2024-09-25T09:36:34Z</time>
      </trkpt>
      <trkpt lat="42.37017" lon="2.18291">
        <ele>1357.3</ele>
        <time>2024-09-25T09:36:35Z</time>
      </trkpt>
      <trkpt lat="42.37017" lon="2.18291">
        <ele>1357.3</ele>
        <time>2024-09-25T09:36:36Z</time>
      </trkpt>
      <trkpt lat="42.37017" lon="2.18291">
        <ele>1357.3</ele>
        <time>2024-09-25T09:36:37Z</time>
      </trkpt>
      <trkpt lat="42.37017" lon="2.18291">
        <ele>1357.3</ele>
        <time>2024-09-25T09:36:38Z</time>
      </trkpt>
      <trkpt lat="42.37017" lon="2.1829">
        <ele>1357.4</ele>
        <time>2024-09-25T09:36:39Z</time>
      </trkpt>
      <trkpt lat="42.37017" lon="2.1829">
        <ele>1357.5</ele>
        <time>2024-09-25T09:36:40Z</time>
      </trkpt>
      <trkpt lat="42.37017" lon="2.1829">
        <ele>1357.5</ele>
        <time>2024-09-25T09:36:41Z</time>
      </trkpt>
      <trkpt lat="42.37017" lon="2.18292">
        <ele>1357.8</ele>
        <time>2024-09-25T09:36:42Z</time>
      </trkpt>
      <trkpt lat="42.37017" lon="2.18291">
        <ele>1357.8</ele>
        <time>2024-09-25T09:36:43Z</time>
      </trkpt>
      <trkpt lat="42.37017" lon="2.18291">
        <ele>1357.9</ele>
        <time>2024-09-25T09:36:45Z</time>
      </trkpt>
      <trkpt lat="42.37017" lon="2.1829">
        <ele>1358</ele>
        <time>2024-09-25T09:36:46Z</time>
      </trkpt>
      <trkpt lat="42.37017" lon="2.1829">
        <ele>1358</ele>
        <time>2024-09-25T09:36:47Z</time>
      </trkpt>
      <trkpt lat="42.37017" lon="2.18289">
        <ele>1358.1</ele>
        <time>2024-09-25T09:36:48Z</time>
      </trkpt>
      <trkpt lat="42.37017" lon="2.18289">
        <ele>1358.1</ele>
        <time>2024-09-25T09:36:49Z</time>
      </trkpt>
      <trkpt lat="42.37017" lon="2.1829">
        <ele>1358.2</ele>
        <time>2024-09-25T09:36:50Z</time>
      </trkpt>
      <trkpt lat="42.37017" lon="2.1829">
        <ele>1358.3</ele>
        <time>2024-09-25T09:36:51Z</time>
      </trkpt>
      <trkpt lat="42.37017" lon="2.1829">
        <ele>1358.3</ele>
        <time>2024-09-25T09:36:52Z</time>
      </trkpt>
      <trkpt lat="42.37017" lon="2.1829">
        <ele>1358.3</ele>
        <time>2024-09-25T09:36:53Z</time>
      </trkpt>
      <trkpt lat="42.37017" lon="2.1829">
        <ele>1358.3</ele>
        <time>2024-09-25T09:36:54Z</time>
      </trkpt>
      <trkpt lat="42.37017" lon="2.18291">
        <ele>1358.3</ele>
        <time>2024-09-25T09:36:55Z</time>
      </trkpt>
      <trkpt lat="42.37017" lon="2.18291">
        <ele>1358.4</ele>
        <time>2024-09-25T09:36:56Z</time>
      </trkpt>
      <trkpt lat="42.37017" lon="2.18291">
        <ele>1358.4</ele>
        <time>2024-09-25T09:36:57Z</time>
      </trkpt>
      <trkpt lat="42.37017" lon="2.18291">
        <ele>1358.4</ele>
        <time>2024-09-25T09:36:58Z</time>
      </trkpt>
      <trkpt lat="42.37017" lon="2.18291">
        <ele>1358.4</ele>
        <time>2024-09-25T09:36:59Z</time>
      </trkpt>
      <trkpt lat="42.37017" lon="2.18292">
        <ele>1358.5</ele>
        <time>2024-09-25T09:37:00Z</time>
      </trkpt>
      <trkpt lat="42.37017" lon="2.18292">
        <ele>1358.6</ele>
        <time>2024-09-25T09:37:01Z</time>
      </trkpt>
      <trkpt lat="42.37017" lon="2.18293">
        <ele>1358.7</ele>
        <time>2024-09-25T09:37:02Z</time>
      </trkpt>
      <trkpt lat="42.37018" lon="2.18294">
        <ele>1358.8</ele>
        <time>2024-09-25T09:37:03Z</time>
      </trkpt>
      <trkpt lat="42.37018" lon="2.18295">
        <ele>1358.8</ele>
        <time>2024-09-25T09:37:04Z</time>
      </trkpt>
      <trkpt lat="42.37018" lon="2.18295">
        <ele>1358.9</ele>
        <time>2024-09-25T09:37:05Z</time>
      </trkpt>
      <trkpt lat="42.37018" lon="2.18295">
        <ele>1358.9</ele>
        <time>2024-09-25T09:37:06Z</time>
      </trkpt>
      <trkpt lat="42.37019" lon="2.18297">
        <ele>1359.1</ele>
        <time>2024-09-25T09:37:07Z</time>
      </trkpt>
      <trkpt lat="42.37019" lon="2.18297">
        <ele>1359.1</ele>
        <time>2024-09-25T09:37:08Z</time>
      </trkpt>
      <trkpt lat="42.37019" lon="2.18297">
        <ele>1359.1</ele>
        <time>2024-09-25T09:37:09Z</time>
      </trkpt>
      <trkpt lat="42.37019" lon="2.18298">
        <ele>1359.3</ele>
        <time>2024-09-25T09:37:10Z</time>
      </trkpt>
      <trkpt lat="42.3702" lon="2.18299">
        <ele>1359.4</ele>
        <time>2024-09-25T09:37:11Z</time>
      </trkpt>
      <trkpt lat="42.3702" lon="2.18301">
        <ele>1359.5</ele>
        <time>2024-09-25T09:37:12Z</time>
      </trkpt>
      <trkpt lat="42.37021" lon="2.18301">
        <ele>1359.6</ele>
        <time>2024-09-25T09:37:13Z</time>
      </trkpt>
      <trkpt lat="42.37021" lon="2.18302">
        <ele>1359.7</ele>
        <time>2024-09-25T09:37:14Z</time>
      </trkpt>
      <trkpt lat="42.37021" lon="2.18303">
        <ele>1359.8</ele>
        <time>2024-09-25T09:37:15Z</time>
      </trkpt>
      <trkpt lat="42.37022" lon="2.18304">
        <ele>1359.9</ele>
        <time>2024-09-25T09:37:16Z</time>
      </trkpt>
      <trkpt lat="42.37022" lon="2.18305">
        <ele>1359.9</ele>
        <time>2024-09-25T09:37:17Z</time>
      </trkpt>
      <trkpt lat="42.37023" lon="2.18306">
        <ele>1360</ele>
        <time>2024-09-25T09:37:18Z</time>
      </trkpt>
      <trkpt lat="42.37023" lon="2.18306">
        <ele>1360</ele>
        <time>2024-09-25T09:37:19Z</time>
      </trkpt>
      <trkpt lat="42.37024" lon="2.18306">
        <ele>1360.1</ele>
        <time>2024-09-25T09:37:20Z</time>
      </trkpt>
      <trkpt lat="42.37024" lon="2.18307">
        <ele>1360.1</ele>
        <time>2024-09-25T09:37:21Z</time>
      </trkpt>
      <trkpt lat="42.37025" lon="2.18307">
        <ele>1360.2</ele>
        <time>2024-09-25T09:37:22Z</time>
      </trkpt>
      <trkpt lat="42.37025" lon="2.18308">
        <ele>1360.2</ele>
        <time>2024-09-25T09:37:23Z</time>
      </trkpt>
      <trkpt lat="42.37025" lon="2.18308">
        <ele>1360.3</ele>
        <time>2024-09-25T09:37:24Z</time>
      </trkpt>
      <trkpt lat="42.37026" lon="2.18309">
        <ele>1360.3</ele>
        <time>2024-09-25T09:37:25Z</time>
      </trkpt>
      <trkpt lat="42.37026" lon="2.18309">
        <ele>1360.4</ele>
        <time>2024-09-25T09:37:26Z</time>
      </trkpt>
      <trkpt lat="42.37027" lon="2.1831">
        <ele>1360.4</ele>
        <time>2024-09-25T09:37:27Z</time>
      </trkpt>
      <trkpt lat="42.37027" lon="2.18311">
        <ele>1360.5</ele>
        <time>2024-09-25T09:37:28Z</time>
      </trkpt>
      <trkpt lat="42.37028" lon="2.18311">
        <ele>1360.5</ele>
        <time>2024-09-25T09:37:29Z</time>
      </trkpt>
      <trkpt lat="42.37028" lon="2.18312">
        <ele>1360.5</ele>
        <time>2024-09-25T09:37:30Z</time>
      </trkpt>
      <trkpt lat="42.37028" lon="2.18313">
        <ele>1360.6</ele>
        <time>2024-09-25T09:37:31Z</time>
      </trkpt>
      <trkpt lat="42.37029" lon="2.18313">
        <ele>1360.6</ele>
        <time>2024-09-25T09:37:32Z</time>
      </trkpt>
      <trkpt lat="42.37029" lon="2.18314">
        <ele>1360.7</ele>
        <time>2024-09-25T09:37:33Z</time>
      </trkpt>
      <trkpt lat="42.3703" lon="2.18315">
        <ele>1360.7</ele>
        <time>2024-09-25T09:37:34Z</time>
      </trkpt>
      <trkpt lat="42.3703" lon="2.18316">
        <ele>1360.8</ele>
        <time>2024-09-25T09:37:35Z</time>
      </trkpt>
      <trkpt lat="42.3703" lon="2.18316">
        <ele>1360.8</ele>
        <time>2024-09-25T09:37:36Z</time>
      </trkpt>
      <trkpt lat="42.37031" lon="2.18317">
        <ele>1360.8</ele>
        <time>2024-09-25T09:37:37Z</time>
      </trkpt>
      <trkpt lat="42.37031" lon="2.18318">
        <ele>1360.9</ele>
        <time>2024-09-25T09:37:38Z</time>
      </trkpt>
      <trkpt lat="42.37031" lon="2.18318">
        <ele>1360.9</ele>
        <time>2024-09-25T09:37:39Z</time>
      </trkpt>
      <trkpt lat="42.37032" lon="2.18319">
        <ele>1360.9</ele>
        <time>2024-09-25T09:37:40Z</time>
      </trkpt>
      <trkpt lat="42.37032" lon="2.1832">
        <ele>1361</ele>
        <time>2024-09-25T09:37:41Z</time>
      </trkpt>
      <trkpt lat="42.37032" lon="2.1832">
        <ele>1361</ele>
        <time>2024-09-25T09:37:42Z</time>
      </trkpt>
      <trkpt lat="42.37032" lon="2.18321">
        <ele>1361</ele>
        <time>2024-09-25T09:37:43Z</time>
      </trkpt>
      <trkpt lat="42.37032" lon="2.18321">
        <ele>1361</ele>
        <time>2024-09-25T09:37:44Z</time>
      </trkpt>
      <trkpt lat="42.37032" lon="2.18322">
        <ele>1361.1</ele>
        <time>2024-09-25T09:37:45Z</time>
      </trkpt>
      <trkpt lat="42.37032" lon="2.18322">
        <ele>1361.1</ele>
        <time>2024-09-25T09:37:46Z</time>
      </trkpt>
      <trkpt lat="42.37032" lon="2.18322">
        <ele>1361.1</ele>
        <time>2024-09-25T09:37:47Z</time>
      </trkpt>
      <trkpt lat="42.37033" lon="2.18322">
        <ele>1361.1</ele>
        <time>2024-09-25T09:37:48Z</time>
      </trkpt>
      <trkpt lat="42.37033" lon="2.18323">
        <ele>1361.1</ele>
        <time>2024-09-25T09:37:49Z</time>
      </trkpt>
      <trkpt lat="42.37033" lon="2.18323">
        <ele>1361.1</ele>
        <time>2024-09-25T09:37:50Z</time>
      </trkpt>
      <trkpt lat="42.37033" lon="2.18323">
        <ele>1361.2</ele>
        <time>2024-09-25T09:37:51Z</time>
      </trkpt>
      <trkpt lat="42.37033" lon="2.18324">
        <ele>1361.2</ele>
        <time>2024-09-25T09:37:52Z</time>
      </trkpt>
      <trkpt lat="42.37033" lon="2.18324">
        <ele>1361.2</ele>
        <time>2024-09-25T09:37:53Z</time>
      </trkpt>
      <trkpt lat="42.37033" lon="2.18324">
        <ele>1361.2</ele>
        <time>2024-09-25T09:37:54Z</time>
      </trkpt>
      <trkpt lat="42.37033" lon="2.18324">
        <ele>1361.2</ele>
        <time>2024-09-25T09:37:55Z</time>
      </trkpt>
      <trkpt lat="42.37033" lon="2.18324">
        <ele>1361.2</ele>
        <time>2024-09-25T09:37:56Z</time>
      </trkpt>
      <trkpt lat="42.37033" lon="2.18324">
        <ele>1361.2</ele>
        <time>2024-09-25T09:37:57Z</time>
      </trkpt>
      <trkpt lat="42.37033" lon="2.18324">
        <ele>1361.2</ele>
        <time>2024-09-25T09:37:58Z</time>
      </trkpt>
      <trkpt lat="42.37033" lon="2.18324">
        <ele>1361.2</ele>
        <time>2024-09-25T09:37:59Z</time>
      </trkpt>
      <trkpt lat="42.37033" lon="2.18324">
        <ele>1361.2</ele>
        <time>2024-09-25T09:38:00Z</time>
      </trkpt>
      <trkpt lat="42.37033" lon="2.18324">
        <ele>1361.2</ele>
        <time>2024-09-25T09:38:01Z</time>
      </trkpt>
      <trkpt lat="42.37033" lon="2.18324">
        <ele>1361.2</ele>
        <time>2024-09-25T09:38:02Z</time>
      </trkpt>
      <trkpt lat="42.37033" lon="2.18324">
        <ele>1361.3</ele>
        <time>2024-09-25T09:38:03Z</time>
      </trkpt>
      <trkpt lat="42.37033" lon="2.18325">
        <ele>1361.3</ele>
        <time>2024-09-25T09:38:04Z</time>
      </trkpt>
      <trkpt lat="42.37033" lon="2.18325">
        <ele>1361.3</ele>
        <time>2024-09-25T09:38:05Z</time>
      </trkpt>
      <trkpt lat="42.37033" lon="2.18324">
        <ele>1361.3</ele>
        <time>2024-09-25T09:38:06Z</time>
      </trkpt>
      <trkpt lat="42.37033" lon="2.18324">
        <ele>1361.3</ele>
        <time>2024-09-25T09:38:07Z</time>
      </trkpt>
      <trkpt lat="42.37033" lon="2.18324">
        <ele>1361.3</ele>
        <time>2024-09-25T09:38:08Z</time>
      </trkpt>
      <trkpt lat="42.37033" lon="2.18324">
        <ele>1361.3</ele>
        <time>2024-09-25T09:38:09Z</time>
      </trkpt>
      <trkpt lat="42.37033" lon="2.18324">
        <ele>1361.3</ele>
        <time>2024-09-25T09:38:10Z</time>
      </trkpt>
      <trkpt lat="42.37033" lon="2.18324">
        <ele>1361.3</ele>
        <time>2024-09-25T09:38:11Z</time>
      </trkpt>
      <trkpt lat="42.37033" lon="2.18324">
        <ele>1361.3</ele>
        <time>2024-09-25T09:38:12Z</time>
      </trkpt>
      <trkpt lat="42.37033" lon="2.18324">
        <ele>1361.3</ele>
        <time>2024-09-25T09:38:13Z</time>
      </trkpt>
      <trkpt lat="42.37033" lon="2.18324">
        <ele>1361.3</ele>
        <time>2024-09-25T09:38:14Z</time>
      </trkpt>
      <trkpt lat="42.37033" lon="2.18324">
        <ele>1361.3</ele>
        <time>2024-09-25T09:38:15Z</time>
      </trkpt>
      <trkpt lat="42.37033" lon="2.18324">
        <ele>1361.3</ele>
        <time>2024-09-25T09:38:16Z</time>
      </trkpt>
      <trkpt lat="42.37033" lon="2.18324">
        <ele>1361.3</ele>
        <time>2024-09-25T09:38:17Z</time>
      </trkpt>
      <trkpt lat="42.37034" lon="2.18325">
        <ele>1361.3</ele>
        <time>2024-09-25T09:38:18Z</time>
      </trkpt>
      <trkpt lat="42.37034" lon="2.18325">
        <ele>1361.3</ele>
        <time>2024-09-25T09:38:19Z</time>
      </trkpt>
      <trkpt lat="42.37034" lon="2.18326">
        <ele>1361.4</ele>
        <time>2024-09-25T09:38:20Z</time>
      </trkpt>
      <trkpt lat="42.37035" lon="2.18327">
        <ele>1361.4</ele>
        <time>2024-09-25T09:38:21Z</time>
      </trkpt>
      <trkpt lat="42.37035" lon="2.18328">
        <ele>1361.5</ele>
        <time>2024-09-25T09:38:22Z</time>
      </trkpt>
      <trkpt lat="42.37036" lon="2.1833">
        <ele>1361.6</ele>
        <time>2024-09-25T09:38:23Z</time>
      </trkpt>
      <trkpt lat="42.37036" lon="2.1833">
        <ele>1361.6</ele>
        <time>2024-09-25T09:38:24Z</time>
      </trkpt>
      <trkpt lat="42.37037" lon="2.1833">
        <ele>1361.7</ele>
        <time>2024-09-25T09:38:25Z</time>
      </trkpt>
      <trkpt lat="42.37037" lon="2.18331">
        <ele>1361.7</ele>
        <time>2024-09-25T09:38:26Z</time>
      </trkpt>
      <trkpt lat="42.37037" lon="2.18332">
        <ele>1361.8</ele>
        <time>2024-09-25T09:38:27Z</time>
      </trkpt>
      <trkpt lat="42.37038" lon="2.18332">
        <ele>1361.8</ele>
        <time>2024-09-25T09:38:28Z</time>
      </trkpt>
      <trkpt lat="42.37038" lon="2.18333">
        <ele>1361.8</ele>
        <time>2024-09-25T09:38:29Z</time>
      </trkpt>
      <trkpt lat="42.37038" lon="2.18333">
        <ele>1361.9</ele>
        <time>2024-09-25T09:38:30Z</time>
      </trkpt>
      <trkpt lat="42.37038" lon="2.18333">
        <ele>1361.9</ele>
        <time>2024-09-25T09:38:31Z</time>
      </trkpt>
      <trkpt lat="42.37039" lon="2.18334">
        <ele>1362</ele>
        <time>2024-09-25T09:38:32Z</time>
      </trkpt>
      <trkpt lat="42.3704" lon="2.18336">
        <ele>1362.1</ele>
        <time>2024-09-25T09:38:33Z</time>
      </trkpt>
      <trkpt lat="42.3704" lon="2.18337">
        <ele>1362.2</ele>
        <time>2024-09-25T09:38:34Z</time>
      </trkpt>
      <trkpt lat="42.37041" lon="2.18339">
        <ele>1362.3</ele>
        <time>2024-09-25T09:38:35Z</time>
      </trkpt>
      <trkpt lat="42.37042" lon="2.1834">
        <ele>1362.4</ele>
        <time>2024-09-25T09:38:36Z</time>
      </trkpt>
      <trkpt lat="42.37042" lon="2.18341">
        <ele>1362.6</ele>
        <time>2024-09-25T09:38:37Z</time>
      </trkpt>
      <trkpt lat="42.37043" lon="2.18342">
        <ele>1362.7</ele>
        <time>2024-09-25T09:38:38Z</time>
      </trkpt>
      <trkpt lat="42.37043" lon="2.18343">
        <ele>1362.8</ele>
        <time>2024-09-25T09:38:39Z</time>
      </trkpt>
      <trkpt lat="42.37043" lon="2.18344">
        <ele>1362.9</ele>
        <time>2024-09-25T09:38:40Z</time>
      </trkpt>
      <trkpt lat="42.37044" lon="2.18345">
        <ele>1362.9</ele>
        <time>2024-09-25T09:38:41Z</time>
      </trkpt>
      <trkpt lat="42.37044" lon="2.18345">
        <ele>1363</ele>
        <time>2024-09-25T09:38:42Z</time>
      </trkpt>
      <trkpt lat="42.37045" lon="2.18346">
        <ele>1363.1</ele>
        <time>2024-09-25T09:38:43Z</time>
      </trkpt>
      <trkpt lat="42.37046" lon="2.18346">
        <ele>1363.2</ele>
        <time>2024-09-25T09:38:44Z</time>
      </trkpt>
      <trkpt lat="42.37047" lon="2.18347">
        <ele>1363.3</ele>
        <time>2024-09-25T09:38:45Z</time>
      </trkpt>
      <trkpt lat="42.37047" lon="2.18347">
        <ele>1363.5</ele>
        <time>2024-09-25T09:38:46Z</time>
      </trkpt>
      <trkpt lat="42.37048" lon="2.18347">
        <ele>1363.6</ele>
        <time>2024-09-25T09:38:47Z</time>
      </trkpt>
      <trkpt lat="42.37049" lon="2.18348">
        <ele>1363.8</ele>
        <time>2024-09-25T09:38:48Z</time>
      </trkpt>
      <trkpt lat="42.3705" lon="2.18349">
        <ele>1363.9</ele>
        <time>2024-09-25T09:38:49Z</time>
      </trkpt>
      <trkpt lat="42.37051" lon="2.18349">
        <ele>1364</ele>
        <time>2024-09-25T09:38:50Z</time>
      </trkpt>
      <trkpt lat="42.37052" lon="2.18349">
        <ele>1364.2</ele>
        <time>2024-09-25T09:38:51Z</time>
      </trkpt>
      <trkpt lat="42.37053" lon="2.18349">
        <ele>1364.3</ele>
        <time>2024-09-25T09:38:52Z</time>
      </trkpt>
      <trkpt lat="42.37053" lon="2.18349">
        <ele>1364.4</ele>
        <time>2024-09-25T09:38:53Z</time>
      </trkpt>
      <trkpt lat="42.37054" lon="2.18349">
        <ele>1364.5</ele>
        <time>2024-09-25T09:38:54Z</time>
      </trkpt>
      <trkpt lat="42.37055" lon="2.18349">
        <ele>1364.6</ele>
        <time>2024-09-25T09:38:55Z</time>
      </trkpt>
      <trkpt lat="42.37055" lon="2.1835">
        <ele>1364.7</ele>
        <time>2024-09-25T09:38:56Z</time>
      </trkpt>
      <trkpt lat="42.37056" lon="2.1835">
        <ele>1364.9</ele>
        <time>2024-09-25T09:38:57Z</time>
      </trkpt>
      <trkpt lat="42.37057" lon="2.18351">
        <ele>1365</ele>
        <time>2024-09-25T09:38:58Z</time>
      </trkpt>
      <trkpt lat="42.37057" lon="2.18352">
        <ele>1365.1</ele>
        <time>2024-09-25T09:38:59Z</time>
      </trkpt>
      <trkpt lat="42.37058" lon="2.18352">
        <ele>1365.2</ele>
        <time>2024-09-25T09:39:00Z</time>
      </trkpt>
      <trkpt lat="42.37059" lon="2.18352">
        <ele>1365.4</ele>
        <time>2024-09-25T09:39:01Z</time>
      </trkpt>
      <trkpt lat="42.37059" lon="2.18352">
        <ele>1365.5</ele>
        <time>2024-09-25T09:39:02Z</time>
      </trkpt>
      <trkpt lat="42.3706" lon="2.18353">
        <ele>1365.6</ele>
        <time>2024-09-25T09:39:03Z</time>
      </trkpt>
      <trkpt lat="42.37061" lon="2.18353">
        <ele>1365.7</ele>
        <time>2024-09-25T09:39:04Z</time>
      </trkpt>
      <trkpt lat="42.37061" lon="2.18353">
        <ele>1365.8</ele>
        <time>2024-09-25T09:39:05Z</time>
      </trkpt>
      <trkpt lat="42.37062" lon="2.18353">
        <ele>1365.8</ele>
        <time>2024-09-25T09:39:06Z</time>
      </trkpt>
      <trkpt lat="42.37062" lon="2.18354">
        <ele>1365.9</ele>
        <time>2024-09-25T09:39:07Z</time>
      </trkpt>
      <trkpt lat="42.37062" lon="2.18354">
        <ele>1366</ele>
        <time>2024-09-25T09:39:08Z</time>
      </trkpt>
      <trkpt lat="42.37063" lon="2.18354">
        <ele>1366</ele>
        <time>2024-09-25T09:39:09Z</time>
      </trkpt>
      <trkpt lat="42.37063" lon="2.18355">
        <ele>1366.2</ele>
        <time>2024-09-25T09:39:10Z</time>
      </trkpt>
      <trkpt lat="42.37064" lon="2.18355">
        <ele>1366.2</ele>
        <time>2024-09-25T09:39:11Z</time>
      </trkpt>
      <trkpt lat="42.37064" lon="2.18356">
        <ele>1366.3</ele>
        <time>2024-09-25T09:39:12Z</time>
      </trkpt>
      <trkpt lat="42.37065" lon="2.18356">
        <ele>1366.4</ele>
        <time>2024-09-25T09:39:13Z</time>
      </trkpt>
      <trkpt lat="42.37066" lon="2.18356">
        <ele>1366.5</ele>
        <time>2024-09-25T09:39:14Z</time>
      </trkpt>
      <trkpt lat="42.37066" lon="2.18357">
        <ele>1366.6</ele>
        <time>2024-09-25T09:39:15Z</time>
      </trkpt>
      <trkpt lat="42.37066" lon="2.18357">
        <ele>1366.6</ele>
        <time>2024-09-25T09:39:16Z</time>
      </trkpt>
      <trkpt lat="42.37066" lon="2.18358">
        <ele>1366.7</ele>
        <time>2024-09-25T09:39:17Z</time>
      </trkpt>
      <trkpt lat="42.37066" lon="2.18359">
        <ele>1366.8</ele>
        <time>2024-09-25T09:39:18Z</time>
      </trkpt>
      <trkpt lat="42.37067" lon="2.18359">
        <ele>1366.9</ele>
        <time>2024-09-25T09:39:19Z</time>
      </trkpt>
      <trkpt lat="42.37067" lon="2.18361">
        <ele>1367</ele>
        <time>2024-09-25T09:39:20Z</time>
      </trkpt>
      <trkpt lat="42.37068" lon="2.18361">
        <ele>1367</ele>
        <time>2024-09-25T09:39:21Z</time>
      </trkpt>
      <trkpt lat="42.37068" lon="2.18362">
        <ele>1367.1</ele>
        <time>2024-09-25T09:39:22Z</time>
      </trkpt>
      <trkpt lat="42.37068" lon="2.18362">
        <ele>1367.1</ele>
        <time>2024-09-25T09:39:23Z</time>
      </trkpt>
      <trkpt lat="42.37068" lon="2.18362">
        <ele>1367.2</ele>
        <time>2024-09-25T09:39:24Z</time>
      </trkpt>
      <trkpt lat="42.37068" lon="2.18362">
        <ele>1367.2</ele>
        <time>2024-09-25T09:39:25Z</time>
      </trkpt>
      <trkpt lat="42.37068" lon="2.18363">
        <ele>1367.2</ele>
        <time>2024-09-25T09:39:26Z</time>
      </trkpt>
      <trkpt lat="42.37068" lon="2.18363">
        <ele>1367.2</ele>
        <time>2024-09-25T09:39:27Z</time>
      </trkpt>
      <trkpt lat="42.37069" lon="2.18364">
        <ele>1367.3</ele>
        <time>2024-09-25T09:39:28Z</time>
      </trkpt>
      <trkpt lat="42.37069" lon="2.18364">
        <ele>1367.3</ele>
        <time>2024-09-25T09:39:29Z</time>
      </trkpt>
      <trkpt lat="42.37069" lon="2.18364">
        <ele>1367.3</ele>
        <time>2024-09-25T09:39:30Z</time>
      </trkpt>
      <trkpt lat="42.37069" lon="2.18365">
        <ele>1367.4</ele>
        <time>2024-09-25T09:39:31Z</time>
      </trkpt>
      <trkpt lat="42.37069" lon="2.18365">
        <ele>1367.4</ele>
        <time>2024-09-25T09:39:32Z</time>
      </trkpt>
      <trkpt lat="42.3707" lon="2.18365">
        <ele>1367.4</ele>
        <time>2024-09-25T09:39:33Z</time>
      </trkpt>
      <trkpt lat="42.3707" lon="2.18366">
        <ele>1367.5</ele>
        <time>2024-09-25T09:39:34Z</time>
      </trkpt>
      <trkpt lat="42.3707" lon="2.18367">
        <ele>1367.5</ele>
        <time>2024-09-25T09:39:35Z</time>
      </trkpt>
      <trkpt lat="42.3707" lon="2.18367">
        <ele>1367.5</ele>
        <time>2024-09-25T09:39:36Z</time>
      </trkpt>
      <trkpt lat="42.37071" lon="2.18367">
        <ele>1367.6</ele>
        <time>2024-09-25T09:39:37Z</time>
      </trkpt>
      <trkpt lat="42.37071" lon="2.18368">
        <ele>1367.6</ele>
        <time>2024-09-25T09:39:38Z</time>
      </trkpt>
      <trkpt lat="42.37071" lon="2.18368">
        <ele>1367.6</ele>
        <time>2024-09-25T09:39:39Z</time>
      </trkpt>
      <trkpt lat="42.37072" lon="2.18369">
        <ele>1367.6</ele>
        <time>2024-09-25T09:39:40Z</time>
      </trkpt>
      <trkpt lat="42.37072" lon="2.18369">
        <ele>1367.7</ele>
        <time>2024-09-25T09:39:41Z</time>
      </trkpt>
      <trkpt lat="42.37073" lon="2.1837">
        <ele>1367.7</ele>
        <time>2024-09-25T09:39:42Z</time>
      </trkpt>
      <trkpt lat="42.37073" lon="2.1837">
        <ele>1367.7</ele>
        <time>2024-09-25T09:39:43Z</time>
      </trkpt>
      <trkpt lat="42.37073" lon="2.1837">
        <ele>1367.8</ele>
        <time>2024-09-25T09:39:44Z</time>
      </trkpt>
      <trkpt lat="42.37074" lon="2.18371">
        <ele>1367.8</ele>
        <time>2024-09-25T09:39:45Z</time>
      </trkpt>
      <trkpt lat="42.37074" lon="2.18371">
        <ele>1367.8</ele>
        <time>2024-09-25T09:39:46Z</time>
      </trkpt>
      <trkpt lat="42.37075" lon="2.18372">
        <ele>1367.8</ele>
        <time>2024-09-25T09:39:47Z</time>
      </trkpt>
      <trkpt lat="42.37075" lon="2.18372">
        <ele>1367.9</ele>
        <time>2024-09-25T09:39:48Z</time>
      </trkpt>
      <trkpt lat="42.37075" lon="2.18372">
        <ele>1367.9</ele>
        <time>2024-09-25T09:39:49Z</time>
      </trkpt>
      <trkpt lat="42.37075" lon="2.18373">
        <ele>1367.9</ele>
        <time>2024-09-25T09:39:50Z</time>
      </trkpt>
      <trkpt lat="42.37076" lon="2.18373">
        <ele>1367.9</ele>
        <time>2024-09-25T09:39:51Z</time>
      </trkpt>
      <trkpt lat="42.37076" lon="2.18374">
        <ele>1367.9</ele>
        <time>2024-09-25T09:39:52Z</time>
      </trkpt>
      <trkpt lat="42.37076" lon="2.18374">
        <ele>1368</ele>
        <time>2024-09-25T09:39:53Z</time>
      </trkpt>
      <trkpt lat="42.37076" lon="2.18375">
        <ele>1368</ele>
        <time>2024-09-25T09:39:54Z</time>
      </trkpt>
      <trkpt lat="42.37076" lon="2.18375">
        <ele>1368</ele>
        <time>2024-09-25T09:39:55Z</time>
      </trkpt>
      <trkpt lat="42.37076" lon="2.18375">
        <ele>1368</ele>
        <time>2024-09-25T09:39:56Z</time>
      </trkpt>
      <trkpt lat="42.37076" lon="2.18376">
        <ele>1368</ele>
        <time>2024-09-25T09:39:57Z</time>
      </trkpt>
      <trkpt lat="42.37077" lon="2.18376">
        <ele>1368</ele>
        <time>2024-09-25T09:39:58Z</time>
      </trkpt>
      <trkpt lat="42.37078" lon="2.18378">
        <ele>1368.1</ele>
        <time>2024-09-25T09:39:59Z</time>
      </trkpt>
      <trkpt lat="42.37078" lon="2.18379">
        <ele>1368.1</ele>
        <time>2024-09-25T09:40:00Z</time>
      </trkpt>
      <trkpt lat="42.37078" lon="2.1838">
        <ele>1368.2</ele>
        <time>2024-09-25T09:40:01Z</time>
      </trkpt>
      <trkpt lat="42.37079" lon="2.18381">
        <ele>1368.2</ele>
        <time>2024-09-25T09:40:02Z</time>
      </trkpt>
      <trkpt lat="42.37081" lon="2.18385">
        <ele>1368.4</ele>
        <time>2024-09-25T09:40:03Z</time>
      </trkpt>
      <trkpt lat="42.37082" lon="2.18385">
        <ele>1368.4</ele>
        <time>2024-09-25T09:40:04Z</time>
      </trkpt>
      <trkpt lat="42.37083" lon="2.18387">
        <ele>1368.5</ele>
        <time>2024-09-25T09:40:05Z</time>
      </trkpt>
      <trkpt lat="42.37084" lon="2.18388">
        <ele>1368.6</ele>
        <time>2024-09-25T09:40:06Z</time>
      </trkpt>
      <trkpt lat="42.37085" lon="2.18388">
        <ele>1368.6</ele>
        <time>2024-09-25T09:40:07Z</time>
      </trkpt>
      <trkpt lat="42.37085" lon="2.18389">
        <ele>1368.7</ele>
        <time>2024-09-25T09:40:08Z</time>
      </trkpt>
      <trkpt lat="42.37086" lon="2.18389">
        <ele>1368.7</ele>
        <time>2024-09-25T09:40:09Z</time>
      </trkpt>
      <trkpt lat="42.37086" lon="2.18389">
        <ele>1368.7</ele>
        <time>2024-09-25T09:40:10Z</time>
      </trkpt>
      <trkpt lat="42.37085" lon="2.18389">
        <ele>1368.7</ele>
        <time>2024-09-25T09:40:11Z</time>
      </trkpt>
      <trkpt lat="42.37086" lon="2.18389">
        <ele>1368.7</ele>
        <time>2024-09-25T09:40:12Z</time>
      </trkpt>
      <trkpt lat="42.37086" lon="2.18389">
        <ele>1368.8</ele>
        <time>2024-09-25T09:40:13Z</time>
      </trkpt>
      <trkpt lat="42.37088" lon="2.18391">
        <ele>1368.9</ele>
        <time>2024-09-25T09:40:14Z</time>
      </trkpt>
      <trkpt lat="42.37089" lon="2.18391">
        <ele>1369</ele>
        <time>2024-09-25T09:40:15Z</time>
      </trkpt>
      <trkpt lat="42.37089" lon="2.18392">
        <ele>1369.1</ele>
        <time>2024-09-25T09:40:16Z</time>
      </trkpt>
      <trkpt lat="42.37091" lon="2.18393">
        <ele>1369.2</ele>
        <time>2024-09-25T09:40:17Z</time>
      </trkpt>
      <trkpt lat="42.37092" lon="2.18394">
        <ele>1369.3</ele>
        <time>2024-09-25T09:40:18Z</time>
      </trkpt>
      <trkpt lat="42.37093" lon="2.18395">
        <ele>1369.5</ele>
        <time>2024-09-25T09:40:19Z</time>
      </trkpt>
      <trkpt lat="42.37093" lon="2.18397">
        <ele>1369.6</ele>
        <time>2024-09-25T09:40:20Z</time>
      </trkpt>
      <trkpt lat="42.37094" lon="2.18398">
        <ele>1369.7</ele>
        <time>2024-09-25T09:40:21Z</time>
      </trkpt>
      <trkpt lat="42.37095" lon="2.18399">
        <ele>1369.8</ele>
        <time>2024-09-25T09:40:22Z</time>
      </trkpt>
      <trkpt lat="42.37095" lon="2.184">
        <ele>1369.9</ele>
        <time>2024-09-25T09:40:23Z</time>
      </trkpt>
      <trkpt lat="42.37096" lon="2.18401">
        <ele>1370</ele>
        <time>2024-09-25T09:40:24Z</time>
      </trkpt>
      <trkpt lat="42.37097" lon="2.18401">
        <ele>1370.1</ele>
        <time>2024-09-25T09:40:25Z</time>
      </trkpt>
      <trkpt lat="42.37098" lon="2.18402">
        <ele>1370.2</ele>
        <time>2024-09-25T09:40:26Z</time>
      </trkpt>
      <trkpt lat="42.37098" lon="2.18402">
        <ele>1370.2</ele>
        <time>2024-09-25T09:40:27Z</time>
      </trkpt>
      <trkpt lat="42.37099" lon="2.18403">
        <ele>1370.3</ele>
        <time>2024-09-25T09:40:28Z</time>
      </trkpt>
      <trkpt lat="42.371" lon="2.18403">
        <ele>1370.4</ele>
        <time>2024-09-25T09:40:29Z</time>
      </trkpt>
      <trkpt lat="42.371" lon="2.18403">
        <ele>1370.5</ele>
        <time>2024-09-25T09:40:30Z</time>
      </trkpt>
      <trkpt lat="42.37101" lon="2.18403">
        <ele>1370.5</ele>
        <time>2024-09-25T09:40:31Z</time>
      </trkpt>
      <trkpt lat="42.37101" lon="2.18403">
        <ele>1370.6</ele>
        <time>2024-09-25T09:40:32Z</time>
      </trkpt>
      <trkpt lat="42.37102" lon="2.18403">
        <ele>1370.6</ele>
        <time>2024-09-25T09:40:33Z</time>
      </trkpt>
      <trkpt lat="42.37102" lon="2.18404">
        <ele>1370.7</ele>
        <time>2024-09-25T09:40:34Z</time>
      </trkpt>
      <trkpt lat="42.37103" lon="2.18404">
        <ele>1370.7</ele>
        <time>2024-09-25T09:40:35Z</time>
      </trkpt>
      <trkpt lat="42.37102" lon="2.18405">
        <ele>1370.8</ele>
        <time>2024-09-25T09:40:36Z</time>
      </trkpt>
      <trkpt lat="42.37103" lon="2.18405">
        <ele>1370.8</ele>
        <time>2024-09-25T09:40:37Z</time>
      </trkpt>
      <trkpt lat="42.37103" lon="2.18406">
        <ele>1370.8</ele>
        <time>2024-09-25T09:40:38Z</time>
      </trkpt>
      <trkpt lat="42.37103" lon="2.18406">
        <ele>1370.8</ele>
        <time>2024-09-25T09:40:39Z</time>
      </trkpt>
      <trkpt lat="42.37103" lon="2.18406">
        <ele>1370.9</ele>
        <time>2024-09-25T09:40:40Z</time>
      </trkpt>
      <trkpt lat="42.37103" lon="2.18406">
        <ele>1370.9</ele>
        <time>2024-09-25T09:40:41Z</time>
      </trkpt>
      <trkpt lat="42.37103" lon="2.18407">
        <ele>1371</ele>
        <time>2024-09-25T09:40:42Z</time>
      </trkpt>
      <trkpt lat="42.37103" lon="2.18408">
        <ele>1371</ele>
        <time>2024-09-25T09:40:43Z</time>
      </trkpt>
      <trkpt lat="42.37103" lon="2.18408">
        <ele>1371</ele>
        <time>2024-09-25T09:40:44Z</time>
      </trkpt>
      <trkpt lat="42.37103" lon="2.18408">
        <ele>1371</ele>
        <time>2024-09-25T09:40:45Z</time>
      </trkpt>
      <trkpt lat="42.37103" lon="2.18408">
        <ele>1371.1</ele>
        <time>2024-09-25T09:40:46Z</time>
      </trkpt>
      <trkpt lat="42.37103" lon="2.18408">
        <ele>1371.1</ele>
        <time>2024-09-25T09:40:47Z</time>
      </trkpt>
      <trkpt lat="42.37103" lon="2.18408">
        <ele>1371.1</ele>
        <time>2024-09-25T09:40:48Z</time>
      </trkpt>
      <trkpt lat="42.37103" lon="2.18408">
        <ele>1371.1</ele>
        <time>2024-09-25T09:40:49Z</time>
      </trkpt>
      <trkpt lat="42.37103" lon="2.18409">
        <ele>1371.1</ele>
        <time>2024-09-25T09:40:50Z</time>
      </trkpt>
      <trkpt lat="42.37103" lon="2.18409">
        <ele>1371.1</ele>
        <time>2024-09-25T09:40:51Z</time>
      </trkpt>
      <trkpt lat="42.37102" lon="2.18409">
        <ele>1371.1</ele>
        <time>2024-09-25T09:40:52Z</time>
      </trkpt>
      <trkpt lat="42.37102" lon="2.18409">
        <ele>1371.2</ele>
        <time>2024-09-25T09:40:53Z</time>
      </trkpt>
      <trkpt lat="42.37102" lon="2.18408">
        <ele>1371.2</ele>
        <time>2024-09-25T09:40:54Z</time>
      </trkpt>
      <trkpt lat="42.37102" lon="2.18408">
        <ele>1371.2</ele>
        <time>2024-09-25T09:40:55Z</time>
      </trkpt>
      <trkpt lat="42.37102" lon="2.18408">
        <ele>1371.2</ele>
        <time>2024-09-25T09:40:56Z</time>
      </trkpt>
      <trkpt lat="42.37102" lon="2.18408">
        <ele>1371.2</ele>
        <time>2024-09-25T09:40:57Z</time>
      </trkpt>
      <trkpt lat="42.37102" lon="2.18408">
        <ele>1371.2</ele>
        <time>2024-09-25T09:40:58Z</time>
      </trkpt>
      <trkpt lat="42.37102" lon="2.18409">
        <ele>1371.2</ele>
        <time>2024-09-25T09:40:59Z</time>
      </trkpt>
      <trkpt lat="42.37102" lon="2.18409">
        <ele>1371.2</ele>
        <time>2024-09-25T09:41:00Z</time>
      </trkpt>
      <trkpt lat="42.37102" lon="2.18409">
        <ele>1371.2</ele>
        <time>2024-09-25T09:41:01Z</time>
      </trkpt>
      <trkpt lat="42.37102" lon="2.18409">
        <ele>1371.2</ele>
        <time>2024-09-25T09:41:02Z</time>
      </trkpt>
      <trkpt lat="42.37102" lon="2.18409">
        <ele>1371.2</ele>
        <time>2024-09-25T09:41:03Z</time>
      </trkpt>
      <trkpt lat="42.37102" lon="2.18409">
        <ele>1371.2</ele>
        <time>2024-09-25T09:41:04Z</time>
      </trkpt>
      <trkpt lat="42.37102" lon="2.18409">
        <ele>1371.3</ele>
        <time>2024-09-25T09:41:05Z</time>
      </trkpt>
      <trkpt lat="42.37102" lon="2.18409">
        <ele>1371.3</ele>
        <time>2024-09-25T09:41:06Z</time>
      </trkpt>
      <trkpt lat="42.37102" lon="2.18409">
        <ele>1371.3</ele>
        <time>2024-09-25T09:41:07Z</time>
      </trkpt>
      <trkpt lat="42.37102" lon="2.18409">
        <ele>1371.3</ele>
        <time>2024-09-25T09:41:08Z</time>
      </trkpt>
      <trkpt lat="42.37102" lon="2.18409">
        <ele>1371.3</ele>
        <time>2024-09-25T09:41:09Z</time>
      </trkpt>
      <trkpt lat="42.37102" lon="2.18409">
        <ele>1371.3</ele>
        <time>2024-09-25T09:41:10Z</time>
      </trkpt>
      <trkpt lat="42.37102" lon="2.1841">
        <ele>1371.3</ele>
        <time>2024-09-25T09:41:11Z</time>
      </trkpt>
      <trkpt lat="42.37103" lon="2.1841">
        <ele>1371.4</ele>
        <time>2024-09-25T09:41:12Z</time>
      </trkpt>
      <trkpt lat="42.37103" lon="2.1841">
        <ele>1371.4</ele>
        <time>2024-09-25T09:41:13Z</time>
      </trkpt>
      <trkpt lat="42.37103" lon="2.1841">
        <ele>1371.4</ele>
        <time>2024-09-25T09:41:14Z</time>
      </trkpt>
      <trkpt lat="42.37103" lon="2.1841">
        <ele>1371.4</ele>
        <time>2024-09-25T09:41:15Z</time>
      </trkpt>
      <trkpt lat="42.37103" lon="2.1841">
        <ele>1371.5</ele>
        <time>2024-09-25T09:41:16Z</time>
      </trkpt>
      <trkpt lat="42.37103" lon="2.18411">
        <ele>1371.5</ele>
        <time>2024-09-25T09:41:17Z</time>
      </trkpt>
      <trkpt lat="42.37103" lon="2.18411">
        <ele>1371.6</ele>
        <time>2024-09-25T09:41:18Z</time>
      </trkpt>
      <trkpt lat="42.37104" lon="2.18412">
        <ele>1371.6</ele>
        <time>2024-09-25T09:41:19Z</time>
      </trkpt>
      <trkpt lat="42.37105" lon="2.18413">
        <ele>1371.7</ele>
        <time>2024-09-25T09:41:20Z</time>
      </trkpt>
      <trkpt lat="42.37106" lon="2.18414">
        <ele>1371.8</ele>
        <time>2024-09-25T09:41:21Z</time>
      </trkpt>
      <trkpt lat="42.37107" lon="2.18415">
        <ele>1371.9</ele>
        <time>2024-09-25T09:41:22Z</time>
      </trkpt>
      <trkpt lat="42.37108" lon="2.18417">
        <ele>1372.1</ele>
        <time>2024-09-25T09:41:23Z</time>
      </trkpt>
      <trkpt lat="42.37108" lon="2.18418">
        <ele>1372.2</ele>
        <time>2024-09-25T09:41:24Z</time>
      </trkpt>
      <trkpt lat="42.37109" lon="2.18419">
        <ele>1372.3</ele>
        <time>2024-09-25T09:41:25Z</time>
      </trkpt>
      <trkpt lat="42.3711" lon="2.1842">
        <ele>1372.3</ele>
        <time>2024-09-25T09:41:26Z</time>
      </trkpt>
      <trkpt lat="42.37111" lon="2.18421">
        <ele>1372.4</ele>
        <time>2024-09-25T09:41:27Z</time>
      </trkpt>
      <trkpt lat="42.37111" lon="2.18422">
        <ele>1372.5</ele>
        <time>2024-09-25T09:41:28Z</time>
      </trkpt>
      <trkpt lat="42.37112" lon="2.18423">
        <ele>1372.6</ele>
        <time>2024-09-25T09:41:29Z</time>
      </trkpt>
      <trkpt lat="42.37113" lon="2.18424">
        <ele>1372.7</ele>
        <time>2024-09-25T09:41:30Z</time>
      </trkpt>
      <trkpt lat="42.37114" lon="2.18424">
        <ele>1372.8</ele>
        <time>2024-09-25T09:41:31Z</time>
      </trkpt>
      <trkpt lat="42.37115" lon="2.18425">
        <ele>1372.9</ele>
        <time>2024-09-25T09:41:32Z</time>
      </trkpt>
      <trkpt lat="42.37116" lon="2.18425">
        <ele>1372.9</ele>
        <time>2024-09-25T09:41:33Z</time>
      </trkpt>
      <trkpt lat="42.37116" lon="2.18426">
        <ele>1373</ele>
        <time>2024-09-25T09:41:34Z</time>
      </trkpt>
      <trkpt lat="42.37117" lon="2.18426">
        <ele>1373.1</ele>
        <time>2024-09-25T09:41:35Z</time>
      </trkpt>
      <trkpt lat="42.37117" lon="2.18426">
        <ele>1373.1</ele>
        <time>2024-09-25T09:41:36Z</time>
      </trkpt>
      <trkpt lat="42.37118" lon="2.18426">
        <ele>1373.1</ele>
        <time>2024-09-25T09:41:37Z</time>
      </trkpt>
      <trkpt lat="42.37118" lon="2.18426">
        <ele>1373.2</ele>
        <time>2024-09-25T09:41:38Z</time>
      </trkpt>
      <trkpt lat="42.37119" lon="2.18427">
        <ele>1373.2</ele>
        <time>2024-09-25T09:41:39Z</time>
      </trkpt>
      <trkpt lat="42.37119" lon="2.18427">
        <ele>1373.3</ele>
        <time>2024-09-25T09:41:40Z</time>
      </trkpt>
      <trkpt lat="42.3712" lon="2.18426">
        <ele>1373.3</ele>
        <time>2024-09-25T09:41:41Z</time>
      </trkpt>
      <trkpt lat="42.3712" lon="2.18426">
        <ele>1373.3</ele>
        <time>2024-09-25T09:41:42Z</time>
      </trkpt>
      <trkpt lat="42.37121" lon="2.18426">
        <ele>1373.4</ele>
        <time>2024-09-25T09:41:43Z</time>
      </trkpt>
      <trkpt lat="42.37122" lon="2.18426">
        <ele>1373.5</ele>
        <time>2024-09-25T09:41:44Z</time>
      </trkpt>
      <trkpt lat="42.37124" lon="2.18427">
        <ele>1373.6</ele>
        <time>2024-09-25T09:41:45Z</time>
      </trkpt>
      <trkpt lat="42.37123" lon="2.18427">
        <ele>1373.7</ele>
        <time>2024-09-25T09:41:46Z</time>
      </trkpt>
      <trkpt lat="42.37124" lon="2.18427">
        <ele>1373.7</ele>
        <time>2024-09-25T09:41:47Z</time>
      </trkpt>
      <trkpt lat="42.37125" lon="2.18427">
        <ele>1373.8</ele>
        <time>2024-09-25T09:41:48Z</time>
      </trkpt>
      <trkpt lat="42.37126" lon="2.18428">
        <ele>1373.9</ele>
        <time>2024-09-25T09:41:49Z</time>
      </trkpt>
      <trkpt lat="42.37127" lon="2.18428">
        <ele>1374</ele>
        <time>2024-09-25T09:41:50Z</time>
      </trkpt>
      <trkpt lat="42.37128" lon="2.18428">
        <ele>1374.1</ele>
        <time>2024-09-25T09:41:51Z</time>
      </trkpt>
      <trkpt lat="42.37129" lon="2.18429">
        <ele>1374.2</ele>
        <time>2024-09-25T09:41:52Z</time>
      </trkpt>
      <trkpt lat="42.3713" lon="2.18429">
        <ele>1374.3</ele>
        <time>2024-09-25T09:41:53Z</time>
      </trkpt>
      <trkpt lat="42.37131" lon="2.18429">
        <ele>1374.3</ele>
        <time>2024-09-25T09:41:54Z</time>
      </trkpt>
      <trkpt lat="42.37131" lon="2.1843">
        <ele>1374.3</ele>
        <time>2024-09-25T09:41:55Z</time>
      </trkpt>
      <trkpt lat="42.37131" lon="2.1843">
        <ele>1374.4</ele>
        <time>2024-09-25T09:41:56Z</time>
      </trkpt>
      <trkpt lat="42.37131" lon="2.1843">
        <ele>1374.4</ele>
        <time>2024-09-25T09:41:57Z</time>
      </trkpt>
      <trkpt lat="42.37131" lon="2.18431">
        <ele>1374.4</ele>
        <time>2024-09-25T09:41:58Z</time>
      </trkpt>
      <trkpt lat="42.3713" lon="2.18431">
        <ele>1374.5</ele>
        <time>2024-09-25T09:41:59Z</time>
      </trkpt>
      <trkpt lat="42.3713" lon="2.18432">
        <ele>1374.5</ele>
        <time>2024-09-25T09:42:00Z</time>
      </trkpt>
      <trkpt lat="42.3713" lon="2.18433">
        <ele>1374.6</ele>
        <time>2024-09-25T09:42:01Z</time>
      </trkpt>
      <trkpt lat="42.3713" lon="2.18433">
        <ele>1374.6</ele>
        <time>2024-09-25T09:42:02Z</time>
      </trkpt>
      <trkpt lat="42.3713" lon="2.18433">
        <ele>1374.7</ele>
        <time>2024-09-25T09:42:03Z</time>
      </trkpt>
      <trkpt lat="42.37129" lon="2.18435">
        <ele>1374.8</ele>
        <time>2024-09-25T09:42:04Z</time>
      </trkpt>
      <trkpt lat="42.37129" lon="2.18436">
        <ele>1374.9</ele>
        <time>2024-09-25T09:42:05Z</time>
      </trkpt>
      <trkpt lat="42.37128" lon="2.18437">
        <ele>1375</ele>
        <time>2024-09-25T09:42:06Z</time>
      </trkpt>
      <trkpt lat="42.37127" lon="2.18439">
        <ele>1375.2</ele>
        <time>2024-09-25T09:42:07Z</time>
      </trkpt>
      <trkpt lat="42.37127" lon="2.1844">
        <ele>1375.3</ele>
        <time>2024-09-25T09:42:08Z</time>
      </trkpt>
      <trkpt lat="42.37127" lon="2.18441">
        <ele>1375.4</ele>
        <time>2024-09-25T09:42:09Z</time>
      </trkpt>
      <trkpt lat="42.37127" lon="2.18442">
        <ele>1375.5</ele>
        <time>2024-09-25T09:42:10Z</time>
      </trkpt>
      <trkpt lat="42.37126" lon="2.18443">
        <ele>1375.6</ele>
        <time>2024-09-25T09:42:11Z</time>
      </trkpt>
      <trkpt lat="42.37126" lon="2.18444">
        <ele>1375.7</ele>
        <time>2024-09-25T09:42:12Z</time>
      </trkpt>
      <trkpt lat="42.37126" lon="2.18445">
        <ele>1375.8</ele>
        <time>2024-09-25T09:42:13Z</time>
      </trkpt>
      <trkpt lat="42.37126" lon="2.18446">
        <ele>1375.9</ele>
        <time>2024-09-25T09:42:14Z</time>
      </trkpt>
      <trkpt lat="42.37126" lon="2.18446">
        <ele>1375.9</ele>
        <time>2024-09-25T09:42:15Z</time>
      </trkpt>
      <trkpt lat="42.37125" lon="2.18446">
        <ele>1376</ele>
        <time>2024-09-25T09:42:16Z</time>
      </trkpt>
      <trkpt lat="42.37125" lon="2.18446">
        <ele>1376</ele>
        <time>2024-09-25T09:42:17Z</time>
      </trkpt>
      <trkpt lat="42.37124" lon="2.18446">
        <ele>1376.1</ele>
        <time>2024-09-25T09:42:18Z</time>
      </trkpt>
      <trkpt lat="42.37124" lon="2.18447">
        <ele>1376.1</ele>
        <time>2024-09-25T09:42:19Z</time>
      </trkpt>
      <trkpt lat="42.37124" lon="2.18447">
        <ele>1376.2</ele>
        <time>2024-09-25T09:42:20Z</time>
      </trkpt>
      <trkpt lat="42.37123" lon="2.18447">
        <ele>1376.2</ele>
        <time>2024-09-25T09:42:21Z</time>
      </trkpt>
      <trkpt lat="42.37123" lon="2.18448">
        <ele>1376.3</ele>
        <time>2024-09-25T09:42:22Z</time>
      </trkpt>
      <trkpt lat="42.37123" lon="2.18448">
        <ele>1376.3</ele>
        <time>2024-09-25T09:42:23Z</time>
      </trkpt>
      <trkpt lat="42.37123" lon="2.18449">
        <ele>1376.4</ele>
        <time>2024-09-25T09:42:24Z</time>
      </trkpt>
      <trkpt lat="42.37123" lon="2.18449">
        <ele>1376.4</ele>
        <time>2024-09-25T09:42:25Z</time>
      </trkpt>
      <trkpt lat="42.37122" lon="2.18449">
        <ele>1376.4</ele>
        <time>2024-09-25T09:42:26Z</time>
      </trkpt>
      <trkpt lat="42.37122" lon="2.18449">
        <ele>1376.4</ele>
        <time>2024-09-25T09:42:27Z</time>
      </trkpt>
      <trkpt lat="42.37122" lon="2.1845">
        <ele>1376.5</ele>
        <time>2024-09-25T09:42:28Z</time>
      </trkpt>
      <trkpt lat="42.37122" lon="2.18451">
        <ele>1376.6</ele>
        <time>2024-09-25T09:42:29Z</time>
      </trkpt>
      <trkpt lat="42.37122" lon="2.18452">
        <ele>1376.7</ele>
        <time>2024-09-25T09:42:30Z</time>
      </trkpt>
      <trkpt lat="42.37122" lon="2.18453">
        <ele>1376.8</ele>
        <time>2024-09-25T09:42:31Z</time>
      </trkpt>
      <trkpt lat="42.37122" lon="2.18454">
        <ele>1376.9</ele>
        <time>2024-09-25T09:42:32Z</time>
      </trkpt>
      <trkpt lat="42.37122" lon="2.18455">
        <ele>1377</ele>
        <time>2024-09-25T09:42:33Z</time>
      </trkpt>
      <trkpt lat="42.37121" lon="2.18456">
        <ele>1377.1</ele>
        <time>2024-09-25T09:42:34Z</time>
      </trkpt>
      <trkpt lat="42.37121" lon="2.18457">
        <ele>1377.2</ele>
        <time>2024-09-25T09:42:35Z</time>
      </trkpt>
      <trkpt lat="42.37121" lon="2.18458">
        <ele>1377.3</ele>
        <time>2024-09-25T09:42:36Z</time>
      </trkpt>
      <trkpt lat="42.37121" lon="2.18459">
        <ele>1377.4</ele>
        <time>2024-09-25T09:42:37Z</time>
      </trkpt>
      <trkpt lat="42.37121" lon="2.1846">
        <ele>1377.5</ele>
        <time>2024-09-25T09:42:38Z</time>
      </trkpt>
      <trkpt lat="42.37122" lon="2.18461">
        <ele>1377.6</ele>
        <time>2024-09-25T09:42:39Z</time>
      </trkpt>
      <trkpt lat="42.37122" lon="2.18462">
        <ele>1377.7</ele>
        <time>2024-09-25T09:42:40Z</time>
      </trkpt>
      <trkpt lat="42.37122" lon="2.18463">
        <ele>1377.7</ele>
        <time>2024-09-25T09:42:41Z</time>
      </trkpt>
      <trkpt lat="42.37122" lon="2.18464">
        <ele>1377.8</ele>
        <time>2024-09-25T09:42:42Z</time>
      </trkpt>
      <trkpt lat="42.37122" lon="2.18465">
        <ele>1377.9</ele>
        <time>2024-09-25T09:42:43Z</time>
      </trkpt>
      <trkpt lat="42.37123" lon="2.18466">
        <ele>1378</ele>
        <time>2024-09-25T09:42:44Z</time>
      </trkpt>
      <trkpt lat="42.37123" lon="2.18467">
        <ele>1378.1</ele>
        <time>2024-09-25T09:42:45Z</time>
      </trkpt>
      <trkpt lat="42.37124" lon="2.18468">
        <ele>1378.2</ele>
        <time>2024-09-25T09:42:46Z</time>
      </trkpt>
      <trkpt lat="42.37124" lon="2.18469">
        <ele>1378.3</ele>
        <time>2024-09-25T09:42:47Z</time>
      </trkpt>
      <trkpt lat="42.37125" lon="2.18469">
        <ele>1378.4</ele>
        <time>2024-09-25T09:42:48Z</time>
      </trkpt>
      <trkpt lat="42.37125" lon="2.1847">
        <ele>1378.4</ele>
        <time>2024-09-25T09:42:49Z</time>
      </trkpt>
      <trkpt lat="42.37125" lon="2.18471">
        <ele>1378.5</ele>
        <time>2024-09-25T09:42:50Z</time>
      </trkpt>
      <trkpt lat="42.37126" lon="2.18471">
        <ele>1378.6</ele>
        <time>2024-09-25T09:42:51Z</time>
      </trkpt>
      <trkpt lat="42.37126" lon="2.18472">
        <ele>1378.6</ele>
        <time>2024-09-25T09:42:52Z</time>
      </trkpt>
      <trkpt lat="42.37126" lon="2.18473">
        <ele>1378.7</ele>
        <time>2024-09-25T09:42:53Z</time>
      </trkpt>
      <trkpt lat="42.37126" lon="2.18474">
        <ele>1378.8</ele>
        <time>2024-09-25T09:42:54Z</time>
      </trkpt>
      <trkpt lat="42.37127" lon="2.18475">
        <ele>1378.8</ele>
        <time>2024-09-25T09:42:55Z</time>
      </trkpt>
      <trkpt lat="42.37127" lon="2.18475">
        <ele>1378.9</ele>
        <time>2024-09-25T09:42:56Z</time>
      </trkpt>
      <trkpt lat="42.37127" lon="2.18476">
        <ele>1379</ele>
        <time>2024-09-25T09:42:57Z</time>
      </trkpt>
      <trkpt lat="42.37127" lon="2.18477">
        <ele>1379</ele>
        <time>2024-09-25T09:42:58Z</time>
      </trkpt>
      <trkpt lat="42.37127" lon="2.18478">
        <ele>1379.1</ele>
        <time>2024-09-25T09:42:59Z</time>
      </trkpt>
      <trkpt lat="42.37127" lon="2.18479">
        <ele>1379.2</ele>
        <time>2024-09-25T09:43:00Z</time>
      </trkpt>
      <trkpt lat="42.37127" lon="2.1848">
        <ele>1379.2</ele>
        <time>2024-09-25T09:43:01Z</time>
      </trkpt>
      <trkpt lat="42.37127" lon="2.18481">
        <ele>1379.3</ele>
        <time>2024-09-25T09:43:02Z</time>
      </trkpt>
      <trkpt lat="42.37127" lon="2.18482">
        <ele>1379.4</ele>
        <time>2024-09-25T09:43:03Z</time>
      </trkpt>
      <trkpt lat="42.37127" lon="2.18483">
        <ele>1379.5</ele>
        <time>2024-09-25T09:43:04Z</time>
      </trkpt>
      <trkpt lat="42.37127" lon="2.18484">
        <ele>1379.6</ele>
        <time>2024-09-25T09:43:05Z</time>
      </trkpt>
      <trkpt lat="42.37127" lon="2.18485">
        <ele>1379.6</ele>
        <time>2024-09-25T09:43:06Z</time>
      </trkpt>
      <trkpt lat="42.37128" lon="2.18486">
        <ele>1379.7</ele>
        <time>2024-09-25T09:43:07Z</time>
      </trkpt>
      <trkpt lat="42.37128" lon="2.18486">
        <ele>1379.7</ele>
        <time>2024-09-25T09:43:08Z</time>
      </trkpt>
      <trkpt lat="42.37128" lon="2.18487">
        <ele>1379.8</ele>
        <time>2024-09-25T09:43:09Z</time>
      </trkpt>
      <trkpt lat="42.37129" lon="2.18487">
        <ele>1379.8</ele>
        <time>2024-09-25T09:43:10Z</time>
      </trkpt>
      <trkpt lat="42.37129" lon="2.18487">
        <ele>1379.8</ele>
        <time>2024-09-25T09:43:11Z</time>
      </trkpt>
      <trkpt lat="42.3713" lon="2.18487">
        <ele>1379.9</ele>
        <time>2024-09-25T09:43:12Z</time>
      </trkpt>
      <trkpt lat="42.3713" lon="2.18487">
        <ele>1379.9</ele>
        <time>2024-09-25T09:43:13Z</time>
      </trkpt>
      <trkpt lat="42.3713" lon="2.18488">
        <ele>1380</ele>
        <time>2024-09-25T09:43:14Z</time>
      </trkpt>
      <trkpt lat="42.3713" lon="2.18488">
        <ele>1380</ele>
        <time>2024-09-25T09:43:15Z</time>
      </trkpt>
      <trkpt lat="42.3713" lon="2.18489">
        <ele>1380</ele>
        <time>2024-09-25T09:43:16Z</time>
      </trkpt>
      <trkpt lat="42.37131" lon="2.1849">
        <ele>1380.1</ele>
        <time>2024-09-25T09:43:17Z</time>
      </trkpt>
      <trkpt lat="42.37132" lon="2.1849">
        <ele>1380.2</ele>
        <time>2024-09-25T09:43:18Z</time>
      </trkpt>
      <trkpt lat="42.37132" lon="2.18491">
        <ele>1380.2</ele>
        <time>2024-09-25T09:43:19Z</time>
      </trkpt>
      <trkpt lat="42.37133" lon="2.18492">
        <ele>1380.3</ele>
        <time>2024-09-25T09:43:20Z</time>
      </trkpt>
      <trkpt lat="42.37133" lon="2.18493">
        <ele>1380.3</ele>
        <time>2024-09-25T09:43:21Z</time>
      </trkpt>
      <trkpt lat="42.37133" lon="2.18494">
        <ele>1380.4</ele>
        <time>2024-09-25T09:43:22Z</time>
      </trkpt>
      <trkpt lat="42.37134" lon="2.18495">
        <ele>1380.5</ele>
        <time>2024-09-25T09:43:23Z</time>
      </trkpt>
      <trkpt lat="42.37134" lon="2.18496">
        <ele>1380.6</ele>
        <time>2024-09-25T09:43:24Z</time>
      </trkpt>
      <trkpt lat="42.37135" lon="2.18497">
        <ele>1380.6</ele>
        <time>2024-09-25T09:43:25Z</time>
      </trkpt>
      <trkpt lat="42.37135" lon="2.18498">
        <ele>1380.7</ele>
        <time>2024-09-25T09:43:26Z</time>
      </trkpt>
      <trkpt lat="42.37135" lon="2.18498">
        <ele>1380.8</ele>
        <time>2024-09-25T09:43:27Z</time>
      </trkpt>
      <trkpt lat="42.37136" lon="2.18499">
        <ele>1380.8</ele>
        <time>2024-09-25T09:43:28Z</time>
      </trkpt>
      <trkpt lat="42.37136" lon="2.185">
        <ele>1380.9</ele>
        <time>2024-09-25T09:43:29Z</time>
      </trkpt>
      <trkpt lat="42.37137" lon="2.185">
        <ele>1380.9</ele>
        <time>2024-09-25T09:43:30Z</time>
      </trkpt>
      <trkpt lat="42.37137" lon="2.18501">
        <ele>1381</ele>
        <time>2024-09-25T09:43:31Z</time>
      </trkpt>
      <trkpt lat="42.37138" lon="2.18502">
        <ele>1381</ele>
        <time>2024-09-25T09:43:32Z</time>
      </trkpt>
      <trkpt lat="42.37138" lon="2.18503">
        <ele>1381.1</ele>
        <time>2024-09-25T09:43:33Z</time>
      </trkpt>
      <trkpt lat="42.37139" lon="2.18504">
        <ele>1381.2</ele>
        <time>2024-09-25T09:43:34Z</time>
      </trkpt>
      <trkpt lat="42.37139" lon="2.18505">
        <ele>1381.3</ele>
        <time>2024-09-25T09:43:35Z</time>
      </trkpt>
      <trkpt lat="42.3714" lon="2.18506">
        <ele>1381.4</ele>
        <time>2024-09-25T09:43:36Z</time>
      </trkpt>
      <trkpt lat="42.3714" lon="2.18507">
        <ele>1381.4</ele>
        <time>2024-09-25T09:43:37Z</time>
      </trkpt>
      <trkpt lat="42.37141" lon="2.18508">
        <ele>1381.5</ele>
        <time>2024-09-25T09:43:38Z</time>
      </trkpt>
      <trkpt lat="42.37141" lon="2.18509">
        <ele>1381.6</ele>
        <time>2024-09-25T09:43:39Z</time>
      </trkpt>
      <trkpt lat="42.37141" lon="2.1851">
        <ele>1381.6</ele>
        <time>2024-09-25T09:43:40Z</time>
      </trkpt>
      <trkpt lat="42.37142" lon="2.18511">
        <ele>1381.7</ele>
        <time>2024-09-25T09:43:41Z</time>
      </trkpt>
      <trkpt lat="42.37142" lon="2.18512">
        <ele>1381.8</ele>
        <time>2024-09-25T09:43:42Z</time>
      </trkpt>
      <trkpt lat="42.37142" lon="2.18513">
        <ele>1381.9</ele>
        <time>2024-09-25T09:43:43Z</time>
      </trkpt>
      <trkpt lat="42.37143" lon="2.18514">
        <ele>1381.9</ele>
        <time>2024-09-25T09:43:44Z</time>
      </trkpt>
      <trkpt lat="42.37143" lon="2.18514">
        <ele>1382</ele>
        <time>2024-09-25T09:43:45Z</time>
      </trkpt>
      <trkpt lat="42.37144" lon="2.18515">
        <ele>1382.1</ele>
        <time>2024-09-25T09:43:46Z</time>
      </trkpt>
      <trkpt lat="42.37144" lon="2.18516">
        <ele>1382.1</ele>
        <time>2024-09-25T09:43:47Z</time>
      </trkpt>
      <trkpt lat="42.37145" lon="2.18517">
        <ele>1382.2</ele>
        <time>2024-09-25T09:43:48Z</time>
      </trkpt>
      <trkpt lat="42.37145" lon="2.18518">
        <ele>1382.3</ele>
        <time>2024-09-25T09:43:49Z</time>
      </trkpt>
      <trkpt lat="42.37146" lon="2.18519">
        <ele>1382.4</ele>
        <time>2024-09-25T09:43:50Z</time>
      </trkpt>
      <trkpt lat="42.37147" lon="2.18519">
        <ele>1382.5</ele>
        <time>2024-09-25T09:43:51Z</time>
      </trkpt>
      <trkpt lat="42.37147" lon="2.1852">
        <ele>1382.6</ele>
        <time>2024-09-25T09:43:52Z</time>
      </trkpt>
      <trkpt lat="42.37148" lon="2.1852">
        <ele>1382.7</ele>
        <time>2024-09-25T09:43:53Z</time>
      </trkpt>
      <trkpt lat="42.37149" lon="2.18521">
        <ele>1382.8</ele>
        <time>2024-09-25T09:43:54Z</time>
      </trkpt>
      <trkpt lat="42.37149" lon="2.18522">
        <ele>1382.9</ele>
        <time>2024-09-25T09:43:55Z</time>
      </trkpt>
      <trkpt lat="42.3715" lon="2.18523">
        <ele>1382.9</ele>
        <time>2024-09-25T09:43:56Z</time>
      </trkpt>
      <trkpt lat="42.3715" lon="2.18524">
        <ele>1383</ele>
        <time>2024-09-25T09:43:57Z</time>
      </trkpt>
      <trkpt lat="42.37151" lon="2.18524">
        <ele>1383.1</ele>
        <time>2024-09-25T09:43:58Z</time>
      </trkpt>
      <trkpt lat="42.37151" lon="2.18525">
        <ele>1383.2</ele>
        <time>2024-09-25T09:43:59Z</time>
      </trkpt>
      <trkpt lat="42.37152" lon="2.18525">
        <ele>1383.3</ele>
        <time>2024-09-25T09:44:00Z</time>
      </trkpt>
      <trkpt lat="42.37152" lon="2.18526">
        <ele>1383.3</ele>
        <time>2024-09-25T09:44:01Z</time>
      </trkpt>
      <trkpt lat="42.37153" lon="2.18526">
        <ele>1383.4</ele>
        <time>2024-09-25T09:44:02Z</time>
      </trkpt>
      <trkpt lat="42.37153" lon="2.18526">
        <ele>1383.5</ele>
        <time>2024-09-25T09:44:03Z</time>
      </trkpt>
      <trkpt lat="42.37154" lon="2.18527">
        <ele>1383.5</ele>
        <time>2024-09-25T09:44:04Z</time>
      </trkpt>
      <trkpt lat="42.37154" lon="2.18528">
        <ele>1383.6</ele>
        <time>2024-09-25T09:44:05Z</time>
      </trkpt>
      <trkpt lat="42.37155" lon="2.18528">
        <ele>1383.7</ele>
        <time>2024-09-25T09:44:06Z</time>
      </trkpt>
      <trkpt lat="42.37156" lon="2.18529">
        <ele>1383.8</ele>
        <time>2024-09-25T09:44:07Z</time>
      </trkpt>
      <trkpt lat="42.37156" lon="2.1853">
        <ele>1383.9</ele>
        <time>2024-09-25T09:44:08Z</time>
      </trkpt>
      <trkpt lat="42.37156" lon="2.1853">
        <ele>1384</ele>
        <time>2024-09-25T09:44:09Z</time>
      </trkpt>
      <trkpt lat="42.37157" lon="2.18531">
        <ele>1384.1</ele>
        <time>2024-09-25T09:44:10Z</time>
      </trkpt>
      <trkpt lat="42.37157" lon="2.18532">
        <ele>1384.2</ele>
        <time>2024-09-25T09:44:11Z</time>
      </trkpt>
      <trkpt lat="42.37158" lon="2.18533">
        <ele>1384.2</ele>
        <time>2024-09-25T09:44:12Z</time>
      </trkpt>
      <trkpt lat="42.37159" lon="2.18534">
        <ele>1384.4</ele>
        <time>2024-09-25T09:44:13Z</time>
      </trkpt>
      <trkpt lat="42.37159" lon="2.18534">
        <ele>1384.4</ele>
        <time>2024-09-25T09:44:14Z</time>
      </trkpt>
      <trkpt lat="42.3716" lon="2.18534">
        <ele>1384.5</ele>
        <time>2024-09-25T09:44:15Z</time>
      </trkpt>
      <trkpt lat="42.3716" lon="2.18535">
        <ele>1384.6</ele>
        <time>2024-09-25T09:44:16Z</time>
      </trkpt>
      <trkpt lat="42.3716" lon="2.18535">
        <ele>1384.6</ele>
        <time>2024-09-25T09:44:17Z</time>
      </trkpt>
      <trkpt lat="42.3716" lon="2.18535">
        <ele>1384.6</ele>
        <time>2024-09-25T09:44:18Z</time>
      </trkpt>
      <trkpt lat="42.3716" lon="2.18535">
        <ele>1384.6</ele>
        <time>2024-09-25T09:44:19Z</time>
      </trkpt>
      <trkpt lat="42.3716" lon="2.18535">
        <ele>1384.6</ele>
        <time>2024-09-25T09:44:20Z</time>
      </trkpt>
      <trkpt lat="42.3716" lon="2.18535">
        <ele>1384.6</ele>
        <time>2024-09-25T09:44:21Z</time>
      </trkpt>
      <trkpt lat="42.3716" lon="2.18535">
        <ele>1384.6</ele>
        <time>2024-09-25T09:44:22Z</time>
      </trkpt>
      <trkpt lat="42.3716" lon="2.18535">
        <ele>1384.6</ele>
        <time>2024-09-25T09:44:23Z</time>
      </trkpt>
      <trkpt lat="42.3716" lon="2.18535">
        <ele>1384.7</ele>
        <time>2024-09-25T09:44:24Z</time>
      </trkpt>
      <trkpt lat="42.3716" lon="2.18535">
        <ele>1384.7</ele>
        <time>2024-09-25T09:44:25Z</time>
      </trkpt>
      <trkpt lat="42.3716" lon="2.18535">
        <ele>1384.7</ele>
        <time>2024-09-25T09:44:26Z</time>
      </trkpt>
      <trkpt lat="42.3716" lon="2.18535">
        <ele>1384.7</ele>
        <time>2024-09-25T09:44:27Z</time>
      </trkpt>
      <trkpt lat="42.3716" lon="2.18535">
        <ele>1384.7</ele>
        <time>2024-09-25T09:44:28Z</time>
      </trkpt>
      <trkpt lat="42.3716" lon="2.18535">
        <ele>1384.7</ele>
        <time>2024-09-25T09:44:29Z</time>
      </trkpt>
      <trkpt lat="42.3716" lon="2.18535">
        <ele>1384.7</ele>
        <time>2024-09-25T09:44:30Z</time>
      </trkpt>
      <trkpt lat="42.37161" lon="2.18534">
        <ele>1384.7</ele>
        <time>2024-09-25T09:44:31Z</time>
      </trkpt>
      <trkpt lat="42.37161" lon="2.18534">
        <ele>1384.7</ele>
        <time>2024-09-25T09:44:32Z</time>
      </trkpt>
      <trkpt lat="42.37161" lon="2.18535">
        <ele>1384.8</ele>
        <time>2024-09-25T09:44:33Z</time>
      </trkpt>
      <trkpt lat="42.37161" lon="2.18535">
        <ele>1384.8</ele>
        <time>2024-09-25T09:44:34Z</time>
      </trkpt>
      <trkpt lat="42.37161" lon="2.18535">
        <ele>1384.8</ele>
        <time>2024-09-25T09:44:35Z</time>
      </trkpt>
      <trkpt lat="42.37161" lon="2.18535">
        <ele>1384.8</ele>
        <time>2024-09-25T09:44:36Z</time>
      </trkpt>
      <trkpt lat="42.37161" lon="2.18536">
        <ele>1384.8</ele>
        <time>2024-09-25T09:44:37Z</time>
      </trkpt>
      <trkpt lat="42.37161" lon="2.18536">
        <ele>1384.9</ele>
        <time>2024-09-25T09:44:38Z</time>
      </trkpt>
      <trkpt lat="42.37161" lon="2.18536">
        <ele>1384.9</ele>
        <time>2024-09-25T09:44:39Z</time>
      </trkpt>
      <trkpt lat="42.37161" lon="2.18536">
        <ele>1384.9</ele>
        <time>2024-09-25T09:44:40Z</time>
      </trkpt>
      <trkpt lat="42.37161" lon="2.18536">
        <ele>1384.9</ele>
        <time>2024-09-25T09:44:41Z</time>
      </trkpt>
      <trkpt lat="42.37161" lon="2.18537">
        <ele>1385</ele>
        <time>2024-09-25T09:44:42Z</time>
      </trkpt>
      <trkpt lat="42.37161" lon="2.18538">
        <ele>1385</ele>
        <time>2024-09-25T09:44:43Z</time>
      </trkpt>
      <trkpt lat="42.37161" lon="2.18538">
        <ele>1385.1</ele>
        <time>2024-09-25T09:44:44Z</time>
      </trkpt>
      <trkpt lat="42.37161" lon="2.18538">
        <ele>1385.1</ele>
        <time>2024-09-25T09:44:45Z</time>
      </trkpt>
      <trkpt lat="42.37161" lon="2.18539">
        <ele>1385.1</ele>
        <time>2024-09-25T09:44:46Z</time>
      </trkpt>
      <trkpt lat="42.37161" lon="2.1854">
        <ele>1385.2</ele>
        <time>2024-09-25T09:44:47Z</time>
      </trkpt>
      <trkpt lat="42.37161" lon="2.1854">
        <ele>1385.2</ele>
        <time>2024-09-25T09:44:48Z</time>
      </trkpt>
      <trkpt lat="42.37161" lon="2.18541">
        <ele>1385.2</ele>
        <time>2024-09-25T09:44:49Z</time>
      </trkpt>
      <trkpt lat="42.3716" lon="2.18541">
        <ele>1385.3</ele>
        <time>2024-09-25T09:44:50Z</time>
      </trkpt>
      <trkpt lat="42.3716" lon="2.18541">
        <ele>1385.3</ele>
        <time>2024-09-25T09:44:51Z</time>
      </trkpt>
      <trkpt lat="42.3716" lon="2.18541">
        <ele>1385.3</ele>
        <time>2024-09-25T09:44:52Z</time>
      </trkpt>
      <trkpt lat="42.3716" lon="2.18541">
        <ele>1385.3</ele>
        <time>2024-09-25T09:44:53Z</time>
      </trkpt>
      <trkpt lat="42.3716" lon="2.18541">
        <ele>1385.3</ele>
        <time>2024-09-25T09:44:54Z</time>
      </trkpt>
      <trkpt lat="42.3716" lon="2.18541">
        <ele>1385.3</ele>
        <time>2024-09-25T09:44:55Z</time>
      </trkpt>
      <trkpt lat="42.3716" lon="2.18541">
        <ele>1385.3</ele>
        <time>2024-09-25T09:44:56Z</time>
      </trkpt>
      <trkpt lat="42.3716" lon="2.18541">
        <ele>1385.3</ele>
        <time>2024-09-25T09:44:57Z</time>
      </trkpt>
      <trkpt lat="42.3716" lon="2.18542">
        <ele>1385.4</ele>
        <time>2024-09-25T09:44:58Z</time>
      </trkpt>
      <trkpt lat="42.3716" lon="2.18542">
        <ele>1385.4</ele>
        <time>2024-09-25T09:44:59Z</time>
      </trkpt>
      <trkpt lat="42.3716" lon="2.18543">
        <ele>1385.4</ele>
        <time>2024-09-25T09:45:00Z</time>
      </trkpt>
      <trkpt lat="42.3716" lon="2.18544">
        <ele>1385.5</ele>
        <time>2024-09-25T09:45:01Z</time>
      </trkpt>
      <trkpt lat="42.3716" lon="2.18546">
        <ele>1385.6</ele>
        <time>2024-09-25T09:45:02Z</time>
      </trkpt>
      <trkpt lat="42.3716" lon="2.18547">
        <ele>1385.7</ele>
        <time>2024-09-25T09:45:03Z</time>
      </trkpt>
      <trkpt lat="42.3716" lon="2.18549">
        <ele>1385.8</ele>
        <time>2024-09-25T09:45:04Z</time>
      </trkpt>
      <trkpt lat="42.3716" lon="2.1855">
        <ele>1385.9</ele>
        <time>2024-09-25T09:45:05Z</time>
      </trkpt>
      <trkpt lat="42.3716" lon="2.18552">
        <ele>1386</ele>
        <time>2024-09-25T09:45:06Z</time>
      </trkpt>
      <trkpt lat="42.3716" lon="2.18553">
        <ele>1386.1</ele>
        <time>2024-09-25T09:45:07Z</time>
      </trkpt>
      <trkpt lat="42.3716" lon="2.18554">
        <ele>1386.2</ele>
        <time>2024-09-25T09:45:08Z</time>
      </trkpt>
      <trkpt lat="42.3716" lon="2.18555">
        <ele>1386.2</ele>
        <time>2024-09-25T09:45:09Z</time>
      </trkpt>
      <trkpt lat="42.37161" lon="2.18555">
        <ele>1386.2</ele>
        <time>2024-09-25T09:45:10Z</time>
      </trkpt>
      <trkpt lat="42.37161" lon="2.18555">
        <ele>1386.3</ele>
        <time>2024-09-25T09:45:11Z</time>
      </trkpt>
      <trkpt lat="42.37162" lon="2.18555">
        <ele>1386.3</ele>
        <time>2024-09-25T09:45:12Z</time>
      </trkpt>
      <trkpt lat="42.37162" lon="2.18556">
        <ele>1386.4</ele>
        <time>2024-09-25T09:45:13Z</time>
      </trkpt>
      <trkpt lat="42.37163" lon="2.18556">
        <ele>1386.5</ele>
        <time>2024-09-25T09:45:14Z</time>
      </trkpt>
      <trkpt lat="42.37163" lon="2.18557">
        <ele>1386.5</ele>
        <time>2024-09-25T09:45:15Z</time>
      </trkpt>
      <trkpt lat="42.37164" lon="2.18559">
        <ele>1386.6</ele>
        <time>2024-09-25T09:45:16Z</time>
      </trkpt>
      <trkpt lat="42.37164" lon="2.1856">
        <ele>1386.7</ele>
        <time>2024-09-25T09:45:17Z</time>
      </trkpt>
      <trkpt lat="42.37165" lon="2.1856">
        <ele>1386.7</ele>
        <time>2024-09-25T09:45:18Z</time>
      </trkpt>
      <trkpt lat="42.37165" lon="2.18561">
        <ele>1386.8</ele>
        <time>2024-09-25T09:45:19Z</time>
      </trkpt>
      <trkpt lat="42.37166" lon="2.18562">
        <ele>1386.9</ele>
        <time>2024-09-25T09:45:20Z</time>
      </trkpt>
      <trkpt lat="42.37166" lon="2.18564">
        <ele>1387</ele>
        <time>2024-09-25T09:45:21Z</time>
      </trkpt>
      <trkpt lat="42.37167" lon="2.18565">
        <ele>1387.1</ele>
        <time>2024-09-25T09:45:22Z</time>
      </trkpt>
      <trkpt lat="42.37167" lon="2.18566">
        <ele>1387.2</ele>
        <time>2024-09-25T09:45:23Z</time>
      </trkpt>
      <trkpt lat="42.37167" lon="2.18568">
        <ele>1387.3</ele>
        <time>2024-09-25T09:45:24Z</time>
      </trkpt>
      <trkpt lat="42.37167" lon="2.18569">
        <ele>1387.3</ele>
        <time>2024-09-25T09:45:25Z</time>
      </trkpt>
      <trkpt lat="42.37167" lon="2.1857">
        <ele>1387.4</ele>
        <time>2024-09-25T09:45:26Z</time>
      </trkpt>
      <trkpt lat="42.37167" lon="2.18571">
        <ele>1387.5</ele>
        <time>2024-09-25T09:45:27Z</time>
      </trkpt>
      <trkpt lat="42.37168" lon="2.18573">
        <ele>1387.6</ele>
        <time>2024-09-25T09:45:28Z</time>
      </trkpt>
      <trkpt lat="42.37168" lon="2.18574">
        <ele>1387.7</ele>
        <time>2024-09-25T09:45:29Z</time>
      </trkpt>
      <trkpt lat="42.37168" lon="2.18574">
        <ele>1387.7</ele>
        <time>2024-09-25T09:45:30Z</time>
      </trkpt>
      <trkpt lat="42.37168" lon="2.18574">
        <ele>1387.8</ele>
        <time>2024-09-25T09:45:31Z</time>
      </trkpt>
      <trkpt lat="42.37168" lon="2.18575">
        <ele>1387.8</ele>
        <time>2024-09-25T09:45:32Z</time>
      </trkpt>
      <trkpt lat="42.37168" lon="2.18576">
        <ele>1387.9</ele>
        <time>2024-09-25T09:45:33Z</time>
      </trkpt>
      <trkpt lat="42.37168" lon="2.18578">
        <ele>1388</ele>
        <time>2024-09-25T09:45:34Z</time>
      </trkpt>
      <trkpt lat="42.37169" lon="2.18579">
        <ele>1388.1</ele>
        <time>2024-09-25T09:45:35Z</time>
      </trkpt>
      <trkpt lat="42.37169" lon="2.1858">
        <ele>1388.2</ele>
        <time>2024-09-25T09:45:36Z</time>
      </trkpt>
      <trkpt lat="42.3717" lon="2.18581">
        <ele>1388.3</ele>
        <time>2024-09-25T09:45:37Z</time>
      </trkpt>
      <trkpt lat="42.3717" lon="2.18581">
        <ele>1388.3</ele>
        <time>2024-09-25T09:45:38Z</time>
      </trkpt>
      <trkpt lat="42.37171" lon="2.18582">
        <ele>1388.4</ele>
        <time>2024-09-25T09:45:39Z</time>
      </trkpt>
      <trkpt lat="42.37171" lon="2.18582">
        <ele>1388.5</ele>
        <time>2024-09-25T09:45:40Z</time>
      </trkpt>
      <trkpt lat="42.37172" lon="2.18583">
        <ele>1388.5</ele>
        <time>2024-09-25T09:45:41Z</time>
      </trkpt>
      <trkpt lat="42.37172" lon="2.18584">
        <ele>1388.6</ele>
        <time>2024-09-25T09:45:42Z</time>
      </trkpt>
      <trkpt lat="42.37172" lon="2.18585">
        <ele>1388.7</ele>
        <time>2024-09-25T09:45:43Z</time>
      </trkpt>
      <trkpt lat="42.37173" lon="2.18587">
        <ele>1388.8</ele>
        <time>2024-09-25T09:45:44Z</time>
      </trkpt>
      <trkpt lat="42.37173" lon="2.18588">
        <ele>1388.9</ele>
        <time>2024-09-25T09:45:45Z</time>
      </trkpt>
      <trkpt lat="42.37174" lon="2.18589">
        <ele>1389.1</ele>
        <time>2024-09-25T09:45:46Z</time>
      </trkpt>
      <trkpt lat="42.37174" lon="2.1859">
        <ele>1389.2</ele>
        <time>2024-09-25T09:45:47Z</time>
      </trkpt>
      <trkpt lat="42.37175" lon="2.18591">
        <ele>1389.2</ele>
        <time>2024-09-25T09:45:48Z</time>
      </trkpt>
      <trkpt lat="42.37175" lon="2.18592">
        <ele>1389.3</ele>
        <time>2024-09-25T09:45:49Z</time>
      </trkpt>
      <trkpt lat="42.37175" lon="2.18592">
        <ele>1389.4</ele>
        <time>2024-09-25T09:45:50Z</time>
      </trkpt>
      <trkpt lat="42.37175" lon="2.18593">
        <ele>1389.4</ele>
        <time>2024-09-25T09:45:51Z</time>
      </trkpt>
      <trkpt lat="42.37176" lon="2.18594">
        <ele>1389.5</ele>
        <time>2024-09-25T09:45:52Z</time>
      </trkpt>
      <trkpt lat="42.37176" lon="2.18594">
        <ele>1389.6</ele>
        <time>2024-09-25T09:45:53Z</time>
      </trkpt>
      <trkpt lat="42.37176" lon="2.18594">
        <ele>1389.6</ele>
        <time>2024-09-25T09:45:54Z</time>
      </trkpt>
      <trkpt lat="42.37176" lon="2.18594">
        <ele>1389.6</ele>
        <time>2024-09-25T09:45:55Z</time>
      </trkpt>
      <trkpt lat="42.37176" lon="2.18594">
        <ele>1389.6</ele>
        <time>2024-09-25T09:45:56Z</time>
      </trkpt>
      <trkpt lat="42.37176" lon="2.18594">
        <ele>1389.7</ele>
        <time>2024-09-25T09:45:57Z</time>
      </trkpt>
      <trkpt lat="42.37176" lon="2.18594">
        <ele>1389.7</ele>
        <time>2024-09-25T09:45:58Z</time>
      </trkpt>
      <trkpt lat="42.37177" lon="2.18594">
        <ele>1389.7</ele>
        <time>2024-09-25T09:45:59Z</time>
      </trkpt>
      <trkpt lat="42.37177" lon="2.18595">
        <ele>1389.7</ele>
        <time>2024-09-25T09:46:00Z</time>
      </trkpt>
      <trkpt lat="42.37177" lon="2.18595">
        <ele>1389.8</ele>
        <time>2024-09-25T09:46:01Z</time>
      </trkpt>
      <trkpt lat="42.37177" lon="2.18595">
        <ele>1389.8</ele>
        <time>2024-09-25T09:46:02Z</time>
      </trkpt>
      <trkpt lat="42.37178" lon="2.18595">
        <ele>1389.8</ele>
        <time>2024-09-25T09:46:03Z</time>
      </trkpt>
      <trkpt lat="42.37178" lon="2.18595">
        <ele>1389.8</ele>
        <time>2024-09-25T09:46:04Z</time>
      </trkpt>
      <trkpt lat="42.37178" lon="2.18595">
        <ele>1389.9</ele>
        <time>2024-09-25T09:46:05Z</time>
      </trkpt>
      <trkpt lat="42.37178" lon="2.18595">
        <ele>1389.9</ele>
        <time>2024-09-25T09:46:06Z</time>
      </trkpt>
      <trkpt lat="42.37178" lon="2.18595">
        <ele>1389.9</ele>
        <time>2024-09-25T09:46:07Z</time>
      </trkpt>
      <trkpt lat="42.37178" lon="2.18596">
        <ele>1389.9</ele>
        <time>2024-09-25T09:46:08Z</time>
      </trkpt>
      <trkpt lat="42.37178" lon="2.18596">
        <ele>1389.9</ele>
        <time>2024-09-25T09:46:09Z</time>
      </trkpt>
      <trkpt lat="42.37178" lon="2.18596">
        <ele>1389.9</ele>
        <time>2024-09-25T09:46:10Z</time>
      </trkpt>
      <trkpt lat="42.37178" lon="2.18596">
        <ele>1390</ele>
        <time>2024-09-25T09:46:11Z</time>
      </trkpt>
      <trkpt lat="42.37178" lon="2.18596">
        <ele>1390</ele>
        <time>2024-09-25T09:46:12Z</time>
      </trkpt>
      <trkpt lat="42.37178" lon="2.18596">
        <ele>1390</ele>
        <time>2024-09-25T09:46:13Z</time>
      </trkpt>
      <trkpt lat="42.37178" lon="2.18596">
        <ele>1390</ele>
        <time>2024-09-25T09:46:14Z</time>
      </trkpt>
      <trkpt lat="42.37178" lon="2.18596">
        <ele>1390</ele>
        <time>2024-09-25T09:46:15Z</time>
      </trkpt>
      <trkpt lat="42.37178" lon="2.18596">
        <ele>1390</ele>
        <time>2024-09-25T09:46:16Z</time>
      </trkpt>
      <trkpt lat="42.37178" lon="2.18596">
        <ele>1390</ele>
        <time>2024-09-25T09:46:17Z</time>
      </trkpt>
      <trkpt lat="42.37178" lon="2.18596">
        <ele>1390</ele>
        <time>2024-09-25T09:46:18Z</time>
      </trkpt>
      <trkpt lat="42.37178" lon="2.18596">
        <ele>1390</ele>
        <time>2024-09-25T09:46:19Z</time>
      </trkpt>
      <trkpt lat="42.37178" lon="2.18597">
        <ele>1390.1</ele>
        <time>2024-09-25T09:46:20Z</time>
      </trkpt>
      <trkpt lat="42.37178" lon="2.18597">
        <ele>1390.1</ele>
        <time>2024-09-25T09:46:21Z</time>
      </trkpt>
      <trkpt lat="42.37178" lon="2.18597">
        <ele>1390.1</ele>
        <time>2024-09-25T09:46:22Z</time>
      </trkpt>
      <trkpt lat="42.37178" lon="2.18597">
        <ele>1390.1</ele>
        <time>2024-09-25T09:46:23Z</time>
      </trkpt>
      <trkpt lat="42.37178" lon="2.18597">
        <ele>1390.1</ele>
        <time>2024-09-25T09:46:24Z</time>
      </trkpt>
      <trkpt lat="42.37178" lon="2.18597">
        <ele>1390.1</ele>
        <time>2024-09-25T09:46:25Z</time>
      </trkpt>
      <trkpt lat="42.37178" lon="2.18597">
        <ele>1390.1</ele>
        <time>2024-09-25T09:46:26Z</time>
      </trkpt>
      <trkpt lat="42.37178" lon="2.18597">
        <ele>1390.1</ele>
        <time>2024-09-25T09:46:27Z</time>
      </trkpt>
      <trkpt lat="42.37178" lon="2.18597">
        <ele>1390.1</ele>
        <time>2024-09-25T09:46:28Z</time>
      </trkpt>
      <trkpt lat="42.37178" lon="2.18597">
        <ele>1390.1</ele>
        <time>2024-09-25T09:46:29Z</time>
      </trkpt>
      <trkpt lat="42.37178" lon="2.18597">
        <ele>1390.1</ele>
        <time>2024-09-25T09:46:30Z</time>
      </trkpt>
      <trkpt lat="42.37178" lon="2.18597">
        <ele>1390.1</ele>
        <time>2024-09-25T09:46:31Z</time>
      </trkpt>
      <trkpt lat="42.37178" lon="2.18597">
        <ele>1390.1</ele>
        <time>2024-09-25T09:46:32Z</time>
      </trkpt>
      <trkpt lat="42.37178" lon="2.18597">
        <ele>1390.2</ele>
        <time>2024-09-25T09:46:33Z</time>
      </trkpt>
      <trkpt lat="42.37178" lon="2.18597">
        <ele>1390.2</ele>
        <time>2024-09-25T09:46:34Z</time>
      </trkpt>
      <trkpt lat="42.37178" lon="2.18596">
        <ele>1390.2</ele>
        <time>2024-09-25T09:46:35Z</time>
      </trkpt>
      <trkpt lat="42.37178" lon="2.18596">
        <ele>1390.2</ele>
        <time>2024-09-25T09:46:36Z</time>
      </trkpt>
      <trkpt lat="42.37178" lon="2.18596">
        <ele>1390.2</ele>
        <time>2024-09-25T09:46:37Z</time>
      </trkpt>
      <trkpt lat="42.37178" lon="2.18597">
        <ele>1390.2</ele>
        <time>2024-09-25T09:46:38Z</time>
      </trkpt>
      <trkpt lat="42.37178" lon="2.18597">
        <ele>1390.2</ele>
        <time>2024-09-25T09:46:39Z</time>
      </trkpt>
      <trkpt lat="42.37178" lon="2.18597">
        <ele>1390.2</ele>
        <time>2024-09-25T09:46:40Z</time>
      </trkpt>
      <trkpt lat="42.37178" lon="2.18597">
        <ele>1390.2</ele>
        <time>2024-09-25T09:46:41Z</time>
      </trkpt>
      <trkpt lat="42.37178" lon="2.18597">
        <ele>1390.2</ele>
        <time>2024-09-25T09:46:42Z</time>
      </trkpt>
      <trkpt lat="42.37178" lon="2.18597">
        <ele>1390.2</ele>
        <time>2024-09-25T09:46:43Z</time>
      </trkpt>
      <trkpt lat="42.37178" lon="2.18597">
        <ele>1390.3</ele>
        <time>2024-09-25T09:46:44Z</time>
      </trkpt>
      <trkpt lat="42.37178" lon="2.18597">
        <ele>1390.3</ele>
        <time>2024-09-25T09:46:45Z</time>
      </trkpt>
      <trkpt lat="42.37178" lon="2.18597">
        <ele>1390.3</ele>
        <time>2024-09-25T09:46:46Z</time>
      </trkpt>
      <trkpt lat="42.37178" lon="2.18596">
        <ele>1390.3</ele>
        <time>2024-09-25T09:46:47Z</time>
      </trkpt>
      <trkpt lat="42.37178" lon="2.18597">
        <ele>1390.4</ele>
        <time>2024-09-25T09:46:48Z</time>
      </trkpt>
      <trkpt lat="42.37178" lon="2.18597">
        <ele>1390.4</ele>
        <time>2024-09-25T09:46:49Z</time>
      </trkpt>
      <trkpt lat="42.37178" lon="2.18597">
        <ele>1390.4</ele>
        <time>2024-09-25T09:46:50Z</time>
      </trkpt>
      <trkpt lat="42.37178" lon="2.18597">
        <ele>1390.4</ele>
        <time>2024-09-25T09:46:51Z</time>
      </trkpt>
      <trkpt lat="42.37178" lon="2.18598">
        <ele>1390.5</ele>
        <time>2024-09-25T09:46:52Z</time>
      </trkpt>
      <trkpt lat="42.37178" lon="2.18598">
        <ele>1390.5</ele>
        <time>2024-09-25T09:46:53Z</time>
      </trkpt>
      <trkpt lat="42.37178" lon="2.18598">
        <ele>1390.5</ele>
        <time>2024-09-25T09:46:54Z</time>
      </trkpt>
      <trkpt lat="42.37179" lon="2.18599">
        <ele>1390.6</ele>
        <time>2024-09-25T09:46:55Z</time>
      </trkpt>
      <trkpt lat="42.37179" lon="2.18599">
        <ele>1390.6</ele>
        <time>2024-09-25T09:46:56Z</time>
      </trkpt>
      <trkpt lat="42.37179" lon="2.18599">
        <ele>1390.6</ele>
        <time>2024-09-25T09:46:57Z</time>
      </trkpt>
      <trkpt lat="42.37179" lon="2.18599">
        <ele>1390.6</ele>
        <time>2024-09-25T09:46:58Z</time>
      </trkpt>
      <trkpt lat="42.37179" lon="2.18599">
        <ele>1390.7</ele>
        <time>2024-09-25T09:46:59Z</time>
      </trkpt>
      <trkpt lat="42.37179" lon="2.18599">
        <ele>1390.7</ele>
        <time>2024-09-25T09:47:00Z</time>
      </trkpt>
      <trkpt lat="42.37179" lon="2.18599">
        <ele>1390.7</ele>
        <time>2024-09-25T09:47:01Z</time>
      </trkpt>
      <trkpt lat="42.37179" lon="2.18599">
        <ele>1390.7</ele>
        <time>2024-09-25T09:47:02Z</time>
      </trkpt>
      <trkpt lat="42.37179" lon="2.18599">
        <ele>1390.7</ele>
        <time>2024-09-25T09:47:03Z</time>
      </trkpt>
      <trkpt lat="42.3718" lon="2.18599">
        <ele>1390.7</ele>
        <time>2024-09-25T09:47:04Z</time>
      </trkpt>
      <trkpt lat="42.3718" lon="2.18599">
        <ele>1390.7</ele>
        <time>2024-09-25T09:47:05Z</time>
      </trkpt>
      <trkpt lat="42.3718" lon="2.18599">
        <ele>1390.7</ele>
        <time>2024-09-25T09:47:06Z</time>
      </trkpt>
      <trkpt lat="42.3718" lon="2.18599">
        <ele>1390.7</ele>
        <time>2024-09-25T09:47:07Z</time>
      </trkpt>
      <trkpt lat="42.3718" lon="2.18599">
        <ele>1390.7</ele>
        <time>2024-09-25T09:47:08Z</time>
      </trkpt>
      <trkpt lat="42.3718" lon="2.18599">
        <ele>1390.7</ele>
        <time>2024-09-25T09:47:09Z</time>
      </trkpt>
      <trkpt lat="42.3718" lon="2.18599">
        <ele>1390.7</ele>
        <time>2024-09-25T09:47:10Z</time>
      </trkpt>
      <trkpt lat="42.3718" lon="2.18599">
        <ele>1390.7</ele>
        <time>2024-09-25T09:47:11Z</time>
      </trkpt>
      <trkpt lat="42.3718" lon="2.18599">
        <ele>1390.7</ele>
        <time>2024-09-25T09:47:12Z</time>
      </trkpt>
      <trkpt lat="42.3718" lon="2.18599">
        <ele>1390.7</ele>
        <time>2024-09-25T09:47:13Z</time>
      </trkpt>
      <trkpt lat="42.3718" lon="2.18599">
        <ele>1390.7</ele>
        <time>2024-09-25T09:47:14Z</time>
      </trkpt>
      <trkpt lat="42.3718" lon="2.18599">
        <ele>1390.7</ele>
        <time>2024-09-25T09:47:15Z</time>
      </trkpt>
      <trkpt lat="42.3718" lon="2.18599">
        <ele>1390.7</ele>
        <time>2024-09-25T09:47:16Z</time>
      </trkpt>
      <trkpt lat="42.3718" lon="2.18599">
        <ele>1390.8</ele>
        <time>2024-09-25T09:47:17Z</time>
      </trkpt>
      <trkpt lat="42.3718" lon="2.18599">
        <ele>1390.8</ele>
        <time>2024-09-25T09:47:18Z</time>
      </trkpt>
      <trkpt lat="42.3718" lon="2.18599">
        <ele>1390.8</ele>
        <time>2024-09-25T09:47:19Z</time>
      </trkpt>
      <trkpt lat="42.37179" lon="2.18599">
        <ele>1390.8</ele>
        <time>2024-09-25T09:47:20Z</time>
      </trkpt>
      <trkpt lat="42.37179" lon="2.18599">
        <ele>1390.8</ele>
        <time>2024-09-25T09:47:21Z</time>
      </trkpt>
      <trkpt lat="42.37179" lon="2.18599">
        <ele>1390.8</ele>
        <time>2024-09-25T09:47:22Z</time>
      </trkpt>
      <trkpt lat="42.37179" lon="2.18599">
        <ele>1390.8</ele>
        <time>2024-09-25T09:47:23Z</time>
      </trkpt>
      <trkpt lat="42.37179" lon="2.18599">
        <ele>1390.8</ele>
        <time>2024-09-25T09:47:24Z</time>
      </trkpt>
      <trkpt lat="42.37179" lon="2.18599">
        <ele>1390.8</ele>
        <time>2024-09-25T09:47:25Z</time>
      </trkpt>
      <trkpt lat="42.37179" lon="2.18599">
        <ele>1390.8</ele>
        <time>2024-09-25T09:47:26Z</time>
      </trkpt>
      <trkpt lat="42.37179" lon="2.18599">
        <ele>1390.8</ele>
        <time>2024-09-25T09:47:27Z</time>
      </trkpt>
      <trkpt lat="42.37179" lon="2.18599">
        <ele>1390.8</ele>
        <time>2024-09-25T09:47:28Z</time>
      </trkpt>
      <trkpt lat="42.37179" lon="2.18599">
        <ele>1390.8</ele>
        <time>2024-09-25T09:47:29Z</time>
      </trkpt>
      <trkpt lat="42.37179" lon="2.18599">
        <ele>1390.8</ele>
        <time>2024-09-25T09:47:30Z</time>
      </trkpt>
      <trkpt lat="42.37179" lon="2.18599">
        <ele>1390.8</ele>
        <time>2024-09-25T09:47:31Z</time>
      </trkpt>
      <trkpt lat="42.37179" lon="2.18599">
        <ele>1390.8</ele>
        <time>2024-09-25T09:47:32Z</time>
      </trkpt>
      <trkpt lat="42.37179" lon="2.18599">
        <ele>1390.8</ele>
        <time>2024-09-25T09:47:33Z</time>
      </trkpt>
      <trkpt lat="42.37179" lon="2.18599">
        <ele>1390.8</ele>
        <time>2024-09-25T09:47:34Z</time>
      </trkpt>
      <trkpt lat="42.37179" lon="2.18599">
        <ele>1390.8</ele>
        <time>2024-09-25T09:47:35Z</time>
      </trkpt>
      <trkpt lat="42.37179" lon="2.18599">
        <ele>1390.8</ele>
        <time>2024-09-25T09:47:36Z</time>
      </trkpt>
      <trkpt lat="42.37179" lon="2.18599">
        <ele>1390.8</ele>
        <time>2024-09-25T09:47:37Z</time>
      </trkpt>
      <trkpt lat="42.37179" lon="2.18599">
        <ele>1390.9</ele>
        <time>2024-09-25T09:47:38Z</time>
      </trkpt>
      <trkpt lat="42.37179" lon="2.18599">
        <ele>1390.9</ele>
        <time>2024-09-25T09:47:39Z</time>
      </trkpt>
      <trkpt lat="42.37179" lon="2.18599">
        <ele>1390.9</ele>
        <time>2024-09-25T09:47:40Z</time>
      </trkpt>
      <trkpt lat="42.37179" lon="2.18599">
        <ele>1390.9</ele>
        <time>2024-09-25T09:47:41Z</time>
      </trkpt>
      <trkpt lat="42.3718" lon="2.186">
        <ele>1390.9</ele>
        <time>2024-09-25T09:47:42Z</time>
      </trkpt>
      <trkpt lat="42.3718" lon="2.186">
        <ele>1390.9</ele>
        <time>2024-09-25T09:47:43Z</time>
      </trkpt>
      <trkpt lat="42.3718" lon="2.18599">
        <ele>1390.9</ele>
        <time>2024-09-25T09:47:44Z</time>
      </trkpt>
      <trkpt lat="42.3718" lon="2.18599">
        <ele>1390.9</ele>
        <time>2024-09-25T09:47:45Z</time>
      </trkpt>
      <trkpt lat="42.3718" lon="2.18599">
        <ele>1390.9</ele>
        <time>2024-09-25T09:47:46Z</time>
      </trkpt>
      <trkpt lat="42.3718" lon="2.186">
        <ele>1391</ele>
        <time>2024-09-25T09:47:47Z</time>
      </trkpt>
      <trkpt lat="42.37179" lon="2.186">
        <ele>1391</ele>
        <time>2024-09-25T09:47:48Z</time>
      </trkpt>
      <trkpt lat="42.37179" lon="2.186">
        <ele>1391</ele>
        <time>2024-09-25T09:47:49Z</time>
      </trkpt>
      <trkpt lat="42.37179" lon="2.186">
        <ele>1391</ele>
        <time>2024-09-25T09:47:50Z</time>
      </trkpt>
      <trkpt lat="42.37179" lon="2.186">
        <ele>1391</ele>
        <time>2024-09-25T09:47:51Z</time>
      </trkpt>
      <trkpt lat="42.37179" lon="2.186">
        <ele>1391.1</ele>
        <time>2024-09-25T09:47:52Z</time>
      </trkpt>
      <trkpt lat="42.37179" lon="2.186">
        <ele>1391.1</ele>
        <time>2024-09-25T09:47:53Z</time>
      </trkpt>
      <trkpt lat="42.37179" lon="2.186">
        <ele>1391.2</ele>
        <time>2024-09-25T09:47:54Z</time>
      </trkpt>
      <trkpt lat="42.37179" lon="2.186">
        <ele>1391.2</ele>
        <time>2024-09-25T09:47:55Z</time>
      </trkpt>
      <trkpt lat="42.37179" lon="2.18601">
        <ele>1391.2</ele>
        <time>2024-09-25T09:47:56Z</time>
      </trkpt>
      <trkpt lat="42.3718" lon="2.18601">
        <ele>1391.3</ele>
        <time>2024-09-25T09:47:57Z</time>
      </trkpt>
      <trkpt lat="42.3718" lon="2.18602">
        <ele>1391.4</ele>
        <time>2024-09-25T09:47:58Z</time>
      </trkpt>
      <trkpt lat="42.37181" lon="2.18603">
        <ele>1391.5</ele>
        <time>2024-09-25T09:47:59Z</time>
      </trkpt>
      <trkpt lat="42.37182" lon="2.18604">
        <ele>1391.6</ele>
        <time>2024-09-25T09:48:00Z</time>
      </trkpt>
      <trkpt lat="42.37182" lon="2.18605">
        <ele>1391.7</ele>
        <time>2024-09-25T09:48:01Z</time>
      </trkpt>
      <trkpt lat="42.37182" lon="2.18607">
        <ele>1391.9</ele>
        <time>2024-09-25T09:48:02Z</time>
      </trkpt>
      <trkpt lat="42.37183" lon="2.18608">
        <ele>1392</ele>
        <time>2024-09-25T09:48:03Z</time>
      </trkpt>
      <trkpt lat="42.37183" lon="2.18609">
        <ele>1392.1</ele>
        <time>2024-09-25T09:48:04Z</time>
      </trkpt>
      <trkpt lat="42.37184" lon="2.18611">
        <ele>1392.2</ele>
        <time>2024-09-25T09:48:05Z</time>
      </trkpt>
      <trkpt lat="42.37184" lon="2.18612">
        <ele>1392.3</ele>
        <time>2024-09-25T09:48:06Z</time>
      </trkpt>
      <trkpt lat="42.37184" lon="2.18614">
        <ele>1392.4</ele>
        <time>2024-09-25T09:48:07Z</time>
      </trkpt>
      <trkpt lat="42.37185" lon="2.18615">
        <ele>1392.5</ele>
        <time>2024-09-25T09:48:08Z</time>
      </trkpt>
      <trkpt lat="42.37185" lon="2.18616">
        <ele>1392.6</ele>
        <time>2024-09-25T09:48:09Z</time>
      </trkpt>
      <trkpt lat="42.37186" lon="2.18617">
        <ele>1392.7</ele>
        <time>2024-09-25T09:48:10Z</time>
      </trkpt>
      <trkpt lat="42.37186" lon="2.18618">
        <ele>1392.8</ele>
        <time>2024-09-25T09:48:11Z</time>
      </trkpt>
      <trkpt lat="42.37186" lon="2.18619">
        <ele>1392.8</ele>
        <time>2024-09-25T09:48:12Z</time>
      </trkpt>
      <trkpt lat="42.37187" lon="2.1862">
        <ele>1392.9</ele>
        <time>2024-09-25T09:48:13Z</time>
      </trkpt>
      <trkpt lat="42.37187" lon="2.18621">
        <ele>1393</ele>
        <time>2024-09-25T09:48:14Z</time>
      </trkpt>
      <trkpt lat="42.37187" lon="2.18622">
        <ele>1393.1</ele>
        <time>2024-09-25T09:48:15Z</time>
      </trkpt>
      <trkpt lat="42.37188" lon="2.18623">
        <ele>1393.2</ele>
        <time>2024-09-25T09:48:16Z</time>
      </trkpt>
      <trkpt lat="42.37188" lon="2.18624">
        <ele>1393.3</ele>
        <time>2024-09-25T09:48:17Z</time>
      </trkpt>
      <trkpt lat="42.37189" lon="2.18624">
        <ele>1393.3</ele>
        <time>2024-09-25T09:48:18Z</time>
      </trkpt>
      <trkpt lat="42.37189" lon="2.18625">
        <ele>1393.4</ele>
        <time>2024-09-25T09:48:19Z</time>
      </trkpt>
      <trkpt lat="42.3719" lon="2.18626">
        <ele>1393.5</ele>
        <time>2024-09-25T09:48:20Z</time>
      </trkpt>
      <trkpt lat="42.3719" lon="2.18627">
        <ele>1393.5</ele>
        <time>2024-09-25T09:48:21Z</time>
      </trkpt>
      <trkpt lat="42.3719" lon="2.18628">
        <ele>1393.6</ele>
        <time>2024-09-25T09:48:22Z</time>
      </trkpt>
      <trkpt lat="42.3719" lon="2.18629">
        <ele>1393.7</ele>
        <time>2024-09-25T09:48:23Z</time>
      </trkpt>
      <trkpt lat="42.37191" lon="2.1863">
        <ele>1393.8</ele>
        <time>2024-09-25T09:48:24Z</time>
      </trkpt>
      <trkpt lat="42.37191" lon="2.18631">
        <ele>1393.9</ele>
        <time>2024-09-25T09:48:25Z</time>
      </trkpt>
      <trkpt lat="42.37191" lon="2.18632">
        <ele>1394</ele>
        <time>2024-09-25T09:48:26Z</time>
      </trkpt>
      <trkpt lat="42.37192" lon="2.18633">
        <ele>1394.1</ele>
        <time>2024-09-25T09:48:27Z</time>
      </trkpt>
      <trkpt lat="42.37192" lon="2.18634">
        <ele>1394.1</ele>
        <time>2024-09-25T09:48:28Z</time>
      </trkpt>
      <trkpt lat="42.37192" lon="2.18635">
        <ele>1394.2</ele>
        <time>2024-09-25T09:48:29Z</time>
      </trkpt>
      <trkpt lat="42.37193" lon="2.18636">
        <ele>1394.3</ele>
        <time>2024-09-25T09:48:30Z</time>
      </trkpt>
      <trkpt lat="42.37193" lon="2.18637">
        <ele>1394.4</ele>
        <time>2024-09-25T09:48:31Z</time>
      </trkpt>
      <trkpt lat="42.37193" lon="2.18638">
        <ele>1394.5</ele>
        <time>2024-09-25T09:48:32Z</time>
      </trkpt>
      <trkpt lat="42.37194" lon="2.18639">
        <ele>1394.6</ele>
        <time>2024-09-25T09:48:33Z</time>
      </trkpt>
      <trkpt lat="42.37194" lon="2.1864">
        <ele>1394.7</ele>
        <time>2024-09-25T09:48:34Z</time>
      </trkpt>
      <trkpt lat="42.37195" lon="2.1864">
        <ele>1394.7</ele>
        <time>2024-09-25T09:48:35Z</time>
      </trkpt>
      <trkpt lat="42.37195" lon="2.1864">
        <ele>1394.8</ele>
        <time>2024-09-25T09:48:36Z</time>
      </trkpt>
      <trkpt lat="42.37196" lon="2.1864">
        <ele>1394.9</ele>
        <time>2024-09-25T09:48:37Z</time>
      </trkpt>
      <trkpt lat="42.37196" lon="2.1864">
        <ele>1394.9</ele>
        <time>2024-09-25T09:48:38Z</time>
      </trkpt>
      <trkpt lat="42.37197" lon="2.18641">
        <ele>1395</ele>
        <time>2024-09-25T09:48:39Z</time>
      </trkpt>
      <trkpt lat="42.37197" lon="2.18641">
        <ele>1395.1</ele>
        <time>2024-09-25T09:48:40Z</time>
      </trkpt>
      <trkpt lat="42.37197" lon="2.18641">
        <ele>1395.1</ele>
        <time>2024-09-25T09:48:41Z</time>
      </trkpt>
      <trkpt lat="42.37197" lon="2.18641">
        <ele>1395.1</ele>
        <time>2024-09-25T09:48:42Z</time>
      </trkpt>
      <trkpt lat="42.37198" lon="2.18642">
        <ele>1395.2</ele>
        <time>2024-09-25T09:48:43Z</time>
      </trkpt>
      <trkpt lat="42.37198" lon="2.18642">
        <ele>1395.2</ele>
        <time>2024-09-25T09:48:44Z</time>
      </trkpt>
      <trkpt lat="42.37198" lon="2.18642">
        <ele>1395.2</ele>
        <time>2024-09-25T09:48:45Z</time>
      </trkpt>
      <trkpt lat="42.37197" lon="2.18642">
        <ele>1395.2</ele>
        <time>2024-09-25T09:48:46Z</time>
      </trkpt>
      <trkpt lat="42.37197" lon="2.18642">
        <ele>1395.3</ele>
        <time>2024-09-25T09:48:47Z</time>
      </trkpt>
      <trkpt lat="42.37197" lon="2.18642">
        <ele>1395.3</ele>
        <time>2024-09-25T09:48:48Z</time>
      </trkpt>
      <trkpt lat="42.37197" lon="2.18642">
        <ele>1395.3</ele>
        <time>2024-09-25T09:48:49Z</time>
      </trkpt>
      <trkpt lat="42.37197" lon="2.18643">
        <ele>1395.3</ele>
        <time>2024-09-25T09:48:50Z</time>
      </trkpt>
      <trkpt lat="42.37197" lon="2.18643">
        <ele>1395.3</ele>
        <time>2024-09-25T09:48:51Z</time>
      </trkpt>
      <trkpt lat="42.37197" lon="2.18643">
        <ele>1395.3</ele>
        <time>2024-09-25T09:48:52Z</time>
      </trkpt>
      <trkpt lat="42.37198" lon="2.18643">
        <ele>1395.3</ele>
        <time>2024-09-25T09:48:53Z</time>
      </trkpt>
      <trkpt lat="42.37198" lon="2.18643">
        <ele>1395.4</ele>
        <time>2024-09-25T09:48:54Z</time>
      </trkpt>
      <trkpt lat="42.37198" lon="2.18643">
        <ele>1395.4</ele>
        <time>2024-09-25T09:48:55Z</time>
      </trkpt>
      <trkpt lat="42.37199" lon="2.18644">
        <ele>1395.6</ele>
        <time>2024-09-25T09:48:56Z</time>
      </trkpt>
      <trkpt lat="42.372" lon="2.18645">
        <ele>1395.7</ele>
        <time>2024-09-25T09:48:57Z</time>
      </trkpt>
      <trkpt lat="42.372" lon="2.18646">
        <ele>1395.8</ele>
        <time>2024-09-25T09:48:58Z</time>
      </trkpt>
      <trkpt lat="42.372" lon="2.18646">
        <ele>1395.9</ele>
        <time>2024-09-25T09:48:59Z</time>
      </trkpt>
      <trkpt lat="42.37201" lon="2.18647">
        <ele>1396</ele>
        <time>2024-09-25T09:49:00Z</time>
      </trkpt>
      <trkpt lat="42.37201" lon="2.18648">
        <ele>1396.1</ele>
        <time>2024-09-25T09:49:01Z</time>
      </trkpt>
      <trkpt lat="42.37201" lon="2.18647">
        <ele>1396.2</ele>
        <time>2024-09-25T09:49:02Z</time>
      </trkpt>
      <trkpt lat="42.37201" lon="2.18648">
        <ele>1396.2</ele>
        <time>2024-09-25T09:49:03Z</time>
      </trkpt>
      <trkpt lat="42.37201" lon="2.18648">
        <ele>1396.2</ele>
        <time>2024-09-25T09:49:04Z</time>
      </trkpt>
      <trkpt lat="42.37201" lon="2.18648">
        <ele>1396.2</ele>
        <time>2024-09-25T09:49:05Z</time>
      </trkpt>
      <trkpt lat="42.37201" lon="2.18648">
        <ele>1396.2</ele>
        <time>2024-09-25T09:49:06Z</time>
      </trkpt>
      <trkpt lat="42.37201" lon="2.18648">
        <ele>1396.2</ele>
        <time>2024-09-25T09:49:07Z</time>
      </trkpt>
      <trkpt lat="42.37201" lon="2.18648">
        <ele>1396.3</ele>
        <time>2024-09-25T09:49:08Z</time>
      </trkpt>
      <trkpt lat="42.37201" lon="2.18647">
        <ele>1396.3</ele>
        <time>2024-09-25T09:49:09Z</time>
      </trkpt>
      <trkpt lat="42.37201" lon="2.18647">
        <ele>1396.3</ele>
        <time>2024-09-25T09:49:10Z</time>
      </trkpt>
      <trkpt lat="42.372" lon="2.18647">
        <ele>1396.3</ele>
        <time>2024-09-25T09:49:11Z</time>
      </trkpt>
      <trkpt lat="42.372" lon="2.18647">
        <ele>1396.4</ele>
        <time>2024-09-25T09:49:12Z</time>
      </trkpt>
      <trkpt lat="42.372" lon="2.18647">
        <ele>1396.4</ele>
        <time>2024-09-25T09:49:13Z</time>
      </trkpt>
      <trkpt lat="42.372" lon="2.18647">
        <ele>1396.4</ele>
        <time>2024-09-25T09:49:14Z</time>
      </trkpt>
      <trkpt lat="42.372" lon="2.18647">
        <ele>1396.4</ele>
        <time>2024-09-25T09:49:15Z</time>
      </trkpt>
      <trkpt lat="42.372" lon="2.18647">
        <ele>1396.4</ele>
        <time>2024-09-25T09:49:16Z</time>
      </trkpt>
      <trkpt lat="42.372" lon="2.18647">
        <ele>1396.5</ele>
        <time>2024-09-25T09:49:17Z</time>
      </trkpt>
      <trkpt lat="42.372" lon="2.18647">
        <ele>1396.5</ele>
        <time>2024-09-25T09:49:18Z</time>
      </trkpt>
      <trkpt lat="42.37199" lon="2.18646">
        <ele>1396.5</ele>
        <time>2024-09-25T09:49:19Z</time>
      </trkpt>
      <trkpt lat="42.37199" lon="2.18646">
        <ele>1396.6</ele>
        <time>2024-09-25T09:49:20Z</time>
      </trkpt>
      <trkpt lat="42.37199" lon="2.18647">
        <ele>1396.6</ele>
        <time>2024-09-25T09:49:21Z</time>
      </trkpt>
      <trkpt lat="42.37199" lon="2.18647">
        <ele>1396.7</ele>
        <time>2024-09-25T09:49:22Z</time>
      </trkpt>
      <trkpt lat="42.37199" lon="2.18647">
        <ele>1396.7</ele>
        <time>2024-09-25T09:49:23Z</time>
      </trkpt>
      <trkpt lat="42.372" lon="2.18647">
        <ele>1396.7</ele>
        <time>2024-09-25T09:49:24Z</time>
      </trkpt>
      <trkpt lat="42.372" lon="2.18647">
        <ele>1396.7</ele>
        <time>2024-09-25T09:49:25Z</time>
      </trkpt>
      <trkpt lat="42.372" lon="2.18648">
        <ele>1396.7</ele>
        <time>2024-09-25T09:49:26Z</time>
      </trkpt>
      <trkpt lat="42.372" lon="2.18648">
        <ele>1396.7</ele>
        <time>2024-09-25T09:49:27Z</time>
      </trkpt>
      <trkpt lat="42.372" lon="2.18648">
        <ele>1396.7</ele>
        <time>2024-09-25T09:49:28Z</time>
      </trkpt>
      <trkpt lat="42.372" lon="2.18648">
        <ele>1396.8</ele>
        <time>2024-09-25T09:49:29Z</time>
      </trkpt>
      <trkpt lat="42.372" lon="2.18648">
        <ele>1396.8</ele>
        <time>2024-09-25T09:49:30Z</time>
      </trkpt>
      <trkpt lat="42.372" lon="2.18647">
        <ele>1396.8</ele>
        <time>2024-09-25T09:49:31Z</time>
      </trkpt>
      <trkpt lat="42.372" lon="2.18647">
        <ele>1396.8</ele>
        <time>2024-09-25T09:49:32Z</time>
      </trkpt>
      <trkpt lat="42.37201" lon="2.18648">
        <ele>1396.9</ele>
        <time>2024-09-25T09:49:33Z</time>
      </trkpt>
      <trkpt lat="42.37202" lon="2.18648">
        <ele>1397</ele>
        <time>2024-09-25T09:49:34Z</time>
      </trkpt>
      <trkpt lat="42.37202" lon="2.18648">
        <ele>1397.1</ele>
        <time>2024-09-25T09:49:35Z</time>
      </trkpt>
      <trkpt lat="42.37203" lon="2.18648">
        <ele>1397.2</ele>
        <time>2024-09-25T09:49:36Z</time>
      </trkpt>
      <trkpt lat="42.37204" lon="2.18648">
        <ele>1397.3</ele>
        <time>2024-09-25T09:49:37Z</time>
      </trkpt>
      <trkpt lat="42.37205" lon="2.18647">
        <ele>1397.5</ele>
        <time>2024-09-25T09:49:38Z</time>
      </trkpt>
      <trkpt lat="42.37205" lon="2.18647">
        <ele>1397.5</ele>
        <time>2024-09-25T09:49:39Z</time>
      </trkpt>
      <trkpt lat="42.37206" lon="2.18646">
        <ele>1397.6</ele>
        <time>2024-09-25T09:49:40Z</time>
      </trkpt>
      <trkpt lat="42.37207" lon="2.18646">
        <ele>1397.7</ele>
        <time>2024-09-25T09:49:41Z</time>
      </trkpt>
      <trkpt lat="42.37207" lon="2.18646">
        <ele>1397.8</ele>
        <time>2024-09-25T09:49:42Z</time>
      </trkpt>
      <trkpt lat="42.37208" lon="2.18646">
        <ele>1397.9</ele>
        <time>2024-09-25T09:49:43Z</time>
      </trkpt>
      <trkpt lat="42.37209" lon="2.18646">
        <ele>1398</ele>
        <time>2024-09-25T09:49:44Z</time>
      </trkpt>
      <trkpt lat="42.3721" lon="2.18646">
        <ele>1398.1</ele>
        <time>2024-09-25T09:49:45Z</time>
      </trkpt>
      <trkpt lat="42.37211" lon="2.18646">
        <ele>1398.2</ele>
        <time>2024-09-25T09:49:46Z</time>
      </trkpt>
      <trkpt lat="42.37212" lon="2.18645">
        <ele>1398.4</ele>
        <time>2024-09-25T09:49:47Z</time>
      </trkpt>
      <trkpt lat="42.37213" lon="2.18645">
        <ele>1398.4</ele>
        <time>2024-09-25T09:49:48Z</time>
      </trkpt>
      <trkpt lat="42.37214" lon="2.18645">
        <ele>1398.5</ele>
        <time>2024-09-25T09:49:49Z</time>
      </trkpt>
      <trkpt lat="42.37216" lon="2.18646">
        <ele>1398.7</ele>
        <time>2024-09-25T09:49:50Z</time>
      </trkpt>
      <trkpt lat="42.37216" lon="2.18646">
        <ele>1398.7</ele>
        <time>2024-09-25T09:49:51Z</time>
      </trkpt>
      <trkpt lat="42.37217" lon="2.18647">
        <ele>1398.8</ele>
        <time>2024-09-25T09:49:52Z</time>
      </trkpt>
      <trkpt lat="42.37218" lon="2.18648">
        <ele>1398.8</ele>
        <time>2024-09-25T09:49:53Z</time>
      </trkpt>
      <trkpt lat="42.37218" lon="2.18649">
        <ele>1398.9</ele>
        <time>2024-09-25T09:49:54Z</time>
      </trkpt>
      <trkpt lat="42.37219" lon="2.1865">
        <ele>1398.9</ele>
        <time>2024-09-25T09:49:55Z</time>
      </trkpt>
      <trkpt lat="42.37219" lon="2.1865">
        <ele>1399</ele>
        <time>2024-09-25T09:49:56Z</time>
      </trkpt>
      <trkpt lat="42.37219" lon="2.1865">
        <ele>1399</ele>
        <time>2024-09-25T09:49:57Z</time>
      </trkpt>
      <trkpt lat="42.37219" lon="2.1865">
        <ele>1399</ele>
        <time>2024-09-25T09:49:58Z</time>
      </trkpt>
      <trkpt lat="42.37219" lon="2.1865">
        <ele>1399</ele>
        <time>2024-09-25T09:49:59Z</time>
      </trkpt>
      <trkpt lat="42.37219" lon="2.1865">
        <ele>1399</ele>
        <time>2024-09-25T09:50:00Z</time>
      </trkpt>
      <trkpt lat="42.37219" lon="2.1865">
        <ele>1399</ele>
        <time>2024-09-25T09:50:01Z</time>
      </trkpt>
      <trkpt lat="42.37219" lon="2.1865">
        <ele>1399</ele>
        <time>2024-09-25T09:50:02Z</time>
      </trkpt>
      <trkpt lat="42.3722" lon="2.18651">
        <ele>1399</ele>
        <time>2024-09-25T09:50:03Z</time>
      </trkpt>
      <trkpt lat="42.3722" lon="2.18651">
        <ele>1399</ele>
        <time>2024-09-25T09:50:04Z</time>
      </trkpt>
      <trkpt lat="42.3722" lon="2.18653">
        <ele>1399.1</ele>
        <time>2024-09-25T09:50:05Z</time>
      </trkpt>
      <trkpt lat="42.37221" lon="2.18654">
        <ele>1399.1</ele>
        <time>2024-09-25T09:50:06Z</time>
      </trkpt>
      <trkpt lat="42.37222" lon="2.18653">
        <ele>1399.1</ele>
        <time>2024-09-25T09:50:07Z</time>
      </trkpt>
      <trkpt lat="42.37223" lon="2.18653">
        <ele>1399.1</ele>
        <time>2024-09-25T09:50:08Z</time>
      </trkpt>
      <trkpt lat="42.37223" lon="2.18653">
        <ele>1399.1</ele>
        <time>2024-09-25T09:50:09Z</time>
      </trkpt>
      <trkpt lat="42.37224" lon="2.18652">
        <ele>1399.1</ele>
        <time>2024-09-25T09:50:10Z</time>
      </trkpt>
      <trkpt lat="42.37224" lon="2.18652">
        <ele>1399.1</ele>
        <time>2024-09-25T09:50:11Z</time>
      </trkpt>
      <trkpt lat="42.37224" lon="2.18652">
        <ele>1399.1</ele>
        <time>2024-09-25T09:50:12Z</time>
      </trkpt>
      <trkpt lat="42.37225" lon="2.18651">
        <ele>1399.2</ele>
        <time>2024-09-25T09:50:13Z</time>
      </trkpt>
      <trkpt lat="42.37226" lon="2.18651">
        <ele>1399.2</ele>
        <time>2024-09-25T09:50:14Z</time>
      </trkpt>
      <trkpt lat="42.37226" lon="2.18649">
        <ele>1399.2</ele>
        <time>2024-09-25T09:50:15Z</time>
      </trkpt>
      <trkpt lat="42.37227" lon="2.1865">
        <ele>1399.2</ele>
        <time>2024-09-25T09:50:16Z</time>
      </trkpt>
      <trkpt lat="42.37228" lon="2.1865">
        <ele>1399.2</ele>
        <time>2024-09-25T09:50:17Z</time>
      </trkpt>
      <trkpt lat="42.37228" lon="2.1865">
        <ele>1399.2</ele>
        <time>2024-09-25T09:50:18Z</time>
      </trkpt>
      <trkpt lat="42.37228" lon="2.18651">
        <ele>1399.2</ele>
        <time>2024-09-25T09:50:19Z</time>
      </trkpt>
      <trkpt lat="42.37228" lon="2.18652">
        <ele>1399.2</ele>
        <time>2024-09-25T09:50:20Z</time>
      </trkpt>
      <trkpt lat="42.37228" lon="2.18653">
        <ele>1399.2</ele>
        <time>2024-09-25T09:50:21Z</time>
      </trkpt>
      <trkpt lat="42.37229" lon="2.18653">
        <ele>1399.2</ele>
        <time>2024-09-25T09:50:22Z</time>
      </trkpt>
      <trkpt lat="42.3723" lon="2.18653">
        <ele>1399.2</ele>
        <time>2024-09-25T09:50:23Z</time>
      </trkpt>
      <trkpt lat="42.37231" lon="2.18652">
        <ele>1399.2</ele>
        <time>2024-09-25T09:50:24Z</time>
      </trkpt>
      <trkpt lat="42.37232" lon="2.18651">
        <ele>1399.2</ele>
        <time>2024-09-25T09:50:25Z</time>
      </trkpt>
      <trkpt lat="42.37234" lon="2.18651">
        <ele>1399.3</ele>
        <time>2024-09-25T09:50:26Z</time>
      </trkpt>
      <trkpt lat="42.37234" lon="2.18651">
        <ele>1399.3</ele>
        <time>2024-09-25T09:50:27Z</time>
      </trkpt>
      <trkpt lat="42.37236" lon="2.18651">
        <ele>1399.3</ele>
        <time>2024-09-25T09:50:28Z</time>
      </trkpt>
      <trkpt lat="42.37238" lon="2.18652">
        <ele>1399.3</ele>
        <time>2024-09-25T09:50:29Z</time>
      </trkpt>
      <trkpt lat="42.37238" lon="2.18653">
        <ele>1399.4</ele>
        <time>2024-09-25T09:50:30Z</time>
      </trkpt>
      <trkpt lat="42.37239" lon="2.18654">
        <ele>1399.4</ele>
        <time>2024-09-25T09:50:31Z</time>
      </trkpt>
      <trkpt lat="42.3724" lon="2.18655">
        <ele>1399.4</ele>
        <time>2024-09-25T09:50:32Z</time>
      </trkpt>
      <trkpt lat="42.3724" lon="2.18656">
        <ele>1399.5</ele>
        <time>2024-09-25T09:50:33Z</time>
      </trkpt>
      <trkpt lat="42.37241" lon="2.18657">
        <ele>1399.5</ele>
        <time>2024-09-25T09:50:34Z</time>
      </trkpt>
      <trkpt lat="42.37243" lon="2.18657">
        <ele>1399.6</ele>
        <time>2024-09-25T09:50:35Z</time>
      </trkpt>
      <trkpt lat="42.37244" lon="2.18657">
        <ele>1399.6</ele>
        <time>2024-09-25T09:50:36Z</time>
      </trkpt>
      <trkpt lat="42.37245" lon="2.18657">
        <ele>1399.7</ele>
        <time>2024-09-25T09:50:37Z</time>
      </trkpt>
      <trkpt lat="42.37246" lon="2.18658">
        <ele>1399.7</ele>
        <time>2024-09-25T09:50:38Z</time>
      </trkpt>
      <trkpt lat="42.37247" lon="2.18658">
        <ele>1399.8</ele>
        <time>2024-09-25T09:50:39Z</time>
      </trkpt>
      <trkpt lat="42.37247" lon="2.18659">
        <ele>1399.8</ele>
        <time>2024-09-25T09:50:40Z</time>
      </trkpt>
      <trkpt lat="42.37248" lon="2.1866">
        <ele>1399.8</ele>
        <time>2024-09-25T09:50:41Z</time>
      </trkpt>
      <trkpt lat="42.37249" lon="2.1866">
        <ele>1399.9</ele>
        <time>2024-09-25T09:50:42Z</time>
      </trkpt>
      <trkpt lat="42.37249" lon="2.18661">
        <ele>1399.9</ele>
        <time>2024-09-25T09:50:43Z</time>
      </trkpt>
      <trkpt lat="42.3725" lon="2.18661">
        <ele>1399.9</ele>
        <time>2024-09-25T09:50:44Z</time>
      </trkpt>
      <trkpt lat="42.3725" lon="2.18662">
        <ele>1400</ele>
        <time>2024-09-25T09:50:45Z</time>
      </trkpt>
      <trkpt lat="42.37251" lon="2.18663">
        <ele>1400</ele>
        <time>2024-09-25T09:50:46Z</time>
      </trkpt>
      <trkpt lat="42.37252" lon="2.18664">
        <ele>1400.1</ele>
        <time>2024-09-25T09:50:47Z</time>
      </trkpt>
      <trkpt lat="42.37252" lon="2.18664">
        <ele>1400.1</ele>
        <time>2024-09-25T09:50:48Z</time>
      </trkpt>
      <trkpt lat="42.37252" lon="2.18665">
        <ele>1400.1</ele>
        <time>2024-09-25T09:50:49Z</time>
      </trkpt>
      <trkpt lat="42.37253" lon="2.18666">
        <ele>1400.2</ele>
        <time>2024-09-25T09:50:50Z</time>
      </trkpt>
      <trkpt lat="42.37253" lon="2.18666">
        <ele>1400.2</ele>
        <time>2024-09-25T09:50:51Z</time>
      </trkpt>
      <trkpt lat="42.37253" lon="2.18667">
        <ele>1400.2</ele>
        <time>2024-09-25T09:50:52Z</time>
      </trkpt>
      <trkpt lat="42.37253" lon="2.18667">
        <ele>1400.2</ele>
        <time>2024-09-25T09:50:53Z</time>
      </trkpt>
      <trkpt lat="42.37254" lon="2.18667">
        <ele>1400.2</ele>
        <time>2024-09-25T09:50:54Z</time>
      </trkpt>
      <trkpt lat="42.37254" lon="2.18668">
        <ele>1400.2</ele>
        <time>2024-09-25T09:50:55Z</time>
      </trkpt>
      <trkpt lat="42.37254" lon="2.18668">
        <ele>1400.3</ele>
        <time>2024-09-25T09:50:56Z</time>
      </trkpt>
      <trkpt lat="42.37255" lon="2.18668">
        <ele>1400.3</ele>
        <time>2024-09-25T09:50:57Z</time>
      </trkpt>
      <trkpt lat="42.37255" lon="2.18669">
        <ele>1400.3</ele>
        <time>2024-09-25T09:50:58Z</time>
      </trkpt>
      <trkpt lat="42.37256" lon="2.1867">
        <ele>1400.4</ele>
        <time>2024-09-25T09:50:59Z</time>
      </trkpt>
      <trkpt lat="42.37256" lon="2.1867">
        <ele>1400.4</ele>
        <time>2024-09-25T09:51:00Z</time>
      </trkpt>
      <trkpt lat="42.37256" lon="2.18671">
        <ele>1400.4</ele>
        <time>2024-09-25T09:51:01Z</time>
      </trkpt>
      <trkpt lat="42.37257" lon="2.18672">
        <ele>1400.5</ele>
        <time>2024-09-25T09:51:02Z</time>
      </trkpt>
      <trkpt lat="42.37257" lon="2.18673">
        <ele>1400.5</ele>
        <time>2024-09-25T09:51:03Z</time>
      </trkpt>
      <trkpt lat="42.37258" lon="2.18674">
        <ele>1400.6</ele>
        <time>2024-09-25T09:51:04Z</time>
      </trkpt>
      <trkpt lat="42.37258" lon="2.18674">
        <ele>1400.6</ele>
        <time>2024-09-25T09:51:05Z</time>
      </trkpt>
      <trkpt lat="42.37258" lon="2.18675">
        <ele>1400.6</ele>
        <time>2024-09-25T09:51:06Z</time>
      </trkpt>
      <trkpt lat="42.37259" lon="2.18675">
        <ele>1400.6</ele>
        <time>2024-09-25T09:51:07Z</time>
      </trkpt>
      <trkpt lat="42.37259" lon="2.18676">
        <ele>1400.7</ele>
        <time>2024-09-25T09:51:08Z</time>
      </trkpt>
      <trkpt lat="42.3726" lon="2.18677">
        <ele>1400.7</ele>
        <time>2024-09-25T09:51:09Z</time>
      </trkpt>
      <trkpt lat="42.3726" lon="2.18678">
        <ele>1400.8</ele>
        <time>2024-09-25T09:51:10Z</time>
      </trkpt>
      <trkpt lat="42.3726" lon="2.1868">
        <ele>1400.8</ele>
        <time>2024-09-25T09:51:11Z</time>
      </trkpt>
      <trkpt lat="42.3726" lon="2.18681">
        <ele>1400.9</ele>
        <time>2024-09-25T09:51:12Z</time>
      </trkpt>
      <trkpt lat="42.37261" lon="2.18682">
        <ele>1400.9</ele>
        <time>2024-09-25T09:51:13Z</time>
      </trkpt>
      <trkpt lat="42.37261" lon="2.18682">
        <ele>1401</ele>
        <time>2024-09-25T09:51:14Z</time>
      </trkpt>
      <trkpt lat="42.37262" lon="2.18682">
        <ele>1401</ele>
        <time>2024-09-25T09:51:15Z</time>
      </trkpt>
      <trkpt lat="42.37262" lon="2.18683">
        <ele>1401</ele>
        <time>2024-09-25T09:51:16Z</time>
      </trkpt>
      <trkpt lat="42.37262" lon="2.18683">
        <ele>1401</ele>
        <time>2024-09-25T09:51:17Z</time>
      </trkpt>
      <trkpt lat="42.37262" lon="2.18683">
        <ele>1401</ele>
        <time>2024-09-25T09:51:18Z</time>
      </trkpt>
      <trkpt lat="42.37262" lon="2.18683">
        <ele>1401</ele>
        <time>2024-09-25T09:51:19Z</time>
      </trkpt>
      <trkpt lat="42.37262" lon="2.18683">
        <ele>1401</ele>
        <time>2024-09-25T09:51:20Z</time>
      </trkpt>
      <trkpt lat="42.37262" lon="2.18683">
        <ele>1401</ele>
        <time>2024-09-25T09:51:21Z</time>
      </trkpt>
      <trkpt lat="42.37262" lon="2.18683">
        <ele>1401</ele>
        <time>2024-09-25T09:51:22Z</time>
      </trkpt>
      <trkpt lat="42.37262" lon="2.18683">
        <ele>1401</ele>
        <time>2024-09-25T09:51:23Z</time>
      </trkpt>
      <trkpt lat="42.37262" lon="2.18683">
        <ele>1401</ele>
        <time>2024-09-25T09:51:24Z</time>
      </trkpt>
      <trkpt lat="42.37262" lon="2.18683">
        <ele>1401</ele>
        <time>2024-09-25T09:51:25Z</time>
      </trkpt>
      <trkpt lat="42.37262" lon="2.18683">
        <ele>1401</ele>
        <time>2024-09-25T09:51:26Z</time>
      </trkpt>
      <trkpt lat="42.37262" lon="2.18683">
        <ele>1401</ele>
        <time>2024-09-25T09:51:27Z</time>
      </trkpt>
      <trkpt lat="42.37263" lon="2.18683">
        <ele>1401.1</ele>
        <time>2024-09-25T09:51:28Z</time>
      </trkpt>
      <trkpt lat="42.37263" lon="2.18683">
        <ele>1401.1</ele>
        <time>2024-09-25T09:51:29Z</time>
      </trkpt>
      <trkpt lat="42.37263" lon="2.18683">
        <ele>1401.1</ele>
        <time>2024-09-25T09:51:30Z</time>
      </trkpt>
      <trkpt lat="42.37263" lon="2.18683">
        <ele>1401.1</ele>
        <time>2024-09-25T09:51:31Z</time>
      </trkpt>
      <trkpt lat="42.37263" lon="2.18683">
        <ele>1401.1</ele>
        <time>2024-09-25T09:51:32Z</time>
      </trkpt>
      <trkpt lat="42.37263" lon="2.18684">
        <ele>1401.1</ele>
        <time>2024-09-25T09:51:33Z</time>
      </trkpt>
      <trkpt lat="42.37263" lon="2.18684">
        <ele>1401.1</ele>
        <time>2024-09-25T09:51:34Z</time>
      </trkpt>
      <trkpt lat="42.37264" lon="2.18685">
        <ele>1401.2</ele>
        <time>2024-09-25T09:51:35Z</time>
      </trkpt>
      <trkpt lat="42.37264" lon="2.18686">
        <ele>1401.2</ele>
        <time>2024-09-25T09:51:36Z</time>
      </trkpt>
      <trkpt lat="42.37264" lon="2.18686">
        <ele>1401.3</ele>
        <time>2024-09-25T09:51:37Z</time>
      </trkpt>
      <trkpt lat="42.37265" lon="2.18687">
        <ele>1401.3</ele>
        <time>2024-09-25T09:51:38Z</time>
      </trkpt>
      <trkpt lat="42.37265" lon="2.18688">
        <ele>1401.4</ele>
        <time>2024-09-25T09:51:39Z</time>
      </trkpt>
      <trkpt lat="42.37265" lon="2.18688">
        <ele>1401.4</ele>
        <time>2024-09-25T09:51:40Z</time>
      </trkpt>
      <trkpt lat="42.37266" lon="2.18689">
        <ele>1401.5</ele>
        <time>2024-09-25T09:51:41Z</time>
      </trkpt>
      <trkpt lat="42.37266" lon="2.18689">
        <ele>1401.5</ele>
        <time>2024-09-25T09:51:42Z</time>
      </trkpt>
      <trkpt lat="42.37267" lon="2.1869">
        <ele>1401.6</ele>
        <time>2024-09-25T09:51:43Z</time>
      </trkpt>
      <trkpt lat="42.37267" lon="2.1869">
        <ele>1401.6</ele>
        <time>2024-09-25T09:51:44Z</time>
      </trkpt>
      <trkpt lat="42.37268" lon="2.1869">
        <ele>1401.7</ele>
        <time>2024-09-25T09:51:45Z</time>
      </trkpt>
      <trkpt lat="42.37268" lon="2.18691">
        <ele>1401.7</ele>
        <time>2024-09-25T09:51:46Z</time>
      </trkpt>
      <trkpt lat="42.37269" lon="2.18691">
        <ele>1401.8</ele>
        <time>2024-09-25T09:51:47Z</time>
      </trkpt>
      <trkpt lat="42.37269" lon="2.18692">
        <ele>1401.9</ele>
        <time>2024-09-25T09:51:48Z</time>
      </trkpt>
      <trkpt lat="42.3727" lon="2.18692">
        <ele>1402</ele>
        <time>2024-09-25T09:51:49Z</time>
      </trkpt>
      <trkpt lat="42.37271" lon="2.18693">
        <ele>1402</ele>
        <time>2024-09-25T09:51:50Z</time>
      </trkpt>
      <trkpt lat="42.37272" lon="2.18693">
        <ele>1402.1</ele>
        <time>2024-09-25T09:51:51Z</time>
      </trkpt>
      <trkpt lat="42.37272" lon="2.18694">
        <ele>1402.2</ele>
        <time>2024-09-25T09:51:52Z</time>
      </trkpt>
      <trkpt lat="42.37273" lon="2.18695">
        <ele>1402.4</ele>
        <time>2024-09-25T09:51:53Z</time>
      </trkpt>
      <trkpt lat="42.37273" lon="2.18697">
        <ele>1402.5</ele>
        <time>2024-09-25T09:51:54Z</time>
      </trkpt>
      <trkpt lat="42.37273" lon="2.18698">
        <ele>1402.5</ele>
        <time>2024-09-25T09:51:55Z</time>
      </trkpt>
      <trkpt lat="42.37273" lon="2.18699">
        <ele>1402.7</ele>
        <time>2024-09-25T09:51:56Z</time>
      </trkpt>
      <trkpt lat="42.37273" lon="2.187">
        <ele>1402.8</ele>
        <time>2024-09-25T09:51:57Z</time>
      </trkpt>
      <trkpt lat="42.37274" lon="2.18701">
        <ele>1402.9</ele>
        <time>2024-09-25T09:51:58Z</time>
      </trkpt>
      <trkpt lat="42.37274" lon="2.18703">
        <ele>1403</ele>
        <time>2024-09-25T09:51:59Z</time>
      </trkpt>
      <trkpt lat="42.37274" lon="2.18704">
        <ele>1403.1</ele>
        <time>2024-09-25T09:52:00Z</time>
      </trkpt>
      <trkpt lat="42.37274" lon="2.18705">
        <ele>1403.2</ele>
        <time>2024-09-25T09:52:01Z</time>
      </trkpt>
      <trkpt lat="42.37274" lon="2.18705">
        <ele>1403.2</ele>
        <time>2024-09-25T09:52:02Z</time>
      </trkpt>
      <trkpt lat="42.37274" lon="2.18707">
        <ele>1403.4</ele>
        <time>2024-09-25T09:52:03Z</time>
      </trkpt>
      <trkpt lat="42.37274" lon="2.18708">
        <ele>1403.5</ele>
        <time>2024-09-25T09:52:04Z</time>
      </trkpt>
      <trkpt lat="42.37274" lon="2.1871">
        <ele>1403.6</ele>
        <time>2024-09-25T09:52:05Z</time>
      </trkpt>
      <trkpt lat="42.37274" lon="2.1871">
        <ele>1403.7</ele>
        <time>2024-09-25T09:52:06Z</time>
      </trkpt>
      <trkpt lat="42.37274" lon="2.18711">
        <ele>1403.8</ele>
        <time>2024-09-25T09:52:07Z</time>
      </trkpt>
      <trkpt lat="42.37274" lon="2.18712">
        <ele>1403.9</ele>
        <time>2024-09-25T09:52:08Z</time>
      </trkpt>
      <trkpt lat="42.37274" lon="2.18713">
        <ele>1403.9</ele>
        <time>2024-09-25T09:52:09Z</time>
      </trkpt>
      <trkpt lat="42.37274" lon="2.18713">
        <ele>1404</ele>
        <time>2024-09-25T09:52:10Z</time>
      </trkpt>
      <trkpt lat="42.37274" lon="2.18714">
        <ele>1404</ele>
        <time>2024-09-25T09:52:11Z</time>
      </trkpt>
      <trkpt lat="42.37274" lon="2.18715">
        <ele>1404.1</ele>
        <time>2024-09-25T09:52:12Z</time>
      </trkpt>
      <trkpt lat="42.37274" lon="2.18716">
        <ele>1404.2</ele>
        <time>2024-09-25T09:52:13Z</time>
      </trkpt>
      <trkpt lat="42.37275" lon="2.18717">
        <ele>1404.3</ele>
        <time>2024-09-25T09:52:14Z</time>
      </trkpt>
      <trkpt lat="42.37275" lon="2.18719">
        <ele>1404.4</ele>
        <time>2024-09-25T09:52:15Z</time>
      </trkpt>
      <trkpt lat="42.37276" lon="2.1872">
        <ele>1404.6</ele>
        <time>2024-09-25T09:52:16Z</time>
      </trkpt>
      <trkpt lat="42.37276" lon="2.18721">
        <ele>1404.6</ele>
        <time>2024-09-25T09:52:17Z</time>
      </trkpt>
      <trkpt lat="42.37277" lon="2.18722">
        <ele>1404.7</ele>
        <time>2024-09-25T09:52:18Z</time>
      </trkpt>
      <trkpt lat="42.37277" lon="2.18722">
        <ele>1404.8</ele>
        <time>2024-09-25T09:52:19Z</time>
      </trkpt>
      <trkpt lat="42.37278" lon="2.18723">
        <ele>1404.9</ele>
        <time>2024-09-25T09:52:20Z</time>
      </trkpt>
      <trkpt lat="42.37278" lon="2.18723">
        <ele>1405</ele>
        <time>2024-09-25T09:52:21Z</time>
      </trkpt>
      <trkpt lat="42.37279" lon="2.18724">
        <ele>1405</ele>
        <time>2024-09-25T09:52:22Z</time>
      </trkpt>
      <trkpt lat="42.37279" lon="2.18724">
        <ele>1405.1</ele>
        <time>2024-09-25T09:52:23Z</time>
      </trkpt>
      <trkpt lat="42.37279" lon="2.18725">
        <ele>1405.1</ele>
        <time>2024-09-25T09:52:24Z</time>
      </trkpt>
      <trkpt lat="42.3728" lon="2.18725">
        <ele>1405.2</ele>
        <time>2024-09-25T09:52:25Z</time>
      </trkpt>
      <trkpt lat="42.3728" lon="2.18725">
        <ele>1405.2</ele>
        <time>2024-09-25T09:52:26Z</time>
      </trkpt>
      <trkpt lat="42.3728" lon="2.18725">
        <ele>1405.2</ele>
        <time>2024-09-25T09:52:27Z</time>
      </trkpt>
      <trkpt lat="42.3728" lon="2.18725">
        <ele>1405.2</ele>
        <time>2024-09-25T09:52:28Z</time>
      </trkpt>
      <trkpt lat="42.3728" lon="2.18725">
        <ele>1405.2</ele>
        <time>2024-09-25T09:52:29Z</time>
      </trkpt>
      <trkpt lat="42.3728" lon="2.18725">
        <ele>1405.2</ele>
        <time>2024-09-25T09:52:30Z</time>
      </trkpt>
      <trkpt lat="42.3728" lon="2.18725">
        <ele>1405.2</ele>
        <time>2024-09-25T09:52:31Z</time>
      </trkpt>
      <trkpt lat="42.3728" lon="2.18725">
        <ele>1405.3</ele>
        <time>2024-09-25T09:52:32Z</time>
      </trkpt>
      <trkpt lat="42.3728" lon="2.18726">
        <ele>1405.3</ele>
        <time>2024-09-25T09:52:33Z</time>
      </trkpt>
      <trkpt lat="42.3728" lon="2.18726">
        <ele>1405.3</ele>
        <time>2024-09-25T09:52:34Z</time>
      </trkpt>
      <trkpt lat="42.3728" lon="2.18726">
        <ele>1405.3</ele>
        <time>2024-09-25T09:52:35Z</time>
      </trkpt>
      <trkpt lat="42.37281" lon="2.18727">
        <ele>1405.4</ele>
        <time>2024-09-25T09:52:36Z</time>
      </trkpt>
      <trkpt lat="42.37281" lon="2.18727">
        <ele>1405.4</ele>
        <time>2024-09-25T09:52:37Z</time>
      </trkpt>
      <trkpt lat="42.37281" lon="2.18727">
        <ele>1405.4</ele>
        <time>2024-09-25T09:52:38Z</time>
      </trkpt>
      <trkpt lat="42.37281" lon="2.18727">
        <ele>1405.4</ele>
        <time>2024-09-25T09:52:39Z</time>
      </trkpt>
      <trkpt lat="42.37281" lon="2.18727">
        <ele>1405.4</ele>
        <time>2024-09-25T09:52:40Z</time>
      </trkpt>
      <trkpt lat="42.37281" lon="2.18727">
        <ele>1405.4</ele>
        <time>2024-09-25T09:52:41Z</time>
      </trkpt>
      <trkpt lat="42.37281" lon="2.18727">
        <ele>1405.4</ele>
        <time>2024-09-25T09:52:42Z</time>
      </trkpt>
      <trkpt lat="42.37281" lon="2.18727">
        <ele>1405.4</ele>
        <time>2024-09-25T09:52:43Z</time>
      </trkpt>
      <trkpt lat="42.37281" lon="2.18727">
        <ele>1405.4</ele>
        <time>2024-09-25T09:52:44Z</time>
      </trkpt>
      <trkpt lat="42.37281" lon="2.18728">
        <ele>1405.5</ele>
        <time>2024-09-25T09:52:45Z</time>
      </trkpt>
      <trkpt lat="42.37281" lon="2.18728">
        <ele>1405.5</ele>
        <time>2024-09-25T09:52:46Z</time>
      </trkpt>
      <trkpt lat="42.37281" lon="2.18729">
        <ele>1405.6</ele>
        <time>2024-09-25T09:52:47Z</time>
      </trkpt>
      <trkpt lat="42.37281" lon="2.1873">
        <ele>1405.7</ele>
        <time>2024-09-25T09:52:48Z</time>
      </trkpt>
      <trkpt lat="42.37281" lon="2.18731">
        <ele>1405.7</ele>
        <time>2024-09-25T09:52:49Z</time>
      </trkpt>
      <trkpt lat="42.37282" lon="2.18732">
        <ele>1405.8</ele>
        <time>2024-09-25T09:52:50Z</time>
      </trkpt>
      <trkpt lat="42.37282" lon="2.18733">
        <ele>1405.9</ele>
        <time>2024-09-25T09:52:51Z</time>
      </trkpt>
      <trkpt lat="42.37283" lon="2.18733">
        <ele>1406</ele>
        <time>2024-09-25T09:52:53Z</time>
      </trkpt>
      <trkpt lat="42.37283" lon="2.18733">
        <ele>1406</ele>
        <time>2024-09-25T09:52:54Z</time>
      </trkpt>
      <trkpt lat="42.37283" lon="2.18733">
        <ele>1406</ele>
        <time>2024-09-25T09:52:55Z</time>
      </trkpt>
      <trkpt lat="42.37284" lon="2.18733">
        <ele>1406</ele>
        <time>2024-09-25T09:52:56Z</time>
      </trkpt>
      <trkpt lat="42.37284" lon="2.18732">
        <ele>1406</ele>
        <time>2024-09-25T09:52:57Z</time>
      </trkpt>
      <trkpt lat="42.37284" lon="2.18732">
        <ele>1406</ele>
        <time>2024-09-25T09:52:58Z</time>
      </trkpt>
      <trkpt lat="42.37284" lon="2.18732">
        <ele>1406.1</ele>
        <time>2024-09-25T09:52:59Z</time>
      </trkpt>
      <trkpt lat="42.37284" lon="2.18732">
        <ele>1406.1</ele>
        <time>2024-09-25T09:53:00Z</time>
      </trkpt>
      <trkpt lat="42.37284" lon="2.18732">
        <ele>1406.1</ele>
        <time>2024-09-25T09:53:01Z</time>
      </trkpt>
      <trkpt lat="42.37284" lon="2.18732">
        <ele>1406.1</ele>
        <time>2024-09-25T09:53:02Z</time>
      </trkpt>
      <trkpt lat="42.37284" lon="2.18732">
        <ele>1406.1</ele>
        <time>2024-09-25T09:53:03Z</time>
      </trkpt>
      <trkpt lat="42.37284" lon="2.18732">
        <ele>1406.1</ele>
        <time>2024-09-25T09:53:04Z</time>
      </trkpt>
      <trkpt lat="42.37284" lon="2.18732">
        <ele>1406.1</ele>
        <time>2024-09-25T09:53:05Z</time>
      </trkpt>
      <trkpt lat="42.37284" lon="2.18732">
        <ele>1406.1</ele>
        <time>2024-09-25T09:53:06Z</time>
      </trkpt>
      <trkpt lat="42.37284" lon="2.18732">
        <ele>1406.1</ele>
        <time>2024-09-25T09:53:07Z</time>
      </trkpt>
      <trkpt lat="42.37284" lon="2.18732">
        <ele>1406.1</ele>
        <time>2024-09-25T09:53:08Z</time>
      </trkpt>
      <trkpt lat="42.37284" lon="2.18732">
        <ele>1406.1</ele>
        <time>2024-09-25T09:53:09Z</time>
      </trkpt>
      <trkpt lat="42.37285" lon="2.18733">
        <ele>1406.2</ele>
        <time>2024-09-25T09:53:10Z</time>
      </trkpt>
      <trkpt lat="42.37285" lon="2.18733">
        <ele>1406.2</ele>
        <time>2024-09-25T09:53:11Z</time>
      </trkpt>
      <trkpt lat="42.37286" lon="2.18733">
        <ele>1406.3</ele>
        <time>2024-09-25T09:53:12Z</time>
      </trkpt>
      <trkpt lat="42.37288" lon="2.18735">
        <ele>1406.6</ele>
        <time>2024-09-25T09:53:13Z</time>
      </trkpt>
      <trkpt lat="42.37288" lon="2.18736">
        <ele>1406.7</ele>
        <time>2024-09-25T09:53:14Z</time>
      </trkpt>
      <trkpt lat="42.37289" lon="2.18737">
        <ele>1406.8</ele>
        <time>2024-09-25T09:53:15Z</time>
      </trkpt>
      <trkpt lat="42.3729" lon="2.18739">
        <ele>1406.9</ele>
        <time>2024-09-25T09:53:16Z</time>
      </trkpt>
      <trkpt lat="42.37289" lon="2.1874">
        <ele>1407</ele>
        <time>2024-09-25T09:53:17Z</time>
      </trkpt>
      <trkpt lat="42.37289" lon="2.18741">
        <ele>1407.1</ele>
        <time>2024-09-25T09:53:18Z</time>
      </trkpt>
      <trkpt lat="42.37289" lon="2.18742">
        <ele>1407.2</ele>
        <time>2024-09-25T09:53:19Z</time>
      </trkpt>
      <trkpt lat="42.3729" lon="2.18742">
        <ele>1407.2</ele>
        <time>2024-09-25T09:53:20Z</time>
      </trkpt>
      <trkpt lat="42.37289" lon="2.18742">
        <ele>1407.2</ele>
        <time>2024-09-25T09:53:21Z</time>
      </trkpt>
      <trkpt lat="42.37289" lon="2.18743">
        <ele>1407.2</ele>
        <time>2024-09-25T09:53:22Z</time>
      </trkpt>
      <trkpt lat="42.37289" lon="2.18743">
        <ele>1407.3</ele>
        <time>2024-09-25T09:53:23Z</time>
      </trkpt>
      <trkpt lat="42.37289" lon="2.18743">
        <ele>1407.3</ele>
        <time>2024-09-25T09:53:24Z</time>
      </trkpt>
      <trkpt lat="42.37289" lon="2.18743">
        <ele>1407.3</ele>
        <time>2024-09-25T09:53:25Z</time>
      </trkpt>
      <trkpt lat="42.37289" lon="2.18743">
        <ele>1407.3</ele>
        <time>2024-09-25T09:53:26Z</time>
      </trkpt>
      <trkpt lat="42.37289" lon="2.18744">
        <ele>1407.3</ele>
        <time>2024-09-25T09:53:27Z</time>
      </trkpt>
      <trkpt lat="42.37289" lon="2.18744">
        <ele>1407.3</ele>
        <time>2024-09-25T09:53:28Z</time>
      </trkpt>
      <trkpt lat="42.3729" lon="2.18744">
        <ele>1407.4</ele>
        <time>2024-09-25T09:53:29Z</time>
      </trkpt>
      <trkpt lat="42.3729" lon="2.18745">
        <ele>1407.4</ele>
        <time>2024-09-25T09:53:30Z</time>
      </trkpt>
      <trkpt lat="42.3729" lon="2.18745">
        <ele>1407.4</ele>
        <time>2024-09-25T09:53:31Z</time>
      </trkpt>
      <trkpt lat="42.3729" lon="2.18745">
        <ele>1407.5</ele>
        <time>2024-09-25T09:53:32Z</time>
      </trkpt>
      <trkpt lat="42.3729" lon="2.18746">
        <ele>1407.5</ele>
        <time>2024-09-25T09:53:33Z</time>
      </trkpt>
      <trkpt lat="42.3729" lon="2.18746">
        <ele>1407.5</ele>
        <time>2024-09-25T09:53:34Z</time>
      </trkpt>
      <trkpt lat="42.3729" lon="2.18746">
        <ele>1407.5</ele>
        <time>2024-09-25T09:53:35Z</time>
      </trkpt>
      <trkpt lat="42.37291" lon="2.18747">
        <ele>1407.6</ele>
        <time>2024-09-25T09:53:36Z</time>
      </trkpt>
      <trkpt lat="42.37291" lon="2.18747">
        <ele>1407.6</ele>
        <time>2024-09-25T09:53:37Z</time>
      </trkpt>
      <trkpt lat="42.37291" lon="2.18747">
        <ele>1407.6</ele>
        <time>2024-09-25T09:53:38Z</time>
      </trkpt>
      <trkpt lat="42.37291" lon="2.18748">
        <ele>1407.6</ele>
        <time>2024-09-25T09:53:39Z</time>
      </trkpt>
      <trkpt lat="42.37291" lon="2.18748">
        <ele>1407.7</ele>
        <time>2024-09-25T09:53:40Z</time>
      </trkpt>
      <trkpt lat="42.37293" lon="2.1875">
        <ele>1407.8</ele>
        <time>2024-09-25T09:53:41Z</time>
      </trkpt>
      <trkpt lat="42.37293" lon="2.18751">
        <ele>1407.9</ele>
        <time>2024-09-25T09:53:42Z</time>
      </trkpt>
      <trkpt lat="42.37294" lon="2.18752">
        <ele>1407.9</ele>
        <time>2024-09-25T09:53:43Z</time>
      </trkpt>
      <trkpt lat="42.37294" lon="2.18753">
        <ele>1408</ele>
        <time>2024-09-25T09:53:44Z</time>
      </trkpt>
      <trkpt lat="42.37294" lon="2.18754">
        <ele>1408</ele>
        <time>2024-09-25T09:53:45Z</time>
      </trkpt>
      <trkpt lat="42.37295" lon="2.18755">
        <ele>1408</ele>
        <time>2024-09-25T09:53:46Z</time>
      </trkpt>
      <trkpt lat="42.37294" lon="2.18755">
        <ele>1408.1</ele>
        <time>2024-09-25T09:53:47Z</time>
      </trkpt>
      <trkpt lat="42.37295" lon="2.18755">
        <ele>1408.1</ele>
        <time>2024-09-25T09:53:48Z</time>
      </trkpt>
      <trkpt lat="42.37295" lon="2.18756">
        <ele>1408.1</ele>
        <time>2024-09-25T09:53:49Z</time>
      </trkpt>
      <trkpt lat="42.37296" lon="2.18757">
        <ele>1408.1</ele>
        <time>2024-09-25T09:53:50Z</time>
      </trkpt>
      <trkpt lat="42.37296" lon="2.18758">
        <ele>1408.2</ele>
        <time>2024-09-25T09:53:51Z</time>
      </trkpt>
      <trkpt lat="42.37296" lon="2.1876">
        <ele>1408.2</ele>
        <time>2024-09-25T09:53:52Z</time>
      </trkpt>
      <trkpt lat="42.37297" lon="2.18761">
        <ele>1408.2</ele>
        <time>2024-09-25T09:53:53Z</time>
      </trkpt>
      <trkpt lat="42.37297" lon="2.18762">
        <ele>1408.2</ele>
        <time>2024-09-25T09:53:54Z</time>
      </trkpt>
      <trkpt lat="42.37298" lon="2.18763">
        <ele>1408.2</ele>
        <time>2024-09-25T09:53:55Z</time>
      </trkpt>
      <trkpt lat="42.37298" lon="2.18765">
        <ele>1408.2</ele>
        <time>2024-09-25T09:53:56Z</time>
      </trkpt>
      <trkpt lat="42.37299" lon="2.18766">
        <ele>1408.2</ele>
        <time>2024-09-25T09:53:57Z</time>
      </trkpt>
      <trkpt lat="42.373" lon="2.18767">
        <ele>1408.2</ele>
        <time>2024-09-25T09:53:58Z</time>
      </trkpt>
      <trkpt lat="42.373" lon="2.18766">
        <ele>1408.2</ele>
        <time>2024-09-25T09:53:59Z</time>
      </trkpt>
      <trkpt lat="42.37301" lon="2.18766">
        <ele>1408.2</ele>
        <time>2024-09-25T09:54:00Z</time>
      </trkpt>
      <trkpt lat="42.37302" lon="2.18766">
        <ele>1408.2</ele>
        <time>2024-09-25T09:54:01Z</time>
      </trkpt>
      <trkpt lat="42.37302" lon="2.18767">
        <ele>1408.2</ele>
        <time>2024-09-25T09:54:02Z</time>
      </trkpt>
      <trkpt lat="42.37303" lon="2.18768">
        <ele>1408.2</ele>
        <time>2024-09-25T09:54:03Z</time>
      </trkpt>
      <trkpt lat="42.37303" lon="2.18769">
        <ele>1408.1</ele>
        <time>2024-09-25T09:54:04Z</time>
      </trkpt>
      <trkpt lat="42.37303" lon="2.18771">
        <ele>1408.1</ele>
        <time>2024-09-25T09:54:05Z</time>
      </trkpt>
      <trkpt lat="42.37303" lon="2.18772">
        <ele>1408.1</ele>
        <time>2024-09-25T09:54:06Z</time>
      </trkpt>
      <trkpt lat="42.37303" lon="2.18773">
        <ele>1408.1</ele>
        <time>2024-09-25T09:54:07Z</time>
      </trkpt>
      <trkpt lat="42.37303" lon="2.18774">
        <ele>1408.1</ele>
        <time>2024-09-25T09:54:08Z</time>
      </trkpt>
      <trkpt lat="42.37303" lon="2.18775">
        <ele>1408.1</ele>
        <time>2024-09-25T09:54:09Z</time>
      </trkpt>
      <trkpt lat="42.37303" lon="2.18776">
        <ele>1408.1</ele>
        <time>2024-09-25T09:54:10Z</time>
      </trkpt>
      <trkpt lat="42.37304" lon="2.18777">
        <ele>1408.1</ele>
        <time>2024-09-25T09:54:11Z</time>
      </trkpt>
      <trkpt lat="42.37304" lon="2.18779">
        <ele>1408.1</ele>
        <time>2024-09-25T09:54:12Z</time>
      </trkpt>
      <trkpt lat="42.37305" lon="2.1878">
        <ele>1408.1</ele>
        <time>2024-09-25T09:54:13Z</time>
      </trkpt>
      <trkpt lat="42.37305" lon="2.1878">
        <ele>1408.2</ele>
        <time>2024-09-25T09:54:14Z</time>
      </trkpt>
      <trkpt lat="42.37306" lon="2.18781">
        <ele>1408.2</ele>
        <time>2024-09-25T09:54:15Z</time>
      </trkpt>
      <trkpt lat="42.37306" lon="2.18782">
        <ele>1408.2</ele>
        <time>2024-09-25T09:54:16Z</time>
      </trkpt>
      <trkpt lat="42.37306" lon="2.18783">
        <ele>1408.2</ele>
        <time>2024-09-25T09:54:17Z</time>
      </trkpt>
      <trkpt lat="42.37306" lon="2.18784">
        <ele>1408.3</ele>
        <time>2024-09-25T09:54:18Z</time>
      </trkpt>
      <trkpt lat="42.37305" lon="2.18786">
        <ele>1408.3</ele>
        <time>2024-09-25T09:54:19Z</time>
      </trkpt>
      <trkpt lat="42.37306" lon="2.18787">
        <ele>1408.3</ele>
        <time>2024-09-25T09:54:20Z</time>
      </trkpt>
      <trkpt lat="42.37306" lon="2.18787">
        <ele>1408.4</ele>
        <time>2024-09-25T09:54:21Z</time>
      </trkpt>
      <trkpt lat="42.37307" lon="2.18789">
        <ele>1408.4</ele>
        <time>2024-09-25T09:54:22Z</time>
      </trkpt>
      <trkpt lat="42.37307" lon="2.18789">
        <ele>1408.5</ele>
        <time>2024-09-25T09:54:23Z</time>
      </trkpt>
      <trkpt lat="42.37308" lon="2.18788">
        <ele>1408.5</ele>
        <time>2024-09-25T09:54:24Z</time>
      </trkpt>
      <trkpt lat="42.37309" lon="2.18788">
        <ele>1408.5</ele>
        <time>2024-09-25T09:54:25Z</time>
      </trkpt>
      <trkpt lat="42.37309" lon="2.18789">
        <ele>1408.6</ele>
        <time>2024-09-25T09:54:26Z</time>
      </trkpt>
      <trkpt lat="42.3731" lon="2.18789">
        <ele>1408.6</ele>
        <time>2024-09-25T09:54:27Z</time>
      </trkpt>
      <trkpt lat="42.37311" lon="2.1879">
        <ele>1408.7</ele>
        <time>2024-09-25T09:54:28Z</time>
      </trkpt>
      <trkpt lat="42.37312" lon="2.18791">
        <ele>1408.8</ele>
        <time>2024-09-25T09:54:29Z</time>
      </trkpt>
      <trkpt lat="42.37312" lon="2.18791">
        <ele>1408.8</ele>
        <time>2024-09-25T09:54:30Z</time>
      </trkpt>
      <trkpt lat="42.37313" lon="2.18792">
        <ele>1408.8</ele>
        <time>2024-09-25T09:54:31Z</time>
      </trkpt>
      <trkpt lat="42.37313" lon="2.18793">
        <ele>1408.9</ele>
        <time>2024-09-25T09:54:32Z</time>
      </trkpt>
      <trkpt lat="42.37314" lon="2.18794">
        <ele>1409</ele>
        <time>2024-09-25T09:54:33Z</time>
      </trkpt>
      <trkpt lat="42.37313" lon="2.18796">
        <ele>1409.1</ele>
        <time>2024-09-25T09:54:34Z</time>
      </trkpt>
      <trkpt lat="42.37313" lon="2.18797">
        <ele>1409.2</ele>
        <time>2024-09-25T09:54:35Z</time>
      </trkpt>
      <trkpt lat="42.37313" lon="2.18798">
        <ele>1409.3</ele>
        <time>2024-09-25T09:54:36Z</time>
      </trkpt>
      <trkpt lat="42.37314" lon="2.18799">
        <ele>1409.4</ele>
        <time>2024-09-25T09:54:37Z</time>
      </trkpt>
      <trkpt lat="42.37315" lon="2.18801">
        <ele>1409.5</ele>
        <time>2024-09-25T09:54:38Z</time>
      </trkpt>
      <trkpt lat="42.37315" lon="2.18802">
        <ele>1409.6</ele>
        <time>2024-09-25T09:54:39Z</time>
      </trkpt>
      <trkpt lat="42.37316" lon="2.18803">
        <ele>1409.7</ele>
        <time>2024-09-25T09:54:40Z</time>
      </trkpt>
      <trkpt lat="42.37316" lon="2.18804">
        <ele>1409.8</ele>
        <time>2024-09-25T09:54:41Z</time>
      </trkpt>
      <trkpt lat="42.37317" lon="2.18805">
        <ele>1409.9</ele>
        <time>2024-09-25T09:54:42Z</time>
      </trkpt>
      <trkpt lat="42.37318" lon="2.18805">
        <ele>1410</ele>
        <time>2024-09-25T09:54:43Z</time>
      </trkpt>
      <trkpt lat="42.37318" lon="2.18805">
        <ele>1410.1</ele>
        <time>2024-09-25T09:54:44Z</time>
      </trkpt>
      <trkpt lat="42.37319" lon="2.18805">
        <ele>1410.1</ele>
        <time>2024-09-25T09:54:45Z</time>
      </trkpt>
      <trkpt lat="42.3732" lon="2.18805">
        <ele>1410.3</ele>
        <time>2024-09-25T09:54:46Z</time>
      </trkpt>
      <trkpt lat="42.37321" lon="2.18806">
        <ele>1410.4</ele>
        <time>2024-09-25T09:54:47Z</time>
      </trkpt>
      <trkpt lat="42.37321" lon="2.18806">
        <ele>1410.4</ele>
        <time>2024-09-25T09:54:48Z</time>
      </trkpt>
      <trkpt lat="42.37322" lon="2.18806">
        <ele>1410.5</ele>
        <time>2024-09-25T09:54:49Z</time>
      </trkpt>
      <trkpt lat="42.37322" lon="2.18807">
        <ele>1410.6</ele>
        <time>2024-09-25T09:54:50Z</time>
      </trkpt>
      <trkpt lat="42.37323" lon="2.18807">
        <ele>1410.6</ele>
        <time>2024-09-25T09:54:51Z</time>
      </trkpt>
      <trkpt lat="42.37323" lon="2.18808">
        <ele>1410.7</ele>
        <time>2024-09-25T09:54:52Z</time>
      </trkpt>
      <trkpt lat="42.37324" lon="2.18808">
        <ele>1410.8</ele>
        <time>2024-09-25T09:54:53Z</time>
      </trkpt>
      <trkpt lat="42.37324" lon="2.18809">
        <ele>1410.8</ele>
        <time>2024-09-25T09:54:54Z</time>
      </trkpt>
      <trkpt lat="42.37324" lon="2.18809">
        <ele>1410.9</ele>
        <time>2024-09-25T09:54:55Z</time>
      </trkpt>
      <trkpt lat="42.37324" lon="2.18811">
        <ele>1411</ele>
        <time>2024-09-25T09:54:56Z</time>
      </trkpt>
      <trkpt lat="42.37325" lon="2.18812">
        <ele>1411.2</ele>
        <time>2024-09-25T09:54:57Z</time>
      </trkpt>
      <trkpt lat="42.37325" lon="2.18813">
        <ele>1411.3</ele>
        <time>2024-09-25T09:54:58Z</time>
      </trkpt>
      <trkpt lat="42.37324" lon="2.18814">
        <ele>1411.3</ele>
        <time>2024-09-25T09:54:59Z</time>
      </trkpt>
      <trkpt lat="42.37324" lon="2.18815">
        <ele>1411.4</ele>
        <time>2024-09-25T09:55:00Z</time>
      </trkpt>
      <trkpt lat="42.37324" lon="2.18816">
        <ele>1411.5</ele>
        <time>2024-09-25T09:55:01Z</time>
      </trkpt>
      <trkpt lat="42.37324" lon="2.18817">
        <ele>1411.6</ele>
        <time>2024-09-25T09:55:02Z</time>
      </trkpt>
      <trkpt lat="42.37325" lon="2.18818">
        <ele>1411.7</ele>
        <time>2024-09-25T09:55:03Z</time>
      </trkpt>
      <trkpt lat="42.37324" lon="2.18819">
        <ele>1411.8</ele>
        <time>2024-09-25T09:55:04Z</time>
      </trkpt>
      <trkpt lat="42.37324" lon="2.1882">
        <ele>1411.9</ele>
        <time>2024-09-25T09:55:05Z</time>
      </trkpt>
      <trkpt lat="42.37324" lon="2.18821">
        <ele>1412</ele>
        <time>2024-09-25T09:55:06Z</time>
      </trkpt>
      <trkpt lat="42.37324" lon="2.18822">
        <ele>1412.1</ele>
        <time>2024-09-25T09:55:07Z</time>
      </trkpt>
      <trkpt lat="42.37324" lon="2.18823">
        <ele>1412.2</ele>
        <time>2024-09-25T09:55:08Z</time>
      </trkpt>
      <trkpt lat="42.37325" lon="2.18823">
        <ele>1412.2</ele>
        <time>2024-09-25T09:55:09Z</time>
      </trkpt>
      <trkpt lat="42.37325" lon="2.18825">
        <ele>1412.3</ele>
        <time>2024-09-25T09:55:10Z</time>
      </trkpt>
      <trkpt lat="42.37325" lon="2.18825">
        <ele>1412.4</ele>
        <time>2024-09-25T09:55:11Z</time>
      </trkpt>
      <trkpt lat="42.37325" lon="2.18826">
        <ele>1412.5</ele>
        <time>2024-09-25T09:55:12Z</time>
      </trkpt>
      <trkpt lat="42.37325" lon="2.18827">
        <ele>1412.6</ele>
        <time>2024-09-25T09:55:13Z</time>
      </trkpt>
      <trkpt lat="42.37325" lon="2.18828">
        <ele>1412.6</ele>
        <time>2024-09-25T09:55:14Z</time>
      </trkpt>
      <trkpt lat="42.37325" lon="2.18828">
        <ele>1412.7</ele>
        <time>2024-09-25T09:55:15Z</time>
      </trkpt>
      <trkpt lat="42.37325" lon="2.18828">
        <ele>1412.7</ele>
        <time>2024-09-25T09:55:16Z</time>
      </trkpt>
      <trkpt lat="42.37325" lon="2.18828">
        <ele>1412.7</ele>
        <time>2024-09-25T09:55:17Z</time>
      </trkpt>
      <trkpt lat="42.37325" lon="2.18828">
        <ele>1412.7</ele>
        <time>2024-09-25T09:55:18Z</time>
      </trkpt>
      <trkpt lat="42.37325" lon="2.18829">
        <ele>1412.8</ele>
        <time>2024-09-25T09:55:20Z</time>
      </trkpt>
      <trkpt lat="42.37325" lon="2.18829">
        <ele>1412.8</ele>
        <time>2024-09-25T09:55:21Z</time>
      </trkpt>
      <trkpt lat="42.37325" lon="2.1883">
        <ele>1412.9</ele>
        <time>2024-09-25T09:55:22Z</time>
      </trkpt>
      <trkpt lat="42.37325" lon="2.1883">
        <ele>1412.9</ele>
        <time>2024-09-25T09:55:23Z</time>
      </trkpt>
      <trkpt lat="42.37324" lon="2.1883">
        <ele>1412.9</ele>
        <time>2024-09-25T09:55:24Z</time>
      </trkpt>
      <trkpt lat="42.37324" lon="2.1883">
        <ele>1412.9</ele>
        <time>2024-09-25T09:55:25Z</time>
      </trkpt>
      <trkpt lat="42.37324" lon="2.1883">
        <ele>1412.9</ele>
        <time>2024-09-25T09:55:26Z</time>
      </trkpt>
      <trkpt lat="42.37324" lon="2.18831">
        <ele>1413</ele>
        <time>2024-09-25T09:55:27Z</time>
      </trkpt>
      <trkpt lat="42.37324" lon="2.18832">
        <ele>1413.1</ele>
        <time>2024-09-25T09:55:28Z</time>
      </trkpt>
      <trkpt lat="42.37324" lon="2.18832">
        <ele>1413.1</ele>
        <time>2024-09-25T09:55:29Z</time>
      </trkpt>
      <trkpt lat="42.37324" lon="2.18833">
        <ele>1413.2</ele>
        <time>2024-09-25T09:55:30Z</time>
      </trkpt>
      <trkpt lat="42.37324" lon="2.18834">
        <ele>1413.2</ele>
        <time>2024-09-25T09:55:31Z</time>
      </trkpt>
      <trkpt lat="42.37324" lon="2.18835">
        <ele>1413.3</ele>
        <time>2024-09-25T09:55:33Z</time>
      </trkpt>
      <trkpt lat="42.37324" lon="2.18836">
        <ele>1413.4</ele>
        <time>2024-09-25T09:55:34Z</time>
      </trkpt>
      <trkpt lat="42.37325" lon="2.18836">
        <ele>1413.5</ele>
        <time>2024-09-25T09:55:35Z</time>
      </trkpt>
      <trkpt lat="42.37325" lon="2.18837">
        <ele>1413.5</ele>
        <time>2024-09-25T09:55:36Z</time>
      </trkpt>
      <trkpt lat="42.37325" lon="2.18838">
        <ele>1413.6</ele>
        <time>2024-09-25T09:55:37Z</time>
      </trkpt>
      <trkpt lat="42.37324" lon="2.18839">
        <ele>1413.7</ele>
        <time>2024-09-25T09:55:38Z</time>
      </trkpt>
      <trkpt lat="42.37324" lon="2.1884">
        <ele>1413.8</ele>
        <time>2024-09-25T09:55:39Z</time>
      </trkpt>
      <trkpt lat="42.37324" lon="2.18841">
        <ele>1413.9</ele>
        <time>2024-09-25T09:55:40Z</time>
      </trkpt>
      <trkpt lat="42.37324" lon="2.18842">
        <ele>1413.9</ele>
        <time>2024-09-25T09:55:41Z</time>
      </trkpt>
      <trkpt lat="42.37325" lon="2.18843">
        <ele>1414.1</ele>
        <time>2024-09-25T09:55:42Z</time>
      </trkpt>
      <trkpt lat="42.37326" lon="2.18844">
        <ele>1414.2</ele>
        <time>2024-09-25T09:55:43Z</time>
      </trkpt>
      <trkpt lat="42.37326" lon="2.18846">
        <ele>1414.3</ele>
        <time>2024-09-25T09:55:44Z</time>
      </trkpt>
      <trkpt lat="42.37327" lon="2.18847">
        <ele>1414.4</ele>
        <time>2024-09-25T09:55:45Z</time>
      </trkpt>
      <trkpt lat="42.37327" lon="2.18847">
        <ele>1414.5</ele>
        <time>2024-09-25T09:55:46Z</time>
      </trkpt>
      <trkpt lat="42.37328" lon="2.18848">
        <ele>1414.6</ele>
        <time>2024-09-25T09:55:47Z</time>
      </trkpt>
      <trkpt lat="42.37328" lon="2.18848">
        <ele>1414.6</ele>
        <time>2024-09-25T09:55:48Z</time>
      </trkpt>
      <trkpt lat="42.37329" lon="2.18849">
        <ele>1414.7</ele>
        <time>2024-09-25T09:55:49Z</time>
      </trkpt>
      <trkpt lat="42.37329" lon="2.1885">
        <ele>1414.8</ele>
        <time>2024-09-25T09:55:50Z</time>
      </trkpt>
      <trkpt lat="42.3733" lon="2.1885">
        <ele>1414.8</ele>
        <time>2024-09-25T09:55:51Z</time>
      </trkpt>
      <trkpt lat="42.3733" lon="2.18851">
        <ele>1414.8</ele>
        <time>2024-09-25T09:55:52Z</time>
      </trkpt>
      <trkpt lat="42.3733" lon="2.18851">
        <ele>1414.9</ele>
        <time>2024-09-25T09:55:53Z</time>
      </trkpt>
      <trkpt lat="42.37331" lon="2.18852">
        <ele>1414.9</ele>
        <time>2024-09-25T09:55:54Z</time>
      </trkpt>
      <trkpt lat="42.37331" lon="2.18853">
        <ele>1415</ele>
        <time>2024-09-25T09:55:55Z</time>
      </trkpt>
      <trkpt lat="42.37331" lon="2.18854">
        <ele>1415.1</ele>
        <time>2024-09-25T09:55:56Z</time>
      </trkpt>
      <trkpt lat="42.37331" lon="2.18855">
        <ele>1415.1</ele>
        <time>2024-09-25T09:55:57Z</time>
      </trkpt>
      <trkpt lat="42.37331" lon="2.18856">
        <ele>1415.2</ele>
        <time>2024-09-25T09:55:58Z</time>
      </trkpt>
      <trkpt lat="42.37332" lon="2.18857">
        <ele>1415.3</ele>
        <time>2024-09-25T09:55:59Z</time>
      </trkpt>
      <trkpt lat="42.37332" lon="2.18858">
        <ele>1415.3</ele>
        <time>2024-09-25T09:56:00Z</time>
      </trkpt>
      <trkpt lat="42.37332" lon="2.18858">
        <ele>1415.4</ele>
        <time>2024-09-25T09:56:01Z</time>
      </trkpt>
      <trkpt lat="42.37332" lon="2.1886">
        <ele>1415.4</ele>
        <time>2024-09-25T09:56:02Z</time>
      </trkpt>
      <trkpt lat="42.37332" lon="2.18861">
        <ele>1415.5</ele>
        <time>2024-09-25T09:56:03Z</time>
      </trkpt>
      <trkpt lat="42.37332" lon="2.18862">
        <ele>1415.6</ele>
        <time>2024-09-25T09:56:04Z</time>
      </trkpt>
      <trkpt lat="42.37333" lon="2.18863">
        <ele>1415.6</ele>
        <time>2024-09-25T09:56:05Z</time>
      </trkpt>
      <trkpt lat="42.37333" lon="2.18865">
        <ele>1415.7</ele>
        <time>2024-09-25T09:56:06Z</time>
      </trkpt>
      <trkpt lat="42.37334" lon="2.18866">
        <ele>1415.8</ele>
        <time>2024-09-25T09:56:07Z</time>
      </trkpt>
      <trkpt lat="42.37334" lon="2.18867">
        <ele>1415.8</ele>
        <time>2024-09-25T09:56:08Z</time>
      </trkpt>
      <trkpt lat="42.37335" lon="2.18868">
        <ele>1415.9</ele>
        <time>2024-09-25T09:56:09Z</time>
      </trkpt>
      <trkpt lat="42.37335" lon="2.18869">
        <ele>1415.9</ele>
        <time>2024-09-25T09:56:10Z</time>
      </trkpt>
      <trkpt lat="42.37335" lon="2.18869">
        <ele>1416</ele>
        <time>2024-09-25T09:56:11Z</time>
      </trkpt>
      <trkpt lat="42.37336" lon="2.1887">
        <ele>1416.1</ele>
        <time>2024-09-25T09:56:12Z</time>
      </trkpt>
      <trkpt lat="42.37337" lon="2.18871">
        <ele>1416.1</ele>
        <time>2024-09-25T09:56:13Z</time>
      </trkpt>
      <trkpt lat="42.37337" lon="2.18871">
        <ele>1416.1</ele>
        <time>2024-09-25T09:56:14Z</time>
      </trkpt>
      <trkpt lat="42.37338" lon="2.18872">
        <ele>1416.2</ele>
        <time>2024-09-25T09:56:15Z</time>
      </trkpt>
      <trkpt lat="42.37338" lon="2.18872">
        <ele>1416.2</ele>
        <time>2024-09-25T09:56:16Z</time>
      </trkpt>
      <trkpt lat="42.37338" lon="2.18873">
        <ele>1416.2</ele>
        <time>2024-09-25T09:56:17Z</time>
      </trkpt>
      <trkpt lat="42.37339" lon="2.18874">
        <ele>1416.3</ele>
        <time>2024-09-25T09:56:18Z</time>
      </trkpt>
      <trkpt lat="42.3734" lon="2.18875">
        <ele>1416.3</ele>
        <time>2024-09-25T09:56:19Z</time>
      </trkpt>
      <trkpt lat="42.37341" lon="2.18876">
        <ele>1416.4</ele>
        <time>2024-09-25T09:56:20Z</time>
      </trkpt>
      <trkpt lat="42.37341" lon="2.18877">
        <ele>1416.5</ele>
        <time>2024-09-25T09:56:21Z</time>
      </trkpt>
      <trkpt lat="42.37342" lon="2.18878">
        <ele>1416.5</ele>
        <time>2024-09-25T09:56:22Z</time>
      </trkpt>
      <trkpt lat="42.37342" lon="2.18879">
        <ele>1416.5</ele>
        <time>2024-09-25T09:56:23Z</time>
      </trkpt>
      <trkpt lat="42.37342" lon="2.1888">
        <ele>1416.6</ele>
        <time>2024-09-25T09:56:24Z</time>
      </trkpt>
      <trkpt lat="42.37343" lon="2.18881">
        <ele>1416.6</ele>
        <time>2024-09-25T09:56:25Z</time>
      </trkpt>
      <trkpt lat="42.37342" lon="2.18881">
        <ele>1416.7</ele>
        <time>2024-09-25T09:56:26Z</time>
      </trkpt>
      <trkpt lat="42.37342" lon="2.18881">
        <ele>1416.7</ele>
        <time>2024-09-25T09:56:27Z</time>
      </trkpt>
      <trkpt lat="42.37342" lon="2.18881">
        <ele>1416.7</ele>
        <time>2024-09-25T09:56:28Z</time>
      </trkpt>
      <trkpt lat="42.37342" lon="2.18882">
        <ele>1416.7</ele>
        <time>2024-09-25T09:56:29Z</time>
      </trkpt>
      <trkpt lat="42.37342" lon="2.18882">
        <ele>1416.7</ele>
        <time>2024-09-25T09:56:30Z</time>
      </trkpt>
      <trkpt lat="42.37342" lon="2.18882">
        <ele>1416.8</ele>
        <time>2024-09-25T09:56:31Z</time>
      </trkpt>
      <trkpt lat="42.37342" lon="2.18883">
        <ele>1416.8</ele>
        <time>2024-09-25T09:56:32Z</time>
      </trkpt>
      <trkpt lat="42.37342" lon="2.18883">
        <ele>1416.8</ele>
        <time>2024-09-25T09:56:33Z</time>
      </trkpt>
      <trkpt lat="42.37342" lon="2.18883">
        <ele>1416.8</ele>
        <time>2024-09-25T09:56:34Z</time>
      </trkpt>
      <trkpt lat="42.37342" lon="2.18883">
        <ele>1416.8</ele>
        <time>2024-09-25T09:56:35Z</time>
      </trkpt>
      <trkpt lat="42.37342" lon="2.18883">
        <ele>1416.8</ele>
        <time>2024-09-25T09:56:36Z</time>
      </trkpt>
      <trkpt lat="42.37342" lon="2.18884">
        <ele>1416.8</ele>
        <time>2024-09-25T09:56:37Z</time>
      </trkpt>
      <trkpt lat="42.37342" lon="2.18884">
        <ele>1416.9</ele>
        <time>2024-09-25T09:56:38Z</time>
      </trkpt>
      <trkpt lat="42.37342" lon="2.18884">
        <ele>1416.9</ele>
        <time>2024-09-25T09:56:39Z</time>
      </trkpt>
      <trkpt lat="42.37343" lon="2.18884">
        <ele>1416.9</ele>
        <time>2024-09-25T09:56:40Z</time>
      </trkpt>
      <trkpt lat="42.37343" lon="2.18884">
        <ele>1416.9</ele>
        <time>2024-09-25T09:56:41Z</time>
      </trkpt>
      <trkpt lat="42.37343" lon="2.18884">
        <ele>1417</ele>
        <time>2024-09-25T09:56:42Z</time>
      </trkpt>
      <trkpt lat="42.37343" lon="2.18884">
        <ele>1417</ele>
        <time>2024-09-25T09:56:43Z</time>
      </trkpt>
      <trkpt lat="42.37343" lon="2.18885">
        <ele>1417</ele>
        <time>2024-09-25T09:56:44Z</time>
      </trkpt>
      <trkpt lat="42.37343" lon="2.18885">
        <ele>1417</ele>
        <time>2024-09-25T09:56:45Z</time>
      </trkpt>
      <trkpt lat="42.37343" lon="2.18885">
        <ele>1417</ele>
        <time>2024-09-25T09:56:46Z</time>
      </trkpt>
      <trkpt lat="42.37343" lon="2.18885">
        <ele>1417</ele>
        <time>2024-09-25T09:56:47Z</time>
      </trkpt>
      <trkpt lat="42.37343" lon="2.18885">
        <ele>1417</ele>
        <time>2024-09-25T09:56:48Z</time>
      </trkpt>
      <trkpt lat="42.37343" lon="2.18885">
        <ele>1417</ele>
        <time>2024-09-25T09:56:49Z</time>
      </trkpt>
      <trkpt lat="42.37343" lon="2.18885">
        <ele>1417</ele>
        <time>2024-09-25T09:56:50Z</time>
      </trkpt>
      <trkpt lat="42.37343" lon="2.18885">
        <ele>1417.1</ele>
        <time>2024-09-25T09:56:51Z</time>
      </trkpt>
      <trkpt lat="42.37343" lon="2.18885">
        <ele>1417.1</ele>
        <time>2024-09-25T09:56:52Z</time>
      </trkpt>
      <trkpt lat="42.37343" lon="2.18886">
        <ele>1417.1</ele>
        <time>2024-09-25T09:56:53Z</time>
      </trkpt>
      <trkpt lat="42.37344" lon="2.18886">
        <ele>1417.1</ele>
        <time>2024-09-25T09:56:54Z</time>
      </trkpt>
      <trkpt lat="42.37344" lon="2.18886">
        <ele>1417.1</ele>
        <time>2024-09-25T09:56:55Z</time>
      </trkpt>
      <trkpt lat="42.37344" lon="2.18886">
        <ele>1417.1</ele>
        <time>2024-09-25T09:56:56Z</time>
      </trkpt>
      <trkpt lat="42.37344" lon="2.18886">
        <ele>1417.1</ele>
        <time>2024-09-25T09:56:57Z</time>
      </trkpt>
      <trkpt lat="42.37344" lon="2.18886">
        <ele>1417.1</ele>
        <time>2024-09-25T09:56:58Z</time>
      </trkpt>
      <trkpt lat="42.37344" lon="2.18886">
        <ele>1417.1</ele>
        <time>2024-09-25T09:56:59Z</time>
      </trkpt>
      <trkpt lat="42.37344" lon="2.18886">
        <ele>1417.1</ele>
        <time>2024-09-25T09:57:00Z</time>
      </trkpt>
      <trkpt lat="42.37344" lon="2.18886">
        <ele>1417.2</ele>
        <time>2024-09-25T09:57:01Z</time>
      </trkpt>
      <trkpt lat="42.37344" lon="2.18886">
        <ele>1417.2</ele>
        <time>2024-09-25T09:57:02Z</time>
      </trkpt>
      <trkpt lat="42.37344" lon="2.18886">
        <ele>1417.2</ele>
        <time>2024-09-25T09:57:03Z</time>
      </trkpt>
      <trkpt lat="42.37344" lon="2.18886">
        <ele>1417.2</ele>
        <time>2024-09-25T09:57:04Z</time>
      </trkpt>
      <trkpt lat="42.37344" lon="2.18886">
        <ele>1417.2</ele>
        <time>2024-09-25T09:57:05Z</time>
      </trkpt>
      <trkpt lat="42.37344" lon="2.18886">
        <ele>1417.2</ele>
        <time>2024-09-25T09:57:06Z</time>
      </trkpt>
      <trkpt lat="42.37344" lon="2.18886">
        <ele>1417.2</ele>
        <time>2024-09-25T09:57:07Z</time>
      </trkpt>
      <trkpt lat="42.37344" lon="2.18886">
        <ele>1417.2</ele>
        <time>2024-09-25T09:57:08Z</time>
      </trkpt>
      <trkpt lat="42.37344" lon="2.18886">
        <ele>1417.2</ele>
        <time>2024-09-25T09:57:09Z</time>
      </trkpt>
      <trkpt lat="42.37344" lon="2.18886">
        <ele>1417.2</ele>
        <time>2024-09-25T09:57:10Z</time>
      </trkpt>
      <trkpt lat="42.37344" lon="2.18886">
        <ele>1417.2</ele>
        <time>2024-09-25T09:57:11Z</time>
      </trkpt>
      <trkpt lat="42.37344" lon="2.18886">
        <ele>1417.2</ele>
        <time>2024-09-25T09:57:12Z</time>
      </trkpt>
      <trkpt lat="42.37344" lon="2.18886">
        <ele>1417.2</ele>
        <time>2024-09-25T09:57:13Z</time>
      </trkpt>
      <trkpt lat="42.37344" lon="2.18886">
        <ele>1417.2</ele>
        <time>2024-09-25T09:57:14Z</time>
      </trkpt>
      <trkpt lat="42.37344" lon="2.18886">
        <ele>1417.2</ele>
        <time>2024-09-25T09:57:15Z</time>
      </trkpt>
      <trkpt lat="42.37344" lon="2.18886">
        <ele>1417.2</ele>
        <time>2024-09-25T09:57:16Z</time>
      </trkpt>
      <trkpt lat="42.37344" lon="2.18887">
        <ele>1417.3</ele>
        <time>2024-09-25T09:57:17Z</time>
      </trkpt>
      <trkpt lat="42.37344" lon="2.18887">
        <ele>1417.3</ele>
        <time>2024-09-25T09:57:18Z</time>
      </trkpt>
      <trkpt lat="42.37344" lon="2.18887">
        <ele>1417.3</ele>
        <time>2024-09-25T09:57:19Z</time>
      </trkpt>
      <trkpt lat="42.37344" lon="2.18887">
        <ele>1417.3</ele>
        <time>2024-09-25T09:57:20Z</time>
      </trkpt>
      <trkpt lat="42.37344" lon="2.18887">
        <ele>1417.3</ele>
        <time>2024-09-25T09:57:21Z</time>
      </trkpt>
      <trkpt lat="42.37344" lon="2.18887">
        <ele>1417.3</ele>
        <time>2024-09-25T09:57:22Z</time>
      </trkpt>
      <trkpt lat="42.37344" lon="2.18887">
        <ele>1417.3</ele>
        <time>2024-09-25T09:57:23Z</time>
      </trkpt>
      <trkpt lat="42.37344" lon="2.18887">
        <ele>1417.3</ele>
        <time>2024-09-25T09:57:24Z</time>
      </trkpt>
      <trkpt lat="42.37344" lon="2.18887">
        <ele>1417.3</ele>
        <time>2024-09-25T09:57:25Z</time>
      </trkpt>
      <trkpt lat="42.37344" lon="2.18887">
        <ele>1417.3</ele>
        <time>2024-09-25T09:57:26Z</time>
      </trkpt>
      <trkpt lat="42.37344" lon="2.18887">
        <ele>1417.3</ele>
        <time>2024-09-25T09:57:27Z</time>
      </trkpt>
      <trkpt lat="42.37344" lon="2.18887">
        <ele>1417.3</ele>
        <time>2024-09-25T09:57:28Z</time>
      </trkpt>
      <trkpt lat="42.37344" lon="2.18887">
        <ele>1417.3</ele>
        <time>2024-09-25T09:57:29Z</time>
      </trkpt>
      <trkpt lat="42.37344" lon="2.18887">
        <ele>1417.3</ele>
        <time>2024-09-25T09:57:30Z</time>
      </trkpt>
      <trkpt lat="42.37344" lon="2.18887">
        <ele>1417.3</ele>
        <time>2024-09-25T09:57:31Z</time>
      </trkpt>
      <trkpt lat="42.37344" lon="2.18887">
        <ele>1417.3</ele>
        <time>2024-09-25T09:57:32Z</time>
      </trkpt>
      <trkpt lat="42.37344" lon="2.18887">
        <ele>1417.3</ele>
        <time>2024-09-25T09:57:33Z</time>
      </trkpt>
      <trkpt lat="42.37345" lon="2.18888">
        <ele>1417.4</ele>
        <time>2024-09-25T09:57:34Z</time>
      </trkpt>
      <trkpt lat="42.37345" lon="2.18888">
        <ele>1417.4</ele>
        <time>2024-09-25T09:57:35Z</time>
      </trkpt>
      <trkpt lat="42.37345" lon="2.18887">
        <ele>1417.4</ele>
        <time>2024-09-25T09:57:36Z</time>
      </trkpt>
      <trkpt lat="42.37345" lon="2.18888">
        <ele>1417.5</ele>
        <time>2024-09-25T09:57:37Z</time>
      </trkpt>
      <trkpt lat="42.37345" lon="2.18888">
        <ele>1417.5</ele>
        <time>2024-09-25T09:57:38Z</time>
      </trkpt>
      <trkpt lat="42.37345" lon="2.18889">
        <ele>1417.6</ele>
        <time>2024-09-25T09:57:39Z</time>
      </trkpt>
      <trkpt lat="42.37345" lon="2.1889">
        <ele>1417.6</ele>
        <time>2024-09-25T09:57:40Z</time>
      </trkpt>
      <trkpt lat="42.37345" lon="2.1889">
        <ele>1417.7</ele>
        <time>2024-09-25T09:57:41Z</time>
      </trkpt>
      <trkpt lat="42.37345" lon="2.18891">
        <ele>1417.8</ele>
        <time>2024-09-25T09:57:42Z</time>
      </trkpt>
      <trkpt lat="42.37346" lon="2.18892">
        <ele>1417.9</ele>
        <time>2024-09-25T09:57:43Z</time>
      </trkpt>
      <trkpt lat="42.37346" lon="2.18893">
        <ele>1418</ele>
        <time>2024-09-25T09:57:44Z</time>
      </trkpt>
      <trkpt lat="42.37347" lon="2.18893">
        <ele>1418</ele>
        <time>2024-09-25T09:57:45Z</time>
      </trkpt>
      <trkpt lat="42.37347" lon="2.18894">
        <ele>1418.1</ele>
        <time>2024-09-25T09:57:46Z</time>
      </trkpt>
      <trkpt lat="42.37348" lon="2.18895">
        <ele>1418.2</ele>
        <time>2024-09-25T09:57:47Z</time>
      </trkpt>
      <trkpt lat="42.37348" lon="2.18895">
        <ele>1418.3</ele>
        <time>2024-09-25T09:57:48Z</time>
      </trkpt>
      <trkpt lat="42.37349" lon="2.18895">
        <ele>1418.4</ele>
        <time>2024-09-25T09:57:49Z</time>
      </trkpt>
      <trkpt lat="42.37349" lon="2.18896">
        <ele>1418.5</ele>
        <time>2024-09-25T09:57:50Z</time>
      </trkpt>
      <trkpt lat="42.3735" lon="2.18898">
        <ele>1418.7</ele>
        <time>2024-09-25T09:57:51Z</time>
      </trkpt>
      <trkpt lat="42.3735" lon="2.18899">
        <ele>1418.8</ele>
        <time>2024-09-25T09:57:52Z</time>
      </trkpt>
      <trkpt lat="42.3735" lon="2.189">
        <ele>1418.9</ele>
        <time>2024-09-25T09:57:53Z</time>
      </trkpt>
      <trkpt lat="42.3735" lon="2.18901">
        <ele>1419</ele>
        <time>2024-09-25T09:57:54Z</time>
      </trkpt>
      <trkpt lat="42.3735" lon="2.18901">
        <ele>1419.1</ele>
        <time>2024-09-25T09:57:55Z</time>
      </trkpt>
      <trkpt lat="42.3735" lon="2.18902">
        <ele>1419.2</ele>
        <time>2024-09-25T09:57:56Z</time>
      </trkpt>
      <trkpt lat="42.3735" lon="2.18902">
        <ele>1419.3</ele>
        <time>2024-09-25T09:57:57Z</time>
      </trkpt>
      <trkpt lat="42.37351" lon="2.18902">
        <ele>1419.3</ele>
        <time>2024-09-25T09:57:58Z</time>
      </trkpt>
      <trkpt lat="42.37351" lon="2.18902">
        <ele>1419.4</ele>
        <time>2024-09-25T09:57:59Z</time>
      </trkpt>
      <trkpt lat="42.37352" lon="2.18903">
        <ele>1419.5</ele>
        <time>2024-09-25T09:58:00Z</time>
      </trkpt>
      <trkpt lat="42.37352" lon="2.18903">
        <ele>1419.6</ele>
        <time>2024-09-25T09:58:01Z</time>
      </trkpt>
      <trkpt lat="42.37353" lon="2.18904">
        <ele>1419.7</ele>
        <time>2024-09-25T09:58:02Z</time>
      </trkpt>
      <trkpt lat="42.37353" lon="2.18905">
        <ele>1419.9</ele>
        <time>2024-09-25T09:58:03Z</time>
      </trkpt>
      <trkpt lat="42.37354" lon="2.18905">
        <ele>1420</ele>
        <time>2024-09-25T09:58:04Z</time>
      </trkpt>
      <trkpt lat="42.37354" lon="2.18906">
        <ele>1420.1</ele>
        <time>2024-09-25T09:58:05Z</time>
      </trkpt>
      <trkpt lat="42.37354" lon="2.18906">
        <ele>1420.2</ele>
        <time>2024-09-25T09:58:06Z</time>
      </trkpt>
      <trkpt lat="42.37355" lon="2.18907">
        <ele>1420.3</ele>
        <time>2024-09-25T09:58:07Z</time>
      </trkpt>
      <trkpt lat="42.37356" lon="2.18907">
        <ele>1420.6</ele>
        <time>2024-09-25T09:58:08Z</time>
      </trkpt>
      <trkpt lat="42.37357" lon="2.18907">
        <ele>1420.8</ele>
        <time>2024-09-25T09:58:09Z</time>
      </trkpt>
      <trkpt lat="42.37358" lon="2.18908">
        <ele>1420.9</ele>
        <time>2024-09-25T09:58:10Z</time>
      </trkpt>
      <trkpt lat="42.37359" lon="2.18908">
        <ele>1421.1</ele>
        <time>2024-09-25T09:58:11Z</time>
      </trkpt>
      <trkpt lat="42.37359" lon="2.18908">
        <ele>1421.2</ele>
        <time>2024-09-25T09:58:12Z</time>
      </trkpt>
      <trkpt lat="42.3736" lon="2.18908">
        <ele>1421.4</ele>
        <time>2024-09-25T09:58:13Z</time>
      </trkpt>
      <trkpt lat="42.37361" lon="2.18908">
        <ele>1421.5</ele>
        <time>2024-09-25T09:58:14Z</time>
      </trkpt>
      <trkpt lat="42.37361" lon="2.18908">
        <ele>1421.6</ele>
        <time>2024-09-25T09:58:15Z</time>
      </trkpt>
      <trkpt lat="42.37362" lon="2.18908">
        <ele>1421.8</ele>
        <time>2024-09-25T09:58:16Z</time>
      </trkpt>
      <trkpt lat="42.37363" lon="2.18908">
        <ele>1421.9</ele>
        <time>2024-09-25T09:58:17Z</time>
      </trkpt>
      <trkpt lat="42.37363" lon="2.18909">
        <ele>1422</ele>
        <time>2024-09-25T09:58:18Z</time>
      </trkpt>
      <trkpt lat="42.37363" lon="2.18909">
        <ele>1422.1</ele>
        <time>2024-09-25T09:58:19Z</time>
      </trkpt>
      <trkpt lat="42.37364" lon="2.18909">
        <ele>1422.2</ele>
        <time>2024-09-25T09:58:20Z</time>
      </trkpt>
      <trkpt lat="42.37364" lon="2.18909">
        <ele>1422.2</ele>
        <time>2024-09-25T09:58:21Z</time>
      </trkpt>
      <trkpt lat="42.37364" lon="2.1891">
        <ele>1422.3</ele>
        <time>2024-09-25T09:58:22Z</time>
      </trkpt>
      <trkpt lat="42.37364" lon="2.1891">
        <ele>1422.4</ele>
        <time>2024-09-25T09:58:23Z</time>
      </trkpt>
      <trkpt lat="42.37365" lon="2.1891">
        <ele>1422.4</ele>
        <time>2024-09-25T09:58:24Z</time>
      </trkpt>
      <trkpt lat="42.37365" lon="2.18911">
        <ele>1422.5</ele>
        <time>2024-09-25T09:58:25Z</time>
      </trkpt>
      <trkpt lat="42.37365" lon="2.18911">
        <ele>1422.6</ele>
        <time>2024-09-25T09:58:26Z</time>
      </trkpt>
      <trkpt lat="42.37365" lon="2.18911">
        <ele>1422.7</ele>
        <time>2024-09-25T09:58:27Z</time>
      </trkpt>
      <trkpt lat="42.37366" lon="2.18912">
        <ele>1422.7</ele>
        <time>2024-09-25T09:58:28Z</time>
      </trkpt>
      <trkpt lat="42.37366" lon="2.18912">
        <ele>1422.9</ele>
        <time>2024-09-25T09:58:29Z</time>
      </trkpt>
      <trkpt lat="42.37366" lon="2.18913">
        <ele>1423</ele>
        <time>2024-09-25T09:58:30Z</time>
      </trkpt>
      <trkpt lat="42.37367" lon="2.18913">
        <ele>1423.1</ele>
        <time>2024-09-25T09:58:31Z</time>
      </trkpt>
      <trkpt lat="42.37367" lon="2.18914">
        <ele>1423.2</ele>
        <time>2024-09-25T09:58:32Z</time>
      </trkpt>
      <trkpt lat="42.37367" lon="2.18914">
        <ele>1423.2</ele>
        <time>2024-09-25T09:58:33Z</time>
      </trkpt>
      <trkpt lat="42.37367" lon="2.18915">
        <ele>1423.3</ele>
        <time>2024-09-25T09:58:34Z</time>
      </trkpt>
      <trkpt lat="42.37367" lon="2.18915">
        <ele>1423.3</ele>
        <time>2024-09-25T09:58:35Z</time>
      </trkpt>
      <trkpt lat="42.37367" lon="2.18916">
        <ele>1423.5</ele>
        <time>2024-09-25T09:58:36Z</time>
      </trkpt>
      <trkpt lat="42.37367" lon="2.18916">
        <ele>1423.6</ele>
        <time>2024-09-25T09:58:37Z</time>
      </trkpt>
      <trkpt lat="42.37367" lon="2.18917">
        <ele>1423.7</ele>
        <time>2024-09-25T09:58:38Z</time>
      </trkpt>
      <trkpt lat="42.37367" lon="2.18918">
        <ele>1423.8</ele>
        <time>2024-09-25T09:58:39Z</time>
      </trkpt>
      <trkpt lat="42.37368" lon="2.18919">
        <ele>1424</ele>
        <time>2024-09-25T09:58:40Z</time>
      </trkpt>
      <trkpt lat="42.37368" lon="2.18919">
        <ele>1424.1</ele>
        <time>2024-09-25T09:58:41Z</time>
      </trkpt>
      <trkpt lat="42.37368" lon="2.1892">
        <ele>1424.2</ele>
        <time>2024-09-25T09:58:42Z</time>
      </trkpt>
      <trkpt lat="42.37367" lon="2.1892">
        <ele>1424.2</ele>
        <time>2024-09-25T09:58:43Z</time>
      </trkpt>
      <trkpt lat="42.37367" lon="2.18921">
        <ele>1424.3</ele>
        <time>2024-09-25T09:58:44Z</time>
      </trkpt>
      <trkpt lat="42.37367" lon="2.18921">
        <ele>1424.3</ele>
        <time>2024-09-25T09:58:45Z</time>
      </trkpt>
      <trkpt lat="42.37367" lon="2.18921">
        <ele>1424.3</ele>
        <time>2024-09-25T09:58:46Z</time>
      </trkpt>
      <trkpt lat="42.37368" lon="2.18921">
        <ele>1424.3</ele>
        <time>2024-09-25T09:58:47Z</time>
      </trkpt>
      <trkpt lat="42.37367" lon="2.18921">
        <ele>1424.4</ele>
        <time>2024-09-25T09:58:48Z</time>
      </trkpt>
      <trkpt lat="42.37367" lon="2.18921">
        <ele>1424.4</ele>
        <time>2024-09-25T09:58:49Z</time>
      </trkpt>
      <trkpt lat="42.37367" lon="2.18921">
        <ele>1424.4</ele>
        <time>2024-09-25T09:58:50Z</time>
      </trkpt>
      <trkpt lat="42.37367" lon="2.18921">
        <ele>1424.4</ele>
        <time>2024-09-25T09:58:51Z</time>
      </trkpt>
      <trkpt lat="42.37367" lon="2.18921">
        <ele>1424.5</ele>
        <time>2024-09-25T09:58:52Z</time>
      </trkpt>
      <trkpt lat="42.37367" lon="2.18922">
        <ele>1424.5</ele>
        <time>2024-09-25T09:58:53Z</time>
      </trkpt>
      <trkpt lat="42.37367" lon="2.18922">
        <ele>1424.6</ele>
        <time>2024-09-25T09:58:54Z</time>
      </trkpt>
      <trkpt lat="42.37367" lon="2.18923">
        <ele>1424.7</ele>
        <time>2024-09-25T09:58:55Z</time>
      </trkpt>
      <trkpt lat="42.37367" lon="2.18923">
        <ele>1424.8</ele>
        <time>2024-09-25T09:58:56Z</time>
      </trkpt>
      <trkpt lat="42.37367" lon="2.18924">
        <ele>1424.9</ele>
        <time>2024-09-25T09:58:57Z</time>
      </trkpt>
      <trkpt lat="42.37367" lon="2.18925">
        <ele>1425.1</ele>
        <time>2024-09-25T09:58:58Z</time>
      </trkpt>
      <trkpt lat="42.37368" lon="2.18926">
        <ele>1425.2</ele>
        <time>2024-09-25T09:58:59Z</time>
      </trkpt>
      <trkpt lat="42.37368" lon="2.18927">
        <ele>1425.3</ele>
        <time>2024-09-25T09:59:00Z</time>
      </trkpt>
      <trkpt lat="42.37368" lon="2.18927">
        <ele>1425.5</ele>
        <time>2024-09-25T09:59:01Z</time>
      </trkpt>
      <trkpt lat="42.37368" lon="2.18928">
        <ele>1425.6</ele>
        <time>2024-09-25T09:59:02Z</time>
      </trkpt>
      <trkpt lat="42.37369" lon="2.18928">
        <ele>1425.6</ele>
        <time>2024-09-25T09:59:03Z</time>
      </trkpt>
      <trkpt lat="42.37369" lon="2.18928">
        <ele>1425.7</ele>
        <time>2024-09-25T09:59:04Z</time>
      </trkpt>
      <trkpt lat="42.37369" lon="2.18929">
        <ele>1425.8</ele>
        <time>2024-09-25T09:59:05Z</time>
      </trkpt>
      <trkpt lat="42.37369" lon="2.18929">
        <ele>1425.8</ele>
        <time>2024-09-25T09:59:06Z</time>
      </trkpt>
      <trkpt lat="42.37369" lon="2.18929">
        <ele>1425.9</ele>
        <time>2024-09-25T09:59:07Z</time>
      </trkpt>
      <trkpt lat="42.3737" lon="2.18929">
        <ele>1425.9</ele>
        <time>2024-09-25T09:59:08Z</time>
      </trkpt>
      <trkpt lat="42.3737" lon="2.1893">
        <ele>1426</ele>
        <time>2024-09-25T09:59:09Z</time>
      </trkpt>
      <trkpt lat="42.3737" lon="2.1893">
        <ele>1426.1</ele>
        <time>2024-09-25T09:59:10Z</time>
      </trkpt>
      <trkpt lat="42.3737" lon="2.1893">
        <ele>1426.1</ele>
        <time>2024-09-25T09:59:11Z</time>
      </trkpt>
      <trkpt lat="42.3737" lon="2.1893">
        <ele>1426.2</ele>
        <time>2024-09-25T09:59:12Z</time>
      </trkpt>
      <trkpt lat="42.3737" lon="2.1893">
        <ele>1426.2</ele>
        <time>2024-09-25T09:59:13Z</time>
      </trkpt>
      <trkpt lat="42.37371" lon="2.18931">
        <ele>1426.4</ele>
        <time>2024-09-25T09:59:14Z</time>
      </trkpt>
      <trkpt lat="42.37371" lon="2.18931">
        <ele>1426.5</ele>
        <time>2024-09-25T09:59:15Z</time>
      </trkpt>
      <trkpt lat="42.37372" lon="2.18932">
        <ele>1426.6</ele>
        <time>2024-09-25T09:59:16Z</time>
      </trkpt>
      <trkpt lat="42.37372" lon="2.18932">
        <ele>1426.7</ele>
        <time>2024-09-25T09:59:17Z</time>
      </trkpt>
      <trkpt lat="42.37372" lon="2.18933">
        <ele>1426.8</ele>
        <time>2024-09-25T09:59:18Z</time>
      </trkpt>
      <trkpt lat="42.37372" lon="2.18933">
        <ele>1427</ele>
        <time>2024-09-25T09:59:19Z</time>
      </trkpt>
      <trkpt lat="42.37373" lon="2.18934">
        <ele>1427.1</ele>
        <time>2024-09-25T09:59:20Z</time>
      </trkpt>
      <trkpt lat="42.37373" lon="2.18934">
        <ele>1427.2</ele>
        <time>2024-09-25T09:59:21Z</time>
      </trkpt>
      <trkpt lat="42.37374" lon="2.18934">
        <ele>1427.3</ele>
        <time>2024-09-25T09:59:22Z</time>
      </trkpt>
      <trkpt lat="42.37374" lon="2.18934">
        <ele>1427.4</ele>
        <time>2024-09-25T09:59:23Z</time>
      </trkpt>
      <trkpt lat="42.37375" lon="2.18934">
        <ele>1427.5</ele>
        <time>2024-09-25T09:59:24Z</time>
      </trkpt>
      <trkpt lat="42.37375" lon="2.18935">
        <ele>1427.6</ele>
        <time>2024-09-25T09:59:25Z</time>
      </trkpt>
      <trkpt lat="42.37375" lon="2.18935">
        <ele>1427.7</ele>
        <time>2024-09-25T09:59:26Z</time>
      </trkpt>
      <trkpt lat="42.37375" lon="2.18935">
        <ele>1427.8</ele>
        <time>2024-09-25T09:59:27Z</time>
      </trkpt>
      <trkpt lat="42.37376" lon="2.18936">
        <ele>1427.9</ele>
        <time>2024-09-25T09:59:28Z</time>
      </trkpt>
      <trkpt lat="42.37376" lon="2.18936">
        <ele>1428</ele>
        <time>2024-09-25T09:59:29Z</time>
      </trkpt>
      <trkpt lat="42.37376" lon="2.18936">
        <ele>1428.1</ele>
        <time>2024-09-25T09:59:30Z</time>
      </trkpt>
      <trkpt lat="42.37377" lon="2.18937">
        <ele>1428.2</ele>
        <time>2024-09-25T09:59:31Z</time>
      </trkpt>
      <trkpt lat="42.37377" lon="2.18937">
        <ele>1428.3</ele>
        <time>2024-09-25T09:59:32Z</time>
      </trkpt>
      <trkpt lat="42.37377" lon="2.18937">
        <ele>1428.4</ele>
        <time>2024-09-25T09:59:33Z</time>
      </trkpt>
      <trkpt lat="42.37378" lon="2.18938">
        <ele>1428.5</ele>
        <time>2024-09-25T09:59:34Z</time>
      </trkpt>
      <trkpt lat="42.37378" lon="2.18938">
        <ele>1428.5</ele>
        <time>2024-09-25T09:59:35Z</time>
      </trkpt>
      <trkpt lat="42.37378" lon="2.18938">
        <ele>1428.6</ele>
        <time>2024-09-25T09:59:36Z</time>
      </trkpt>
      <trkpt lat="42.37378" lon="2.18938">
        <ele>1428.7</ele>
        <time>2024-09-25T09:59:37Z</time>
      </trkpt>
      <trkpt lat="42.37379" lon="2.18938">
        <ele>1428.8</ele>
        <time>2024-09-25T09:59:38Z</time>
      </trkpt>
      <trkpt lat="42.37379" lon="2.18938">
        <ele>1428.9</ele>
        <time>2024-09-25T09:59:39Z</time>
      </trkpt>
      <trkpt lat="42.3738" lon="2.18938">
        <ele>1429</ele>
        <time>2024-09-25T09:59:40Z</time>
      </trkpt>
      <trkpt lat="42.3738" lon="2.18939">
        <ele>1429.2</ele>
        <time>2024-09-25T09:59:41Z</time>
      </trkpt>
      <trkpt lat="42.37381" lon="2.18939">
        <ele>1429.4</ele>
        <time>2024-09-25T09:59:42Z</time>
      </trkpt>
      <trkpt lat="42.37382" lon="2.1894">
        <ele>1429.6</ele>
        <time>2024-09-25T09:59:43Z</time>
      </trkpt>
      <trkpt lat="42.37382" lon="2.1894">
        <ele>1429.8</ele>
        <time>2024-09-25T09:59:44Z</time>
      </trkpt>
      <trkpt lat="42.37383" lon="2.18941">
        <ele>1430</ele>
        <time>2024-09-25T09:59:45Z</time>
      </trkpt>
      <trkpt lat="42.37384" lon="2.18941">
        <ele>1430.1</ele>
        <time>2024-09-25T09:59:46Z</time>
      </trkpt>
      <trkpt lat="42.37384" lon="2.18942">
        <ele>1430.2</ele>
        <time>2024-09-25T09:59:47Z</time>
      </trkpt>
      <trkpt lat="42.37384" lon="2.18942">
        <ele>1430.4</ele>
        <time>2024-09-25T09:59:48Z</time>
      </trkpt>
      <trkpt lat="42.37385" lon="2.18942">
        <ele>1430.4</ele>
        <time>2024-09-25T09:59:49Z</time>
      </trkpt>
      <trkpt lat="42.37385" lon="2.18943">
        <ele>1430.6</ele>
        <time>2024-09-25T09:59:50Z</time>
      </trkpt>
      <trkpt lat="42.37386" lon="2.18943">
        <ele>1430.7</ele>
        <time>2024-09-25T09:59:51Z</time>
      </trkpt>
      <trkpt lat="42.37386" lon="2.18944">
        <ele>1430.9</ele>
        <time>2024-09-25T09:59:52Z</time>
      </trkpt>
      <trkpt lat="42.37386" lon="2.18945">
        <ele>1431</ele>
        <time>2024-09-25T09:59:53Z</time>
      </trkpt>
      <trkpt lat="42.37386" lon="2.18946">
        <ele>1431.2</ele>
        <time>2024-09-25T09:59:54Z</time>
      </trkpt>
      <trkpt lat="42.37387" lon="2.18947">
        <ele>1431.3</ele>
        <time>2024-09-25T09:59:55Z</time>
      </trkpt>
      <trkpt lat="42.37387" lon="2.18948">
        <ele>1431.5</ele>
        <time>2024-09-25T09:59:56Z</time>
      </trkpt>
      <trkpt lat="42.37387" lon="2.18949">
        <ele>1431.7</ele>
        <time>2024-09-25T09:59:57Z</time>
      </trkpt>
      <trkpt lat="42.37387" lon="2.18949">
        <ele>1431.7</ele>
        <time>2024-09-25T09:59:58Z</time>
      </trkpt>
      <trkpt lat="42.37387" lon="2.18949">
        <ele>1431.8</ele>
        <time>2024-09-25T09:59:59Z</time>
      </trkpt>
      <trkpt lat="42.37387" lon="2.1895">
        <ele>1431.8</ele>
        <time>2024-09-25T10:00:00Z</time>
      </trkpt>
      <trkpt lat="42.37386" lon="2.1895">
        <ele>1431.9</ele>
        <time>2024-09-25T10:00:01Z</time>
      </trkpt>
      <trkpt lat="42.37386" lon="2.1895">
        <ele>1431.9</ele>
        <time>2024-09-25T10:00:02Z</time>
      </trkpt>
      <trkpt lat="42.37387" lon="2.1895">
        <ele>1431.9</ele>
        <time>2024-09-25T10:00:03Z</time>
      </trkpt>
      <trkpt lat="42.37386" lon="2.1895">
        <ele>1431.9</ele>
        <time>2024-09-25T10:00:04Z</time>
      </trkpt>
      <trkpt lat="42.37386" lon="2.1895">
        <ele>1431.9</ele>
        <time>2024-09-25T10:00:05Z</time>
      </trkpt>
      <trkpt lat="42.37386" lon="2.1895">
        <ele>1431.9</ele>
        <time>2024-09-25T10:00:06Z</time>
      </trkpt>
      <trkpt lat="42.37386" lon="2.1895">
        <ele>1431.9</ele>
        <time>2024-09-25T10:00:07Z</time>
      </trkpt>
      <trkpt lat="42.37387" lon="2.1895">
        <ele>1432</ele>
        <time>2024-09-25T10:00:08Z</time>
      </trkpt>
      <trkpt lat="42.37387" lon="2.1895">
        <ele>1432</ele>
        <time>2024-09-25T10:00:09Z</time>
      </trkpt>
      <trkpt lat="42.37386" lon="2.1895">
        <ele>1432</ele>
        <time>2024-09-25T10:00:10Z</time>
      </trkpt>
      <trkpt lat="42.37387" lon="2.1895">
        <ele>1432</ele>
        <time>2024-09-25T10:00:11Z</time>
      </trkpt>
      <trkpt lat="42.37387" lon="2.1895">
        <ele>1432</ele>
        <time>2024-09-25T10:00:12Z</time>
      </trkpt>
      <trkpt lat="42.37387" lon="2.1895">
        <ele>1432.1</ele>
        <time>2024-09-25T10:00:13Z</time>
      </trkpt>
      <trkpt lat="42.37387" lon="2.18951">
        <ele>1432.1</ele>
        <time>2024-09-25T10:00:14Z</time>
      </trkpt>
      <trkpt lat="42.37387" lon="2.18951">
        <ele>1432.1</ele>
        <time>2024-09-25T10:00:15Z</time>
      </trkpt>
      <trkpt lat="42.37387" lon="2.18951">
        <ele>1432.2</ele>
        <time>2024-09-25T10:00:16Z</time>
      </trkpt>
      <trkpt lat="42.37387" lon="2.18951">
        <ele>1432.2</ele>
        <time>2024-09-25T10:00:17Z</time>
      </trkpt>
      <trkpt lat="42.37387" lon="2.18951">
        <ele>1432.2</ele>
        <time>2024-09-25T10:00:18Z</time>
      </trkpt>
      <trkpt lat="42.37387" lon="2.18951">
        <ele>1432.2</ele>
        <time>2024-09-25T10:00:19Z</time>
      </trkpt>
      <trkpt lat="42.37387" lon="2.18951">
        <ele>1432.3</ele>
        <time>2024-09-25T10:00:20Z</time>
      </trkpt>
      <trkpt lat="42.37387" lon="2.18951">
        <ele>1432.3</ele>
        <time>2024-09-25T10:00:21Z</time>
      </trkpt>
      <trkpt lat="42.37387" lon="2.18951">
        <ele>1432.3</ele>
        <time>2024-09-25T10:00:22Z</time>
      </trkpt>
      <trkpt lat="42.37387" lon="2.18951">
        <ele>1432.3</ele>
        <time>2024-09-25T10:00:23Z</time>
      </trkpt>
      <trkpt lat="42.37387" lon="2.18951">
        <ele>1432.3</ele>
        <time>2024-09-25T10:00:24Z</time>
      </trkpt>
      <trkpt lat="42.37387" lon="2.18951">
        <ele>1432.3</ele>
        <time>2024-09-25T10:00:25Z</time>
      </trkpt>
      <trkpt lat="42.37387" lon="2.18951">
        <ele>1432.3</ele>
        <time>2024-09-25T10:00:26Z</time>
      </trkpt>
      <trkpt lat="42.37387" lon="2.18951">
        <ele>1432.4</ele>
        <time>2024-09-25T10:00:27Z</time>
      </trkpt>
      <trkpt lat="42.37387" lon="2.18951">
        <ele>1432.4</ele>
        <time>2024-09-25T10:00:28Z</time>
      </trkpt>
      <trkpt lat="42.37387" lon="2.18951">
        <ele>1432.4</ele>
        <time>2024-09-25T10:00:29Z</time>
      </trkpt>
      <trkpt lat="42.37387" lon="2.18951">
        <ele>1432.4</ele>
        <time>2024-09-25T10:00:30Z</time>
      </trkpt>
      <trkpt lat="42.37387" lon="2.18951">
        <ele>1432.4</ele>
        <time>2024-09-25T10:00:31Z</time>
      </trkpt>
      <trkpt lat="42.37387" lon="2.18951">
        <ele>1432.4</ele>
        <time>2024-09-25T10:00:32Z</time>
      </trkpt>
      <trkpt lat="42.37387" lon="2.18951">
        <ele>1432.4</ele>
        <time>2024-09-25T10:00:33Z</time>
      </trkpt>
      <trkpt lat="42.37387" lon="2.18951">
        <ele>1432.4</ele>
        <time>2024-09-25T10:00:34Z</time>
      </trkpt>
      <trkpt lat="42.37387" lon="2.18951">
        <ele>1432.4</ele>
        <time>2024-09-25T10:00:35Z</time>
      </trkpt>
      <trkpt lat="42.37387" lon="2.18951">
        <ele>1432.4</ele>
        <time>2024-09-25T10:00:36Z</time>
      </trkpt>
      <trkpt lat="42.37387" lon="2.18951">
        <ele>1432.4</ele>
        <time>2024-09-25T10:00:37Z</time>
      </trkpt>
      <trkpt lat="42.37387" lon="2.18951">
        <ele>1432.4</ele>
        <time>2024-09-25T10:00:38Z</time>
      </trkpt>
      <trkpt lat="42.37387" lon="2.18951">
        <ele>1432.4</ele>
        <time>2024-09-25T10:00:39Z</time>
      </trkpt>
      <trkpt lat="42.37387" lon="2.18951">
        <ele>1432.4</ele>
        <time>2024-09-25T10:00:40Z</time>
      </trkpt>
      <trkpt lat="42.37387" lon="2.18951">
        <ele>1432.4</ele>
        <time>2024-09-25T10:00:41Z</time>
      </trkpt>
      <trkpt lat="42.37387" lon="2.18951">
        <ele>1432.4</ele>
        <time>2024-09-25T10:00:42Z</time>
      </trkpt>
      <trkpt lat="42.37387" lon="2.18951">
        <ele>1432.4</ele>
        <time>2024-09-25T10:00:44Z</time>
      </trkpt>
      <trkpt lat="42.37387" lon="2.18951">
        <ele>1432.4</ele>
        <time>2024-09-25T10:00:45Z</time>
      </trkpt>
      <trkpt lat="42.37387" lon="2.18951">
        <ele>1432.4</ele>
        <time>2024-09-25T10:00:46Z</time>
      </trkpt>
      <trkpt lat="42.37387" lon="2.18951">
        <ele>1432.4</ele>
        <time>2024-09-25T10:00:47Z</time>
      </trkpt>
      <trkpt lat="42.37387" lon="2.18951">
        <ele>1432.5</ele>
        <time>2024-09-25T10:00:48Z</time>
      </trkpt>
      <trkpt lat="42.37387" lon="2.18951">
        <ele>1432.5</ele>
        <time>2024-09-25T10:00:49Z</time>
      </trkpt>
      <trkpt lat="42.37387" lon="2.18951">
        <ele>1432.5</ele>
        <time>2024-09-25T10:00:50Z</time>
      </trkpt>
      <trkpt lat="42.37387" lon="2.18951">
        <ele>1432.5</ele>
        <time>2024-09-25T10:00:51Z</time>
      </trkpt>
      <trkpt lat="42.37387" lon="2.18951">
        <ele>1432.5</ele>
        <time>2024-09-25T10:00:52Z</time>
      </trkpt>
      <trkpt lat="42.37387" lon="2.18951">
        <ele>1432.5</ele>
        <time>2024-09-25T10:00:53Z</time>
      </trkpt>
      <trkpt lat="42.37387" lon="2.18951">
        <ele>1432.5</ele>
        <time>2024-09-25T10:00:54Z</time>
      </trkpt>
      <trkpt lat="42.37387" lon="2.18951">
        <ele>1432.5</ele>
        <time>2024-09-25T10:00:55Z</time>
      </trkpt>
      <trkpt lat="42.37387" lon="2.18951">
        <ele>1432.5</ele>
        <time>2024-09-25T10:00:56Z</time>
      </trkpt>
      <trkpt lat="42.37388" lon="2.18951">
        <ele>1432.5</ele>
        <time>2024-09-25T10:00:57Z</time>
      </trkpt>
      <trkpt lat="42.37388" lon="2.18951">
        <ele>1432.5</ele>
        <time>2024-09-25T10:00:58Z</time>
      </trkpt>
      <trkpt lat="42.37388" lon="2.18951">
        <ele>1432.5</ele>
        <time>2024-09-25T10:00:59Z</time>
      </trkpt>
      <trkpt lat="42.37387" lon="2.18951">
        <ele>1432.5</ele>
        <time>2024-09-25T10:01:00Z</time>
      </trkpt>
      <trkpt lat="42.37388" lon="2.18951">
        <ele>1432.6</ele>
        <time>2024-09-25T10:01:01Z</time>
      </trkpt>
      <trkpt lat="42.37388" lon="2.1895">
        <ele>1432.6</ele>
        <time>2024-09-25T10:01:02Z</time>
      </trkpt>
      <trkpt lat="42.37388" lon="2.18951">
        <ele>1432.6</ele>
        <time>2024-09-25T10:01:03Z</time>
      </trkpt>
      <trkpt lat="42.37388" lon="2.18951">
        <ele>1432.7</ele>
        <time>2024-09-25T10:01:04Z</time>
      </trkpt>
      <trkpt lat="42.37388" lon="2.18951">
        <ele>1432.7</ele>
        <time>2024-09-25T10:01:05Z</time>
      </trkpt>
      <trkpt lat="42.37388" lon="2.18951">
        <ele>1432.7</ele>
        <time>2024-09-25T10:01:06Z</time>
      </trkpt>
      <trkpt lat="42.37388" lon="2.18952">
        <ele>1432.8</ele>
        <time>2024-09-25T10:01:07Z</time>
      </trkpt>
      <trkpt lat="42.37388" lon="2.18952">
        <ele>1432.9</ele>
        <time>2024-09-25T10:01:08Z</time>
      </trkpt>
      <trkpt lat="42.37388" lon="2.18952">
        <ele>1432.9</ele>
        <time>2024-09-25T10:01:09Z</time>
      </trkpt>
      <trkpt lat="42.37389" lon="2.18952">
        <ele>1433</ele>
        <time>2024-09-25T10:01:10Z</time>
      </trkpt>
      <trkpt lat="42.37389" lon="2.18953">
        <ele>1433.1</ele>
        <time>2024-09-25T10:01:11Z</time>
      </trkpt>
      <trkpt lat="42.3739" lon="2.18953">
        <ele>1433.2</ele>
        <time>2024-09-25T10:01:12Z</time>
      </trkpt>
      <trkpt lat="42.3739" lon="2.18953">
        <ele>1433.2</ele>
        <time>2024-09-25T10:01:13Z</time>
      </trkpt>
      <trkpt lat="42.3739" lon="2.18953">
        <ele>1433.3</ele>
        <time>2024-09-25T10:01:14Z</time>
      </trkpt>
      <trkpt lat="42.3739" lon="2.18953">
        <ele>1433.4</ele>
        <time>2024-09-25T10:01:15Z</time>
      </trkpt>
      <trkpt lat="42.37391" lon="2.18954">
        <ele>1433.4</ele>
        <time>2024-09-25T10:01:16Z</time>
      </trkpt>
      <trkpt lat="42.37391" lon="2.18954">
        <ele>1433.6</ele>
        <time>2024-09-25T10:01:17Z</time>
      </trkpt>
      <trkpt lat="42.37391" lon="2.18955">
        <ele>1433.7</ele>
        <time>2024-09-25T10:01:18Z</time>
      </trkpt>
      <trkpt lat="42.37392" lon="2.18955">
        <ele>1433.8</ele>
        <time>2024-09-25T10:01:19Z</time>
      </trkpt>
      <trkpt lat="42.37393" lon="2.18956">
        <ele>1434</ele>
        <time>2024-09-25T10:01:20Z</time>
      </trkpt>
      <trkpt lat="42.37394" lon="2.18956">
        <ele>1434.3</ele>
        <time>2024-09-25T10:01:21Z</time>
      </trkpt>
      <trkpt lat="42.37395" lon="2.18956">
        <ele>1434.4</ele>
        <time>2024-09-25T10:01:22Z</time>
      </trkpt>
      <trkpt lat="42.37396" lon="2.18956">
        <ele>1434.6</ele>
        <time>2024-09-25T10:01:23Z</time>
      </trkpt>
      <trkpt lat="42.37397" lon="2.18956">
        <ele>1434.7</ele>
        <time>2024-09-25T10:01:24Z</time>
      </trkpt>
      <trkpt lat="42.37397" lon="2.18957">
        <ele>1434.9</ele>
        <time>2024-09-25T10:01:25Z</time>
      </trkpt>
      <trkpt lat="42.37398" lon="2.18957">
        <ele>1435</ele>
        <time>2024-09-25T10:01:26Z</time>
      </trkpt>
      <trkpt lat="42.37399" lon="2.18957">
        <ele>1435.2</ele>
        <time>2024-09-25T10:01:27Z</time>
      </trkpt>
      <trkpt lat="42.37399" lon="2.18957">
        <ele>1435.3</ele>
        <time>2024-09-25T10:01:28Z</time>
      </trkpt>
      <trkpt lat="42.374" lon="2.18957">
        <ele>1435.4</ele>
        <time>2024-09-25T10:01:29Z</time>
      </trkpt>
      <trkpt lat="42.374" lon="2.18957">
        <ele>1435.5</ele>
        <time>2024-09-25T10:01:30Z</time>
      </trkpt>
      <trkpt lat="42.37401" lon="2.18956">
        <ele>1435.6</ele>
        <time>2024-09-25T10:01:31Z</time>
      </trkpt>
      <trkpt lat="42.37401" lon="2.18957">
        <ele>1435.7</ele>
        <time>2024-09-25T10:01:32Z</time>
      </trkpt>
      <trkpt lat="42.37402" lon="2.18957">
        <ele>1435.8</ele>
        <time>2024-09-25T10:01:33Z</time>
      </trkpt>
      <trkpt lat="42.37403" lon="2.18957">
        <ele>1435.9</ele>
        <time>2024-09-25T10:01:34Z</time>
      </trkpt>
      <trkpt lat="42.37403" lon="2.18958">
        <ele>1436</ele>
        <time>2024-09-25T10:01:35Z</time>
      </trkpt>
      <trkpt lat="42.37403" lon="2.18958">
        <ele>1436</ele>
        <time>2024-09-25T10:01:36Z</time>
      </trkpt>
      <trkpt lat="42.37404" lon="2.18958">
        <ele>1436.1</ele>
        <time>2024-09-25T10:01:37Z</time>
      </trkpt>
      <trkpt lat="42.37404" lon="2.18958">
        <ele>1436.2</ele>
        <time>2024-09-25T10:01:38Z</time>
      </trkpt>
      <trkpt lat="42.37405" lon="2.18958">
        <ele>1436.2</ele>
        <time>2024-09-25T10:01:39Z</time>
      </trkpt>
      <trkpt lat="42.37405" lon="2.18958">
        <ele>1436.3</ele>
        <time>2024-09-25T10:01:40Z</time>
      </trkpt>
      <trkpt lat="42.37406" lon="2.18958">
        <ele>1436.4</ele>
        <time>2024-09-25T10:01:41Z</time>
      </trkpt>
      <trkpt lat="42.37406" lon="2.18958">
        <ele>1436.4</ele>
        <time>2024-09-25T10:01:42Z</time>
      </trkpt>
      <trkpt lat="42.37407" lon="2.18958">
        <ele>1436.6</ele>
        <time>2024-09-25T10:01:43Z</time>
      </trkpt>
      <trkpt lat="42.37407" lon="2.18959">
        <ele>1436.7</ele>
        <time>2024-09-25T10:01:44Z</time>
      </trkpt>
      <trkpt lat="42.37408" lon="2.18959">
        <ele>1436.8</ele>
        <time>2024-09-25T10:01:45Z</time>
      </trkpt>
      <trkpt lat="42.37409" lon="2.18959">
        <ele>1436.9</ele>
        <time>2024-09-25T10:01:46Z</time>
      </trkpt>
      <trkpt lat="42.37409" lon="2.18959">
        <ele>1437</ele>
        <time>2024-09-25T10:01:47Z</time>
      </trkpt>
      <trkpt lat="42.3741" lon="2.18959">
        <ele>1437.1</ele>
        <time>2024-09-25T10:01:48Z</time>
      </trkpt>
      <trkpt lat="42.37411" lon="2.1896">
        <ele>1437.2</ele>
        <time>2024-09-25T10:01:49Z</time>
      </trkpt>
      <trkpt lat="42.37411" lon="2.18961">
        <ele>1437.3</ele>
        <time>2024-09-25T10:01:50Z</time>
      </trkpt>
      <trkpt lat="42.37411" lon="2.18962">
        <ele>1437.4</ele>
        <time>2024-09-25T10:01:51Z</time>
      </trkpt>
      <trkpt lat="42.37412" lon="2.18962">
        <ele>1437.5</ele>
        <time>2024-09-25T10:01:52Z</time>
      </trkpt>
      <trkpt lat="42.37412" lon="2.18963">
        <ele>1437.6</ele>
        <time>2024-09-25T10:01:53Z</time>
      </trkpt>
      <trkpt lat="42.37412" lon="2.18964">
        <ele>1437.7</ele>
        <time>2024-09-25T10:01:54Z</time>
      </trkpt>
      <trkpt lat="42.37413" lon="2.18964">
        <ele>1437.8</ele>
        <time>2024-09-25T10:01:55Z</time>
      </trkpt>
      <trkpt lat="42.37413" lon="2.18965">
        <ele>1437.9</ele>
        <time>2024-09-25T10:01:56Z</time>
      </trkpt>
      <trkpt lat="42.37414" lon="2.18965">
        <ele>1438</ele>
        <time>2024-09-25T10:01:57Z</time>
      </trkpt>
      <trkpt lat="42.37415" lon="2.18966">
        <ele>1438.1</ele>
        <time>2024-09-25T10:01:58Z</time>
      </trkpt>
      <trkpt lat="42.37415" lon="2.18967">
        <ele>1438.3</ele>
        <time>2024-09-25T10:01:59Z</time>
      </trkpt>
      <trkpt lat="42.37416" lon="2.18968">
        <ele>1438.4</ele>
        <time>2024-09-25T10:02:00Z</time>
      </trkpt>
      <trkpt lat="42.37416" lon="2.18968">
        <ele>1438.5</ele>
        <time>2024-09-25T10:02:01Z</time>
      </trkpt>
      <trkpt lat="42.37417" lon="2.18969">
        <ele>1438.6</ele>
        <time>2024-09-25T10:02:02Z</time>
      </trkpt>
      <trkpt lat="42.37417" lon="2.1897">
        <ele>1438.7</ele>
        <time>2024-09-25T10:02:03Z</time>
      </trkpt>
      <trkpt lat="42.37418" lon="2.18971">
        <ele>1438.8</ele>
        <time>2024-09-25T10:02:04Z</time>
      </trkpt>
      <trkpt lat="42.37418" lon="2.18971">
        <ele>1438.9</ele>
        <time>2024-09-25T10:02:05Z</time>
      </trkpt>
      <trkpt lat="42.37419" lon="2.18972">
        <ele>1439</ele>
        <time>2024-09-25T10:02:06Z</time>
      </trkpt>
      <trkpt lat="42.37419" lon="2.18973">
        <ele>1439.1</ele>
        <time>2024-09-25T10:02:07Z</time>
      </trkpt>
      <trkpt lat="42.37419" lon="2.18974">
        <ele>1439.2</ele>
        <time>2024-09-25T10:02:08Z</time>
      </trkpt>
      <trkpt lat="42.37418" lon="2.18974">
        <ele>1439.2</ele>
        <time>2024-09-25T10:02:09Z</time>
      </trkpt>
      <trkpt lat="42.37419" lon="2.18973">
        <ele>1439.3</ele>
        <time>2024-09-25T10:02:10Z</time>
      </trkpt>
      <trkpt lat="42.37419" lon="2.18973">
        <ele>1439.3</ele>
        <time>2024-09-25T10:02:11Z</time>
      </trkpt>
      <trkpt lat="42.37419" lon="2.18973">
        <ele>1439.4</ele>
        <time>2024-09-25T10:02:12Z</time>
      </trkpt>
      <trkpt lat="42.37419" lon="2.18973">
        <ele>1439.4</ele>
        <time>2024-09-25T10:02:13Z</time>
      </trkpt>
      <trkpt lat="42.3742" lon="2.18973">
        <ele>1439.4</ele>
        <time>2024-09-25T10:02:14Z</time>
      </trkpt>
      <trkpt lat="42.3742" lon="2.18973">
        <ele>1439.4</ele>
        <time>2024-09-25T10:02:15Z</time>
      </trkpt>
      <trkpt lat="42.3742" lon="2.18973">
        <ele>1439.4</ele>
        <time>2024-09-25T10:02:16Z</time>
      </trkpt>
      <trkpt lat="42.3742" lon="2.18973">
        <ele>1439.5</ele>
        <time>2024-09-25T10:02:17Z</time>
      </trkpt>
      <trkpt lat="42.3742" lon="2.18973">
        <ele>1439.5</ele>
        <time>2024-09-25T10:02:18Z</time>
      </trkpt>
      <trkpt lat="42.3742" lon="2.18973">
        <ele>1439.5</ele>
        <time>2024-09-25T10:02:19Z</time>
      </trkpt>
      <trkpt lat="42.3742" lon="2.18973">
        <ele>1439.5</ele>
        <time>2024-09-25T10:02:20Z</time>
      </trkpt>
      <trkpt lat="42.3742" lon="2.18972">
        <ele>1439.6</ele>
        <time>2024-09-25T10:02:21Z</time>
      </trkpt>
      <trkpt lat="42.37421" lon="2.18972">
        <ele>1439.6</ele>
        <time>2024-09-25T10:02:22Z</time>
      </trkpt>
      <trkpt lat="42.37422" lon="2.18972">
        <ele>1439.7</ele>
        <time>2024-09-25T10:02:23Z</time>
      </trkpt>
      <trkpt lat="42.37422" lon="2.18972">
        <ele>1439.8</ele>
        <time>2024-09-25T10:02:24Z</time>
      </trkpt>
      <trkpt lat="42.37423" lon="2.18972">
        <ele>1439.9</ele>
        <time>2024-09-25T10:02:25Z</time>
      </trkpt>
      <trkpt lat="42.37423" lon="2.18972">
        <ele>1439.9</ele>
        <time>2024-09-25T10:02:26Z</time>
      </trkpt>
      <trkpt lat="42.37423" lon="2.18973">
        <ele>1440</ele>
        <time>2024-09-25T10:02:27Z</time>
      </trkpt>
      <trkpt lat="42.37424" lon="2.18972">
        <ele>1440</ele>
        <time>2024-09-25T10:02:28Z</time>
      </trkpt>
      <trkpt lat="42.37424" lon="2.18972">
        <ele>1440</ele>
        <time>2024-09-25T10:02:29Z</time>
      </trkpt>
      <trkpt lat="42.37424" lon="2.18972">
        <ele>1440.1</ele>
        <time>2024-09-25T10:02:30Z</time>
      </trkpt>
      <trkpt lat="42.37424" lon="2.18972">
        <ele>1440.1</ele>
        <time>2024-09-25T10:02:31Z</time>
      </trkpt>
      <trkpt lat="42.37425" lon="2.18972">
        <ele>1440.2</ele>
        <time>2024-09-25T10:02:32Z</time>
      </trkpt>
      <trkpt lat="42.37425" lon="2.18972">
        <ele>1440.3</ele>
        <time>2024-09-25T10:02:33Z</time>
      </trkpt>
      <trkpt lat="42.37425" lon="2.18972">
        <ele>1440.3</ele>
        <time>2024-09-25T10:02:34Z</time>
      </trkpt>
      <trkpt lat="42.37425" lon="2.18972">
        <ele>1440.4</ele>
        <time>2024-09-25T10:02:35Z</time>
      </trkpt>
      <trkpt lat="42.37426" lon="2.18972">
        <ele>1440.4</ele>
        <time>2024-09-25T10:02:36Z</time>
      </trkpt>
      <trkpt lat="42.37426" lon="2.18973">
        <ele>1440.5</ele>
        <time>2024-09-25T10:02:37Z</time>
      </trkpt>
      <trkpt lat="42.37427" lon="2.18973">
        <ele>1440.6</ele>
        <time>2024-09-25T10:02:38Z</time>
      </trkpt>
      <trkpt lat="42.37427" lon="2.18973">
        <ele>1440.7</ele>
        <time>2024-09-25T10:02:39Z</time>
      </trkpt>
      <trkpt lat="42.37428" lon="2.18973">
        <ele>1440.8</ele>
        <time>2024-09-25T10:02:40Z</time>
      </trkpt>
      <trkpt lat="42.37428" lon="2.18974">
        <ele>1440.9</ele>
        <time>2024-09-25T10:02:41Z</time>
      </trkpt>
      <trkpt lat="42.37429" lon="2.18974">
        <ele>1441</ele>
        <time>2024-09-25T10:02:42Z</time>
      </trkpt>
      <trkpt lat="42.37429" lon="2.18975">
        <ele>1441</ele>
        <time>2024-09-25T10:02:43Z</time>
      </trkpt>
      <trkpt lat="42.3743" lon="2.18975">
        <ele>1441.2</ele>
        <time>2024-09-25T10:02:44Z</time>
      </trkpt>
      <trkpt lat="42.3743" lon="2.18976">
        <ele>1441.3</ele>
        <time>2024-09-25T10:02:45Z</time>
      </trkpt>
      <trkpt lat="42.37431" lon="2.18977">
        <ele>1441.4</ele>
        <time>2024-09-25T10:02:46Z</time>
      </trkpt>
      <trkpt lat="42.37431" lon="2.18977">
        <ele>1441.5</ele>
        <time>2024-09-25T10:02:47Z</time>
      </trkpt>
      <trkpt lat="42.37431" lon="2.18978">
        <ele>1441.5</ele>
        <time>2024-09-25T10:02:48Z</time>
      </trkpt>
      <trkpt lat="42.37431" lon="2.18978">
        <ele>1441.7</ele>
        <time>2024-09-25T10:02:49Z</time>
      </trkpt>
      <trkpt lat="42.37432" lon="2.18979">
        <ele>1441.8</ele>
        <time>2024-09-25T10:02:50Z</time>
      </trkpt>
      <trkpt lat="42.37432" lon="2.1898">
        <ele>1441.9</ele>
        <time>2024-09-25T10:02:51Z</time>
      </trkpt>
      <trkpt lat="42.37432" lon="2.1898">
        <ele>1442</ele>
        <time>2024-09-25T10:02:52Z</time>
      </trkpt>
      <trkpt lat="42.37433" lon="2.18981">
        <ele>1442.1</ele>
        <time>2024-09-25T10:02:53Z</time>
      </trkpt>
      <trkpt lat="42.37433" lon="2.18982">
        <ele>1442.2</ele>
        <time>2024-09-25T10:02:54Z</time>
      </trkpt>
      <trkpt lat="42.37433" lon="2.18982">
        <ele>1442.2</ele>
        <time>2024-09-25T10:02:55Z</time>
      </trkpt>
      <trkpt lat="42.37433" lon="2.18982">
        <ele>1442.3</ele>
        <time>2024-09-25T10:02:56Z</time>
      </trkpt>
      <trkpt lat="42.37434" lon="2.18983">
        <ele>1442.4</ele>
        <time>2024-09-25T10:02:57Z</time>
      </trkpt>
      <trkpt lat="42.37434" lon="2.18983">
        <ele>1442.5</ele>
        <time>2024-09-25T10:02:58Z</time>
      </trkpt>
      <trkpt lat="42.37434" lon="2.18984">
        <ele>1442.6</ele>
        <time>2024-09-25T10:02:59Z</time>
      </trkpt>
      <trkpt lat="42.37435" lon="2.18984">
        <ele>1442.7</ele>
        <time>2024-09-25T10:03:00Z</time>
      </trkpt>
      <trkpt lat="42.37435" lon="2.18984">
        <ele>1442.8</ele>
        <time>2024-09-25T10:03:01Z</time>
      </trkpt>
      <trkpt lat="42.37435" lon="2.18985">
        <ele>1442.9</ele>
        <time>2024-09-25T10:03:02Z</time>
      </trkpt>
      <trkpt lat="42.37436" lon="2.18985">
        <ele>1442.9</ele>
        <time>2024-09-25T10:03:03Z</time>
      </trkpt>
      <trkpt lat="42.37436" lon="2.18985">
        <ele>1443</ele>
        <time>2024-09-25T10:03:04Z</time>
      </trkpt>
      <trkpt lat="42.37437" lon="2.18985">
        <ele>1443.2</ele>
        <time>2024-09-25T10:03:05Z</time>
      </trkpt>
      <trkpt lat="42.37437" lon="2.18986">
        <ele>1443.2</ele>
        <time>2024-09-25T10:03:06Z</time>
      </trkpt>
      <trkpt lat="42.37438" lon="2.18986">
        <ele>1443.4</ele>
        <time>2024-09-25T10:03:07Z</time>
      </trkpt>
      <trkpt lat="42.37439" lon="2.18986">
        <ele>1443.6</ele>
        <time>2024-09-25T10:03:08Z</time>
      </trkpt>
      <trkpt lat="42.3744" lon="2.18986">
        <ele>1443.8</ele>
        <time>2024-09-25T10:03:09Z</time>
      </trkpt>
      <trkpt lat="42.3744" lon="2.18985">
        <ele>1444</ele>
        <time>2024-09-25T10:03:10Z</time>
      </trkpt>
      <trkpt lat="42.37441" lon="2.18985">
        <ele>1444.1</ele>
        <time>2024-09-25T10:03:11Z</time>
      </trkpt>
      <trkpt lat="42.37442" lon="2.18986">
        <ele>1444.2</ele>
        <time>2024-09-25T10:03:12Z</time>
      </trkpt>
      <trkpt lat="42.37442" lon="2.18986">
        <ele>1444.3</ele>
        <time>2024-09-25T10:03:13Z</time>
      </trkpt>
      <trkpt lat="42.37442" lon="2.18987">
        <ele>1444.5</ele>
        <time>2024-09-25T10:03:14Z</time>
      </trkpt>
      <trkpt lat="42.37442" lon="2.18989">
        <ele>1444.7</ele>
        <time>2024-09-25T10:03:15Z</time>
      </trkpt>
      <trkpt lat="42.37442" lon="2.1899">
        <ele>1444.8</ele>
        <time>2024-09-25T10:03:16Z</time>
      </trkpt>
      <trkpt lat="42.37443" lon="2.1899">
        <ele>1445</ele>
        <time>2024-09-25T10:03:17Z</time>
      </trkpt>
      <trkpt lat="42.37444" lon="2.1899">
        <ele>1445.2</ele>
        <time>2024-09-25T10:03:18Z</time>
      </trkpt>
      <trkpt lat="42.37445" lon="2.18991">
        <ele>1445.4</ele>
        <time>2024-09-25T10:03:19Z</time>
      </trkpt>
      <trkpt lat="42.37445" lon="2.18992">
        <ele>1445.4</ele>
        <time>2024-09-25T10:03:20Z</time>
      </trkpt>
      <trkpt lat="42.37445" lon="2.18992">
        <ele>1445.5</ele>
        <time>2024-09-25T10:03:21Z</time>
      </trkpt>
      <trkpt lat="42.37445" lon="2.18992">
        <ele>1445.6</ele>
        <time>2024-09-25T10:03:22Z</time>
      </trkpt>
      <trkpt lat="42.37446" lon="2.18992">
        <ele>1445.7</ele>
        <time>2024-09-25T10:03:23Z</time>
      </trkpt>
      <trkpt lat="42.37447" lon="2.18993">
        <ele>1445.9</ele>
        <time>2024-09-25T10:03:24Z</time>
      </trkpt>
      <trkpt lat="42.37447" lon="2.18994">
        <ele>1446</ele>
        <time>2024-09-25T10:03:25Z</time>
      </trkpt>
      <trkpt lat="42.37448" lon="2.18995">
        <ele>1446.2</ele>
        <time>2024-09-25T10:03:26Z</time>
      </trkpt>
      <trkpt lat="42.37449" lon="2.18996">
        <ele>1446.3</ele>
        <time>2024-09-25T10:03:27Z</time>
      </trkpt>
      <trkpt lat="42.37449" lon="2.18997">
        <ele>1446.5</ele>
        <time>2024-09-25T10:03:28Z</time>
      </trkpt>
      <trkpt lat="42.37448" lon="2.18998">
        <ele>1446.6</ele>
        <time>2024-09-25T10:03:29Z</time>
      </trkpt>
      <trkpt lat="42.37447" lon="2.18998">
        <ele>1446.7</ele>
        <time>2024-09-25T10:03:30Z</time>
      </trkpt>
      <trkpt lat="42.37447" lon="2.18998">
        <ele>1446.8</ele>
        <time>2024-09-25T10:03:31Z</time>
      </trkpt>
      <trkpt lat="42.37446" lon="2.18999">
        <ele>1446.9</ele>
        <time>2024-09-25T10:03:33Z</time>
      </trkpt>
      <trkpt lat="42.37446" lon="2.18999">
        <ele>1446.9</ele>
        <time>2024-09-25T10:03:34Z</time>
      </trkpt>
      <trkpt lat="42.37446" lon="2.18999">
        <ele>1447</ele>
        <time>2024-09-25T10:03:35Z</time>
      </trkpt>
      <trkpt lat="42.37446" lon="2.18999">
        <ele>1447</ele>
        <time>2024-09-25T10:03:36Z</time>
      </trkpt>
      <trkpt lat="42.37445" lon="2.18999">
        <ele>1447.1</ele>
        <time>2024-09-25T10:03:37Z</time>
      </trkpt>
      <trkpt lat="42.37445" lon="2.18999">
        <ele>1447.1</ele>
        <time>2024-09-25T10:03:38Z</time>
      </trkpt>
      <trkpt lat="42.37445" lon="2.18999">
        <ele>1447.1</ele>
        <time>2024-09-25T10:03:39Z</time>
      </trkpt>
      <trkpt lat="42.37445" lon="2.18999">
        <ele>1447.1</ele>
        <time>2024-09-25T10:03:40Z</time>
      </trkpt>
      <trkpt lat="42.37444" lon="2.18999">
        <ele>1447.2</ele>
        <time>2024-09-25T10:03:41Z</time>
      </trkpt>
      <trkpt lat="42.37445" lon="2.18999">
        <ele>1447.2</ele>
        <time>2024-09-25T10:03:42Z</time>
      </trkpt>
      <trkpt lat="42.37444" lon="2.18998">
        <ele>1447.2</ele>
        <time>2024-09-25T10:03:43Z</time>
      </trkpt>
      <trkpt lat="42.37444" lon="2.18998">
        <ele>1447.2</ele>
        <time>2024-09-25T10:03:44Z</time>
      </trkpt>
      <trkpt lat="42.37444" lon="2.18998">
        <ele>1447.2</ele>
        <time>2024-09-25T10:03:45Z</time>
      </trkpt>
      <trkpt lat="42.37444" lon="2.18998">
        <ele>1447.3</ele>
        <time>2024-09-25T10:03:46Z</time>
      </trkpt>
      <trkpt lat="42.37444" lon="2.18998">
        <ele>1447.3</ele>
        <time>2024-09-25T10:03:47Z</time>
      </trkpt>
      <trkpt lat="42.37444" lon="2.18998">
        <ele>1447.3</ele>
        <time>2024-09-25T10:03:48Z</time>
      </trkpt>
      <trkpt lat="42.37444" lon="2.18998">
        <ele>1447.3</ele>
        <time>2024-09-25T10:03:49Z</time>
      </trkpt>
      <trkpt lat="42.37444" lon="2.18998">
        <ele>1447.3</ele>
        <time>2024-09-25T10:03:50Z</time>
      </trkpt>
      <trkpt lat="42.37443" lon="2.18997">
        <ele>1447.3</ele>
        <time>2024-09-25T10:03:51Z</time>
      </trkpt>
      <trkpt lat="42.37443" lon="2.18998">
        <ele>1447.4</ele>
        <time>2024-09-25T10:03:52Z</time>
      </trkpt>
      <trkpt lat="42.37443" lon="2.18998">
        <ele>1447.4</ele>
        <time>2024-09-25T10:03:53Z</time>
      </trkpt>
      <trkpt lat="42.37443" lon="2.18998">
        <ele>1447.4</ele>
        <time>2024-09-25T10:03:54Z</time>
      </trkpt>
      <trkpt lat="42.37442" lon="2.18998">
        <ele>1447.4</ele>
        <time>2024-09-25T10:03:55Z</time>
      </trkpt>
      <trkpt lat="42.37442" lon="2.18998">
        <ele>1447.5</ele>
        <time>2024-09-25T10:03:56Z</time>
      </trkpt>
      <trkpt lat="42.37442" lon="2.18998">
        <ele>1447.5</ele>
        <time>2024-09-25T10:03:57Z</time>
      </trkpt>
      <trkpt lat="42.37442" lon="2.18998">
        <ele>1447.5</ele>
        <time>2024-09-25T10:03:58Z</time>
      </trkpt>
      <trkpt lat="42.37442" lon="2.18998">
        <ele>1447.5</ele>
        <time>2024-09-25T10:03:59Z</time>
      </trkpt>
      <trkpt lat="42.37442" lon="2.18998">
        <ele>1447.5</ele>
        <time>2024-09-25T10:04:00Z</time>
      </trkpt>
      <trkpt lat="42.37442" lon="2.18998">
        <ele>1447.5</ele>
        <time>2024-09-25T10:04:01Z</time>
      </trkpt>
      <trkpt lat="42.37442" lon="2.18998">
        <ele>1447.5</ele>
        <time>2024-09-25T10:04:02Z</time>
      </trkpt>
      <trkpt lat="42.37442" lon="2.18998">
        <ele>1447.5</ele>
        <time>2024-09-25T10:04:03Z</time>
      </trkpt>
      <trkpt lat="42.37442" lon="2.18998">
        <ele>1447.5</ele>
        <time>2024-09-25T10:04:04Z</time>
      </trkpt>
      <trkpt lat="42.37442" lon="2.18998">
        <ele>1447.5</ele>
        <time>2024-09-25T10:04:05Z</time>
      </trkpt>
      <trkpt lat="42.37442" lon="2.18998">
        <ele>1447.5</ele>
        <time>2024-09-25T10:04:06Z</time>
      </trkpt>
      <trkpt lat="42.37442" lon="2.18998">
        <ele>1447.5</ele>
        <time>2024-09-25T10:04:07Z</time>
      </trkpt>
      <trkpt lat="42.37442" lon="2.18998">
        <ele>1447.5</ele>
        <time>2024-09-25T10:04:08Z</time>
      </trkpt>
      <trkpt lat="42.37442" lon="2.18998">
        <ele>1447.5</ele>
        <time>2024-09-25T10:04:09Z</time>
      </trkpt>
      <trkpt lat="42.37442" lon="2.18998">
        <ele>1447.5</ele>
        <time>2024-09-25T10:04:10Z</time>
      </trkpt>
      <trkpt lat="42.37442" lon="2.18998">
        <ele>1447.5</ele>
        <time>2024-09-25T10:04:11Z</time>
      </trkpt>
      <trkpt lat="42.37442" lon="2.18998">
        <ele>1447.5</ele>
        <time>2024-09-25T10:04:12Z</time>
      </trkpt>
      <trkpt lat="42.37442" lon="2.18998">
        <ele>1447.5</ele>
        <time>2024-09-25T10:04:13Z</time>
      </trkpt>
      <trkpt lat="42.37442" lon="2.18998">
        <ele>1447.5</ele>
        <time>2024-09-25T10:04:14Z</time>
      </trkpt>
      <trkpt lat="42.37442" lon="2.18998">
        <ele>1447.5</ele>
        <time>2024-09-25T10:04:15Z</time>
      </trkpt>
      <trkpt lat="42.37442" lon="2.18998">
        <ele>1447.5</ele>
        <time>2024-09-25T10:04:16Z</time>
      </trkpt>
      <trkpt lat="42.37442" lon="2.18998">
        <ele>1447.5</ele>
        <time>2024-09-25T10:04:17Z</time>
      </trkpt>
      <trkpt lat="42.37442" lon="2.18998">
        <ele>1447.5</ele>
        <time>2024-09-25T10:04:18Z</time>
      </trkpt>
      <trkpt lat="42.37442" lon="2.18998">
        <ele>1447.5</ele>
        <time>2024-09-25T10:04:19Z</time>
      </trkpt>
      <trkpt lat="42.37442" lon="2.18998">
        <ele>1447.5</ele>
        <time>2024-09-25T10:04:20Z</time>
      </trkpt>
      <trkpt lat="42.37442" lon="2.18998">
        <ele>1447.5</ele>
        <time>2024-09-25T10:04:21Z</time>
      </trkpt>
      <trkpt lat="42.37442" lon="2.18998">
        <ele>1447.6</ele>
        <time>2024-09-25T10:04:22Z</time>
      </trkpt>
      <trkpt lat="42.37441" lon="2.18998">
        <ele>1447.6</ele>
        <time>2024-09-25T10:04:23Z</time>
      </trkpt>
      <trkpt lat="42.3744" lon="2.18998">
        <ele>1447.7</ele>
        <time>2024-09-25T10:04:24Z</time>
      </trkpt>
      <trkpt lat="42.3744" lon="2.18998">
        <ele>1447.7</ele>
        <time>2024-09-25T10:04:25Z</time>
      </trkpt>
      <trkpt lat="42.3744" lon="2.18999">
        <ele>1447.7</ele>
        <time>2024-09-25T10:04:26Z</time>
      </trkpt>
      <trkpt lat="42.3744" lon="2.18999">
        <ele>1447.7</ele>
        <time>2024-09-25T10:04:27Z</time>
      </trkpt>
      <trkpt lat="42.3744" lon="2.18999">
        <ele>1447.7</ele>
        <time>2024-09-25T10:04:28Z</time>
      </trkpt>
      <trkpt lat="42.3744" lon="2.19">
        <ele>1447.8</ele>
        <time>2024-09-25T10:04:29Z</time>
      </trkpt>
      <trkpt lat="42.3744" lon="2.18999">
        <ele>1447.8</ele>
        <time>2024-09-25T10:04:30Z</time>
      </trkpt>
      <trkpt lat="42.3744" lon="2.18999">
        <ele>1447.8</ele>
        <time>2024-09-25T10:04:31Z</time>
      </trkpt>
      <trkpt lat="42.3744" lon="2.18999">
        <ele>1447.8</ele>
        <time>2024-09-25T10:04:32Z</time>
      </trkpt>
      <trkpt lat="42.3744" lon="2.18999">
        <ele>1447.8</ele>
        <time>2024-09-25T10:04:33Z</time>
      </trkpt>
      <trkpt lat="42.3744" lon="2.18999">
        <ele>1447.8</ele>
        <time>2024-09-25T10:04:34Z</time>
      </trkpt>
      <trkpt lat="42.3744" lon="2.18999">
        <ele>1447.8</ele>
        <time>2024-09-25T10:04:35Z</time>
      </trkpt>
      <trkpt lat="42.3744" lon="2.18999">
        <ele>1447.8</ele>
        <time>2024-09-25T10:04:36Z</time>
      </trkpt>
      <trkpt lat="42.3744" lon="2.18999">
        <ele>1447.8</ele>
        <time>2024-09-25T10:04:37Z</time>
      </trkpt>
      <trkpt lat="42.3744" lon="2.18999">
        <ele>1447.8</ele>
        <time>2024-09-25T10:04:38Z</time>
      </trkpt>
      <trkpt lat="42.3744" lon="2.18999">
        <ele>1447.8</ele>
        <time>2024-09-25T10:04:39Z</time>
      </trkpt>
      <trkpt lat="42.3744" lon="2.18999">
        <ele>1447.8</ele>
        <time>2024-09-25T10:04:40Z</time>
      </trkpt>
      <trkpt lat="42.3744" lon="2.18999">
        <ele>1447.8</ele>
        <time>2024-09-25T10:04:41Z</time>
      </trkpt>
      <trkpt lat="42.3744" lon="2.18999">
        <ele>1447.8</ele>
        <time>2024-09-25T10:04:42Z</time>
      </trkpt>
      <trkpt lat="42.3744" lon="2.18999">
        <ele>1447.8</ele>
        <time>2024-09-25T10:04:43Z</time>
      </trkpt>
      <trkpt lat="42.3744" lon="2.18999">
        <ele>1447.8</ele>
        <time>2024-09-25T10:04:44Z</time>
      </trkpt>
      <trkpt lat="42.3744" lon="2.18999">
        <ele>1447.8</ele>
        <time>2024-09-25T10:04:45Z</time>
      </trkpt>
      <trkpt lat="42.3744" lon="2.19">
        <ele>1447.9</ele>
        <time>2024-09-25T10:04:46Z</time>
      </trkpt>
      <trkpt lat="42.3744" lon="2.19">
        <ele>1447.9</ele>
        <time>2024-09-25T10:04:47Z</time>
      </trkpt>
      <trkpt lat="42.3744" lon="2.19">
        <ele>1447.9</ele>
        <time>2024-09-25T10:04:48Z</time>
      </trkpt>
      <trkpt lat="42.3744" lon="2.19001">
        <ele>1447.9</ele>
        <time>2024-09-25T10:04:49Z</time>
      </trkpt>
      <trkpt lat="42.3744" lon="2.19002">
        <ele>1447.9</ele>
        <time>2024-09-25T10:04:50Z</time>
      </trkpt>
      <trkpt lat="42.37441" lon="2.19002">
        <ele>1447.9</ele>
        <time>2024-09-25T10:04:51Z</time>
      </trkpt>
      <trkpt lat="42.3744" lon="2.19005">
        <ele>1447.9</ele>
        <time>2024-09-25T10:04:52Z</time>
      </trkpt>
      <trkpt lat="42.3744" lon="2.19006">
        <ele>1447.9</ele>
        <time>2024-09-25T10:04:53Z</time>
      </trkpt>
      <trkpt lat="42.3744" lon="2.19007">
        <ele>1447.9</ele>
        <time>2024-09-25T10:04:54Z</time>
      </trkpt>
      <trkpt lat="42.37439" lon="2.1901">
        <ele>1447.8</ele>
        <time>2024-09-25T10:04:55Z</time>
      </trkpt>
      <trkpt lat="42.37439" lon="2.19012">
        <ele>1447.8</ele>
        <time>2024-09-25T10:04:56Z</time>
      </trkpt>
      <trkpt lat="42.37438" lon="2.19014">
        <ele>1447.7</ele>
        <time>2024-09-25T10:04:57Z</time>
      </trkpt>
      <trkpt lat="42.37438" lon="2.19016">
        <ele>1447.6</ele>
        <time>2024-09-25T10:04:58Z</time>
      </trkpt>
      <trkpt lat="42.37438" lon="2.19018">
        <ele>1447.4</ele>
        <time>2024-09-25T10:04:59Z</time>
      </trkpt>
      <trkpt lat="42.37438" lon="2.1902">
        <ele>1447.3</ele>
        <time>2024-09-25T10:05:00Z</time>
      </trkpt>
      <trkpt lat="42.37438" lon="2.19021">
        <ele>1447.2</ele>
        <time>2024-09-25T10:05:01Z</time>
      </trkpt>
      <trkpt lat="42.37439" lon="2.19022">
        <ele>1447.1</ele>
        <time>2024-09-25T10:05:02Z</time>
      </trkpt>
      <trkpt lat="42.37438" lon="2.19024">
        <ele>1447</ele>
        <time>2024-09-25T10:05:03Z</time>
      </trkpt>
      <trkpt lat="42.37438" lon="2.19025">
        <ele>1446.9</ele>
        <time>2024-09-25T10:05:04Z</time>
      </trkpt>
      <trkpt lat="42.37437" lon="2.19025">
        <ele>1446.8</ele>
        <time>2024-09-25T10:05:05Z</time>
      </trkpt>
      <trkpt lat="42.37435" lon="2.19026">
        <ele>1446.6</ele>
        <time>2024-09-25T10:05:06Z</time>
      </trkpt>
      <trkpt lat="42.37435" lon="2.19026">
        <ele>1446.6</ele>
        <time>2024-09-25T10:05:07Z</time>
      </trkpt>
      <trkpt lat="42.37435" lon="2.19027">
        <ele>1446.5</ele>
        <time>2024-09-25T10:05:08Z</time>
      </trkpt>
      <trkpt lat="42.37436" lon="2.19027">
        <ele>1446.4</ele>
        <time>2024-09-25T10:05:09Z</time>
      </trkpt>
      <trkpt lat="42.37437" lon="2.19028">
        <ele>1446.3</ele>
        <time>2024-09-25T10:05:10Z</time>
      </trkpt>
      <trkpt lat="42.37437" lon="2.19027">
        <ele>1446.2</ele>
        <time>2024-09-25T10:05:11Z</time>
      </trkpt>
      <trkpt lat="42.37438" lon="2.19027">
        <ele>1446.1</ele>
        <time>2024-09-25T10:05:12Z</time>
      </trkpt>
      <trkpt lat="42.37439" lon="2.19028">
        <ele>1446</ele>
        <time>2024-09-25T10:05:13Z</time>
      </trkpt>
      <trkpt lat="42.37439" lon="2.1903">
        <ele>1445.9</ele>
        <time>2024-09-25T10:05:14Z</time>
      </trkpt>
      <trkpt lat="42.37439" lon="2.1903">
        <ele>1445.8</ele>
        <time>2024-09-25T10:05:15Z</time>
      </trkpt>
      <trkpt lat="42.37439" lon="2.19031">
        <ele>1445.8</ele>
        <time>2024-09-25T10:05:16Z</time>
      </trkpt>
      <trkpt lat="42.37439" lon="2.19031">
        <ele>1445.8</ele>
        <time>2024-09-25T10:05:17Z</time>
      </trkpt>
      <trkpt lat="42.37439" lon="2.19031">
        <ele>1445.7</ele>
        <time>2024-09-25T10:05:18Z</time>
      </trkpt>
      <trkpt lat="42.37438" lon="2.19032">
        <ele>1445.6</ele>
        <time>2024-09-25T10:05:19Z</time>
      </trkpt>
      <trkpt lat="42.37437" lon="2.19033">
        <ele>1445.5</ele>
        <time>2024-09-25T10:05:20Z</time>
      </trkpt>
      <trkpt lat="42.37437" lon="2.19033">
        <ele>1445.4</ele>
        <time>2024-09-25T10:05:21Z</time>
      </trkpt>
      <trkpt lat="42.37436" lon="2.19034">
        <ele>1445.3</ele>
        <time>2024-09-25T10:05:22Z</time>
      </trkpt>
      <trkpt lat="42.37436" lon="2.19034">
        <ele>1445.3</ele>
        <time>2024-09-25T10:05:23Z</time>
      </trkpt>
      <trkpt lat="42.37435" lon="2.19035">
        <ele>1445.2</ele>
        <time>2024-09-25T10:05:24Z</time>
      </trkpt>
      <trkpt lat="42.37434" lon="2.19035">
        <ele>1445.1</ele>
        <time>2024-09-25T10:05:25Z</time>
      </trkpt>
      <trkpt lat="42.37433" lon="2.19036">
        <ele>1444.9</ele>
        <time>2024-09-25T10:05:26Z</time>
      </trkpt>
      <trkpt lat="42.37432" lon="2.19037">
        <ele>1444.8</ele>
        <time>2024-09-25T10:05:27Z</time>
      </trkpt>
      <trkpt lat="42.37432" lon="2.19039">
        <ele>1444.7</ele>
        <time>2024-09-25T10:05:28Z</time>
      </trkpt>
      <trkpt lat="42.37432" lon="2.1904">
        <ele>1444.6</ele>
        <time>2024-09-25T10:05:29Z</time>
      </trkpt>
      <trkpt lat="42.37432" lon="2.19041">
        <ele>1444.5</ele>
        <time>2024-09-25T10:05:30Z</time>
      </trkpt>
      <trkpt lat="42.37432" lon="2.19043">
        <ele>1444.4</ele>
        <time>2024-09-25T10:05:31Z</time>
      </trkpt>
      <trkpt lat="42.37432" lon="2.19044">
        <ele>1444.3</ele>
        <time>2024-09-25T10:05:32Z</time>
      </trkpt>
      <trkpt lat="42.37432" lon="2.19045">
        <ele>1444.2</ele>
        <time>2024-09-25T10:05:33Z</time>
      </trkpt>
      <trkpt lat="42.37432" lon="2.19047">
        <ele>1444.1</ele>
        <time>2024-09-25T10:05:34Z</time>
      </trkpt>
      <trkpt lat="42.37432" lon="2.19048">
        <ele>1444</ele>
        <time>2024-09-25T10:05:35Z</time>
      </trkpt>
      <trkpt lat="42.37433" lon="2.19049">
        <ele>1444</ele>
        <time>2024-09-25T10:05:36Z</time>
      </trkpt>
      <trkpt lat="42.37433" lon="2.1905">
        <ele>1443.9</ele>
        <time>2024-09-25T10:05:37Z</time>
      </trkpt>
      <trkpt lat="42.37433" lon="2.19052">
        <ele>1443.8</ele>
        <time>2024-09-25T10:05:38Z</time>
      </trkpt>
      <trkpt lat="42.37434" lon="2.19053">
        <ele>1443.8</ele>
        <time>2024-09-25T10:05:39Z</time>
      </trkpt>
      <trkpt lat="42.37434" lon="2.19054">
        <ele>1443.7</ele>
        <time>2024-09-25T10:05:40Z</time>
      </trkpt>
      <trkpt lat="42.37435" lon="2.19055">
        <ele>1443.6</ele>
        <time>2024-09-25T10:05:41Z</time>
      </trkpt>
      <trkpt lat="42.37436" lon="2.19055">
        <ele>1443.6</ele>
        <time>2024-09-25T10:05:42Z</time>
      </trkpt>
      <trkpt lat="42.37437" lon="2.19055">
        <ele>1443.6</ele>
        <time>2024-09-25T10:05:43Z</time>
      </trkpt>
      <trkpt lat="42.37438" lon="2.19056">
        <ele>1443.6</ele>
        <time>2024-09-25T10:05:44Z</time>
      </trkpt>
      <trkpt lat="42.37438" lon="2.19056">
        <ele>1443.5</ele>
        <time>2024-09-25T10:05:45Z</time>
      </trkpt>
      <trkpt lat="42.37439" lon="2.19057">
        <ele>1443.5</ele>
        <time>2024-09-25T10:05:46Z</time>
      </trkpt>
      <trkpt lat="42.37439" lon="2.19057">
        <ele>1443.5</ele>
        <time>2024-09-25T10:05:47Z</time>
      </trkpt>
      <trkpt lat="42.37439" lon="2.19058">
        <ele>1443.5</ele>
        <time>2024-09-25T10:05:48Z</time>
      </trkpt>
      <trkpt lat="42.37439" lon="2.19059">
        <ele>1443.4</ele>
        <time>2024-09-25T10:05:49Z</time>
      </trkpt>
      <trkpt lat="42.37439" lon="2.1906">
        <ele>1443.4</ele>
        <time>2024-09-25T10:05:50Z</time>
      </trkpt>
      <trkpt lat="42.3744" lon="2.19061">
        <ele>1443.4</ele>
        <time>2024-09-25T10:05:51Z</time>
      </trkpt>
      <trkpt lat="42.3744" lon="2.19063">
        <ele>1443.4</ele>
        <time>2024-09-25T10:05:52Z</time>
      </trkpt>
      <trkpt lat="42.3744" lon="2.19063">
        <ele>1443.4</ele>
        <time>2024-09-25T10:05:53Z</time>
      </trkpt>
      <trkpt lat="42.3744" lon="2.19064">
        <ele>1443.4</ele>
        <time>2024-09-25T10:05:54Z</time>
      </trkpt>
      <trkpt lat="42.3744" lon="2.19065">
        <ele>1443.4</ele>
        <time>2024-09-25T10:05:55Z</time>
      </trkpt>
      <trkpt lat="42.3744" lon="2.19065">
        <ele>1443.4</ele>
        <time>2024-09-25T10:05:56Z</time>
      </trkpt>
      <trkpt lat="42.37439" lon="2.19066">
        <ele>1443.4</ele>
        <time>2024-09-25T10:05:57Z</time>
      </trkpt>
      <trkpt lat="42.37439" lon="2.19067">
        <ele>1443.4</ele>
        <time>2024-09-25T10:05:58Z</time>
      </trkpt>
      <trkpt lat="42.37439" lon="2.19067">
        <ele>1443.4</ele>
        <time>2024-09-25T10:05:59Z</time>
      </trkpt>
      <trkpt lat="42.37439" lon="2.19068">
        <ele>1443.4</ele>
        <time>2024-09-25T10:06:00Z</time>
      </trkpt>
      <trkpt lat="42.37439" lon="2.19068">
        <ele>1443.4</ele>
        <time>2024-09-25T10:06:01Z</time>
      </trkpt>
      <trkpt lat="42.37439" lon="2.19069">
        <ele>1443.4</ele>
        <time>2024-09-25T10:06:02Z</time>
      </trkpt>
      <trkpt lat="42.3744" lon="2.19069">
        <ele>1443.4</ele>
        <time>2024-09-25T10:06:03Z</time>
      </trkpt>
      <trkpt lat="42.37441" lon="2.19069">
        <ele>1443.4</ele>
        <time>2024-09-25T10:06:04Z</time>
      </trkpt>
      <trkpt lat="42.37441" lon="2.19068">
        <ele>1443.4</ele>
        <time>2024-09-25T10:06:05Z</time>
      </trkpt>
      <trkpt lat="42.37441" lon="2.19068">
        <ele>1443.4</ele>
        <time>2024-09-25T10:06:06Z</time>
      </trkpt>
      <trkpt lat="42.37441" lon="2.19068">
        <ele>1443.4</ele>
        <time>2024-09-25T10:06:07Z</time>
      </trkpt>
      <trkpt lat="42.37441" lon="2.19068">
        <ele>1443.4</ele>
        <time>2024-09-25T10:06:08Z</time>
      </trkpt>
      <trkpt lat="42.37441" lon="2.19069">
        <ele>1443.5</ele>
        <time>2024-09-25T10:06:09Z</time>
      </trkpt>
      <trkpt lat="42.37441" lon="2.19069">
        <ele>1443.5</ele>
        <time>2024-09-25T10:06:10Z</time>
      </trkpt>
      <trkpt lat="42.37442" lon="2.19069">
        <ele>1443.5</ele>
        <time>2024-09-25T10:06:11Z</time>
      </trkpt>
      <trkpt lat="42.37442" lon="2.19069">
        <ele>1443.5</ele>
        <time>2024-09-25T10:06:12Z</time>
      </trkpt>
      <trkpt lat="42.37442" lon="2.19069">
        <ele>1443.5</ele>
        <time>2024-09-25T10:06:13Z</time>
      </trkpt>
      <trkpt lat="42.37443" lon="2.19069">
        <ele>1443.5</ele>
        <time>2024-09-25T10:06:14Z</time>
      </trkpt>
      <trkpt lat="42.37443" lon="2.19069">
        <ele>1443.5</ele>
        <time>2024-09-25T10:06:15Z</time>
      </trkpt>
      <trkpt lat="42.37443" lon="2.19069">
        <ele>1443.5</ele>
        <time>2024-09-25T10:06:16Z</time>
      </trkpt>
      <trkpt lat="42.37444" lon="2.19069">
        <ele>1443.6</ele>
        <time>2024-09-25T10:06:17Z</time>
      </trkpt>
      <trkpt lat="42.37445" lon="2.1907">
        <ele>1443.6</ele>
        <time>2024-09-25T10:06:18Z</time>
      </trkpt>
      <trkpt lat="42.37446" lon="2.1907">
        <ele>1443.6</ele>
        <time>2024-09-25T10:06:19Z</time>
      </trkpt>
      <trkpt lat="42.37447" lon="2.1907">
        <ele>1443.7</ele>
        <time>2024-09-25T10:06:20Z</time>
      </trkpt>
      <trkpt lat="42.37448" lon="2.1907">
        <ele>1443.7</ele>
        <time>2024-09-25T10:06:21Z</time>
      </trkpt>
      <trkpt lat="42.37448" lon="2.1907">
        <ele>1443.7</ele>
        <time>2024-09-25T10:06:22Z</time>
      </trkpt>
      <trkpt lat="42.37448" lon="2.1907">
        <ele>1443.7</ele>
        <time>2024-09-25T10:06:23Z</time>
      </trkpt>
      <trkpt lat="42.37449" lon="2.1907">
        <ele>1443.7</ele>
        <time>2024-09-25T10:06:24Z</time>
      </trkpt>
      <trkpt lat="42.37449" lon="2.19071">
        <ele>1443.7</ele>
        <time>2024-09-25T10:06:25Z</time>
      </trkpt>
      <trkpt lat="42.37449" lon="2.19071">
        <ele>1443.7</ele>
        <time>2024-09-25T10:06:26Z</time>
      </trkpt>
      <trkpt lat="42.37449" lon="2.19071">
        <ele>1443.8</ele>
        <time>2024-09-25T10:06:27Z</time>
      </trkpt>
      <trkpt lat="42.37449" lon="2.19072">
        <ele>1443.8</ele>
        <time>2024-09-25T10:06:28Z</time>
      </trkpt>
      <trkpt lat="42.3745" lon="2.19072">
        <ele>1443.8</ele>
        <time>2024-09-25T10:06:29Z</time>
      </trkpt>
      <trkpt lat="42.3745" lon="2.19073">
        <ele>1443.8</ele>
        <time>2024-09-25T10:06:30Z</time>
      </trkpt>
      <trkpt lat="42.3745" lon="2.19073">
        <ele>1443.8</ele>
        <time>2024-09-25T10:06:31Z</time>
      </trkpt>
      <trkpt lat="42.37451" lon="2.19074">
        <ele>1443.9</ele>
        <time>2024-09-25T10:06:32Z</time>
      </trkpt>
      <trkpt lat="42.37452" lon="2.19075">
        <ele>1443.9</ele>
        <time>2024-09-25T10:06:33Z</time>
      </trkpt>
      <trkpt lat="42.37452" lon="2.19075">
        <ele>1443.9</ele>
        <time>2024-09-25T10:06:34Z</time>
      </trkpt>
      <trkpt lat="42.37453" lon="2.19076">
        <ele>1444</ele>
        <time>2024-09-25T10:06:35Z</time>
      </trkpt>
      <trkpt lat="42.37453" lon="2.19077">
        <ele>1444</ele>
        <time>2024-09-25T10:06:36Z</time>
      </trkpt>
      <trkpt lat="42.37454" lon="2.19078">
        <ele>1444</ele>
        <time>2024-09-25T10:06:37Z</time>
      </trkpt>
      <trkpt lat="42.37454" lon="2.19079">
        <ele>1444.1</ele>
        <time>2024-09-25T10:06:38Z</time>
      </trkpt>
      <trkpt lat="42.37454" lon="2.19078">
        <ele>1444.1</ele>
        <time>2024-09-25T10:06:39Z</time>
      </trkpt>
      <trkpt lat="42.37454" lon="2.19078">
        <ele>1444.1</ele>
        <time>2024-09-25T10:06:40Z</time>
      </trkpt>
      <trkpt lat="42.37453" lon="2.19078">
        <ele>1444.1</ele>
        <time>2024-09-25T10:06:41Z</time>
      </trkpt>
      <trkpt lat="42.37453" lon="2.19078">
        <ele>1444.1</ele>
        <time>2024-09-25T10:06:42Z</time>
      </trkpt>
      <trkpt lat="42.37453" lon="2.19078">
        <ele>1444.1</ele>
        <time>2024-09-25T10:06:43Z</time>
      </trkpt>
      <trkpt lat="42.37453" lon="2.19078">
        <ele>1444.1</ele>
        <time>2024-09-25T10:06:44Z</time>
      </trkpt>
      <trkpt lat="42.37453" lon="2.19078">
        <ele>1444.1</ele>
        <time>2024-09-25T10:06:45Z</time>
      </trkpt>
      <trkpt lat="42.37453" lon="2.19078">
        <ele>1444.1</ele>
        <time>2024-09-25T10:06:46Z</time>
      </trkpt>
      <trkpt lat="42.37453" lon="2.19078">
        <ele>1444.1</ele>
        <time>2024-09-25T10:06:47Z</time>
      </trkpt>
      <trkpt lat="42.37453" lon="2.19078">
        <ele>1444.1</ele>
        <time>2024-09-25T10:06:48Z</time>
      </trkpt>
      <trkpt lat="42.37452" lon="2.19079">
        <ele>1444.2</ele>
        <time>2024-09-25T10:06:49Z</time>
      </trkpt>
      <trkpt lat="42.37452" lon="2.19079">
        <ele>1444.2</ele>
        <time>2024-09-25T10:06:50Z</time>
      </trkpt>
      <trkpt lat="42.37452" lon="2.19079">
        <ele>1444.2</ele>
        <time>2024-09-25T10:06:51Z</time>
      </trkpt>
      <trkpt lat="42.37452" lon="2.19079">
        <ele>1444.2</ele>
        <time>2024-09-25T10:06:52Z</time>
      </trkpt>
      <trkpt lat="42.37452" lon="2.19079">
        <ele>1444.2</ele>
        <time>2024-09-25T10:06:53Z</time>
      </trkpt>
      <trkpt lat="42.37452" lon="2.19079">
        <ele>1444.2</ele>
        <time>2024-09-25T10:06:54Z</time>
      </trkpt>
      <trkpt lat="42.37452" lon="2.19079">
        <ele>1444.2</ele>
        <time>2024-09-25T10:06:55Z</time>
      </trkpt>
      <trkpt lat="42.37452" lon="2.19079">
        <ele>1444.2</ele>
        <time>2024-09-25T10:06:56Z</time>
      </trkpt>
      <trkpt lat="42.37452" lon="2.19078">
        <ele>1444.2</ele>
        <time>2024-09-25T10:06:57Z</time>
      </trkpt>
      <trkpt lat="42.37452" lon="2.19078">
        <ele>1444.2</ele>
        <time>2024-09-25T10:06:58Z</time>
      </trkpt>
      <trkpt lat="42.37452" lon="2.19078">
        <ele>1444.2</ele>
        <time>2024-09-25T10:06:59Z</time>
      </trkpt>
      <trkpt lat="42.37452" lon="2.19078">
        <ele>1444.2</ele>
        <time>2024-09-25T10:07:00Z</time>
      </trkpt>
      <trkpt lat="42.37452" lon="2.19079">
        <ele>1444.2</ele>
        <time>2024-09-25T10:07:01Z</time>
      </trkpt>
      <trkpt lat="42.37452" lon="2.19079">
        <ele>1444.3</ele>
        <time>2024-09-25T10:07:02Z</time>
      </trkpt>
      <trkpt lat="42.37452" lon="2.19079">
        <ele>1444.3</ele>
        <time>2024-09-25T10:07:03Z</time>
      </trkpt>
      <trkpt lat="42.37451" lon="2.1908">
        <ele>1444.3</ele>
        <time>2024-09-25T10:07:04Z</time>
      </trkpt>
      <trkpt lat="42.37451" lon="2.1908">
        <ele>1444.3</ele>
        <time>2024-09-25T10:07:05Z</time>
      </trkpt>
      <trkpt lat="42.37451" lon="2.19081">
        <ele>1444.3</ele>
        <time>2024-09-25T10:07:06Z</time>
      </trkpt>
      <trkpt lat="42.37451" lon="2.19081">
        <ele>1444.3</ele>
        <time>2024-09-25T10:07:07Z</time>
      </trkpt>
      <trkpt lat="42.37451" lon="2.19081">
        <ele>1444.3</ele>
        <time>2024-09-25T10:07:08Z</time>
      </trkpt>
      <trkpt lat="42.37451" lon="2.19081">
        <ele>1444.3</ele>
        <time>2024-09-25T10:07:09Z</time>
      </trkpt>
      <trkpt lat="42.37452" lon="2.19082">
        <ele>1444.4</ele>
        <time>2024-09-25T10:07:10Z</time>
      </trkpt>
      <trkpt lat="42.37452" lon="2.19082">
        <ele>1444.4</ele>
        <time>2024-09-25T10:07:11Z</time>
      </trkpt>
      <trkpt lat="42.37452" lon="2.19082">
        <ele>1444.4</ele>
        <time>2024-09-25T10:07:12Z</time>
      </trkpt>
      <trkpt lat="42.37452" lon="2.19083">
        <ele>1444.4</ele>
        <time>2024-09-25T10:07:13Z</time>
      </trkpt>
      <trkpt lat="42.37453" lon="2.19083">
        <ele>1444.4</ele>
        <time>2024-09-25T10:07:14Z</time>
      </trkpt>
      <trkpt lat="42.37453" lon="2.19084">
        <ele>1444.5</ele>
        <time>2024-09-25T10:07:15Z</time>
      </trkpt>
      <trkpt lat="42.37454" lon="2.19085">
        <ele>1444.5</ele>
        <time>2024-09-25T10:07:16Z</time>
      </trkpt>
      <trkpt lat="42.37454" lon="2.19086">
        <ele>1444.6</ele>
        <time>2024-09-25T10:07:17Z</time>
      </trkpt>
      <trkpt lat="42.37455" lon="2.19087">
        <ele>1444.6</ele>
        <time>2024-09-25T10:07:18Z</time>
      </trkpt>
      <trkpt lat="42.37455" lon="2.1909">
        <ele>1444.7</ele>
        <time>2024-09-25T10:07:19Z</time>
      </trkpt>
      <trkpt lat="42.37456" lon="2.19091">
        <ele>1444.8</ele>
        <time>2024-09-25T10:07:20Z</time>
      </trkpt>
      <trkpt lat="42.37456" lon="2.19093">
        <ele>1444.9</ele>
        <time>2024-09-25T10:07:21Z</time>
      </trkpt>
      <trkpt lat="42.37456" lon="2.19095">
        <ele>1445</ele>
        <time>2024-09-25T10:07:22Z</time>
      </trkpt>
      <trkpt lat="42.37456" lon="2.19096">
        <ele>1445</ele>
        <time>2024-09-25T10:07:23Z</time>
      </trkpt>
      <trkpt lat="42.37455" lon="2.19098">
        <ele>1445.1</ele>
        <time>2024-09-25T10:07:24Z</time>
      </trkpt>
      <trkpt lat="42.37455" lon="2.19099">
        <ele>1445.2</ele>
        <time>2024-09-25T10:07:25Z</time>
      </trkpt>
      <trkpt lat="42.37454" lon="2.19101">
        <ele>1445.3</ele>
        <time>2024-09-25T10:07:26Z</time>
      </trkpt>
      <trkpt lat="42.37454" lon="2.19103">
        <ele>1445.4</ele>
        <time>2024-09-25T10:07:27Z</time>
      </trkpt>
      <trkpt lat="42.37454" lon="2.19105">
        <ele>1445.5</ele>
        <time>2024-09-25T10:07:28Z</time>
      </trkpt>
      <trkpt lat="42.37454" lon="2.19106">
        <ele>1445.5</ele>
        <time>2024-09-25T10:07:29Z</time>
      </trkpt>
      <trkpt lat="42.37453" lon="2.19107">
        <ele>1445.6</ele>
        <time>2024-09-25T10:07:30Z</time>
      </trkpt>
      <trkpt lat="42.37453" lon="2.19109">
        <ele>1445.7</ele>
        <time>2024-09-25T10:07:31Z</time>
      </trkpt>
      <trkpt lat="42.37453" lon="2.1911">
        <ele>1445.7</ele>
        <time>2024-09-25T10:07:32Z</time>
      </trkpt>
      <trkpt lat="42.37452" lon="2.19111">
        <ele>1445.8</ele>
        <time>2024-09-25T10:07:33Z</time>
      </trkpt>
      <trkpt lat="42.37452" lon="2.19112">
        <ele>1445.9</ele>
        <time>2024-09-25T10:07:34Z</time>
      </trkpt>
      <trkpt lat="42.37452" lon="2.19114">
        <ele>1445.9</ele>
        <time>2024-09-25T10:07:35Z</time>
      </trkpt>
      <trkpt lat="42.37452" lon="2.19115">
        <ele>1446</ele>
        <time>2024-09-25T10:07:36Z</time>
      </trkpt>
      <trkpt lat="42.37452" lon="2.19116">
        <ele>1446.1</ele>
        <time>2024-09-25T10:07:37Z</time>
      </trkpt>
      <trkpt lat="42.37452" lon="2.19117">
        <ele>1446.1</ele>
        <time>2024-09-25T10:07:38Z</time>
      </trkpt>
      <trkpt lat="42.37452" lon="2.19118">
        <ele>1446.2</ele>
        <time>2024-09-25T10:07:39Z</time>
      </trkpt>
      <trkpt lat="42.37452" lon="2.1912">
        <ele>1446.2</ele>
        <time>2024-09-25T10:07:40Z</time>
      </trkpt>
      <trkpt lat="42.37452" lon="2.19121">
        <ele>1446.3</ele>
        <time>2024-09-25T10:07:41Z</time>
      </trkpt>
      <trkpt lat="42.37452" lon="2.19122">
        <ele>1446.3</ele>
        <time>2024-09-25T10:07:42Z</time>
      </trkpt>
      <trkpt lat="42.37452" lon="2.19123">
        <ele>1446.4</ele>
        <time>2024-09-25T10:07:43Z</time>
      </trkpt>
      <trkpt lat="42.37452" lon="2.19123">
        <ele>1446.4</ele>
        <time>2024-09-25T10:07:44Z</time>
      </trkpt>
      <trkpt lat="42.37452" lon="2.19124">
        <ele>1446.5</ele>
        <time>2024-09-25T10:07:45Z</time>
      </trkpt>
      <trkpt lat="42.37452" lon="2.19125">
        <ele>1446.5</ele>
        <time>2024-09-25T10:07:46Z</time>
      </trkpt>
      <trkpt lat="42.37452" lon="2.19126">
        <ele>1446.5</ele>
        <time>2024-09-25T10:07:47Z</time>
      </trkpt>
      <trkpt lat="42.37453" lon="2.19127">
        <ele>1446.6</ele>
        <time>2024-09-25T10:07:48Z</time>
      </trkpt>
      <trkpt lat="42.37453" lon="2.19128">
        <ele>1446.6</ele>
        <time>2024-09-25T10:07:49Z</time>
      </trkpt>
      <trkpt lat="42.37453" lon="2.19129">
        <ele>1446.7</ele>
        <time>2024-09-25T10:07:50Z</time>
      </trkpt>
      <trkpt lat="42.37453" lon="2.1913">
        <ele>1446.8</ele>
        <time>2024-09-25T10:07:51Z</time>
      </trkpt>
      <trkpt lat="42.37452" lon="2.19131">
        <ele>1446.8</ele>
        <time>2024-09-25T10:07:52Z</time>
      </trkpt>
      <trkpt lat="42.37452" lon="2.19133">
        <ele>1446.9</ele>
        <time>2024-09-25T10:07:53Z</time>
      </trkpt>
      <trkpt lat="42.37452" lon="2.19134">
        <ele>1447</ele>
        <time>2024-09-25T10:07:54Z</time>
      </trkpt>
      <trkpt lat="42.37451" lon="2.19135">
        <ele>1447.1</ele>
        <time>2024-09-25T10:07:55Z</time>
      </trkpt>
      <trkpt lat="42.37451" lon="2.19136">
        <ele>1447.1</ele>
        <time>2024-09-25T10:07:56Z</time>
      </trkpt>
      <trkpt lat="42.37451" lon="2.19137">
        <ele>1447.2</ele>
        <time>2024-09-25T10:07:57Z</time>
      </trkpt>
      <trkpt lat="42.37451" lon="2.19139">
        <ele>1447.3</ele>
        <time>2024-09-25T10:07:58Z</time>
      </trkpt>
      <trkpt lat="42.37452" lon="2.1914">
        <ele>1447.3</ele>
        <time>2024-09-25T10:07:59Z</time>
      </trkpt>
      <trkpt lat="42.37452" lon="2.19141">
        <ele>1447.4</ele>
        <time>2024-09-25T10:08:00Z</time>
      </trkpt>
      <trkpt lat="42.37452" lon="2.19142">
        <ele>1447.5</ele>
        <time>2024-09-25T10:08:01Z</time>
      </trkpt>
      <trkpt lat="42.37452" lon="2.19142">
        <ele>1447.5</ele>
        <time>2024-09-25T10:08:02Z</time>
      </trkpt>
      <trkpt lat="42.37453" lon="2.19142">
        <ele>1447.6</ele>
        <time>2024-09-25T10:08:03Z</time>
      </trkpt>
      <trkpt lat="42.37453" lon="2.19143">
        <ele>1447.6</ele>
        <time>2024-09-25T10:08:04Z</time>
      </trkpt>
      <trkpt lat="42.37453" lon="2.19144">
        <ele>1447.6</ele>
        <time>2024-09-25T10:08:05Z</time>
      </trkpt>
      <trkpt lat="42.37453" lon="2.19144">
        <ele>1447.7</ele>
        <time>2024-09-25T10:08:06Z</time>
      </trkpt>
      <trkpt lat="42.37454" lon="2.19145">
        <ele>1447.8</ele>
        <time>2024-09-25T10:08:07Z</time>
      </trkpt>
      <trkpt lat="42.37454" lon="2.19146">
        <ele>1447.8</ele>
        <time>2024-09-25T10:08:08Z</time>
      </trkpt>
      <trkpt lat="42.37455" lon="2.19146">
        <ele>1447.9</ele>
        <time>2024-09-25T10:08:09Z</time>
      </trkpt>
      <trkpt lat="42.37455" lon="2.19147">
        <ele>1448</ele>
        <time>2024-09-25T10:08:10Z</time>
      </trkpt>
      <trkpt lat="42.37456" lon="2.19148">
        <ele>1448.1</ele>
        <time>2024-09-25T10:08:11Z</time>
      </trkpt>
      <trkpt lat="42.37456" lon="2.19149">
        <ele>1448.1</ele>
        <time>2024-09-25T10:08:12Z</time>
      </trkpt>
      <trkpt lat="42.37457" lon="2.19149">
        <ele>1448.2</ele>
        <time>2024-09-25T10:08:13Z</time>
      </trkpt>
      <trkpt lat="42.37457" lon="2.1915">
        <ele>1448.3</ele>
        <time>2024-09-25T10:08:14Z</time>
      </trkpt>
      <trkpt lat="42.37458" lon="2.1915">
        <ele>1448.3</ele>
        <time>2024-09-25T10:08:15Z</time>
      </trkpt>
      <trkpt lat="42.37458" lon="2.19151">
        <ele>1448.4</ele>
        <time>2024-09-25T10:08:16Z</time>
      </trkpt>
      <trkpt lat="42.37458" lon="2.19151">
        <ele>1448.4</ele>
        <time>2024-09-25T10:08:17Z</time>
      </trkpt>
      <trkpt lat="42.37459" lon="2.19151">
        <ele>1448.5</ele>
        <time>2024-09-25T10:08:18Z</time>
      </trkpt>
      <trkpt lat="42.37459" lon="2.19152">
        <ele>1448.6</ele>
        <time>2024-09-25T10:08:19Z</time>
      </trkpt>
      <trkpt lat="42.37459" lon="2.19153">
        <ele>1448.6</ele>
        <time>2024-09-25T10:08:20Z</time>
      </trkpt>
      <trkpt lat="42.37459" lon="2.19153">
        <ele>1448.7</ele>
        <time>2024-09-25T10:08:21Z</time>
      </trkpt>
      <trkpt lat="42.3746" lon="2.19154">
        <ele>1448.7</ele>
        <time>2024-09-25T10:08:22Z</time>
      </trkpt>
      <trkpt lat="42.3746" lon="2.19154">
        <ele>1448.8</ele>
        <time>2024-09-25T10:08:23Z</time>
      </trkpt>
      <trkpt lat="42.3746" lon="2.19155">
        <ele>1448.9</ele>
        <time>2024-09-25T10:08:24Z</time>
      </trkpt>
      <trkpt lat="42.3746" lon="2.19156">
        <ele>1449</ele>
        <time>2024-09-25T10:08:25Z</time>
      </trkpt>
      <trkpt lat="42.37461" lon="2.19157">
        <ele>1449.1</ele>
        <time>2024-09-25T10:08:26Z</time>
      </trkpt>
      <trkpt lat="42.37461" lon="2.19158">
        <ele>1449.1</ele>
        <time>2024-09-25T10:08:27Z</time>
      </trkpt>
      <trkpt lat="42.37461" lon="2.19158">
        <ele>1449.2</ele>
        <time>2024-09-25T10:08:28Z</time>
      </trkpt>
      <trkpt lat="42.37461" lon="2.19159">
        <ele>1449.2</ele>
        <time>2024-09-25T10:08:29Z</time>
      </trkpt>
      <trkpt lat="42.37461" lon="2.1916">
        <ele>1449.3</ele>
        <time>2024-09-25T10:08:30Z</time>
      </trkpt>
      <trkpt lat="42.37461" lon="2.1916">
        <ele>1449.4</ele>
        <time>2024-09-25T10:08:31Z</time>
      </trkpt>
      <trkpt lat="42.37461" lon="2.19161">
        <ele>1449.4</ele>
        <time>2024-09-25T10:08:32Z</time>
      </trkpt>
      <trkpt lat="42.37461" lon="2.19161">
        <ele>1449.5</ele>
        <time>2024-09-25T10:08:33Z</time>
      </trkpt>
      <trkpt lat="42.37461" lon="2.19162">
        <ele>1449.6</ele>
        <time>2024-09-25T10:08:34Z</time>
      </trkpt>
      <trkpt lat="42.37462" lon="2.19163">
        <ele>1449.6</ele>
        <time>2024-09-25T10:08:35Z</time>
      </trkpt>
      <trkpt lat="42.37462" lon="2.19163">
        <ele>1449.7</ele>
        <time>2024-09-25T10:08:36Z</time>
      </trkpt>
      <trkpt lat="42.37462" lon="2.19164">
        <ele>1449.8</ele>
        <time>2024-09-25T10:08:37Z</time>
      </trkpt>
      <trkpt lat="42.37463" lon="2.19164">
        <ele>1449.8</ele>
        <time>2024-09-25T10:08:38Z</time>
      </trkpt>
      <trkpt lat="42.37463" lon="2.19165">
        <ele>1449.9</ele>
        <time>2024-09-25T10:08:39Z</time>
      </trkpt>
      <trkpt lat="42.37463" lon="2.19166">
        <ele>1450</ele>
        <time>2024-09-25T10:08:40Z</time>
      </trkpt>
      <trkpt lat="42.37463" lon="2.19166">
        <ele>1450</ele>
        <time>2024-09-25T10:08:41Z</time>
      </trkpt>
      <trkpt lat="42.37463" lon="2.19167">
        <ele>1450.2</ele>
        <time>2024-09-25T10:08:42Z</time>
      </trkpt>
      <trkpt lat="42.37463" lon="2.19168">
        <ele>1450.2</ele>
        <time>2024-09-25T10:08:43Z</time>
      </trkpt>
      <trkpt lat="42.37463" lon="2.19169">
        <ele>1450.3</ele>
        <time>2024-09-25T10:08:44Z</time>
      </trkpt>
      <trkpt lat="42.37463" lon="2.1917">
        <ele>1450.4</ele>
        <time>2024-09-25T10:08:45Z</time>
      </trkpt>
      <trkpt lat="42.37463" lon="2.1917">
        <ele>1450.5</ele>
        <time>2024-09-25T10:08:46Z</time>
      </trkpt>
      <trkpt lat="42.37463" lon="2.1917">
        <ele>1450.5</ele>
        <time>2024-09-25T10:08:47Z</time>
      </trkpt>
      <trkpt lat="42.37463" lon="2.19171">
        <ele>1450.6</ele>
        <time>2024-09-25T10:08:48Z</time>
      </trkpt>
      <trkpt lat="42.37464" lon="2.19171">
        <ele>1450.6</ele>
        <time>2024-09-25T10:08:49Z</time>
      </trkpt>
      <trkpt lat="42.37464" lon="2.19172">
        <ele>1450.7</ele>
        <time>2024-09-25T10:08:50Z</time>
      </trkpt>
      <trkpt lat="42.37464" lon="2.19173">
        <ele>1450.8</ele>
        <time>2024-09-25T10:08:51Z</time>
      </trkpt>
      <trkpt lat="42.37463" lon="2.19173">
        <ele>1450.8</ele>
        <time>2024-09-25T10:08:52Z</time>
      </trkpt>
      <trkpt lat="42.37464" lon="2.19174">
        <ele>1451</ele>
        <time>2024-09-25T10:08:53Z</time>
      </trkpt>
      <trkpt lat="42.37464" lon="2.19175">
        <ele>1451.1</ele>
        <time>2024-09-25T10:08:54Z</time>
      </trkpt>
      <trkpt lat="42.37464" lon="2.19176">
        <ele>1451.2</ele>
        <time>2024-09-25T10:08:55Z</time>
      </trkpt>
      <trkpt lat="42.37464" lon="2.19177">
        <ele>1451.2</ele>
        <time>2024-09-25T10:08:56Z</time>
      </trkpt>
      <trkpt lat="42.37464" lon="2.19178">
        <ele>1451.3</ele>
        <time>2024-09-25T10:08:57Z</time>
      </trkpt>
      <trkpt lat="42.37463" lon="2.19178">
        <ele>1451.4</ele>
        <time>2024-09-25T10:08:58Z</time>
      </trkpt>
      <trkpt lat="42.37464" lon="2.19179">
        <ele>1451.5</ele>
        <time>2024-09-25T10:08:59Z</time>
      </trkpt>
      <trkpt lat="42.37464" lon="2.19179">
        <ele>1451.6</ele>
        <time>2024-09-25T10:09:00Z</time>
      </trkpt>
      <trkpt lat="42.37464" lon="2.1918">
        <ele>1451.6</ele>
        <time>2024-09-25T10:09:01Z</time>
      </trkpt>
      <trkpt lat="42.37464" lon="2.19181">
        <ele>1451.7</ele>
        <time>2024-09-25T10:09:02Z</time>
      </trkpt>
      <trkpt lat="42.37465" lon="2.19181">
        <ele>1451.8</ele>
        <time>2024-09-25T10:09:03Z</time>
      </trkpt>
      <trkpt lat="42.37465" lon="2.19182">
        <ele>1451.9</ele>
        <time>2024-09-25T10:09:04Z</time>
      </trkpt>
      <trkpt lat="42.37465" lon="2.19182">
        <ele>1452</ele>
        <time>2024-09-25T10:09:05Z</time>
      </trkpt>
      <trkpt lat="42.37465" lon="2.19183">
        <ele>1452.1</ele>
        <time>2024-09-25T10:09:06Z</time>
      </trkpt>
      <trkpt lat="42.37466" lon="2.19183">
        <ele>1452.2</ele>
        <time>2024-09-25T10:09:07Z</time>
      </trkpt>
      <trkpt lat="42.37466" lon="2.19184">
        <ele>1452.3</ele>
        <time>2024-09-25T10:09:08Z</time>
      </trkpt>
      <trkpt lat="42.37466" lon="2.19185">
        <ele>1452.4</ele>
        <time>2024-09-25T10:09:09Z</time>
      </trkpt>
      <trkpt lat="42.37466" lon="2.19185">
        <ele>1452.4</ele>
        <time>2024-09-25T10:09:10Z</time>
      </trkpt>
      <trkpt lat="42.37466" lon="2.19185">
        <ele>1452.4</ele>
        <time>2024-09-25T10:09:11Z</time>
      </trkpt>
      <trkpt lat="42.37467" lon="2.19186">
        <ele>1452.5</ele>
        <time>2024-09-25T10:09:12Z</time>
      </trkpt>
      <trkpt lat="42.37467" lon="2.19186">
        <ele>1452.6</ele>
        <time>2024-09-25T10:09:13Z</time>
      </trkpt>
      <trkpt lat="42.37467" lon="2.19187">
        <ele>1452.7</ele>
        <time>2024-09-25T10:09:14Z</time>
      </trkpt>
      <trkpt lat="42.37467" lon="2.19187">
        <ele>1452.8</ele>
        <time>2024-09-25T10:09:15Z</time>
      </trkpt>
      <trkpt lat="42.37467" lon="2.19188">
        <ele>1452.8</ele>
        <time>2024-09-25T10:09:16Z</time>
      </trkpt>
      <trkpt lat="42.37468" lon="2.19188">
        <ele>1452.9</ele>
        <time>2024-09-25T10:09:17Z</time>
      </trkpt>
      <trkpt lat="42.37468" lon="2.19188">
        <ele>1452.9</ele>
        <time>2024-09-25T10:09:18Z</time>
      </trkpt>
      <trkpt lat="42.37468" lon="2.19189">
        <ele>1453</ele>
        <time>2024-09-25T10:09:19Z</time>
      </trkpt>
      <trkpt lat="42.37468" lon="2.19189">
        <ele>1453</ele>
        <time>2024-09-25T10:09:20Z</time>
      </trkpt>
      <trkpt lat="42.37468" lon="2.1919">
        <ele>1453.1</ele>
        <time>2024-09-25T10:09:21Z</time>
      </trkpt>
      <trkpt lat="42.37468" lon="2.1919">
        <ele>1453.2</ele>
        <time>2024-09-25T10:09:22Z</time>
      </trkpt>
      <trkpt lat="42.37469" lon="2.19191">
        <ele>1453.2</ele>
        <time>2024-09-25T10:09:23Z</time>
      </trkpt>
      <trkpt lat="42.37469" lon="2.19191">
        <ele>1453.3</ele>
        <time>2024-09-25T10:09:24Z</time>
      </trkpt>
      <trkpt lat="42.37469" lon="2.19192">
        <ele>1453.4</ele>
        <time>2024-09-25T10:09:25Z</time>
      </trkpt>
      <trkpt lat="42.37469" lon="2.19192">
        <ele>1453.5</ele>
        <time>2024-09-25T10:09:26Z</time>
      </trkpt>
      <trkpt lat="42.3747" lon="2.19193">
        <ele>1453.5</ele>
        <time>2024-09-25T10:09:27Z</time>
      </trkpt>
      <trkpt lat="42.3747" lon="2.19193">
        <ele>1453.7</ele>
        <time>2024-09-25T10:09:28Z</time>
      </trkpt>
      <trkpt lat="42.37471" lon="2.19194">
        <ele>1453.8</ele>
        <time>2024-09-25T10:09:29Z</time>
      </trkpt>
      <trkpt lat="42.37471" lon="2.19194">
        <ele>1453.9</ele>
        <time>2024-09-25T10:09:30Z</time>
      </trkpt>
      <trkpt lat="42.37471" lon="2.19194">
        <ele>1453.9</ele>
        <time>2024-09-25T10:09:31Z</time>
      </trkpt>
      <trkpt lat="42.37472" lon="2.19195">
        <ele>1454</ele>
        <time>2024-09-25T10:09:32Z</time>
      </trkpt>
      <trkpt lat="42.37472" lon="2.19196">
        <ele>1454.1</ele>
        <time>2024-09-25T10:09:33Z</time>
      </trkpt>
      <trkpt lat="42.37472" lon="2.19196">
        <ele>1454.2</ele>
        <time>2024-09-25T10:09:34Z</time>
      </trkpt>
      <trkpt lat="42.37472" lon="2.19197">
        <ele>1454.2</ele>
        <time>2024-09-25T10:09:35Z</time>
      </trkpt>
      <trkpt lat="42.37472" lon="2.19197">
        <ele>1454.3</ele>
        <time>2024-09-25T10:09:36Z</time>
      </trkpt>
      <trkpt lat="42.37472" lon="2.19198">
        <ele>1454.4</ele>
        <time>2024-09-25T10:09:37Z</time>
      </trkpt>
      <trkpt lat="42.37473" lon="2.19199">
        <ele>1454.5</ele>
        <time>2024-09-25T10:09:38Z</time>
      </trkpt>
      <trkpt lat="42.37473" lon="2.192">
        <ele>1454.6</ele>
        <time>2024-09-25T10:09:39Z</time>
      </trkpt>
      <trkpt lat="42.37473" lon="2.19201">
        <ele>1454.7</ele>
        <time>2024-09-25T10:09:40Z</time>
      </trkpt>
      <trkpt lat="42.37473" lon="2.19201">
        <ele>1454.8</ele>
        <time>2024-09-25T10:09:41Z</time>
      </trkpt>
      <trkpt lat="42.37473" lon="2.19202">
        <ele>1454.9</ele>
        <time>2024-09-25T10:09:42Z</time>
      </trkpt>
      <trkpt lat="42.37473" lon="2.19204">
        <ele>1455.1</ele>
        <time>2024-09-25T10:09:43Z</time>
      </trkpt>
      <trkpt lat="42.37473" lon="2.19205">
        <ele>1455.3</ele>
        <time>2024-09-25T10:09:44Z</time>
      </trkpt>
      <trkpt lat="42.37473" lon="2.19207">
        <ele>1455.5</ele>
        <time>2024-09-25T10:09:45Z</time>
      </trkpt>
      <trkpt lat="42.37472" lon="2.19208">
        <ele>1455.6</ele>
        <time>2024-09-25T10:09:46Z</time>
      </trkpt>
      <trkpt lat="42.37472" lon="2.19209">
        <ele>1455.7</ele>
        <time>2024-09-25T10:09:47Z</time>
      </trkpt>
      <trkpt lat="42.37472" lon="2.1921">
        <ele>1455.9</ele>
        <time>2024-09-25T10:09:48Z</time>
      </trkpt>
      <trkpt lat="42.37472" lon="2.19212">
        <ele>1456</ele>
        <time>2024-09-25T10:09:49Z</time>
      </trkpt>
      <trkpt lat="42.37472" lon="2.19213">
        <ele>1456.2</ele>
        <time>2024-09-25T10:09:50Z</time>
      </trkpt>
      <trkpt lat="42.37472" lon="2.19214">
        <ele>1456.3</ele>
        <time>2024-09-25T10:09:51Z</time>
      </trkpt>
      <trkpt lat="42.37473" lon="2.19215">
        <ele>1456.5</ele>
        <time>2024-09-25T10:09:52Z</time>
      </trkpt>
      <trkpt lat="42.37473" lon="2.19216">
        <ele>1456.6</ele>
        <time>2024-09-25T10:09:53Z</time>
      </trkpt>
      <trkpt lat="42.37473" lon="2.19217">
        <ele>1456.7</ele>
        <time>2024-09-25T10:09:54Z</time>
      </trkpt>
      <trkpt lat="42.37473" lon="2.19219">
        <ele>1456.8</ele>
        <time>2024-09-25T10:09:55Z</time>
      </trkpt>
      <trkpt lat="42.37473" lon="2.1922">
        <ele>1457</ele>
        <time>2024-09-25T10:09:56Z</time>
      </trkpt>
      <trkpt lat="42.37473" lon="2.19221">
        <ele>1457.1</ele>
        <time>2024-09-25T10:09:57Z</time>
      </trkpt>
      <trkpt lat="42.37473" lon="2.19223">
        <ele>1457.3</ele>
        <time>2024-09-25T10:09:58Z</time>
      </trkpt>
      <trkpt lat="42.37473" lon="2.19223">
        <ele>1457.3</ele>
        <time>2024-09-25T10:09:59Z</time>
      </trkpt>
      <trkpt lat="42.37474" lon="2.19223">
        <ele>1457.4</ele>
        <time>2024-09-25T10:10:00Z</time>
      </trkpt>
      <trkpt lat="42.37473" lon="2.19223">
        <ele>1457.4</ele>
        <time>2024-09-25T10:10:01Z</time>
      </trkpt>
      <trkpt lat="42.37473" lon="2.19223">
        <ele>1457.4</ele>
        <time>2024-09-25T10:10:02Z</time>
      </trkpt>
      <trkpt lat="42.37473" lon="2.19224">
        <ele>1457.5</ele>
        <time>2024-09-25T10:10:03Z</time>
      </trkpt>
      <trkpt lat="42.37473" lon="2.19224">
        <ele>1457.5</ele>
        <time>2024-09-25T10:10:04Z</time>
      </trkpt>
      <trkpt lat="42.37472" lon="2.19224">
        <ele>1457.6</ele>
        <time>2024-09-25T10:10:05Z</time>
      </trkpt>
      <trkpt lat="42.37472" lon="2.19224">
        <ele>1457.6</ele>
        <time>2024-09-25T10:10:06Z</time>
      </trkpt>
      <trkpt lat="42.37472" lon="2.19224">
        <ele>1457.6</ele>
        <time>2024-09-25T10:10:07Z</time>
      </trkpt>
      <trkpt lat="42.37472" lon="2.19224">
        <ele>1457.6</ele>
        <time>2024-09-25T10:10:08Z</time>
      </trkpt>
      <trkpt lat="42.37472" lon="2.19224">
        <ele>1457.7</ele>
        <time>2024-09-25T10:10:09Z</time>
      </trkpt>
      <trkpt lat="42.37472" lon="2.19225">
        <ele>1457.7</ele>
        <time>2024-09-25T10:10:10Z</time>
      </trkpt>
      <trkpt lat="42.37472" lon="2.19225">
        <ele>1457.8</ele>
        <time>2024-09-25T10:10:11Z</time>
      </trkpt>
      <trkpt lat="42.37471" lon="2.19225">
        <ele>1457.8</ele>
        <time>2024-09-25T10:10:12Z</time>
      </trkpt>
      <trkpt lat="42.37471" lon="2.19226">
        <ele>1457.8</ele>
        <time>2024-09-25T10:10:13Z</time>
      </trkpt>
      <trkpt lat="42.37471" lon="2.19226">
        <ele>1457.8</ele>
        <time>2024-09-25T10:10:14Z</time>
      </trkpt>
      <trkpt lat="42.37471" lon="2.19226">
        <ele>1457.9</ele>
        <time>2024-09-25T10:10:15Z</time>
      </trkpt>
      <trkpt lat="42.37471" lon="2.19227">
        <ele>1457.9</ele>
        <time>2024-09-25T10:10:16Z</time>
      </trkpt>
      <trkpt lat="42.37471" lon="2.19227">
        <ele>1457.9</ele>
        <time>2024-09-25T10:10:17Z</time>
      </trkpt>
      <trkpt lat="42.37471" lon="2.19227">
        <ele>1458</ele>
        <time>2024-09-25T10:10:18Z</time>
      </trkpt>
      <trkpt lat="42.37471" lon="2.19228">
        <ele>1458</ele>
        <time>2024-09-25T10:10:19Z</time>
      </trkpt>
      <trkpt lat="42.37471" lon="2.19228">
        <ele>1458</ele>
        <time>2024-09-25T10:10:20Z</time>
      </trkpt>
      <trkpt lat="42.37471" lon="2.19228">
        <ele>1458.1</ele>
        <time>2024-09-25T10:10:21Z</time>
      </trkpt>
      <trkpt lat="42.37471" lon="2.19229">
        <ele>1458.1</ele>
        <time>2024-09-25T10:10:22Z</time>
      </trkpt>
      <trkpt lat="42.37471" lon="2.19229">
        <ele>1458.1</ele>
        <time>2024-09-25T10:10:23Z</time>
      </trkpt>
      <trkpt lat="42.37471" lon="2.19229">
        <ele>1458.2</ele>
        <time>2024-09-25T10:10:24Z</time>
      </trkpt>
      <trkpt lat="42.37471" lon="2.1923">
        <ele>1458.2</ele>
        <time>2024-09-25T10:10:25Z</time>
      </trkpt>
      <trkpt lat="42.37471" lon="2.1923">
        <ele>1458.3</ele>
        <time>2024-09-25T10:10:26Z</time>
      </trkpt>
      <trkpt lat="42.37471" lon="2.19231">
        <ele>1458.4</ele>
        <time>2024-09-25T10:10:27Z</time>
      </trkpt>
      <trkpt lat="42.37471" lon="2.19232">
        <ele>1458.4</ele>
        <time>2024-09-25T10:10:28Z</time>
      </trkpt>
      <trkpt lat="42.37471" lon="2.19233">
        <ele>1458.6</ele>
        <time>2024-09-25T10:10:29Z</time>
      </trkpt>
      <trkpt lat="42.37472" lon="2.19235">
        <ele>1458.7</ele>
        <time>2024-09-25T10:10:30Z</time>
      </trkpt>
      <trkpt lat="42.37472" lon="2.19236">
        <ele>1458.8</ele>
        <time>2024-09-25T10:10:31Z</time>
      </trkpt>
      <trkpt lat="42.37472" lon="2.19237">
        <ele>1458.9</ele>
        <time>2024-09-25T10:10:32Z</time>
      </trkpt>
      <trkpt lat="42.37473" lon="2.19239">
        <ele>1459.1</ele>
        <time>2024-09-25T10:10:33Z</time>
      </trkpt>
      <trkpt lat="42.37473" lon="2.1924">
        <ele>1459.2</ele>
        <time>2024-09-25T10:10:34Z</time>
      </trkpt>
      <trkpt lat="42.37474" lon="2.19242">
        <ele>1459.4</ele>
        <time>2024-09-25T10:10:35Z</time>
      </trkpt>
      <trkpt lat="42.37474" lon="2.19243">
        <ele>1459.5</ele>
        <time>2024-09-25T10:10:36Z</time>
      </trkpt>
      <trkpt lat="42.37475" lon="2.19244">
        <ele>1459.6</ele>
        <time>2024-09-25T10:10:37Z</time>
      </trkpt>
      <trkpt lat="42.37476" lon="2.19246">
        <ele>1459.7</ele>
        <time>2024-09-25T10:10:38Z</time>
      </trkpt>
      <trkpt lat="42.37476" lon="2.19247">
        <ele>1459.8</ele>
        <time>2024-09-25T10:10:39Z</time>
      </trkpt>
      <trkpt lat="42.37477" lon="2.19248">
        <ele>1459.9</ele>
        <time>2024-09-25T10:10:40Z</time>
      </trkpt>
      <trkpt lat="42.37477" lon="2.1925">
        <ele>1460.1</ele>
        <time>2024-09-25T10:10:41Z</time>
      </trkpt>
      <trkpt lat="42.37478" lon="2.1925">
        <ele>1460.2</ele>
        <time>2024-09-25T10:10:42Z</time>
      </trkpt>
      <trkpt lat="42.37478" lon="2.19251">
        <ele>1460.2</ele>
        <time>2024-09-25T10:10:43Z</time>
      </trkpt>
      <trkpt lat="42.37478" lon="2.19252">
        <ele>1460.3</ele>
        <time>2024-09-25T10:10:44Z</time>
      </trkpt>
      <trkpt lat="42.37479" lon="2.19253">
        <ele>1460.4</ele>
        <time>2024-09-25T10:10:45Z</time>
      </trkpt>
      <trkpt lat="42.37479" lon="2.19255">
        <ele>1460.5</ele>
        <time>2024-09-25T10:10:46Z</time>
      </trkpt>
      <trkpt lat="42.37479" lon="2.19256">
        <ele>1460.6</ele>
        <time>2024-09-25T10:10:47Z</time>
      </trkpt>
      <trkpt lat="42.3748" lon="2.19257">
        <ele>1460.7</ele>
        <time>2024-09-25T10:10:48Z</time>
      </trkpt>
      <trkpt lat="42.3748" lon="2.19258">
        <ele>1460.8</ele>
        <time>2024-09-25T10:10:49Z</time>
      </trkpt>
      <trkpt lat="42.37481" lon="2.19259">
        <ele>1460.9</ele>
        <time>2024-09-25T10:10:50Z</time>
      </trkpt>
      <trkpt lat="42.37481" lon="2.1926">
        <ele>1461</ele>
        <time>2024-09-25T10:10:51Z</time>
      </trkpt>
      <trkpt lat="42.37481" lon="2.19261">
        <ele>1461.1</ele>
        <time>2024-09-25T10:10:52Z</time>
      </trkpt>
      <trkpt lat="42.37482" lon="2.19261">
        <ele>1461.1</ele>
        <time>2024-09-25T10:10:53Z</time>
      </trkpt>
      <trkpt lat="42.37482" lon="2.19262">
        <ele>1461.2</ele>
        <time>2024-09-25T10:10:54Z</time>
      </trkpt>
      <trkpt lat="42.37483" lon="2.19263">
        <ele>1461.3</ele>
        <time>2024-09-25T10:10:55Z</time>
      </trkpt>
      <trkpt lat="42.37483" lon="2.19264">
        <ele>1461.4</ele>
        <time>2024-09-25T10:10:56Z</time>
      </trkpt>
      <trkpt lat="42.37484" lon="2.19264">
        <ele>1461.4</ele>
        <time>2024-09-25T10:10:57Z</time>
      </trkpt>
      <trkpt lat="42.37484" lon="2.19265">
        <ele>1461.5</ele>
        <time>2024-09-25T10:10:58Z</time>
      </trkpt>
      <trkpt lat="42.37485" lon="2.19266">
        <ele>1461.6</ele>
        <time>2024-09-25T10:10:59Z</time>
      </trkpt>
      <trkpt lat="42.37485" lon="2.19267">
        <ele>1461.7</ele>
        <time>2024-09-25T10:11:00Z</time>
      </trkpt>
      <trkpt lat="42.37485" lon="2.19268">
        <ele>1461.7</ele>
        <time>2024-09-25T10:11:01Z</time>
      </trkpt>
      <trkpt lat="42.37485" lon="2.19269">
        <ele>1461.8</ele>
        <time>2024-09-25T10:11:02Z</time>
      </trkpt>
      <trkpt lat="42.37486" lon="2.1927">
        <ele>1461.9</ele>
        <time>2024-09-25T10:11:03Z</time>
      </trkpt>
      <trkpt lat="42.37486" lon="2.1927">
        <ele>1461.9</ele>
        <time>2024-09-25T10:11:04Z</time>
      </trkpt>
      <trkpt lat="42.37486" lon="2.19271">
        <ele>1462</ele>
        <time>2024-09-25T10:11:05Z</time>
      </trkpt>
      <trkpt lat="42.37487" lon="2.19272">
        <ele>1462.1</ele>
        <time>2024-09-25T10:11:06Z</time>
      </trkpt>
      <trkpt lat="42.37487" lon="2.19272">
        <ele>1462.2</ele>
        <time>2024-09-25T10:11:07Z</time>
      </trkpt>
      <trkpt lat="42.37488" lon="2.19273">
        <ele>1462.2</ele>
        <time>2024-09-25T10:11:08Z</time>
      </trkpt>
      <trkpt lat="42.37489" lon="2.19273">
        <ele>1462.3</ele>
        <time>2024-09-25T10:11:09Z</time>
      </trkpt>
      <trkpt lat="42.37489" lon="2.19274">
        <ele>1462.4</ele>
        <time>2024-09-25T10:11:10Z</time>
      </trkpt>
      <trkpt lat="42.3749" lon="2.19274">
        <ele>1462.4</ele>
        <time>2024-09-25T10:11:11Z</time>
      </trkpt>
      <trkpt lat="42.3749" lon="2.19275">
        <ele>1462.5</ele>
        <time>2024-09-25T10:11:12Z</time>
      </trkpt>
      <trkpt lat="42.3749" lon="2.19275">
        <ele>1462.5</ele>
        <time>2024-09-25T10:11:13Z</time>
      </trkpt>
      <trkpt lat="42.3749" lon="2.19276">
        <ele>1462.5</ele>
        <time>2024-09-25T10:11:14Z</time>
      </trkpt>
      <trkpt lat="42.3749" lon="2.19277">
        <ele>1462.6</ele>
        <time>2024-09-25T10:11:15Z</time>
      </trkpt>
      <trkpt lat="42.3749" lon="2.19277">
        <ele>1462.7</ele>
        <time>2024-09-25T10:11:16Z</time>
      </trkpt>
      <trkpt lat="42.37491" lon="2.19278">
        <ele>1462.7</ele>
        <time>2024-09-25T10:11:17Z</time>
      </trkpt>
      <trkpt lat="42.37491" lon="2.19279">
        <ele>1462.8</ele>
        <time>2024-09-25T10:11:18Z</time>
      </trkpt>
      <trkpt lat="42.37491" lon="2.1928">
        <ele>1462.9</ele>
        <time>2024-09-25T10:11:19Z</time>
      </trkpt>
      <trkpt lat="42.37491" lon="2.19282">
        <ele>1463</ele>
        <time>2024-09-25T10:11:20Z</time>
      </trkpt>
      <trkpt lat="42.37492" lon="2.19283">
        <ele>1463.1</ele>
        <time>2024-09-25T10:11:21Z</time>
      </trkpt>
      <trkpt lat="42.37492" lon="2.19284">
        <ele>1463.2</ele>
        <time>2024-09-25T10:11:22Z</time>
      </trkpt>
      <trkpt lat="42.37492" lon="2.19285">
        <ele>1463.3</ele>
        <time>2024-09-25T10:11:23Z</time>
      </trkpt>
      <trkpt lat="42.37493" lon="2.19287">
        <ele>1463.4</ele>
        <time>2024-09-25T10:11:24Z</time>
      </trkpt>
      <trkpt lat="42.37493" lon="2.19288">
        <ele>1463.5</ele>
        <time>2024-09-25T10:11:25Z</time>
      </trkpt>
      <trkpt lat="42.37493" lon="2.19289">
        <ele>1463.6</ele>
        <time>2024-09-25T10:11:26Z</time>
      </trkpt>
      <trkpt lat="42.37494" lon="2.1929">
        <ele>1463.6</ele>
        <time>2024-09-25T10:11:27Z</time>
      </trkpt>
      <trkpt lat="42.37494" lon="2.19291">
        <ele>1463.7</ele>
        <time>2024-09-25T10:11:28Z</time>
      </trkpt>
      <trkpt lat="42.37494" lon="2.19292">
        <ele>1463.8</ele>
        <time>2024-09-25T10:11:29Z</time>
      </trkpt>
      <trkpt lat="42.37494" lon="2.19293">
        <ele>1463.9</ele>
        <time>2024-09-25T10:11:30Z</time>
      </trkpt>
      <trkpt lat="42.37494" lon="2.19294">
        <ele>1463.9</ele>
        <time>2024-09-25T10:11:31Z</time>
      </trkpt>
      <trkpt lat="42.37495" lon="2.19295">
        <ele>1464</ele>
        <time>2024-09-25T10:11:32Z</time>
      </trkpt>
      <trkpt lat="42.37495" lon="2.19296">
        <ele>1464.1</ele>
        <time>2024-09-25T10:11:33Z</time>
      </trkpt>
      <trkpt lat="42.37496" lon="2.19296">
        <ele>1464.2</ele>
        <time>2024-09-25T10:11:34Z</time>
      </trkpt>
      <trkpt lat="42.37496" lon="2.19297">
        <ele>1464.3</ele>
        <time>2024-09-25T10:11:35Z</time>
      </trkpt>
      <trkpt lat="42.37497" lon="2.19299">
        <ele>1464.3</ele>
        <time>2024-09-25T10:11:36Z</time>
      </trkpt>
      <trkpt lat="42.37497" lon="2.193">
        <ele>1464.4</ele>
        <time>2024-09-25T10:11:37Z</time>
      </trkpt>
      <trkpt lat="42.37497" lon="2.19301">
        <ele>1464.5</ele>
        <time>2024-09-25T10:11:38Z</time>
      </trkpt>
      <trkpt lat="42.37497" lon="2.19302">
        <ele>1464.6</ele>
        <time>2024-09-25T10:11:39Z</time>
      </trkpt>
      <trkpt lat="42.37497" lon="2.19303">
        <ele>1464.7</ele>
        <time>2024-09-25T10:11:40Z</time>
      </trkpt>
      <trkpt lat="42.37497" lon="2.19304">
        <ele>1464.7</ele>
        <time>2024-09-25T10:11:41Z</time>
      </trkpt>
      <trkpt lat="42.37498" lon="2.19305">
        <ele>1464.8</ele>
        <time>2024-09-25T10:11:42Z</time>
      </trkpt>
      <trkpt lat="42.37498" lon="2.19306">
        <ele>1464.8</ele>
        <time>2024-09-25T10:11:43Z</time>
      </trkpt>
      <trkpt lat="42.37498" lon="2.19307">
        <ele>1464.9</ele>
        <time>2024-09-25T10:11:44Z</time>
      </trkpt>
      <trkpt lat="42.37498" lon="2.19307">
        <ele>1465</ele>
        <time>2024-09-25T10:11:45Z</time>
      </trkpt>
      <trkpt lat="42.37498" lon="2.19308">
        <ele>1465.1</ele>
        <time>2024-09-25T10:11:46Z</time>
      </trkpt>
      <trkpt lat="42.37499" lon="2.19309">
        <ele>1465.1</ele>
        <time>2024-09-25T10:11:47Z</time>
      </trkpt>
      <trkpt lat="42.37499" lon="2.1931">
        <ele>1465.2</ele>
        <time>2024-09-25T10:11:48Z</time>
      </trkpt>
      <trkpt lat="42.375" lon="2.19311">
        <ele>1465.3</ele>
        <time>2024-09-25T10:11:49Z</time>
      </trkpt>
      <trkpt lat="42.37501" lon="2.19312">
        <ele>1465.4</ele>
        <time>2024-09-25T10:11:50Z</time>
      </trkpt>
      <trkpt lat="42.37502" lon="2.19313">
        <ele>1465.5</ele>
        <time>2024-09-25T10:11:51Z</time>
      </trkpt>
      <trkpt lat="42.37503" lon="2.19313">
        <ele>1465.6</ele>
        <time>2024-09-25T10:11:52Z</time>
      </trkpt>
      <trkpt lat="42.37503" lon="2.19314">
        <ele>1465.7</ele>
        <time>2024-09-25T10:11:53Z</time>
      </trkpt>
      <trkpt lat="42.37504" lon="2.19314">
        <ele>1465.7</ele>
        <time>2024-09-25T10:11:54Z</time>
      </trkpt>
      <trkpt lat="42.37505" lon="2.19315">
        <ele>1465.8</ele>
        <time>2024-09-25T10:11:55Z</time>
      </trkpt>
      <trkpt lat="42.37505" lon="2.19315">
        <ele>1465.9</ele>
        <time>2024-09-25T10:11:56Z</time>
      </trkpt>
      <trkpt lat="42.37506" lon="2.19316">
        <ele>1466</ele>
        <time>2024-09-25T10:11:57Z</time>
      </trkpt>
      <trkpt lat="42.37507" lon="2.19317">
        <ele>1466.1</ele>
        <time>2024-09-25T10:11:58Z</time>
      </trkpt>
      <trkpt lat="42.37508" lon="2.19318">
        <ele>1466.2</ele>
        <time>2024-09-25T10:11:59Z</time>
      </trkpt>
      <trkpt lat="42.37508" lon="2.19319">
        <ele>1466.2</ele>
        <time>2024-09-25T10:12:00Z</time>
      </trkpt>
      <trkpt lat="42.37509" lon="2.19319">
        <ele>1466.3</ele>
        <time>2024-09-25T10:12:01Z</time>
      </trkpt>
      <trkpt lat="42.3751" lon="2.1932">
        <ele>1466.4</ele>
        <time>2024-09-25T10:12:02Z</time>
      </trkpt>
      <trkpt lat="42.37511" lon="2.1932">
        <ele>1466.5</ele>
        <time>2024-09-25T10:12:03Z</time>
      </trkpt>
      <trkpt lat="42.37511" lon="2.1932">
        <ele>1466.6</ele>
        <time>2024-09-25T10:12:04Z</time>
      </trkpt>
      <trkpt lat="42.37512" lon="2.19321">
        <ele>1466.6</ele>
        <time>2024-09-25T10:12:05Z</time>
      </trkpt>
      <trkpt lat="42.37512" lon="2.19321">
        <ele>1466.7</ele>
        <time>2024-09-25T10:12:06Z</time>
      </trkpt>
      <trkpt lat="42.37513" lon="2.19322">
        <ele>1466.7</ele>
        <time>2024-09-25T10:12:07Z</time>
      </trkpt>
      <trkpt lat="42.37513" lon="2.19323">
        <ele>1466.8</ele>
        <time>2024-09-25T10:12:08Z</time>
      </trkpt>
      <trkpt lat="42.37514" lon="2.19324">
        <ele>1466.9</ele>
        <time>2024-09-25T10:12:09Z</time>
      </trkpt>
      <trkpt lat="42.37514" lon="2.19325">
        <ele>1467</ele>
        <time>2024-09-25T10:12:10Z</time>
      </trkpt>
      <trkpt lat="42.37515" lon="2.19326">
        <ele>1467.1</ele>
        <time>2024-09-25T10:12:11Z</time>
      </trkpt>
      <trkpt lat="42.37515" lon="2.19327">
        <ele>1467.2</ele>
        <time>2024-09-25T10:12:12Z</time>
      </trkpt>
      <trkpt lat="42.37516" lon="2.19328">
        <ele>1467.3</ele>
        <time>2024-09-25T10:12:13Z</time>
      </trkpt>
      <trkpt lat="42.37516" lon="2.19329">
        <ele>1467.4</ele>
        <time>2024-09-25T10:12:14Z</time>
      </trkpt>
      <trkpt lat="42.37516" lon="2.19329">
        <ele>1467.4</ele>
        <time>2024-09-25T10:12:15Z</time>
      </trkpt>
      <trkpt lat="42.37517" lon="2.1933">
        <ele>1467.5</ele>
        <time>2024-09-25T10:12:16Z</time>
      </trkpt>
      <trkpt lat="42.37517" lon="2.1933">
        <ele>1467.6</ele>
        <time>2024-09-25T10:12:17Z</time>
      </trkpt>
      <trkpt lat="42.37518" lon="2.19331">
        <ele>1467.6</ele>
        <time>2024-09-25T10:12:18Z</time>
      </trkpt>
      <trkpt lat="42.37518" lon="2.19332">
        <ele>1467.7</ele>
        <time>2024-09-25T10:12:19Z</time>
      </trkpt>
      <trkpt lat="42.37518" lon="2.19333">
        <ele>1467.8</ele>
        <time>2024-09-25T10:12:20Z</time>
      </trkpt>
      <trkpt lat="42.37518" lon="2.19333">
        <ele>1467.8</ele>
        <time>2024-09-25T10:12:21Z</time>
      </trkpt>
      <trkpt lat="42.37518" lon="2.19334">
        <ele>1467.9</ele>
        <time>2024-09-25T10:12:22Z</time>
      </trkpt>
      <trkpt lat="42.37519" lon="2.19335">
        <ele>1468</ele>
        <time>2024-09-25T10:12:23Z</time>
      </trkpt>
      <trkpt lat="42.37519" lon="2.19336">
        <ele>1468</ele>
        <time>2024-09-25T10:12:24Z</time>
      </trkpt>
      <trkpt lat="42.37519" lon="2.19336">
        <ele>1468.1</ele>
        <time>2024-09-25T10:12:25Z</time>
      </trkpt>
      <trkpt lat="42.37519" lon="2.19337">
        <ele>1468.1</ele>
        <time>2024-09-25T10:12:26Z</time>
      </trkpt>
      <trkpt lat="42.37519" lon="2.19338">
        <ele>1468.2</ele>
        <time>2024-09-25T10:12:27Z</time>
      </trkpt>
      <trkpt lat="42.37519" lon="2.19338">
        <ele>1468.2</ele>
        <time>2024-09-25T10:12:28Z</time>
      </trkpt>
      <trkpt lat="42.37519" lon="2.19339">
        <ele>1468.3</ele>
        <time>2024-09-25T10:12:29Z</time>
      </trkpt>
      <trkpt lat="42.37519" lon="2.19339">
        <ele>1468.3</ele>
        <time>2024-09-25T10:12:30Z</time>
      </trkpt>
      <trkpt lat="42.37519" lon="2.1934">
        <ele>1468.4</ele>
        <time>2024-09-25T10:12:31Z</time>
      </trkpt>
      <trkpt lat="42.37519" lon="2.19341">
        <ele>1468.4</ele>
        <time>2024-09-25T10:12:32Z</time>
      </trkpt>
      <trkpt lat="42.3752" lon="2.19341">
        <ele>1468.5</ele>
        <time>2024-09-25T10:12:33Z</time>
      </trkpt>
      <trkpt lat="42.3752" lon="2.19342">
        <ele>1468.6</ele>
        <time>2024-09-25T10:12:34Z</time>
      </trkpt>
      <trkpt lat="42.3752" lon="2.19343">
        <ele>1468.6</ele>
        <time>2024-09-25T10:12:35Z</time>
      </trkpt>
      <trkpt lat="42.3752" lon="2.19343">
        <ele>1468.7</ele>
        <time>2024-09-25T10:12:36Z</time>
      </trkpt>
      <trkpt lat="42.3752" lon="2.19344">
        <ele>1468.7</ele>
        <time>2024-09-25T10:12:37Z</time>
      </trkpt>
      <trkpt lat="42.3752" lon="2.19344">
        <ele>1468.7</ele>
        <time>2024-09-25T10:12:38Z</time>
      </trkpt>
      <trkpt lat="42.3752" lon="2.19345">
        <ele>1468.8</ele>
        <time>2024-09-25T10:12:39Z</time>
      </trkpt>
      <trkpt lat="42.3752" lon="2.19345">
        <ele>1468.8</ele>
        <time>2024-09-25T10:12:40Z</time>
      </trkpt>
      <trkpt lat="42.3752" lon="2.19346">
        <ele>1468.9</ele>
        <time>2024-09-25T10:12:41Z</time>
      </trkpt>
      <trkpt lat="42.3752" lon="2.19346">
        <ele>1468.9</ele>
        <time>2024-09-25T10:12:42Z</time>
      </trkpt>
      <trkpt lat="42.3752" lon="2.19347">
        <ele>1469</ele>
        <time>2024-09-25T10:12:43Z</time>
      </trkpt>
      <trkpt lat="42.3752" lon="2.19348">
        <ele>1469.1</ele>
        <time>2024-09-25T10:12:44Z</time>
      </trkpt>
      <trkpt lat="42.3752" lon="2.19349">
        <ele>1469.2</ele>
        <time>2024-09-25T10:12:45Z</time>
      </trkpt>
      <trkpt lat="42.3752" lon="2.19349">
        <ele>1469.2</ele>
        <time>2024-09-25T10:12:46Z</time>
      </trkpt>
      <trkpt lat="42.3752" lon="2.1935">
        <ele>1469.3</ele>
        <time>2024-09-25T10:12:47Z</time>
      </trkpt>
      <trkpt lat="42.37521" lon="2.19351">
        <ele>1469.4</ele>
        <time>2024-09-25T10:12:48Z</time>
      </trkpt>
      <trkpt lat="42.37521" lon="2.19351">
        <ele>1469.4</ele>
        <time>2024-09-25T10:12:49Z</time>
      </trkpt>
      <trkpt lat="42.37521" lon="2.19352">
        <ele>1469.5</ele>
        <time>2024-09-25T10:12:50Z</time>
      </trkpt>
      <trkpt lat="42.37521" lon="2.19353">
        <ele>1469.6</ele>
        <time>2024-09-25T10:12:51Z</time>
      </trkpt>
      <trkpt lat="42.37521" lon="2.19353">
        <ele>1469.7</ele>
        <time>2024-09-25T10:12:52Z</time>
      </trkpt>
      <trkpt lat="42.37521" lon="2.19354">
        <ele>1469.7</ele>
        <time>2024-09-25T10:12:53Z</time>
      </trkpt>
      <trkpt lat="42.37522" lon="2.19355">
        <ele>1469.8</ele>
        <time>2024-09-25T10:12:54Z</time>
      </trkpt>
      <trkpt lat="42.37522" lon="2.19355">
        <ele>1469.9</ele>
        <time>2024-09-25T10:12:55Z</time>
      </trkpt>
      <trkpt lat="42.37522" lon="2.19356">
        <ele>1470</ele>
        <time>2024-09-25T10:12:56Z</time>
      </trkpt>
      <trkpt lat="42.37523" lon="2.19357">
        <ele>1470.1</ele>
        <time>2024-09-25T10:12:57Z</time>
      </trkpt>
      <trkpt lat="42.37523" lon="2.19357">
        <ele>1470.1</ele>
        <time>2024-09-25T10:12:58Z</time>
      </trkpt>
      <trkpt lat="42.37523" lon="2.19358">
        <ele>1470.2</ele>
        <time>2024-09-25T10:12:59Z</time>
      </trkpt>
      <trkpt lat="42.37523" lon="2.19358">
        <ele>1470.2</ele>
        <time>2024-09-25T10:13:00Z</time>
      </trkpt>
      <trkpt lat="42.37523" lon="2.19358">
        <ele>1470.2</ele>
        <time>2024-09-25T10:13:01Z</time>
      </trkpt>
      <trkpt lat="42.37523" lon="2.19359">
        <ele>1470.3</ele>
        <time>2024-09-25T10:13:02Z</time>
      </trkpt>
      <trkpt lat="42.37523" lon="2.19359">
        <ele>1470.3</ele>
        <time>2024-09-25T10:13:03Z</time>
      </trkpt>
      <trkpt lat="42.37524" lon="2.19359">
        <ele>1470.4</ele>
        <time>2024-09-25T10:13:04Z</time>
      </trkpt>
      <trkpt lat="42.37524" lon="2.1936">
        <ele>1470.4</ele>
        <time>2024-09-25T10:13:05Z</time>
      </trkpt>
      <trkpt lat="42.37524" lon="2.1936">
        <ele>1470.5</ele>
        <time>2024-09-25T10:13:06Z</time>
      </trkpt>
      <trkpt lat="42.37524" lon="2.19361">
        <ele>1470.5</ele>
        <time>2024-09-25T10:13:07Z</time>
      </trkpt>
      <trkpt lat="42.37524" lon="2.19361">
        <ele>1470.6</ele>
        <time>2024-09-25T10:13:08Z</time>
      </trkpt>
      <trkpt lat="42.37525" lon="2.19362">
        <ele>1470.7</ele>
        <time>2024-09-25T10:13:09Z</time>
      </trkpt>
      <trkpt lat="42.37525" lon="2.19362">
        <ele>1470.7</ele>
        <time>2024-09-25T10:13:10Z</time>
      </trkpt>
      <trkpt lat="42.37525" lon="2.19363">
        <ele>1470.8</ele>
        <time>2024-09-25T10:13:11Z</time>
      </trkpt>
      <trkpt lat="42.37526" lon="2.19363">
        <ele>1470.9</ele>
        <time>2024-09-25T10:13:12Z</time>
      </trkpt>
      <trkpt lat="42.37526" lon="2.19364">
        <ele>1471</ele>
        <time>2024-09-25T10:13:13Z</time>
      </trkpt>
      <trkpt lat="42.37527" lon="2.19364">
        <ele>1471.1</ele>
        <time>2024-09-25T10:13:14Z</time>
      </trkpt>
      <trkpt lat="42.37527" lon="2.19365">
        <ele>1471.1</ele>
        <time>2024-09-25T10:13:15Z</time>
      </trkpt>
      <trkpt lat="42.37528" lon="2.19365">
        <ele>1471.2</ele>
        <time>2024-09-25T10:13:16Z</time>
      </trkpt>
      <trkpt lat="42.37528" lon="2.19366">
        <ele>1471.4</ele>
        <time>2024-09-25T10:13:17Z</time>
      </trkpt>
      <trkpt lat="42.37529" lon="2.19366">
        <ele>1471.4</ele>
        <time>2024-09-25T10:13:18Z</time>
      </trkpt>
      <trkpt lat="42.37529" lon="2.19367">
        <ele>1471.5</ele>
        <time>2024-09-25T10:13:19Z</time>
      </trkpt>
      <trkpt lat="42.3753" lon="2.19367">
        <ele>1471.6</ele>
        <time>2024-09-25T10:13:20Z</time>
      </trkpt>
      <trkpt lat="42.3753" lon="2.19368">
        <ele>1471.7</ele>
        <time>2024-09-25T10:13:21Z</time>
      </trkpt>
      <trkpt lat="42.3753" lon="2.19369">
        <ele>1471.8</ele>
        <time>2024-09-25T10:13:22Z</time>
      </trkpt>
      <trkpt lat="42.37531" lon="2.1937">
        <ele>1471.9</ele>
        <time>2024-09-25T10:13:23Z</time>
      </trkpt>
      <trkpt lat="42.37531" lon="2.1937">
        <ele>1472</ele>
        <time>2024-09-25T10:13:24Z</time>
      </trkpt>
      <trkpt lat="42.37531" lon="2.19371">
        <ele>1472.1</ele>
        <time>2024-09-25T10:13:25Z</time>
      </trkpt>
      <trkpt lat="42.37532" lon="2.19371">
        <ele>1472.2</ele>
        <time>2024-09-25T10:13:26Z</time>
      </trkpt>
      <trkpt lat="42.37532" lon="2.19372">
        <ele>1472.2</ele>
        <time>2024-09-25T10:13:27Z</time>
      </trkpt>
      <trkpt lat="42.37532" lon="2.19372">
        <ele>1472.2</ele>
        <time>2024-09-25T10:13:28Z</time>
      </trkpt>
      <trkpt lat="42.37532" lon="2.19372">
        <ele>1472.2</ele>
        <time>2024-09-25T10:13:29Z</time>
      </trkpt>
      <trkpt lat="42.37532" lon="2.19372">
        <ele>1472.3</ele>
        <time>2024-09-25T10:13:30Z</time>
      </trkpt>
      <trkpt lat="42.37532" lon="2.19373">
        <ele>1472.4</ele>
        <time>2024-09-25T10:13:31Z</time>
      </trkpt>
      <trkpt lat="42.37532" lon="2.19373">
        <ele>1472.4</ele>
        <time>2024-09-25T10:13:32Z</time>
      </trkpt>
      <trkpt lat="42.37533" lon="2.19374">
        <ele>1472.5</ele>
        <time>2024-09-25T10:13:33Z</time>
      </trkpt>
      <trkpt lat="42.37533" lon="2.19375">
        <ele>1472.6</ele>
        <time>2024-09-25T10:13:34Z</time>
      </trkpt>
      <trkpt lat="42.37533" lon="2.19376">
        <ele>1472.7</ele>
        <time>2024-09-25T10:13:35Z</time>
      </trkpt>
      <trkpt lat="42.37533" lon="2.19376">
        <ele>1472.7</ele>
        <time>2024-09-25T10:13:36Z</time>
      </trkpt>
      <trkpt lat="42.37532" lon="2.19376">
        <ele>1472.8</ele>
        <time>2024-09-25T10:13:37Z</time>
      </trkpt>
      <trkpt lat="42.37533" lon="2.19377">
        <ele>1472.9</ele>
        <time>2024-09-25T10:13:38Z</time>
      </trkpt>
      <trkpt lat="42.37533" lon="2.19377">
        <ele>1472.9</ele>
        <time>2024-09-25T10:13:39Z</time>
      </trkpt>
      <trkpt lat="42.37533" lon="2.19377">
        <ele>1472.9</ele>
        <time>2024-09-25T10:13:40Z</time>
      </trkpt>
      <trkpt lat="42.37533" lon="2.19377">
        <ele>1472.9</ele>
        <time>2024-09-25T10:13:41Z</time>
      </trkpt>
      <trkpt lat="42.37533" lon="2.19377">
        <ele>1472.9</ele>
        <time>2024-09-25T10:13:42Z</time>
      </trkpt>
      <trkpt lat="42.37533" lon="2.19377">
        <ele>1472.9</ele>
        <time>2024-09-25T10:13:43Z</time>
      </trkpt>
      <trkpt lat="42.37533" lon="2.19377">
        <ele>1472.9</ele>
        <time>2024-09-25T10:13:44Z</time>
      </trkpt>
      <trkpt lat="42.37533" lon="2.19377">
        <ele>1472.9</ele>
        <time>2024-09-25T10:13:45Z</time>
      </trkpt>
      <trkpt lat="42.37533" lon="2.19377">
        <ele>1472.9</ele>
        <time>2024-09-25T10:13:46Z</time>
      </trkpt>
      <trkpt lat="42.37533" lon="2.19377">
        <ele>1472.9</ele>
        <time>2024-09-25T10:13:47Z</time>
      </trkpt>
      <trkpt lat="42.37533" lon="2.19377">
        <ele>1473</ele>
        <time>2024-09-25T10:13:48Z</time>
      </trkpt>
      <trkpt lat="42.37533" lon="2.19377">
        <ele>1473</ele>
        <time>2024-09-25T10:13:49Z</time>
      </trkpt>
      <trkpt lat="42.37533" lon="2.19377">
        <ele>1473</ele>
        <time>2024-09-25T10:13:50Z</time>
      </trkpt>
      <trkpt lat="42.37534" lon="2.19379">
        <ele>1473.3</ele>
        <time>2024-09-25T10:13:51Z</time>
      </trkpt>
      <trkpt lat="42.37534" lon="2.19381">
        <ele>1473.5</ele>
        <time>2024-09-25T10:13:52Z</time>
      </trkpt>
      <trkpt lat="42.37535" lon="2.19382">
        <ele>1473.6</ele>
        <time>2024-09-25T10:13:53Z</time>
      </trkpt>
      <trkpt lat="42.37535" lon="2.19382">
        <ele>1473.7</ele>
        <time>2024-09-25T10:13:54Z</time>
      </trkpt>
      <trkpt lat="42.37535" lon="2.19382">
        <ele>1473.7</ele>
        <time>2024-09-25T10:13:55Z</time>
      </trkpt>
      <trkpt lat="42.37535" lon="2.19382">
        <ele>1473.8</ele>
        <time>2024-09-25T10:13:56Z</time>
      </trkpt>
      <trkpt lat="42.37535" lon="2.19382">
        <ele>1473.8</ele>
        <time>2024-09-25T10:13:57Z</time>
      </trkpt>
      <trkpt lat="42.37535" lon="2.19381">
        <ele>1473.8</ele>
        <time>2024-09-25T10:13:58Z</time>
      </trkpt>
      <trkpt lat="42.37535" lon="2.19381">
        <ele>1473.9</ele>
        <time>2024-09-25T10:14:00Z</time>
      </trkpt>
      <trkpt lat="42.37535" lon="2.19381">
        <ele>1473.9</ele>
        <time>2024-09-25T10:14:01Z</time>
      </trkpt>
      <trkpt lat="42.37535" lon="2.19381">
        <ele>1473.9</ele>
        <time>2024-09-25T10:14:02Z</time>
      </trkpt>
      <trkpt lat="42.37535" lon="2.19381">
        <ele>1473.9</ele>
        <time>2024-09-25T10:14:03Z</time>
      </trkpt>
      <trkpt lat="42.37535" lon="2.19381">
        <ele>1473.9</ele>
        <time>2024-09-25T10:14:04Z</time>
      </trkpt>
      <trkpt lat="42.37535" lon="2.19381">
        <ele>1473.9</ele>
        <time>2024-09-25T10:14:05Z</time>
      </trkpt>
      <trkpt lat="42.37535" lon="2.19381">
        <ele>1473.9</ele>
        <time>2024-09-25T10:14:06Z</time>
      </trkpt>
      <trkpt lat="42.37535" lon="2.19381">
        <ele>1473.9</ele>
        <time>2024-09-25T10:14:07Z</time>
      </trkpt>
      <trkpt lat="42.37535" lon="2.19381">
        <ele>1473.9</ele>
        <time>2024-09-25T10:14:08Z</time>
      </trkpt>
      <trkpt lat="42.37535" lon="2.19381">
        <ele>1473.9</ele>
        <time>2024-09-25T10:14:09Z</time>
      </trkpt>
      <trkpt lat="42.37535" lon="2.19381">
        <ele>1473.9</ele>
        <time>2024-09-25T10:14:10Z</time>
      </trkpt>
      <trkpt lat="42.37535" lon="2.19381">
        <ele>1473.9</ele>
        <time>2024-09-25T10:14:11Z</time>
      </trkpt>
      <trkpt lat="42.37535" lon="2.19382">
        <ele>1474</ele>
        <time>2024-09-25T10:14:12Z</time>
      </trkpt>
      <trkpt lat="42.37535" lon="2.19382">
        <ele>1474</ele>
        <time>2024-09-25T10:14:13Z</time>
      </trkpt>
      <trkpt lat="42.37535" lon="2.19382">
        <ele>1474</ele>
        <time>2024-09-25T10:14:14Z</time>
      </trkpt>
      <trkpt lat="42.37535" lon="2.19382">
        <ele>1474</ele>
        <time>2024-09-25T10:14:15Z</time>
      </trkpt>
      <trkpt lat="42.37535" lon="2.19382">
        <ele>1474</ele>
        <time>2024-09-25T10:14:16Z</time>
      </trkpt>
      <trkpt lat="42.37535" lon="2.19382">
        <ele>1474</ele>
        <time>2024-09-25T10:14:17Z</time>
      </trkpt>
      <trkpt lat="42.37535" lon="2.19382">
        <ele>1474</ele>
        <time>2024-09-25T10:14:18Z</time>
      </trkpt>
      <trkpt lat="42.37535" lon="2.19382">
        <ele>1474</ele>
        <time>2024-09-25T10:14:19Z</time>
      </trkpt>
      <trkpt lat="42.37535" lon="2.19382">
        <ele>1474</ele>
        <time>2024-09-25T10:14:20Z</time>
      </trkpt>
      <trkpt lat="42.37535" lon="2.19382">
        <ele>1474</ele>
        <time>2024-09-25T10:14:21Z</time>
      </trkpt>
      <trkpt lat="42.37535" lon="2.19382">
        <ele>1474</ele>
        <time>2024-09-25T10:14:22Z</time>
      </trkpt>
      <trkpt lat="42.37535" lon="2.19382">
        <ele>1474</ele>
        <time>2024-09-25T10:14:23Z</time>
      </trkpt>
      <trkpt lat="42.37535" lon="2.19382">
        <ele>1474</ele>
        <time>2024-09-25T10:14:24Z</time>
      </trkpt>
      <trkpt lat="42.37535" lon="2.19382">
        <ele>1474</ele>
        <time>2024-09-25T10:14:25Z</time>
      </trkpt>
      <trkpt lat="42.37535" lon="2.19382">
        <ele>1474</ele>
        <time>2024-09-25T10:14:26Z</time>
      </trkpt>
      <trkpt lat="42.37535" lon="2.19382">
        <ele>1474</ele>
        <time>2024-09-25T10:14:27Z</time>
      </trkpt>
      <trkpt lat="42.37535" lon="2.19382">
        <ele>1474</ele>
        <time>2024-09-25T10:14:28Z</time>
      </trkpt>
      <trkpt lat="42.37535" lon="2.19382">
        <ele>1474</ele>
        <time>2024-09-25T10:14:29Z</time>
      </trkpt>
      <trkpt lat="42.37535" lon="2.19382">
        <ele>1474.1</ele>
        <time>2024-09-25T10:14:30Z</time>
      </trkpt>
      <trkpt lat="42.37535" lon="2.19383">
        <ele>1474.1</ele>
        <time>2024-09-25T10:14:31Z</time>
      </trkpt>
      <trkpt lat="42.37534" lon="2.19383">
        <ele>1474.2</ele>
        <time>2024-09-25T10:14:32Z</time>
      </trkpt>
      <trkpt lat="42.37534" lon="2.19383">
        <ele>1474.2</ele>
        <time>2024-09-25T10:14:33Z</time>
      </trkpt>
      <trkpt lat="42.37534" lon="2.19383">
        <ele>1474.2</ele>
        <time>2024-09-25T10:14:34Z</time>
      </trkpt>
      <trkpt lat="42.37534" lon="2.19383">
        <ele>1474.2</ele>
        <time>2024-09-25T10:14:35Z</time>
      </trkpt>
      <trkpt lat="42.37534" lon="2.19383">
        <ele>1474.2</ele>
        <time>2024-09-25T10:14:36Z</time>
      </trkpt>
      <trkpt lat="42.37534" lon="2.19383">
        <ele>1474.2</ele>
        <time>2024-09-25T10:14:37Z</time>
      </trkpt>
      <trkpt lat="42.37534" lon="2.19383">
        <ele>1474.2</ele>
        <time>2024-09-25T10:14:38Z</time>
      </trkpt>
      <trkpt lat="42.37534" lon="2.19383">
        <ele>1474.2</ele>
        <time>2024-09-25T10:14:39Z</time>
      </trkpt>
      <trkpt lat="42.37534" lon="2.19383">
        <ele>1474.2</ele>
        <time>2024-09-25T10:14:40Z</time>
      </trkpt>
      <trkpt lat="42.37534" lon="2.19383">
        <ele>1474.2</ele>
        <time>2024-09-25T10:14:41Z</time>
      </trkpt>
      <trkpt lat="42.37534" lon="2.19383">
        <ele>1474.2</ele>
        <time>2024-09-25T10:14:42Z</time>
      </trkpt>
      <trkpt lat="42.37534" lon="2.19383">
        <ele>1474.2</ele>
        <time>2024-09-25T10:14:43Z</time>
      </trkpt>
      <trkpt lat="42.37534" lon="2.19383">
        <ele>1474.2</ele>
        <time>2024-09-25T10:14:44Z</time>
      </trkpt>
      <trkpt lat="42.37534" lon="2.19383">
        <ele>1474.2</ele>
        <time>2024-09-25T10:14:45Z</time>
      </trkpt>
      <trkpt lat="42.37534" lon="2.19383">
        <ele>1474.2</ele>
        <time>2024-09-25T10:14:46Z</time>
      </trkpt>
      <trkpt lat="42.37534" lon="2.19383">
        <ele>1474.2</ele>
        <time>2024-09-25T10:14:47Z</time>
      </trkpt>
      <trkpt lat="42.37534" lon="2.19383">
        <ele>1474.2</ele>
        <time>2024-09-25T10:14:48Z</time>
      </trkpt>
      <trkpt lat="42.37534" lon="2.19383">
        <ele>1474.2</ele>
        <time>2024-09-25T10:14:49Z</time>
      </trkpt>
      <trkpt lat="42.37534" lon="2.19383">
        <ele>1474.2</ele>
        <time>2024-09-25T10:14:50Z</time>
      </trkpt>
      <trkpt lat="42.37534" lon="2.19383">
        <ele>1474.2</ele>
        <time>2024-09-25T10:14:51Z</time>
      </trkpt>
      <trkpt lat="42.37534" lon="2.19383">
        <ele>1474.2</ele>
        <time>2024-09-25T10:14:52Z</time>
      </trkpt>
      <trkpt lat="42.37534" lon="2.19383">
        <ele>1474.2</ele>
        <time>2024-09-25T10:14:53Z</time>
      </trkpt>
      <trkpt lat="42.37534" lon="2.19383">
        <ele>1474.2</ele>
        <time>2024-09-25T10:14:54Z</time>
      </trkpt>
      <trkpt lat="42.37534" lon="2.19383">
        <ele>1474.2</ele>
        <time>2024-09-25T10:14:55Z</time>
      </trkpt>
      <trkpt lat="42.37534" lon="2.19383">
        <ele>1474.2</ele>
        <time>2024-09-25T10:14:56Z</time>
      </trkpt>
      <trkpt lat="42.37534" lon="2.19383">
        <ele>1474.2</ele>
        <time>2024-09-25T10:14:57Z</time>
      </trkpt>
      <trkpt lat="42.37534" lon="2.19383">
        <ele>1474.2</ele>
        <time>2024-09-25T10:14:58Z</time>
      </trkpt>
      <trkpt lat="42.37534" lon="2.19383">
        <ele>1474.2</ele>
        <time>2024-09-25T10:14:59Z</time>
      </trkpt>
      <trkpt lat="42.37534" lon="2.19383">
        <ele>1474.2</ele>
        <time>2024-09-25T10:15:00Z</time>
      </trkpt>
      <trkpt lat="42.37534" lon="2.19383">
        <ele>1474.2</ele>
        <time>2024-09-25T10:15:01Z</time>
      </trkpt>
      <trkpt lat="42.37534" lon="2.19383">
        <ele>1474.2</ele>
        <time>2024-09-25T10:15:02Z</time>
      </trkpt>
      <trkpt lat="42.37534" lon="2.19383">
        <ele>1474.2</ele>
        <time>2024-09-25T10:15:03Z</time>
      </trkpt>
      <trkpt lat="42.37534" lon="2.19383">
        <ele>1474.2</ele>
        <time>2024-09-25T10:15:04Z</time>
      </trkpt>
      <trkpt lat="42.37534" lon="2.19383">
        <ele>1474.2</ele>
        <time>2024-09-25T10:15:05Z</time>
      </trkpt>
      <trkpt lat="42.37534" lon="2.19383">
        <ele>1474.2</ele>
        <time>2024-09-25T10:15:06Z</time>
      </trkpt>
      <trkpt lat="42.37534" lon="2.19383">
        <ele>1474.2</ele>
        <time>2024-09-25T10:15:07Z</time>
      </trkpt>
      <trkpt lat="42.37534" lon="2.19383">
        <ele>1474.2</ele>
        <time>2024-09-25T10:15:08Z</time>
      </trkpt>
      <trkpt lat="42.37534" lon="2.19383">
        <ele>1474.2</ele>
        <time>2024-09-25T10:15:09Z</time>
      </trkpt>
      <trkpt lat="42.37534" lon="2.19383">
        <ele>1474.2</ele>
        <time>2024-09-25T10:15:10Z</time>
      </trkpt>
      <trkpt lat="42.37534" lon="2.19383">
        <ele>1474.3</ele>
        <time>2024-09-25T10:15:11Z</time>
      </trkpt>
      <trkpt lat="42.37534" lon="2.19383">
        <ele>1474.3</ele>
        <time>2024-09-25T10:15:12Z</time>
      </trkpt>
      <trkpt lat="42.37534" lon="2.19383">
        <ele>1474.3</ele>
        <time>2024-09-25T10:15:13Z</time>
      </trkpt>
      <trkpt lat="42.37534" lon="2.19383">
        <ele>1474.3</ele>
        <time>2024-09-25T10:15:14Z</time>
      </trkpt>
      <trkpt lat="42.37534" lon="2.19383">
        <ele>1474.3</ele>
        <time>2024-09-25T10:15:15Z</time>
      </trkpt>
      <trkpt lat="42.37534" lon="2.19383">
        <ele>1474.3</ele>
        <time>2024-09-25T10:15:16Z</time>
      </trkpt>
      <trkpt lat="42.37534" lon="2.19383">
        <ele>1474.3</ele>
        <time>2024-09-25T10:15:17Z</time>
      </trkpt>
      <trkpt lat="42.37534" lon="2.19383">
        <ele>1474.3</ele>
        <time>2024-09-25T10:15:18Z</time>
      </trkpt>
      <trkpt lat="42.37534" lon="2.19383">
        <ele>1474.3</ele>
        <time>2024-09-25T10:15:19Z</time>
      </trkpt>
      <trkpt lat="42.37534" lon="2.19383">
        <ele>1474.3</ele>
        <time>2024-09-25T10:15:20Z</time>
      </trkpt>
      <trkpt lat="42.37534" lon="2.19383">
        <ele>1474.3</ele>
        <time>2024-09-25T10:15:21Z</time>
      </trkpt>
      <trkpt lat="42.37534" lon="2.19383">
        <ele>1474.3</ele>
        <time>2024-09-25T10:15:22Z</time>
      </trkpt>
      <trkpt lat="42.37534" lon="2.19383">
        <ele>1474.3</ele>
        <time>2024-09-25T10:15:23Z</time>
      </trkpt>
      <trkpt lat="42.37534" lon="2.19383">
        <ele>1474.3</ele>
        <time>2024-09-25T10:15:24Z</time>
      </trkpt>
      <trkpt lat="42.37534" lon="2.19383">
        <ele>1474.3</ele>
        <time>2024-09-25T10:15:25Z</time>
      </trkpt>
      <trkpt lat="42.37534" lon="2.19383">
        <ele>1474.3</ele>
        <time>2024-09-25T10:15:26Z</time>
      </trkpt>
      <trkpt lat="42.37534" lon="2.19383">
        <ele>1474.3</ele>
        <time>2024-09-25T10:15:27Z</time>
      </trkpt>
      <trkpt lat="42.37534" lon="2.19383">
        <ele>1474.3</ele>
        <time>2024-09-25T10:15:28Z</time>
      </trkpt>
      <trkpt lat="42.37534" lon="2.19383">
        <ele>1474.3</ele>
        <time>2024-09-25T10:15:29Z</time>
      </trkpt>
      <trkpt lat="42.37533" lon="2.19382">
        <ele>1474.3</ele>
        <time>2024-09-25T10:15:30Z</time>
      </trkpt>
      <trkpt lat="42.37533" lon="2.19382">
        <ele>1474.3</ele>
        <time>2024-09-25T10:15:31Z</time>
      </trkpt>
      <trkpt lat="42.37533" lon="2.19382">
        <ele>1474.4</ele>
        <time>2024-09-25T10:15:32Z</time>
      </trkpt>
      <trkpt lat="42.37532" lon="2.19383">
        <ele>1474.5</ele>
        <time>2024-09-25T10:15:33Z</time>
      </trkpt>
      <trkpt lat="42.37531" lon="2.19383">
        <ele>1474.6</ele>
        <time>2024-09-25T10:15:34Z</time>
      </trkpt>
      <trkpt lat="42.37531" lon="2.19383">
        <ele>1474.7</ele>
        <time>2024-09-25T10:15:35Z</time>
      </trkpt>
      <trkpt lat="42.3753" lon="2.19383">
        <ele>1474.8</ele>
        <time>2024-09-25T10:15:36Z</time>
      </trkpt>
      <trkpt lat="42.3753" lon="2.19383">
        <ele>1474.8</ele>
        <time>2024-09-25T10:15:37Z</time>
      </trkpt>
      <trkpt lat="42.3753" lon="2.19383">
        <ele>1474.9</ele>
        <time>2024-09-25T10:15:38Z</time>
      </trkpt>
      <trkpt lat="42.37529" lon="2.19382">
        <ele>1474.9</ele>
        <time>2024-09-25T10:15:39Z</time>
      </trkpt>
      <trkpt lat="42.37529" lon="2.19382">
        <ele>1474.9</ele>
        <time>2024-09-25T10:15:40Z</time>
      </trkpt>
      <trkpt lat="42.37529" lon="2.19382">
        <ele>1475</ele>
        <time>2024-09-25T10:15:41Z</time>
      </trkpt>
      <trkpt lat="42.37529" lon="2.19382">
        <ele>1475</ele>
        <time>2024-09-25T10:15:42Z</time>
      </trkpt>
      <trkpt lat="42.37529" lon="2.19382">
        <ele>1475</ele>
        <time>2024-09-25T10:15:43Z</time>
      </trkpt>
      <trkpt lat="42.37529" lon="2.19382">
        <ele>1475</ele>
        <time>2024-09-25T10:15:44Z</time>
      </trkpt>
      <trkpt lat="42.37529" lon="2.19382">
        <ele>1475</ele>
        <time>2024-09-25T10:15:45Z</time>
      </trkpt>
      <trkpt lat="42.37529" lon="2.19382">
        <ele>1475</ele>
        <time>2024-09-25T10:15:46Z</time>
      </trkpt>
      <trkpt lat="42.37529" lon="2.19382">
        <ele>1475.1</ele>
        <time>2024-09-25T10:15:47Z</time>
      </trkpt>
      <trkpt lat="42.3753" lon="2.19382">
        <ele>1475.1</ele>
        <time>2024-09-25T10:15:48Z</time>
      </trkpt>
      <trkpt lat="42.3753" lon="2.19381">
        <ele>1475.1</ele>
        <time>2024-09-25T10:15:49Z</time>
      </trkpt>
      <trkpt lat="42.3753" lon="2.19381">
        <ele>1475.2</ele>
        <time>2024-09-25T10:15:50Z</time>
      </trkpt>
      <trkpt lat="42.3753" lon="2.19381">
        <ele>1475.2</ele>
        <time>2024-09-25T10:15:51Z</time>
      </trkpt>
      <trkpt lat="42.3753" lon="2.19381">
        <ele>1475.2</ele>
        <time>2024-09-25T10:15:52Z</time>
      </trkpt>
      <trkpt lat="42.3753" lon="2.19381">
        <ele>1475.2</ele>
        <time>2024-09-25T10:15:53Z</time>
      </trkpt>
      <trkpt lat="42.3753" lon="2.19381">
        <ele>1475.2</ele>
        <time>2024-09-25T10:15:54Z</time>
      </trkpt>
      <trkpt lat="42.3753" lon="2.19381">
        <ele>1475.2</ele>
        <time>2024-09-25T10:15:55Z</time>
      </trkpt>
      <trkpt lat="42.3753" lon="2.19381">
        <ele>1475.2</ele>
        <time>2024-09-25T10:15:56Z</time>
      </trkpt>
      <trkpt lat="42.3753" lon="2.19381">
        <ele>1475.2</ele>
        <time>2024-09-25T10:15:57Z</time>
      </trkpt>
      <trkpt lat="42.37531" lon="2.19381">
        <ele>1475.3</ele>
        <time>2024-09-25T10:15:58Z</time>
      </trkpt>
      <trkpt lat="42.37531" lon="2.19381">
        <ele>1475.3</ele>
        <time>2024-09-25T10:15:59Z</time>
      </trkpt>
      <trkpt lat="42.37531" lon="2.19381">
        <ele>1475.3</ele>
        <time>2024-09-25T10:16:00Z</time>
      </trkpt>
      <trkpt lat="42.37531" lon="2.19381">
        <ele>1475.3</ele>
        <time>2024-09-25T10:16:01Z</time>
      </trkpt>
      <trkpt lat="42.37531" lon="2.19381">
        <ele>1475.3</ele>
        <time>2024-09-25T10:16:02Z</time>
      </trkpt>
      <trkpt lat="42.37531" lon="2.19381">
        <ele>1475.3</ele>
        <time>2024-09-25T10:16:03Z</time>
      </trkpt>
      <trkpt lat="42.37531" lon="2.19381">
        <ele>1475.3</ele>
        <time>2024-09-25T10:16:04Z</time>
      </trkpt>
      <trkpt lat="42.37531" lon="2.19381">
        <ele>1475.3</ele>
        <time>2024-09-25T10:16:05Z</time>
      </trkpt>
      <trkpt lat="42.37531" lon="2.19381">
        <ele>1475.3</ele>
        <time>2024-09-25T10:16:06Z</time>
      </trkpt>
      <trkpt lat="42.3753" lon="2.19381">
        <ele>1475.4</ele>
        <time>2024-09-25T10:16:07Z</time>
      </trkpt>
      <trkpt lat="42.3753" lon="2.19381">
        <ele>1475.4</ele>
        <time>2024-09-25T10:16:08Z</time>
      </trkpt>
      <trkpt lat="42.3753" lon="2.19381">
        <ele>1475.4</ele>
        <time>2024-09-25T10:16:09Z</time>
      </trkpt>
      <trkpt lat="42.3753" lon="2.19381">
        <ele>1475.4</ele>
        <time>2024-09-25T10:16:10Z</time>
      </trkpt>
      <trkpt lat="42.3753" lon="2.19381">
        <ele>1475.4</ele>
        <time>2024-09-25T10:16:11Z</time>
      </trkpt>
      <trkpt lat="42.3753" lon="2.19381">
        <ele>1475.4</ele>
        <time>2024-09-25T10:16:12Z</time>
      </trkpt>
      <trkpt lat="42.3753" lon="2.19381">
        <ele>1475.4</ele>
        <time>2024-09-25T10:16:13Z</time>
      </trkpt>
      <trkpt lat="42.3753" lon="2.19381">
        <ele>1475.4</ele>
        <time>2024-09-25T10:16:14Z</time>
      </trkpt>
      <trkpt lat="42.3753" lon="2.19381">
        <ele>1475.4</ele>
        <time>2024-09-25T10:16:15Z</time>
      </trkpt>
      <trkpt lat="42.3753" lon="2.19381">
        <ele>1475.5</ele>
        <time>2024-09-25T10:16:16Z</time>
      </trkpt>
      <trkpt lat="42.3753" lon="2.19381">
        <ele>1475.5</ele>
        <time>2024-09-25T10:16:17Z</time>
      </trkpt>
      <trkpt lat="42.3753" lon="2.19381">
        <ele>1475.5</ele>
        <time>2024-09-25T10:16:18Z</time>
      </trkpt>
      <trkpt lat="42.3753" lon="2.19381">
        <ele>1475.5</ele>
        <time>2024-09-25T10:16:19Z</time>
      </trkpt>
      <trkpt lat="42.3753" lon="2.19381">
        <ele>1475.5</ele>
        <time>2024-09-25T10:16:20Z</time>
      </trkpt>
      <trkpt lat="42.3753" lon="2.19381">
        <ele>1475.5</ele>
        <time>2024-09-25T10:16:21Z</time>
      </trkpt>
      <trkpt lat="42.3753" lon="2.19381">
        <ele>1475.5</ele>
        <time>2024-09-25T10:16:22Z</time>
      </trkpt>
      <trkpt lat="42.37529" lon="2.19382">
        <ele>1475.6</ele>
        <time>2024-09-25T10:16:51Z</time>
      </trkpt>
      <trkpt lat="42.37529" lon="2.19382">
        <ele>1475.6</ele>
        <time>2024-09-25T10:16:52Z</time>
      </trkpt>
      <trkpt lat="42.37529" lon="2.19383">
        <ele>1475.6</ele>
        <time>2024-09-25T10:16:53Z</time>
      </trkpt>
      <trkpt lat="42.37529" lon="2.19383">
        <ele>1475.6</ele>
        <time>2024-09-25T10:16:54Z</time>
      </trkpt>
      <trkpt lat="42.37529" lon="2.19383">
        <ele>1475.7</ele>
        <time>2024-09-25T10:16:55Z</time>
      </trkpt>
      <trkpt lat="42.3753" lon="2.19383">
        <ele>1475.7</ele>
        <time>2024-09-25T10:16:56Z</time>
      </trkpt>
      <trkpt lat="42.3753" lon="2.19383">
        <ele>1475.7</ele>
        <time>2024-09-25T10:16:57Z</time>
      </trkpt>
      <trkpt lat="42.3753" lon="2.19382">
        <ele>1475.7</ele>
        <time>2024-09-25T10:16:58Z</time>
      </trkpt>
      <trkpt lat="42.3753" lon="2.19382">
        <ele>1475.8</ele>
        <time>2024-09-25T10:16:59Z</time>
      </trkpt>
      <trkpt lat="42.3753" lon="2.19382">
        <ele>1475.8</ele>
        <time>2024-09-25T10:17:00Z</time>
      </trkpt>
      <trkpt lat="42.3753" lon="2.19382">
        <ele>1475.8</ele>
        <time>2024-09-25T10:17:01Z</time>
      </trkpt>
      <trkpt lat="42.37529" lon="2.19382">
        <ele>1475.8</ele>
        <time>2024-09-25T10:17:02Z</time>
      </trkpt>
      <trkpt lat="42.3753" lon="2.19383">
        <ele>1475.9</ele>
        <time>2024-09-25T10:17:03Z</time>
      </trkpt>
      <trkpt lat="42.3753" lon="2.19384">
        <ele>1476</ele>
        <time>2024-09-25T10:17:04Z</time>
      </trkpt>
      <trkpt lat="42.3753" lon="2.19384">
        <ele>1476</ele>
        <time>2024-09-25T10:17:05Z</time>
      </trkpt>
      <trkpt lat="42.3753" lon="2.19384">
        <ele>1476</ele>
        <time>2024-09-25T10:17:06Z</time>
      </trkpt>
      <trkpt lat="42.37531" lon="2.19385">
        <ele>1476.2</ele>
        <time>2024-09-25T10:17:07Z</time>
      </trkpt>
      <trkpt lat="42.37531" lon="2.19386">
        <ele>1476.2</ele>
        <time>2024-09-25T10:17:08Z</time>
      </trkpt>
      <trkpt lat="42.37532" lon="2.19387">
        <ele>1476.3</ele>
        <time>2024-09-25T10:17:09Z</time>
      </trkpt>
      <trkpt lat="42.37532" lon="2.19388">
        <ele>1476.4</ele>
        <time>2024-09-25T10:17:10Z</time>
      </trkpt>
      <trkpt lat="42.37532" lon="2.19388">
        <ele>1476.4</ele>
        <time>2024-09-25T10:17:11Z</time>
      </trkpt>
      <trkpt lat="42.37531" lon="2.19389">
        <ele>1476.5</ele>
        <time>2024-09-25T10:17:12Z</time>
      </trkpt>
      <trkpt lat="42.37531" lon="2.1939">
        <ele>1476.6</ele>
        <time>2024-09-25T10:17:13Z</time>
      </trkpt>
      <trkpt lat="42.3753" lon="2.19391">
        <ele>1476.7</ele>
        <time>2024-09-25T10:17:14Z</time>
      </trkpt>
      <trkpt lat="42.3753" lon="2.19391">
        <ele>1476.8</ele>
        <time>2024-09-25T10:17:15Z</time>
      </trkpt>
      <trkpt lat="42.37529" lon="2.19391">
        <ele>1476.8</ele>
        <time>2024-09-25T10:17:16Z</time>
      </trkpt>
      <trkpt lat="42.37528" lon="2.19391">
        <ele>1476.9</ele>
        <time>2024-09-25T10:17:17Z</time>
      </trkpt>
      <trkpt lat="42.37528" lon="2.19391">
        <ele>1477</ele>
        <time>2024-09-25T10:17:18Z</time>
      </trkpt>
      <trkpt lat="42.37528" lon="2.19392">
        <ele>1477</ele>
        <time>2024-09-25T10:17:19Z</time>
      </trkpt>
      <trkpt lat="42.37527" lon="2.19392">
        <ele>1477.1</ele>
        <time>2024-09-25T10:17:20Z</time>
      </trkpt>
      <trkpt lat="42.37526" lon="2.19393">
        <ele>1477.2</ele>
        <time>2024-09-25T10:17:21Z</time>
      </trkpt>
      <trkpt lat="42.37526" lon="2.19394">
        <ele>1477.2</ele>
        <time>2024-09-25T10:17:22Z</time>
      </trkpt>
      <trkpt lat="42.37526" lon="2.19395">
        <ele>1477.3</ele>
        <time>2024-09-25T10:17:23Z</time>
      </trkpt>
      <trkpt lat="42.37526" lon="2.19396">
        <ele>1477.4</ele>
        <time>2024-09-25T10:17:24Z</time>
      </trkpt>
      <trkpt lat="42.37526" lon="2.19397">
        <ele>1477.5</ele>
        <time>2024-09-25T10:17:25Z</time>
      </trkpt>
      <trkpt lat="42.37526" lon="2.19397">
        <ele>1477.5</ele>
        <time>2024-09-25T10:17:26Z</time>
      </trkpt>
      <trkpt lat="42.37527" lon="2.19398">
        <ele>1477.6</ele>
        <time>2024-09-25T10:17:27Z</time>
      </trkpt>
      <trkpt lat="42.37527" lon="2.19398">
        <ele>1477.6</ele>
        <time>2024-09-25T10:17:28Z</time>
      </trkpt>
      <trkpt lat="42.37528" lon="2.19398">
        <ele>1477.7</ele>
        <time>2024-09-25T10:17:29Z</time>
      </trkpt>
      <trkpt lat="42.37528" lon="2.19398">
        <ele>1477.7</ele>
        <time>2024-09-25T10:17:30Z</time>
      </trkpt>
      <trkpt lat="42.37528" lon="2.19398">
        <ele>1477.8</ele>
        <time>2024-09-25T10:17:31Z</time>
      </trkpt>
      <trkpt lat="42.37529" lon="2.19399">
        <ele>1477.8</ele>
        <time>2024-09-25T10:17:32Z</time>
      </trkpt>
      <trkpt lat="42.37529" lon="2.19399">
        <ele>1477.9</ele>
        <time>2024-09-25T10:17:33Z</time>
      </trkpt>
      <trkpt lat="42.3753" lon="2.19399">
        <ele>1477.9</ele>
        <time>2024-09-25T10:17:34Z</time>
      </trkpt>
      <trkpt lat="42.3753" lon="2.19399">
        <ele>1478</ele>
        <time>2024-09-25T10:17:35Z</time>
      </trkpt>
      <trkpt lat="42.37531" lon="2.19399">
        <ele>1478</ele>
        <time>2024-09-25T10:17:36Z</time>
      </trkpt>
      <trkpt lat="42.37531" lon="2.19399">
        <ele>1478.1</ele>
        <time>2024-09-25T10:17:37Z</time>
      </trkpt>
      <trkpt lat="42.37532" lon="2.19399">
        <ele>1478.2</ele>
        <time>2024-09-25T10:17:38Z</time>
      </trkpt>
      <trkpt lat="42.37533" lon="2.19399">
        <ele>1478.2</ele>
        <time>2024-09-25T10:17:39Z</time>
      </trkpt>
      <trkpt lat="42.37533" lon="2.19399">
        <ele>1478.3</ele>
        <time>2024-09-25T10:17:40Z</time>
      </trkpt>
      <trkpt lat="42.37534" lon="2.19399">
        <ele>1478.4</ele>
        <time>2024-09-25T10:17:41Z</time>
      </trkpt>
      <trkpt lat="42.37535" lon="2.19398">
        <ele>1478.5</ele>
        <time>2024-09-25T10:17:42Z</time>
      </trkpt>
      <trkpt lat="42.37535" lon="2.19398">
        <ele>1478.5</ele>
        <time>2024-09-25T10:17:43Z</time>
      </trkpt>
      <trkpt lat="42.37536" lon="2.19398">
        <ele>1478.6</ele>
        <time>2024-09-25T10:17:44Z</time>
      </trkpt>
      <trkpt lat="42.37537" lon="2.19398">
        <ele>1478.7</ele>
        <time>2024-09-25T10:17:45Z</time>
      </trkpt>
      <trkpt lat="42.37538" lon="2.19398">
        <ele>1478.8</ele>
        <time>2024-09-25T10:17:46Z</time>
      </trkpt>
      <trkpt lat="42.37539" lon="2.19399">
        <ele>1478.9</ele>
        <time>2024-09-25T10:17:47Z</time>
      </trkpt>
      <trkpt lat="42.37539" lon="2.194">
        <ele>1479</ele>
        <time>2024-09-25T10:17:48Z</time>
      </trkpt>
      <trkpt lat="42.3754" lon="2.194">
        <ele>1479.1</ele>
        <time>2024-09-25T10:17:49Z</time>
      </trkpt>
      <trkpt lat="42.3754" lon="2.194">
        <ele>1479.2</ele>
        <time>2024-09-25T10:17:50Z</time>
      </trkpt>
      <trkpt lat="42.37541" lon="2.19401">
        <ele>1479.3</ele>
        <time>2024-09-25T10:17:51Z</time>
      </trkpt>
      <trkpt lat="42.37541" lon="2.19401">
        <ele>1479.3</ele>
        <time>2024-09-25T10:17:52Z</time>
      </trkpt>
      <trkpt lat="42.37542" lon="2.19401">
        <ele>1479.4</ele>
        <time>2024-09-25T10:17:53Z</time>
      </trkpt>
      <trkpt lat="42.37542" lon="2.19402">
        <ele>1479.5</ele>
        <time>2024-09-25T10:17:54Z</time>
      </trkpt>
      <trkpt lat="42.37543" lon="2.19403">
        <ele>1479.6</ele>
        <time>2024-09-25T10:17:55Z</time>
      </trkpt>
      <trkpt lat="42.37543" lon="2.19403">
        <ele>1479.7</ele>
        <time>2024-09-25T10:17:56Z</time>
      </trkpt>
      <trkpt lat="42.37544" lon="2.19404">
        <ele>1479.8</ele>
        <time>2024-09-25T10:17:57Z</time>
      </trkpt>
      <trkpt lat="42.37544" lon="2.19405">
        <ele>1479.8</ele>
        <time>2024-09-25T10:17:58Z</time>
      </trkpt>
      <trkpt lat="42.37544" lon="2.19405">
        <ele>1479.9</ele>
        <time>2024-09-25T10:17:59Z</time>
      </trkpt>
      <trkpt lat="42.37544" lon="2.19406">
        <ele>1480</ele>
        <time>2024-09-25T10:18:00Z</time>
      </trkpt>
      <trkpt lat="42.37544" lon="2.19407">
        <ele>1480.1</ele>
        <time>2024-09-25T10:18:01Z</time>
      </trkpt>
      <trkpt lat="42.37544" lon="2.19408">
        <ele>1480.2</ele>
        <time>2024-09-25T10:18:02Z</time>
      </trkpt>
      <trkpt lat="42.37544" lon="2.19408">
        <ele>1480.3</ele>
        <time>2024-09-25T10:18:03Z</time>
      </trkpt>
      <trkpt lat="42.37544" lon="2.1941">
        <ele>1480.4</ele>
        <time>2024-09-25T10:18:04Z</time>
      </trkpt>
      <trkpt lat="42.37544" lon="2.1941">
        <ele>1480.5</ele>
        <time>2024-09-25T10:18:05Z</time>
      </trkpt>
      <trkpt lat="42.37543" lon="2.1941">
        <ele>1480.5</ele>
        <time>2024-09-25T10:18:06Z</time>
      </trkpt>
      <trkpt lat="42.37543" lon="2.19411">
        <ele>1480.6</ele>
        <time>2024-09-25T10:18:07Z</time>
      </trkpt>
      <trkpt lat="42.37543" lon="2.19411">
        <ele>1480.6</ele>
        <time>2024-09-25T10:18:08Z</time>
      </trkpt>
      <trkpt lat="42.37542" lon="2.19412">
        <ele>1480.8</ele>
        <time>2024-09-25T10:18:09Z</time>
      </trkpt>
      <trkpt lat="42.37542" lon="2.19412">
        <ele>1480.8</ele>
        <time>2024-09-25T10:18:10Z</time>
      </trkpt>
      <trkpt lat="42.37541" lon="2.19413">
        <ele>1481</ele>
        <time>2024-09-25T10:18:11Z</time>
      </trkpt>
      <trkpt lat="42.37541" lon="2.19413">
        <ele>1481.1</ele>
        <time>2024-09-25T10:18:12Z</time>
      </trkpt>
      <trkpt lat="42.3754" lon="2.19414">
        <ele>1481.3</ele>
        <time>2024-09-25T10:18:13Z</time>
      </trkpt>
      <trkpt lat="42.37539" lon="2.19414">
        <ele>1481.4</ele>
        <time>2024-09-25T10:18:14Z</time>
      </trkpt>
      <trkpt lat="42.37538" lon="2.19415">
        <ele>1481.6</ele>
        <time>2024-09-25T10:18:15Z</time>
      </trkpt>
      <trkpt lat="42.37537" lon="2.19416">
        <ele>1481.8</ele>
        <time>2024-09-25T10:18:16Z</time>
      </trkpt>
      <trkpt lat="42.37537" lon="2.19416">
        <ele>1481.9</ele>
        <time>2024-09-25T10:18:17Z</time>
      </trkpt>
      <trkpt lat="42.37536" lon="2.19417">
        <ele>1482.1</ele>
        <time>2024-09-25T10:18:18Z</time>
      </trkpt>
      <trkpt lat="42.37535" lon="2.19418">
        <ele>1482.2</ele>
        <time>2024-09-25T10:18:19Z</time>
      </trkpt>
      <trkpt lat="42.37535" lon="2.19418">
        <ele>1482.4</ele>
        <time>2024-09-25T10:18:20Z</time>
      </trkpt>
      <trkpt lat="42.37534" lon="2.19419">
        <ele>1482.5</ele>
        <time>2024-09-25T10:18:21Z</time>
      </trkpt>
      <trkpt lat="42.37533" lon="2.19419">
        <ele>1482.7</ele>
        <time>2024-09-25T10:18:22Z</time>
      </trkpt>
      <trkpt lat="42.37533" lon="2.1942">
        <ele>1482.9</ele>
        <time>2024-09-25T10:18:23Z</time>
      </trkpt>
      <trkpt lat="42.37532" lon="2.1942">
        <ele>1483</ele>
        <time>2024-09-25T10:18:24Z</time>
      </trkpt>
      <trkpt lat="42.37531" lon="2.19421">
        <ele>1483.2</ele>
        <time>2024-09-25T10:18:25Z</time>
      </trkpt>
      <trkpt lat="42.3753" lon="2.19421">
        <ele>1483.4</ele>
        <time>2024-09-25T10:18:26Z</time>
      </trkpt>
      <trkpt lat="42.37529" lon="2.19421">
        <ele>1483.6</ele>
        <time>2024-09-25T10:18:27Z</time>
      </trkpt>
      <trkpt lat="42.37529" lon="2.19422">
        <ele>1483.8</ele>
        <time>2024-09-25T10:18:28Z</time>
      </trkpt>
      <trkpt lat="42.37528" lon="2.19422">
        <ele>1483.9</ele>
        <time>2024-09-25T10:18:29Z</time>
      </trkpt>
      <trkpt lat="42.37527" lon="2.19422">
        <ele>1484.1</ele>
        <time>2024-09-25T10:18:30Z</time>
      </trkpt>
      <trkpt lat="42.37526" lon="2.19423">
        <ele>1484.3</ele>
        <time>2024-09-25T10:18:31Z</time>
      </trkpt>
      <trkpt lat="42.37526" lon="2.19423">
        <ele>1484.4</ele>
        <time>2024-09-25T10:18:32Z</time>
      </trkpt>
      <trkpt lat="42.37526" lon="2.19423">
        <ele>1484.4</ele>
        <time>2024-09-25T10:18:33Z</time>
      </trkpt>
      <trkpt lat="42.37525" lon="2.19424">
        <ele>1484.6</ele>
        <time>2024-09-25T10:18:34Z</time>
      </trkpt>
      <trkpt lat="42.37525" lon="2.19424">
        <ele>1484.7</ele>
        <time>2024-09-25T10:18:35Z</time>
      </trkpt>
      <trkpt lat="42.37525" lon="2.19425">
        <ele>1484.8</ele>
        <time>2024-09-25T10:18:36Z</time>
      </trkpt>
      <trkpt lat="42.37525" lon="2.19425">
        <ele>1484.8</ele>
        <time>2024-09-25T10:18:37Z</time>
      </trkpt>
      <trkpt lat="42.37525" lon="2.19426">
        <ele>1484.9</ele>
        <time>2024-09-25T10:18:38Z</time>
      </trkpt>
      <trkpt lat="42.37525" lon="2.19426">
        <ele>1485</ele>
        <time>2024-09-25T10:18:39Z</time>
      </trkpt>
      <trkpt lat="42.37525" lon="2.19426">
        <ele>1485</ele>
        <time>2024-09-25T10:18:40Z</time>
      </trkpt>
      <trkpt lat="42.37525" lon="2.19427">
        <ele>1485.1</ele>
        <time>2024-09-25T10:18:41Z</time>
      </trkpt>
      <trkpt lat="42.37525" lon="2.19427">
        <ele>1485.1</ele>
        <time>2024-09-25T10:18:42Z</time>
      </trkpt>
      <trkpt lat="42.37525" lon="2.19427">
        <ele>1485.2</ele>
        <time>2024-09-25T10:18:43Z</time>
      </trkpt>
      <trkpt lat="42.37525" lon="2.19427">
        <ele>1485.2</ele>
        <time>2024-09-25T10:18:44Z</time>
      </trkpt>
      <trkpt lat="42.37526" lon="2.19428">
        <ele>1485.4</ele>
        <time>2024-09-25T10:18:45Z</time>
      </trkpt>
      <trkpt lat="42.37526" lon="2.19428">
        <ele>1485.4</ele>
        <time>2024-09-25T10:18:46Z</time>
      </trkpt>
      <trkpt lat="42.37526" lon="2.19429">
        <ele>1485.5</ele>
        <time>2024-09-25T10:18:47Z</time>
      </trkpt>
      <trkpt lat="42.37526" lon="2.19429">
        <ele>1485.6</ele>
        <time>2024-09-25T10:18:48Z</time>
      </trkpt>
      <trkpt lat="42.37527" lon="2.1943">
        <ele>1485.7</ele>
        <time>2024-09-25T10:18:49Z</time>
      </trkpt>
      <trkpt lat="42.37527" lon="2.1943">
        <ele>1485.8</ele>
        <time>2024-09-25T10:18:50Z</time>
      </trkpt>
      <trkpt lat="42.37528" lon="2.1943">
        <ele>1486</ele>
        <time>2024-09-25T10:18:51Z</time>
      </trkpt>
      <trkpt lat="42.37528" lon="2.19431">
        <ele>1486.1</ele>
        <time>2024-09-25T10:18:52Z</time>
      </trkpt>
      <trkpt lat="42.37529" lon="2.19431">
        <ele>1486.2</ele>
        <time>2024-09-25T10:18:53Z</time>
      </trkpt>
      <trkpt lat="42.37529" lon="2.19431">
        <ele>1486.2</ele>
        <time>2024-09-25T10:18:54Z</time>
      </trkpt>
      <trkpt lat="42.37529" lon="2.19432">
        <ele>1486.4</ele>
        <time>2024-09-25T10:18:55Z</time>
      </trkpt>
      <trkpt lat="42.3753" lon="2.19432">
        <ele>1486.6</ele>
        <time>2024-09-25T10:18:56Z</time>
      </trkpt>
      <trkpt lat="42.37531" lon="2.19432">
        <ele>1486.7</ele>
        <time>2024-09-25T10:18:57Z</time>
      </trkpt>
      <trkpt lat="42.37531" lon="2.19432">
        <ele>1486.8</ele>
        <time>2024-09-25T10:18:58Z</time>
      </trkpt>
      <trkpt lat="42.37532" lon="2.19432">
        <ele>1486.9</ele>
        <time>2024-09-25T10:18:59Z</time>
      </trkpt>
      <trkpt lat="42.37532" lon="2.19432">
        <ele>1487.1</ele>
        <time>2024-09-25T10:19:00Z</time>
      </trkpt>
      <trkpt lat="42.37533" lon="2.19432">
        <ele>1487.2</ele>
        <time>2024-09-25T10:19:01Z</time>
      </trkpt>
      <trkpt lat="42.37534" lon="2.19432">
        <ele>1487.3</ele>
        <time>2024-09-25T10:19:02Z</time>
      </trkpt>
      <trkpt lat="42.37534" lon="2.19432">
        <ele>1487.5</ele>
        <time>2024-09-25T10:19:03Z</time>
      </trkpt>
      <trkpt lat="42.37535" lon="2.19432">
        <ele>1487.6</ele>
        <time>2024-09-25T10:19:04Z</time>
      </trkpt>
      <trkpt lat="42.37535" lon="2.19431">
        <ele>1487.6</ele>
        <time>2024-09-25T10:19:05Z</time>
      </trkpt>
      <trkpt lat="42.37536" lon="2.19431">
        <ele>1487.8</ele>
        <time>2024-09-25T10:19:06Z</time>
      </trkpt>
      <trkpt lat="42.37536" lon="2.19431">
        <ele>1488</ele>
        <time>2024-09-25T10:19:07Z</time>
      </trkpt>
      <trkpt lat="42.37537" lon="2.19431">
        <ele>1488.1</ele>
        <time>2024-09-25T10:19:08Z</time>
      </trkpt>
      <trkpt lat="42.37538" lon="2.19431">
        <ele>1488.3</ele>
        <time>2024-09-25T10:19:09Z</time>
      </trkpt>
      <trkpt lat="42.37539" lon="2.19431">
        <ele>1488.5</ele>
        <time>2024-09-25T10:19:10Z</time>
      </trkpt>
      <trkpt lat="42.37539" lon="2.19431">
        <ele>1488.5</ele>
        <time>2024-09-25T10:19:11Z</time>
      </trkpt>
      <trkpt lat="42.37539" lon="2.19431">
        <ele>1488.6</ele>
        <time>2024-09-25T10:19:12Z</time>
      </trkpt>
      <trkpt lat="42.3754" lon="2.19431">
        <ele>1488.8</ele>
        <time>2024-09-25T10:19:13Z</time>
      </trkpt>
      <trkpt lat="42.37541" lon="2.19431">
        <ele>1489</ele>
        <time>2024-09-25T10:19:14Z</time>
      </trkpt>
      <trkpt lat="42.37541" lon="2.19432">
        <ele>1489.1</ele>
        <time>2024-09-25T10:19:15Z</time>
      </trkpt>
      <trkpt lat="42.37542" lon="2.19432">
        <ele>1489.2</ele>
        <time>2024-09-25T10:19:16Z</time>
      </trkpt>
      <trkpt lat="42.37542" lon="2.19432">
        <ele>1489.2</ele>
        <time>2024-09-25T10:19:17Z</time>
      </trkpt>
      <trkpt lat="42.37542" lon="2.19432">
        <ele>1489.2</ele>
        <time>2024-09-25T10:19:18Z</time>
      </trkpt>
      <trkpt lat="42.37542" lon="2.19432">
        <ele>1489.3</ele>
        <time>2024-09-25T10:19:19Z</time>
      </trkpt>
      <trkpt lat="42.37543" lon="2.19432">
        <ele>1489.3</ele>
        <time>2024-09-25T10:19:20Z</time>
      </trkpt>
      <trkpt lat="42.37543" lon="2.19433">
        <ele>1489.4</ele>
        <time>2024-09-25T10:19:21Z</time>
      </trkpt>
      <trkpt lat="42.37543" lon="2.19433">
        <ele>1489.5</ele>
        <time>2024-09-25T10:19:22Z</time>
      </trkpt>
      <trkpt lat="42.37543" lon="2.19433">
        <ele>1489.6</ele>
        <time>2024-09-25T10:19:23Z</time>
      </trkpt>
      <trkpt lat="42.37543" lon="2.19434">
        <ele>1489.6</ele>
        <time>2024-09-25T10:19:24Z</time>
      </trkpt>
      <trkpt lat="42.37543" lon="2.19434">
        <ele>1489.7</ele>
        <time>2024-09-25T10:19:25Z</time>
      </trkpt>
      <trkpt lat="42.37543" lon="2.19435">
        <ele>1489.8</ele>
        <time>2024-09-25T10:19:26Z</time>
      </trkpt>
      <trkpt lat="42.37543" lon="2.19435">
        <ele>1489.9</ele>
        <time>2024-09-25T10:19:27Z</time>
      </trkpt>
      <trkpt lat="42.37543" lon="2.19436">
        <ele>1489.9</ele>
        <time>2024-09-25T10:19:28Z</time>
      </trkpt>
      <trkpt lat="42.37543" lon="2.19436">
        <ele>1490</ele>
        <time>2024-09-25T10:19:29Z</time>
      </trkpt>
      <trkpt lat="42.37543" lon="2.19437">
        <ele>1490.1</ele>
        <time>2024-09-25T10:19:30Z</time>
      </trkpt>
      <trkpt lat="42.37544" lon="2.19438">
        <ele>1490.3</ele>
        <time>2024-09-25T10:19:31Z</time>
      </trkpt>
      <trkpt lat="42.37544" lon="2.19438">
        <ele>1490.4</ele>
        <time>2024-09-25T10:19:32Z</time>
      </trkpt>
      <trkpt lat="42.37544" lon="2.19439">
        <ele>1490.4</ele>
        <time>2024-09-25T10:19:33Z</time>
      </trkpt>
      <trkpt lat="42.37543" lon="2.1944">
        <ele>1490.6</ele>
        <time>2024-09-25T10:19:34Z</time>
      </trkpt>
      <trkpt lat="42.37544" lon="2.1944">
        <ele>1490.7</ele>
        <time>2024-09-25T10:19:35Z</time>
      </trkpt>
      <trkpt lat="42.37543" lon="2.19441">
        <ele>1490.8</ele>
        <time>2024-09-25T10:19:36Z</time>
      </trkpt>
      <trkpt lat="42.37543" lon="2.19442">
        <ele>1490.9</ele>
        <time>2024-09-25T10:19:37Z</time>
      </trkpt>
      <trkpt lat="42.37544" lon="2.19443">
        <ele>1491</ele>
        <time>2024-09-25T10:19:38Z</time>
      </trkpt>
      <trkpt lat="42.37544" lon="2.19443">
        <ele>1491.1</ele>
        <time>2024-09-25T10:19:39Z</time>
      </trkpt>
      <trkpt lat="42.37544" lon="2.19443">
        <ele>1491.1</ele>
        <time>2024-09-25T10:19:40Z</time>
      </trkpt>
      <trkpt lat="42.37544" lon="2.19443">
        <ele>1491.2</ele>
        <time>2024-09-25T10:19:41Z</time>
      </trkpt>
      <trkpt lat="42.37544" lon="2.19444">
        <ele>1491.2</ele>
        <time>2024-09-25T10:19:42Z</time>
      </trkpt>
      <trkpt lat="42.37544" lon="2.19444">
        <ele>1491.3</ele>
        <time>2024-09-25T10:19:43Z</time>
      </trkpt>
      <trkpt lat="42.37544" lon="2.19444">
        <ele>1491.3</ele>
        <time>2024-09-25T10:19:44Z</time>
      </trkpt>
      <trkpt lat="42.37544" lon="2.19444">
        <ele>1491.4</ele>
        <time>2024-09-25T10:19:45Z</time>
      </trkpt>
      <trkpt lat="42.37545" lon="2.19445">
        <ele>1491.5</ele>
        <time>2024-09-25T10:19:46Z</time>
      </trkpt>
      <trkpt lat="42.37545" lon="2.19445">
        <ele>1491.6</ele>
        <time>2024-09-25T10:19:47Z</time>
      </trkpt>
      <trkpt lat="42.37546" lon="2.19445">
        <ele>1491.7</ele>
        <time>2024-09-25T10:19:48Z</time>
      </trkpt>
      <trkpt lat="42.37546" lon="2.19445">
        <ele>1491.7</ele>
        <time>2024-09-25T10:19:49Z</time>
      </trkpt>
      <trkpt lat="42.37546" lon="2.19445">
        <ele>1491.8</ele>
        <time>2024-09-25T10:19:50Z</time>
      </trkpt>
      <trkpt lat="42.37546" lon="2.19445">
        <ele>1491.8</ele>
        <time>2024-09-25T10:19:51Z</time>
      </trkpt>
      <trkpt lat="42.37547" lon="2.19445">
        <ele>1491.9</ele>
        <time>2024-09-25T10:19:52Z</time>
      </trkpt>
      <trkpt lat="42.37547" lon="2.19445">
        <ele>1491.9</ele>
        <time>2024-09-25T10:19:53Z</time>
      </trkpt>
      <trkpt lat="42.37547" lon="2.19445">
        <ele>1492</ele>
        <time>2024-09-25T10:19:54Z</time>
      </trkpt>
      <trkpt lat="42.37547" lon="2.19445">
        <ele>1492</ele>
        <time>2024-09-25T10:19:55Z</time>
      </trkpt>
      <trkpt lat="42.37548" lon="2.19445">
        <ele>1492.1</ele>
        <time>2024-09-25T10:19:56Z</time>
      </trkpt>
      <trkpt lat="42.37548" lon="2.19445">
        <ele>1492.1</ele>
        <time>2024-09-25T10:19:57Z</time>
      </trkpt>
      <trkpt lat="42.37548" lon="2.19445">
        <ele>1492.2</ele>
        <time>2024-09-25T10:19:58Z</time>
      </trkpt>
      <trkpt lat="42.37548" lon="2.19445">
        <ele>1492.2</ele>
        <time>2024-09-25T10:19:59Z</time>
      </trkpt>
      <trkpt lat="42.37549" lon="2.19445">
        <ele>1492.3</ele>
        <time>2024-09-25T10:20:00Z</time>
      </trkpt>
      <trkpt lat="42.37549" lon="2.19446">
        <ele>1492.3</ele>
        <time>2024-09-25T10:20:01Z</time>
      </trkpt>
      <trkpt lat="42.37549" lon="2.19446">
        <ele>1492.4</ele>
        <time>2024-09-25T10:20:02Z</time>
      </trkpt>
      <trkpt lat="42.37551" lon="2.19446">
        <ele>1492.7</ele>
        <time>2024-09-25T10:20:03Z</time>
      </trkpt>
      <trkpt lat="42.37551" lon="2.19446">
        <ele>1492.9</ele>
        <time>2024-09-25T10:20:04Z</time>
      </trkpt>
      <trkpt lat="42.37551" lon="2.19446">
        <ele>1492.9</ele>
        <time>2024-09-25T10:20:05Z</time>
      </trkpt>
      <trkpt lat="42.37551" lon="2.19446">
        <ele>1492.9</ele>
        <time>2024-09-25T10:20:06Z</time>
      </trkpt>
      <trkpt lat="42.37551" lon="2.19446">
        <ele>1492.9</ele>
        <time>2024-09-25T10:20:07Z</time>
      </trkpt>
      <trkpt lat="42.37551" lon="2.19446">
        <ele>1492.9</ele>
        <time>2024-09-25T10:20:08Z</time>
      </trkpt>
      <trkpt lat="42.37552" lon="2.19446">
        <ele>1492.9</ele>
        <time>2024-09-25T10:20:09Z</time>
      </trkpt>
      <trkpt lat="42.37552" lon="2.19446">
        <ele>1493</ele>
        <time>2024-09-25T10:20:10Z</time>
      </trkpt>
      <trkpt lat="42.37551" lon="2.19446">
        <ele>1493</ele>
        <time>2024-09-25T10:20:11Z</time>
      </trkpt>
      <trkpt lat="42.37551" lon="2.19447">
        <ele>1493.1</ele>
        <time>2024-09-25T10:20:12Z</time>
      </trkpt>
      <trkpt lat="42.37551" lon="2.19448">
        <ele>1493.3</ele>
        <time>2024-09-25T10:20:14Z</time>
      </trkpt>
      <trkpt lat="42.3755" lon="2.19448">
        <ele>1493.5</ele>
        <time>2024-09-25T10:20:15Z</time>
      </trkpt>
      <trkpt lat="42.37548" lon="2.19449">
        <ele>1493.9</ele>
        <time>2024-09-25T10:20:17Z</time>
      </trkpt>
      <trkpt lat="42.37548" lon="2.19449">
        <ele>1494</ele>
        <time>2024-09-25T10:20:18Z</time>
      </trkpt>
      <trkpt lat="42.37547" lon="2.19449">
        <ele>1494.1</ele>
        <time>2024-09-25T10:20:19Z</time>
      </trkpt>
      <trkpt lat="42.37547" lon="2.19449">
        <ele>1494.1</ele>
        <time>2024-09-25T10:20:20Z</time>
      </trkpt>
      <trkpt lat="42.37547" lon="2.19449">
        <ele>1494.2</ele>
        <time>2024-09-25T10:20:21Z</time>
      </trkpt>
      <trkpt lat="42.3755" lon="2.19448">
        <ele>1494.8</ele>
        <time>2024-09-25T10:20:22Z</time>
      </trkpt>
      <trkpt lat="42.3755" lon="2.19448">
        <ele>1494.8</ele>
        <time>2024-09-25T10:20:23Z</time>
      </trkpt>
      <trkpt lat="42.3755" lon="2.19449">
        <ele>1494.9</ele>
        <time>2024-09-25T10:20:24Z</time>
      </trkpt>
      <trkpt lat="42.3755" lon="2.19448">
        <ele>1494.9</ele>
        <time>2024-09-25T10:20:25Z</time>
      </trkpt>
      <trkpt lat="42.3755" lon="2.19448">
        <ele>1494.9</ele>
        <time>2024-09-25T10:20:26Z</time>
      </trkpt>
      <trkpt lat="42.3755" lon="2.19448">
        <ele>1495</ele>
        <time>2024-09-25T10:20:27Z</time>
      </trkpt>
      <trkpt lat="42.3755" lon="2.19448">
        <ele>1495</ele>
        <time>2024-09-25T10:20:28Z</time>
      </trkpt>
      <trkpt lat="42.3755" lon="2.19448">
        <ele>1495</ele>
        <time>2024-09-25T10:20:29Z</time>
      </trkpt>
      <trkpt lat="42.3755" lon="2.19448">
        <ele>1495</ele>
        <time>2024-09-25T10:20:30Z</time>
      </trkpt>
      <trkpt lat="42.3755" lon="2.19448">
        <ele>1495.1</ele>
        <time>2024-09-25T10:20:31Z</time>
      </trkpt>
      <trkpt lat="42.3755" lon="2.19448">
        <ele>1495.1</ele>
        <time>2024-09-25T10:20:32Z</time>
      </trkpt>
      <trkpt lat="42.37549" lon="2.19449">
        <ele>1495.4</ele>
        <time>2024-09-25T10:20:33Z</time>
      </trkpt>
      <trkpt lat="42.37548" lon="2.1945">
        <ele>1495.5</ele>
        <time>2024-09-25T10:20:34Z</time>
      </trkpt>
      <trkpt lat="42.37548" lon="2.1945">
        <ele>1495.7</ele>
        <time>2024-09-25T10:20:35Z</time>
      </trkpt>
      <trkpt lat="42.37547" lon="2.1945">
        <ele>1495.7</ele>
        <time>2024-09-25T10:20:36Z</time>
      </trkpt>
      <trkpt lat="42.37547" lon="2.19451">
        <ele>1495.8</ele>
        <time>2024-09-25T10:20:37Z</time>
      </trkpt>
      <trkpt lat="42.37547" lon="2.19451">
        <ele>1495.8</ele>
        <time>2024-09-25T10:20:38Z</time>
      </trkpt>
      <trkpt lat="42.37547" lon="2.19451">
        <ele>1495.8</ele>
        <time>2024-09-25T10:20:39Z</time>
      </trkpt>
      <trkpt lat="42.37547" lon="2.19451">
        <ele>1495.8</ele>
        <time>2024-09-25T10:20:40Z</time>
      </trkpt>
      <trkpt lat="42.37547" lon="2.19451">
        <ele>1495.9</ele>
        <time>2024-09-25T10:20:41Z</time>
      </trkpt>
      <trkpt lat="42.37547" lon="2.1945">
        <ele>1495.9</ele>
        <time>2024-09-25T10:20:42Z</time>
      </trkpt>
      <trkpt lat="42.37547" lon="2.1945">
        <ele>1495.9</ele>
        <time>2024-09-25T10:20:43Z</time>
      </trkpt>
      <trkpt lat="42.37547" lon="2.1945">
        <ele>1496</ele>
        <time>2024-09-25T10:20:44Z</time>
      </trkpt>
      <trkpt lat="42.37547" lon="2.19449">
        <ele>1496.1</ele>
        <time>2024-09-25T10:20:45Z</time>
      </trkpt>
      <trkpt lat="42.37547" lon="2.19448">
        <ele>1496.2</ele>
        <time>2024-09-25T10:20:46Z</time>
      </trkpt>
      <trkpt lat="42.37547" lon="2.1945">
        <ele>1496.4</ele>
        <time>2024-09-25T10:20:47Z</time>
      </trkpt>
      <trkpt lat="42.37547" lon="2.1945">
        <ele>1496.4</ele>
        <time>2024-09-25T10:20:48Z</time>
      </trkpt>
      <trkpt lat="42.37547" lon="2.1945">
        <ele>1496.4</ele>
        <time>2024-09-25T10:20:49Z</time>
      </trkpt>
      <trkpt lat="42.37547" lon="2.19449">
        <ele>1496.4</ele>
        <time>2024-09-25T10:20:51Z</time>
      </trkpt>
      <trkpt lat="42.37548" lon="2.1945">
        <ele>1496.5</ele>
        <time>2024-09-25T10:20:52Z</time>
      </trkpt>
      <trkpt lat="42.37548" lon="2.1945">
        <ele>1496.5</ele>
        <time>2024-09-25T10:20:53Z</time>
      </trkpt>
      <trkpt lat="42.37548" lon="2.19449">
        <ele>1496.5</ele>
        <time>2024-09-25T10:20:54Z</time>
      </trkpt>
      <trkpt lat="42.37548" lon="2.19449">
        <ele>1496.5</ele>
        <time>2024-09-25T10:20:55Z</time>
      </trkpt>
      <trkpt lat="42.37547" lon="2.19449">
        <ele>1496.5</ele>
        <time>2024-09-25T10:20:56Z</time>
      </trkpt>
      <trkpt lat="42.37547" lon="2.19449">
        <ele>1496.5</ele>
        <time>2024-09-25T10:20:57Z</time>
      </trkpt>
      <trkpt lat="42.37547" lon="2.19449">
        <ele>1496.6</ele>
        <time>2024-09-25T10:20:58Z</time>
      </trkpt>
      <trkpt lat="42.37547" lon="2.19449">
        <ele>1496.6</ele>
        <time>2024-09-25T10:20:59Z</time>
      </trkpt>
      <trkpt lat="42.37547" lon="2.19449">
        <ele>1496.7</ele>
        <time>2024-09-25T10:21:00Z</time>
      </trkpt>
      <trkpt lat="42.37547" lon="2.19449">
        <ele>1496.7</ele>
        <time>2024-09-25T10:21:01Z</time>
      </trkpt>
      <trkpt lat="42.37547" lon="2.19449">
        <ele>1496.7</ele>
        <time>2024-09-25T10:21:02Z</time>
      </trkpt>
      <trkpt lat="42.37547" lon="2.19449">
        <ele>1496.7</ele>
        <time>2024-09-25T10:21:03Z</time>
      </trkpt>
      <trkpt lat="42.37547" lon="2.19449">
        <ele>1496.7</ele>
        <time>2024-09-25T10:21:04Z</time>
      </trkpt>
      <trkpt lat="42.37547" lon="2.19449">
        <ele>1496.7</ele>
        <time>2024-09-25T10:21:05Z</time>
      </trkpt>
      <trkpt lat="42.37547" lon="2.19449">
        <ele>1496.7</ele>
        <time>2024-09-25T10:21:06Z</time>
      </trkpt>
      <trkpt lat="42.37547" lon="2.19449">
        <ele>1496.8</ele>
        <time>2024-09-25T10:21:07Z</time>
      </trkpt>
      <trkpt lat="42.37547" lon="2.19449">
        <ele>1496.8</ele>
        <time>2024-09-25T10:21:08Z</time>
      </trkpt>
      <trkpt lat="42.37547" lon="2.19449">
        <ele>1496.8</ele>
        <time>2024-09-25T10:21:09Z</time>
      </trkpt>
      <trkpt lat="42.37547" lon="2.19449">
        <ele>1496.8</ele>
        <time>2024-09-25T10:21:10Z</time>
      </trkpt>
      <trkpt lat="42.37547" lon="2.19449">
        <ele>1496.8</ele>
        <time>2024-09-25T10:21:11Z</time>
      </trkpt>
      <trkpt lat="42.37547" lon="2.19449">
        <ele>1496.8</ele>
        <time>2024-09-25T10:21:12Z</time>
      </trkpt>
      <trkpt lat="42.37547" lon="2.19449">
        <ele>1496.8</ele>
        <time>2024-09-25T10:21:13Z</time>
      </trkpt>
      <trkpt lat="42.37547" lon="2.19449">
        <ele>1496.9</ele>
        <time>2024-09-25T10:21:14Z</time>
      </trkpt>
      <trkpt lat="42.37547" lon="2.19449">
        <ele>1496.9</ele>
        <time>2024-09-25T10:21:15Z</time>
      </trkpt>
      <trkpt lat="42.37547" lon="2.19449">
        <ele>1496.9</ele>
        <time>2024-09-25T10:21:16Z</time>
      </trkpt>
      <trkpt lat="42.37547" lon="2.19449">
        <ele>1496.9</ele>
        <time>2024-09-25T10:21:17Z</time>
      </trkpt>
      <trkpt lat="42.37547" lon="2.19449">
        <ele>1497</ele>
        <time>2024-09-25T10:21:18Z</time>
      </trkpt>
      <trkpt lat="42.37547" lon="2.19449">
        <ele>1497</ele>
        <time>2024-09-25T10:21:19Z</time>
      </trkpt>
      <trkpt lat="42.37547" lon="2.19449">
        <ele>1497</ele>
        <time>2024-09-25T10:21:20Z</time>
      </trkpt>
      <trkpt lat="42.37547" lon="2.19449">
        <ele>1497</ele>
        <time>2024-09-25T10:21:21Z</time>
      </trkpt>
      <trkpt lat="42.37548" lon="2.1945">
        <ele>1497.1</ele>
        <time>2024-09-25T10:21:22Z</time>
      </trkpt>
      <trkpt lat="42.37548" lon="2.1945">
        <ele>1497.2</ele>
        <time>2024-09-25T10:21:23Z</time>
      </trkpt>
      <trkpt lat="42.37549" lon="2.1945">
        <ele>1497.3</ele>
        <time>2024-09-25T10:21:24Z</time>
      </trkpt>
      <trkpt lat="42.3755" lon="2.1945">
        <ele>1497.5</ele>
        <time>2024-09-25T10:21:25Z</time>
      </trkpt>
      <trkpt lat="42.3755" lon="2.1945">
        <ele>1497.6</ele>
        <time>2024-09-25T10:21:26Z</time>
      </trkpt>
      <trkpt lat="42.3755" lon="2.1945">
        <ele>1497.6</ele>
        <time>2024-09-25T10:21:27Z</time>
      </trkpt>
      <trkpt lat="42.37552" lon="2.1945">
        <ele>1497.9</ele>
        <time>2024-09-25T10:21:28Z</time>
      </trkpt>
      <trkpt lat="42.37552" lon="2.1945">
        <ele>1498</ele>
        <time>2024-09-25T10:21:29Z</time>
      </trkpt>
      <trkpt lat="42.37554" lon="2.1945">
        <ele>1498.2</ele>
        <time>2024-09-25T10:21:30Z</time>
      </trkpt>
      <trkpt lat="42.37554" lon="2.1945">
        <ele>1498.4</ele>
        <time>2024-09-25T10:21:31Z</time>
      </trkpt>
      <trkpt lat="42.37555" lon="2.1945">
        <ele>1498.5</ele>
        <time>2024-09-25T10:21:32Z</time>
      </trkpt>
      <trkpt lat="42.37556" lon="2.1945">
        <ele>1498.7</ele>
        <time>2024-09-25T10:21:33Z</time>
      </trkpt>
      <trkpt lat="42.37557" lon="2.1945">
        <ele>1498.8</ele>
        <time>2024-09-25T10:21:34Z</time>
      </trkpt>
      <trkpt lat="42.37557" lon="2.19449">
        <ele>1498.9</ele>
        <time>2024-09-25T10:21:35Z</time>
      </trkpt>
      <trkpt lat="42.37558" lon="2.19449">
        <ele>1499.1</ele>
        <time>2024-09-25T10:21:36Z</time>
      </trkpt>
      <trkpt lat="42.37559" lon="2.19448">
        <ele>1499.2</ele>
        <time>2024-09-25T10:21:37Z</time>
      </trkpt>
      <trkpt lat="42.37559" lon="2.19448">
        <ele>1499.2</ele>
        <time>2024-09-25T10:21:38Z</time>
      </trkpt>
      <trkpt lat="42.37559" lon="2.19448">
        <ele>1499.3</ele>
        <time>2024-09-25T10:21:39Z</time>
      </trkpt>
      <trkpt lat="42.3756" lon="2.19447">
        <ele>1499.4</ele>
        <time>2024-09-25T10:21:40Z</time>
      </trkpt>
      <trkpt lat="42.3756" lon="2.19446">
        <ele>1499.5</ele>
        <time>2024-09-25T10:21:41Z</time>
      </trkpt>
      <trkpt lat="42.3756" lon="2.19446">
        <ele>1499.6</ele>
        <time>2024-09-25T10:21:42Z</time>
      </trkpt>
      <trkpt lat="42.37561" lon="2.19445">
        <ele>1499.8</ele>
        <time>2024-09-25T10:21:43Z</time>
      </trkpt>
      <trkpt lat="42.37562" lon="2.19445">
        <ele>1499.9</ele>
        <time>2024-09-25T10:21:44Z</time>
      </trkpt>
      <trkpt lat="42.37562" lon="2.19444">
        <ele>1500</ele>
        <time>2024-09-25T10:21:45Z</time>
      </trkpt>
      <trkpt lat="42.37563" lon="2.19443">
        <ele>1500.2</ele>
        <time>2024-09-25T10:21:46Z</time>
      </trkpt>
      <trkpt lat="42.37564" lon="2.19442">
        <ele>1500.4</ele>
        <time>2024-09-25T10:21:47Z</time>
      </trkpt>
      <trkpt lat="42.37565" lon="2.1944">
        <ele>1500.6</ele>
        <time>2024-09-25T10:21:48Z</time>
      </trkpt>
      <trkpt lat="42.37566" lon="2.19439">
        <ele>1500.8</ele>
        <time>2024-09-25T10:21:49Z</time>
      </trkpt>
      <trkpt lat="42.37567" lon="2.19439">
        <ele>1500.9</ele>
        <time>2024-09-25T10:21:50Z</time>
      </trkpt>
      <trkpt lat="42.37567" lon="2.19438">
        <ele>1501</ele>
        <time>2024-09-25T10:21:51Z</time>
      </trkpt>
      <trkpt lat="42.37567" lon="2.19437">
        <ele>1501.1</ele>
        <time>2024-09-25T10:21:52Z</time>
      </trkpt>
      <trkpt lat="42.37568" lon="2.19437">
        <ele>1501.2</ele>
        <time>2024-09-25T10:21:53Z</time>
      </trkpt>
      <trkpt lat="42.37568" lon="2.19436">
        <ele>1501.3</ele>
        <time>2024-09-25T10:21:54Z</time>
      </trkpt>
      <trkpt lat="42.37568" lon="2.19436">
        <ele>1501.4</ele>
        <time>2024-09-25T10:21:55Z</time>
      </trkpt>
      <trkpt lat="42.37569" lon="2.19435">
        <ele>1501.5</ele>
        <time>2024-09-25T10:21:56Z</time>
      </trkpt>
      <trkpt lat="42.37569" lon="2.19435">
        <ele>1501.6</ele>
        <time>2024-09-25T10:21:57Z</time>
      </trkpt>
      <trkpt lat="42.3757" lon="2.19434">
        <ele>1501.8</ele>
        <time>2024-09-25T10:21:58Z</time>
      </trkpt>
      <trkpt lat="42.37571" lon="2.19432">
        <ele>1502</ele>
        <time>2024-09-25T10:21:59Z</time>
      </trkpt>
      <trkpt lat="42.37571" lon="2.19432">
        <ele>1502.1</ele>
        <time>2024-09-25T10:22:00Z</time>
      </trkpt>
      <trkpt lat="42.37572" lon="2.19431">
        <ele>1502.2</ele>
        <time>2024-09-25T10:22:01Z</time>
      </trkpt>
      <trkpt lat="42.37572" lon="2.19431">
        <ele>1502.2</ele>
        <time>2024-09-25T10:22:02Z</time>
      </trkpt>
      <trkpt lat="42.37573" lon="2.19431">
        <ele>1502.3</ele>
        <time>2024-09-25T10:22:03Z</time>
      </trkpt>
      <trkpt lat="42.37573" lon="2.19431">
        <ele>1502.5</ele>
        <time>2024-09-25T10:22:04Z</time>
      </trkpt>
      <trkpt lat="42.37574" lon="2.19432">
        <ele>1502.6</ele>
        <time>2024-09-25T10:22:05Z</time>
      </trkpt>
      <trkpt lat="42.37575" lon="2.19432">
        <ele>1502.7</ele>
        <time>2024-09-25T10:22:06Z</time>
      </trkpt>
      <trkpt lat="42.37576" lon="2.19432">
        <ele>1502.9</ele>
        <time>2024-09-25T10:22:07Z</time>
      </trkpt>
      <trkpt lat="42.37576" lon="2.19432">
        <ele>1503</ele>
        <time>2024-09-25T10:22:08Z</time>
      </trkpt>
      <trkpt lat="42.37577" lon="2.19432">
        <ele>1503.2</ele>
        <time>2024-09-25T10:22:09Z</time>
      </trkpt>
      <trkpt lat="42.37578" lon="2.19432">
        <ele>1503.3</ele>
        <time>2024-09-25T10:22:10Z</time>
      </trkpt>
      <trkpt lat="42.37578" lon="2.19432">
        <ele>1503.3</ele>
        <time>2024-09-25T10:22:11Z</time>
      </trkpt>
      <trkpt lat="42.37579" lon="2.19432">
        <ele>1503.5</ele>
        <time>2024-09-25T10:22:12Z</time>
      </trkpt>
      <trkpt lat="42.37579" lon="2.19432">
        <ele>1503.6</ele>
        <time>2024-09-25T10:22:13Z</time>
      </trkpt>
      <trkpt lat="42.3758" lon="2.19432">
        <ele>1503.6</ele>
        <time>2024-09-25T10:22:14Z</time>
      </trkpt>
      <trkpt lat="42.3758" lon="2.19432">
        <ele>1503.8</ele>
        <time>2024-09-25T10:22:15Z</time>
      </trkpt>
      <trkpt lat="42.37581" lon="2.19432">
        <ele>1503.9</ele>
        <time>2024-09-25T10:22:16Z</time>
      </trkpt>
      <trkpt lat="42.37582" lon="2.19432">
        <ele>1504.1</ele>
        <time>2024-09-25T10:22:17Z</time>
      </trkpt>
      <trkpt lat="42.37583" lon="2.19431">
        <ele>1504.2</ele>
        <time>2024-09-25T10:22:18Z</time>
      </trkpt>
      <trkpt lat="42.37584" lon="2.19431">
        <ele>1504.4</ele>
        <time>2024-09-25T10:22:19Z</time>
      </trkpt>
      <trkpt lat="42.37585" lon="2.19431">
        <ele>1504.6</ele>
        <time>2024-09-25T10:22:20Z</time>
      </trkpt>
      <trkpt lat="42.37585" lon="2.19431">
        <ele>1504.7</ele>
        <time>2024-09-25T10:22:21Z</time>
      </trkpt>
      <trkpt lat="42.37586" lon="2.1943">
        <ele>1504.8</ele>
        <time>2024-09-25T10:22:22Z</time>
      </trkpt>
      <trkpt lat="42.37586" lon="2.1943">
        <ele>1504.9</ele>
        <time>2024-09-25T10:22:23Z</time>
      </trkpt>
      <trkpt lat="42.37587" lon="2.1943">
        <ele>1505.1</ele>
        <time>2024-09-25T10:22:24Z</time>
      </trkpt>
      <trkpt lat="42.37588" lon="2.19429">
        <ele>1505.4</ele>
        <time>2024-09-25T10:22:25Z</time>
      </trkpt>
      <trkpt lat="42.37589" lon="2.19428">
        <ele>1505.5</ele>
        <time>2024-09-25T10:22:26Z</time>
      </trkpt>
      <trkpt lat="42.3759" lon="2.19427">
        <ele>1505.7</ele>
        <time>2024-09-25T10:22:27Z</time>
      </trkpt>
      <trkpt lat="42.37591" lon="2.19427">
        <ele>1505.9</ele>
        <time>2024-09-25T10:22:28Z</time>
      </trkpt>
      <trkpt lat="42.37591" lon="2.19426">
        <ele>1506.1</ele>
        <time>2024-09-25T10:22:29Z</time>
      </trkpt>
      <trkpt lat="42.37592" lon="2.19426">
        <ele>1506.2</ele>
        <time>2024-09-25T10:22:30Z</time>
      </trkpt>
      <trkpt lat="42.37593" lon="2.19425">
        <ele>1506.4</ele>
        <time>2024-09-25T10:22:31Z</time>
      </trkpt>
      <trkpt lat="42.37594" lon="2.19425">
        <ele>1506.5</ele>
        <time>2024-09-25T10:22:32Z</time>
      </trkpt>
      <trkpt lat="42.37594" lon="2.19424">
        <ele>1506.7</ele>
        <time>2024-09-25T10:22:33Z</time>
      </trkpt>
      <trkpt lat="42.37595" lon="2.19424">
        <ele>1506.9</ele>
        <time>2024-09-25T10:22:34Z</time>
      </trkpt>
      <trkpt lat="42.37596" lon="2.19424">
        <ele>1507</ele>
        <time>2024-09-25T10:22:35Z</time>
      </trkpt>
      <trkpt lat="42.37596" lon="2.19425">
        <ele>1507.1</ele>
        <time>2024-09-25T10:22:36Z</time>
      </trkpt>
      <trkpt lat="42.37596" lon="2.19425">
        <ele>1507.2</ele>
        <time>2024-09-25T10:22:37Z</time>
      </trkpt>
      <trkpt lat="42.37596" lon="2.19426">
        <ele>1507.3</ele>
        <time>2024-09-25T10:22:38Z</time>
      </trkpt>
      <trkpt lat="42.37595" lon="2.19426">
        <ele>1507.3</ele>
        <time>2024-09-25T10:22:39Z</time>
      </trkpt>
      <trkpt lat="42.37595" lon="2.19426">
        <ele>1507.4</ele>
        <time>2024-09-25T10:22:40Z</time>
      </trkpt>
      <trkpt lat="42.37595" lon="2.19426">
        <ele>1507.4</ele>
        <time>2024-09-25T10:22:41Z</time>
      </trkpt>
      <trkpt lat="42.37595" lon="2.19427">
        <ele>1507.5</ele>
        <time>2024-09-25T10:22:42Z</time>
      </trkpt>
      <trkpt lat="42.37595" lon="2.19427">
        <ele>1507.5</ele>
        <time>2024-09-25T10:22:43Z</time>
      </trkpt>
      <trkpt lat="42.37594" lon="2.19427">
        <ele>1507.6</ele>
        <time>2024-09-25T10:22:44Z</time>
      </trkpt>
      <trkpt lat="42.37594" lon="2.19427">
        <ele>1507.7</ele>
        <time>2024-09-25T10:22:46Z</time>
      </trkpt>
      <trkpt lat="42.37594" lon="2.19427">
        <ele>1507.7</ele>
        <time>2024-09-25T10:22:47Z</time>
      </trkpt>
      <trkpt lat="42.37594" lon="2.19427">
        <ele>1507.7</ele>
        <time>2024-09-25T10:22:48Z</time>
      </trkpt>
      <trkpt lat="42.37594" lon="2.19427">
        <ele>1507.7</ele>
        <time>2024-09-25T10:22:49Z</time>
      </trkpt>
      <trkpt lat="42.37594" lon="2.19428">
        <ele>1507.7</ele>
        <time>2024-09-25T10:22:50Z</time>
      </trkpt>
      <trkpt lat="42.37594" lon="2.19428">
        <ele>1507.7</ele>
        <time>2024-09-25T10:22:51Z</time>
      </trkpt>
      <trkpt lat="42.37594" lon="2.19428">
        <ele>1507.7</ele>
        <time>2024-09-25T10:22:52Z</time>
      </trkpt>
      <trkpt lat="42.37594" lon="2.19428">
        <ele>1507.8</ele>
        <time>2024-09-25T10:22:53Z</time>
      </trkpt>
      <trkpt lat="42.37594" lon="2.19428">
        <ele>1507.8</ele>
        <time>2024-09-25T10:22:54Z</time>
      </trkpt>
      <trkpt lat="42.37594" lon="2.19428">
        <ele>1507.8</ele>
        <time>2024-09-25T10:22:55Z</time>
      </trkpt>
      <trkpt lat="42.37594" lon="2.19428">
        <ele>1507.8</ele>
        <time>2024-09-25T10:22:56Z</time>
      </trkpt>
      <trkpt lat="42.37594" lon="2.19428">
        <ele>1507.8</ele>
        <time>2024-09-25T10:22:57Z</time>
      </trkpt>
      <trkpt lat="42.37594" lon="2.19428">
        <ele>1507.8</ele>
        <time>2024-09-25T10:22:58Z</time>
      </trkpt>
      <trkpt lat="42.37594" lon="2.19428">
        <ele>1507.8</ele>
        <time>2024-09-25T10:22:59Z</time>
      </trkpt>
      <trkpt lat="42.37594" lon="2.19428">
        <ele>1507.8</ele>
        <time>2024-09-25T10:23:00Z</time>
      </trkpt>
      <trkpt lat="42.37594" lon="2.19428">
        <ele>1507.8</ele>
        <time>2024-09-25T10:23:01Z</time>
      </trkpt>
      <trkpt lat="42.37594" lon="2.19428">
        <ele>1507.8</ele>
        <time>2024-09-25T10:23:02Z</time>
      </trkpt>
      <trkpt lat="42.37594" lon="2.19428">
        <ele>1507.9</ele>
        <time>2024-09-25T10:23:03Z</time>
      </trkpt>
      <trkpt lat="42.37594" lon="2.19428">
        <ele>1507.9</ele>
        <time>2024-09-25T10:23:04Z</time>
      </trkpt>
      <trkpt lat="42.37594" lon="2.19428">
        <ele>1507.9</ele>
        <time>2024-09-25T10:23:05Z</time>
      </trkpt>
      <trkpt lat="42.37594" lon="2.19428">
        <ele>1507.9</ele>
        <time>2024-09-25T10:23:06Z</time>
      </trkpt>
      <trkpt lat="42.37594" lon="2.19428">
        <ele>1507.9</ele>
        <time>2024-09-25T10:23:07Z</time>
      </trkpt>
      <trkpt lat="42.37594" lon="2.19428">
        <ele>1507.9</ele>
        <time>2024-09-25T10:23:08Z</time>
      </trkpt>
      <trkpt lat="42.37594" lon="2.19428">
        <ele>1508</ele>
        <time>2024-09-25T10:23:09Z</time>
      </trkpt>
      <trkpt lat="42.37594" lon="2.19429">
        <ele>1508</ele>
        <time>2024-09-25T10:23:10Z</time>
      </trkpt>
      <trkpt lat="42.37594" lon="2.19429">
        <ele>1508</ele>
        <time>2024-09-25T10:23:11Z</time>
      </trkpt>
      <trkpt lat="42.37594" lon="2.19429">
        <ele>1508</ele>
        <time>2024-09-25T10:23:12Z</time>
      </trkpt>
      <trkpt lat="42.37594" lon="2.19429">
        <ele>1508</ele>
        <time>2024-09-25T10:23:13Z</time>
      </trkpt>
      <trkpt lat="42.37594" lon="2.19429">
        <ele>1508.1</ele>
        <time>2024-09-25T10:23:14Z</time>
      </trkpt>
      <trkpt lat="42.37594" lon="2.19429">
        <ele>1508.1</ele>
        <time>2024-09-25T10:23:15Z</time>
      </trkpt>
      <trkpt lat="42.37594" lon="2.1943">
        <ele>1508.2</ele>
        <time>2024-09-25T10:23:16Z</time>
      </trkpt>
      <trkpt lat="42.37594" lon="2.19431">
        <ele>1508.3</ele>
        <time>2024-09-25T10:23:17Z</time>
      </trkpt>
      <trkpt lat="42.37594" lon="2.19432">
        <ele>1508.4</ele>
        <time>2024-09-25T10:23:18Z</time>
      </trkpt>
      <trkpt lat="42.37594" lon="2.19433">
        <ele>1508.6</ele>
        <time>2024-09-25T10:23:19Z</time>
      </trkpt>
      <trkpt lat="42.37594" lon="2.19433">
        <ele>1508.7</ele>
        <time>2024-09-25T10:23:20Z</time>
      </trkpt>
      <trkpt lat="42.37595" lon="2.19434">
        <ele>1508.8</ele>
        <time>2024-09-25T10:23:21Z</time>
      </trkpt>
      <trkpt lat="42.37595" lon="2.19435">
        <ele>1509</ele>
        <time>2024-09-25T10:23:22Z</time>
      </trkpt>
      <trkpt lat="42.37595" lon="2.19436">
        <ele>1509.2</ele>
        <time>2024-09-25T10:23:23Z</time>
      </trkpt>
      <trkpt lat="42.37595" lon="2.19437">
        <ele>1509.3</ele>
        <time>2024-09-25T10:23:24Z</time>
      </trkpt>
      <trkpt lat="42.37596" lon="2.19438">
        <ele>1509.5</ele>
        <time>2024-09-25T10:23:25Z</time>
      </trkpt>
      <trkpt lat="42.37596" lon="2.19439">
        <ele>1509.6</ele>
        <time>2024-09-25T10:23:26Z</time>
      </trkpt>
      <trkpt lat="42.37596" lon="2.1944">
        <ele>1509.8</ele>
        <time>2024-09-25T10:23:27Z</time>
      </trkpt>
      <trkpt lat="42.37596" lon="2.19441">
        <ele>1509.9</ele>
        <time>2024-09-25T10:23:28Z</time>
      </trkpt>
      <trkpt lat="42.37596" lon="2.19442">
        <ele>1510</ele>
        <time>2024-09-25T10:23:29Z</time>
      </trkpt>
      <trkpt lat="42.37596" lon="2.19442">
        <ele>1510.1</ele>
        <time>2024-09-25T10:23:30Z</time>
      </trkpt>
      <trkpt lat="42.37596" lon="2.19443">
        <ele>1510.1</ele>
        <time>2024-09-25T10:23:31Z</time>
      </trkpt>
      <trkpt lat="42.37595" lon="2.19444">
        <ele>1510.3</ele>
        <time>2024-09-25T10:23:32Z</time>
      </trkpt>
      <trkpt lat="42.37595" lon="2.19445">
        <ele>1510.5</ele>
        <time>2024-09-25T10:23:33Z</time>
      </trkpt>
      <trkpt lat="42.37595" lon="2.19446">
        <ele>1510.6</ele>
        <time>2024-09-25T10:23:34Z</time>
      </trkpt>
      <trkpt lat="42.37594" lon="2.19447">
        <ele>1510.8</ele>
        <time>2024-09-25T10:23:35Z</time>
      </trkpt>
      <trkpt lat="42.37594" lon="2.19448">
        <ele>1510.9</ele>
        <time>2024-09-25T10:23:36Z</time>
      </trkpt>
      <trkpt lat="42.37594" lon="2.19448">
        <ele>1511</ele>
        <time>2024-09-25T10:23:37Z</time>
      </trkpt>
      <trkpt lat="42.37594" lon="2.19449">
        <ele>1511.1</ele>
        <time>2024-09-25T10:23:38Z</time>
      </trkpt>
      <trkpt lat="42.37593" lon="2.1945">
        <ele>1511.3</ele>
        <time>2024-09-25T10:23:39Z</time>
      </trkpt>
      <trkpt lat="42.37593" lon="2.19451">
        <ele>1511.4</ele>
        <time>2024-09-25T10:23:40Z</time>
      </trkpt>
      <trkpt lat="42.37593" lon="2.19451">
        <ele>1511.5</ele>
        <time>2024-09-25T10:23:41Z</time>
      </trkpt>
      <trkpt lat="42.37592" lon="2.19452">
        <ele>1511.6</ele>
        <time>2024-09-25T10:23:42Z</time>
      </trkpt>
      <trkpt lat="42.37592" lon="2.19452">
        <ele>1511.7</ele>
        <time>2024-09-25T10:23:43Z</time>
      </trkpt>
      <trkpt lat="42.37592" lon="2.19453">
        <ele>1511.8</ele>
        <time>2024-09-25T10:23:44Z</time>
      </trkpt>
      <trkpt lat="42.37591" lon="2.19454">
        <ele>1512</ele>
        <time>2024-09-25T10:23:45Z</time>
      </trkpt>
      <trkpt lat="42.37591" lon="2.19455">
        <ele>1512.2</ele>
        <time>2024-09-25T10:23:46Z</time>
      </trkpt>
      <trkpt lat="42.37591" lon="2.19456">
        <ele>1512.3</ele>
        <time>2024-09-25T10:23:47Z</time>
      </trkpt>
      <trkpt lat="42.37591" lon="2.19457">
        <ele>1512.4</ele>
        <time>2024-09-25T10:23:48Z</time>
      </trkpt>
      <trkpt lat="42.3759" lon="2.19458">
        <ele>1512.6</ele>
        <time>2024-09-25T10:23:49Z</time>
      </trkpt>
      <trkpt lat="42.3759" lon="2.19458">
        <ele>1512.6</ele>
        <time>2024-09-25T10:23:50Z</time>
      </trkpt>
      <trkpt lat="42.3759" lon="2.19459">
        <ele>1512.7</ele>
        <time>2024-09-25T10:23:51Z</time>
      </trkpt>
      <trkpt lat="42.37589" lon="2.19459">
        <ele>1512.8</ele>
        <time>2024-09-25T10:23:52Z</time>
      </trkpt>
      <trkpt lat="42.37589" lon="2.1946">
        <ele>1513</ele>
        <time>2024-09-25T10:23:53Z</time>
      </trkpt>
      <trkpt lat="42.37589" lon="2.19461">
        <ele>1513.1</ele>
        <time>2024-09-25T10:23:54Z</time>
      </trkpt>
      <trkpt lat="42.37588" lon="2.19461">
        <ele>1513.2</ele>
        <time>2024-09-25T10:23:55Z</time>
      </trkpt>
      <trkpt lat="42.37588" lon="2.19462">
        <ele>1513.3</ele>
        <time>2024-09-25T10:23:56Z</time>
      </trkpt>
      <trkpt lat="42.37588" lon="2.19462">
        <ele>1513.4</ele>
        <time>2024-09-25T10:23:57Z</time>
      </trkpt>
      <trkpt lat="42.37587" lon="2.19463">
        <ele>1513.5</ele>
        <time>2024-09-25T10:23:58Z</time>
      </trkpt>
      <trkpt lat="42.37587" lon="2.19464">
        <ele>1513.6</ele>
        <time>2024-09-25T10:23:59Z</time>
      </trkpt>
      <trkpt lat="42.37587" lon="2.19464">
        <ele>1513.7</ele>
        <time>2024-09-25T10:24:00Z</time>
      </trkpt>
      <trkpt lat="42.37587" lon="2.19465">
        <ele>1513.9</ele>
        <time>2024-09-25T10:24:01Z</time>
      </trkpt>
      <trkpt lat="42.37586" lon="2.19466">
        <ele>1514</ele>
        <time>2024-09-25T10:24:02Z</time>
      </trkpt>
      <trkpt lat="42.37586" lon="2.19467">
        <ele>1514.1</ele>
        <time>2024-09-25T10:24:03Z</time>
      </trkpt>
      <trkpt lat="42.37586" lon="2.19467">
        <ele>1514.3</ele>
        <time>2024-09-25T10:24:04Z</time>
      </trkpt>
      <trkpt lat="42.37586" lon="2.19468">
        <ele>1514.3</ele>
        <time>2024-09-25T10:24:05Z</time>
      </trkpt>
      <trkpt lat="42.37586" lon="2.19469">
        <ele>1514.5</ele>
        <time>2024-09-25T10:24:06Z</time>
      </trkpt>
      <trkpt lat="42.37585" lon="2.1947">
        <ele>1514.7</ele>
        <time>2024-09-25T10:24:07Z</time>
      </trkpt>
      <trkpt lat="42.37585" lon="2.19471">
        <ele>1514.8</ele>
        <time>2024-09-25T10:24:08Z</time>
      </trkpt>
      <trkpt lat="42.37585" lon="2.19472">
        <ele>1514.9</ele>
        <time>2024-09-25T10:24:09Z</time>
      </trkpt>
      <trkpt lat="42.37585" lon="2.19472">
        <ele>1515</ele>
        <time>2024-09-25T10:24:10Z</time>
      </trkpt>
      <trkpt lat="42.37585" lon="2.19473">
        <ele>1515.1</ele>
        <time>2024-09-25T10:24:11Z</time>
      </trkpt>
      <trkpt lat="42.37584" lon="2.19474">
        <ele>1515.3</ele>
        <time>2024-09-25T10:24:12Z</time>
      </trkpt>
      <trkpt lat="42.37584" lon="2.19475">
        <ele>1515.4</ele>
        <time>2024-09-25T10:24:13Z</time>
      </trkpt>
      <trkpt lat="42.37584" lon="2.19475">
        <ele>1515.4</ele>
        <time>2024-09-25T10:24:14Z</time>
      </trkpt>
      <trkpt lat="42.37584" lon="2.19475">
        <ele>1515.5</ele>
        <time>2024-09-25T10:24:15Z</time>
      </trkpt>
      <trkpt lat="42.37584" lon="2.19475">
        <ele>1515.5</ele>
        <time>2024-09-25T10:24:16Z</time>
      </trkpt>
      <trkpt lat="42.37585" lon="2.19477">
        <ele>1515.7</ele>
        <time>2024-09-25T10:24:17Z</time>
      </trkpt>
      <trkpt lat="42.37584" lon="2.19476">
        <ele>1515.9</ele>
        <time>2024-09-25T10:24:18Z</time>
      </trkpt>
      <trkpt lat="42.37584" lon="2.19477">
        <ele>1516</ele>
        <time>2024-09-25T10:24:19Z</time>
      </trkpt>
      <trkpt lat="42.37585" lon="2.19478">
        <ele>1516.1</ele>
        <time>2024-09-25T10:24:20Z</time>
      </trkpt>
      <trkpt lat="42.37585" lon="2.19478">
        <ele>1516.2</ele>
        <time>2024-09-25T10:24:21Z</time>
      </trkpt>
      <trkpt lat="42.37585" lon="2.19479">
        <ele>1516.3</ele>
        <time>2024-09-25T10:24:22Z</time>
      </trkpt>
      <trkpt lat="42.37586" lon="2.19479">
        <ele>1516.4</ele>
        <time>2024-09-25T10:24:23Z</time>
      </trkpt>
      <trkpt lat="42.37586" lon="2.1948">
        <ele>1516.5</ele>
        <time>2024-09-25T10:24:24Z</time>
      </trkpt>
      <trkpt lat="42.37586" lon="2.1948">
        <ele>1516.5</ele>
        <time>2024-09-25T10:24:25Z</time>
      </trkpt>
      <trkpt lat="42.37586" lon="2.1948">
        <ele>1516.6</ele>
        <time>2024-09-25T10:24:26Z</time>
      </trkpt>
      <trkpt lat="42.37586" lon="2.1948">
        <ele>1516.6</ele>
        <time>2024-09-25T10:24:27Z</time>
      </trkpt>
      <trkpt lat="42.37586" lon="2.1948">
        <ele>1516.6</ele>
        <time>2024-09-25T10:24:28Z</time>
      </trkpt>
      <trkpt lat="42.37586" lon="2.1948">
        <ele>1516.6</ele>
        <time>2024-09-25T10:24:29Z</time>
      </trkpt>
      <trkpt lat="42.37586" lon="2.1948">
        <ele>1516.6</ele>
        <time>2024-09-25T10:24:30Z</time>
      </trkpt>
      <trkpt lat="42.37586" lon="2.1948">
        <ele>1516.6</ele>
        <time>2024-09-25T10:24:31Z</time>
      </trkpt>
      <trkpt lat="42.37586" lon="2.1948">
        <ele>1516.6</ele>
        <time>2024-09-25T10:24:32Z</time>
      </trkpt>
      <trkpt lat="42.37586" lon="2.1948">
        <ele>1516.6</ele>
        <time>2024-09-25T10:24:33Z</time>
      </trkpt>
      <trkpt lat="42.37586" lon="2.1948">
        <ele>1516.7</ele>
        <time>2024-09-25T10:24:34Z</time>
      </trkpt>
      <trkpt lat="42.37586" lon="2.1948">
        <ele>1516.7</ele>
        <time>2024-09-25T10:24:35Z</time>
      </trkpt>
      <trkpt lat="42.37586" lon="2.1948">
        <ele>1516.7</ele>
        <time>2024-09-25T10:24:36Z</time>
      </trkpt>
      <trkpt lat="42.37586" lon="2.1948">
        <ele>1516.7</ele>
        <time>2024-09-25T10:24:37Z</time>
      </trkpt>
      <trkpt lat="42.37586" lon="2.19481">
        <ele>1516.7</ele>
        <time>2024-09-25T10:24:38Z</time>
      </trkpt>
      <trkpt lat="42.37586" lon="2.19481">
        <ele>1516.7</ele>
        <time>2024-09-25T10:24:39Z</time>
      </trkpt>
      <trkpt lat="42.37586" lon="2.19481">
        <ele>1516.8</ele>
        <time>2024-09-25T10:24:40Z</time>
      </trkpt>
      <trkpt lat="42.37586" lon="2.19481">
        <ele>1516.8</ele>
        <time>2024-09-25T10:24:41Z</time>
      </trkpt>
      <trkpt lat="42.37586" lon="2.19481">
        <ele>1516.8</ele>
        <time>2024-09-25T10:24:42Z</time>
      </trkpt>
      <trkpt lat="42.37586" lon="2.19481">
        <ele>1516.8</ele>
        <time>2024-09-25T10:24:43Z</time>
      </trkpt>
      <trkpt lat="42.37586" lon="2.19481">
        <ele>1516.8</ele>
        <time>2024-09-25T10:24:44Z</time>
      </trkpt>
      <trkpt lat="42.37586" lon="2.19481">
        <ele>1516.8</ele>
        <time>2024-09-25T10:24:45Z</time>
      </trkpt>
      <trkpt lat="42.37586" lon="2.19481">
        <ele>1516.8</ele>
        <time>2024-09-25T10:24:46Z</time>
      </trkpt>
      <trkpt lat="42.37586" lon="2.19481">
        <ele>1516.8</ele>
        <time>2024-09-25T10:24:47Z</time>
      </trkpt>
      <trkpt lat="42.37586" lon="2.19481">
        <ele>1516.9</ele>
        <time>2024-09-25T10:24:48Z</time>
      </trkpt>
      <trkpt lat="42.37586" lon="2.19481">
        <ele>1516.9</ele>
        <time>2024-09-25T10:24:49Z</time>
      </trkpt>
      <trkpt lat="42.37586" lon="2.19482">
        <ele>1516.9</ele>
        <time>2024-09-25T10:24:50Z</time>
      </trkpt>
      <trkpt lat="42.37586" lon="2.19481">
        <ele>1516.9</ele>
        <time>2024-09-25T10:24:51Z</time>
      </trkpt>
      <trkpt lat="42.37586" lon="2.19481">
        <ele>1517</ele>
        <time>2024-09-25T10:24:52Z</time>
      </trkpt>
      <trkpt lat="42.37586" lon="2.19481">
        <ele>1517</ele>
        <time>2024-09-25T10:24:53Z</time>
      </trkpt>
      <trkpt lat="42.37586" lon="2.19481">
        <ele>1517</ele>
        <time>2024-09-25T10:24:54Z</time>
      </trkpt>
      <trkpt lat="42.37586" lon="2.19481">
        <ele>1517</ele>
        <time>2024-09-25T10:24:55Z</time>
      </trkpt>
      <trkpt lat="42.37586" lon="2.19481">
        <ele>1517</ele>
        <time>2024-09-25T10:24:56Z</time>
      </trkpt>
      <trkpt lat="42.37586" lon="2.19481">
        <ele>1517.1</ele>
        <time>2024-09-25T10:24:57Z</time>
      </trkpt>
      <trkpt lat="42.37586" lon="2.19481">
        <ele>1517.1</ele>
        <time>2024-09-25T10:24:58Z</time>
      </trkpt>
      <trkpt lat="42.37587" lon="2.19481">
        <ele>1517.2</ele>
        <time>2024-09-25T10:24:59Z</time>
      </trkpt>
      <trkpt lat="42.37587" lon="2.19481">
        <ele>1517.2</ele>
        <time>2024-09-25T10:25:00Z</time>
      </trkpt>
      <trkpt lat="42.37587" lon="2.19482">
        <ele>1517.3</ele>
        <time>2024-09-25T10:25:01Z</time>
      </trkpt>
      <trkpt lat="42.37588" lon="2.19482">
        <ele>1517.4</ele>
        <time>2024-09-25T10:25:02Z</time>
      </trkpt>
      <trkpt lat="42.37588" lon="2.19482">
        <ele>1517.5</ele>
        <time>2024-09-25T10:25:03Z</time>
      </trkpt>
      <trkpt lat="42.37589" lon="2.19482">
        <ele>1517.6</ele>
        <time>2024-09-25T10:25:04Z</time>
      </trkpt>
      <trkpt lat="42.37589" lon="2.19483">
        <ele>1517.7</ele>
        <time>2024-09-25T10:25:05Z</time>
      </trkpt>
      <trkpt lat="42.3759" lon="2.19483">
        <ele>1517.9</ele>
        <time>2024-09-25T10:25:06Z</time>
      </trkpt>
      <trkpt lat="42.3759" lon="2.19483">
        <ele>1518</ele>
        <time>2024-09-25T10:25:07Z</time>
      </trkpt>
      <trkpt lat="42.37591" lon="2.19484">
        <ele>1518.1</ele>
        <time>2024-09-25T10:25:08Z</time>
      </trkpt>
      <trkpt lat="42.37592" lon="2.19484">
        <ele>1518.3</ele>
        <time>2024-09-25T10:25:09Z</time>
      </trkpt>
      <trkpt lat="42.37592" lon="2.19485">
        <ele>1518.5</ele>
        <time>2024-09-25T10:25:10Z</time>
      </trkpt>
      <trkpt lat="42.37592" lon="2.19487">
        <ele>1518.7</ele>
        <time>2024-09-25T10:25:11Z</time>
      </trkpt>
      <trkpt lat="42.37593" lon="2.19488">
        <ele>1518.9</ele>
        <time>2024-09-25T10:25:12Z</time>
      </trkpt>
      <trkpt lat="42.37593" lon="2.1949">
        <ele>1519.1</ele>
        <time>2024-09-25T10:25:13Z</time>
      </trkpt>
      <trkpt lat="42.37593" lon="2.1949">
        <ele>1519.2</ele>
        <time>2024-09-25T10:25:14Z</time>
      </trkpt>
      <trkpt lat="42.37594" lon="2.19491">
        <ele>1519.3</ele>
        <time>2024-09-25T10:25:15Z</time>
      </trkpt>
      <trkpt lat="42.37594" lon="2.19492">
        <ele>1519.5</ele>
        <time>2024-09-25T10:25:16Z</time>
      </trkpt>
      <trkpt lat="42.37594" lon="2.19492">
        <ele>1519.5</ele>
        <time>2024-09-25T10:25:17Z</time>
      </trkpt>
      <trkpt lat="42.37594" lon="2.19493">
        <ele>1519.6</ele>
        <time>2024-09-25T10:25:18Z</time>
      </trkpt>
      <trkpt lat="42.37595" lon="2.19494">
        <ele>1519.7</ele>
        <time>2024-09-25T10:25:19Z</time>
      </trkpt>
      <trkpt lat="42.37595" lon="2.19494">
        <ele>1519.9</ele>
        <time>2024-09-25T10:25:20Z</time>
      </trkpt>
      <trkpt lat="42.37596" lon="2.19496">
        <ele>1520.1</ele>
        <time>2024-09-25T10:25:21Z</time>
      </trkpt>
      <trkpt lat="42.37596" lon="2.19496">
        <ele>1520.2</ele>
        <time>2024-09-25T10:25:22Z</time>
      </trkpt>
      <trkpt lat="42.37597" lon="2.19497">
        <ele>1520.3</ele>
        <time>2024-09-25T10:25:23Z</time>
      </trkpt>
      <trkpt lat="42.37597" lon="2.19498">
        <ele>1520.5</ele>
        <time>2024-09-25T10:25:24Z</time>
      </trkpt>
      <trkpt lat="42.37598" lon="2.19499">
        <ele>1520.6</ele>
        <time>2024-09-25T10:25:25Z</time>
      </trkpt>
      <trkpt lat="42.37598" lon="2.195">
        <ele>1520.8</ele>
        <time>2024-09-25T10:25:26Z</time>
      </trkpt>
      <trkpt lat="42.37599" lon="2.195">
        <ele>1520.9</ele>
        <time>2024-09-25T10:25:27Z</time>
      </trkpt>
      <trkpt lat="42.37599" lon="2.195">
        <ele>1521</ele>
        <time>2024-09-25T10:25:28Z</time>
      </trkpt>
      <trkpt lat="42.376" lon="2.195">
        <ele>1521</ele>
        <time>2024-09-25T10:25:29Z</time>
      </trkpt>
      <trkpt lat="42.376" lon="2.195">
        <ele>1521.1</ele>
        <time>2024-09-25T10:25:30Z</time>
      </trkpt>
      <trkpt lat="42.37601" lon="2.19501">
        <ele>1521.3</ele>
        <time>2024-09-25T10:25:31Z</time>
      </trkpt>
      <trkpt lat="42.37601" lon="2.19502">
        <ele>1521.4</ele>
        <time>2024-09-25T10:25:32Z</time>
      </trkpt>
      <trkpt lat="42.37602" lon="2.19502">
        <ele>1521.6</ele>
        <time>2024-09-25T10:25:33Z</time>
      </trkpt>
      <trkpt lat="42.37603" lon="2.19503">
        <ele>1521.8</ele>
        <time>2024-09-25T10:25:34Z</time>
      </trkpt>
      <trkpt lat="42.37604" lon="2.19504">
        <ele>1522.1</ele>
        <time>2024-09-25T10:25:35Z</time>
      </trkpt>
      <trkpt lat="42.37605" lon="2.19504">
        <ele>1522.2</ele>
        <time>2024-09-25T10:25:36Z</time>
      </trkpt>
      <trkpt lat="42.37605" lon="2.19504">
        <ele>1522.3</ele>
        <time>2024-09-25T10:25:37Z</time>
      </trkpt>
      <trkpt lat="42.37605" lon="2.19504">
        <ele>1522.3</ele>
        <time>2024-09-25T10:25:38Z</time>
      </trkpt>
      <trkpt lat="42.37605" lon="2.19505">
        <ele>1522.3</ele>
        <time>2024-09-25T10:25:39Z</time>
      </trkpt>
      <trkpt lat="42.37605" lon="2.19505">
        <ele>1522.3</ele>
        <time>2024-09-25T10:25:40Z</time>
      </trkpt>
      <trkpt lat="42.37606" lon="2.19505">
        <ele>1522.4</ele>
        <time>2024-09-25T10:25:41Z</time>
      </trkpt>
      <trkpt lat="42.37606" lon="2.19505">
        <ele>1522.4</ele>
        <time>2024-09-25T10:25:42Z</time>
      </trkpt>
      <trkpt lat="42.37606" lon="2.19505">
        <ele>1522.4</ele>
        <time>2024-09-25T10:25:43Z</time>
      </trkpt>
      <trkpt lat="42.37606" lon="2.19505">
        <ele>1522.5</ele>
        <time>2024-09-25T10:25:44Z</time>
      </trkpt>
      <trkpt lat="42.37606" lon="2.19505">
        <ele>1522.5</ele>
        <time>2024-09-25T10:25:45Z</time>
      </trkpt>
      <trkpt lat="42.37606" lon="2.19506">
        <ele>1522.5</ele>
        <time>2024-09-25T10:25:46Z</time>
      </trkpt>
      <trkpt lat="42.37606" lon="2.19506">
        <ele>1522.5</ele>
        <time>2024-09-25T10:25:47Z</time>
      </trkpt>
      <trkpt lat="42.37606" lon="2.19506">
        <ele>1522.6</ele>
        <time>2024-09-25T10:25:48Z</time>
      </trkpt>
      <trkpt lat="42.37606" lon="2.19506">
        <ele>1522.6</ele>
        <time>2024-09-25T10:25:49Z</time>
      </trkpt>
      <trkpt lat="42.37606" lon="2.19506">
        <ele>1522.6</ele>
        <time>2024-09-25T10:25:50Z</time>
      </trkpt>
      <trkpt lat="42.37606" lon="2.19506">
        <ele>1522.7</ele>
        <time>2024-09-25T10:25:51Z</time>
      </trkpt>
      <trkpt lat="42.37607" lon="2.19507">
        <ele>1522.7</ele>
        <time>2024-09-25T10:25:52Z</time>
      </trkpt>
      <trkpt lat="42.37607" lon="2.19507">
        <ele>1522.7</ele>
        <time>2024-09-25T10:25:53Z</time>
      </trkpt>
      <trkpt lat="42.37607" lon="2.19507">
        <ele>1522.8</ele>
        <time>2024-09-25T10:25:54Z</time>
      </trkpt>
      <trkpt lat="42.37607" lon="2.19507">
        <ele>1522.8</ele>
        <time>2024-09-25T10:25:55Z</time>
      </trkpt>
      <trkpt lat="42.37607" lon="2.19507">
        <ele>1522.8</ele>
        <time>2024-09-25T10:25:56Z</time>
      </trkpt>
      <trkpt lat="42.37607" lon="2.19507">
        <ele>1522.8</ele>
        <time>2024-09-25T10:25:57Z</time>
      </trkpt>
      <trkpt lat="42.37607" lon="2.19507">
        <ele>1522.9</ele>
        <time>2024-09-25T10:25:58Z</time>
      </trkpt>
      <trkpt lat="42.37608" lon="2.19508">
        <ele>1523.1</ele>
        <time>2024-09-25T10:25:59Z</time>
      </trkpt>
      <trkpt lat="42.37609" lon="2.19508">
        <ele>1523.2</ele>
        <time>2024-09-25T10:26:00Z</time>
      </trkpt>
      <trkpt lat="42.3761" lon="2.19509">
        <ele>1523.4</ele>
        <time>2024-09-25T10:26:01Z</time>
      </trkpt>
      <trkpt lat="42.3761" lon="2.19509">
        <ele>1523.6</ele>
        <time>2024-09-25T10:26:02Z</time>
      </trkpt>
      <trkpt lat="42.37611" lon="2.19508">
        <ele>1523.7</ele>
        <time>2024-09-25T10:26:03Z</time>
      </trkpt>
      <trkpt lat="42.37612" lon="2.19508">
        <ele>1523.9</ele>
        <time>2024-09-25T10:26:04Z</time>
      </trkpt>
      <trkpt lat="42.37612" lon="2.19507">
        <ele>1524.1</ele>
        <time>2024-09-25T10:26:05Z</time>
      </trkpt>
      <trkpt lat="42.37613" lon="2.19507">
        <ele>1524.3</ele>
        <time>2024-09-25T10:26:06Z</time>
      </trkpt>
      <trkpt lat="42.37614" lon="2.19506">
        <ele>1524.4</ele>
        <time>2024-09-25T10:26:07Z</time>
      </trkpt>
      <trkpt lat="42.37615" lon="2.19506">
        <ele>1524.6</ele>
        <time>2024-09-25T10:26:08Z</time>
      </trkpt>
      <trkpt lat="42.37615" lon="2.19506">
        <ele>1524.7</ele>
        <time>2024-09-25T10:26:09Z</time>
      </trkpt>
      <trkpt lat="42.37615" lon="2.19507">
        <ele>1524.8</ele>
        <time>2024-09-25T10:26:10Z</time>
      </trkpt>
      <trkpt lat="42.37616" lon="2.19507">
        <ele>1524.8</ele>
        <time>2024-09-25T10:26:11Z</time>
      </trkpt>
      <trkpt lat="42.37616" lon="2.19507">
        <ele>1524.8</ele>
        <time>2024-09-25T10:26:12Z</time>
      </trkpt>
      <trkpt lat="42.37616" lon="2.19507">
        <ele>1524.9</ele>
        <time>2024-09-25T10:26:13Z</time>
      </trkpt>
      <trkpt lat="42.37616" lon="2.19507">
        <ele>1525</ele>
        <time>2024-09-25T10:26:14Z</time>
      </trkpt>
      <trkpt lat="42.37617" lon="2.19507">
        <ele>1525</ele>
        <time>2024-09-25T10:26:15Z</time>
      </trkpt>
      <trkpt lat="42.37617" lon="2.19507">
        <ele>1525.1</ele>
        <time>2024-09-25T10:26:16Z</time>
      </trkpt>
      <trkpt lat="42.37617" lon="2.19507">
        <ele>1525.2</ele>
        <time>2024-09-25T10:26:17Z</time>
      </trkpt>
      <trkpt lat="42.37618" lon="2.19507">
        <ele>1525.3</ele>
        <time>2024-09-25T10:26:18Z</time>
      </trkpt>
      <trkpt lat="42.37618" lon="2.19508">
        <ele>1525.4</ele>
        <time>2024-09-25T10:26:19Z</time>
      </trkpt>
      <trkpt lat="42.37619" lon="2.19508">
        <ele>1525.5</ele>
        <time>2024-09-25T10:26:20Z</time>
      </trkpt>
      <trkpt lat="42.3762" lon="2.19509">
        <ele>1525.8</ele>
        <time>2024-09-25T10:26:21Z</time>
      </trkpt>
      <trkpt lat="42.3762" lon="2.19509">
        <ele>1525.9</ele>
        <time>2024-09-25T10:26:22Z</time>
      </trkpt>
      <trkpt lat="42.37621" lon="2.19509">
        <ele>1526.1</ele>
        <time>2024-09-25T10:26:23Z</time>
      </trkpt>
      <trkpt lat="42.37622" lon="2.19509">
        <ele>1526.3</ele>
        <time>2024-09-25T10:26:24Z</time>
      </trkpt>
      <trkpt lat="42.37622" lon="2.1951">
        <ele>1526.4</ele>
        <time>2024-09-25T10:26:25Z</time>
      </trkpt>
      <trkpt lat="42.37623" lon="2.1951">
        <ele>1526.5</ele>
        <time>2024-09-25T10:26:26Z</time>
      </trkpt>
      <trkpt lat="42.37623" lon="2.1951">
        <ele>1526.6</ele>
        <time>2024-09-25T10:26:27Z</time>
      </trkpt>
      <trkpt lat="42.37623" lon="2.1951">
        <ele>1526.6</ele>
        <time>2024-09-25T10:26:28Z</time>
      </trkpt>
      <trkpt lat="42.37624" lon="2.1951">
        <ele>1526.7</ele>
        <time>2024-09-25T10:26:29Z</time>
      </trkpt>
      <trkpt lat="42.37624" lon="2.19511">
        <ele>1526.8</ele>
        <time>2024-09-25T10:26:30Z</time>
      </trkpt>
      <trkpt lat="42.37624" lon="2.19511">
        <ele>1526.9</ele>
        <time>2024-09-25T10:26:31Z</time>
      </trkpt>
      <trkpt lat="42.37625" lon="2.19512">
        <ele>1527</ele>
        <time>2024-09-25T10:26:32Z</time>
      </trkpt>
      <trkpt lat="42.37625" lon="2.19512">
        <ele>1527.1</ele>
        <time>2024-09-25T10:26:33Z</time>
      </trkpt>
      <trkpt lat="42.37626" lon="2.19512">
        <ele>1527.3</ele>
        <time>2024-09-25T10:26:34Z</time>
      </trkpt>
      <trkpt lat="42.37626" lon="2.19512">
        <ele>1527.4</ele>
        <time>2024-09-25T10:26:35Z</time>
      </trkpt>
      <trkpt lat="42.37626" lon="2.19512">
        <ele>1527.5</ele>
        <time>2024-09-25T10:26:36Z</time>
      </trkpt>
      <trkpt lat="42.37627" lon="2.19512">
        <ele>1527.6</ele>
        <time>2024-09-25T10:26:37Z</time>
      </trkpt>
      <trkpt lat="42.37627" lon="2.19512">
        <ele>1527.7</ele>
        <time>2024-09-25T10:26:38Z</time>
      </trkpt>
      <trkpt lat="42.37627" lon="2.19512">
        <ele>1527.7</ele>
        <time>2024-09-25T10:26:39Z</time>
      </trkpt>
      <trkpt lat="42.37628" lon="2.19512">
        <ele>1527.7</ele>
        <time>2024-09-25T10:26:40Z</time>
      </trkpt>
      <trkpt lat="42.37628" lon="2.19512">
        <ele>1527.8</ele>
        <time>2024-09-25T10:26:41Z</time>
      </trkpt>
      <trkpt lat="42.37628" lon="2.19512">
        <ele>1527.8</ele>
        <time>2024-09-25T10:26:42Z</time>
      </trkpt>
      <trkpt lat="42.37628" lon="2.19512">
        <ele>1527.9</ele>
        <time>2024-09-25T10:26:43Z</time>
      </trkpt>
      <trkpt lat="42.37628" lon="2.19512">
        <ele>1527.9</ele>
        <time>2024-09-25T10:26:44Z</time>
      </trkpt>
      <trkpt lat="42.37629" lon="2.19512">
        <ele>1528</ele>
        <time>2024-09-25T10:26:46Z</time>
      </trkpt>
      <trkpt lat="42.37629" lon="2.19512">
        <ele>1528.1</ele>
        <time>2024-09-25T10:26:47Z</time>
      </trkpt>
      <trkpt lat="42.37629" lon="2.19512">
        <ele>1528.1</ele>
        <time>2024-09-25T10:26:48Z</time>
      </trkpt>
      <trkpt lat="42.37629" lon="2.19512">
        <ele>1528.1</ele>
        <time>2024-09-25T10:26:49Z</time>
      </trkpt>
      <trkpt lat="42.37629" lon="2.19512">
        <ele>1528.1</ele>
        <time>2024-09-25T10:26:50Z</time>
      </trkpt>
      <trkpt lat="42.37629" lon="2.19512">
        <ele>1528.1</ele>
        <time>2024-09-25T10:26:51Z</time>
      </trkpt>
      <trkpt lat="42.37629" lon="2.19512">
        <ele>1528.2</ele>
        <time>2024-09-25T10:26:52Z</time>
      </trkpt>
      <trkpt lat="42.37629" lon="2.19512">
        <ele>1528.2</ele>
        <time>2024-09-25T10:26:53Z</time>
      </trkpt>
      <trkpt lat="42.37629" lon="2.19512">
        <ele>1528.2</ele>
        <time>2024-09-25T10:26:54Z</time>
      </trkpt>
      <trkpt lat="42.37629" lon="2.19512">
        <ele>1528.2</ele>
        <time>2024-09-25T10:26:55Z</time>
      </trkpt>
      <trkpt lat="42.37629" lon="2.19512">
        <ele>1528.2</ele>
        <time>2024-09-25T10:26:56Z</time>
      </trkpt>
      <trkpt lat="42.37629" lon="2.19513">
        <ele>1528.4</ele>
        <time>2024-09-25T10:26:57Z</time>
      </trkpt>
      <trkpt lat="42.37629" lon="2.19513">
        <ele>1528.5</ele>
        <time>2024-09-25T10:26:58Z</time>
      </trkpt>
      <trkpt lat="42.37629" lon="2.19514">
        <ele>1528.5</ele>
        <time>2024-09-25T10:26:59Z</time>
      </trkpt>
      <trkpt lat="42.37629" lon="2.19514">
        <ele>1528.6</ele>
        <time>2024-09-25T10:27:00Z</time>
      </trkpt>
      <trkpt lat="42.37629" lon="2.19514">
        <ele>1528.6</ele>
        <time>2024-09-25T10:27:01Z</time>
      </trkpt>
      <trkpt lat="42.37629" lon="2.19514">
        <ele>1528.6</ele>
        <time>2024-09-25T10:27:02Z</time>
      </trkpt>
      <trkpt lat="42.37629" lon="2.19514">
        <ele>1528.7</ele>
        <time>2024-09-25T10:27:03Z</time>
      </trkpt>
      <trkpt lat="42.37629" lon="2.19514">
        <ele>1528.7</ele>
        <time>2024-09-25T10:27:04Z</time>
      </trkpt>
      <trkpt lat="42.37629" lon="2.19514">
        <ele>1528.7</ele>
        <time>2024-09-25T10:27:05Z</time>
      </trkpt>
      <trkpt lat="42.37629" lon="2.19514">
        <ele>1528.8</ele>
        <time>2024-09-25T10:27:06Z</time>
      </trkpt>
      <trkpt lat="42.37629" lon="2.19514">
        <ele>1528.8</ele>
        <time>2024-09-25T10:27:07Z</time>
      </trkpt>
      <trkpt lat="42.37629" lon="2.19514">
        <ele>1528.8</ele>
        <time>2024-09-25T10:27:08Z</time>
      </trkpt>
      <trkpt lat="42.37629" lon="2.19514">
        <ele>1528.8</ele>
        <time>2024-09-25T10:27:09Z</time>
      </trkpt>
      <trkpt lat="42.37629" lon="2.19514">
        <ele>1528.8</ele>
        <time>2024-09-25T10:27:10Z</time>
      </trkpt>
      <trkpt lat="42.37629" lon="2.19514">
        <ele>1528.9</ele>
        <time>2024-09-25T10:27:11Z</time>
      </trkpt>
      <trkpt lat="42.37629" lon="2.19514">
        <ele>1528.9</ele>
        <time>2024-09-25T10:27:12Z</time>
      </trkpt>
      <trkpt lat="42.37629" lon="2.19514">
        <ele>1528.9</ele>
        <time>2024-09-25T10:27:13Z</time>
      </trkpt>
      <trkpt lat="42.37629" lon="2.19515">
        <ele>1529</ele>
        <time>2024-09-25T10:27:14Z</time>
      </trkpt>
      <trkpt lat="42.3763" lon="2.19515">
        <ele>1529.1</ele>
        <time>2024-09-25T10:27:15Z</time>
      </trkpt>
      <trkpt lat="42.3763" lon="2.19515">
        <ele>1529.1</ele>
        <time>2024-09-25T10:27:16Z</time>
      </trkpt>
      <trkpt lat="42.3763" lon="2.19515">
        <ele>1529.2</ele>
        <time>2024-09-25T10:27:17Z</time>
      </trkpt>
      <trkpt lat="42.3763" lon="2.19515">
        <ele>1529.2</ele>
        <time>2024-09-25T10:27:18Z</time>
      </trkpt>
      <trkpt lat="42.3763" lon="2.19515">
        <ele>1529.2</ele>
        <time>2024-09-25T10:27:19Z</time>
      </trkpt>
      <trkpt lat="42.3763" lon="2.19515">
        <ele>1529.2</ele>
        <time>2024-09-25T10:27:20Z</time>
      </trkpt>
      <trkpt lat="42.3763" lon="2.19515">
        <ele>1529.2</ele>
        <time>2024-09-25T10:27:21Z</time>
      </trkpt>
      <trkpt lat="42.3763" lon="2.19515">
        <ele>1529.2</ele>
        <time>2024-09-25T10:27:22Z</time>
      </trkpt>
      <trkpt lat="42.3763" lon="2.19515">
        <ele>1529.2</ele>
        <time>2024-09-25T10:27:23Z</time>
      </trkpt>
      <trkpt lat="42.3763" lon="2.19515">
        <ele>1529.2</ele>
        <time>2024-09-25T10:27:24Z</time>
      </trkpt>
      <trkpt lat="42.3763" lon="2.19515">
        <ele>1529.2</ele>
        <time>2024-09-25T10:27:25Z</time>
      </trkpt>
      <trkpt lat="42.3763" lon="2.19515">
        <ele>1529.2</ele>
        <time>2024-09-25T10:27:26Z</time>
      </trkpt>
      <trkpt lat="42.3763" lon="2.19515">
        <ele>1529.2</ele>
        <time>2024-09-25T10:27:27Z</time>
      </trkpt>
      <trkpt lat="42.3763" lon="2.19515">
        <ele>1529.2</ele>
        <time>2024-09-25T10:27:28Z</time>
      </trkpt>
      <trkpt lat="42.3763" lon="2.19515">
        <ele>1529.3</ele>
        <time>2024-09-25T10:27:29Z</time>
      </trkpt>
      <trkpt lat="42.3763" lon="2.19514">
        <ele>1529.4</ele>
        <time>2024-09-25T10:27:30Z</time>
      </trkpt>
      <trkpt lat="42.3763" lon="2.19514">
        <ele>1529.4</ele>
        <time>2024-09-25T10:27:31Z</time>
      </trkpt>
      <trkpt lat="42.3763" lon="2.19514">
        <ele>1529.4</ele>
        <time>2024-09-25T10:27:32Z</time>
      </trkpt>
      <trkpt lat="42.3763" lon="2.19513">
        <ele>1529.5</ele>
        <time>2024-09-25T10:27:33Z</time>
      </trkpt>
      <trkpt lat="42.3763" lon="2.19513">
        <ele>1529.5</ele>
        <time>2024-09-25T10:27:34Z</time>
      </trkpt>
      <trkpt lat="42.3763" lon="2.19513">
        <ele>1529.5</ele>
        <time>2024-09-25T10:27:35Z</time>
      </trkpt>
      <trkpt lat="42.3763" lon="2.19513">
        <ele>1529.5</ele>
        <time>2024-09-25T10:27:36Z</time>
      </trkpt>
      <trkpt lat="42.3763" lon="2.19513">
        <ele>1529.5</ele>
        <time>2024-09-25T10:27:37Z</time>
      </trkpt>
      <trkpt lat="42.3763" lon="2.19513">
        <ele>1529.5</ele>
        <time>2024-09-25T10:27:38Z</time>
      </trkpt>
      <trkpt lat="42.3763" lon="2.19513">
        <ele>1529.5</ele>
        <time>2024-09-25T10:27:39Z</time>
      </trkpt>
      <trkpt lat="42.3763" lon="2.19513">
        <ele>1529.5</ele>
        <time>2024-09-25T10:27:40Z</time>
      </trkpt>
      <trkpt lat="42.3763" lon="2.19513">
        <ele>1529.5</ele>
        <time>2024-09-25T10:27:41Z</time>
      </trkpt>
      <trkpt lat="42.3763" lon="2.19513">
        <ele>1529.5</ele>
        <time>2024-09-25T10:27:42Z</time>
      </trkpt>
      <trkpt lat="42.3763" lon="2.19513">
        <ele>1529.5</ele>
        <time>2024-09-25T10:27:43Z</time>
      </trkpt>
      <trkpt lat="42.3763" lon="2.19513">
        <ele>1529.5</ele>
        <time>2024-09-25T10:27:44Z</time>
      </trkpt>
      <trkpt lat="42.3763" lon="2.19513">
        <ele>1529.5</ele>
        <time>2024-09-25T10:27:45Z</time>
      </trkpt>
      <trkpt lat="42.3763" lon="2.19513">
        <ele>1529.5</ele>
        <time>2024-09-25T10:27:46Z</time>
      </trkpt>
      <trkpt lat="42.3763" lon="2.19513">
        <ele>1529.5</ele>
        <time>2024-09-25T10:27:47Z</time>
      </trkpt>
      <trkpt lat="42.3763" lon="2.19513">
        <ele>1529.5</ele>
        <time>2024-09-25T10:27:48Z</time>
      </trkpt>
      <trkpt lat="42.3763" lon="2.19513">
        <ele>1529.5</ele>
        <time>2024-09-25T10:27:49Z</time>
      </trkpt>
      <trkpt lat="42.3763" lon="2.19513">
        <ele>1529.5</ele>
        <time>2024-09-25T10:27:50Z</time>
      </trkpt>
      <trkpt lat="42.3763" lon="2.19513">
        <ele>1529.5</ele>
        <time>2024-09-25T10:27:51Z</time>
      </trkpt>
      <trkpt lat="42.3763" lon="2.19513">
        <ele>1529.5</ele>
        <time>2024-09-25T10:27:52Z</time>
      </trkpt>
      <trkpt lat="42.3763" lon="2.19513">
        <ele>1529.5</ele>
        <time>2024-09-25T10:27:53Z</time>
      </trkpt>
      <trkpt lat="42.3763" lon="2.19513">
        <ele>1529.5</ele>
        <time>2024-09-25T10:27:54Z</time>
      </trkpt>
      <trkpt lat="42.3763" lon="2.19513">
        <ele>1529.5</ele>
        <time>2024-09-25T10:27:55Z</time>
      </trkpt>
      <trkpt lat="42.3763" lon="2.19513">
        <ele>1529.5</ele>
        <time>2024-09-25T10:27:56Z</time>
      </trkpt>
      <trkpt lat="42.3763" lon="2.19513">
        <ele>1529.5</ele>
        <time>2024-09-25T10:27:57Z</time>
      </trkpt>
      <trkpt lat="42.3763" lon="2.19513">
        <ele>1529.5</ele>
        <time>2024-09-25T10:27:58Z</time>
      </trkpt>
      <trkpt lat="42.3763" lon="2.19513">
        <ele>1529.5</ele>
        <time>2024-09-25T10:27:59Z</time>
      </trkpt>
      <trkpt lat="42.3763" lon="2.19513">
        <ele>1529.5</ele>
        <time>2024-09-25T10:28:00Z</time>
      </trkpt>
      <trkpt lat="42.3763" lon="2.19513">
        <ele>1529.5</ele>
        <time>2024-09-25T10:28:01Z</time>
      </trkpt>
      <trkpt lat="42.3763" lon="2.19513">
        <ele>1529.5</ele>
        <time>2024-09-25T10:28:02Z</time>
      </trkpt>
      <trkpt lat="42.3763" lon="2.19513">
        <ele>1529.5</ele>
        <time>2024-09-25T10:28:03Z</time>
      </trkpt>
      <trkpt lat="42.3763" lon="2.19513">
        <ele>1529.5</ele>
        <time>2024-09-25T10:28:04Z</time>
      </trkpt>
      <trkpt lat="42.3763" lon="2.19513">
        <ele>1529.5</ele>
        <time>2024-09-25T10:28:05Z</time>
      </trkpt>
      <trkpt lat="42.3763" lon="2.19513">
        <ele>1529.5</ele>
        <time>2024-09-25T10:28:06Z</time>
      </trkpt>
      <trkpt lat="42.3763" lon="2.19513">
        <ele>1529.5</ele>
        <time>2024-09-25T10:28:07Z</time>
      </trkpt>
      <trkpt lat="42.3763" lon="2.19513">
        <ele>1529.5</ele>
        <time>2024-09-25T10:28:08Z</time>
      </trkpt>
      <trkpt lat="42.3763" lon="2.19513">
        <ele>1529.5</ele>
        <time>2024-09-25T10:28:09Z</time>
      </trkpt>
      <trkpt lat="42.3763" lon="2.19513">
        <ele>1529.6</ele>
        <time>2024-09-25T10:28:10Z</time>
      </trkpt>
      <trkpt lat="42.3763" lon="2.19514">
        <ele>1529.6</ele>
        <time>2024-09-25T10:28:11Z</time>
      </trkpt>
      <trkpt lat="42.3763" lon="2.19514">
        <ele>1529.7</ele>
        <time>2024-09-25T10:28:12Z</time>
      </trkpt>
      <trkpt lat="42.37629" lon="2.19513">
        <ele>1529.8</ele>
        <time>2024-09-25T10:28:13Z</time>
      </trkpt>
      <trkpt lat="42.37629" lon="2.19513">
        <ele>1529.9</ele>
        <time>2024-09-25T10:28:14Z</time>
      </trkpt>
      <trkpt lat="42.37629" lon="2.19513">
        <ele>1529.9</ele>
        <time>2024-09-25T10:28:15Z</time>
      </trkpt>
      <trkpt lat="42.37629" lon="2.19513">
        <ele>1529.9</ele>
        <time>2024-09-25T10:28:16Z</time>
      </trkpt>
      <trkpt lat="42.37629" lon="2.19513">
        <ele>1530</ele>
        <time>2024-09-25T10:28:17Z</time>
      </trkpt>
      <trkpt lat="42.3763" lon="2.19512">
        <ele>1530.1</ele>
        <time>2024-09-25T10:28:18Z</time>
      </trkpt>
      <trkpt lat="42.3763" lon="2.19512">
        <ele>1530.2</ele>
        <time>2024-09-25T10:28:19Z</time>
      </trkpt>
      <trkpt lat="42.3763" lon="2.19512">
        <ele>1530.3</ele>
        <time>2024-09-25T10:28:20Z</time>
      </trkpt>
      <trkpt lat="42.37631" lon="2.19512">
        <ele>1530.3</ele>
        <time>2024-09-25T10:28:21Z</time>
      </trkpt>
      <trkpt lat="42.37631" lon="2.19512">
        <ele>1530.4</ele>
        <time>2024-09-25T10:28:22Z</time>
      </trkpt>
      <trkpt lat="42.37631" lon="2.19512">
        <ele>1530.4</ele>
        <time>2024-09-25T10:28:23Z</time>
      </trkpt>
      <trkpt lat="42.37631" lon="2.19512">
        <ele>1530.4</ele>
        <time>2024-09-25T10:28:24Z</time>
      </trkpt>
      <trkpt lat="42.37631" lon="2.19512">
        <ele>1530.4</ele>
        <time>2024-09-25T10:28:25Z</time>
      </trkpt>
      <trkpt lat="42.37631" lon="2.19512">
        <ele>1530.5</ele>
        <time>2024-09-25T10:28:26Z</time>
      </trkpt>
      <trkpt lat="42.37631" lon="2.19512">
        <ele>1530.6</ele>
        <time>2024-09-25T10:28:27Z</time>
      </trkpt>
      <trkpt lat="42.37631" lon="2.19513">
        <ele>1530.6</ele>
        <time>2024-09-25T10:28:28Z</time>
      </trkpt>
      <trkpt lat="42.37631" lon="2.19513">
        <ele>1530.6</ele>
        <time>2024-09-25T10:28:29Z</time>
      </trkpt>
      <trkpt lat="42.37631" lon="2.19513">
        <ele>1530.7</ele>
        <time>2024-09-25T10:28:30Z</time>
      </trkpt>
      <trkpt lat="42.37631" lon="2.19513">
        <ele>1530.8</ele>
        <time>2024-09-25T10:28:31Z</time>
      </trkpt>
      <trkpt lat="42.37631" lon="2.19513">
        <ele>1530.8</ele>
        <time>2024-09-25T10:28:32Z</time>
      </trkpt>
      <trkpt lat="42.3763" lon="2.19513">
        <ele>1530.8</ele>
        <time>2024-09-25T10:28:33Z</time>
      </trkpt>
      <trkpt lat="42.3763" lon="2.19513">
        <ele>1530.9</ele>
        <time>2024-09-25T10:28:34Z</time>
      </trkpt>
      <trkpt lat="42.3763" lon="2.19513">
        <ele>1530.9</ele>
        <time>2024-09-25T10:28:35Z</time>
      </trkpt>
      <trkpt lat="42.3763" lon="2.19513">
        <ele>1530.9</ele>
        <time>2024-09-25T10:28:36Z</time>
      </trkpt>
      <trkpt lat="42.3763" lon="2.19513">
        <ele>1530.9</ele>
        <time>2024-09-25T10:28:37Z</time>
      </trkpt>
      <trkpt lat="42.3763" lon="2.19512">
        <ele>1530.9</ele>
        <time>2024-09-25T10:28:38Z</time>
      </trkpt>
      <trkpt lat="42.3763" lon="2.19512">
        <ele>1530.9</ele>
        <time>2024-09-25T10:28:39Z</time>
      </trkpt>
      <trkpt lat="42.3763" lon="2.19512">
        <ele>1531</ele>
        <time>2024-09-25T10:28:40Z</time>
      </trkpt>
      <trkpt lat="42.3763" lon="2.19512">
        <ele>1531</ele>
        <time>2024-09-25T10:28:41Z</time>
      </trkpt>
      <trkpt lat="42.3763" lon="2.19512">
        <ele>1531</ele>
        <time>2024-09-25T10:28:42Z</time>
      </trkpt>
      <trkpt lat="42.3763" lon="2.19513">
        <ele>1531</ele>
        <time>2024-09-25T10:28:43Z</time>
      </trkpt>
      <trkpt lat="42.3763" lon="2.19513">
        <ele>1531</ele>
        <time>2024-09-25T10:28:44Z</time>
      </trkpt>
      <trkpt lat="42.3763" lon="2.19513">
        <ele>1531</ele>
        <time>2024-09-25T10:28:45Z</time>
      </trkpt>
      <trkpt lat="42.3763" lon="2.19513">
        <ele>1531</ele>
        <time>2024-09-25T10:28:46Z</time>
      </trkpt>
      <trkpt lat="42.3763" lon="2.19512">
        <ele>1531</ele>
        <time>2024-09-25T10:28:47Z</time>
      </trkpt>
      <trkpt lat="42.3763" lon="2.19512">
        <ele>1531</ele>
        <time>2024-09-25T10:28:48Z</time>
      </trkpt>
      <trkpt lat="42.3763" lon="2.19512">
        <ele>1531.1</ele>
        <time>2024-09-25T10:28:49Z</time>
      </trkpt>
      <trkpt lat="42.3763" lon="2.19512">
        <ele>1531.1</ele>
        <time>2024-09-25T10:28:50Z</time>
      </trkpt>
      <trkpt lat="42.3763" lon="2.19512">
        <ele>1531.1</ele>
        <time>2024-09-25T10:28:51Z</time>
      </trkpt>
      <trkpt lat="42.3763" lon="2.19512">
        <ele>1531.1</ele>
        <time>2024-09-25T10:28:52Z</time>
      </trkpt>
      <trkpt lat="42.3763" lon="2.19512">
        <ele>1531.1</ele>
        <time>2024-09-25T10:28:53Z</time>
      </trkpt>
      <trkpt lat="42.3763" lon="2.19512">
        <ele>1531.1</ele>
        <time>2024-09-25T10:28:54Z</time>
      </trkpt>
      <trkpt lat="42.3763" lon="2.19512">
        <ele>1531.1</ele>
        <time>2024-09-25T10:28:55Z</time>
      </trkpt>
      <trkpt lat="42.3763" lon="2.19512">
        <ele>1531.2</ele>
        <time>2024-09-25T10:28:56Z</time>
      </trkpt>
      <trkpt lat="42.3763" lon="2.19511">
        <ele>1531.3</ele>
        <time>2024-09-25T10:28:57Z</time>
      </trkpt>
      <trkpt lat="42.3763" lon="2.19511">
        <ele>1531.3</ele>
        <time>2024-09-25T10:28:58Z</time>
      </trkpt>
      <trkpt lat="42.3763" lon="2.19512">
        <ele>1531.4</ele>
        <time>2024-09-25T10:28:59Z</time>
      </trkpt>
      <trkpt lat="42.3763" lon="2.19513">
        <ele>1531.6</ele>
        <time>2024-09-25T10:29:00Z</time>
      </trkpt>
      <trkpt lat="42.3763" lon="2.19513">
        <ele>1531.6</ele>
        <time>2024-09-25T10:29:01Z</time>
      </trkpt>
      <trkpt lat="42.3763" lon="2.19513">
        <ele>1531.7</ele>
        <time>2024-09-25T10:29:02Z</time>
      </trkpt>
      <trkpt lat="42.3763" lon="2.19513">
        <ele>1531.7</ele>
        <time>2024-09-25T10:29:03Z</time>
      </trkpt>
      <trkpt lat="42.3763" lon="2.19514">
        <ele>1531.8</ele>
        <time>2024-09-25T10:29:04Z</time>
      </trkpt>
      <trkpt lat="42.37631" lon="2.19514">
        <ele>1531.9</ele>
        <time>2024-09-25T10:29:05Z</time>
      </trkpt>
      <trkpt lat="42.37631" lon="2.19514">
        <ele>1531.9</ele>
        <time>2024-09-25T10:29:06Z</time>
      </trkpt>
      <trkpt lat="42.37631" lon="2.19514">
        <ele>1532</ele>
        <time>2024-09-25T10:29:07Z</time>
      </trkpt>
      <trkpt lat="42.37631" lon="2.19514">
        <ele>1532</ele>
        <time>2024-09-25T10:29:08Z</time>
      </trkpt>
      <trkpt lat="42.37631" lon="2.19514">
        <ele>1532</ele>
        <time>2024-09-25T10:29:09Z</time>
      </trkpt>
      <trkpt lat="42.3763" lon="2.19514">
        <ele>1532.1</ele>
        <time>2024-09-25T10:29:10Z</time>
      </trkpt>
      <trkpt lat="42.3763" lon="2.19514">
        <ele>1532.1</ele>
        <time>2024-09-25T10:29:11Z</time>
      </trkpt>
      <trkpt lat="42.3763" lon="2.19514">
        <ele>1532.2</ele>
        <time>2024-09-25T10:29:12Z</time>
      </trkpt>
      <trkpt lat="42.3763" lon="2.19513">
        <ele>1532.2</ele>
        <time>2024-09-25T10:29:13Z</time>
      </trkpt>
      <trkpt lat="42.3763" lon="2.19513">
        <ele>1532.2</ele>
        <time>2024-09-25T10:29:14Z</time>
      </trkpt>
      <trkpt lat="42.3763" lon="2.19513">
        <ele>1532.3</ele>
        <time>2024-09-25T10:29:15Z</time>
      </trkpt>
      <trkpt lat="42.3763" lon="2.19513">
        <ele>1532.3</ele>
        <time>2024-09-25T10:29:16Z</time>
      </trkpt>
      <trkpt lat="42.3763" lon="2.19512">
        <ele>1532.3</ele>
        <time>2024-09-25T10:29:17Z</time>
      </trkpt>
      <trkpt lat="42.3763" lon="2.19512">
        <ele>1532.4</ele>
        <time>2024-09-25T10:29:18Z</time>
      </trkpt>
      <trkpt lat="42.37631" lon="2.19512">
        <ele>1532.5</ele>
        <time>2024-09-25T10:29:19Z</time>
      </trkpt>
      <trkpt lat="42.37631" lon="2.19512">
        <ele>1532.5</ele>
        <time>2024-09-25T10:29:20Z</time>
      </trkpt>
      <trkpt lat="42.37632" lon="2.19512">
        <ele>1532.6</ele>
        <time>2024-09-25T10:29:21Z</time>
      </trkpt>
      <trkpt lat="42.37632" lon="2.19512">
        <ele>1532.8</ele>
        <time>2024-09-25T10:29:22Z</time>
      </trkpt>
      <trkpt lat="42.37633" lon="2.19511">
        <ele>1532.9</ele>
        <time>2024-09-25T10:29:23Z</time>
      </trkpt>
      <trkpt lat="42.37634" lon="2.19511">
        <ele>1533.1</ele>
        <time>2024-09-25T10:29:24Z</time>
      </trkpt>
      <trkpt lat="42.37634" lon="2.19511">
        <ele>1533.2</ele>
        <time>2024-09-25T10:29:25Z</time>
      </trkpt>
      <trkpt lat="42.37635" lon="2.19511">
        <ele>1533.3</ele>
        <time>2024-09-25T10:29:26Z</time>
      </trkpt>
      <trkpt lat="42.37636" lon="2.1951">
        <ele>1533.5</ele>
        <time>2024-09-25T10:29:27Z</time>
      </trkpt>
      <trkpt lat="42.37637" lon="2.19511">
        <ele>1533.7</ele>
        <time>2024-09-25T10:29:28Z</time>
      </trkpt>
      <trkpt lat="42.37638" lon="2.19511">
        <ele>1533.8</ele>
        <time>2024-09-25T10:29:29Z</time>
      </trkpt>
      <trkpt lat="42.37639" lon="2.19511">
        <ele>1533.9</ele>
        <time>2024-09-25T10:29:30Z</time>
      </trkpt>
      <trkpt lat="42.3764" lon="2.19511">
        <ele>1534.1</ele>
        <time>2024-09-25T10:29:31Z</time>
      </trkpt>
      <trkpt lat="42.37641" lon="2.19511">
        <ele>1534.2</ele>
        <time>2024-09-25T10:29:32Z</time>
      </trkpt>
      <trkpt lat="42.37641" lon="2.1951">
        <ele>1534.3</ele>
        <time>2024-09-25T10:29:33Z</time>
      </trkpt>
      <trkpt lat="42.37642" lon="2.1951">
        <ele>1534.4</ele>
        <time>2024-09-25T10:29:34Z</time>
      </trkpt>
      <trkpt lat="42.37642" lon="2.1951">
        <ele>1534.5</ele>
        <time>2024-09-25T10:29:35Z</time>
      </trkpt>
      <trkpt lat="42.37643" lon="2.19511">
        <ele>1534.6</ele>
        <time>2024-09-25T10:29:36Z</time>
      </trkpt>
      <trkpt lat="42.37643" lon="2.19511">
        <ele>1534.7</ele>
        <time>2024-09-25T10:29:37Z</time>
      </trkpt>
      <trkpt lat="42.37644" lon="2.1951">
        <ele>1534.7</ele>
        <time>2024-09-25T10:29:38Z</time>
      </trkpt>
      <trkpt lat="42.37644" lon="2.1951">
        <ele>1534.8</ele>
        <time>2024-09-25T10:29:39Z</time>
      </trkpt>
      <trkpt lat="42.37644" lon="2.1951">
        <ele>1534.8</ele>
        <time>2024-09-25T10:29:40Z</time>
      </trkpt>
      <trkpt lat="42.37645" lon="2.1951">
        <ele>1534.8</ele>
        <time>2024-09-25T10:29:41Z</time>
      </trkpt>
      <trkpt lat="42.37645" lon="2.1951">
        <ele>1534.9</ele>
        <time>2024-09-25T10:29:42Z</time>
      </trkpt>
      <trkpt lat="42.37646" lon="2.1951">
        <ele>1535</ele>
        <time>2024-09-25T10:29:43Z</time>
      </trkpt>
      <trkpt lat="42.37646" lon="2.1951">
        <ele>1535.1</ele>
        <time>2024-09-25T10:29:44Z</time>
      </trkpt>
      <trkpt lat="42.37647" lon="2.1951">
        <ele>1535.2</ele>
        <time>2024-09-25T10:29:45Z</time>
      </trkpt>
      <trkpt lat="42.37648" lon="2.1951">
        <ele>1535.3</ele>
        <time>2024-09-25T10:29:46Z</time>
      </trkpt>
      <trkpt lat="42.37648" lon="2.1951">
        <ele>1535.4</ele>
        <time>2024-09-25T10:29:47Z</time>
      </trkpt>
      <trkpt lat="42.37649" lon="2.1951">
        <ele>1535.5</ele>
        <time>2024-09-25T10:29:48Z</time>
      </trkpt>
      <trkpt lat="42.3765" lon="2.1951">
        <ele>1535.6</ele>
        <time>2024-09-25T10:29:49Z</time>
      </trkpt>
      <trkpt lat="42.3765" lon="2.1951">
        <ele>1535.6</ele>
        <time>2024-09-25T10:29:50Z</time>
      </trkpt>
      <trkpt lat="42.37651" lon="2.1951">
        <ele>1535.7</ele>
        <time>2024-09-25T10:29:51Z</time>
      </trkpt>
      <trkpt lat="42.37651" lon="2.1951">
        <ele>1535.7</ele>
        <time>2024-09-25T10:29:52Z</time>
      </trkpt>
      <trkpt lat="42.37651" lon="2.1951">
        <ele>1535.8</ele>
        <time>2024-09-25T10:29:53Z</time>
      </trkpt>
      <trkpt lat="42.37652" lon="2.1951">
        <ele>1535.8</ele>
        <time>2024-09-25T10:29:54Z</time>
      </trkpt>
      <trkpt lat="42.37652" lon="2.1951">
        <ele>1535.9</ele>
        <time>2024-09-25T10:29:55Z</time>
      </trkpt>
      <trkpt lat="42.37652" lon="2.1951">
        <ele>1535.9</ele>
        <time>2024-09-25T10:29:56Z</time>
      </trkpt>
      <trkpt lat="42.37653" lon="2.1951">
        <ele>1536</ele>
        <time>2024-09-25T10:29:57Z</time>
      </trkpt>
      <trkpt lat="42.37653" lon="2.19511">
        <ele>1536</ele>
        <time>2024-09-25T10:29:58Z</time>
      </trkpt>
      <trkpt lat="42.37654" lon="2.19511">
        <ele>1536.1</ele>
        <time>2024-09-25T10:29:59Z</time>
      </trkpt>
      <trkpt lat="42.37654" lon="2.19511">
        <ele>1536.1</ele>
        <time>2024-09-25T10:30:00Z</time>
      </trkpt>
      <trkpt lat="42.37654" lon="2.19512">
        <ele>1536.2</ele>
        <time>2024-09-25T10:30:01Z</time>
      </trkpt>
      <trkpt lat="42.37655" lon="2.19513">
        <ele>1536.3</ele>
        <time>2024-09-25T10:30:02Z</time>
      </trkpt>
      <trkpt lat="42.37655" lon="2.19513">
        <ele>1536.3</ele>
        <time>2024-09-25T10:30:03Z</time>
      </trkpt>
      <trkpt lat="42.37655" lon="2.19514">
        <ele>1536.4</ele>
        <time>2024-09-25T10:30:04Z</time>
      </trkpt>
      <trkpt lat="42.37656" lon="2.19514">
        <ele>1536.4</ele>
        <time>2024-09-25T10:30:05Z</time>
      </trkpt>
      <trkpt lat="42.37656" lon="2.19515">
        <ele>1536.5</ele>
        <time>2024-09-25T10:30:06Z</time>
      </trkpt>
      <trkpt lat="42.37656" lon="2.19517">
        <ele>1536.7</ele>
        <time>2024-09-25T10:30:07Z</time>
      </trkpt>
      <trkpt lat="42.37656" lon="2.19518">
        <ele>1536.8</ele>
        <time>2024-09-25T10:30:08Z</time>
      </trkpt>
      <trkpt lat="42.37657" lon="2.1952">
        <ele>1536.9</ele>
        <time>2024-09-25T10:30:09Z</time>
      </trkpt>
      <trkpt lat="42.37657" lon="2.19521">
        <ele>1537</ele>
        <time>2024-09-25T10:30:10Z</time>
      </trkpt>
      <trkpt lat="42.37657" lon="2.19523">
        <ele>1537.1</ele>
        <time>2024-09-25T10:30:11Z</time>
      </trkpt>
      <trkpt lat="42.37658" lon="2.19524">
        <ele>1537.2</ele>
        <time>2024-09-25T10:30:12Z</time>
      </trkpt>
      <trkpt lat="42.37658" lon="2.19524">
        <ele>1537.2</ele>
        <time>2024-09-25T10:30:13Z</time>
      </trkpt>
      <trkpt lat="42.37658" lon="2.19525">
        <ele>1537.3</ele>
        <time>2024-09-25T10:30:14Z</time>
      </trkpt>
      <trkpt lat="42.37658" lon="2.19526">
        <ele>1537.3</ele>
        <time>2024-09-25T10:30:15Z</time>
      </trkpt>
      <trkpt lat="42.37657" lon="2.19525">
        <ele>1537.4</ele>
        <time>2024-09-25T10:30:16Z</time>
      </trkpt>
      <trkpt lat="42.37657" lon="2.19525">
        <ele>1537.4</ele>
        <time>2024-09-25T10:30:17Z</time>
      </trkpt>
      <trkpt lat="42.37657" lon="2.19526">
        <ele>1537.4</ele>
        <time>2024-09-25T10:30:18Z</time>
      </trkpt>
      <trkpt lat="42.37656" lon="2.19526">
        <ele>1537.5</ele>
        <time>2024-09-25T10:30:19Z</time>
      </trkpt>
      <trkpt lat="42.37656" lon="2.19527">
        <ele>1537.6</ele>
        <time>2024-09-25T10:30:20Z</time>
      </trkpt>
      <trkpt lat="42.37655" lon="2.19527">
        <ele>1537.6</ele>
        <time>2024-09-25T10:30:21Z</time>
      </trkpt>
      <trkpt lat="42.37655" lon="2.19528">
        <ele>1537.7</ele>
        <time>2024-09-25T10:30:22Z</time>
      </trkpt>
      <trkpt lat="42.37655" lon="2.19528">
        <ele>1537.7</ele>
        <time>2024-09-25T10:30:23Z</time>
      </trkpt>
      <trkpt lat="42.37655" lon="2.19528">
        <ele>1537.7</ele>
        <time>2024-09-25T10:30:24Z</time>
      </trkpt>
      <trkpt lat="42.37654" lon="2.19528">
        <ele>1537.7</ele>
        <time>2024-09-25T10:30:25Z</time>
      </trkpt>
      <trkpt lat="42.37654" lon="2.19528">
        <ele>1537.8</ele>
        <time>2024-09-25T10:30:26Z</time>
      </trkpt>
      <trkpt lat="42.37654" lon="2.19529">
        <ele>1537.8</ele>
        <time>2024-09-25T10:30:27Z</time>
      </trkpt>
      <trkpt lat="42.37654" lon="2.1953">
        <ele>1537.9</ele>
        <time>2024-09-25T10:30:28Z</time>
      </trkpt>
      <trkpt lat="42.37654" lon="2.1953">
        <ele>1537.9</ele>
        <time>2024-09-25T10:30:29Z</time>
      </trkpt>
      <trkpt lat="42.37654" lon="2.19531">
        <ele>1537.9</ele>
        <time>2024-09-25T10:30:30Z</time>
      </trkpt>
      <trkpt lat="42.37654" lon="2.19532">
        <ele>1538</ele>
        <time>2024-09-25T10:30:31Z</time>
      </trkpt>
      <trkpt lat="42.37654" lon="2.19533">
        <ele>1538</ele>
        <time>2024-09-25T10:30:32Z</time>
      </trkpt>
      <trkpt lat="42.37654" lon="2.19533">
        <ele>1538</ele>
        <time>2024-09-25T10:30:33Z</time>
      </trkpt>
      <trkpt lat="42.37654" lon="2.19533">
        <ele>1538.1</ele>
        <time>2024-09-25T10:30:34Z</time>
      </trkpt>
      <trkpt lat="42.37654" lon="2.19533">
        <ele>1538.1</ele>
        <time>2024-09-25T10:30:35Z</time>
      </trkpt>
      <trkpt lat="42.37654" lon="2.19533">
        <ele>1538.1</ele>
        <time>2024-09-25T10:30:36Z</time>
      </trkpt>
      <trkpt lat="42.37654" lon="2.19533">
        <ele>1538.1</ele>
        <time>2024-09-25T10:30:37Z</time>
      </trkpt>
      <trkpt lat="42.37654" lon="2.19533">
        <ele>1538.1</ele>
        <time>2024-09-25T10:30:38Z</time>
      </trkpt>
      <trkpt lat="42.37655" lon="2.19533">
        <ele>1538.1</ele>
        <time>2024-09-25T10:30:39Z</time>
      </trkpt>
      <trkpt lat="42.37654" lon="2.19533">
        <ele>1538.1</ele>
        <time>2024-09-25T10:30:40Z</time>
      </trkpt>
      <trkpt lat="42.37654" lon="2.19533">
        <ele>1538.1</ele>
        <time>2024-09-25T10:30:41Z</time>
      </trkpt>
      <trkpt lat="42.37654" lon="2.19534">
        <ele>1538.2</ele>
        <time>2024-09-25T10:30:42Z</time>
      </trkpt>
      <trkpt lat="42.37654" lon="2.19534">
        <ele>1538.2</ele>
        <time>2024-09-25T10:30:43Z</time>
      </trkpt>
      <trkpt lat="42.37654" lon="2.19534">
        <ele>1538.2</ele>
        <time>2024-09-25T10:30:44Z</time>
      </trkpt>
      <trkpt lat="42.37654" lon="2.19535">
        <ele>1538.2</ele>
        <time>2024-09-25T10:30:45Z</time>
      </trkpt>
      <trkpt lat="42.37654" lon="2.19535">
        <ele>1538.3</ele>
        <time>2024-09-25T10:30:46Z</time>
      </trkpt>
      <trkpt lat="42.37654" lon="2.19535">
        <ele>1538.3</ele>
        <time>2024-09-25T10:30:47Z</time>
      </trkpt>
      <trkpt lat="42.37654" lon="2.19535">
        <ele>1538.3</ele>
        <time>2024-09-25T10:30:48Z</time>
      </trkpt>
      <trkpt lat="42.37654" lon="2.19535">
        <ele>1538.3</ele>
        <time>2024-09-25T10:30:49Z</time>
      </trkpt>
      <trkpt lat="42.37654" lon="2.19536">
        <ele>1538.3</ele>
        <time>2024-09-25T10:30:50Z</time>
      </trkpt>
      <trkpt lat="42.37654" lon="2.19536">
        <ele>1538.3</ele>
        <time>2024-09-25T10:30:51Z</time>
      </trkpt>
      <trkpt lat="42.37654" lon="2.19539">
        <ele>1538.5</ele>
        <time>2024-09-25T10:30:52Z</time>
      </trkpt>
      <trkpt lat="42.37654" lon="2.19541">
        <ele>1538.6</ele>
        <time>2024-09-25T10:30:53Z</time>
      </trkpt>
      <trkpt lat="42.37654" lon="2.19542">
        <ele>1538.7</ele>
        <time>2024-09-25T10:30:54Z</time>
      </trkpt>
      <trkpt lat="42.37654" lon="2.19543">
        <ele>1538.7</ele>
        <time>2024-09-25T10:30:55Z</time>
      </trkpt>
      <trkpt lat="42.37654" lon="2.19543">
        <ele>1538.7</ele>
        <time>2024-09-25T10:30:56Z</time>
      </trkpt>
      <trkpt lat="42.37654" lon="2.19544">
        <ele>1538.8</ele>
        <time>2024-09-25T10:30:57Z</time>
      </trkpt>
      <trkpt lat="42.37654" lon="2.19544">
        <ele>1538.8</ele>
        <time>2024-09-25T10:30:58Z</time>
      </trkpt>
      <trkpt lat="42.37654" lon="2.19544">
        <ele>1538.8</ele>
        <time>2024-09-25T10:30:59Z</time>
      </trkpt>
      <trkpt lat="42.37654" lon="2.19544">
        <ele>1538.8</ele>
        <time>2024-09-25T10:31:00Z</time>
      </trkpt>
      <trkpt lat="42.37654" lon="2.19544">
        <ele>1538.8</ele>
        <time>2024-09-25T10:31:01Z</time>
      </trkpt>
      <trkpt lat="42.37654" lon="2.19544">
        <ele>1538.8</ele>
        <time>2024-09-25T10:31:02Z</time>
      </trkpt>
      <trkpt lat="42.37654" lon="2.19544">
        <ele>1538.8</ele>
        <time>2024-09-25T10:31:03Z</time>
      </trkpt>
      <trkpt lat="42.37654" lon="2.19544">
        <ele>1538.8</ele>
        <time>2024-09-25T10:31:04Z</time>
      </trkpt>
      <trkpt lat="42.37654" lon="2.19544">
        <ele>1538.8</ele>
        <time>2024-09-25T10:31:05Z</time>
      </trkpt>
      <trkpt lat="42.37654" lon="2.19544">
        <ele>1538.8</ele>
        <time>2024-09-25T10:31:06Z</time>
      </trkpt>
      <trkpt lat="42.37654" lon="2.19544">
        <ele>1538.8</ele>
        <time>2024-09-25T10:31:07Z</time>
      </trkpt>
      <trkpt lat="42.37654" lon="2.19544">
        <ele>1538.8</ele>
        <time>2024-09-25T10:31:08Z</time>
      </trkpt>
      <trkpt lat="42.37653" lon="2.19543">
        <ele>1538.9</ele>
        <time>2024-09-25T10:31:09Z</time>
      </trkpt>
      <trkpt lat="42.37653" lon="2.19543">
        <ele>1538.9</ele>
        <time>2024-09-25T10:31:10Z</time>
      </trkpt>
      <trkpt lat="42.37653" lon="2.19543">
        <ele>1538.9</ele>
        <time>2024-09-25T10:31:11Z</time>
      </trkpt>
      <trkpt lat="42.37654" lon="2.19543">
        <ele>1538.9</ele>
        <time>2024-09-25T10:31:12Z</time>
      </trkpt>
      <trkpt lat="42.37654" lon="2.19544">
        <ele>1538.9</ele>
        <time>2024-09-25T10:31:13Z</time>
      </trkpt>
      <trkpt lat="42.37654" lon="2.19544">
        <ele>1538.9</ele>
        <time>2024-09-25T10:31:14Z</time>
      </trkpt>
      <trkpt lat="42.37654" lon="2.19544">
        <ele>1539</ele>
        <time>2024-09-25T10:31:15Z</time>
      </trkpt>
      <trkpt lat="42.37654" lon="2.19545">
        <ele>1539</ele>
        <time>2024-09-25T10:31:16Z</time>
      </trkpt>
      <trkpt lat="42.37654" lon="2.19545">
        <ele>1539</ele>
        <time>2024-09-25T10:31:17Z</time>
      </trkpt>
      <trkpt lat="42.37654" lon="2.19545">
        <ele>1539</ele>
        <time>2024-09-25T10:31:18Z</time>
      </trkpt>
      <trkpt lat="42.37654" lon="2.19545">
        <ele>1539</ele>
        <time>2024-09-25T10:31:19Z</time>
      </trkpt>
      <trkpt lat="42.37654" lon="2.19545">
        <ele>1539</ele>
        <time>2024-09-25T10:31:20Z</time>
      </trkpt>
      <trkpt lat="42.37654" lon="2.19545">
        <ele>1539</ele>
        <time>2024-09-25T10:31:21Z</time>
      </trkpt>
      <trkpt lat="42.37654" lon="2.19545">
        <ele>1539.1</ele>
        <time>2024-09-25T10:31:22Z</time>
      </trkpt>
      <trkpt lat="42.37654" lon="2.19545">
        <ele>1539.1</ele>
        <time>2024-09-25T10:31:23Z</time>
      </trkpt>
      <trkpt lat="42.37654" lon="2.19545">
        <ele>1539.1</ele>
        <time>2024-09-25T10:31:24Z</time>
      </trkpt>
      <trkpt lat="42.37654" lon="2.19545">
        <ele>1539.1</ele>
        <time>2024-09-25T10:31:25Z</time>
      </trkpt>
      <trkpt lat="42.37654" lon="2.19546">
        <ele>1539.1</ele>
        <time>2024-09-25T10:31:26Z</time>
      </trkpt>
      <trkpt lat="42.37654" lon="2.19546">
        <ele>1539.1</ele>
        <time>2024-09-25T10:31:27Z</time>
      </trkpt>
      <trkpt lat="42.37654" lon="2.19546">
        <ele>1539.1</ele>
        <time>2024-09-25T10:31:28Z</time>
      </trkpt>
      <trkpt lat="42.37654" lon="2.19547">
        <ele>1539.2</ele>
        <time>2024-09-25T10:31:29Z</time>
      </trkpt>
      <trkpt lat="42.37654" lon="2.19547">
        <ele>1539.2</ele>
        <time>2024-09-25T10:31:30Z</time>
      </trkpt>
      <trkpt lat="42.37654" lon="2.19548">
        <ele>1539.2</ele>
        <time>2024-09-25T10:31:31Z</time>
      </trkpt>
      <trkpt lat="42.37654" lon="2.19548">
        <ele>1539.2</ele>
        <time>2024-09-25T10:31:32Z</time>
      </trkpt>
      <trkpt lat="42.37655" lon="2.1955">
        <ele>1539.3</ele>
        <time>2024-09-25T10:31:33Z</time>
      </trkpt>
      <trkpt lat="42.37656" lon="2.19551">
        <ele>1539.4</ele>
        <time>2024-09-25T10:31:34Z</time>
      </trkpt>
      <trkpt lat="42.37657" lon="2.19553">
        <ele>1539.5</ele>
        <time>2024-09-25T10:31:35Z</time>
      </trkpt>
      <trkpt lat="42.37658" lon="2.19554">
        <ele>1539.6</ele>
        <time>2024-09-25T10:31:36Z</time>
      </trkpt>
      <trkpt lat="42.37659" lon="2.19555">
        <ele>1539.7</ele>
        <time>2024-09-25T10:31:37Z</time>
      </trkpt>
      <trkpt lat="42.3766" lon="2.19557">
        <ele>1539.7</ele>
        <time>2024-09-25T10:31:38Z</time>
      </trkpt>
      <trkpt lat="42.37661" lon="2.19559">
        <ele>1539.8</ele>
        <time>2024-09-25T10:31:39Z</time>
      </trkpt>
      <trkpt lat="42.37662" lon="2.1956">
        <ele>1539.9</ele>
        <time>2024-09-25T10:31:40Z</time>
      </trkpt>
      <trkpt lat="42.37662" lon="2.1956">
        <ele>1539.9</ele>
        <time>2024-09-25T10:31:41Z</time>
      </trkpt>
      <trkpt lat="42.37663" lon="2.19562">
        <ele>1540</ele>
        <time>2024-09-25T10:31:42Z</time>
      </trkpt>
      <trkpt lat="42.37664" lon="2.19563">
        <ele>1540</ele>
        <time>2024-09-25T10:31:43Z</time>
      </trkpt>
      <trkpt lat="42.37664" lon="2.19564">
        <ele>1540</ele>
        <time>2024-09-25T10:31:44Z</time>
      </trkpt>
      <trkpt lat="42.37664" lon="2.19565">
        <ele>1540.1</ele>
        <time>2024-09-25T10:31:45Z</time>
      </trkpt>
      <trkpt lat="42.37664" lon="2.19566">
        <ele>1540.1</ele>
        <time>2024-09-25T10:31:46Z</time>
      </trkpt>
      <trkpt lat="42.37664" lon="2.19567">
        <ele>1540.1</ele>
        <time>2024-09-25T10:31:47Z</time>
      </trkpt>
      <trkpt lat="42.37665" lon="2.19568">
        <ele>1540.1</ele>
        <time>2024-09-25T10:31:48Z</time>
      </trkpt>
      <trkpt lat="42.37665" lon="2.19568">
        <ele>1540.2</ele>
        <time>2024-09-25T10:31:49Z</time>
      </trkpt>
      <trkpt lat="42.37665" lon="2.19569">
        <ele>1540.2</ele>
        <time>2024-09-25T10:31:50Z</time>
      </trkpt>
      <trkpt lat="42.37665" lon="2.19569">
        <ele>1540.2</ele>
        <time>2024-09-25T10:31:51Z</time>
      </trkpt>
      <trkpt lat="42.37665" lon="2.1957">
        <ele>1540.2</ele>
        <time>2024-09-25T10:31:52Z</time>
      </trkpt>
      <trkpt lat="42.37665" lon="2.19571">
        <ele>1540.2</ele>
        <time>2024-09-25T10:31:53Z</time>
      </trkpt>
      <trkpt lat="42.37665" lon="2.19573">
        <ele>1540.2</ele>
        <time>2024-09-25T10:31:54Z</time>
      </trkpt>
      <trkpt lat="42.37665" lon="2.19574">
        <ele>1540.3</ele>
        <time>2024-09-25T10:31:55Z</time>
      </trkpt>
      <trkpt lat="42.37665" lon="2.19576">
        <ele>1540.3</ele>
        <time>2024-09-25T10:31:56Z</time>
      </trkpt>
      <trkpt lat="42.37666" lon="2.19577">
        <ele>1540.3</ele>
        <time>2024-09-25T10:31:57Z</time>
      </trkpt>
      <trkpt lat="42.37666" lon="2.19579">
        <ele>1540.3</ele>
        <time>2024-09-25T10:31:58Z</time>
      </trkpt>
      <trkpt lat="42.37666" lon="2.1958">
        <ele>1540.3</ele>
        <time>2024-09-25T10:31:59Z</time>
      </trkpt>
      <trkpt lat="42.37666" lon="2.19582">
        <ele>1540.3</ele>
        <time>2024-09-25T10:32:00Z</time>
      </trkpt>
      <trkpt lat="42.37666" lon="2.19583">
        <ele>1540.3</ele>
        <time>2024-09-25T10:32:01Z</time>
      </trkpt>
      <trkpt lat="42.37666" lon="2.19585">
        <ele>1540.3</ele>
        <time>2024-09-25T10:32:02Z</time>
      </trkpt>
      <trkpt lat="42.37666" lon="2.19586">
        <ele>1540.3</ele>
        <time>2024-09-25T10:32:03Z</time>
      </trkpt>
      <trkpt lat="42.37667" lon="2.19587">
        <ele>1540.3</ele>
        <time>2024-09-25T10:32:04Z</time>
      </trkpt>
      <trkpt lat="42.37667" lon="2.19589">
        <ele>1540.3</ele>
        <time>2024-09-25T10:32:05Z</time>
      </trkpt>
      <trkpt lat="42.37668" lon="2.1959">
        <ele>1540.3</ele>
        <time>2024-09-25T10:32:06Z</time>
      </trkpt>
      <trkpt lat="42.37668" lon="2.19591">
        <ele>1540.3</ele>
        <time>2024-09-25T10:32:07Z</time>
      </trkpt>
      <trkpt lat="42.37668" lon="2.19593">
        <ele>1540.2</ele>
        <time>2024-09-25T10:32:08Z</time>
      </trkpt>
      <trkpt lat="42.37668" lon="2.19594">
        <ele>1540.2</ele>
        <time>2024-09-25T10:32:09Z</time>
      </trkpt>
      <trkpt lat="42.37667" lon="2.19595">
        <ele>1540.2</ele>
        <time>2024-09-25T10:32:10Z</time>
      </trkpt>
      <trkpt lat="42.37667" lon="2.19597">
        <ele>1540.2</ele>
        <time>2024-09-25T10:32:11Z</time>
      </trkpt>
      <trkpt lat="42.37667" lon="2.19598">
        <ele>1540.2</ele>
        <time>2024-09-25T10:32:12Z</time>
      </trkpt>
      <trkpt lat="42.37667" lon="2.196">
        <ele>1540.2</ele>
        <time>2024-09-25T10:32:13Z</time>
      </trkpt>
      <trkpt lat="42.37667" lon="2.19601">
        <ele>1540.2</ele>
        <time>2024-09-25T10:32:14Z</time>
      </trkpt>
      <trkpt lat="42.37667" lon="2.19603">
        <ele>1540.2</ele>
        <time>2024-09-25T10:32:15Z</time>
      </trkpt>
      <trkpt lat="42.37667" lon="2.19604">
        <ele>1540.2</ele>
        <time>2024-09-25T10:32:16Z</time>
      </trkpt>
      <trkpt lat="42.37667" lon="2.19605">
        <ele>1540.2</ele>
        <time>2024-09-25T10:32:17Z</time>
      </trkpt>
      <trkpt lat="42.37666" lon="2.19607">
        <ele>1540.2</ele>
        <time>2024-09-25T10:32:18Z</time>
      </trkpt>
      <trkpt lat="42.37666" lon="2.19607">
        <ele>1540.2</ele>
        <time>2024-09-25T10:32:19Z</time>
      </trkpt>
      <trkpt lat="42.37666" lon="2.19608">
        <ele>1540.2</ele>
        <time>2024-09-25T10:32:20Z</time>
      </trkpt>
      <trkpt lat="42.37666" lon="2.19609">
        <ele>1540.2</ele>
        <time>2024-09-25T10:32:21Z</time>
      </trkpt>
      <trkpt lat="42.37666" lon="2.1961">
        <ele>1540.2</ele>
        <time>2024-09-25T10:32:22Z</time>
      </trkpt>
      <trkpt lat="42.37665" lon="2.19612">
        <ele>1540.2</ele>
        <time>2024-09-25T10:32:23Z</time>
      </trkpt>
      <trkpt lat="42.37665" lon="2.19613">
        <ele>1540.2</ele>
        <time>2024-09-25T10:32:24Z</time>
      </trkpt>
      <trkpt lat="42.37665" lon="2.19614">
        <ele>1540.2</ele>
        <time>2024-09-25T10:32:25Z</time>
      </trkpt>
      <trkpt lat="42.37665" lon="2.19615">
        <ele>1540.2</ele>
        <time>2024-09-25T10:32:26Z</time>
      </trkpt>
      <trkpt lat="42.37664" lon="2.19616">
        <ele>1540.2</ele>
        <time>2024-09-25T10:32:27Z</time>
      </trkpt>
      <trkpt lat="42.37664" lon="2.19618">
        <ele>1540.2</ele>
        <time>2024-09-25T10:32:28Z</time>
      </trkpt>
      <trkpt lat="42.37663" lon="2.19619">
        <ele>1540.2</ele>
        <time>2024-09-25T10:32:29Z</time>
      </trkpt>
      <trkpt lat="42.37663" lon="2.1962">
        <ele>1540.2</ele>
        <time>2024-09-25T10:32:30Z</time>
      </trkpt>
      <trkpt lat="42.37662" lon="2.19621">
        <ele>1540.2</ele>
        <time>2024-09-25T10:32:31Z</time>
      </trkpt>
      <trkpt lat="42.37662" lon="2.19622">
        <ele>1540.2</ele>
        <time>2024-09-25T10:32:32Z</time>
      </trkpt>
      <trkpt lat="42.37661" lon="2.19622">
        <ele>1540.2</ele>
        <time>2024-09-25T10:32:33Z</time>
      </trkpt>
      <trkpt lat="42.37661" lon="2.19623">
        <ele>1540.2</ele>
        <time>2024-09-25T10:32:34Z</time>
      </trkpt>
      <trkpt lat="42.3766" lon="2.19624">
        <ele>1540.2</ele>
        <time>2024-09-25T10:32:35Z</time>
      </trkpt>
      <trkpt lat="42.3766" lon="2.19624">
        <ele>1540.2</ele>
        <time>2024-09-25T10:32:36Z</time>
      </trkpt>
      <trkpt lat="42.3766" lon="2.19625">
        <ele>1540.3</ele>
        <time>2024-09-25T10:32:37Z</time>
      </trkpt>
      <trkpt lat="42.3766" lon="2.19626">
        <ele>1540.3</ele>
        <time>2024-09-25T10:32:38Z</time>
      </trkpt>
      <trkpt lat="42.37659" lon="2.19628">
        <ele>1540.3</ele>
        <time>2024-09-25T10:32:39Z</time>
      </trkpt>
      <trkpt lat="42.3766" lon="2.19629">
        <ele>1540.3</ele>
        <time>2024-09-25T10:32:40Z</time>
      </trkpt>
      <trkpt lat="42.3766" lon="2.19628">
        <ele>1540.3</ele>
        <time>2024-09-25T10:32:41Z</time>
      </trkpt>
      <trkpt lat="42.37661" lon="2.19628">
        <ele>1540.3</ele>
        <time>2024-09-25T10:32:42Z</time>
      </trkpt>
      <trkpt lat="42.37661" lon="2.19628">
        <ele>1540.3</ele>
        <time>2024-09-25T10:32:43Z</time>
      </trkpt>
      <trkpt lat="42.37661" lon="2.19628">
        <ele>1540.3</ele>
        <time>2024-09-25T10:32:44Z</time>
      </trkpt>
      <trkpt lat="42.37661" lon="2.19628">
        <ele>1540.3</ele>
        <time>2024-09-25T10:32:45Z</time>
      </trkpt>
      <trkpt lat="42.37661" lon="2.19628">
        <ele>1540.4</ele>
        <time>2024-09-25T10:32:46Z</time>
      </trkpt>
      <trkpt lat="42.37661" lon="2.1963">
        <ele>1540.4</ele>
        <time>2024-09-25T10:32:47Z</time>
      </trkpt>
      <trkpt lat="42.37661" lon="2.19632">
        <ele>1540.4</ele>
        <time>2024-09-25T10:32:48Z</time>
      </trkpt>
      <trkpt lat="42.3766" lon="2.19635">
        <ele>1540.5</ele>
        <time>2024-09-25T10:32:49Z</time>
      </trkpt>
      <trkpt lat="42.3766" lon="2.19636">
        <ele>1540.5</ele>
        <time>2024-09-25T10:32:50Z</time>
      </trkpt>
      <trkpt lat="42.37659" lon="2.19638">
        <ele>1540.6</ele>
        <time>2024-09-25T10:32:51Z</time>
      </trkpt>
      <trkpt lat="42.37659" lon="2.1964">
        <ele>1540.6</ele>
        <time>2024-09-25T10:32:52Z</time>
      </trkpt>
      <trkpt lat="42.37659" lon="2.19641">
        <ele>1540.7</ele>
        <time>2024-09-25T10:32:53Z</time>
      </trkpt>
      <trkpt lat="42.37659" lon="2.19642">
        <ele>1540.7</ele>
        <time>2024-09-25T10:32:54Z</time>
      </trkpt>
      <trkpt lat="42.37659" lon="2.19644">
        <ele>1540.7</ele>
        <time>2024-09-25T10:32:55Z</time>
      </trkpt>
      <trkpt lat="42.37658" lon="2.19645">
        <ele>1540.8</ele>
        <time>2024-09-25T10:32:56Z</time>
      </trkpt>
      <trkpt lat="42.37658" lon="2.19647">
        <ele>1540.9</ele>
        <time>2024-09-25T10:32:57Z</time>
      </trkpt>
      <trkpt lat="42.37657" lon="2.19648">
        <ele>1540.9</ele>
        <time>2024-09-25T10:32:58Z</time>
      </trkpt>
      <trkpt lat="42.37657" lon="2.19649">
        <ele>1541</ele>
        <time>2024-09-25T10:32:59Z</time>
      </trkpt>
      <trkpt lat="42.37657" lon="2.1965">
        <ele>1541</ele>
        <time>2024-09-25T10:33:00Z</time>
      </trkpt>
      <trkpt lat="42.37656" lon="2.19651">
        <ele>1541</ele>
        <time>2024-09-25T10:33:01Z</time>
      </trkpt>
      <trkpt lat="42.37656" lon="2.19652">
        <ele>1541.1</ele>
        <time>2024-09-25T10:33:02Z</time>
      </trkpt>
      <trkpt lat="42.37656" lon="2.19653">
        <ele>1541.1</ele>
        <time>2024-09-25T10:33:03Z</time>
      </trkpt>
      <trkpt lat="42.37655" lon="2.19654">
        <ele>1541.2</ele>
        <time>2024-09-25T10:33:04Z</time>
      </trkpt>
      <trkpt lat="42.37655" lon="2.19655">
        <ele>1541.2</ele>
        <time>2024-09-25T10:33:05Z</time>
      </trkpt>
      <trkpt lat="42.37655" lon="2.19656">
        <ele>1541.3</ele>
        <time>2024-09-25T10:33:06Z</time>
      </trkpt>
      <trkpt lat="42.37655" lon="2.19658">
        <ele>1541.3</ele>
        <time>2024-09-25T10:33:07Z</time>
      </trkpt>
      <trkpt lat="42.37655" lon="2.19659">
        <ele>1541.3</ele>
        <time>2024-09-25T10:33:08Z</time>
      </trkpt>
      <trkpt lat="42.37655" lon="2.1966">
        <ele>1541.4</ele>
        <time>2024-09-25T10:33:09Z</time>
      </trkpt>
      <trkpt lat="42.37655" lon="2.19661">
        <ele>1541.4</ele>
        <time>2024-09-25T10:33:10Z</time>
      </trkpt>
      <trkpt lat="42.37655" lon="2.19662">
        <ele>1541.5</ele>
        <time>2024-09-25T10:33:11Z</time>
      </trkpt>
      <trkpt lat="42.37654" lon="2.19663">
        <ele>1541.5</ele>
        <time>2024-09-25T10:33:12Z</time>
      </trkpt>
      <trkpt lat="42.37654" lon="2.19664">
        <ele>1541.6</ele>
        <time>2024-09-25T10:33:13Z</time>
      </trkpt>
      <trkpt lat="42.37654" lon="2.19665">
        <ele>1541.6</ele>
        <time>2024-09-25T10:33:14Z</time>
      </trkpt>
      <trkpt lat="42.37654" lon="2.19666">
        <ele>1541.7</ele>
        <time>2024-09-25T10:33:15Z</time>
      </trkpt>
      <trkpt lat="42.37653" lon="2.19667">
        <ele>1541.7</ele>
        <time>2024-09-25T10:33:16Z</time>
      </trkpt>
      <trkpt lat="42.37653" lon="2.19667">
        <ele>1541.7</ele>
        <time>2024-09-25T10:33:17Z</time>
      </trkpt>
      <trkpt lat="42.37652" lon="2.19668">
        <ele>1541.8</ele>
        <time>2024-09-25T10:33:18Z</time>
      </trkpt>
      <trkpt lat="42.37651" lon="2.19669">
        <ele>1541.8</ele>
        <time>2024-09-25T10:33:19Z</time>
      </trkpt>
      <trkpt lat="42.37651" lon="2.1967">
        <ele>1541.9</ele>
        <time>2024-09-25T10:33:20Z</time>
      </trkpt>
      <trkpt lat="42.3765" lon="2.19671">
        <ele>1541.9</ele>
        <time>2024-09-25T10:33:21Z</time>
      </trkpt>
      <trkpt lat="42.3765" lon="2.19672">
        <ele>1542</ele>
        <time>2024-09-25T10:33:22Z</time>
      </trkpt>
      <trkpt lat="42.3765" lon="2.19673">
        <ele>1542</ele>
        <time>2024-09-25T10:33:23Z</time>
      </trkpt>
      <trkpt lat="42.37649" lon="2.19674">
        <ele>1542.1</ele>
        <time>2024-09-25T10:33:24Z</time>
      </trkpt>
      <trkpt lat="42.37649" lon="2.19675">
        <ele>1542.1</ele>
        <time>2024-09-25T10:33:25Z</time>
      </trkpt>
      <trkpt lat="42.37648" lon="2.19676">
        <ele>1542.2</ele>
        <time>2024-09-25T10:33:26Z</time>
      </trkpt>
      <trkpt lat="42.37648" lon="2.19677">
        <ele>1542.2</ele>
        <time>2024-09-25T10:33:27Z</time>
      </trkpt>
      <trkpt lat="42.37648" lon="2.19678">
        <ele>1542.2</ele>
        <time>2024-09-25T10:33:28Z</time>
      </trkpt>
      <trkpt lat="42.37647" lon="2.19679">
        <ele>1542.3</ele>
        <time>2024-09-25T10:33:29Z</time>
      </trkpt>
      <trkpt lat="42.37647" lon="2.1968">
        <ele>1542.3</ele>
        <time>2024-09-25T10:33:30Z</time>
      </trkpt>
      <trkpt lat="42.37647" lon="2.19681">
        <ele>1542.4</ele>
        <time>2024-09-25T10:33:31Z</time>
      </trkpt>
      <trkpt lat="42.37647" lon="2.19683">
        <ele>1542.4</ele>
        <time>2024-09-25T10:33:32Z</time>
      </trkpt>
      <trkpt lat="42.37647" lon="2.19684">
        <ele>1542.5</ele>
        <time>2024-09-25T10:33:33Z</time>
      </trkpt>
      <trkpt lat="42.37646" lon="2.19686">
        <ele>1542.5</ele>
        <time>2024-09-25T10:33:34Z</time>
      </trkpt>
      <trkpt lat="42.37646" lon="2.19687">
        <ele>1542.6</ele>
        <time>2024-09-25T10:33:35Z</time>
      </trkpt>
      <trkpt lat="42.37646" lon="2.19688">
        <ele>1542.6</ele>
        <time>2024-09-25T10:33:36Z</time>
      </trkpt>
      <trkpt lat="42.37645" lon="2.1969">
        <ele>1542.6</ele>
        <time>2024-09-25T10:33:37Z</time>
      </trkpt>
      <trkpt lat="42.37645" lon="2.19691">
        <ele>1542.7</ele>
        <time>2024-09-25T10:33:38Z</time>
      </trkpt>
      <trkpt lat="42.37645" lon="2.19692">
        <ele>1542.7</ele>
        <time>2024-09-25T10:33:39Z</time>
      </trkpt>
      <trkpt lat="42.37645" lon="2.19694">
        <ele>1542.7</ele>
        <time>2024-09-25T10:33:40Z</time>
      </trkpt>
      <trkpt lat="42.37645" lon="2.19695">
        <ele>1542.8</ele>
        <time>2024-09-25T10:33:41Z</time>
      </trkpt>
      <trkpt lat="42.37645" lon="2.19697">
        <ele>1542.8</ele>
        <time>2024-09-25T10:33:42Z</time>
      </trkpt>
      <trkpt lat="42.37645" lon="2.19698">
        <ele>1542.8</ele>
        <time>2024-09-25T10:33:43Z</time>
      </trkpt>
      <trkpt lat="42.37645" lon="2.19699">
        <ele>1542.8</ele>
        <time>2024-09-25T10:33:44Z</time>
      </trkpt>
      <trkpt lat="42.37645" lon="2.19701">
        <ele>1542.9</ele>
        <time>2024-09-25T10:33:45Z</time>
      </trkpt>
      <trkpt lat="42.37644" lon="2.19702">
        <ele>1542.9</ele>
        <time>2024-09-25T10:33:46Z</time>
      </trkpt>
      <trkpt lat="42.37644" lon="2.19703">
        <ele>1542.9</ele>
        <time>2024-09-25T10:33:47Z</time>
      </trkpt>
      <trkpt lat="42.37643" lon="2.19705">
        <ele>1542.9</ele>
        <time>2024-09-25T10:33:48Z</time>
      </trkpt>
      <trkpt lat="42.37643" lon="2.19706">
        <ele>1543</ele>
        <time>2024-09-25T10:33:49Z</time>
      </trkpt>
      <trkpt lat="42.37643" lon="2.19707">
        <ele>1543</ele>
        <time>2024-09-25T10:33:50Z</time>
      </trkpt>
      <trkpt lat="42.37642" lon="2.19708">
        <ele>1543</ele>
        <time>2024-09-25T10:33:51Z</time>
      </trkpt>
      <trkpt lat="42.37642" lon="2.19709">
        <ele>1543</ele>
        <time>2024-09-25T10:33:52Z</time>
      </trkpt>
      <trkpt lat="42.37642" lon="2.1971">
        <ele>1543</ele>
        <time>2024-09-25T10:33:53Z</time>
      </trkpt>
      <trkpt lat="42.37642" lon="2.19712">
        <ele>1543</ele>
        <time>2024-09-25T10:33:54Z</time>
      </trkpt>
      <trkpt lat="42.37642" lon="2.19712">
        <ele>1543.1</ele>
        <time>2024-09-25T10:33:55Z</time>
      </trkpt>
      <trkpt lat="42.37642" lon="2.19713">
        <ele>1543.1</ele>
        <time>2024-09-25T10:33:56Z</time>
      </trkpt>
      <trkpt lat="42.37641" lon="2.19715">
        <ele>1543.1</ele>
        <time>2024-09-25T10:33:57Z</time>
      </trkpt>
      <trkpt lat="42.37641" lon="2.19715">
        <ele>1543.1</ele>
        <time>2024-09-25T10:33:58Z</time>
      </trkpt>
      <trkpt lat="42.37641" lon="2.19717">
        <ele>1543.1</ele>
        <time>2024-09-25T10:33:59Z</time>
      </trkpt>
      <trkpt lat="42.37641" lon="2.19718">
        <ele>1543.1</ele>
        <time>2024-09-25T10:34:00Z</time>
      </trkpt>
      <trkpt lat="42.3764" lon="2.19718">
        <ele>1543.2</ele>
        <time>2024-09-25T10:34:01Z</time>
      </trkpt>
      <trkpt lat="42.37639" lon="2.19719">
        <ele>1543.2</ele>
        <time>2024-09-25T10:34:02Z</time>
      </trkpt>
      <trkpt lat="42.37639" lon="2.1972">
        <ele>1543.2</ele>
        <time>2024-09-25T10:34:03Z</time>
      </trkpt>
      <trkpt lat="42.37638" lon="2.19721">
        <ele>1543.2</ele>
        <time>2024-09-25T10:34:04Z</time>
      </trkpt>
      <trkpt lat="42.37637" lon="2.19723">
        <ele>1543.3</ele>
        <time>2024-09-25T10:34:05Z</time>
      </trkpt>
      <trkpt lat="42.37637" lon="2.19724">
        <ele>1543.3</ele>
        <time>2024-09-25T10:34:06Z</time>
      </trkpt>
      <trkpt lat="42.37637" lon="2.19725">
        <ele>1543.3</ele>
        <time>2024-09-25T10:34:07Z</time>
      </trkpt>
      <trkpt lat="42.37637" lon="2.19726">
        <ele>1543.4</ele>
        <time>2024-09-25T10:34:08Z</time>
      </trkpt>
      <trkpt lat="42.37637" lon="2.19727">
        <ele>1543.4</ele>
        <time>2024-09-25T10:34:09Z</time>
      </trkpt>
      <trkpt lat="42.37637" lon="2.19728">
        <ele>1543.4</ele>
        <time>2024-09-25T10:34:10Z</time>
      </trkpt>
      <trkpt lat="42.37638" lon="2.19729">
        <ele>1543.5</ele>
        <time>2024-09-25T10:34:11Z</time>
      </trkpt>
      <trkpt lat="42.37638" lon="2.1973">
        <ele>1543.5</ele>
        <time>2024-09-25T10:34:12Z</time>
      </trkpt>
      <trkpt lat="42.37638" lon="2.19731">
        <ele>1543.5</ele>
        <time>2024-09-25T10:34:13Z</time>
      </trkpt>
      <trkpt lat="42.37638" lon="2.19732">
        <ele>1543.6</ele>
        <time>2024-09-25T10:34:14Z</time>
      </trkpt>
      <trkpt lat="42.37638" lon="2.19733">
        <ele>1543.6</ele>
        <time>2024-09-25T10:34:15Z</time>
      </trkpt>
      <trkpt lat="42.37639" lon="2.19734">
        <ele>1543.7</ele>
        <time>2024-09-25T10:34:16Z</time>
      </trkpt>
      <trkpt lat="42.37639" lon="2.19735">
        <ele>1543.7</ele>
        <time>2024-09-25T10:34:17Z</time>
      </trkpt>
      <trkpt lat="42.37639" lon="2.19736">
        <ele>1543.8</ele>
        <time>2024-09-25T10:34:18Z</time>
      </trkpt>
      <trkpt lat="42.37639" lon="2.19738">
        <ele>1543.8</ele>
        <time>2024-09-25T10:34:19Z</time>
      </trkpt>
      <trkpt lat="42.3764" lon="2.19739">
        <ele>1543.9</ele>
        <time>2024-09-25T10:34:20Z</time>
      </trkpt>
      <trkpt lat="42.3764" lon="2.1974">
        <ele>1544</ele>
        <time>2024-09-25T10:34:21Z</time>
      </trkpt>
      <trkpt lat="42.37641" lon="2.19741">
        <ele>1544.1</ele>
        <time>2024-09-25T10:34:22Z</time>
      </trkpt>
      <trkpt lat="42.37642" lon="2.19744">
        <ele>1544.2</ele>
        <time>2024-09-25T10:34:23Z</time>
      </trkpt>
      <trkpt lat="42.37642" lon="2.19745">
        <ele>1544.3</ele>
        <time>2024-09-25T10:34:24Z</time>
      </trkpt>
      <trkpt lat="42.37643" lon="2.19746">
        <ele>1544.4</ele>
        <time>2024-09-25T10:34:25Z</time>
      </trkpt>
      <trkpt lat="42.37644" lon="2.19748">
        <ele>1544.5</ele>
        <time>2024-09-25T10:34:26Z</time>
      </trkpt>
      <trkpt lat="42.37644" lon="2.19749">
        <ele>1544.6</ele>
        <time>2024-09-25T10:34:27Z</time>
      </trkpt>
      <trkpt lat="42.37645" lon="2.19749">
        <ele>1544.7</ele>
        <time>2024-09-25T10:34:28Z</time>
      </trkpt>
      <trkpt lat="42.37646" lon="2.19751">
        <ele>1544.8</ele>
        <time>2024-09-25T10:34:29Z</time>
      </trkpt>
      <trkpt lat="42.37646" lon="2.19752">
        <ele>1544.9</ele>
        <time>2024-09-25T10:34:30Z</time>
      </trkpt>
      <trkpt lat="42.37646" lon="2.19753">
        <ele>1544.9</ele>
        <time>2024-09-25T10:34:31Z</time>
      </trkpt>
      <trkpt lat="42.37647" lon="2.19754">
        <ele>1545</ele>
        <time>2024-09-25T10:34:32Z</time>
      </trkpt>
      <trkpt lat="42.37647" lon="2.19755">
        <ele>1545.1</ele>
        <time>2024-09-25T10:34:33Z</time>
      </trkpt>
      <trkpt lat="42.37648" lon="2.19757">
        <ele>1545.2</ele>
        <time>2024-09-25T10:34:34Z</time>
      </trkpt>
      <trkpt lat="42.37648" lon="2.19758">
        <ele>1545.3</ele>
        <time>2024-09-25T10:34:35Z</time>
      </trkpt>
      <trkpt lat="42.37648" lon="2.19759">
        <ele>1545.4</ele>
        <time>2024-09-25T10:34:36Z</time>
      </trkpt>
      <trkpt lat="42.37648" lon="2.1976">
        <ele>1545.4</ele>
        <time>2024-09-25T10:34:37Z</time>
      </trkpt>
      <trkpt lat="42.37649" lon="2.19761">
        <ele>1545.5</ele>
        <time>2024-09-25T10:34:38Z</time>
      </trkpt>
      <trkpt lat="42.37649" lon="2.19762">
        <ele>1545.6</ele>
        <time>2024-09-25T10:34:39Z</time>
      </trkpt>
      <trkpt lat="42.37649" lon="2.19763">
        <ele>1545.7</ele>
        <time>2024-09-25T10:34:40Z</time>
      </trkpt>
      <trkpt lat="42.37649" lon="2.19765">
        <ele>1545.8</ele>
        <time>2024-09-25T10:34:41Z</time>
      </trkpt>
      <trkpt lat="42.37649" lon="2.19766">
        <ele>1545.8</ele>
        <time>2024-09-25T10:34:42Z</time>
      </trkpt>
      <trkpt lat="42.3765" lon="2.19767">
        <ele>1545.9</ele>
        <time>2024-09-25T10:34:43Z</time>
      </trkpt>
      <trkpt lat="42.37649" lon="2.19768">
        <ele>1546</ele>
        <time>2024-09-25T10:34:44Z</time>
      </trkpt>
      <trkpt lat="42.37649" lon="2.1977">
        <ele>1546.1</ele>
        <time>2024-09-25T10:34:45Z</time>
      </trkpt>
      <trkpt lat="42.37649" lon="2.19771">
        <ele>1546.2</ele>
        <time>2024-09-25T10:34:46Z</time>
      </trkpt>
      <trkpt lat="42.37649" lon="2.19773">
        <ele>1546.3</ele>
        <time>2024-09-25T10:34:47Z</time>
      </trkpt>
      <trkpt lat="42.37649" lon="2.19774">
        <ele>1546.4</ele>
        <time>2024-09-25T10:34:48Z</time>
      </trkpt>
      <trkpt lat="42.37649" lon="2.19775">
        <ele>1546.5</ele>
        <time>2024-09-25T10:34:49Z</time>
      </trkpt>
      <trkpt lat="42.37648" lon="2.19776">
        <ele>1546.6</ele>
        <time>2024-09-25T10:34:50Z</time>
      </trkpt>
      <trkpt lat="42.37648" lon="2.19777">
        <ele>1546.7</ele>
        <time>2024-09-25T10:34:51Z</time>
      </trkpt>
      <trkpt lat="42.37647" lon="2.19778">
        <ele>1546.8</ele>
        <time>2024-09-25T10:34:52Z</time>
      </trkpt>
      <trkpt lat="42.37647" lon="2.19779">
        <ele>1546.8</ele>
        <time>2024-09-25T10:34:53Z</time>
      </trkpt>
      <trkpt lat="42.37647" lon="2.1978">
        <ele>1546.9</ele>
        <time>2024-09-25T10:34:54Z</time>
      </trkpt>
      <trkpt lat="42.37646" lon="2.19781">
        <ele>1547</ele>
        <time>2024-09-25T10:34:55Z</time>
      </trkpt>
      <trkpt lat="42.37645" lon="2.19782">
        <ele>1547.1</ele>
        <time>2024-09-25T10:34:56Z</time>
      </trkpt>
      <trkpt lat="42.37645" lon="2.19783">
        <ele>1547.2</ele>
        <time>2024-09-25T10:34:57Z</time>
      </trkpt>
      <trkpt lat="42.37644" lon="2.19784">
        <ele>1547.3</ele>
        <time>2024-09-25T10:34:58Z</time>
      </trkpt>
      <trkpt lat="42.37644" lon="2.19784">
        <ele>1547.3</ele>
        <time>2024-09-25T10:34:59Z</time>
      </trkpt>
      <trkpt lat="42.37644" lon="2.19785">
        <ele>1547.4</ele>
        <time>2024-09-25T10:35:00Z</time>
      </trkpt>
      <trkpt lat="42.37643" lon="2.19786">
        <ele>1547.5</ele>
        <time>2024-09-25T10:35:01Z</time>
      </trkpt>
      <trkpt lat="42.37643" lon="2.19787">
        <ele>1547.5</ele>
        <time>2024-09-25T10:35:02Z</time>
      </trkpt>
      <trkpt lat="42.37643" lon="2.19787">
        <ele>1547.6</ele>
        <time>2024-09-25T10:35:03Z</time>
      </trkpt>
      <trkpt lat="42.37642" lon="2.19788">
        <ele>1547.7</ele>
        <time>2024-09-25T10:35:04Z</time>
      </trkpt>
      <trkpt lat="42.37642" lon="2.19789">
        <ele>1547.8</ele>
        <time>2024-09-25T10:35:05Z</time>
      </trkpt>
      <trkpt lat="42.37642" lon="2.19791">
        <ele>1547.9</ele>
        <time>2024-09-25T10:35:06Z</time>
      </trkpt>
      <trkpt lat="42.37642" lon="2.19792">
        <ele>1548</ele>
        <time>2024-09-25T10:35:07Z</time>
      </trkpt>
      <trkpt lat="42.37642" lon="2.19794">
        <ele>1548.2</ele>
        <time>2024-09-25T10:35:08Z</time>
      </trkpt>
      <trkpt lat="42.37642" lon="2.19795">
        <ele>1548.3</ele>
        <time>2024-09-25T10:35:09Z</time>
      </trkpt>
      <trkpt lat="42.37643" lon="2.19796">
        <ele>1548.4</ele>
        <time>2024-09-25T10:35:10Z</time>
      </trkpt>
      <trkpt lat="42.37643" lon="2.19797">
        <ele>1548.4</ele>
        <time>2024-09-25T10:35:11Z</time>
      </trkpt>
      <trkpt lat="42.37644" lon="2.19797">
        <ele>1548.5</ele>
        <time>2024-09-25T10:35:12Z</time>
      </trkpt>
      <trkpt lat="42.37644" lon="2.19798">
        <ele>1548.6</ele>
        <time>2024-09-25T10:35:13Z</time>
      </trkpt>
      <trkpt lat="42.37644" lon="2.19799">
        <ele>1548.6</ele>
        <time>2024-09-25T10:35:14Z</time>
      </trkpt>
      <trkpt lat="42.37643" lon="2.19799">
        <ele>1548.7</ele>
        <time>2024-09-25T10:35:15Z</time>
      </trkpt>
      <trkpt lat="42.37643" lon="2.198">
        <ele>1548.7</ele>
        <time>2024-09-25T10:35:16Z</time>
      </trkpt>
      <trkpt lat="42.37643" lon="2.19801">
        <ele>1548.8</ele>
        <time>2024-09-25T10:35:17Z</time>
      </trkpt>
      <trkpt lat="42.37643" lon="2.19801">
        <ele>1548.8</ele>
        <time>2024-09-25T10:35:18Z</time>
      </trkpt>
      <trkpt lat="42.37643" lon="2.19801">
        <ele>1548.8</ele>
        <time>2024-09-25T10:35:19Z</time>
      </trkpt>
      <trkpt lat="42.37643" lon="2.19802">
        <ele>1548.9</ele>
        <time>2024-09-25T10:35:20Z</time>
      </trkpt>
      <trkpt lat="42.37642" lon="2.19803">
        <ele>1549</ele>
        <time>2024-09-25T10:35:21Z</time>
      </trkpt>
      <trkpt lat="42.37642" lon="2.19804">
        <ele>1549</ele>
        <time>2024-09-25T10:35:22Z</time>
      </trkpt>
      <trkpt lat="42.37642" lon="2.19804">
        <ele>1549.1</ele>
        <time>2024-09-25T10:35:23Z</time>
      </trkpt>
      <trkpt lat="42.37641" lon="2.19804">
        <ele>1549.1</ele>
        <time>2024-09-25T10:35:24Z</time>
      </trkpt>
      <trkpt lat="42.37641" lon="2.19804">
        <ele>1549.1</ele>
        <time>2024-09-25T10:35:25Z</time>
      </trkpt>
      <trkpt lat="42.37641" lon="2.19804">
        <ele>1549.2</ele>
        <time>2024-09-25T10:35:26Z</time>
      </trkpt>
      <trkpt lat="42.37641" lon="2.19805">
        <ele>1549.2</ele>
        <time>2024-09-25T10:35:27Z</time>
      </trkpt>
      <trkpt lat="42.37641" lon="2.19805">
        <ele>1549.3</ele>
        <time>2024-09-25T10:35:28Z</time>
      </trkpt>
      <trkpt lat="42.37641" lon="2.19806">
        <ele>1549.3</ele>
        <time>2024-09-25T10:35:29Z</time>
      </trkpt>
      <trkpt lat="42.37641" lon="2.19807">
        <ele>1549.4</ele>
        <time>2024-09-25T10:35:30Z</time>
      </trkpt>
      <trkpt lat="42.37641" lon="2.19808">
        <ele>1549.5</ele>
        <time>2024-09-25T10:35:31Z</time>
      </trkpt>
      <trkpt lat="42.37641" lon="2.19809">
        <ele>1549.5</ele>
        <time>2024-09-25T10:35:32Z</time>
      </trkpt>
      <trkpt lat="42.3764" lon="2.1981">
        <ele>1549.6</ele>
        <time>2024-09-25T10:35:33Z</time>
      </trkpt>
      <trkpt lat="42.3764" lon="2.19812">
        <ele>1549.7</ele>
        <time>2024-09-25T10:35:34Z</time>
      </trkpt>
      <trkpt lat="42.3764" lon="2.19813">
        <ele>1549.8</ele>
        <time>2024-09-25T10:35:35Z</time>
      </trkpt>
      <trkpt lat="42.3764" lon="2.19814">
        <ele>1549.9</ele>
        <time>2024-09-25T10:35:36Z</time>
      </trkpt>
      <trkpt lat="42.3764" lon="2.19815">
        <ele>1549.9</ele>
        <time>2024-09-25T10:35:37Z</time>
      </trkpt>
      <trkpt lat="42.37639" lon="2.19816">
        <ele>1550</ele>
        <time>2024-09-25T10:35:38Z</time>
      </trkpt>
      <trkpt lat="42.37639" lon="2.19817">
        <ele>1550.1</ele>
        <time>2024-09-25T10:35:39Z</time>
      </trkpt>
      <trkpt lat="42.3764" lon="2.19818">
        <ele>1550.1</ele>
        <time>2024-09-25T10:35:40Z</time>
      </trkpt>
      <trkpt lat="42.3764" lon="2.19817">
        <ele>1550.2</ele>
        <time>2024-09-25T10:35:41Z</time>
      </trkpt>
      <trkpt lat="42.3764" lon="2.19817">
        <ele>1550.2</ele>
        <time>2024-09-25T10:35:42Z</time>
      </trkpt>
      <trkpt lat="42.3764" lon="2.19817">
        <ele>1550.2</ele>
        <time>2024-09-25T10:35:43Z</time>
      </trkpt>
      <trkpt lat="42.3764" lon="2.19817">
        <ele>1550.2</ele>
        <time>2024-09-25T10:35:44Z</time>
      </trkpt>
      <trkpt lat="42.3764" lon="2.19818">
        <ele>1550.2</ele>
        <time>2024-09-25T10:35:45Z</time>
      </trkpt>
      <trkpt lat="42.3764" lon="2.19818">
        <ele>1550.2</ele>
        <time>2024-09-25T10:35:46Z</time>
      </trkpt>
      <trkpt lat="42.3764" lon="2.19818">
        <ele>1550.3</ele>
        <time>2024-09-25T10:35:47Z</time>
      </trkpt>
      <trkpt lat="42.3764" lon="2.19818">
        <ele>1550.3</ele>
        <time>2024-09-25T10:35:48Z</time>
      </trkpt>
      <trkpt lat="42.3764" lon="2.19818">
        <ele>1550.3</ele>
        <time>2024-09-25T10:35:49Z</time>
      </trkpt>
      <trkpt lat="42.3764" lon="2.19818">
        <ele>1550.3</ele>
        <time>2024-09-25T10:35:50Z</time>
      </trkpt>
      <trkpt lat="42.3764" lon="2.19818">
        <ele>1550.3</ele>
        <time>2024-09-25T10:35:51Z</time>
      </trkpt>
      <trkpt lat="42.3764" lon="2.19818">
        <ele>1550.3</ele>
        <time>2024-09-25T10:35:52Z</time>
      </trkpt>
      <trkpt lat="42.3764" lon="2.19819">
        <ele>1550.3</ele>
        <time>2024-09-25T10:35:53Z</time>
      </trkpt>
      <trkpt lat="42.3764" lon="2.19819">
        <ele>1550.3</ele>
        <time>2024-09-25T10:35:54Z</time>
      </trkpt>
      <trkpt lat="42.3764" lon="2.19819">
        <ele>1550.3</ele>
        <time>2024-09-25T10:35:55Z</time>
      </trkpt>
      <trkpt lat="42.3764" lon="2.19819">
        <ele>1550.3</ele>
        <time>2024-09-25T10:35:56Z</time>
      </trkpt>
      <trkpt lat="42.3764" lon="2.19819">
        <ele>1550.3</ele>
        <time>2024-09-25T10:35:57Z</time>
      </trkpt>
      <trkpt lat="42.37639" lon="2.19819">
        <ele>1550.3</ele>
        <time>2024-09-25T10:35:58Z</time>
      </trkpt>
      <trkpt lat="42.37639" lon="2.19819">
        <ele>1550.3</ele>
        <time>2024-09-25T10:35:59Z</time>
      </trkpt>
      <trkpt lat="42.37639" lon="2.19819">
        <ele>1550.3</ele>
        <time>2024-09-25T10:36:00Z</time>
      </trkpt>
      <trkpt lat="42.37639" lon="2.19819">
        <ele>1550.4</ele>
        <time>2024-09-25T10:36:01Z</time>
      </trkpt>
      <trkpt lat="42.37639" lon="2.19819">
        <ele>1550.4</ele>
        <time>2024-09-25T10:36:02Z</time>
      </trkpt>
      <trkpt lat="42.37639" lon="2.19819">
        <ele>1550.4</ele>
        <time>2024-09-25T10:36:03Z</time>
      </trkpt>
      <trkpt lat="42.37639" lon="2.19819">
        <ele>1550.4</ele>
        <time>2024-09-25T10:36:04Z</time>
      </trkpt>
      <trkpt lat="42.37639" lon="2.19819">
        <ele>1550.4</ele>
        <time>2024-09-25T10:36:05Z</time>
      </trkpt>
      <trkpt lat="42.37639" lon="2.19819">
        <ele>1550.4</ele>
        <time>2024-09-25T10:36:06Z</time>
      </trkpt>
      <trkpt lat="42.37639" lon="2.19819">
        <ele>1550.4</ele>
        <time>2024-09-25T10:36:07Z</time>
      </trkpt>
      <trkpt lat="42.37639" lon="2.19819">
        <ele>1550.4</ele>
        <time>2024-09-25T10:36:08Z</time>
      </trkpt>
      <trkpt lat="42.37639" lon="2.19819">
        <ele>1550.4</ele>
        <time>2024-09-25T10:36:09Z</time>
      </trkpt>
      <trkpt lat="42.37639" lon="2.19819">
        <ele>1550.4</ele>
        <time>2024-09-25T10:36:10Z</time>
      </trkpt>
      <trkpt lat="42.37639" lon="2.19819">
        <ele>1550.4</ele>
        <time>2024-09-25T10:36:11Z</time>
      </trkpt>
      <trkpt lat="42.37639" lon="2.19819">
        <ele>1550.4</ele>
        <time>2024-09-25T10:36:12Z</time>
      </trkpt>
      <trkpt lat="42.37639" lon="2.19819">
        <ele>1550.5</ele>
        <time>2024-09-25T10:36:13Z</time>
      </trkpt>
      <trkpt lat="42.37639" lon="2.19819">
        <ele>1550.5</ele>
        <time>2024-09-25T10:36:14Z</time>
      </trkpt>
      <trkpt lat="42.37639" lon="2.1982">
        <ele>1550.5</ele>
        <time>2024-09-25T10:36:15Z</time>
      </trkpt>
      <trkpt lat="42.37639" lon="2.1982">
        <ele>1550.5</ele>
        <time>2024-09-25T10:36:16Z</time>
      </trkpt>
      <trkpt lat="42.37639" lon="2.1982">
        <ele>1550.5</ele>
        <time>2024-09-25T10:36:17Z</time>
      </trkpt>
      <trkpt lat="42.3764" lon="2.1982">
        <ele>1550.5</ele>
        <time>2024-09-25T10:36:18Z</time>
      </trkpt>
      <trkpt lat="42.3764" lon="2.1982">
        <ele>1550.5</ele>
        <time>2024-09-25T10:36:19Z</time>
      </trkpt>
      <trkpt lat="42.3764" lon="2.1982">
        <ele>1550.5</ele>
        <time>2024-09-25T10:36:20Z</time>
      </trkpt>
      <trkpt lat="42.3764" lon="2.1982">
        <ele>1550.5</ele>
        <time>2024-09-25T10:36:21Z</time>
      </trkpt>
      <trkpt lat="42.3764" lon="2.1982">
        <ele>1550.5</ele>
        <time>2024-09-25T10:36:22Z</time>
      </trkpt>
      <trkpt lat="42.3764" lon="2.1982">
        <ele>1550.5</ele>
        <time>2024-09-25T10:36:23Z</time>
      </trkpt>
      <trkpt lat="42.3764" lon="2.1982">
        <ele>1550.6</ele>
        <time>2024-09-25T10:36:24Z</time>
      </trkpt>
      <trkpt lat="42.37641" lon="2.1982">
        <ele>1550.6</ele>
        <time>2024-09-25T10:36:25Z</time>
      </trkpt>
      <trkpt lat="42.37641" lon="2.1982">
        <ele>1550.6</ele>
        <time>2024-09-25T10:36:26Z</time>
      </trkpt>
      <trkpt lat="42.37642" lon="2.1982">
        <ele>1550.6</ele>
        <time>2024-09-25T10:36:27Z</time>
      </trkpt>
      <trkpt lat="42.37642" lon="2.19819">
        <ele>1550.6</ele>
        <time>2024-09-25T10:36:28Z</time>
      </trkpt>
      <trkpt lat="42.37642" lon="2.19819">
        <ele>1550.6</ele>
        <time>2024-09-25T10:36:29Z</time>
      </trkpt>
      <trkpt lat="42.37642" lon="2.19819">
        <ele>1550.6</ele>
        <time>2024-09-25T10:36:30Z</time>
      </trkpt>
      <trkpt lat="42.37642" lon="2.19819">
        <ele>1550.6</ele>
        <time>2024-09-25T10:36:31Z</time>
      </trkpt>
      <trkpt lat="42.37642" lon="2.19819">
        <ele>1550.6</ele>
        <time>2024-09-25T10:36:32Z</time>
      </trkpt>
      <trkpt lat="42.37642" lon="2.19819">
        <ele>1550.6</ele>
        <time>2024-09-25T10:36:33Z</time>
      </trkpt>
      <trkpt lat="42.37642" lon="2.19819">
        <ele>1550.6</ele>
        <time>2024-09-25T10:36:34Z</time>
      </trkpt>
      <trkpt lat="42.37642" lon="2.19819">
        <ele>1550.6</ele>
        <time>2024-09-25T10:36:35Z</time>
      </trkpt>
      <trkpt lat="42.37642" lon="2.19819">
        <ele>1550.6</ele>
        <time>2024-09-25T10:36:36Z</time>
      </trkpt>
      <trkpt lat="42.37642" lon="2.19819">
        <ele>1550.6</ele>
        <time>2024-09-25T10:36:37Z</time>
      </trkpt>
      <trkpt lat="42.37642" lon="2.19819">
        <ele>1550.6</ele>
        <time>2024-09-25T10:36:38Z</time>
      </trkpt>
      <trkpt lat="42.37642" lon="2.19819">
        <ele>1550.6</ele>
        <time>2024-09-25T10:36:39Z</time>
      </trkpt>
      <trkpt lat="42.37642" lon="2.19819">
        <ele>1550.6</ele>
        <time>2024-09-25T10:36:40Z</time>
      </trkpt>
      <trkpt lat="42.37642" lon="2.19819">
        <ele>1550.6</ele>
        <time>2024-09-25T10:36:41Z</time>
      </trkpt>
      <trkpt lat="42.37642" lon="2.19819">
        <ele>1550.6</ele>
        <time>2024-09-25T10:36:42Z</time>
      </trkpt>
      <trkpt lat="42.37642" lon="2.19819">
        <ele>1550.6</ele>
        <time>2024-09-25T10:36:43Z</time>
      </trkpt>
      <trkpt lat="42.37642" lon="2.19819">
        <ele>1550.6</ele>
        <time>2024-09-25T10:36:44Z</time>
      </trkpt>
      <trkpt lat="42.37642" lon="2.19819">
        <ele>1550.6</ele>
        <time>2024-09-25T10:36:45Z</time>
      </trkpt>
      <trkpt lat="42.37642" lon="2.19819">
        <ele>1550.6</ele>
        <time>2024-09-25T10:36:46Z</time>
      </trkpt>
      <trkpt lat="42.37642" lon="2.19819">
        <ele>1550.6</ele>
        <time>2024-09-25T10:36:47Z</time>
      </trkpt>
      <trkpt lat="42.37642" lon="2.19819">
        <ele>1550.6</ele>
        <time>2024-09-25T10:36:48Z</time>
      </trkpt>
      <trkpt lat="42.37642" lon="2.19819">
        <ele>1550.6</ele>
        <time>2024-09-25T10:36:49Z</time>
      </trkpt>
      <trkpt lat="42.37642" lon="2.19819">
        <ele>1550.6</ele>
        <time>2024-09-25T10:36:50Z</time>
      </trkpt>
      <trkpt lat="42.37642" lon="2.19819">
        <ele>1550.6</ele>
        <time>2024-09-25T10:36:51Z</time>
      </trkpt>
      <trkpt lat="42.37642" lon="2.19819">
        <ele>1550.6</ele>
        <time>2024-09-25T10:36:52Z</time>
      </trkpt>
      <trkpt lat="42.37642" lon="2.19819">
        <ele>1550.6</ele>
        <time>2024-09-25T10:36:53Z</time>
      </trkpt>
      <trkpt lat="42.37642" lon="2.19819">
        <ele>1550.6</ele>
        <time>2024-09-25T10:36:54Z</time>
      </trkpt>
      <trkpt lat="42.37642" lon="2.19819">
        <ele>1550.6</ele>
        <time>2024-09-25T10:36:55Z</time>
      </trkpt>
      <trkpt lat="42.37642" lon="2.19819">
        <ele>1550.6</ele>
        <time>2024-09-25T10:36:56Z</time>
      </trkpt>
      <trkpt lat="42.37642" lon="2.19819">
        <ele>1550.6</ele>
        <time>2024-09-25T10:36:57Z</time>
      </trkpt>
      <trkpt lat="42.37642" lon="2.19819">
        <ele>1550.6</ele>
        <time>2024-09-25T10:36:58Z</time>
      </trkpt>
      <trkpt lat="42.37642" lon="2.19819">
        <ele>1550.6</ele>
        <time>2024-09-25T10:36:59Z</time>
      </trkpt>
      <trkpt lat="42.37642" lon="2.19819">
        <ele>1550.6</ele>
        <time>2024-09-25T10:37:00Z</time>
      </trkpt>
      <trkpt lat="42.37642" lon="2.19819">
        <ele>1550.6</ele>
        <time>2024-09-25T10:37:01Z</time>
      </trkpt>
      <trkpt lat="42.37641" lon="2.19819">
        <ele>1550.7</ele>
        <time>2024-09-25T10:37:02Z</time>
      </trkpt>
      <trkpt lat="42.37641" lon="2.19819">
        <ele>1550.7</ele>
        <time>2024-09-25T10:37:03Z</time>
      </trkpt>
      <trkpt lat="42.37641" lon="2.19819">
        <ele>1550.7</ele>
        <time>2024-09-25T10:37:04Z</time>
      </trkpt>
      <trkpt lat="42.37641" lon="2.19819">
        <ele>1550.7</ele>
        <time>2024-09-25T10:37:05Z</time>
      </trkpt>
      <trkpt lat="42.37641" lon="2.19819">
        <ele>1550.7</ele>
        <time>2024-09-25T10:37:06Z</time>
      </trkpt>
      <trkpt lat="42.37641" lon="2.19818">
        <ele>1550.7</ele>
        <time>2024-09-25T10:37:07Z</time>
      </trkpt>
      <trkpt lat="42.37641" lon="2.19819">
        <ele>1550.7</ele>
        <time>2024-09-25T10:37:08Z</time>
      </trkpt>
      <trkpt lat="42.37641" lon="2.19819">
        <ele>1550.7</ele>
        <time>2024-09-25T10:37:09Z</time>
      </trkpt>
      <trkpt lat="42.37641" lon="2.1982">
        <ele>1550.7</ele>
        <time>2024-09-25T10:37:10Z</time>
      </trkpt>
      <trkpt lat="42.37641" lon="2.19819">
        <ele>1550.7</ele>
        <time>2024-09-25T10:37:11Z</time>
      </trkpt>
      <trkpt lat="42.37641" lon="2.1982">
        <ele>1550.7</ele>
        <time>2024-09-25T10:37:12Z</time>
      </trkpt>
      <trkpt lat="42.37641" lon="2.1982">
        <ele>1550.7</ele>
        <time>2024-09-25T10:37:13Z</time>
      </trkpt>
      <trkpt lat="42.3764" lon="2.1982">
        <ele>1550.7</ele>
        <time>2024-09-25T10:37:14Z</time>
      </trkpt>
      <trkpt lat="42.3764" lon="2.1982">
        <ele>1550.7</ele>
        <time>2024-09-25T10:37:15Z</time>
      </trkpt>
      <trkpt lat="42.3764" lon="2.1982">
        <ele>1550.7</ele>
        <time>2024-09-25T10:37:16Z</time>
      </trkpt>
      <trkpt lat="42.3764" lon="2.1982">
        <ele>1550.7</ele>
        <time>2024-09-25T10:37:17Z</time>
      </trkpt>
      <trkpt lat="42.3764" lon="2.1982">
        <ele>1550.7</ele>
        <time>2024-09-25T10:37:18Z</time>
      </trkpt>
      <trkpt lat="42.3764" lon="2.1982">
        <ele>1550.7</ele>
        <time>2024-09-25T10:37:19Z</time>
      </trkpt>
      <trkpt lat="42.3764" lon="2.1982">
        <ele>1550.7</ele>
        <time>2024-09-25T10:37:20Z</time>
      </trkpt>
      <trkpt lat="42.3764" lon="2.1982">
        <ele>1550.7</ele>
        <time>2024-09-25T10:37:21Z</time>
      </trkpt>
      <trkpt lat="42.3764" lon="2.1982">
        <ele>1550.7</ele>
        <time>2024-09-25T10:37:22Z</time>
      </trkpt>
      <trkpt lat="42.3764" lon="2.1982">
        <ele>1550.7</ele>
        <time>2024-09-25T10:37:23Z</time>
      </trkpt>
      <trkpt lat="42.3764" lon="2.19821">
        <ele>1550.8</ele>
        <time>2024-09-25T10:37:24Z</time>
      </trkpt>
      <trkpt lat="42.37639" lon="2.19821">
        <ele>1550.8</ele>
        <time>2024-09-25T10:37:25Z</time>
      </trkpt>
      <trkpt lat="42.37639" lon="2.19821">
        <ele>1550.8</ele>
        <time>2024-09-25T10:37:26Z</time>
      </trkpt>
      <trkpt lat="42.37639" lon="2.19822">
        <ele>1550.8</ele>
        <time>2024-09-25T10:37:27Z</time>
      </trkpt>
      <trkpt lat="42.37639" lon="2.19822">
        <ele>1550.8</ele>
        <time>2024-09-25T10:37:28Z</time>
      </trkpt>
      <trkpt lat="42.37639" lon="2.19822">
        <ele>1550.8</ele>
        <time>2024-09-25T10:37:29Z</time>
      </trkpt>
      <trkpt lat="42.37639" lon="2.19822">
        <ele>1550.8</ele>
        <time>2024-09-25T10:37:30Z</time>
      </trkpt>
      <trkpt lat="42.37639" lon="2.19822">
        <ele>1550.8</ele>
        <time>2024-09-25T10:37:31Z</time>
      </trkpt>
      <trkpt lat="42.37639" lon="2.19822">
        <ele>1550.8</ele>
        <time>2024-09-25T10:37:32Z</time>
      </trkpt>
      <trkpt lat="42.37639" lon="2.19822">
        <ele>1550.8</ele>
        <time>2024-09-25T10:37:33Z</time>
      </trkpt>
      <trkpt lat="42.37639" lon="2.19822">
        <ele>1550.8</ele>
        <time>2024-09-25T10:37:34Z</time>
      </trkpt>
      <trkpt lat="42.37639" lon="2.19822">
        <ele>1550.8</ele>
        <time>2024-09-25T10:37:35Z</time>
      </trkpt>
      <trkpt lat="42.37639" lon="2.19822">
        <ele>1550.8</ele>
        <time>2024-09-25T10:37:36Z</time>
      </trkpt>
      <trkpt lat="42.37639" lon="2.19822">
        <ele>1550.8</ele>
        <time>2024-09-25T10:37:37Z</time>
      </trkpt>
      <trkpt lat="42.37639" lon="2.19822">
        <ele>1550.8</ele>
        <time>2024-09-25T10:37:38Z</time>
      </trkpt>
      <trkpt lat="42.37639" lon="2.19822">
        <ele>1550.8</ele>
        <time>2024-09-25T10:37:39Z</time>
      </trkpt>
      <trkpt lat="42.37639" lon="2.19822">
        <ele>1550.8</ele>
        <time>2024-09-25T10:37:40Z</time>
      </trkpt>
      <trkpt lat="42.37639" lon="2.19822">
        <ele>1550.8</ele>
        <time>2024-09-25T10:37:41Z</time>
      </trkpt>
      <trkpt lat="42.37639" lon="2.19822">
        <ele>1550.8</ele>
        <time>2024-09-25T10:37:42Z</time>
      </trkpt>
      <trkpt lat="42.37639" lon="2.19822">
        <ele>1550.8</ele>
        <time>2024-09-25T10:37:43Z</time>
      </trkpt>
      <trkpt lat="42.37639" lon="2.19822">
        <ele>1550.8</ele>
        <time>2024-09-25T10:37:44Z</time>
      </trkpt>
      <trkpt lat="42.37639" lon="2.19822">
        <ele>1550.8</ele>
        <time>2024-09-25T10:37:45Z</time>
      </trkpt>
      <trkpt lat="42.37639" lon="2.19823">
        <ele>1550.8</ele>
        <time>2024-09-25T10:37:46Z</time>
      </trkpt>
      <trkpt lat="42.3764" lon="2.19823">
        <ele>1550.8</ele>
        <time>2024-09-25T10:37:47Z</time>
      </trkpt>
      <trkpt lat="42.3764" lon="2.19824">
        <ele>1550.8</ele>
        <time>2024-09-25T10:37:48Z</time>
      </trkpt>
      <trkpt lat="42.3764" lon="2.19825">
        <ele>1550.8</ele>
        <time>2024-09-25T10:37:49Z</time>
      </trkpt>
      <trkpt lat="42.3764" lon="2.19827">
        <ele>1550.8</ele>
        <time>2024-09-25T10:37:50Z</time>
      </trkpt>
      <trkpt lat="42.3764" lon="2.19828">
        <ele>1550.7</ele>
        <time>2024-09-25T10:37:51Z</time>
      </trkpt>
      <trkpt lat="42.37641" lon="2.19829">
        <ele>1550.7</ele>
        <time>2024-09-25T10:37:52Z</time>
      </trkpt>
      <trkpt lat="42.3764" lon="2.1983">
        <ele>1550.7</ele>
        <time>2024-09-25T10:37:53Z</time>
      </trkpt>
      <trkpt lat="42.3764" lon="2.19831">
        <ele>1550.7</ele>
        <time>2024-09-25T10:37:54Z</time>
      </trkpt>
      <trkpt lat="42.3764" lon="2.19831">
        <ele>1550.7</ele>
        <time>2024-09-25T10:37:55Z</time>
      </trkpt>
      <trkpt lat="42.3764" lon="2.19832">
        <ele>1550.7</ele>
        <time>2024-09-25T10:37:56Z</time>
      </trkpt>
      <trkpt lat="42.3764" lon="2.19833">
        <ele>1550.7</ele>
        <time>2024-09-25T10:37:57Z</time>
      </trkpt>
      <trkpt lat="42.3764" lon="2.19836">
        <ele>1550.7</ele>
        <time>2024-09-25T10:37:58Z</time>
      </trkpt>
      <trkpt lat="42.3764" lon="2.19837">
        <ele>1550.7</ele>
        <time>2024-09-25T10:37:59Z</time>
      </trkpt>
      <trkpt lat="42.3764" lon="2.19838">
        <ele>1550.6</ele>
        <time>2024-09-25T10:38:00Z</time>
      </trkpt>
      <trkpt lat="42.3764" lon="2.19841">
        <ele>1550.6</ele>
        <time>2024-09-25T10:38:01Z</time>
      </trkpt>
      <trkpt lat="42.37641" lon="2.19842">
        <ele>1550.6</ele>
        <time>2024-09-25T10:38:02Z</time>
      </trkpt>
      <trkpt lat="42.37641" lon="2.19844">
        <ele>1550.6</ele>
        <time>2024-09-25T10:38:03Z</time>
      </trkpt>
      <trkpt lat="42.37642" lon="2.19845">
        <ele>1550.6</ele>
        <time>2024-09-25T10:38:04Z</time>
      </trkpt>
      <trkpt lat="42.37642" lon="2.19845">
        <ele>1550.6</ele>
        <time>2024-09-25T10:38:05Z</time>
      </trkpt>
      <trkpt lat="42.37642" lon="2.19846">
        <ele>1550.6</ele>
        <time>2024-09-25T10:38:06Z</time>
      </trkpt>
      <trkpt lat="42.37643" lon="2.19847">
        <ele>1550.6</ele>
        <time>2024-09-25T10:38:07Z</time>
      </trkpt>
      <trkpt lat="42.37643" lon="2.19848">
        <ele>1550.6</ele>
        <time>2024-09-25T10:38:08Z</time>
      </trkpt>
      <trkpt lat="42.37644" lon="2.19849">
        <ele>1550.6</ele>
        <time>2024-09-25T10:38:09Z</time>
      </trkpt>
      <trkpt lat="42.37644" lon="2.1985">
        <ele>1550.6</ele>
        <time>2024-09-25T10:38:10Z</time>
      </trkpt>
      <trkpt lat="42.37644" lon="2.19851">
        <ele>1550.6</ele>
        <time>2024-09-25T10:38:11Z</time>
      </trkpt>
      <trkpt lat="42.37645" lon="2.19852">
        <ele>1550.6</ele>
        <time>2024-09-25T10:38:12Z</time>
      </trkpt>
      <trkpt lat="42.37645" lon="2.19853">
        <ele>1550.7</ele>
        <time>2024-09-25T10:38:13Z</time>
      </trkpt>
      <trkpt lat="42.37646" lon="2.19853">
        <ele>1550.7</ele>
        <time>2024-09-25T10:38:14Z</time>
      </trkpt>
      <trkpt lat="42.37646" lon="2.19854">
        <ele>1550.7</ele>
        <time>2024-09-25T10:38:15Z</time>
      </trkpt>
      <trkpt lat="42.37646" lon="2.19855">
        <ele>1550.7</ele>
        <time>2024-09-25T10:38:16Z</time>
      </trkpt>
      <trkpt lat="42.37646" lon="2.19856">
        <ele>1550.7</ele>
        <time>2024-09-25T10:38:17Z</time>
      </trkpt>
      <trkpt lat="42.37647" lon="2.19858">
        <ele>1550.7</ele>
        <time>2024-09-25T10:38:18Z</time>
      </trkpt>
      <trkpt lat="42.37647" lon="2.19859">
        <ele>1550.7</ele>
        <time>2024-09-25T10:38:19Z</time>
      </trkpt>
      <trkpt lat="42.37647" lon="2.19859">
        <ele>1550.8</ele>
        <time>2024-09-25T10:38:20Z</time>
      </trkpt>
      <trkpt lat="42.37648" lon="2.1986">
        <ele>1550.8</ele>
        <time>2024-09-25T10:38:21Z</time>
      </trkpt>
      <trkpt lat="42.37648" lon="2.19861">
        <ele>1550.8</ele>
        <time>2024-09-25T10:38:22Z</time>
      </trkpt>
      <trkpt lat="42.37648" lon="2.19861">
        <ele>1550.8</ele>
        <time>2024-09-25T10:38:23Z</time>
      </trkpt>
      <trkpt lat="42.37648" lon="2.19862">
        <ele>1550.8</ele>
        <time>2024-09-25T10:38:24Z</time>
      </trkpt>
      <trkpt lat="42.37648" lon="2.19863">
        <ele>1550.8</ele>
        <time>2024-09-25T10:38:25Z</time>
      </trkpt>
      <trkpt lat="42.37648" lon="2.19863">
        <ele>1550.8</ele>
        <time>2024-09-25T10:38:26Z</time>
      </trkpt>
      <trkpt lat="42.37648" lon="2.19863">
        <ele>1550.9</ele>
        <time>2024-09-25T10:38:27Z</time>
      </trkpt>
      <trkpt lat="42.37648" lon="2.19863">
        <ele>1550.9</ele>
        <time>2024-09-25T10:38:28Z</time>
      </trkpt>
      <trkpt lat="42.37648" lon="2.19863">
        <ele>1550.9</ele>
        <time>2024-09-25T10:38:29Z</time>
      </trkpt>
      <trkpt lat="42.37648" lon="2.19862">
        <ele>1550.9</ele>
        <time>2024-09-25T10:38:30Z</time>
      </trkpt>
      <trkpt lat="42.37648" lon="2.19862">
        <ele>1550.9</ele>
        <time>2024-09-25T10:38:31Z</time>
      </trkpt>
      <trkpt lat="42.37648" lon="2.19862">
        <ele>1550.9</ele>
        <time>2024-09-25T10:38:32Z</time>
      </trkpt>
      <trkpt lat="42.37648" lon="2.19862">
        <ele>1550.9</ele>
        <time>2024-09-25T10:38:33Z</time>
      </trkpt>
      <trkpt lat="42.37648" lon="2.19862">
        <ele>1550.9</ele>
        <time>2024-09-25T10:38:34Z</time>
      </trkpt>
      <trkpt lat="42.37648" lon="2.19862">
        <ele>1550.9</ele>
        <time>2024-09-25T10:38:35Z</time>
      </trkpt>
      <trkpt lat="42.37648" lon="2.19862">
        <ele>1550.9</ele>
        <time>2024-09-25T10:38:37Z</time>
      </trkpt>
      <trkpt lat="42.37648" lon="2.19862">
        <ele>1550.9</ele>
        <time>2024-09-25T10:38:38Z</time>
      </trkpt>
      <trkpt lat="42.37648" lon="2.19862">
        <ele>1550.9</ele>
        <time>2024-09-25T10:38:39Z</time>
      </trkpt>
      <trkpt lat="42.37647" lon="2.19862">
        <ele>1550.9</ele>
        <time>2024-09-25T10:38:40Z</time>
      </trkpt>
      <trkpt lat="42.37647" lon="2.19862">
        <ele>1551</ele>
        <time>2024-09-25T10:38:41Z</time>
      </trkpt>
      <trkpt lat="42.37647" lon="2.19862">
        <ele>1551</ele>
        <time>2024-09-25T10:38:42Z</time>
      </trkpt>
      <trkpt lat="42.37647" lon="2.19862">
        <ele>1551</ele>
        <time>2024-09-25T10:38:43Z</time>
      </trkpt>
      <trkpt lat="42.37647" lon="2.19862">
        <ele>1551</ele>
        <time>2024-09-25T10:38:44Z</time>
      </trkpt>
      <trkpt lat="42.37647" lon="2.19862">
        <ele>1551</ele>
        <time>2024-09-25T10:38:45Z</time>
      </trkpt>
      <trkpt lat="42.37647" lon="2.19863">
        <ele>1551</ele>
        <time>2024-09-25T10:38:46Z</time>
      </trkpt>
      <trkpt lat="42.37647" lon="2.19863">
        <ele>1551</ele>
        <time>2024-09-25T10:38:47Z</time>
      </trkpt>
      <trkpt lat="42.37648" lon="2.19863">
        <ele>1551</ele>
        <time>2024-09-25T10:38:48Z</time>
      </trkpt>
      <trkpt lat="42.37648" lon="2.19863">
        <ele>1551</ele>
        <time>2024-09-25T10:38:49Z</time>
      </trkpt>
      <trkpt lat="42.37649" lon="2.19862">
        <ele>1551</ele>
        <time>2024-09-25T10:38:50Z</time>
      </trkpt>
      <trkpt lat="42.37649" lon="2.19862">
        <ele>1551.1</ele>
        <time>2024-09-25T10:38:51Z</time>
      </trkpt>
      <trkpt lat="42.37649" lon="2.19862">
        <ele>1551.1</ele>
        <time>2024-09-25T10:38:52Z</time>
      </trkpt>
      <trkpt lat="42.3765" lon="2.19861">
        <ele>1551.1</ele>
        <time>2024-09-25T10:38:53Z</time>
      </trkpt>
      <trkpt lat="42.3765" lon="2.19862">
        <ele>1551.1</ele>
        <time>2024-09-25T10:38:54Z</time>
      </trkpt>
      <trkpt lat="42.3765" lon="2.19862">
        <ele>1551.1</ele>
        <time>2024-09-25T10:38:55Z</time>
      </trkpt>
      <trkpt lat="42.3765" lon="2.19862">
        <ele>1551.2</ele>
        <time>2024-09-25T10:38:56Z</time>
      </trkpt>
      <trkpt lat="42.37649" lon="2.19863">
        <ele>1551.2</ele>
        <time>2024-09-25T10:38:57Z</time>
      </trkpt>
      <trkpt lat="42.37649" lon="2.19863">
        <ele>1551.2</ele>
        <time>2024-09-25T10:38:58Z</time>
      </trkpt>
      <trkpt lat="42.37648" lon="2.19864">
        <ele>1551.3</ele>
        <time>2024-09-25T10:38:59Z</time>
      </trkpt>
      <trkpt lat="42.37647" lon="2.19865">
        <ele>1551.3</ele>
        <time>2024-09-25T10:39:00Z</time>
      </trkpt>
      <trkpt lat="42.37647" lon="2.19865">
        <ele>1551.3</ele>
        <time>2024-09-25T10:39:01Z</time>
      </trkpt>
      <trkpt lat="42.37647" lon="2.19866">
        <ele>1551.4</ele>
        <time>2024-09-25T10:39:02Z</time>
      </trkpt>
      <trkpt lat="42.37647" lon="2.19866">
        <ele>1551.4</ele>
        <time>2024-09-25T10:39:03Z</time>
      </trkpt>
      <trkpt lat="42.37646" lon="2.19866">
        <ele>1551.4</ele>
        <time>2024-09-25T10:39:04Z</time>
      </trkpt>
      <trkpt lat="42.37646" lon="2.19866">
        <ele>1551.4</ele>
        <time>2024-09-25T10:39:05Z</time>
      </trkpt>
      <trkpt lat="42.37646" lon="2.19867">
        <ele>1551.5</ele>
        <time>2024-09-25T10:39:06Z</time>
      </trkpt>
      <trkpt lat="42.37646" lon="2.19867">
        <ele>1551.5</ele>
        <time>2024-09-25T10:39:07Z</time>
      </trkpt>
      <trkpt lat="42.37646" lon="2.19867">
        <ele>1551.5</ele>
        <time>2024-09-25T10:39:08Z</time>
      </trkpt>
      <trkpt lat="42.37646" lon="2.19867">
        <ele>1551.5</ele>
        <time>2024-09-25T10:39:10Z</time>
      </trkpt>
      <trkpt lat="42.37645" lon="2.19867">
        <ele>1551.5</ele>
        <time>2024-09-25T10:39:11Z</time>
      </trkpt>
      <trkpt lat="42.37645" lon="2.19867">
        <ele>1551.5</ele>
        <time>2024-09-25T10:39:12Z</time>
      </trkpt>
      <trkpt lat="42.37645" lon="2.19867">
        <ele>1551.5</ele>
        <time>2024-09-25T10:39:13Z</time>
      </trkpt>
      <trkpt lat="42.37646" lon="2.19867">
        <ele>1551.5</ele>
        <time>2024-09-25T10:39:14Z</time>
      </trkpt>
      <trkpt lat="42.37646" lon="2.19868">
        <ele>1551.5</ele>
        <time>2024-09-25T10:39:15Z</time>
      </trkpt>
      <trkpt lat="42.37646" lon="2.19868">
        <ele>1551.6</ele>
        <time>2024-09-25T10:39:16Z</time>
      </trkpt>
      <trkpt lat="42.37646" lon="2.19868">
        <ele>1551.6</ele>
        <time>2024-09-25T10:39:17Z</time>
      </trkpt>
      <trkpt lat="42.37647" lon="2.19869">
        <ele>1551.6</ele>
        <time>2024-09-25T10:39:18Z</time>
      </trkpt>
      <trkpt lat="42.37647" lon="2.19869">
        <ele>1551.6</ele>
        <time>2024-09-25T10:39:19Z</time>
      </trkpt>
      <trkpt lat="42.37647" lon="2.19869">
        <ele>1551.6</ele>
        <time>2024-09-25T10:39:20Z</time>
      </trkpt>
      <trkpt lat="42.37647" lon="2.19869">
        <ele>1551.6</ele>
        <time>2024-09-25T10:39:21Z</time>
      </trkpt>
      <trkpt lat="42.37647" lon="2.19869">
        <ele>1551.7</ele>
        <time>2024-09-25T10:39:23Z</time>
      </trkpt>
      <trkpt lat="42.37647" lon="2.19869">
        <ele>1551.7</ele>
        <time>2024-09-25T10:39:24Z</time>
      </trkpt>
      <trkpt lat="42.37647" lon="2.19869">
        <ele>1551.7</ele>
        <time>2024-09-25T10:39:25Z</time>
      </trkpt>
      <trkpt lat="42.37647" lon="2.1987">
        <ele>1551.7</ele>
        <time>2024-09-25T10:39:26Z</time>
      </trkpt>
      <trkpt lat="42.37647" lon="2.1987">
        <ele>1551.7</ele>
        <time>2024-09-25T10:39:27Z</time>
      </trkpt>
      <trkpt lat="42.37647" lon="2.1987">
        <ele>1551.7</ele>
        <time>2024-09-25T10:39:28Z</time>
      </trkpt>
      <trkpt lat="42.37647" lon="2.1987">
        <ele>1551.7</ele>
        <time>2024-09-25T10:39:29Z</time>
      </trkpt>
      <trkpt lat="42.37647" lon="2.1987">
        <ele>1551.7</ele>
        <time>2024-09-25T10:39:30Z</time>
      </trkpt>
      <trkpt lat="42.37647" lon="2.1987">
        <ele>1551.7</ele>
        <time>2024-09-25T10:39:31Z</time>
      </trkpt>
      <trkpt lat="42.37647" lon="2.19869">
        <ele>1551.7</ele>
        <time>2024-09-25T10:39:32Z</time>
      </trkpt>
      <trkpt lat="42.37647" lon="2.19869">
        <ele>1551.7</ele>
        <time>2024-09-25T10:39:33Z</time>
      </trkpt>
      <trkpt lat="42.37647" lon="2.19869">
        <ele>1551.7</ele>
        <time>2024-09-25T10:39:34Z</time>
      </trkpt>
      <trkpt lat="42.37648" lon="2.19868">
        <ele>1551.8</ele>
        <time>2024-09-25T10:39:35Z</time>
      </trkpt>
      <trkpt lat="42.37649" lon="2.19868">
        <ele>1551.9</ele>
        <time>2024-09-25T10:39:36Z</time>
      </trkpt>
      <trkpt lat="42.37649" lon="2.19868">
        <ele>1551.9</ele>
        <time>2024-09-25T10:39:37Z</time>
      </trkpt>
      <trkpt lat="42.3765" lon="2.19868">
        <ele>1552</ele>
        <time>2024-09-25T10:39:38Z</time>
      </trkpt>
      <trkpt lat="42.37651" lon="2.19868">
        <ele>1552</ele>
        <time>2024-09-25T10:39:39Z</time>
      </trkpt>
      <trkpt lat="42.37652" lon="2.19869">
        <ele>1552.1</ele>
        <time>2024-09-25T10:39:40Z</time>
      </trkpt>
      <trkpt lat="42.37652" lon="2.19869">
        <ele>1552.2</ele>
        <time>2024-09-25T10:39:41Z</time>
      </trkpt>
      <trkpt lat="42.37653" lon="2.1987">
        <ele>1552.2</ele>
        <time>2024-09-25T10:39:42Z</time>
      </trkpt>
      <trkpt lat="42.37653" lon="2.1987">
        <ele>1552.2</ele>
        <time>2024-09-25T10:39:43Z</time>
      </trkpt>
      <trkpt lat="42.37653" lon="2.19871">
        <ele>1552.3</ele>
        <time>2024-09-25T10:39:44Z</time>
      </trkpt>
      <trkpt lat="42.37653" lon="2.19871">
        <ele>1552.3</ele>
        <time>2024-09-25T10:39:45Z</time>
      </trkpt>
      <trkpt lat="42.37654" lon="2.19872">
        <ele>1552.3</ele>
        <time>2024-09-25T10:39:46Z</time>
      </trkpt>
      <trkpt lat="42.37654" lon="2.19872">
        <ele>1552.4</ele>
        <time>2024-09-25T10:39:47Z</time>
      </trkpt>
      <trkpt lat="42.37654" lon="2.19873">
        <ele>1552.5</ele>
        <time>2024-09-25T10:39:48Z</time>
      </trkpt>
      <trkpt lat="42.37654" lon="2.19875">
        <ele>1552.6</ele>
        <time>2024-09-25T10:39:49Z</time>
      </trkpt>
      <trkpt lat="42.37654" lon="2.19876">
        <ele>1552.6</ele>
        <time>2024-09-25T10:39:50Z</time>
      </trkpt>
      <trkpt lat="42.37654" lon="2.19877">
        <ele>1552.7</ele>
        <time>2024-09-25T10:39:51Z</time>
      </trkpt>
      <trkpt lat="42.37654" lon="2.19878">
        <ele>1552.8</ele>
        <time>2024-09-25T10:39:52Z</time>
      </trkpt>
      <trkpt lat="42.37654" lon="2.1988">
        <ele>1552.9</ele>
        <time>2024-09-25T10:39:53Z</time>
      </trkpt>
      <trkpt lat="42.37654" lon="2.19881">
        <ele>1553</ele>
        <time>2024-09-25T10:39:54Z</time>
      </trkpt>
      <trkpt lat="42.37654" lon="2.19883">
        <ele>1553.1</ele>
        <time>2024-09-25T10:39:55Z</time>
      </trkpt>
      <trkpt lat="42.37653" lon="2.19884">
        <ele>1553.2</ele>
        <time>2024-09-25T10:39:56Z</time>
      </trkpt>
      <trkpt lat="42.37653" lon="2.19885">
        <ele>1553.3</ele>
        <time>2024-09-25T10:39:57Z</time>
      </trkpt>
      <trkpt lat="42.37654" lon="2.19886">
        <ele>1553.4</ele>
        <time>2024-09-25T10:39:58Z</time>
      </trkpt>
      <trkpt lat="42.37654" lon="2.19887">
        <ele>1553.4</ele>
        <time>2024-09-25T10:39:59Z</time>
      </trkpt>
      <trkpt lat="42.37654" lon="2.19888">
        <ele>1553.5</ele>
        <time>2024-09-25T10:40:00Z</time>
      </trkpt>
      <trkpt lat="42.37654" lon="2.19889">
        <ele>1553.6</ele>
        <time>2024-09-25T10:40:01Z</time>
      </trkpt>
      <trkpt lat="42.37654" lon="2.1989">
        <ele>1553.6</ele>
        <time>2024-09-25T10:40:02Z</time>
      </trkpt>
      <trkpt lat="42.37654" lon="2.19891">
        <ele>1553.7</ele>
        <time>2024-09-25T10:40:03Z</time>
      </trkpt>
      <trkpt lat="42.37654" lon="2.19892">
        <ele>1553.8</ele>
        <time>2024-09-25T10:40:04Z</time>
      </trkpt>
      <trkpt lat="42.37654" lon="2.19894">
        <ele>1553.8</ele>
        <time>2024-09-25T10:40:05Z</time>
      </trkpt>
      <trkpt lat="42.37654" lon="2.19895">
        <ele>1553.9</ele>
        <time>2024-09-25T10:40:06Z</time>
      </trkpt>
      <trkpt lat="42.37654" lon="2.19896">
        <ele>1554</ele>
        <time>2024-09-25T10:40:07Z</time>
      </trkpt>
      <trkpt lat="42.37655" lon="2.19897">
        <ele>1554.1</ele>
        <time>2024-09-25T10:40:08Z</time>
      </trkpt>
      <trkpt lat="42.37655" lon="2.19898">
        <ele>1554.1</ele>
        <time>2024-09-25T10:40:09Z</time>
      </trkpt>
      <trkpt lat="42.37655" lon="2.19899">
        <ele>1554.2</ele>
        <time>2024-09-25T10:40:10Z</time>
      </trkpt>
      <trkpt lat="42.37656" lon="2.19899">
        <ele>1554.2</ele>
        <time>2024-09-25T10:40:11Z</time>
      </trkpt>
      <trkpt lat="42.37656" lon="2.199">
        <ele>1554.3</ele>
        <time>2024-09-25T10:40:12Z</time>
      </trkpt>
      <trkpt lat="42.37657" lon="2.199">
        <ele>1554.4</ele>
        <time>2024-09-25T10:40:13Z</time>
      </trkpt>
      <trkpt lat="42.37657" lon="2.19901">
        <ele>1554.4</ele>
        <time>2024-09-25T10:40:14Z</time>
      </trkpt>
      <trkpt lat="42.37658" lon="2.19901">
        <ele>1554.5</ele>
        <time>2024-09-25T10:40:15Z</time>
      </trkpt>
      <trkpt lat="42.37658" lon="2.19901">
        <ele>1554.5</ele>
        <time>2024-09-25T10:40:16Z</time>
      </trkpt>
      <trkpt lat="42.37658" lon="2.19901">
        <ele>1554.5</ele>
        <time>2024-09-25T10:40:17Z</time>
      </trkpt>
      <trkpt lat="42.37659" lon="2.19901">
        <ele>1554.5</ele>
        <time>2024-09-25T10:40:18Z</time>
      </trkpt>
      <trkpt lat="42.37659" lon="2.19901">
        <ele>1554.5</ele>
        <time>2024-09-25T10:40:19Z</time>
      </trkpt>
      <trkpt lat="42.37659" lon="2.19901">
        <ele>1554.6</ele>
        <time>2024-09-25T10:40:20Z</time>
      </trkpt>
      <trkpt lat="42.37659" lon="2.19901">
        <ele>1554.6</ele>
        <time>2024-09-25T10:40:21Z</time>
      </trkpt>
      <trkpt lat="42.3766" lon="2.19902">
        <ele>1554.6</ele>
        <time>2024-09-25T10:40:22Z</time>
      </trkpt>
      <trkpt lat="42.3766" lon="2.19902">
        <ele>1554.7</ele>
        <time>2024-09-25T10:40:23Z</time>
      </trkpt>
      <trkpt lat="42.3766" lon="2.19903">
        <ele>1554.7</ele>
        <time>2024-09-25T10:40:24Z</time>
      </trkpt>
      <trkpt lat="42.37661" lon="2.19903">
        <ele>1554.7</ele>
        <time>2024-09-25T10:40:25Z</time>
      </trkpt>
      <trkpt lat="42.37661" lon="2.19903">
        <ele>1554.7</ele>
        <time>2024-09-25T10:40:26Z</time>
      </trkpt>
      <trkpt lat="42.37661" lon="2.19903">
        <ele>1554.8</ele>
        <time>2024-09-25T10:40:27Z</time>
      </trkpt>
      <trkpt lat="42.37662" lon="2.19904">
        <ele>1554.8</ele>
        <time>2024-09-25T10:40:28Z</time>
      </trkpt>
      <trkpt lat="42.37662" lon="2.19904">
        <ele>1554.9</ele>
        <time>2024-09-25T10:40:29Z</time>
      </trkpt>
      <trkpt lat="42.37663" lon="2.19905">
        <ele>1554.9</ele>
        <time>2024-09-25T10:40:30Z</time>
      </trkpt>
      <trkpt lat="42.37664" lon="2.19906">
        <ele>1555</ele>
        <time>2024-09-25T10:40:31Z</time>
      </trkpt>
      <trkpt lat="42.37664" lon="2.19907">
        <ele>1555</ele>
        <time>2024-09-25T10:40:32Z</time>
      </trkpt>
      <trkpt lat="42.37666" lon="2.19909">
        <ele>1555.2</ele>
        <time>2024-09-25T10:40:33Z</time>
      </trkpt>
      <trkpt lat="42.37666" lon="2.1991">
        <ele>1555.2</ele>
        <time>2024-09-25T10:40:34Z</time>
      </trkpt>
      <trkpt lat="42.37667" lon="2.19911">
        <ele>1555.3</ele>
        <time>2024-09-25T10:40:35Z</time>
      </trkpt>
      <trkpt lat="42.37667" lon="2.19913">
        <ele>1555.4</ele>
        <time>2024-09-25T10:40:36Z</time>
      </trkpt>
      <trkpt lat="42.37667" lon="2.19915">
        <ele>1555.5</ele>
        <time>2024-09-25T10:40:37Z</time>
      </trkpt>
      <trkpt lat="42.37667" lon="2.19918">
        <ele>1555.6</ele>
        <time>2024-09-25T10:40:38Z</time>
      </trkpt>
      <trkpt lat="42.37667" lon="2.19919">
        <ele>1555.7</ele>
        <time>2024-09-25T10:40:39Z</time>
      </trkpt>
      <trkpt lat="42.37667" lon="2.19921">
        <ele>1555.8</ele>
        <time>2024-09-25T10:40:40Z</time>
      </trkpt>
      <trkpt lat="42.37667" lon="2.19922">
        <ele>1555.8</ele>
        <time>2024-09-25T10:40:41Z</time>
      </trkpt>
      <trkpt lat="42.37667" lon="2.19923">
        <ele>1555.9</ele>
        <time>2024-09-25T10:40:42Z</time>
      </trkpt>
      <trkpt lat="42.37665" lon="2.19924">
        <ele>1556</ele>
        <time>2024-09-25T10:40:43Z</time>
      </trkpt>
      <trkpt lat="42.37664" lon="2.19925">
        <ele>1556.1</ele>
        <time>2024-09-25T10:40:44Z</time>
      </trkpt>
      <trkpt lat="42.37664" lon="2.19926">
        <ele>1556.1</ele>
        <time>2024-09-25T10:40:45Z</time>
      </trkpt>
      <trkpt lat="42.37664" lon="2.19926">
        <ele>1556.1</ele>
        <time>2024-09-25T10:40:46Z</time>
      </trkpt>
      <trkpt lat="42.37664" lon="2.19927">
        <ele>1556.2</ele>
        <time>2024-09-25T10:40:47Z</time>
      </trkpt>
      <trkpt lat="42.37664" lon="2.19928">
        <ele>1556.2</ele>
        <time>2024-09-25T10:40:48Z</time>
      </trkpt>
      <trkpt lat="42.37664" lon="2.19928">
        <ele>1556.2</ele>
        <time>2024-09-25T10:40:49Z</time>
      </trkpt>
      <trkpt lat="42.37664" lon="2.19928">
        <ele>1556.2</ele>
        <time>2024-09-25T10:40:50Z</time>
      </trkpt>
      <trkpt lat="42.37664" lon="2.19928">
        <ele>1556.3</ele>
        <time>2024-09-25T10:40:51Z</time>
      </trkpt>
      <trkpt lat="42.37664" lon="2.19928">
        <ele>1556.3</ele>
        <time>2024-09-25T10:40:52Z</time>
      </trkpt>
      <trkpt lat="42.37664" lon="2.19928">
        <ele>1556.3</ele>
        <time>2024-09-25T10:40:53Z</time>
      </trkpt>
      <trkpt lat="42.37664" lon="2.19929">
        <ele>1556.3</ele>
        <time>2024-09-25T10:40:54Z</time>
      </trkpt>
      <trkpt lat="42.37664" lon="2.19929">
        <ele>1556.3</ele>
        <time>2024-09-25T10:40:55Z</time>
      </trkpt>
      <trkpt lat="42.37664" lon="2.19929">
        <ele>1556.3</ele>
        <time>2024-09-25T10:40:56Z</time>
      </trkpt>
      <trkpt lat="42.37664" lon="2.19929">
        <ele>1556.3</ele>
        <time>2024-09-25T10:40:57Z</time>
      </trkpt>
      <trkpt lat="42.37664" lon="2.1993">
        <ele>1556.4</ele>
        <time>2024-09-25T10:40:58Z</time>
      </trkpt>
      <trkpt lat="42.37664" lon="2.1993">
        <ele>1556.4</ele>
        <time>2024-09-25T10:40:59Z</time>
      </trkpt>
      <trkpt lat="42.37663" lon="2.19931">
        <ele>1556.5</ele>
        <time>2024-09-25T10:41:00Z</time>
      </trkpt>
      <trkpt lat="42.37663" lon="2.19933">
        <ele>1556.6</ele>
        <time>2024-09-25T10:41:01Z</time>
      </trkpt>
      <trkpt lat="42.37663" lon="2.19934">
        <ele>1556.6</ele>
        <time>2024-09-25T10:41:02Z</time>
      </trkpt>
      <trkpt lat="42.37663" lon="2.19935">
        <ele>1556.7</ele>
        <time>2024-09-25T10:41:03Z</time>
      </trkpt>
      <trkpt lat="42.37663" lon="2.19936">
        <ele>1556.8</ele>
        <time>2024-09-25T10:41:04Z</time>
      </trkpt>
      <trkpt lat="42.37664" lon="2.19937">
        <ele>1556.8</ele>
        <time>2024-09-25T10:41:05Z</time>
      </trkpt>
      <trkpt lat="42.37664" lon="2.19938">
        <ele>1556.9</ele>
        <time>2024-09-25T10:41:06Z</time>
      </trkpt>
      <trkpt lat="42.37665" lon="2.19939">
        <ele>1557</ele>
        <time>2024-09-25T10:41:07Z</time>
      </trkpt>
      <trkpt lat="42.37665" lon="2.19939">
        <ele>1557</ele>
        <time>2024-09-25T10:41:08Z</time>
      </trkpt>
      <trkpt lat="42.37665" lon="2.1994">
        <ele>1557</ele>
        <time>2024-09-25T10:41:09Z</time>
      </trkpt>
      <trkpt lat="42.37665" lon="2.19941">
        <ele>1557.1</ele>
        <time>2024-09-25T10:41:10Z</time>
      </trkpt>
      <trkpt lat="42.37665" lon="2.19942">
        <ele>1557.2</ele>
        <time>2024-09-25T10:41:11Z</time>
      </trkpt>
      <trkpt lat="42.37665" lon="2.19943">
        <ele>1557.2</ele>
        <time>2024-09-25T10:41:12Z</time>
      </trkpt>
      <trkpt lat="42.37665" lon="2.19943">
        <ele>1557.2</ele>
        <time>2024-09-25T10:41:13Z</time>
      </trkpt>
      <trkpt lat="42.37665" lon="2.19944">
        <ele>1557.3</ele>
        <time>2024-09-25T10:41:14Z</time>
      </trkpt>
      <trkpt lat="42.37665" lon="2.19945">
        <ele>1557.3</ele>
        <time>2024-09-25T10:41:15Z</time>
      </trkpt>
      <trkpt lat="42.37665" lon="2.19945">
        <ele>1557.4</ele>
        <time>2024-09-25T10:41:16Z</time>
      </trkpt>
      <trkpt lat="42.37666" lon="2.19946">
        <ele>1557.4</ele>
        <time>2024-09-25T10:41:17Z</time>
      </trkpt>
      <trkpt lat="42.37666" lon="2.19947">
        <ele>1557.5</ele>
        <time>2024-09-25T10:41:18Z</time>
      </trkpt>
      <trkpt lat="42.37666" lon="2.19948">
        <ele>1557.5</ele>
        <time>2024-09-25T10:41:19Z</time>
      </trkpt>
      <trkpt lat="42.37666" lon="2.19949">
        <ele>1557.6</ele>
        <time>2024-09-25T10:41:20Z</time>
      </trkpt>
      <trkpt lat="42.37666" lon="2.1995">
        <ele>1557.7</ele>
        <time>2024-09-25T10:41:21Z</time>
      </trkpt>
      <trkpt lat="42.37666" lon="2.1995">
        <ele>1557.7</ele>
        <time>2024-09-25T10:41:22Z</time>
      </trkpt>
      <trkpt lat="42.37666" lon="2.1995">
        <ele>1557.7</ele>
        <time>2024-09-25T10:41:23Z</time>
      </trkpt>
      <trkpt lat="42.37666" lon="2.1995">
        <ele>1557.7</ele>
        <time>2024-09-25T10:41:24Z</time>
      </trkpt>
      <trkpt lat="42.37666" lon="2.19951">
        <ele>1557.7</ele>
        <time>2024-09-25T10:41:25Z</time>
      </trkpt>
      <trkpt lat="42.37665" lon="2.19951">
        <ele>1557.7</ele>
        <time>2024-09-25T10:41:26Z</time>
      </trkpt>
      <trkpt lat="42.37665" lon="2.19951">
        <ele>1557.7</ele>
        <time>2024-09-25T10:41:27Z</time>
      </trkpt>
      <trkpt lat="42.37666" lon="2.19951">
        <ele>1557.8</ele>
        <time>2024-09-25T10:41:28Z</time>
      </trkpt>
      <trkpt lat="42.37666" lon="2.19952">
        <ele>1557.8</ele>
        <time>2024-09-25T10:41:29Z</time>
      </trkpt>
      <trkpt lat="42.37666" lon="2.19952">
        <ele>1557.8</ele>
        <time>2024-09-25T10:41:30Z</time>
      </trkpt>
      <trkpt lat="42.37666" lon="2.19953">
        <ele>1557.9</ele>
        <time>2024-09-25T10:41:31Z</time>
      </trkpt>
      <trkpt lat="42.37666" lon="2.19954">
        <ele>1557.9</ele>
        <time>2024-09-25T10:41:32Z</time>
      </trkpt>
      <trkpt lat="42.37665" lon="2.19954">
        <ele>1557.9</ele>
        <time>2024-09-25T10:41:33Z</time>
      </trkpt>
      <trkpt lat="42.37665" lon="2.19955">
        <ele>1558</ele>
        <time>2024-09-25T10:41:34Z</time>
      </trkpt>
      <trkpt lat="42.37665" lon="2.19955">
        <ele>1558</ele>
        <time>2024-09-25T10:41:35Z</time>
      </trkpt>
      <trkpt lat="42.37666" lon="2.19956">
        <ele>1558</ele>
        <time>2024-09-25T10:41:36Z</time>
      </trkpt>
      <trkpt lat="42.37666" lon="2.19956">
        <ele>1558.1</ele>
        <time>2024-09-25T10:41:37Z</time>
      </trkpt>
      <trkpt lat="42.37666" lon="2.19956">
        <ele>1558.1</ele>
        <time>2024-09-25T10:41:38Z</time>
      </trkpt>
      <trkpt lat="42.37666" lon="2.19956">
        <ele>1558.1</ele>
        <time>2024-09-25T10:41:39Z</time>
      </trkpt>
      <trkpt lat="42.37666" lon="2.19956">
        <ele>1558.1</ele>
        <time>2024-09-25T10:41:40Z</time>
      </trkpt>
      <trkpt lat="42.37666" lon="2.19957">
        <ele>1558.1</ele>
        <time>2024-09-25T10:41:41Z</time>
      </trkpt>
      <trkpt lat="42.37666" lon="2.19957">
        <ele>1558.1</ele>
        <time>2024-09-25T10:41:42Z</time>
      </trkpt>
      <trkpt lat="42.37666" lon="2.19957">
        <ele>1558.1</ele>
        <time>2024-09-25T10:41:43Z</time>
      </trkpt>
      <trkpt lat="42.37666" lon="2.19957">
        <ele>1558.1</ele>
        <time>2024-09-25T10:41:44Z</time>
      </trkpt>
      <trkpt lat="42.37666" lon="2.19957">
        <ele>1558.1</ele>
        <time>2024-09-25T10:41:45Z</time>
      </trkpt>
      <trkpt lat="42.37666" lon="2.19957">
        <ele>1558.1</ele>
        <time>2024-09-25T10:41:46Z</time>
      </trkpt>
      <trkpt lat="42.37666" lon="2.19957">
        <ele>1558.1</ele>
        <time>2024-09-25T10:41:47Z</time>
      </trkpt>
      <trkpt lat="42.37666" lon="2.19957">
        <ele>1558.1</ele>
        <time>2024-09-25T10:41:48Z</time>
      </trkpt>
      <trkpt lat="42.37666" lon="2.19957">
        <ele>1558.2</ele>
        <time>2024-09-25T10:41:49Z</time>
      </trkpt>
      <trkpt lat="42.37666" lon="2.19957">
        <ele>1558.2</ele>
        <time>2024-09-25T10:41:50Z</time>
      </trkpt>
      <trkpt lat="42.37666" lon="2.19957">
        <ele>1558.2</ele>
        <time>2024-09-25T10:41:51Z</time>
      </trkpt>
      <trkpt lat="42.37666" lon="2.19957">
        <ele>1558.2</ele>
        <time>2024-09-25T10:41:52Z</time>
      </trkpt>
      <trkpt lat="42.37666" lon="2.19958">
        <ele>1558.2</ele>
        <time>2024-09-25T10:41:53Z</time>
      </trkpt>
      <trkpt lat="42.37667" lon="2.19958">
        <ele>1558.2</ele>
        <time>2024-09-25T10:41:54Z</time>
      </trkpt>
      <trkpt lat="42.37667" lon="2.19959">
        <ele>1558.3</ele>
        <time>2024-09-25T10:41:55Z</time>
      </trkpt>
      <trkpt lat="42.37667" lon="2.1996">
        <ele>1558.4</ele>
        <time>2024-09-25T10:41:56Z</time>
      </trkpt>
      <trkpt lat="42.37667" lon="2.19961">
        <ele>1558.4</ele>
        <time>2024-09-25T10:41:57Z</time>
      </trkpt>
      <trkpt lat="42.37667" lon="2.1996">
        <ele>1558.5</ele>
        <time>2024-09-25T10:41:58Z</time>
      </trkpt>
      <trkpt lat="42.37667" lon="2.19962">
        <ele>1558.6</ele>
        <time>2024-09-25T10:41:59Z</time>
      </trkpt>
      <trkpt lat="42.37667" lon="2.19963">
        <ele>1558.7</ele>
        <time>2024-09-25T10:42:00Z</time>
      </trkpt>
      <trkpt lat="42.37667" lon="2.19964">
        <ele>1558.7</ele>
        <time>2024-09-25T10:42:01Z</time>
      </trkpt>
      <trkpt lat="42.37668" lon="2.19965">
        <ele>1558.9</ele>
        <time>2024-09-25T10:42:02Z</time>
      </trkpt>
      <trkpt lat="42.37668" lon="2.19967">
        <ele>1559</ele>
        <time>2024-09-25T10:42:03Z</time>
      </trkpt>
      <trkpt lat="42.37668" lon="2.19968">
        <ele>1559</ele>
        <time>2024-09-25T10:42:04Z</time>
      </trkpt>
      <trkpt lat="42.37668" lon="2.1997">
        <ele>1559.2</ele>
        <time>2024-09-25T10:42:05Z</time>
      </trkpt>
      <trkpt lat="42.37669" lon="2.19971">
        <ele>1559.3</ele>
        <time>2024-09-25T10:42:06Z</time>
      </trkpt>
      <trkpt lat="42.37669" lon="2.19972">
        <ele>1559.4</ele>
        <time>2024-09-25T10:42:07Z</time>
      </trkpt>
      <trkpt lat="42.37668" lon="2.19973">
        <ele>1559.4</ele>
        <time>2024-09-25T10:42:08Z</time>
      </trkpt>
      <trkpt lat="42.37668" lon="2.19974">
        <ele>1559.5</ele>
        <time>2024-09-25T10:42:09Z</time>
      </trkpt>
      <trkpt lat="42.37668" lon="2.19975">
        <ele>1559.6</ele>
        <time>2024-09-25T10:42:10Z</time>
      </trkpt>
      <trkpt lat="42.37668" lon="2.19976">
        <ele>1559.7</ele>
        <time>2024-09-25T10:42:11Z</time>
      </trkpt>
      <trkpt lat="42.37668" lon="2.19978">
        <ele>1559.8</ele>
        <time>2024-09-25T10:42:12Z</time>
      </trkpt>
      <trkpt lat="42.37668" lon="2.19979">
        <ele>1559.8</ele>
        <time>2024-09-25T10:42:13Z</time>
      </trkpt>
      <trkpt lat="42.37668" lon="2.1998">
        <ele>1559.9</ele>
        <time>2024-09-25T10:42:14Z</time>
      </trkpt>
      <trkpt lat="42.37668" lon="2.19981">
        <ele>1560</ele>
        <time>2024-09-25T10:42:15Z</time>
      </trkpt>
      <trkpt lat="42.37668" lon="2.19982">
        <ele>1560.1</ele>
        <time>2024-09-25T10:42:16Z</time>
      </trkpt>
      <trkpt lat="42.37668" lon="2.19983">
        <ele>1560.2</ele>
        <time>2024-09-25T10:42:17Z</time>
      </trkpt>
      <trkpt lat="42.37668" lon="2.19983">
        <ele>1560.2</ele>
        <time>2024-09-25T10:42:18Z</time>
      </trkpt>
      <trkpt lat="42.37668" lon="2.19984">
        <ele>1560.3</ele>
        <time>2024-09-25T10:42:19Z</time>
      </trkpt>
      <trkpt lat="42.37668" lon="2.19985">
        <ele>1560.4</ele>
        <time>2024-09-25T10:42:20Z</time>
      </trkpt>
      <trkpt lat="42.37668" lon="2.19986">
        <ele>1560.4</ele>
        <time>2024-09-25T10:42:21Z</time>
      </trkpt>
      <trkpt lat="42.37667" lon="2.19987">
        <ele>1560.5</ele>
        <time>2024-09-25T10:42:22Z</time>
      </trkpt>
      <trkpt lat="42.37667" lon="2.19988">
        <ele>1560.6</ele>
        <time>2024-09-25T10:42:23Z</time>
      </trkpt>
      <trkpt lat="42.37667" lon="2.19988">
        <ele>1560.7</ele>
        <time>2024-09-25T10:42:24Z</time>
      </trkpt>
      <trkpt lat="42.37667" lon="2.19989">
        <ele>1560.7</ele>
        <time>2024-09-25T10:42:25Z</time>
      </trkpt>
      <trkpt lat="42.37666" lon="2.1999">
        <ele>1560.8</ele>
        <time>2024-09-25T10:42:26Z</time>
      </trkpt>
      <trkpt lat="42.37666" lon="2.19991">
        <ele>1560.9</ele>
        <time>2024-09-25T10:42:27Z</time>
      </trkpt>
      <trkpt lat="42.37666" lon="2.19991">
        <ele>1560.9</ele>
        <time>2024-09-25T10:42:28Z</time>
      </trkpt>
      <trkpt lat="42.37666" lon="2.19992">
        <ele>1561</ele>
        <time>2024-09-25T10:42:29Z</time>
      </trkpt>
      <trkpt lat="42.37666" lon="2.19994">
        <ele>1561.1</ele>
        <time>2024-09-25T10:42:30Z</time>
      </trkpt>
      <trkpt lat="42.37666" lon="2.19995">
        <ele>1561.2</ele>
        <time>2024-09-25T10:42:31Z</time>
      </trkpt>
      <trkpt lat="42.37666" lon="2.19996">
        <ele>1561.3</ele>
        <time>2024-09-25T10:42:32Z</time>
      </trkpt>
      <trkpt lat="42.37666" lon="2.19997">
        <ele>1561.4</ele>
        <time>2024-09-25T10:42:33Z</time>
      </trkpt>
      <trkpt lat="42.37666" lon="2.19998">
        <ele>1561.4</ele>
        <time>2024-09-25T10:42:34Z</time>
      </trkpt>
      <trkpt lat="42.37666" lon="2.19999">
        <ele>1561.5</ele>
        <time>2024-09-25T10:42:35Z</time>
      </trkpt>
      <trkpt lat="42.37667" lon="2.2">
        <ele>1561.6</ele>
        <time>2024-09-25T10:42:36Z</time>
      </trkpt>
      <trkpt lat="42.37667" lon="2.20001">
        <ele>1561.7</ele>
        <time>2024-09-25T10:42:37Z</time>
      </trkpt>
      <trkpt lat="42.37667" lon="2.20002">
        <ele>1561.8</ele>
        <time>2024-09-25T10:42:38Z</time>
      </trkpt>
      <trkpt lat="42.37668" lon="2.20002">
        <ele>1561.9</ele>
        <time>2024-09-25T10:42:39Z</time>
      </trkpt>
      <trkpt lat="42.37668" lon="2.20003">
        <ele>1561.9</ele>
        <time>2024-09-25T10:42:40Z</time>
      </trkpt>
      <trkpt lat="42.37669" lon="2.20004">
        <ele>1562</ele>
        <time>2024-09-25T10:42:41Z</time>
      </trkpt>
      <trkpt lat="42.37669" lon="2.20005">
        <ele>1562.1</ele>
        <time>2024-09-25T10:42:42Z</time>
      </trkpt>
      <trkpt lat="42.37669" lon="2.20005">
        <ele>1562.1</ele>
        <time>2024-09-25T10:42:43Z</time>
      </trkpt>
      <trkpt lat="42.37669" lon="2.20004">
        <ele>1562.2</ele>
        <time>2024-09-25T10:42:44Z</time>
      </trkpt>
      <trkpt lat="42.37669" lon="2.20003">
        <ele>1562.2</ele>
        <time>2024-09-25T10:42:45Z</time>
      </trkpt>
      <trkpt lat="42.37668" lon="2.20003">
        <ele>1562.2</ele>
        <time>2024-09-25T10:42:46Z</time>
      </trkpt>
      <trkpt lat="42.37668" lon="2.20004">
        <ele>1562.2</ele>
        <time>2024-09-25T10:42:47Z</time>
      </trkpt>
      <trkpt lat="42.37668" lon="2.20004">
        <ele>1562.3</ele>
        <time>2024-09-25T10:42:48Z</time>
      </trkpt>
      <trkpt lat="42.37668" lon="2.20004">
        <ele>1562.3</ele>
        <time>2024-09-25T10:42:49Z</time>
      </trkpt>
      <trkpt lat="42.37667" lon="2.20005">
        <ele>1562.4</ele>
        <time>2024-09-25T10:42:50Z</time>
      </trkpt>
      <trkpt lat="42.37666" lon="2.20006">
        <ele>1562.6</ele>
        <time>2024-09-25T10:42:51Z</time>
      </trkpt>
      <trkpt lat="42.37665" lon="2.20007">
        <ele>1562.6</ele>
        <time>2024-09-25T10:42:52Z</time>
      </trkpt>
      <trkpt lat="42.37665" lon="2.20008">
        <ele>1562.7</ele>
        <time>2024-09-25T10:42:53Z</time>
      </trkpt>
      <trkpt lat="42.37664" lon="2.20009">
        <ele>1562.8</ele>
        <time>2024-09-25T10:42:54Z</time>
      </trkpt>
      <trkpt lat="42.37663" lon="2.2001">
        <ele>1562.9</ele>
        <time>2024-09-25T10:42:55Z</time>
      </trkpt>
      <trkpt lat="42.37663" lon="2.2001">
        <ele>1562.9</ele>
        <time>2024-09-25T10:42:56Z</time>
      </trkpt>
      <trkpt lat="42.37663" lon="2.20011">
        <ele>1563</ele>
        <time>2024-09-25T10:42:57Z</time>
      </trkpt>
      <trkpt lat="42.37663" lon="2.20012">
        <ele>1563.1</ele>
        <time>2024-09-25T10:42:58Z</time>
      </trkpt>
      <trkpt lat="42.37663" lon="2.20013">
        <ele>1563.1</ele>
        <time>2024-09-25T10:42:59Z</time>
      </trkpt>
      <trkpt lat="42.37664" lon="2.20014">
        <ele>1563.2</ele>
        <time>2024-09-25T10:43:00Z</time>
      </trkpt>
      <trkpt lat="42.37664" lon="2.20015">
        <ele>1563.3</ele>
        <time>2024-09-25T10:43:01Z</time>
      </trkpt>
      <trkpt lat="42.37665" lon="2.20016">
        <ele>1563.4</ele>
        <time>2024-09-25T10:43:02Z</time>
      </trkpt>
      <trkpt lat="42.37665" lon="2.20018">
        <ele>1563.4</ele>
        <time>2024-09-25T10:43:03Z</time>
      </trkpt>
      <trkpt lat="42.37665" lon="2.20019">
        <ele>1563.5</ele>
        <time>2024-09-25T10:43:04Z</time>
      </trkpt>
      <trkpt lat="42.37665" lon="2.20019">
        <ele>1563.5</ele>
        <time>2024-09-25T10:43:05Z</time>
      </trkpt>
      <trkpt lat="42.37665" lon="2.2002">
        <ele>1563.5</ele>
        <time>2024-09-25T10:43:06Z</time>
      </trkpt>
      <trkpt lat="42.37665" lon="2.2002">
        <ele>1563.6</ele>
        <time>2024-09-25T10:43:07Z</time>
      </trkpt>
      <trkpt lat="42.37665" lon="2.2002">
        <ele>1563.6</ele>
        <time>2024-09-25T10:43:08Z</time>
      </trkpt>
      <trkpt lat="42.37665" lon="2.20021">
        <ele>1563.6</ele>
        <time>2024-09-25T10:43:09Z</time>
      </trkpt>
      <trkpt lat="42.37665" lon="2.20021">
        <ele>1563.6</ele>
        <time>2024-09-25T10:43:10Z</time>
      </trkpt>
      <trkpt lat="42.37665" lon="2.20022">
        <ele>1563.7</ele>
        <time>2024-09-25T10:43:11Z</time>
      </trkpt>
      <trkpt lat="42.37665" lon="2.20023">
        <ele>1563.7</ele>
        <time>2024-09-25T10:43:12Z</time>
      </trkpt>
      <trkpt lat="42.37665" lon="2.20024">
        <ele>1563.7</ele>
        <time>2024-09-25T10:43:13Z</time>
      </trkpt>
      <trkpt lat="42.37666" lon="2.20025">
        <ele>1563.8</ele>
        <time>2024-09-25T10:43:14Z</time>
      </trkpt>
      <trkpt lat="42.37667" lon="2.20027">
        <ele>1563.9</ele>
        <time>2024-09-25T10:43:15Z</time>
      </trkpt>
      <trkpt lat="42.37667" lon="2.20027">
        <ele>1563.9</ele>
        <time>2024-09-25T10:43:16Z</time>
      </trkpt>
      <trkpt lat="42.37668" lon="2.20028">
        <ele>1564</ele>
        <time>2024-09-25T10:43:17Z</time>
      </trkpt>
      <trkpt lat="42.37667" lon="2.20028">
        <ele>1564</ele>
        <time>2024-09-25T10:43:18Z</time>
      </trkpt>
      <trkpt lat="42.37667" lon="2.20027">
        <ele>1564</ele>
        <time>2024-09-25T10:43:19Z</time>
      </trkpt>
      <trkpt lat="42.37667" lon="2.20027">
        <ele>1564</ele>
        <time>2024-09-25T10:43:20Z</time>
      </trkpt>
      <trkpt lat="42.37668" lon="2.20026">
        <ele>1564.1</ele>
        <time>2024-09-25T10:43:21Z</time>
      </trkpt>
      <trkpt lat="42.37668" lon="2.20026">
        <ele>1564.1</ele>
        <time>2024-09-25T10:43:22Z</time>
      </trkpt>
      <trkpt lat="42.37669" lon="2.20026">
        <ele>1564.1</ele>
        <time>2024-09-25T10:43:23Z</time>
      </trkpt>
      <trkpt lat="42.37669" lon="2.20027">
        <ele>1564.1</ele>
        <time>2024-09-25T10:43:24Z</time>
      </trkpt>
      <trkpt lat="42.37669" lon="2.20028">
        <ele>1564.2</ele>
        <time>2024-09-25T10:43:25Z</time>
      </trkpt>
      <trkpt lat="42.37669" lon="2.20028">
        <ele>1564.2</ele>
        <time>2024-09-25T10:43:26Z</time>
      </trkpt>
      <trkpt lat="42.37669" lon="2.20029">
        <ele>1564.2</ele>
        <time>2024-09-25T10:43:27Z</time>
      </trkpt>
      <trkpt lat="42.37669" lon="2.20029">
        <ele>1564.2</ele>
        <time>2024-09-25T10:43:28Z</time>
      </trkpt>
      <trkpt lat="42.37669" lon="2.20029">
        <ele>1564.2</ele>
        <time>2024-09-25T10:43:29Z</time>
      </trkpt>
      <trkpt lat="42.37668" lon="2.20029">
        <ele>1564.2</ele>
        <time>2024-09-25T10:43:30Z</time>
      </trkpt>
      <trkpt lat="42.37668" lon="2.2003">
        <ele>1564.3</ele>
        <time>2024-09-25T10:43:31Z</time>
      </trkpt>
      <trkpt lat="42.37668" lon="2.2003">
        <ele>1564.3</ele>
        <time>2024-09-25T10:43:32Z</time>
      </trkpt>
      <trkpt lat="42.37668" lon="2.2003">
        <ele>1564.3</ele>
        <time>2024-09-25T10:43:33Z</time>
      </trkpt>
      <trkpt lat="42.37668" lon="2.2003">
        <ele>1564.3</ele>
        <time>2024-09-25T10:43:34Z</time>
      </trkpt>
      <trkpt lat="42.37668" lon="2.2003">
        <ele>1564.3</ele>
        <time>2024-09-25T10:43:35Z</time>
      </trkpt>
      <trkpt lat="42.37668" lon="2.2003">
        <ele>1564.3</ele>
        <time>2024-09-25T10:43:36Z</time>
      </trkpt>
      <trkpt lat="42.37668" lon="2.2003">
        <ele>1564.3</ele>
        <time>2024-09-25T10:43:37Z</time>
      </trkpt>
      <trkpt lat="42.37668" lon="2.2003">
        <ele>1564.3</ele>
        <time>2024-09-25T10:43:38Z</time>
      </trkpt>
      <trkpt lat="42.37668" lon="2.20031">
        <ele>1564.3</ele>
        <time>2024-09-25T10:43:39Z</time>
      </trkpt>
      <trkpt lat="42.37668" lon="2.20031">
        <ele>1564.3</ele>
        <time>2024-09-25T10:43:40Z</time>
      </trkpt>
      <trkpt lat="42.37668" lon="2.20031">
        <ele>1564.3</ele>
        <time>2024-09-25T10:43:41Z</time>
      </trkpt>
      <trkpt lat="42.37668" lon="2.20031">
        <ele>1564.3</ele>
        <time>2024-09-25T10:43:42Z</time>
      </trkpt>
      <trkpt lat="42.37668" lon="2.20031">
        <ele>1564.3</ele>
        <time>2024-09-25T10:43:43Z</time>
      </trkpt>
      <trkpt lat="42.37668" lon="2.20031">
        <ele>1564.3</ele>
        <time>2024-09-25T10:43:44Z</time>
      </trkpt>
      <trkpt lat="42.37667" lon="2.20032">
        <ele>1564.4</ele>
        <time>2024-09-25T10:43:45Z</time>
      </trkpt>
      <trkpt lat="42.37666" lon="2.20033">
        <ele>1564.4</ele>
        <time>2024-09-25T10:43:46Z</time>
      </trkpt>
      <trkpt lat="42.37666" lon="2.20033">
        <ele>1564.4</ele>
        <time>2024-09-25T10:43:47Z</time>
      </trkpt>
      <trkpt lat="42.37666" lon="2.20033">
        <ele>1564.4</ele>
        <time>2024-09-25T10:43:48Z</time>
      </trkpt>
      <trkpt lat="42.37665" lon="2.20033">
        <ele>1564.4</ele>
        <time>2024-09-25T10:43:49Z</time>
      </trkpt>
      <trkpt lat="42.37664" lon="2.20033">
        <ele>1564.5</ele>
        <time>2024-09-25T10:43:50Z</time>
      </trkpt>
      <trkpt lat="42.37664" lon="2.20033">
        <ele>1564.5</ele>
        <time>2024-09-25T10:43:51Z</time>
      </trkpt>
      <trkpt lat="42.37664" lon="2.20033">
        <ele>1564.5</ele>
        <time>2024-09-25T10:43:52Z</time>
      </trkpt>
      <trkpt lat="42.37664" lon="2.20033">
        <ele>1564.5</ele>
        <time>2024-09-25T10:43:53Z</time>
      </trkpt>
      <trkpt lat="42.37663" lon="2.20033">
        <ele>1564.5</ele>
        <time>2024-09-25T10:43:54Z</time>
      </trkpt>
      <trkpt lat="42.37663" lon="2.20033">
        <ele>1564.5</ele>
        <time>2024-09-25T10:43:55Z</time>
      </trkpt>
      <trkpt lat="42.37663" lon="2.20033">
        <ele>1564.5</ele>
        <time>2024-09-25T10:43:56Z</time>
      </trkpt>
      <trkpt lat="42.37662" lon="2.20034">
        <ele>1564.6</ele>
        <time>2024-09-25T10:43:57Z</time>
      </trkpt>
      <trkpt lat="42.37662" lon="2.20034">
        <ele>1564.6</ele>
        <time>2024-09-25T10:43:58Z</time>
      </trkpt>
      <trkpt lat="42.37662" lon="2.20034">
        <ele>1564.6</ele>
        <time>2024-09-25T10:43:59Z</time>
      </trkpt>
      <trkpt lat="42.37661" lon="2.20034">
        <ele>1564.6</ele>
        <time>2024-09-25T10:44:00Z</time>
      </trkpt>
      <trkpt lat="42.3766" lon="2.20035">
        <ele>1564.6</ele>
        <time>2024-09-25T10:44:01Z</time>
      </trkpt>
      <trkpt lat="42.37658" lon="2.20036">
        <ele>1564.6</ele>
        <time>2024-09-25T10:44:02Z</time>
      </trkpt>
      <trkpt lat="42.37658" lon="2.20036">
        <ele>1564.6</ele>
        <time>2024-09-25T10:44:03Z</time>
      </trkpt>
      <trkpt lat="42.37657" lon="2.20037">
        <ele>1564.6</ele>
        <time>2024-09-25T10:44:04Z</time>
      </trkpt>
      <trkpt lat="42.37657" lon="2.20037">
        <ele>1564.6</ele>
        <time>2024-09-25T10:44:05Z</time>
      </trkpt>
      <trkpt lat="42.37656" lon="2.20038">
        <ele>1564.6</ele>
        <time>2024-09-25T10:44:06Z</time>
      </trkpt>
      <trkpt lat="42.37656" lon="2.20038">
        <ele>1564.6</ele>
        <time>2024-09-25T10:44:07Z</time>
      </trkpt>
      <trkpt lat="42.37656" lon="2.20038">
        <ele>1564.6</ele>
        <time>2024-09-25T10:44:08Z</time>
      </trkpt>
      <trkpt lat="42.37656" lon="2.20038">
        <ele>1564.6</ele>
        <time>2024-09-25T10:44:09Z</time>
      </trkpt>
      <trkpt lat="42.37655" lon="2.20038">
        <ele>1564.6</ele>
        <time>2024-09-25T10:44:10Z</time>
      </trkpt>
      <trkpt lat="42.37655" lon="2.20039">
        <ele>1564.6</ele>
        <time>2024-09-25T10:44:11Z</time>
      </trkpt>
      <trkpt lat="42.37655" lon="2.20039">
        <ele>1564.6</ele>
        <time>2024-09-25T10:44:12Z</time>
      </trkpt>
      <trkpt lat="42.37655" lon="2.20039">
        <ele>1564.6</ele>
        <time>2024-09-25T10:44:13Z</time>
      </trkpt>
      <trkpt lat="42.37655" lon="2.20039">
        <ele>1564.6</ele>
        <time>2024-09-25T10:44:14Z</time>
      </trkpt>
      <trkpt lat="42.37655" lon="2.20039">
        <ele>1564.6</ele>
        <time>2024-09-25T10:44:15Z</time>
      </trkpt>
      <trkpt lat="42.37655" lon="2.20039">
        <ele>1564.6</ele>
        <time>2024-09-25T10:44:16Z</time>
      </trkpt>
      <trkpt lat="42.37655" lon="2.20039">
        <ele>1564.6</ele>
        <time>2024-09-25T10:44:17Z</time>
      </trkpt>
      <trkpt lat="42.37655" lon="2.20039">
        <ele>1564.6</ele>
        <time>2024-09-25T10:44:18Z</time>
      </trkpt>
      <trkpt lat="42.37655" lon="2.20039">
        <ele>1564.6</ele>
        <time>2024-09-25T10:44:19Z</time>
      </trkpt>
      <trkpt lat="42.37654" lon="2.20039">
        <ele>1564.6</ele>
        <time>2024-09-25T10:44:20Z</time>
      </trkpt>
      <trkpt lat="42.37654" lon="2.20039">
        <ele>1564.6</ele>
        <time>2024-09-25T10:44:21Z</time>
      </trkpt>
      <trkpt lat="42.37654" lon="2.20039">
        <ele>1564.6</ele>
        <time>2024-09-25T10:44:22Z</time>
      </trkpt>
      <trkpt lat="42.37654" lon="2.20039">
        <ele>1564.6</ele>
        <time>2024-09-25T10:44:23Z</time>
      </trkpt>
      <trkpt lat="42.37653" lon="2.2004">
        <ele>1564.6</ele>
        <time>2024-09-25T10:44:24Z</time>
      </trkpt>
      <trkpt lat="42.37653" lon="2.2004">
        <ele>1564.6</ele>
        <time>2024-09-25T10:44:25Z</time>
      </trkpt>
      <trkpt lat="42.37653" lon="2.2004">
        <ele>1564.6</ele>
        <time>2024-09-25T10:44:26Z</time>
      </trkpt>
      <trkpt lat="42.37653" lon="2.2004">
        <ele>1564.6</ele>
        <time>2024-09-25T10:44:27Z</time>
      </trkpt>
      <trkpt lat="42.37653" lon="2.2004">
        <ele>1564.6</ele>
        <time>2024-09-25T10:44:28Z</time>
      </trkpt>
      <trkpt lat="42.37653" lon="2.2004">
        <ele>1564.6</ele>
        <time>2024-09-25T10:44:29Z</time>
      </trkpt>
      <trkpt lat="42.37653" lon="2.2004">
        <ele>1564.6</ele>
        <time>2024-09-25T10:44:30Z</time>
      </trkpt>
      <trkpt lat="42.37653" lon="2.2004">
        <ele>1564.6</ele>
        <time>2024-09-25T10:44:31Z</time>
      </trkpt>
      <trkpt lat="42.37653" lon="2.2004">
        <ele>1564.6</ele>
        <time>2024-09-25T10:44:32Z</time>
      </trkpt>
      <trkpt lat="42.37653" lon="2.2004">
        <ele>1564.6</ele>
        <time>2024-09-25T10:44:33Z</time>
      </trkpt>
      <trkpt lat="42.37653" lon="2.2004">
        <ele>1564.6</ele>
        <time>2024-09-25T10:44:34Z</time>
      </trkpt>
      <trkpt lat="42.37653" lon="2.2004">
        <ele>1564.6</ele>
        <time>2024-09-25T10:44:35Z</time>
      </trkpt>
      <trkpt lat="42.37653" lon="2.2004">
        <ele>1564.6</ele>
        <time>2024-09-25T10:44:36Z</time>
      </trkpt>
      <trkpt lat="42.37653" lon="2.2004">
        <ele>1564.6</ele>
        <time>2024-09-25T10:44:37Z</time>
      </trkpt>
      <trkpt lat="42.37653" lon="2.20039">
        <ele>1564.7</ele>
        <time>2024-09-25T10:44:38Z</time>
      </trkpt>
      <trkpt lat="42.37654" lon="2.20039">
        <ele>1564.7</ele>
        <time>2024-09-25T10:44:39Z</time>
      </trkpt>
      <trkpt lat="42.37654" lon="2.20038">
        <ele>1564.7</ele>
        <time>2024-09-25T10:44:40Z</time>
      </trkpt>
      <trkpt lat="42.37655" lon="2.20038">
        <ele>1564.7</ele>
        <time>2024-09-25T10:44:41Z</time>
      </trkpt>
      <trkpt lat="42.37656" lon="2.20037">
        <ele>1564.7</ele>
        <time>2024-09-25T10:44:42Z</time>
      </trkpt>
      <trkpt lat="42.37657" lon="2.20037">
        <ele>1564.8</ele>
        <time>2024-09-25T10:44:43Z</time>
      </trkpt>
      <trkpt lat="42.37657" lon="2.20036">
        <ele>1564.8</ele>
        <time>2024-09-25T10:44:44Z</time>
      </trkpt>
      <trkpt lat="42.37658" lon="2.20036">
        <ele>1564.8</ele>
        <time>2024-09-25T10:44:45Z</time>
      </trkpt>
      <trkpt lat="42.37658" lon="2.20036">
        <ele>1564.8</ele>
        <time>2024-09-25T10:44:47Z</time>
      </trkpt>
      <trkpt lat="42.37658" lon="2.20036">
        <ele>1564.8</ele>
        <time>2024-09-25T10:44:48Z</time>
      </trkpt>
      <trkpt lat="42.37658" lon="2.20036">
        <ele>1564.8</ele>
        <time>2024-09-25T10:44:49Z</time>
      </trkpt>
      <trkpt lat="42.37658" lon="2.20036">
        <ele>1564.8</ele>
        <time>2024-09-25T10:44:50Z</time>
      </trkpt>
      <trkpt lat="42.37658" lon="2.20036">
        <ele>1564.8</ele>
        <time>2024-09-25T10:44:51Z</time>
      </trkpt>
      <trkpt lat="42.37659" lon="2.20036">
        <ele>1564.8</ele>
        <time>2024-09-25T10:44:52Z</time>
      </trkpt>
      <trkpt lat="42.37659" lon="2.20035">
        <ele>1564.8</ele>
        <time>2024-09-25T10:44:53Z</time>
      </trkpt>
      <trkpt lat="42.37659" lon="2.20035">
        <ele>1564.8</ele>
        <time>2024-09-25T10:44:54Z</time>
      </trkpt>
      <trkpt lat="42.37659" lon="2.20035">
        <ele>1564.8</ele>
        <time>2024-09-25T10:44:55Z</time>
      </trkpt>
      <trkpt lat="42.37659" lon="2.20035">
        <ele>1564.8</ele>
        <time>2024-09-25T10:44:56Z</time>
      </trkpt>
      <trkpt lat="42.37659" lon="2.20035">
        <ele>1564.8</ele>
        <time>2024-09-25T10:44:57Z</time>
      </trkpt>
      <trkpt lat="42.37659" lon="2.20035">
        <ele>1564.8</ele>
        <time>2024-09-25T10:44:58Z</time>
      </trkpt>
      <trkpt lat="42.37659" lon="2.20035">
        <ele>1564.8</ele>
        <time>2024-09-25T10:44:59Z</time>
      </trkpt>
      <trkpt lat="42.37658" lon="2.20035">
        <ele>1564.8</ele>
        <time>2024-09-25T10:45:00Z</time>
      </trkpt>
      <trkpt lat="42.37658" lon="2.20037">
        <ele>1564.9</ele>
        <time>2024-09-25T10:45:01Z</time>
      </trkpt>
      <trkpt lat="42.37657" lon="2.20038">
        <ele>1564.9</ele>
        <time>2024-09-25T10:45:02Z</time>
      </trkpt>
      <trkpt lat="42.37657" lon="2.20039">
        <ele>1565</ele>
        <time>2024-09-25T10:45:03Z</time>
      </trkpt>
      <trkpt lat="42.37656" lon="2.2004">
        <ele>1565</ele>
        <time>2024-09-25T10:45:04Z</time>
      </trkpt>
      <trkpt lat="42.37655" lon="2.20042">
        <ele>1565.1</ele>
        <time>2024-09-25T10:45:06Z</time>
      </trkpt>
      <trkpt lat="42.37655" lon="2.20043">
        <ele>1565.1</ele>
        <time>2024-09-25T10:45:07Z</time>
      </trkpt>
      <trkpt lat="42.37655" lon="2.20043">
        <ele>1565.1</ele>
        <time>2024-09-25T10:45:08Z</time>
      </trkpt>
      <trkpt lat="42.37655" lon="2.20043">
        <ele>1565.1</ele>
        <time>2024-09-25T10:45:09Z</time>
      </trkpt>
      <trkpt lat="42.37655" lon="2.20043">
        <ele>1565.1</ele>
        <time>2024-09-25T10:45:10Z</time>
      </trkpt>
      <trkpt lat="42.37655" lon="2.20043">
        <ele>1565.1</ele>
        <time>2024-09-25T10:45:11Z</time>
      </trkpt>
      <trkpt lat="42.37655" lon="2.20043">
        <ele>1565.1</ele>
        <time>2024-09-25T10:45:12Z</time>
      </trkpt>
      <trkpt lat="42.37655" lon="2.20043">
        <ele>1565.1</ele>
        <time>2024-09-25T10:45:13Z</time>
      </trkpt>
      <trkpt lat="42.37655" lon="2.20043">
        <ele>1565.1</ele>
        <time>2024-09-25T10:45:14Z</time>
      </trkpt>
      <trkpt lat="42.37655" lon="2.20043">
        <ele>1565.1</ele>
        <time>2024-09-25T10:45:15Z</time>
      </trkpt>
      <trkpt lat="42.37655" lon="2.20043">
        <ele>1565.1</ele>
        <time>2024-09-25T10:45:16Z</time>
      </trkpt>
      <trkpt lat="42.37655" lon="2.20044">
        <ele>1565.1</ele>
        <time>2024-09-25T10:45:17Z</time>
      </trkpt>
      <trkpt lat="42.37654" lon="2.20044">
        <ele>1565.1</ele>
        <time>2024-09-25T10:45:18Z</time>
      </trkpt>
      <trkpt lat="42.37654" lon="2.20044">
        <ele>1565.2</ele>
        <time>2024-09-25T10:45:19Z</time>
      </trkpt>
      <trkpt lat="42.37654" lon="2.20044">
        <ele>1565.2</ele>
        <time>2024-09-25T10:45:20Z</time>
      </trkpt>
      <trkpt lat="42.37654" lon="2.20044">
        <ele>1565.2</ele>
        <time>2024-09-25T10:45:21Z</time>
      </trkpt>
      <trkpt lat="42.37654" lon="2.20044">
        <ele>1565.2</ele>
        <time>2024-09-25T10:45:22Z</time>
      </trkpt>
      <trkpt lat="42.37654" lon="2.20043">
        <ele>1565.2</ele>
        <time>2024-09-25T10:45:23Z</time>
      </trkpt>
      <trkpt lat="42.37654" lon="2.20043">
        <ele>1565.2</ele>
        <time>2024-09-25T10:45:24Z</time>
      </trkpt>
      <trkpt lat="42.37654" lon="2.20043">
        <ele>1565.2</ele>
        <time>2024-09-25T10:45:25Z</time>
      </trkpt>
      <trkpt lat="42.37654" lon="2.20043">
        <ele>1565.2</ele>
        <time>2024-09-25T10:45:26Z</time>
      </trkpt>
      <trkpt lat="42.37654" lon="2.20043">
        <ele>1565.2</ele>
        <time>2024-09-25T10:45:27Z</time>
      </trkpt>
      <trkpt lat="42.37654" lon="2.20043">
        <ele>1565.2</ele>
        <time>2024-09-25T10:45:28Z</time>
      </trkpt>
      <trkpt lat="42.37654" lon="2.20043">
        <ele>1565.2</ele>
        <time>2024-09-25T10:45:29Z</time>
      </trkpt>
      <trkpt lat="42.37654" lon="2.20043">
        <ele>1565.2</ele>
        <time>2024-09-25T10:45:30Z</time>
      </trkpt>
      <trkpt lat="42.37654" lon="2.20043">
        <ele>1565.2</ele>
        <time>2024-09-25T10:45:31Z</time>
      </trkpt>
      <trkpt lat="42.37654" lon="2.20043">
        <ele>1565.2</ele>
        <time>2024-09-25T10:45:32Z</time>
      </trkpt>
      <trkpt lat="42.37654" lon="2.20043">
        <ele>1565.2</ele>
        <time>2024-09-25T10:45:33Z</time>
      </trkpt>
      <trkpt lat="42.37654" lon="2.20043">
        <ele>1565.2</ele>
        <time>2024-09-25T10:45:34Z</time>
      </trkpt>
      <trkpt lat="42.37654" lon="2.20043">
        <ele>1565.2</ele>
        <time>2024-09-25T10:45:35Z</time>
      </trkpt>
      <trkpt lat="42.37654" lon="2.20043">
        <ele>1565.2</ele>
        <time>2024-09-25T10:45:36Z</time>
      </trkpt>
      <trkpt lat="42.37654" lon="2.20043">
        <ele>1565.2</ele>
        <time>2024-09-25T10:45:37Z</time>
      </trkpt>
      <trkpt lat="42.37654" lon="2.20043">
        <ele>1565.2</ele>
        <time>2024-09-25T10:45:38Z</time>
      </trkpt>
      <trkpt lat="42.37654" lon="2.20043">
        <ele>1565.2</ele>
        <time>2024-09-25T10:45:39Z</time>
      </trkpt>
      <trkpt lat="42.37654" lon="2.20043">
        <ele>1565.2</ele>
        <time>2024-09-25T10:45:40Z</time>
      </trkpt>
      <trkpt lat="42.37654" lon="2.20043">
        <ele>1565.2</ele>
        <time>2024-09-25T10:45:41Z</time>
      </trkpt>
      <trkpt lat="42.37654" lon="2.20043">
        <ele>1565.2</ele>
        <time>2024-09-25T10:45:42Z</time>
      </trkpt>
      <trkpt lat="42.37654" lon="2.20043">
        <ele>1565.2</ele>
        <time>2024-09-25T10:45:43Z</time>
      </trkpt>
      <trkpt lat="42.37654" lon="2.20043">
        <ele>1565.2</ele>
        <time>2024-09-25T10:45:44Z</time>
      </trkpt>
      <trkpt lat="42.37653" lon="2.20043">
        <ele>1565.2</ele>
        <time>2024-09-25T10:45:45Z</time>
      </trkpt>
      <trkpt lat="42.37653" lon="2.20043">
        <ele>1565.3</ele>
        <time>2024-09-25T10:45:46Z</time>
      </trkpt>
      <trkpt lat="42.37652" lon="2.20044">
        <ele>1565.3</ele>
        <time>2024-09-25T10:45:47Z</time>
      </trkpt>
      <trkpt lat="42.37652" lon="2.20044">
        <ele>1565.3</ele>
        <time>2024-09-25T10:45:48Z</time>
      </trkpt>
      <trkpt lat="42.37651" lon="2.20045">
        <ele>1565.4</ele>
        <time>2024-09-25T10:45:49Z</time>
      </trkpt>
      <trkpt lat="42.37651" lon="2.20047">
        <ele>1565.5</ele>
        <time>2024-09-25T10:45:50Z</time>
      </trkpt>
      <trkpt lat="42.37649" lon="2.20048">
        <ele>1565.5</ele>
        <time>2024-09-25T10:45:51Z</time>
      </trkpt>
      <trkpt lat="42.37649" lon="2.20049">
        <ele>1565.6</ele>
        <time>2024-09-25T10:45:52Z</time>
      </trkpt>
      <trkpt lat="42.37649" lon="2.2005">
        <ele>1565.6</ele>
        <time>2024-09-25T10:45:53Z</time>
      </trkpt>
      <trkpt lat="42.37648" lon="2.20051">
        <ele>1565.7</ele>
        <time>2024-09-25T10:45:54Z</time>
      </trkpt>
      <trkpt lat="42.37648" lon="2.20052">
        <ele>1565.7</ele>
        <time>2024-09-25T10:45:55Z</time>
      </trkpt>
      <trkpt lat="42.37648" lon="2.20053">
        <ele>1565.8</ele>
        <time>2024-09-25T10:45:56Z</time>
      </trkpt>
      <trkpt lat="42.37648" lon="2.20054">
        <ele>1565.9</ele>
        <time>2024-09-25T10:45:57Z</time>
      </trkpt>
      <trkpt lat="42.37647" lon="2.20053">
        <ele>1565.9</ele>
        <time>2024-09-25T10:45:58Z</time>
      </trkpt>
      <trkpt lat="42.37647" lon="2.20053">
        <ele>1566</ele>
        <time>2024-09-25T10:45:59Z</time>
      </trkpt>
      <trkpt lat="42.37647" lon="2.20053">
        <ele>1566</ele>
        <time>2024-09-25T10:46:00Z</time>
      </trkpt>
      <trkpt lat="42.37647" lon="2.20052">
        <ele>1566</ele>
        <time>2024-09-25T10:46:01Z</time>
      </trkpt>
      <trkpt lat="42.37647" lon="2.20051">
        <ele>1566.1</ele>
        <time>2024-09-25T10:46:02Z</time>
      </trkpt>
      <trkpt lat="42.37647" lon="2.20051">
        <ele>1566.1</ele>
        <time>2024-09-25T10:46:03Z</time>
      </trkpt>
      <trkpt lat="42.37647" lon="2.2005">
        <ele>1566.1</ele>
        <time>2024-09-25T10:46:04Z</time>
      </trkpt>
      <trkpt lat="42.37647" lon="2.2005">
        <ele>1566.1</ele>
        <time>2024-09-25T10:46:05Z</time>
      </trkpt>
      <trkpt lat="42.37647" lon="2.2005">
        <ele>1566.2</ele>
        <time>2024-09-25T10:46:06Z</time>
      </trkpt>
      <trkpt lat="42.37647" lon="2.2005">
        <ele>1566.2</ele>
        <time>2024-09-25T10:46:07Z</time>
      </trkpt>
      <trkpt lat="42.37647" lon="2.2005">
        <ele>1566.2</ele>
        <time>2024-09-25T10:46:08Z</time>
      </trkpt>
      <trkpt lat="42.37647" lon="2.2005">
        <ele>1566.2</ele>
        <time>2024-09-25T10:46:09Z</time>
      </trkpt>
      <trkpt lat="42.37647" lon="2.2005">
        <ele>1566.2</ele>
        <time>2024-09-25T10:46:10Z</time>
      </trkpt>
      <trkpt lat="42.37647" lon="2.2005">
        <ele>1566.2</ele>
        <time>2024-09-25T10:46:11Z</time>
      </trkpt>
      <trkpt lat="42.37647" lon="2.2005">
        <ele>1566.2</ele>
        <time>2024-09-25T10:46:12Z</time>
      </trkpt>
      <trkpt lat="42.37647" lon="2.2005">
        <ele>1566.2</ele>
        <time>2024-09-25T10:46:13Z</time>
      </trkpt>
      <trkpt lat="42.37647" lon="2.2005">
        <ele>1566.2</ele>
        <time>2024-09-25T10:46:14Z</time>
      </trkpt>
      <trkpt lat="42.37647" lon="2.2005">
        <ele>1566.2</ele>
        <time>2024-09-25T10:46:15Z</time>
      </trkpt>
      <trkpt lat="42.37647" lon="2.2005">
        <ele>1566.2</ele>
        <time>2024-09-25T10:46:16Z</time>
      </trkpt>
      <trkpt lat="42.37647" lon="2.20049">
        <ele>1566.2</ele>
        <time>2024-09-25T10:46:17Z</time>
      </trkpt>
      <trkpt lat="42.37647" lon="2.20049">
        <ele>1566.2</ele>
        <time>2024-09-25T10:46:18Z</time>
      </trkpt>
      <trkpt lat="42.37647" lon="2.20049">
        <ele>1566.2</ele>
        <time>2024-09-25T10:46:19Z</time>
      </trkpt>
      <trkpt lat="42.37647" lon="2.20049">
        <ele>1566.2</ele>
        <time>2024-09-25T10:46:20Z</time>
      </trkpt>
      <trkpt lat="42.37647" lon="2.20049">
        <ele>1566.2</ele>
        <time>2024-09-25T10:46:21Z</time>
      </trkpt>
      <trkpt lat="42.37647" lon="2.20049">
        <ele>1566.2</ele>
        <time>2024-09-25T10:46:22Z</time>
      </trkpt>
      <trkpt lat="42.37647" lon="2.20049">
        <ele>1566.2</ele>
        <time>2024-09-25T10:46:23Z</time>
      </trkpt>
      <trkpt lat="42.37647" lon="2.20049">
        <ele>1566.2</ele>
        <time>2024-09-25T10:46:24Z</time>
      </trkpt>
      <trkpt lat="42.37647" lon="2.20049">
        <ele>1566.2</ele>
        <time>2024-09-25T10:46:25Z</time>
      </trkpt>
      <trkpt lat="42.37647" lon="2.20049">
        <ele>1566.2</ele>
        <time>2024-09-25T10:46:26Z</time>
      </trkpt>
      <trkpt lat="42.37647" lon="2.20049">
        <ele>1566.3</ele>
        <time>2024-09-25T10:46:27Z</time>
      </trkpt>
      <trkpt lat="42.37647" lon="2.20048">
        <ele>1566.3</ele>
        <time>2024-09-25T10:46:28Z</time>
      </trkpt>
      <trkpt lat="42.37646" lon="2.20048">
        <ele>1566.3</ele>
        <time>2024-09-25T10:46:29Z</time>
      </trkpt>
      <trkpt lat="42.37647" lon="2.20049">
        <ele>1566.5</ele>
        <time>2024-09-25T10:46:30Z</time>
      </trkpt>
      <trkpt lat="42.37647" lon="2.20049">
        <ele>1566.5</ele>
        <time>2024-09-25T10:46:31Z</time>
      </trkpt>
      <trkpt lat="42.37647" lon="2.20049">
        <ele>1566.5</ele>
        <time>2024-09-25T10:46:32Z</time>
      </trkpt>
      <trkpt lat="42.37646" lon="2.20049">
        <ele>1566.5</ele>
        <time>2024-09-25T10:46:33Z</time>
      </trkpt>
      <trkpt lat="42.37646" lon="2.20048">
        <ele>1566.6</ele>
        <time>2024-09-25T10:46:34Z</time>
      </trkpt>
      <trkpt lat="42.37645" lon="2.20048">
        <ele>1566.6</ele>
        <time>2024-09-25T10:46:35Z</time>
      </trkpt>
      <trkpt lat="42.37644" lon="2.20048">
        <ele>1566.7</ele>
        <time>2024-09-25T10:46:36Z</time>
      </trkpt>
      <trkpt lat="42.37643" lon="2.20048">
        <ele>1566.8</ele>
        <time>2024-09-25T10:46:37Z</time>
      </trkpt>
      <trkpt lat="42.37642" lon="2.20048">
        <ele>1567</ele>
        <time>2024-09-25T10:46:38Z</time>
      </trkpt>
      <trkpt lat="42.37642" lon="2.20048">
        <ele>1567</ele>
        <time>2024-09-25T10:46:39Z</time>
      </trkpt>
      <trkpt lat="42.37642" lon="2.2005">
        <ele>1567.1</ele>
        <time>2024-09-25T10:46:40Z</time>
      </trkpt>
      <trkpt lat="42.37642" lon="2.20051">
        <ele>1567.2</ele>
        <time>2024-09-25T10:46:41Z</time>
      </trkpt>
      <trkpt lat="42.37641" lon="2.20052">
        <ele>1567.3</ele>
        <time>2024-09-25T10:46:42Z</time>
      </trkpt>
      <trkpt lat="42.37641" lon="2.20053">
        <ele>1567.4</ele>
        <time>2024-09-25T10:46:43Z</time>
      </trkpt>
      <trkpt lat="42.3764" lon="2.20054">
        <ele>1567.5</ele>
        <time>2024-09-25T10:46:44Z</time>
      </trkpt>
      <trkpt lat="42.37639" lon="2.20055">
        <ele>1567.6</ele>
        <time>2024-09-25T10:46:45Z</time>
      </trkpt>
      <trkpt lat="42.37639" lon="2.20055">
        <ele>1567.7</ele>
        <time>2024-09-25T10:46:46Z</time>
      </trkpt>
      <trkpt lat="42.37639" lon="2.20055">
        <ele>1567.7</ele>
        <time>2024-09-25T10:46:47Z</time>
      </trkpt>
      <trkpt lat="42.37639" lon="2.20055">
        <ele>1567.7</ele>
        <time>2024-09-25T10:46:48Z</time>
      </trkpt>
      <trkpt lat="42.37638" lon="2.20055">
        <ele>1567.8</ele>
        <time>2024-09-25T10:46:49Z</time>
      </trkpt>
      <trkpt lat="42.37638" lon="2.20055">
        <ele>1567.8</ele>
        <time>2024-09-25T10:46:50Z</time>
      </trkpt>
      <trkpt lat="42.37638" lon="2.20056">
        <ele>1567.8</ele>
        <time>2024-09-25T10:46:51Z</time>
      </trkpt>
      <trkpt lat="42.37638" lon="2.20056">
        <ele>1567.8</ele>
        <time>2024-09-25T10:46:52Z</time>
      </trkpt>
      <trkpt lat="42.37637" lon="2.20057">
        <ele>1567.9</ele>
        <time>2024-09-25T10:46:53Z</time>
      </trkpt>
      <trkpt lat="42.37637" lon="2.20057">
        <ele>1568</ele>
        <time>2024-09-25T10:46:54Z</time>
      </trkpt>
      <trkpt lat="42.37637" lon="2.20058">
        <ele>1568</ele>
        <time>2024-09-25T10:46:55Z</time>
      </trkpt>
      <trkpt lat="42.37637" lon="2.20058">
        <ele>1568</ele>
        <time>2024-09-25T10:46:56Z</time>
      </trkpt>
      <trkpt lat="42.37636" lon="2.20059">
        <ele>1568.1</ele>
        <time>2024-09-25T10:46:57Z</time>
      </trkpt>
      <trkpt lat="42.37636" lon="2.20059">
        <ele>1568.2</ele>
        <time>2024-09-25T10:46:58Z</time>
      </trkpt>
      <trkpt lat="42.37636" lon="2.2006">
        <ele>1568.2</ele>
        <time>2024-09-25T10:46:59Z</time>
      </trkpt>
      <trkpt lat="42.37635" lon="2.2006">
        <ele>1568.2</ele>
        <time>2024-09-25T10:47:00Z</time>
      </trkpt>
      <trkpt lat="42.37635" lon="2.2006">
        <ele>1568.3</ele>
        <time>2024-09-25T10:47:01Z</time>
      </trkpt>
      <trkpt lat="42.37635" lon="2.2006">
        <ele>1568.3</ele>
        <time>2024-09-25T10:47:02Z</time>
      </trkpt>
      <trkpt lat="42.37635" lon="2.2006">
        <ele>1568.3</ele>
        <time>2024-09-25T10:47:03Z</time>
      </trkpt>
      <trkpt lat="42.37635" lon="2.20061">
        <ele>1568.3</ele>
        <time>2024-09-25T10:47:04Z</time>
      </trkpt>
      <trkpt lat="42.37634" lon="2.20061">
        <ele>1568.4</ele>
        <time>2024-09-25T10:47:05Z</time>
      </trkpt>
      <trkpt lat="42.37634" lon="2.20061">
        <ele>1568.4</ele>
        <time>2024-09-25T10:47:06Z</time>
      </trkpt>
      <trkpt lat="42.37634" lon="2.20061">
        <ele>1568.4</ele>
        <time>2024-09-25T10:47:07Z</time>
      </trkpt>
      <trkpt lat="42.37634" lon="2.20061">
        <ele>1568.4</ele>
        <time>2024-09-25T10:47:08Z</time>
      </trkpt>
      <trkpt lat="42.37634" lon="2.20061">
        <ele>1568.4</ele>
        <time>2024-09-25T10:47:09Z</time>
      </trkpt>
      <trkpt lat="42.37634" lon="2.20061">
        <ele>1568.4</ele>
        <time>2024-09-25T10:47:10Z</time>
      </trkpt>
      <trkpt lat="42.37634" lon="2.20061">
        <ele>1568.5</ele>
        <time>2024-09-25T10:47:11Z</time>
      </trkpt>
      <trkpt lat="42.37634" lon="2.20061">
        <ele>1568.5</ele>
        <time>2024-09-25T10:47:12Z</time>
      </trkpt>
      <trkpt lat="42.37634" lon="2.20061">
        <ele>1568.5</ele>
        <time>2024-09-25T10:47:13Z</time>
      </trkpt>
      <trkpt lat="42.37633" lon="2.20061">
        <ele>1568.5</ele>
        <time>2024-09-25T10:47:14Z</time>
      </trkpt>
      <trkpt lat="42.37633" lon="2.20061">
        <ele>1568.5</ele>
        <time>2024-09-25T10:47:15Z</time>
      </trkpt>
      <trkpt lat="42.37633" lon="2.20061">
        <ele>1568.5</ele>
        <time>2024-09-25T10:47:16Z</time>
      </trkpt>
      <trkpt lat="42.37633" lon="2.20061">
        <ele>1568.6</ele>
        <time>2024-09-25T10:47:17Z</time>
      </trkpt>
      <trkpt lat="42.37633" lon="2.20062">
        <ele>1568.6</ele>
        <time>2024-09-25T10:47:18Z</time>
      </trkpt>
      <trkpt lat="42.37633" lon="2.20061">
        <ele>1568.6</ele>
        <time>2024-09-25T10:47:19Z</time>
      </trkpt>
      <trkpt lat="42.37633" lon="2.20061">
        <ele>1568.6</ele>
        <time>2024-09-25T10:47:20Z</time>
      </trkpt>
      <trkpt lat="42.37633" lon="2.20062">
        <ele>1568.6</ele>
        <time>2024-09-25T10:47:21Z</time>
      </trkpt>
      <trkpt lat="42.37633" lon="2.20061">
        <ele>1568.6</ele>
        <time>2024-09-25T10:47:22Z</time>
      </trkpt>
      <trkpt lat="42.37633" lon="2.20061">
        <ele>1568.6</ele>
        <time>2024-09-25T10:47:23Z</time>
      </trkpt>
      <trkpt lat="42.37633" lon="2.20061">
        <ele>1568.6</ele>
        <time>2024-09-25T10:47:24Z</time>
      </trkpt>
      <trkpt lat="42.37633" lon="2.20061">
        <ele>1568.7</ele>
        <time>2024-09-25T10:47:25Z</time>
      </trkpt>
      <trkpt lat="42.37633" lon="2.20061">
        <ele>1568.7</ele>
        <time>2024-09-25T10:47:26Z</time>
      </trkpt>
      <trkpt lat="42.37632" lon="2.20061">
        <ele>1568.7</ele>
        <time>2024-09-25T10:47:27Z</time>
      </trkpt>
      <trkpt lat="42.37632" lon="2.20062">
        <ele>1568.8</ele>
        <time>2024-09-25T10:47:28Z</time>
      </trkpt>
      <trkpt lat="42.37632" lon="2.20062">
        <ele>1568.8</ele>
        <time>2024-09-25T10:47:29Z</time>
      </trkpt>
      <trkpt lat="42.37631" lon="2.20062">
        <ele>1568.8</ele>
        <time>2024-09-25T10:47:30Z</time>
      </trkpt>
      <trkpt lat="42.37631" lon="2.20062">
        <ele>1568.8</ele>
        <time>2024-09-25T10:47:31Z</time>
      </trkpt>
      <trkpt lat="42.37631" lon="2.20062">
        <ele>1568.8</ele>
        <time>2024-09-25T10:47:32Z</time>
      </trkpt>
      <trkpt lat="42.37631" lon="2.20062">
        <ele>1568.8</ele>
        <time>2024-09-25T10:47:33Z</time>
      </trkpt>
      <trkpt lat="42.37631" lon="2.20062">
        <ele>1568.9</ele>
        <time>2024-09-25T10:47:34Z</time>
      </trkpt>
      <trkpt lat="42.3763" lon="2.20062">
        <ele>1569</ele>
        <time>2024-09-25T10:47:35Z</time>
      </trkpt>
      <trkpt lat="42.3763" lon="2.20062">
        <ele>1569</ele>
        <time>2024-09-25T10:47:36Z</time>
      </trkpt>
      <trkpt lat="42.3763" lon="2.20062">
        <ele>1569</ele>
        <time>2024-09-25T10:47:37Z</time>
      </trkpt>
      <trkpt lat="42.37629" lon="2.20062">
        <ele>1569</ele>
        <time>2024-09-25T10:47:38Z</time>
      </trkpt>
      <trkpt lat="42.37629" lon="2.20062">
        <ele>1569.1</ele>
        <time>2024-09-25T10:47:39Z</time>
      </trkpt>
      <trkpt lat="42.37629" lon="2.20062">
        <ele>1569.1</ele>
        <time>2024-09-25T10:47:40Z</time>
      </trkpt>
      <trkpt lat="42.37629" lon="2.20062">
        <ele>1569.1</ele>
        <time>2024-09-25T10:47:41Z</time>
      </trkpt>
      <trkpt lat="42.37629" lon="2.20062">
        <ele>1569.1</ele>
        <time>2024-09-25T10:47:42Z</time>
      </trkpt>
      <trkpt lat="42.37629" lon="2.20062">
        <ele>1569.1</ele>
        <time>2024-09-25T10:47:43Z</time>
      </trkpt>
      <trkpt lat="42.37628" lon="2.20062">
        <ele>1569.1</ele>
        <time>2024-09-25T10:47:44Z</time>
      </trkpt>
      <trkpt lat="42.37628" lon="2.20062">
        <ele>1569.2</ele>
        <time>2024-09-25T10:47:45Z</time>
      </trkpt>
      <trkpt lat="42.37628" lon="2.20062">
        <ele>1569.2</ele>
        <time>2024-09-25T10:47:46Z</time>
      </trkpt>
      <trkpt lat="42.37628" lon="2.20062">
        <ele>1569.2</ele>
        <time>2024-09-25T10:47:47Z</time>
      </trkpt>
      <trkpt lat="42.37628" lon="2.20062">
        <ele>1569.2</ele>
        <time>2024-09-25T10:47:48Z</time>
      </trkpt>
      <trkpt lat="42.37627" lon="2.20062">
        <ele>1569.2</ele>
        <time>2024-09-25T10:47:49Z</time>
      </trkpt>
      <trkpt lat="42.37627" lon="2.20062">
        <ele>1569.3</ele>
        <time>2024-09-25T10:47:50Z</time>
      </trkpt>
      <trkpt lat="42.37627" lon="2.20062">
        <ele>1569.3</ele>
        <time>2024-09-25T10:47:51Z</time>
      </trkpt>
      <trkpt lat="42.37626" lon="2.20062">
        <ele>1569.3</ele>
        <time>2024-09-25T10:47:52Z</time>
      </trkpt>
      <trkpt lat="42.37626" lon="2.20062">
        <ele>1569.4</ele>
        <time>2024-09-25T10:47:53Z</time>
      </trkpt>
      <trkpt lat="42.37626" lon="2.20062">
        <ele>1569.4</ele>
        <time>2024-09-25T10:47:54Z</time>
      </trkpt>
      <trkpt lat="42.37627" lon="2.20062">
        <ele>1569.4</ele>
        <time>2024-09-25T10:47:55Z</time>
      </trkpt>
      <trkpt lat="42.37627" lon="2.20063">
        <ele>1569.4</ele>
        <time>2024-09-25T10:47:56Z</time>
      </trkpt>
      <trkpt lat="42.37627" lon="2.20063">
        <ele>1569.2</ele>
        <time>2024-09-25T10:47:57Z</time>
      </trkpt>
      <trkpt lat="42.37627" lon="2.20063">
        <ele>1569.4</ele>
        <time>2024-09-25T10:47:58Z</time>
      </trkpt>
      <trkpt lat="42.37627" lon="2.20063">
        <ele>1569.4</ele>
        <time>2024-09-25T10:47:59Z</time>
      </trkpt>
      <trkpt lat="42.37627" lon="2.20064">
        <ele>1569.2</ele>
        <time>2024-09-25T10:48:00Z</time>
      </trkpt>
      <trkpt lat="42.37627" lon="2.20064">
        <ele>1569.2</ele>
        <time>2024-09-25T10:48:01Z</time>
      </trkpt>
      <trkpt lat="42.37627" lon="2.20063">
        <ele>1569.4</ele>
        <time>2024-09-25T10:48:02Z</time>
      </trkpt>
      <trkpt lat="42.37627" lon="2.20064">
        <ele>1569.4</ele>
        <time>2024-09-25T10:48:03Z</time>
      </trkpt>
      <trkpt lat="42.37627" lon="2.20064">
        <ele>1569.4</ele>
        <time>2024-09-25T10:48:04Z</time>
      </trkpt>
      <trkpt lat="42.37627" lon="2.20064">
        <ele>1569.4</ele>
        <time>2024-09-25T10:48:05Z</time>
      </trkpt>
      <trkpt lat="42.37627" lon="2.20064">
        <ele>1569.4</ele>
        <time>2024-09-25T10:48:06Z</time>
      </trkpt>
      <trkpt lat="42.37627" lon="2.20064">
        <ele>1569.4</ele>
        <time>2024-09-25T10:48:07Z</time>
      </trkpt>
      <trkpt lat="42.37627" lon="2.20064">
        <ele>1569.4</ele>
        <time>2024-09-25T10:48:08Z</time>
      </trkpt>
      <trkpt lat="42.37627" lon="2.20065">
        <ele>1569.2</ele>
        <time>2024-09-25T10:48:09Z</time>
      </trkpt>
      <trkpt lat="42.37627" lon="2.20065">
        <ele>1569.2</ele>
        <time>2024-09-25T10:48:10Z</time>
      </trkpt>
      <trkpt lat="42.37627" lon="2.20066">
        <ele>1569.9</ele>
        <time>2024-09-25T10:48:11Z</time>
      </trkpt>
      <trkpt lat="42.37627" lon="2.20066">
        <ele>1569.9</ele>
        <time>2024-09-25T10:48:12Z</time>
      </trkpt>
      <trkpt lat="42.37628" lon="2.20067">
        <ele>1569.9</ele>
        <time>2024-09-25T10:48:13Z</time>
      </trkpt>
      <trkpt lat="42.37628" lon="2.20068">
        <ele>1569.9</ele>
        <time>2024-09-25T10:48:14Z</time>
      </trkpt>
      <trkpt lat="42.37628" lon="2.2007">
        <ele>1569.9</ele>
        <time>2024-09-25T10:48:15Z</time>
      </trkpt>
      <trkpt lat="42.37629" lon="2.20072">
        <ele>1570.6</ele>
        <time>2024-09-25T10:48:16Z</time>
      </trkpt>
      <trkpt lat="42.37629" lon="2.20074">
        <ele>1570.6</ele>
        <time>2024-09-25T10:48:17Z</time>
      </trkpt>
      <trkpt lat="42.3763" lon="2.20075">
        <ele>1571.3</ele>
        <time>2024-09-25T10:48:18Z</time>
      </trkpt>
      <trkpt lat="42.3763" lon="2.20077">
        <ele>1571.2</ele>
        <time>2024-09-25T10:48:19Z</time>
      </trkpt>
      <trkpt lat="42.3763" lon="2.20078">
        <ele>1571.2</ele>
        <time>2024-09-25T10:48:20Z</time>
      </trkpt>
      <trkpt lat="42.37631" lon="2.20079">
        <ele>1571.8</ele>
        <time>2024-09-25T10:48:21Z</time>
      </trkpt>
      <trkpt lat="42.37631" lon="2.20081">
        <ele>1571.8</ele>
        <time>2024-09-25T10:48:22Z</time>
      </trkpt>
      <trkpt lat="42.3763" lon="2.20082">
        <ele>1571.8</ele>
        <time>2024-09-25T10:48:23Z</time>
      </trkpt>
      <trkpt lat="42.3763" lon="2.20084">
        <ele>1572.5</ele>
        <time>2024-09-25T10:48:24Z</time>
      </trkpt>
      <trkpt lat="42.3763" lon="2.20085">
        <ele>1572.5</ele>
        <time>2024-09-25T10:48:25Z</time>
      </trkpt>
      <trkpt lat="42.3763" lon="2.20086">
        <ele>1572.6</ele>
        <time>2024-09-25T10:48:26Z</time>
      </trkpt>
      <trkpt lat="42.3763" lon="2.20088">
        <ele>1573.2</ele>
        <time>2024-09-25T10:48:27Z</time>
      </trkpt>
      <trkpt lat="42.3763" lon="2.20088">
        <ele>1573.2</ele>
        <time>2024-09-25T10:48:28Z</time>
      </trkpt>
      <trkpt lat="42.37629" lon="2.20089">
        <ele>1573.2</ele>
        <time>2024-09-25T10:48:29Z</time>
      </trkpt>
      <trkpt lat="42.3763" lon="2.2009">
        <ele>1573.2</ele>
        <time>2024-09-25T10:48:30Z</time>
      </trkpt>
      <trkpt lat="42.3763" lon="2.20091">
        <ele>1573.8</ele>
        <time>2024-09-25T10:48:31Z</time>
      </trkpt>
      <trkpt lat="42.3763" lon="2.20092">
        <ele>1573.8</ele>
        <time>2024-09-25T10:48:32Z</time>
      </trkpt>
      <trkpt lat="42.3763" lon="2.20093">
        <ele>1573.8</ele>
        <time>2024-09-25T10:48:33Z</time>
      </trkpt>
      <trkpt lat="42.3763" lon="2.20094">
        <ele>1573.8</ele>
        <time>2024-09-25T10:48:34Z</time>
      </trkpt>
      <trkpt lat="42.37629" lon="2.20095">
        <ele>1573.8</ele>
        <time>2024-09-25T10:48:35Z</time>
      </trkpt>
      <trkpt lat="42.37629" lon="2.20096">
        <ele>1574.4</ele>
        <time>2024-09-25T10:48:36Z</time>
      </trkpt>
      <trkpt lat="42.37629" lon="2.20097">
        <ele>1574.4</ele>
        <time>2024-09-25T10:48:37Z</time>
      </trkpt>
      <trkpt lat="42.37629" lon="2.20097">
        <ele>1574.4</ele>
        <time>2024-09-25T10:48:38Z</time>
      </trkpt>
      <trkpt lat="42.37629" lon="2.20098">
        <ele>1574.4</ele>
        <time>2024-09-25T10:48:39Z</time>
      </trkpt>
      <trkpt lat="42.37629" lon="2.20099">
        <ele>1574.4</ele>
        <time>2024-09-25T10:48:40Z</time>
      </trkpt>
      <trkpt lat="42.37629" lon="2.201">
        <ele>1574.4</ele>
        <time>2024-09-25T10:48:41Z</time>
      </trkpt>
      <trkpt lat="42.3763" lon="2.20101">
        <ele>1574.9</ele>
        <time>2024-09-25T10:48:42Z</time>
      </trkpt>
      <trkpt lat="42.3763" lon="2.20102">
        <ele>1574.9</ele>
        <time>2024-09-25T10:48:43Z</time>
      </trkpt>
      <trkpt lat="42.3763" lon="2.20102">
        <ele>1574.9</ele>
        <time>2024-09-25T10:48:44Z</time>
      </trkpt>
      <trkpt lat="42.3763" lon="2.20103">
        <ele>1574.7</ele>
        <time>2024-09-25T10:48:45Z</time>
      </trkpt>
      <trkpt lat="42.37631" lon="2.20104">
        <ele>1575.1</ele>
        <time>2024-09-25T10:48:46Z</time>
      </trkpt>
      <trkpt lat="42.37631" lon="2.20106">
        <ele>1575.1</ele>
        <time>2024-09-25T10:48:47Z</time>
      </trkpt>
      <trkpt lat="42.37632" lon="2.20107">
        <ele>1575.1</ele>
        <time>2024-09-25T10:48:48Z</time>
      </trkpt>
      <trkpt lat="42.37632" lon="2.20107">
        <ele>1575.1</ele>
        <time>2024-09-25T10:48:49Z</time>
      </trkpt>
      <trkpt lat="42.37633" lon="2.20108">
        <ele>1575.1</ele>
        <time>2024-09-25T10:48:50Z</time>
      </trkpt>
      <trkpt lat="42.37633" lon="2.20109">
        <ele>1575.1</ele>
        <time>2024-09-25T10:48:51Z</time>
      </trkpt>
      <trkpt lat="42.37633" lon="2.20109">
        <ele>1575.2</ele>
        <time>2024-09-25T10:48:52Z</time>
      </trkpt>
      <trkpt lat="42.37633" lon="2.20109">
        <ele>1575.4</ele>
        <time>2024-09-25T10:48:53Z</time>
      </trkpt>
      <trkpt lat="42.37633" lon="2.20108">
        <ele>1575.1</ele>
        <time>2024-09-25T10:48:54Z</time>
      </trkpt>
      <trkpt lat="42.37633" lon="2.20108">
        <ele>1575.1</ele>
        <time>2024-09-25T10:48:55Z</time>
      </trkpt>
      <trkpt lat="42.37633" lon="2.20108">
        <ele>1575.1</ele>
        <time>2024-09-25T10:48:56Z</time>
      </trkpt>
      <trkpt lat="42.37633" lon="2.20108">
        <ele>1575.1</ele>
        <time>2024-09-25T10:48:57Z</time>
      </trkpt>
      <trkpt lat="42.37632" lon="2.20108">
        <ele>1575.1</ele>
        <time>2024-09-25T10:48:58Z</time>
      </trkpt>
      <trkpt lat="42.37632" lon="2.20107">
        <ele>1575.1</ele>
        <time>2024-09-25T10:48:59Z</time>
      </trkpt>
      <trkpt lat="42.37632" lon="2.20107">
        <ele>1575.1</ele>
        <time>2024-09-25T10:49:00Z</time>
      </trkpt>
      <trkpt lat="42.37631" lon="2.20107">
        <ele>1575.1</ele>
        <time>2024-09-25T10:49:01Z</time>
      </trkpt>
      <trkpt lat="42.37631" lon="2.20106">
        <ele>1575.1</ele>
        <time>2024-09-25T10:49:02Z</time>
      </trkpt>
      <trkpt lat="42.3763" lon="2.20106">
        <ele>1575.1</ele>
        <time>2024-09-25T10:49:03Z</time>
      </trkpt>
      <trkpt lat="42.3763" lon="2.20106">
        <ele>1575.3</ele>
        <time>2024-09-25T10:49:04Z</time>
      </trkpt>
      <trkpt lat="42.37629" lon="2.20106">
        <ele>1575.3</ele>
        <time>2024-09-25T10:49:05Z</time>
      </trkpt>
      <trkpt lat="42.37629" lon="2.20106">
        <ele>1575.3</ele>
        <time>2024-09-25T10:49:06Z</time>
      </trkpt>
      <trkpt lat="42.37628" lon="2.20106">
        <ele>1575.3</ele>
        <time>2024-09-25T10:49:07Z</time>
      </trkpt>
      <trkpt lat="42.37627" lon="2.20107">
        <ele>1575.3</ele>
        <time>2024-09-25T10:49:08Z</time>
      </trkpt>
      <trkpt lat="42.37626" lon="2.20108">
        <ele>1575.5</ele>
        <time>2024-09-25T10:49:09Z</time>
      </trkpt>
      <trkpt lat="42.37625" lon="2.2011">
        <ele>1575.9</ele>
        <time>2024-09-25T10:49:10Z</time>
      </trkpt>
      <trkpt lat="42.37625" lon="2.20111">
        <ele>1575.9</ele>
        <time>2024-09-25T10:49:11Z</time>
      </trkpt>
      <trkpt lat="42.37624" lon="2.20112">
        <ele>1575.9</ele>
        <time>2024-09-25T10:49:12Z</time>
      </trkpt>
      <trkpt lat="42.37624" lon="2.20113">
        <ele>1575.9</ele>
        <time>2024-09-25T10:49:13Z</time>
      </trkpt>
      <trkpt lat="42.37623" lon="2.20114">
        <ele>1576.5</ele>
        <time>2024-09-25T10:49:14Z</time>
      </trkpt>
      <trkpt lat="42.37623" lon="2.20115">
        <ele>1576.5</ele>
        <time>2024-09-25T10:49:15Z</time>
      </trkpt>
      <trkpt lat="42.37623" lon="2.20115">
        <ele>1576.5</ele>
        <time>2024-09-25T10:49:16Z</time>
      </trkpt>
      <trkpt lat="42.37623" lon="2.20117">
        <ele>1576.5</ele>
        <time>2024-09-25T10:49:17Z</time>
      </trkpt>
      <trkpt lat="42.37622" lon="2.20117">
        <ele>1576.9</ele>
        <time>2024-09-25T10:49:18Z</time>
      </trkpt>
      <trkpt lat="42.37622" lon="2.20118">
        <ele>1576.9</ele>
        <time>2024-09-25T10:49:19Z</time>
      </trkpt>
      <trkpt lat="42.37622" lon="2.20119">
        <ele>1576.9</ele>
        <time>2024-09-25T10:49:20Z</time>
      </trkpt>
      <trkpt lat="42.37622" lon="2.20119">
        <ele>1576.9</ele>
        <time>2024-09-25T10:49:21Z</time>
      </trkpt>
      <trkpt lat="42.37622" lon="2.2012">
        <ele>1576.9</ele>
        <time>2024-09-25T10:49:22Z</time>
      </trkpt>
      <trkpt lat="42.37622" lon="2.20121">
        <ele>1576.9</ele>
        <time>2024-09-25T10:49:23Z</time>
      </trkpt>
      <trkpt lat="42.37622" lon="2.20122">
        <ele>1577.2</ele>
        <time>2024-09-25T10:49:24Z</time>
      </trkpt>
      <trkpt lat="42.37622" lon="2.20124">
        <ele>1577.2</ele>
        <time>2024-09-25T10:49:25Z</time>
      </trkpt>
      <trkpt lat="42.37622" lon="2.20125">
        <ele>1577.2</ele>
        <time>2024-09-25T10:49:26Z</time>
      </trkpt>
      <trkpt lat="42.37623" lon="2.20126">
        <ele>1577.6</ele>
        <time>2024-09-25T10:49:27Z</time>
      </trkpt>
      <trkpt lat="42.37624" lon="2.20127">
        <ele>1577.1</ele>
        <time>2024-09-25T10:49:28Z</time>
      </trkpt>
      <trkpt lat="42.37625" lon="2.20127">
        <ele>1577.1</ele>
        <time>2024-09-25T10:49:29Z</time>
      </trkpt>
      <trkpt lat="42.37626" lon="2.20128">
        <ele>1577.1</ele>
        <time>2024-09-25T10:49:30Z</time>
      </trkpt>
      <trkpt lat="42.37626" lon="2.20128">
        <ele>1577.1</ele>
        <time>2024-09-25T10:49:31Z</time>
      </trkpt>
      <trkpt lat="42.37627" lon="2.20128">
        <ele>1576.7</ele>
        <time>2024-09-25T10:49:32Z</time>
      </trkpt>
      <trkpt lat="42.37627" lon="2.20129">
        <ele>1576.7</ele>
        <time>2024-09-25T10:49:33Z</time>
      </trkpt>
      <trkpt lat="42.37628" lon="2.20129">
        <ele>1576.7</ele>
        <time>2024-09-25T10:49:34Z</time>
      </trkpt>
      <trkpt lat="42.37628" lon="2.20129">
        <ele>1576.7</ele>
        <time>2024-09-25T10:49:35Z</time>
      </trkpt>
      <trkpt lat="42.37628" lon="2.20129">
        <ele>1576.7</ele>
        <time>2024-09-25T10:49:36Z</time>
      </trkpt>
      <trkpt lat="42.37628" lon="2.20129">
        <ele>1576.7</ele>
        <time>2024-09-25T10:49:37Z</time>
      </trkpt>
      <trkpt lat="42.37629" lon="2.20129">
        <ele>1576.7</ele>
        <time>2024-09-25T10:49:38Z</time>
      </trkpt>
      <trkpt lat="42.37629" lon="2.20129">
        <ele>1576.7</ele>
        <time>2024-09-25T10:49:39Z</time>
      </trkpt>
      <trkpt lat="42.37629" lon="2.20129">
        <ele>1576.7</ele>
        <time>2024-09-25T10:49:40Z</time>
      </trkpt>
      <trkpt lat="42.37629" lon="2.20129">
        <ele>1576.7</ele>
        <time>2024-09-25T10:49:41Z</time>
      </trkpt>
      <trkpt lat="42.37629" lon="2.20129">
        <ele>1576.7</ele>
        <time>2024-09-25T10:49:42Z</time>
      </trkpt>
      <trkpt lat="42.37629" lon="2.20129">
        <ele>1576.7</ele>
        <time>2024-09-25T10:49:43Z</time>
      </trkpt>
      <trkpt lat="42.37629" lon="2.2013">
        <ele>1576.7</ele>
        <time>2024-09-25T10:49:44Z</time>
      </trkpt>
      <trkpt lat="42.37629" lon="2.2013">
        <ele>1577</ele>
        <time>2024-09-25T10:49:45Z</time>
      </trkpt>
      <trkpt lat="42.37629" lon="2.20131">
        <ele>1577</ele>
        <time>2024-09-25T10:49:46Z</time>
      </trkpt>
      <trkpt lat="42.37629" lon="2.20132">
        <ele>1577</ele>
        <time>2024-09-25T10:49:47Z</time>
      </trkpt>
      <trkpt lat="42.37629" lon="2.20132">
        <ele>1577</ele>
        <time>2024-09-25T10:49:48Z</time>
      </trkpt>
      <trkpt lat="42.37629" lon="2.20133">
        <ele>1577</ele>
        <time>2024-09-25T10:49:49Z</time>
      </trkpt>
      <trkpt lat="42.37629" lon="2.20133">
        <ele>1577</ele>
        <time>2024-09-25T10:49:50Z</time>
      </trkpt>
      <trkpt lat="42.37629" lon="2.20133">
        <ele>1577</ele>
        <time>2024-09-25T10:49:51Z</time>
      </trkpt>
      <trkpt lat="42.37629" lon="2.20133">
        <ele>1577</ele>
        <time>2024-09-25T10:49:52Z</time>
      </trkpt>
      <trkpt lat="42.37629" lon="2.20133">
        <ele>1577</ele>
        <time>2024-09-25T10:49:53Z</time>
      </trkpt>
      <trkpt lat="42.37629" lon="2.20133">
        <ele>1577</ele>
        <time>2024-09-25T10:49:54Z</time>
      </trkpt>
      <trkpt lat="42.37629" lon="2.20133">
        <ele>1577</ele>
        <time>2024-09-25T10:49:55Z</time>
      </trkpt>
      <trkpt lat="42.37629" lon="2.20133">
        <ele>1577</ele>
        <time>2024-09-25T10:49:56Z</time>
      </trkpt>
      <trkpt lat="42.37628" lon="2.20134">
        <ele>1577</ele>
        <time>2024-09-25T10:49:57Z</time>
      </trkpt>
      <trkpt lat="42.37628" lon="2.20134">
        <ele>1577</ele>
        <time>2024-09-25T10:49:58Z</time>
      </trkpt>
      <trkpt lat="42.37628" lon="2.20135">
        <ele>1577.3</ele>
        <time>2024-09-25T10:49:59Z</time>
      </trkpt>
      <trkpt lat="42.37627" lon="2.20136">
        <ele>1577.3</ele>
        <time>2024-09-25T10:50:00Z</time>
      </trkpt>
      <trkpt lat="42.37626" lon="2.20137">
        <ele>1577.8</ele>
        <time>2024-09-25T10:50:01Z</time>
      </trkpt>
      <trkpt lat="42.37626" lon="2.20138">
        <ele>1577.8</ele>
        <time>2024-09-25T10:50:02Z</time>
      </trkpt>
      <trkpt lat="42.37625" lon="2.20139">
        <ele>1578.2</ele>
        <time>2024-09-25T10:50:03Z</time>
      </trkpt>
      <trkpt lat="42.37625" lon="2.20141">
        <ele>1578.2</ele>
        <time>2024-09-25T10:50:04Z</time>
      </trkpt>
      <trkpt lat="42.37625" lon="2.20142">
        <ele>1578.2</ele>
        <time>2024-09-25T10:50:05Z</time>
      </trkpt>
      <trkpt lat="42.37626" lon="2.20144">
        <ele>1578.5</ele>
        <time>2024-09-25T10:50:06Z</time>
      </trkpt>
      <trkpt lat="42.37626" lon="2.20145">
        <ele>1578.5</ele>
        <time>2024-09-25T10:50:07Z</time>
      </trkpt>
      <trkpt lat="42.37627" lon="2.20145">
        <ele>1578.5</ele>
        <time>2024-09-25T10:50:08Z</time>
      </trkpt>
      <trkpt lat="42.37627" lon="2.20145">
        <ele>1578.5</ele>
        <time>2024-09-25T10:50:09Z</time>
      </trkpt>
      <trkpt lat="42.37626" lon="2.20144">
        <ele>1578.5</ele>
        <time>2024-09-25T10:50:10Z</time>
      </trkpt>
      <trkpt lat="42.37626" lon="2.20143">
        <ele>1578.5</ele>
        <time>2024-09-25T10:50:11Z</time>
      </trkpt>
      <trkpt lat="42.37626" lon="2.20143">
        <ele>1578.2</ele>
        <time>2024-09-25T10:50:12Z</time>
      </trkpt>
      <trkpt lat="42.37627" lon="2.20143">
        <ele>1578.2</ele>
        <time>2024-09-25T10:50:13Z</time>
      </trkpt>
      <trkpt lat="42.37627" lon="2.20143">
        <ele>1578.2</ele>
        <time>2024-09-25T10:50:14Z</time>
      </trkpt>
      <trkpt lat="42.37627" lon="2.20143">
        <ele>1578.2</ele>
        <time>2024-09-25T10:50:15Z</time>
      </trkpt>
      <trkpt lat="42.37627" lon="2.20142">
        <ele>1578.2</ele>
        <time>2024-09-25T10:50:16Z</time>
      </trkpt>
      <trkpt lat="42.37627" lon="2.20142">
        <ele>1578.2</ele>
        <time>2024-09-25T10:50:17Z</time>
      </trkpt>
      <trkpt lat="42.37627" lon="2.20143">
        <ele>1578.2</ele>
        <time>2024-09-25T10:50:18Z</time>
      </trkpt>
      <trkpt lat="42.37627" lon="2.20143">
        <ele>1578.2</ele>
        <time>2024-09-25T10:50:19Z</time>
      </trkpt>
      <trkpt lat="42.37627" lon="2.20143">
        <ele>1577.6</ele>
        <time>2024-09-25T10:50:20Z</time>
      </trkpt>
      <trkpt lat="42.37627" lon="2.20143">
        <ele>1577.6</ele>
        <time>2024-09-25T10:50:21Z</time>
      </trkpt>
      <trkpt lat="42.37627" lon="2.20143">
        <ele>1577.9</ele>
        <time>2024-09-25T10:50:22Z</time>
      </trkpt>
      <trkpt lat="42.37627" lon="2.20143">
        <ele>1577.9</ele>
        <time>2024-09-25T10:50:23Z</time>
      </trkpt>
      <trkpt lat="42.37628" lon="2.20143">
        <ele>1577.9</ele>
        <time>2024-09-25T10:50:24Z</time>
      </trkpt>
      <trkpt lat="42.37628" lon="2.20143">
        <ele>1577.9</ele>
        <time>2024-09-25T10:50:25Z</time>
      </trkpt>
      <trkpt lat="42.37629" lon="2.20143">
        <ele>1577.9</ele>
        <time>2024-09-25T10:50:26Z</time>
      </trkpt>
      <trkpt lat="42.37629" lon="2.20143">
        <ele>1577.9</ele>
        <time>2024-09-25T10:50:27Z</time>
      </trkpt>
      <trkpt lat="42.3763" lon="2.20143">
        <ele>1577.9</ele>
        <time>2024-09-25T10:50:28Z</time>
      </trkpt>
      <trkpt lat="42.3763" lon="2.20144">
        <ele>1577.9</ele>
        <time>2024-09-25T10:50:29Z</time>
      </trkpt>
      <trkpt lat="42.3763" lon="2.20144">
        <ele>1577.9</ele>
        <time>2024-09-25T10:50:30Z</time>
      </trkpt>
      <trkpt lat="42.3763" lon="2.20144">
        <ele>1577.9</ele>
        <time>2024-09-25T10:50:31Z</time>
      </trkpt>
      <trkpt lat="42.3763" lon="2.20144">
        <ele>1577.9</ele>
        <time>2024-09-25T10:50:32Z</time>
      </trkpt>
      <trkpt lat="42.3763" lon="2.20144">
        <ele>1577.9</ele>
        <time>2024-09-25T10:50:33Z</time>
      </trkpt>
      <trkpt lat="42.3763" lon="2.20144">
        <ele>1577.9</ele>
        <time>2024-09-25T10:50:34Z</time>
      </trkpt>
      <trkpt lat="42.3763" lon="2.20144">
        <ele>1577.9</ele>
        <time>2024-09-25T10:50:35Z</time>
      </trkpt>
      <trkpt lat="42.3763" lon="2.20144">
        <ele>1577.9</ele>
        <time>2024-09-25T10:50:36Z</time>
      </trkpt>
      <trkpt lat="42.3763" lon="2.20144">
        <ele>1577.9</ele>
        <time>2024-09-25T10:50:37Z</time>
      </trkpt>
      <trkpt lat="42.3763" lon="2.20144">
        <ele>1577.9</ele>
        <time>2024-09-25T10:50:38Z</time>
      </trkpt>
      <trkpt lat="42.3763" lon="2.20144">
        <ele>1577.9</ele>
        <time>2024-09-25T10:50:39Z</time>
      </trkpt>
      <trkpt lat="42.3763" lon="2.20144">
        <ele>1577.9</ele>
        <time>2024-09-25T10:50:40Z</time>
      </trkpt>
      <trkpt lat="42.3763" lon="2.20143">
        <ele>1577.9</ele>
        <time>2024-09-25T10:50:41Z</time>
      </trkpt>
      <trkpt lat="42.3763" lon="2.20143">
        <ele>1577.6</ele>
        <time>2024-09-25T10:50:42Z</time>
      </trkpt>
      <trkpt lat="42.3763" lon="2.20143">
        <ele>1577.6</ele>
        <time>2024-09-25T10:50:43Z</time>
      </trkpt>
      <trkpt lat="42.3763" lon="2.20143">
        <ele>1577.9</ele>
        <time>2024-09-25T10:50:44Z</time>
      </trkpt>
      <trkpt lat="42.37629" lon="2.20143">
        <ele>1577.9</ele>
        <time>2024-09-25T10:50:45Z</time>
      </trkpt>
      <trkpt lat="42.37629" lon="2.20144">
        <ele>1577.9</ele>
        <time>2024-09-25T10:50:46Z</time>
      </trkpt>
      <trkpt lat="42.37629" lon="2.20144">
        <ele>1577.9</ele>
        <time>2024-09-25T10:50:47Z</time>
      </trkpt>
      <trkpt lat="42.37629" lon="2.20144">
        <ele>1577.9</ele>
        <time>2024-09-25T10:50:48Z</time>
      </trkpt>
      <trkpt lat="42.37629" lon="2.20144">
        <ele>1577.9</ele>
        <time>2024-09-25T10:50:49Z</time>
      </trkpt>
      <trkpt lat="42.37629" lon="2.20145">
        <ele>1577.9</ele>
        <time>2024-09-25T10:50:50Z</time>
      </trkpt>
      <trkpt lat="42.37629" lon="2.20145">
        <ele>1577.9</ele>
        <time>2024-09-25T10:50:51Z</time>
      </trkpt>
      <trkpt lat="42.37629" lon="2.20146">
        <ele>1577.9</ele>
        <time>2024-09-25T10:50:52Z</time>
      </trkpt>
      <trkpt lat="42.37629" lon="2.20146">
        <ele>1577.9</ele>
        <time>2024-09-25T10:50:53Z</time>
      </trkpt>
      <trkpt lat="42.37629" lon="2.20146">
        <ele>1577.9</ele>
        <time>2024-09-25T10:50:54Z</time>
      </trkpt>
      <trkpt lat="42.37629" lon="2.20146">
        <ele>1577.9</ele>
        <time>2024-09-25T10:50:55Z</time>
      </trkpt>
      <trkpt lat="42.37629" lon="2.20147">
        <ele>1577.9</ele>
        <time>2024-09-25T10:50:56Z</time>
      </trkpt>
      <trkpt lat="42.37629" lon="2.20147">
        <ele>1577.9</ele>
        <time>2024-09-25T10:50:57Z</time>
      </trkpt>
      <trkpt lat="42.37629" lon="2.20147">
        <ele>1577.9</ele>
        <time>2024-09-25T10:50:58Z</time>
      </trkpt>
      <trkpt lat="42.37629" lon="2.20147">
        <ele>1577.9</ele>
        <time>2024-09-25T10:50:59Z</time>
      </trkpt>
      <trkpt lat="42.37629" lon="2.20147">
        <ele>1577.9</ele>
        <time>2024-09-25T10:51:00Z</time>
      </trkpt>
      <trkpt lat="42.37629" lon="2.20147">
        <ele>1577.9</ele>
        <time>2024-09-25T10:51:01Z</time>
      </trkpt>
      <trkpt lat="42.37629" lon="2.20146">
        <ele>1577.9</ele>
        <time>2024-09-25T10:51:02Z</time>
      </trkpt>
      <trkpt lat="42.37629" lon="2.20146">
        <ele>1577.9</ele>
        <time>2024-09-25T10:51:03Z</time>
      </trkpt>
      <trkpt lat="42.37629" lon="2.20146">
        <ele>1577.9</ele>
        <time>2024-09-25T10:51:04Z</time>
      </trkpt>
      <trkpt lat="42.3763" lon="2.20146">
        <ele>1577.9</ele>
        <time>2024-09-25T10:51:05Z</time>
      </trkpt>
      <trkpt lat="42.37629" lon="2.20146">
        <ele>1577.9</ele>
        <time>2024-09-25T10:51:06Z</time>
      </trkpt>
      <trkpt lat="42.37629" lon="2.20146">
        <ele>1577.9</ele>
        <time>2024-09-25T10:51:07Z</time>
      </trkpt>
      <trkpt lat="42.37629" lon="2.20146">
        <ele>1577.9</ele>
        <time>2024-09-25T10:51:08Z</time>
      </trkpt>
      <trkpt lat="42.37629" lon="2.20146">
        <ele>1577.9</ele>
        <time>2024-09-25T10:51:09Z</time>
      </trkpt>
      <trkpt lat="42.37629" lon="2.20146">
        <ele>1577.9</ele>
        <time>2024-09-25T10:51:10Z</time>
      </trkpt>
      <trkpt lat="42.37629" lon="2.20146">
        <ele>1577.9</ele>
        <time>2024-09-25T10:51:11Z</time>
      </trkpt>
      <trkpt lat="42.37629" lon="2.20147">
        <ele>1577.9</ele>
        <time>2024-09-25T10:51:12Z</time>
      </trkpt>
      <trkpt lat="42.37629" lon="2.20146">
        <ele>1577.9</ele>
        <time>2024-09-25T10:51:13Z</time>
      </trkpt>
      <trkpt lat="42.37629" lon="2.20146">
        <ele>1577.9</ele>
        <time>2024-09-25T10:51:14Z</time>
      </trkpt>
      <trkpt lat="42.37629" lon="2.20146">
        <ele>1577.9</ele>
        <time>2024-09-25T10:51:15Z</time>
      </trkpt>
      <trkpt lat="42.37629" lon="2.20146">
        <ele>1577.9</ele>
        <time>2024-09-25T10:51:16Z</time>
      </trkpt>
      <trkpt lat="42.37629" lon="2.20146">
        <ele>1577.9</ele>
        <time>2024-09-25T10:51:17Z</time>
      </trkpt>
      <trkpt lat="42.37629" lon="2.20146">
        <ele>1577.9</ele>
        <time>2024-09-25T10:51:18Z</time>
      </trkpt>
      <trkpt lat="42.37629" lon="2.20146">
        <ele>1577.9</ele>
        <time>2024-09-25T10:51:19Z</time>
      </trkpt>
      <trkpt lat="42.37629" lon="2.20146">
        <ele>1577.9</ele>
        <time>2024-09-25T10:51:20Z</time>
      </trkpt>
      <trkpt lat="42.37629" lon="2.20146">
        <ele>1577.9</ele>
        <time>2024-09-25T10:51:21Z</time>
      </trkpt>
      <trkpt lat="42.37629" lon="2.20146">
        <ele>1577.9</ele>
        <time>2024-09-25T10:51:22Z</time>
      </trkpt>
      <trkpt lat="42.37629" lon="2.20146">
        <ele>1577.9</ele>
        <time>2024-09-25T10:51:23Z</time>
      </trkpt>
      <trkpt lat="42.37629" lon="2.20146">
        <ele>1577.9</ele>
        <time>2024-09-25T10:51:24Z</time>
      </trkpt>
      <trkpt lat="42.37629" lon="2.20146">
        <ele>1577.9</ele>
        <time>2024-09-25T10:51:25Z</time>
      </trkpt>
      <trkpt lat="42.37629" lon="2.20146">
        <ele>1577.9</ele>
        <time>2024-09-25T10:51:26Z</time>
      </trkpt>
      <trkpt lat="42.37629" lon="2.20146">
        <ele>1577.9</ele>
        <time>2024-09-25T10:51:27Z</time>
      </trkpt>
      <trkpt lat="42.37628" lon="2.20146">
        <ele>1577.9</ele>
        <time>2024-09-25T10:51:28Z</time>
      </trkpt>
      <trkpt lat="42.37627" lon="2.20146">
        <ele>1577.9</ele>
        <time>2024-09-25T10:51:29Z</time>
      </trkpt>
      <trkpt lat="42.37627" lon="2.20146">
        <ele>1577.9</ele>
        <time>2024-09-25T10:51:30Z</time>
      </trkpt>
      <trkpt lat="42.37627" lon="2.20146">
        <ele>1577.9</ele>
        <time>2024-09-25T10:51:31Z</time>
      </trkpt>
      <trkpt lat="42.37627" lon="2.20146">
        <ele>1577.9</ele>
        <time>2024-09-25T10:51:32Z</time>
      </trkpt>
      <trkpt lat="42.37627" lon="2.20146">
        <ele>1577.9</ele>
        <time>2024-09-25T10:51:33Z</time>
      </trkpt>
      <trkpt lat="42.37627" lon="2.20146">
        <ele>1577.9</ele>
        <time>2024-09-25T10:51:34Z</time>
      </trkpt>
      <trkpt lat="42.37627" lon="2.20146">
        <ele>1577.9</ele>
        <time>2024-09-25T10:51:35Z</time>
      </trkpt>
      <trkpt lat="42.37627" lon="2.20146">
        <ele>1577.9</ele>
        <time>2024-09-25T10:51:36Z</time>
      </trkpt>
      <trkpt lat="42.37627" lon="2.20146">
        <ele>1577.9</ele>
        <time>2024-09-25T10:51:37Z</time>
      </trkpt>
      <trkpt lat="42.37627" lon="2.20147">
        <ele>1577.9</ele>
        <time>2024-09-25T10:51:38Z</time>
      </trkpt>
      <trkpt lat="42.37627" lon="2.20147">
        <ele>1578.5</ele>
        <time>2024-09-25T10:51:39Z</time>
      </trkpt>
      <trkpt lat="42.37628" lon="2.20146">
        <ele>1577.9</ele>
        <time>2024-09-25T10:51:40Z</time>
      </trkpt>
      <trkpt lat="42.37628" lon="2.20146">
        <ele>1577.9</ele>
        <time>2024-09-25T10:51:41Z</time>
      </trkpt>
      <trkpt lat="42.37628" lon="2.20146">
        <ele>1577.9</ele>
        <time>2024-09-25T10:51:42Z</time>
      </trkpt>
      <trkpt lat="42.37628" lon="2.20146">
        <ele>1577.9</ele>
        <time>2024-09-25T10:51:43Z</time>
      </trkpt>
      <trkpt lat="42.37628" lon="2.20146">
        <ele>1577.9</ele>
        <time>2024-09-25T10:51:44Z</time>
      </trkpt>
      <trkpt lat="42.37628" lon="2.20146">
        <ele>1577.9</ele>
        <time>2024-09-25T10:51:45Z</time>
      </trkpt>
      <trkpt lat="42.37628" lon="2.20147">
        <ele>1577.9</ele>
        <time>2024-09-25T10:51:46Z</time>
      </trkpt>
      <trkpt lat="42.37628" lon="2.20147">
        <ele>1577.9</ele>
        <time>2024-09-25T10:51:47Z</time>
      </trkpt>
      <trkpt lat="42.37628" lon="2.20147">
        <ele>1577.9</ele>
        <time>2024-09-25T10:51:48Z</time>
      </trkpt>
      <trkpt lat="42.37628" lon="2.20147">
        <ele>1577.9</ele>
        <time>2024-09-25T10:51:49Z</time>
      </trkpt>
      <trkpt lat="42.37628" lon="2.20147">
        <ele>1577.9</ele>
        <time>2024-09-25T10:51:50Z</time>
      </trkpt>
      <trkpt lat="42.37629" lon="2.20147">
        <ele>1577.9</ele>
        <time>2024-09-25T10:51:51Z</time>
      </trkpt>
      <trkpt lat="42.37629" lon="2.20147">
        <ele>1578.1</ele>
        <time>2024-09-25T10:51:52Z</time>
      </trkpt>
      <trkpt lat="42.37629" lon="2.20147">
        <ele>1578.1</ele>
        <time>2024-09-25T10:51:53Z</time>
      </trkpt>
      <trkpt lat="42.37629" lon="2.20147">
        <ele>1578.1</ele>
        <time>2024-09-25T10:51:54Z</time>
      </trkpt>
      <trkpt lat="42.37629" lon="2.20147">
        <ele>1578.1</ele>
        <time>2024-09-25T10:51:55Z</time>
      </trkpt>
      <trkpt lat="42.3763" lon="2.20147">
        <ele>1578.1</ele>
        <time>2024-09-25T10:51:56Z</time>
      </trkpt>
      <trkpt lat="42.3763" lon="2.20147">
        <ele>1578.1</ele>
        <time>2024-09-25T10:51:57Z</time>
      </trkpt>
      <trkpt lat="42.3763" lon="2.20147">
        <ele>1578.1</ele>
        <time>2024-09-25T10:51:58Z</time>
      </trkpt>
      <trkpt lat="42.3763" lon="2.20148">
        <ele>1578.1</ele>
        <time>2024-09-25T10:51:59Z</time>
      </trkpt>
      <trkpt lat="42.3763" lon="2.20148">
        <ele>1578.1</ele>
        <time>2024-09-25T10:52:00Z</time>
      </trkpt>
      <trkpt lat="42.3763" lon="2.20148">
        <ele>1577.4</ele>
        <time>2024-09-25T10:52:01Z</time>
      </trkpt>
      <trkpt lat="42.37631" lon="2.20148">
        <ele>1577.4</ele>
        <time>2024-09-25T10:52:02Z</time>
      </trkpt>
      <trkpt lat="42.37631" lon="2.20148">
        <ele>1577.4</ele>
        <time>2024-09-25T10:52:03Z</time>
      </trkpt>
      <trkpt lat="42.37631" lon="2.20148">
        <ele>1577.4</ele>
        <time>2024-09-25T10:52:04Z</time>
      </trkpt>
      <trkpt lat="42.37631" lon="2.20148">
        <ele>1577.4</ele>
        <time>2024-09-25T10:52:05Z</time>
      </trkpt>
      <trkpt lat="42.37632" lon="2.20148">
        <ele>1577.4</ele>
        <time>2024-09-25T10:52:06Z</time>
      </trkpt>
      <trkpt lat="42.37632" lon="2.20148">
        <ele>1577.4</ele>
        <time>2024-09-25T10:52:07Z</time>
      </trkpt>
      <trkpt lat="42.37632" lon="2.20149">
        <ele>1577.4</ele>
        <time>2024-09-25T10:52:08Z</time>
      </trkpt>
      <trkpt lat="42.37632" lon="2.20149">
        <ele>1577.4</ele>
        <time>2024-09-25T10:52:09Z</time>
      </trkpt>
      <trkpt lat="42.37633" lon="2.20149">
        <ele>1577.4</ele>
        <time>2024-09-25T10:52:10Z</time>
      </trkpt>
      <trkpt lat="42.37633" lon="2.20149">
        <ele>1577.4</ele>
        <time>2024-09-25T10:52:11Z</time>
      </trkpt>
      <trkpt lat="42.37633" lon="2.20149">
        <ele>1577.4</ele>
        <time>2024-09-25T10:52:12Z</time>
      </trkpt>
      <trkpt lat="42.37633" lon="2.20149">
        <ele>1577.4</ele>
        <time>2024-09-25T10:52:13Z</time>
      </trkpt>
      <trkpt lat="42.37633" lon="2.20149">
        <ele>1577.4</ele>
        <time>2024-09-25T10:52:14Z</time>
      </trkpt>
      <trkpt lat="42.37633" lon="2.20149">
        <ele>1577.4</ele>
        <time>2024-09-25T10:52:15Z</time>
      </trkpt>
      <trkpt lat="42.37632" lon="2.20149">
        <ele>1577.4</ele>
        <time>2024-09-25T10:52:16Z</time>
      </trkpt>
      <trkpt lat="42.37632" lon="2.20149">
        <ele>1577.4</ele>
        <time>2024-09-25T10:52:17Z</time>
      </trkpt>
      <trkpt lat="42.37632" lon="2.20149">
        <ele>1577.4</ele>
        <time>2024-09-25T10:52:18Z</time>
      </trkpt>
      <trkpt lat="42.37632" lon="2.20149">
        <ele>1577.4</ele>
        <time>2024-09-25T10:52:19Z</time>
      </trkpt>
      <trkpt lat="42.37632" lon="2.20149">
        <ele>1577.4</ele>
        <time>2024-09-25T10:52:20Z</time>
      </trkpt>
      <trkpt lat="42.37632" lon="2.20149">
        <ele>1577.4</ele>
        <time>2024-09-25T10:52:21Z</time>
      </trkpt>
      <trkpt lat="42.37633" lon="2.20151">
        <ele>1577.4</ele>
        <time>2024-09-25T10:52:22Z</time>
      </trkpt>
      <trkpt lat="42.37634" lon="2.20152">
        <ele>1576.9</ele>
        <time>2024-09-25T10:52:23Z</time>
      </trkpt>
      <trkpt lat="42.37635" lon="2.20152">
        <ele>1576.9</ele>
        <time>2024-09-25T10:52:24Z</time>
      </trkpt>
      <trkpt lat="42.37635" lon="2.20153">
        <ele>1576.9</ele>
        <time>2024-09-25T10:52:25Z</time>
      </trkpt>
      <trkpt lat="42.37635" lon="2.20153">
        <ele>1576.9</ele>
        <time>2024-09-25T10:52:26Z</time>
      </trkpt>
      <trkpt lat="42.37635" lon="2.20153">
        <ele>1576.9</ele>
        <time>2024-09-25T10:52:27Z</time>
      </trkpt>
      <trkpt lat="42.37635" lon="2.20154">
        <ele>1576.9</ele>
        <time>2024-09-25T10:52:28Z</time>
      </trkpt>
      <trkpt lat="42.37636" lon="2.20154">
        <ele>1576.9</ele>
        <time>2024-09-25T10:52:29Z</time>
      </trkpt>
      <trkpt lat="42.37636" lon="2.20154">
        <ele>1576.9</ele>
        <time>2024-09-25T10:52:30Z</time>
      </trkpt>
      <trkpt lat="42.37636" lon="2.20154">
        <ele>1576.9</ele>
        <time>2024-09-25T10:52:31Z</time>
      </trkpt>
      <trkpt lat="42.37636" lon="2.20155">
        <ele>1576.9</ele>
        <time>2024-09-25T10:52:32Z</time>
      </trkpt>
      <trkpt lat="42.37636" lon="2.20155">
        <ele>1576.9</ele>
        <time>2024-09-25T10:52:33Z</time>
      </trkpt>
      <trkpt lat="42.37636" lon="2.20155">
        <ele>1576.9</ele>
        <time>2024-09-25T10:52:34Z</time>
      </trkpt>
      <trkpt lat="42.37636" lon="2.20155">
        <ele>1576.3</ele>
        <time>2024-09-25T10:52:35Z</time>
      </trkpt>
      <trkpt lat="42.37636" lon="2.20155">
        <ele>1576.3</ele>
        <time>2024-09-25T10:52:36Z</time>
      </trkpt>
      <trkpt lat="42.37636" lon="2.20154">
        <ele>1576.3</ele>
        <time>2024-09-25T10:52:37Z</time>
      </trkpt>
      <trkpt lat="42.37636" lon="2.20154">
        <ele>1576.9</ele>
        <time>2024-09-25T10:52:38Z</time>
      </trkpt>
      <trkpt lat="42.37636" lon="2.20155">
        <ele>1576.9</ele>
        <time>2024-09-25T10:52:39Z</time>
      </trkpt>
      <trkpt lat="42.37636" lon="2.20155">
        <ele>1576.9</ele>
        <time>2024-09-25T10:52:40Z</time>
      </trkpt>
      <trkpt lat="42.37636" lon="2.20155">
        <ele>1576.9</ele>
        <time>2024-09-25T10:52:41Z</time>
      </trkpt>
      <trkpt lat="42.37636" lon="2.20155">
        <ele>1576.9</ele>
        <time>2024-09-25T10:52:42Z</time>
      </trkpt>
      <trkpt lat="42.37636" lon="2.20156">
        <ele>1576.9</ele>
        <time>2024-09-25T10:52:43Z</time>
      </trkpt>
      <trkpt lat="42.37636" lon="2.20156">
        <ele>1576.9</ele>
        <time>2024-09-25T10:52:44Z</time>
      </trkpt>
      <trkpt lat="42.37636" lon="2.20156">
        <ele>1576.4</ele>
        <time>2024-09-25T10:52:45Z</time>
      </trkpt>
      <trkpt lat="42.37637" lon="2.20157">
        <ele>1576.4</ele>
        <time>2024-09-25T10:52:46Z</time>
      </trkpt>
      <trkpt lat="42.37637" lon="2.20157">
        <ele>1576.4</ele>
        <time>2024-09-25T10:52:47Z</time>
      </trkpt>
      <trkpt lat="42.37637" lon="2.20157">
        <ele>1576.4</ele>
        <time>2024-09-25T10:52:48Z</time>
      </trkpt>
      <trkpt lat="42.37637" lon="2.20157">
        <ele>1576.4</ele>
        <time>2024-09-25T10:52:49Z</time>
      </trkpt>
      <trkpt lat="42.37637" lon="2.20157">
        <ele>1576.4</ele>
        <time>2024-09-25T10:52:50Z</time>
      </trkpt>
      <trkpt lat="42.37637" lon="2.20157">
        <ele>1576.4</ele>
        <time>2024-09-25T10:52:51Z</time>
      </trkpt>
      <trkpt lat="42.37637" lon="2.20158">
        <ele>1576.4</ele>
        <time>2024-09-25T10:52:52Z</time>
      </trkpt>
      <trkpt lat="42.37637" lon="2.20159">
        <ele>1576.4</ele>
        <time>2024-09-25T10:52:53Z</time>
      </trkpt>
      <trkpt lat="42.37637" lon="2.2016">
        <ele>1576.4</ele>
        <time>2024-09-25T10:52:54Z</time>
      </trkpt>
      <trkpt lat="42.37637" lon="2.20161">
        <ele>1576.4</ele>
        <time>2024-09-25T10:52:55Z</time>
      </trkpt>
      <trkpt lat="42.37638" lon="2.20162">
        <ele>1576.4</ele>
        <time>2024-09-25T10:52:56Z</time>
      </trkpt>
      <trkpt lat="42.37638" lon="2.20163">
        <ele>1576.4</ele>
        <time>2024-09-25T10:52:57Z</time>
      </trkpt>
      <trkpt lat="42.37639" lon="2.20164">
        <ele>1576.4</ele>
        <time>2024-09-25T10:52:58Z</time>
      </trkpt>
      <trkpt lat="42.37639" lon="2.20165">
        <ele>1576.5</ele>
        <time>2024-09-25T10:52:59Z</time>
      </trkpt>
      <trkpt lat="42.37639" lon="2.20165">
        <ele>1576.5</ele>
        <time>2024-09-25T10:53:00Z</time>
      </trkpt>
      <trkpt lat="42.3764" lon="2.20165">
        <ele>1576.5</ele>
        <time>2024-09-25T10:53:01Z</time>
      </trkpt>
      <trkpt lat="42.37639" lon="2.20165">
        <ele>1576.5</ele>
        <time>2024-09-25T10:53:02Z</time>
      </trkpt>
      <trkpt lat="42.37639" lon="2.20165">
        <ele>1576.5</ele>
        <time>2024-09-25T10:53:03Z</time>
      </trkpt>
      <trkpt lat="42.37639" lon="2.20164">
        <ele>1576.5</ele>
        <time>2024-09-25T10:53:04Z</time>
      </trkpt>
      <trkpt lat="42.37639" lon="2.20165">
        <ele>1576.5</ele>
        <time>2024-09-25T10:53:05Z</time>
      </trkpt>
      <trkpt lat="42.37639" lon="2.20165">
        <ele>1576.5</ele>
        <time>2024-09-25T10:53:06Z</time>
      </trkpt>
      <trkpt lat="42.3764" lon="2.20166">
        <ele>1576.5</ele>
        <time>2024-09-25T10:53:07Z</time>
      </trkpt>
      <trkpt lat="42.3764" lon="2.20166">
        <ele>1576</ele>
        <time>2024-09-25T10:53:08Z</time>
      </trkpt>
      <trkpt lat="42.3764" lon="2.20166">
        <ele>1576</ele>
        <time>2024-09-25T10:53:09Z</time>
      </trkpt>
      <trkpt lat="42.3764" lon="2.20166">
        <ele>1576</ele>
        <time>2024-09-25T10:53:10Z</time>
      </trkpt>
      <trkpt lat="42.3764" lon="2.20166">
        <ele>1576</ele>
        <time>2024-09-25T10:53:11Z</time>
      </trkpt>
      <trkpt lat="42.37641" lon="2.20167">
        <ele>1576</ele>
        <time>2024-09-25T10:53:12Z</time>
      </trkpt>
      <trkpt lat="42.37641" lon="2.20167">
        <ele>1576</ele>
        <time>2024-09-25T10:53:13Z</time>
      </trkpt>
      <trkpt lat="42.37641" lon="2.20167">
        <ele>1576</ele>
        <time>2024-09-25T10:53:14Z</time>
      </trkpt>
      <trkpt lat="42.37641" lon="2.20167">
        <ele>1576</ele>
        <time>2024-09-25T10:53:15Z</time>
      </trkpt>
      <trkpt lat="42.37641" lon="2.20167">
        <ele>1576</ele>
        <time>2024-09-25T10:53:16Z</time>
      </trkpt>
      <trkpt lat="42.37641" lon="2.20167">
        <ele>1576</ele>
        <time>2024-09-25T10:53:17Z</time>
      </trkpt>
      <trkpt lat="42.37642" lon="2.20167">
        <ele>1576</ele>
        <time>2024-09-25T10:53:18Z</time>
      </trkpt>
      <trkpt lat="42.37642" lon="2.20168">
        <ele>1576</ele>
        <time>2024-09-25T10:53:19Z</time>
      </trkpt>
      <trkpt lat="42.37643" lon="2.20168">
        <ele>1576</ele>
        <time>2024-09-25T10:53:20Z</time>
      </trkpt>
      <trkpt lat="42.37643" lon="2.20168">
        <ele>1575.7</ele>
        <time>2024-09-25T10:53:21Z</time>
      </trkpt>
      <trkpt lat="42.37643" lon="2.20168">
        <ele>1575.7</ele>
        <time>2024-09-25T10:53:22Z</time>
      </trkpt>
      <trkpt lat="42.37644" lon="2.20168">
        <ele>1575.7</ele>
        <time>2024-09-25T10:53:23Z</time>
      </trkpt>
      <trkpt lat="42.37643" lon="2.20167">
        <ele>1575.7</ele>
        <time>2024-09-25T10:53:24Z</time>
      </trkpt>
      <trkpt lat="42.37644" lon="2.20168">
        <ele>1575.7</ele>
        <time>2024-09-25T10:53:25Z</time>
      </trkpt>
      <trkpt lat="42.37644" lon="2.20168">
        <ele>1575.7</ele>
        <time>2024-09-25T10:53:26Z</time>
      </trkpt>
      <trkpt lat="42.37644" lon="2.20168">
        <ele>1575.7</ele>
        <time>2024-09-25T10:53:27Z</time>
      </trkpt>
      <trkpt lat="42.37644" lon="2.20168">
        <ele>1575.7</ele>
        <time>2024-09-25T10:53:28Z</time>
      </trkpt>
      <trkpt lat="42.37644" lon="2.20168">
        <ele>1575.7</ele>
        <time>2024-09-25T10:53:29Z</time>
      </trkpt>
      <trkpt lat="42.37644" lon="2.20168">
        <ele>1575.7</ele>
        <time>2024-09-25T10:53:30Z</time>
      </trkpt>
      <trkpt lat="42.37644" lon="2.20168">
        <ele>1575.7</ele>
        <time>2024-09-25T10:53:31Z</time>
      </trkpt>
      <trkpt lat="42.37645" lon="2.20168">
        <ele>1575.7</ele>
        <time>2024-09-25T10:53:32Z</time>
      </trkpt>
      <trkpt lat="42.37645" lon="2.20168">
        <ele>1575.7</ele>
        <time>2024-09-25T10:53:33Z</time>
      </trkpt>
      <trkpt lat="42.37645" lon="2.20168">
        <ele>1575.7</ele>
        <time>2024-09-25T10:53:34Z</time>
      </trkpt>
      <trkpt lat="42.37645" lon="2.20168">
        <ele>1575.7</ele>
        <time>2024-09-25T10:53:35Z</time>
      </trkpt>
      <trkpt lat="42.37645" lon="2.20168">
        <ele>1575.7</ele>
        <time>2024-09-25T10:53:36Z</time>
      </trkpt>
      <trkpt lat="42.37645" lon="2.20168">
        <ele>1575.7</ele>
        <time>2024-09-25T10:53:37Z</time>
      </trkpt>
      <trkpt lat="42.37645" lon="2.20168">
        <ele>1575.7</ele>
        <time>2024-09-25T10:53:38Z</time>
      </trkpt>
      <trkpt lat="42.37645" lon="2.20168">
        <ele>1575.7</ele>
        <time>2024-09-25T10:53:39Z</time>
      </trkpt>
      <trkpt lat="42.37646" lon="2.20168">
        <ele>1575.7</ele>
        <time>2024-09-25T10:53:40Z</time>
      </trkpt>
      <trkpt lat="42.37646" lon="2.20168">
        <ele>1575.7</ele>
        <time>2024-09-25T10:53:41Z</time>
      </trkpt>
      <trkpt lat="42.37646" lon="2.20169">
        <ele>1575.7</ele>
        <time>2024-09-25T10:53:42Z</time>
      </trkpt>
      <trkpt lat="42.37646" lon="2.20169">
        <ele>1575.7</ele>
        <time>2024-09-25T10:53:43Z</time>
      </trkpt>
      <trkpt lat="42.37647" lon="2.20169">
        <ele>1575.7</ele>
        <time>2024-09-25T10:53:44Z</time>
      </trkpt>
      <trkpt lat="42.37647" lon="2.20169">
        <ele>1575.7</ele>
        <time>2024-09-25T10:53:45Z</time>
      </trkpt>
      <trkpt lat="42.37647" lon="2.2017">
        <ele>1575.7</ele>
        <time>2024-09-25T10:53:46Z</time>
      </trkpt>
      <trkpt lat="42.37647" lon="2.2017">
        <ele>1575.7</ele>
        <time>2024-09-25T10:53:47Z</time>
      </trkpt>
      <trkpt lat="42.37648" lon="2.20171">
        <ele>1575.7</ele>
        <time>2024-09-25T10:53:48Z</time>
      </trkpt>
      <trkpt lat="42.37648" lon="2.20172">
        <ele>1575.7</ele>
        <time>2024-09-25T10:53:49Z</time>
      </trkpt>
      <trkpt lat="42.37648" lon="2.20173">
        <ele>1575.7</ele>
        <time>2024-09-25T10:53:50Z</time>
      </trkpt>
      <trkpt lat="42.37648" lon="2.20174">
        <ele>1575.9</ele>
        <time>2024-09-25T10:53:51Z</time>
      </trkpt>
      <trkpt lat="42.37648" lon="2.20174">
        <ele>1575.9</ele>
        <time>2024-09-25T10:53:52Z</time>
      </trkpt>
      <trkpt lat="42.37649" lon="2.20174">
        <ele>1575.9</ele>
        <time>2024-09-25T10:53:53Z</time>
      </trkpt>
      <trkpt lat="42.37649" lon="2.20174">
        <ele>1575.9</ele>
        <time>2024-09-25T10:53:54Z</time>
      </trkpt>
      <trkpt lat="42.37649" lon="2.20174">
        <ele>1575.9</ele>
        <time>2024-09-25T10:53:55Z</time>
      </trkpt>
      <trkpt lat="42.37648" lon="2.20174">
        <ele>1575.9</ele>
        <time>2024-09-25T10:53:56Z</time>
      </trkpt>
      <trkpt lat="42.37648" lon="2.20174">
        <ele>1575.9</ele>
        <time>2024-09-25T10:53:57Z</time>
      </trkpt>
      <trkpt lat="42.37648" lon="2.20174">
        <ele>1575.9</ele>
        <time>2024-09-25T10:53:58Z</time>
      </trkpt>
      <trkpt lat="42.37648" lon="2.20174">
        <ele>1575.9</ele>
        <time>2024-09-25T10:53:59Z</time>
      </trkpt>
      <trkpt lat="42.37648" lon="2.20174">
        <ele>1575.9</ele>
        <time>2024-09-25T10:54:00Z</time>
      </trkpt>
      <trkpt lat="42.37648" lon="2.20174">
        <ele>1575.9</ele>
        <time>2024-09-25T10:54:01Z</time>
      </trkpt>
      <trkpt lat="42.37648" lon="2.20174">
        <ele>1575.9</ele>
        <time>2024-09-25T10:54:02Z</time>
      </trkpt>
      <trkpt lat="42.37648" lon="2.20175">
        <ele>1575.9</ele>
        <time>2024-09-25T10:54:03Z</time>
      </trkpt>
      <trkpt lat="42.37648" lon="2.20175">
        <ele>1575.9</ele>
        <time>2024-09-25T10:54:04Z</time>
      </trkpt>
      <trkpt lat="42.37648" lon="2.20175">
        <ele>1575.9</ele>
        <time>2024-09-25T10:54:05Z</time>
      </trkpt>
      <trkpt lat="42.37648" lon="2.20175">
        <ele>1575.9</ele>
        <time>2024-09-25T10:54:06Z</time>
      </trkpt>
      <trkpt lat="42.37648" lon="2.20176">
        <ele>1575.9</ele>
        <time>2024-09-25T10:54:07Z</time>
      </trkpt>
      <trkpt lat="42.37648" lon="2.20176">
        <ele>1575.9</ele>
        <time>2024-09-25T10:54:08Z</time>
      </trkpt>
      <trkpt lat="42.37648" lon="2.20176">
        <ele>1575.9</ele>
        <time>2024-09-25T10:54:09Z</time>
      </trkpt>
      <trkpt lat="42.37648" lon="2.20176">
        <ele>1575.9</ele>
        <time>2024-09-25T10:54:10Z</time>
      </trkpt>
      <trkpt lat="42.37647" lon="2.20176">
        <ele>1575.9</ele>
        <time>2024-09-25T10:54:11Z</time>
      </trkpt>
      <trkpt lat="42.37647" lon="2.20177">
        <ele>1575.9</ele>
        <time>2024-09-25T10:54:12Z</time>
      </trkpt>
      <trkpt lat="42.37647" lon="2.20177">
        <ele>1575.9</ele>
        <time>2024-09-25T10:54:13Z</time>
      </trkpt>
      <trkpt lat="42.37647" lon="2.20177">
        <ele>1576.1</ele>
        <time>2024-09-25T10:54:14Z</time>
      </trkpt>
      <trkpt lat="42.37647" lon="2.20178">
        <ele>1576.1</ele>
        <time>2024-09-25T10:54:15Z</time>
      </trkpt>
      <trkpt lat="42.37647" lon="2.20179">
        <ele>1576.1</ele>
        <time>2024-09-25T10:54:16Z</time>
      </trkpt>
      <trkpt lat="42.37648" lon="2.20179">
        <ele>1576.1</ele>
        <time>2024-09-25T10:54:17Z</time>
      </trkpt>
      <trkpt lat="42.37648" lon="2.20179">
        <ele>1576.1</ele>
        <time>2024-09-25T10:54:18Z</time>
      </trkpt>
      <trkpt lat="42.37648" lon="2.2018">
        <ele>1576.1</ele>
        <time>2024-09-25T10:54:19Z</time>
      </trkpt>
      <trkpt lat="42.37648" lon="2.20179">
        <ele>1576.1</ele>
        <time>2024-09-25T10:54:20Z</time>
      </trkpt>
      <trkpt lat="42.37648" lon="2.20179">
        <ele>1576.1</ele>
        <time>2024-09-25T10:54:21Z</time>
      </trkpt>
      <trkpt lat="42.37648" lon="2.20179">
        <ele>1576.1</ele>
        <time>2024-09-25T10:54:22Z</time>
      </trkpt>
      <trkpt lat="42.37648" lon="2.20179">
        <ele>1576.1</ele>
        <time>2024-09-25T10:54:23Z</time>
      </trkpt>
      <trkpt lat="42.37648" lon="2.20179">
        <ele>1576.1</ele>
        <time>2024-09-25T10:54:24Z</time>
      </trkpt>
      <trkpt lat="42.37648" lon="2.20179">
        <ele>1576.1</ele>
        <time>2024-09-25T10:54:25Z</time>
      </trkpt>
      <trkpt lat="42.37648" lon="2.20179">
        <ele>1576.1</ele>
        <time>2024-09-25T10:54:26Z</time>
      </trkpt>
      <trkpt lat="42.37648" lon="2.20179">
        <ele>1576.1</ele>
        <time>2024-09-25T10:54:27Z</time>
      </trkpt>
      <trkpt lat="42.37648" lon="2.20179">
        <ele>1576.1</ele>
        <time>2024-09-25T10:54:28Z</time>
      </trkpt>
      <trkpt lat="42.37648" lon="2.20179">
        <ele>1576.1</ele>
        <time>2024-09-25T10:54:29Z</time>
      </trkpt>
      <trkpt lat="42.37648" lon="2.20179">
        <ele>1576.1</ele>
        <time>2024-09-25T10:54:30Z</time>
      </trkpt>
      <trkpt lat="42.37648" lon="2.20179">
        <ele>1576.1</ele>
        <time>2024-09-25T10:54:31Z</time>
      </trkpt>
      <trkpt lat="42.37648" lon="2.20179">
        <ele>1576.1</ele>
        <time>2024-09-25T10:54:32Z</time>
      </trkpt>
      <trkpt lat="42.37649" lon="2.2018">
        <ele>1576.1</ele>
        <time>2024-09-25T10:54:33Z</time>
      </trkpt>
      <trkpt lat="42.37649" lon="2.2018">
        <ele>1576.1</ele>
        <time>2024-09-25T10:54:34Z</time>
      </trkpt>
      <trkpt lat="42.37649" lon="2.2018">
        <ele>1576.1</ele>
        <time>2024-09-25T10:54:35Z</time>
      </trkpt>
      <trkpt lat="42.37649" lon="2.20181">
        <ele>1576.3</ele>
        <time>2024-09-25T10:54:36Z</time>
      </trkpt>
      <trkpt lat="42.3765" lon="2.20182">
        <ele>1576.7</ele>
        <time>2024-09-25T10:54:37Z</time>
      </trkpt>
      <trkpt lat="42.37651" lon="2.20182">
        <ele>1576.7</ele>
        <time>2024-09-25T10:54:38Z</time>
      </trkpt>
      <trkpt lat="42.37651" lon="2.20183">
        <ele>1576.7</ele>
        <time>2024-09-25T10:54:39Z</time>
      </trkpt>
      <trkpt lat="42.37652" lon="2.20183">
        <ele>1576.7</ele>
        <time>2024-09-25T10:54:40Z</time>
      </trkpt>
      <trkpt lat="42.37652" lon="2.20183">
        <ele>1577.1</ele>
        <time>2024-09-25T10:54:41Z</time>
      </trkpt>
      <trkpt lat="42.37653" lon="2.20183">
        <ele>1577.1</ele>
        <time>2024-09-25T10:54:42Z</time>
      </trkpt>
      <trkpt lat="42.37653" lon="2.20183">
        <ele>1577.1</ele>
        <time>2024-09-25T10:54:43Z</time>
      </trkpt>
      <trkpt lat="42.37653" lon="2.20183">
        <ele>1577.1</ele>
        <time>2024-09-25T10:54:44Z</time>
      </trkpt>
      <trkpt lat="42.37653" lon="2.20183">
        <ele>1577.1</ele>
        <time>2024-09-25T10:54:45Z</time>
      </trkpt>
      <trkpt lat="42.37654" lon="2.20183">
        <ele>1577.1</ele>
        <time>2024-09-25T10:54:46Z</time>
      </trkpt>
      <trkpt lat="42.37654" lon="2.20183">
        <ele>1577.1</ele>
        <time>2024-09-25T10:54:47Z</time>
      </trkpt>
      <trkpt lat="42.37654" lon="2.20183">
        <ele>1577.1</ele>
        <time>2024-09-25T10:54:48Z</time>
      </trkpt>
      <trkpt lat="42.37654" lon="2.20183">
        <ele>1577.1</ele>
        <time>2024-09-25T10:54:49Z</time>
      </trkpt>
      <trkpt lat="42.37654" lon="2.20183">
        <ele>1577.1</ele>
        <time>2024-09-25T10:54:50Z</time>
      </trkpt>
      <trkpt lat="42.37655" lon="2.20183">
        <ele>1577.1</ele>
        <time>2024-09-25T10:54:51Z</time>
      </trkpt>
      <trkpt lat="42.37655" lon="2.20183">
        <ele>1577.1</ele>
        <time>2024-09-25T10:54:52Z</time>
      </trkpt>
      <trkpt lat="42.37655" lon="2.20183">
        <ele>1577.1</ele>
        <time>2024-09-25T10:54:53Z</time>
      </trkpt>
      <trkpt lat="42.37655" lon="2.20183">
        <ele>1577.1</ele>
        <time>2024-09-25T10:54:54Z</time>
      </trkpt>
      <trkpt lat="42.37655" lon="2.20184">
        <ele>1577.1</ele>
        <time>2024-09-25T10:54:55Z</time>
      </trkpt>
      <trkpt lat="42.37655" lon="2.20184">
        <ele>1577.1</ele>
        <time>2024-09-25T10:54:56Z</time>
      </trkpt>
      <trkpt lat="42.37655" lon="2.20184">
        <ele>1577.1</ele>
        <time>2024-09-25T10:54:57Z</time>
      </trkpt>
      <trkpt lat="42.37655" lon="2.20184">
        <ele>1577.9</ele>
        <time>2024-09-25T10:54:58Z</time>
      </trkpt>
      <trkpt lat="42.37656" lon="2.20184">
        <ele>1577.9</ele>
        <time>2024-09-25T10:54:59Z</time>
      </trkpt>
      <trkpt lat="42.37656" lon="2.20184">
        <ele>1577.9</ele>
        <time>2024-09-25T10:55:00Z</time>
      </trkpt>
      <trkpt lat="42.37656" lon="2.20184">
        <ele>1577.9</ele>
        <time>2024-09-25T10:55:01Z</time>
      </trkpt>
      <trkpt lat="42.37656" lon="2.20185">
        <ele>1577.9</ele>
        <time>2024-09-25T10:55:02Z</time>
      </trkpt>
      <trkpt lat="42.37656" lon="2.20185">
        <ele>1577.9</ele>
        <time>2024-09-25T10:55:03Z</time>
      </trkpt>
      <trkpt lat="42.37656" lon="2.20185">
        <ele>1577.9</ele>
        <time>2024-09-25T10:55:04Z</time>
      </trkpt>
      <trkpt lat="42.37656" lon="2.20185">
        <ele>1577.9</ele>
        <time>2024-09-25T10:55:05Z</time>
      </trkpt>
      <trkpt lat="42.37657" lon="2.20185">
        <ele>1577.9</ele>
        <time>2024-09-25T10:55:06Z</time>
      </trkpt>
      <trkpt lat="42.37657" lon="2.20186">
        <ele>1577.9</ele>
        <time>2024-09-25T10:55:07Z</time>
      </trkpt>
      <trkpt lat="42.37657" lon="2.20186">
        <ele>1577.9</ele>
        <time>2024-09-25T10:55:08Z</time>
      </trkpt>
      <trkpt lat="42.37657" lon="2.20186">
        <ele>1577.9</ele>
        <time>2024-09-25T10:55:09Z</time>
      </trkpt>
      <trkpt lat="42.37657" lon="2.20186">
        <ele>1577.9</ele>
        <time>2024-09-25T10:55:10Z</time>
      </trkpt>
      <trkpt lat="42.37657" lon="2.20186">
        <ele>1577.9</ele>
        <time>2024-09-25T10:55:11Z</time>
      </trkpt>
      <trkpt lat="42.37657" lon="2.20186">
        <ele>1577.9</ele>
        <time>2024-09-25T10:55:12Z</time>
      </trkpt>
      <trkpt lat="42.37657" lon="2.20186">
        <ele>1577.9</ele>
        <time>2024-09-25T10:55:13Z</time>
      </trkpt>
      <trkpt lat="42.37657" lon="2.20186">
        <ele>1577.9</ele>
        <time>2024-09-25T10:55:14Z</time>
      </trkpt>
      <trkpt lat="42.37657" lon="2.20186">
        <ele>1577.9</ele>
        <time>2024-09-25T10:55:15Z</time>
      </trkpt>
      <trkpt lat="42.37657" lon="2.20186">
        <ele>1578.3</ele>
        <time>2024-09-25T10:55:16Z</time>
      </trkpt>
      <trkpt lat="42.37657" lon="2.20186">
        <ele>1578.3</ele>
        <time>2024-09-25T10:55:17Z</time>
      </trkpt>
      <trkpt lat="42.37657" lon="2.20186">
        <ele>1578.3</ele>
        <time>2024-09-25T10:55:18Z</time>
      </trkpt>
      <trkpt lat="42.37658" lon="2.20186">
        <ele>1578.3</ele>
        <time>2024-09-25T10:55:19Z</time>
      </trkpt>
      <trkpt lat="42.37658" lon="2.20186">
        <ele>1578.3</ele>
        <time>2024-09-25T10:55:20Z</time>
      </trkpt>
      <trkpt lat="42.37658" lon="2.20186">
        <ele>1578.3</ele>
        <time>2024-09-25T10:55:21Z</time>
      </trkpt>
      <trkpt lat="42.37658" lon="2.20186">
        <ele>1578.3</ele>
        <time>2024-09-25T10:55:22Z</time>
      </trkpt>
      <trkpt lat="42.37658" lon="2.20186">
        <ele>1578.3</ele>
        <time>2024-09-25T10:55:23Z</time>
      </trkpt>
      <trkpt lat="42.37658" lon="2.20186">
        <ele>1578.3</ele>
        <time>2024-09-25T10:55:24Z</time>
      </trkpt>
      <trkpt lat="42.37658" lon="2.20186">
        <ele>1578.3</ele>
        <time>2024-09-25T10:55:25Z</time>
      </trkpt>
      <trkpt lat="42.37658" lon="2.20186">
        <ele>1578.3</ele>
        <time>2024-09-25T10:55:26Z</time>
      </trkpt>
      <trkpt lat="42.37658" lon="2.20186">
        <ele>1578.3</ele>
        <time>2024-09-25T10:55:27Z</time>
      </trkpt>
      <trkpt lat="42.37658" lon="2.20186">
        <ele>1578.3</ele>
        <time>2024-09-25T10:55:28Z</time>
      </trkpt>
      <trkpt lat="42.37659" lon="2.20186">
        <ele>1579.5</ele>
        <time>2024-09-25T10:55:29Z</time>
      </trkpt>
      <trkpt lat="42.37659" lon="2.20186">
        <ele>1578.3</ele>
        <time>2024-09-25T10:55:30Z</time>
      </trkpt>
      <trkpt lat="42.37659" lon="2.20186">
        <ele>1578.3</ele>
        <time>2024-09-25T10:55:31Z</time>
      </trkpt>
      <trkpt lat="42.37659" lon="2.20186">
        <ele>1579.5</ele>
        <time>2024-09-25T10:55:32Z</time>
      </trkpt>
      <trkpt lat="42.37659" lon="2.20186">
        <ele>1579.1</ele>
        <time>2024-09-25T10:55:33Z</time>
      </trkpt>
      <trkpt lat="42.37659" lon="2.20186">
        <ele>1579.1</ele>
        <time>2024-09-25T10:55:34Z</time>
      </trkpt>
      <trkpt lat="42.37659" lon="2.20186">
        <ele>1579.1</ele>
        <time>2024-09-25T10:55:35Z</time>
      </trkpt>
      <trkpt lat="42.37659" lon="2.20186">
        <ele>1579.1</ele>
        <time>2024-09-25T10:55:36Z</time>
      </trkpt>
      <trkpt lat="42.3766" lon="2.20185">
        <ele>1579.1</ele>
        <time>2024-09-25T10:55:37Z</time>
      </trkpt>
      <trkpt lat="42.3766" lon="2.20185">
        <ele>1579.1</ele>
        <time>2024-09-25T10:55:38Z</time>
      </trkpt>
      <trkpt lat="42.3766" lon="2.20185">
        <ele>1579.1</ele>
        <time>2024-09-25T10:55:39Z</time>
      </trkpt>
      <trkpt lat="42.3766" lon="2.20186">
        <ele>1579.1</ele>
        <time>2024-09-25T10:55:40Z</time>
      </trkpt>
      <trkpt lat="42.3766" lon="2.20186">
        <ele>1579.1</ele>
        <time>2024-09-25T10:55:41Z</time>
      </trkpt>
      <trkpt lat="42.3766" lon="2.20186">
        <ele>1579.1</ele>
        <time>2024-09-25T10:55:42Z</time>
      </trkpt>
      <trkpt lat="42.3766" lon="2.20186">
        <ele>1579.1</ele>
        <time>2024-09-25T10:55:43Z</time>
      </trkpt>
      <trkpt lat="42.3766" lon="2.20185">
        <ele>1579.1</ele>
        <time>2024-09-25T10:55:44Z</time>
      </trkpt>
      <trkpt lat="42.3766" lon="2.20185">
        <ele>1579.1</ele>
        <time>2024-09-25T10:55:45Z</time>
      </trkpt>
      <trkpt lat="42.3766" lon="2.20185">
        <ele>1579.1</ele>
        <time>2024-09-25T10:55:46Z</time>
      </trkpt>
      <trkpt lat="42.3766" lon="2.20185">
        <ele>1579.1</ele>
        <time>2024-09-25T10:55:47Z</time>
      </trkpt>
      <trkpt lat="42.3766" lon="2.20185">
        <ele>1579.1</ele>
        <time>2024-09-25T10:55:48Z</time>
      </trkpt>
      <trkpt lat="42.3766" lon="2.20185">
        <ele>1579.1</ele>
        <time>2024-09-25T10:55:49Z</time>
      </trkpt>
      <trkpt lat="42.37661" lon="2.20186">
        <ele>1579.1</ele>
        <time>2024-09-25T10:55:50Z</time>
      </trkpt>
      <trkpt lat="42.37662" lon="2.20186">
        <ele>1581</ele>
        <time>2024-09-25T10:55:51Z</time>
      </trkpt>
      <trkpt lat="42.37663" lon="2.20187">
        <ele>1581</ele>
        <time>2024-09-25T10:55:52Z</time>
      </trkpt>
      <trkpt lat="42.37664" lon="2.20187">
        <ele>1581</ele>
        <time>2024-09-25T10:55:53Z</time>
      </trkpt>
      <trkpt lat="42.37664" lon="2.20188">
        <ele>1581</ele>
        <time>2024-09-25T10:55:54Z</time>
      </trkpt>
      <trkpt lat="42.37665" lon="2.20188">
        <ele>1581</ele>
        <time>2024-09-25T10:55:55Z</time>
      </trkpt>
      <trkpt lat="42.37665" lon="2.20189">
        <ele>1582.9</ele>
        <time>2024-09-25T10:55:56Z</time>
      </trkpt>
      <trkpt lat="42.37665" lon="2.20189">
        <ele>1582.9</ele>
        <time>2024-09-25T10:55:57Z</time>
      </trkpt>
      <trkpt lat="42.37665" lon="2.20189">
        <ele>1582.9</ele>
        <time>2024-09-25T10:55:58Z</time>
      </trkpt>
      <trkpt lat="42.37666" lon="2.2019">
        <ele>1582.9</ele>
        <time>2024-09-25T10:55:59Z</time>
      </trkpt>
      <trkpt lat="42.37666" lon="2.20191">
        <ele>1583.3</ele>
        <time>2024-09-25T10:56:00Z</time>
      </trkpt>
      <trkpt lat="42.37667" lon="2.20191">
        <ele>1583.3</ele>
        <time>2024-09-25T10:56:01Z</time>
      </trkpt>
      <trkpt lat="42.37667" lon="2.20191">
        <ele>1583.3</ele>
        <time>2024-09-25T10:56:02Z</time>
      </trkpt>
      <trkpt lat="42.37667" lon="2.20192">
        <ele>1583.3</ele>
        <time>2024-09-25T10:56:03Z</time>
      </trkpt>
      <trkpt lat="42.37668" lon="2.20192">
        <ele>1583.3</ele>
        <time>2024-09-25T10:56:04Z</time>
      </trkpt>
      <trkpt lat="42.37668" lon="2.20192">
        <ele>1583.3</ele>
        <time>2024-09-25T10:56:05Z</time>
      </trkpt>
      <trkpt lat="42.37668" lon="2.20192">
        <ele>1583.3</ele>
        <time>2024-09-25T10:56:06Z</time>
      </trkpt>
      <trkpt lat="42.37668" lon="2.20192">
        <ele>1583.3</ele>
        <time>2024-09-25T10:56:07Z</time>
      </trkpt>
      <trkpt lat="42.37668" lon="2.20192">
        <ele>1583.3</ele>
        <time>2024-09-25T10:56:08Z</time>
      </trkpt>
      <trkpt lat="42.37668" lon="2.20193">
        <ele>1583.3</ele>
        <time>2024-09-25T10:56:09Z</time>
      </trkpt>
      <trkpt lat="42.37668" lon="2.20193">
        <ele>1583.3</ele>
        <time>2024-09-25T10:56:10Z</time>
      </trkpt>
      <trkpt lat="42.37668" lon="2.20193">
        <ele>1583.3</ele>
        <time>2024-09-25T10:56:11Z</time>
      </trkpt>
      <trkpt lat="42.37668" lon="2.20194">
        <ele>1583.3</ele>
        <time>2024-09-25T10:56:12Z</time>
      </trkpt>
      <trkpt lat="42.37668" lon="2.20194">
        <ele>1583.3</ele>
        <time>2024-09-25T10:56:13Z</time>
      </trkpt>
      <trkpt lat="42.37667" lon="2.20195">
        <ele>1583.7</ele>
        <time>2024-09-25T10:56:14Z</time>
      </trkpt>
      <trkpt lat="42.37667" lon="2.20196">
        <ele>1583.7</ele>
        <time>2024-09-25T10:56:15Z</time>
      </trkpt>
      <trkpt lat="42.37667" lon="2.20197">
        <ele>1583.7</ele>
        <time>2024-09-25T10:56:16Z</time>
      </trkpt>
      <trkpt lat="42.37667" lon="2.20198">
        <ele>1583.7</ele>
        <time>2024-09-25T10:56:17Z</time>
      </trkpt>
      <trkpt lat="42.37666" lon="2.20198">
        <ele>1583.7</ele>
        <time>2024-09-25T10:56:18Z</time>
      </trkpt>
      <trkpt lat="42.37666" lon="2.20199">
        <ele>1583.7</ele>
        <time>2024-09-25T10:56:19Z</time>
      </trkpt>
      <trkpt lat="42.37666" lon="2.20199">
        <ele>1583.7</ele>
        <time>2024-09-25T10:56:20Z</time>
      </trkpt>
      <trkpt lat="42.37665" lon="2.20199">
        <ele>1584.2</ele>
        <time>2024-09-25T10:56:21Z</time>
      </trkpt>
      <trkpt lat="42.37665" lon="2.202">
        <ele>1582.5</ele>
        <time>2024-09-25T10:56:22Z</time>
      </trkpt>
      <trkpt lat="42.37664" lon="2.20201">
        <ele>1582.5</ele>
        <time>2024-09-25T10:56:23Z</time>
      </trkpt>
      <trkpt lat="42.37663" lon="2.20202">
        <ele>1582.5</ele>
        <time>2024-09-25T10:56:24Z</time>
      </trkpt>
      <trkpt lat="42.37662" lon="2.20204">
        <ele>1581.6</ele>
        <time>2024-09-25T10:56:25Z</time>
      </trkpt>
      <trkpt lat="42.3766" lon="2.20206">
        <ele>1581.6</ele>
        <time>2024-09-25T10:56:26Z</time>
      </trkpt>
      <trkpt lat="42.3766" lon="2.20207">
        <ele>1581.6</ele>
        <time>2024-09-25T10:56:27Z</time>
      </trkpt>
      <trkpt lat="42.37659" lon="2.20208">
        <ele>1582.2</ele>
        <time>2024-09-25T10:56:28Z</time>
      </trkpt>
      <trkpt lat="42.37658" lon="2.20209">
        <ele>1581.2</ele>
        <time>2024-09-25T10:56:29Z</time>
      </trkpt>
      <trkpt lat="42.37658" lon="2.20211">
        <ele>1581.2</ele>
        <time>2024-09-25T10:56:30Z</time>
      </trkpt>
      <trkpt lat="42.37658" lon="2.20212">
        <ele>1581.9</ele>
        <time>2024-09-25T10:56:31Z</time>
      </trkpt>
      <trkpt lat="42.37657" lon="2.20213">
        <ele>1581.9</ele>
        <time>2024-09-25T10:56:32Z</time>
      </trkpt>
      <trkpt lat="42.37657" lon="2.20215">
        <ele>1581.9</ele>
        <time>2024-09-25T10:56:33Z</time>
      </trkpt>
      <trkpt lat="42.37657" lon="2.20216">
        <ele>1582.5</ele>
        <time>2024-09-25T10:56:34Z</time>
      </trkpt>
      <trkpt lat="42.37657" lon="2.20217">
        <ele>1582.5</ele>
        <time>2024-09-25T10:56:35Z</time>
      </trkpt>
      <trkpt lat="42.37657" lon="2.20218">
        <ele>1582.5</ele>
        <time>2024-09-25T10:56:36Z</time>
      </trkpt>
      <trkpt lat="42.37658" lon="2.20218">
        <ele>1582.5</ele>
        <time>2024-09-25T10:56:37Z</time>
      </trkpt>
      <trkpt lat="42.37658" lon="2.20219">
        <ele>1582.5</ele>
        <time>2024-09-25T10:56:38Z</time>
      </trkpt>
      <trkpt lat="42.37658" lon="2.2022">
        <ele>1582.5</ele>
        <time>2024-09-25T10:56:39Z</time>
      </trkpt>
      <trkpt lat="42.37658" lon="2.20221">
        <ele>1583.1</ele>
        <time>2024-09-25T10:56:40Z</time>
      </trkpt>
      <trkpt lat="42.37658" lon="2.20221">
        <ele>1583.1</ele>
        <time>2024-09-25T10:56:41Z</time>
      </trkpt>
      <trkpt lat="42.37658" lon="2.20222">
        <ele>1583.1</ele>
        <time>2024-09-25T10:56:42Z</time>
      </trkpt>
      <trkpt lat="42.37658" lon="2.20222">
        <ele>1583.1</ele>
        <time>2024-09-25T10:56:43Z</time>
      </trkpt>
      <trkpt lat="42.37659" lon="2.20222">
        <ele>1583.1</ele>
        <time>2024-09-25T10:56:44Z</time>
      </trkpt>
      <trkpt lat="42.37659" lon="2.20223">
        <ele>1583.9</ele>
        <time>2024-09-25T10:56:45Z</time>
      </trkpt>
      <trkpt lat="42.37659" lon="2.20224">
        <ele>1583.9</ele>
        <time>2024-09-25T10:56:46Z</time>
      </trkpt>
      <trkpt lat="42.37659" lon="2.20225">
        <ele>1584.5</ele>
        <time>2024-09-25T10:56:47Z</time>
      </trkpt>
      <trkpt lat="42.37659" lon="2.20225">
        <ele>1584.5</ele>
        <time>2024-09-25T10:56:48Z</time>
      </trkpt>
      <trkpt lat="42.3766" lon="2.20226">
        <ele>1584.5</ele>
        <time>2024-09-25T10:56:49Z</time>
      </trkpt>
      <trkpt lat="42.3766" lon="2.20227">
        <ele>1584.5</ele>
        <time>2024-09-25T10:56:50Z</time>
      </trkpt>
      <trkpt lat="42.3766" lon="2.20227">
        <ele>1584.5</ele>
        <time>2024-09-25T10:56:51Z</time>
      </trkpt>
      <trkpt lat="42.37661" lon="2.20228">
        <ele>1584.5</ele>
        <time>2024-09-25T10:56:52Z</time>
      </trkpt>
      <trkpt lat="42.37661" lon="2.20229">
        <ele>1584.5</ele>
        <time>2024-09-25T10:56:53Z</time>
      </trkpt>
      <trkpt lat="42.37662" lon="2.20229">
        <ele>1585</ele>
        <time>2024-09-25T10:56:54Z</time>
      </trkpt>
      <trkpt lat="42.37662" lon="2.2023">
        <ele>1585</ele>
        <time>2024-09-25T10:56:55Z</time>
      </trkpt>
      <trkpt lat="42.37662" lon="2.2023">
        <ele>1585</ele>
        <time>2024-09-25T10:56:56Z</time>
      </trkpt>
      <trkpt lat="42.37662" lon="2.2023">
        <ele>1585</ele>
        <time>2024-09-25T10:56:57Z</time>
      </trkpt>
      <trkpt lat="42.37662" lon="2.2023">
        <ele>1585</ele>
        <time>2024-09-25T10:56:58Z</time>
      </trkpt>
      <trkpt lat="42.37662" lon="2.20231">
        <ele>1585</ele>
        <time>2024-09-25T10:56:59Z</time>
      </trkpt>
      <trkpt lat="42.37662" lon="2.20231">
        <ele>1585</ele>
        <time>2024-09-25T10:57:00Z</time>
      </trkpt>
      <trkpt lat="42.37662" lon="2.20231">
        <ele>1586.1</ele>
        <time>2024-09-25T10:57:01Z</time>
      </trkpt>
      <trkpt lat="42.37662" lon="2.20232">
        <ele>1586.1</ele>
        <time>2024-09-25T10:57:02Z</time>
      </trkpt>
      <trkpt lat="42.37662" lon="2.20232">
        <ele>1586.1</ele>
        <time>2024-09-25T10:57:03Z</time>
      </trkpt>
      <trkpt lat="42.37663" lon="2.20233">
        <ele>1586.1</ele>
        <time>2024-09-25T10:57:04Z</time>
      </trkpt>
      <trkpt lat="42.37663" lon="2.20233">
        <ele>1586.5</ele>
        <time>2024-09-25T10:57:05Z</time>
      </trkpt>
      <trkpt lat="42.37663" lon="2.20233">
        <ele>1586.5</ele>
        <time>2024-09-25T10:57:06Z</time>
      </trkpt>
      <trkpt lat="42.37663" lon="2.20233">
        <ele>1586.5</ele>
        <time>2024-09-25T10:57:07Z</time>
      </trkpt>
      <trkpt lat="42.37663" lon="2.20234">
        <ele>1586.5</ele>
        <time>2024-09-25T10:57:08Z</time>
      </trkpt>
      <trkpt lat="42.37664" lon="2.20234">
        <ele>1586.5</ele>
        <time>2024-09-25T10:57:09Z</time>
      </trkpt>
      <trkpt lat="42.37664" lon="2.20234">
        <ele>1586.5</ele>
        <time>2024-09-25T10:57:10Z</time>
      </trkpt>
      <trkpt lat="42.37665" lon="2.20234">
        <ele>1586.5</ele>
        <time>2024-09-25T10:57:11Z</time>
      </trkpt>
      <trkpt lat="42.37665" lon="2.20234">
        <ele>1586.5</ele>
        <time>2024-09-25T10:57:12Z</time>
      </trkpt>
      <trkpt lat="42.37665" lon="2.20234">
        <ele>1586.5</ele>
        <time>2024-09-25T10:57:13Z</time>
      </trkpt>
      <trkpt lat="42.37665" lon="2.20235">
        <ele>1588</ele>
        <time>2024-09-25T10:57:14Z</time>
      </trkpt>
      <trkpt lat="42.37665" lon="2.20235">
        <ele>1588</ele>
        <time>2024-09-25T10:57:15Z</time>
      </trkpt>
      <trkpt lat="42.37665" lon="2.20235">
        <ele>1588</ele>
        <time>2024-09-25T10:57:16Z</time>
      </trkpt>
      <trkpt lat="42.37665" lon="2.20235">
        <ele>1588</ele>
        <time>2024-09-25T10:57:17Z</time>
      </trkpt>
      <trkpt lat="42.37665" lon="2.20235">
        <ele>1588</ele>
        <time>2024-09-25T10:57:18Z</time>
      </trkpt>
      <trkpt lat="42.37666" lon="2.20235">
        <ele>1588</ele>
        <time>2024-09-25T10:57:19Z</time>
      </trkpt>
      <trkpt lat="42.37666" lon="2.20235">
        <ele>1588</ele>
        <time>2024-09-25T10:57:20Z</time>
      </trkpt>
      <trkpt lat="42.37666" lon="2.20235">
        <ele>1588</ele>
        <time>2024-09-25T10:57:21Z</time>
      </trkpt>
      <trkpt lat="42.37666" lon="2.20235">
        <ele>1588</ele>
        <time>2024-09-25T10:57:22Z</time>
      </trkpt>
      <trkpt lat="42.37666" lon="2.20235">
        <ele>1588</ele>
        <time>2024-09-25T10:57:23Z</time>
      </trkpt>
      <trkpt lat="42.37666" lon="2.20235">
        <ele>1588</ele>
        <time>2024-09-25T10:57:24Z</time>
      </trkpt>
      <trkpt lat="42.37666" lon="2.20235">
        <ele>1588</ele>
        <time>2024-09-25T10:57:25Z</time>
      </trkpt>
      <trkpt lat="42.37666" lon="2.20236">
        <ele>1588</ele>
        <time>2024-09-25T10:57:26Z</time>
      </trkpt>
      <trkpt lat="42.37667" lon="2.20236">
        <ele>1588</ele>
        <time>2024-09-25T10:57:27Z</time>
      </trkpt>
      <trkpt lat="42.37667" lon="2.20236">
        <ele>1588</ele>
        <time>2024-09-25T10:57:28Z</time>
      </trkpt>
      <trkpt lat="42.37667" lon="2.20236">
        <ele>1588</ele>
        <time>2024-09-25T10:57:29Z</time>
      </trkpt>
      <trkpt lat="42.37667" lon="2.20236">
        <ele>1588</ele>
        <time>2024-09-25T10:57:30Z</time>
      </trkpt>
      <trkpt lat="42.37667" lon="2.20236">
        <ele>1588</ele>
        <time>2024-09-25T10:57:31Z</time>
      </trkpt>
      <trkpt lat="42.37667" lon="2.20236">
        <ele>1588</ele>
        <time>2024-09-25T10:57:32Z</time>
      </trkpt>
      <trkpt lat="42.37667" lon="2.20236">
        <ele>1588</ele>
        <time>2024-09-25T10:57:33Z</time>
      </trkpt>
      <trkpt lat="42.37668" lon="2.20236">
        <ele>1588</ele>
        <time>2024-09-25T10:57:34Z</time>
      </trkpt>
      <trkpt lat="42.37668" lon="2.20237">
        <ele>1589.6</ele>
        <time>2024-09-25T10:57:35Z</time>
      </trkpt>
      <trkpt lat="42.37669" lon="2.20237">
        <ele>1589.9</ele>
        <time>2024-09-25T10:57:36Z</time>
      </trkpt>
      <trkpt lat="42.37668" lon="2.20238">
        <ele>1589.9</ele>
        <time>2024-09-25T10:57:37Z</time>
      </trkpt>
      <trkpt lat="42.37668" lon="2.20238">
        <ele>1588.3</ele>
        <time>2024-09-25T10:57:38Z</time>
      </trkpt>
      <trkpt lat="42.37668" lon="2.20239">
        <ele>1588.3</ele>
        <time>2024-09-25T10:57:39Z</time>
      </trkpt>
      <trkpt lat="42.37668" lon="2.2024">
        <ele>1588.3</ele>
        <time>2024-09-25T10:57:40Z</time>
      </trkpt>
      <trkpt lat="42.37668" lon="2.2024">
        <ele>1588.3</ele>
        <time>2024-09-25T10:57:41Z</time>
      </trkpt>
      <trkpt lat="42.37668" lon="2.2024">
        <ele>1588.3</ele>
        <time>2024-09-25T10:57:42Z</time>
      </trkpt>
      <trkpt lat="42.37668" lon="2.20241">
        <ele>1589.9</ele>
        <time>2024-09-25T10:57:43Z</time>
      </trkpt>
      <trkpt lat="42.37668" lon="2.20241">
        <ele>1589.9</ele>
        <time>2024-09-25T10:57:44Z</time>
      </trkpt>
      <trkpt lat="42.37668" lon="2.20241">
        <ele>1589.9</ele>
        <time>2024-09-25T10:57:45Z</time>
      </trkpt>
      <trkpt lat="42.37669" lon="2.20241">
        <ele>1589.9</ele>
        <time>2024-09-25T10:57:46Z</time>
      </trkpt>
      <trkpt lat="42.37668" lon="2.20242">
        <ele>1590.1</ele>
        <time>2024-09-25T10:57:47Z</time>
      </trkpt>
      <trkpt lat="42.37668" lon="2.20242">
        <ele>1590.1</ele>
        <time>2024-09-25T10:57:48Z</time>
      </trkpt>
      <trkpt lat="42.37668" lon="2.20242">
        <ele>1590.1</ele>
        <time>2024-09-25T10:57:49Z</time>
      </trkpt>
      <trkpt lat="42.37668" lon="2.20243">
        <ele>1588.5</ele>
        <time>2024-09-25T10:57:50Z</time>
      </trkpt>
      <trkpt lat="42.37668" lon="2.20243">
        <ele>1588.5</ele>
        <time>2024-09-25T10:57:51Z</time>
      </trkpt>
      <trkpt lat="42.37668" lon="2.20243">
        <ele>1588.5</ele>
        <time>2024-09-25T10:57:52Z</time>
      </trkpt>
      <trkpt lat="42.37668" lon="2.20243">
        <ele>1588.5</ele>
        <time>2024-09-25T10:57:53Z</time>
      </trkpt>
      <trkpt lat="42.37668" lon="2.20244">
        <ele>1588.5</ele>
        <time>2024-09-25T10:57:54Z</time>
      </trkpt>
      <trkpt lat="42.37668" lon="2.20244">
        <ele>1588.5</ele>
        <time>2024-09-25T10:57:55Z</time>
      </trkpt>
      <trkpt lat="42.37668" lon="2.20244">
        <ele>1588.5</ele>
        <time>2024-09-25T10:57:56Z</time>
      </trkpt>
      <trkpt lat="42.37668" lon="2.20244">
        <ele>1588.5</ele>
        <time>2024-09-25T10:57:57Z</time>
      </trkpt>
      <trkpt lat="42.37668" lon="2.20244">
        <ele>1588.5</ele>
        <time>2024-09-25T10:57:58Z</time>
      </trkpt>
      <trkpt lat="42.37668" lon="2.20244">
        <ele>1588.5</ele>
        <time>2024-09-25T10:57:59Z</time>
      </trkpt>
      <trkpt lat="42.37668" lon="2.20244">
        <ele>1588.5</ele>
        <time>2024-09-25T10:58:00Z</time>
      </trkpt>
      <trkpt lat="42.37668" lon="2.20245">
        <ele>1588.5</ele>
        <time>2024-09-25T10:58:01Z</time>
      </trkpt>
      <trkpt lat="42.37668" lon="2.20245">
        <ele>1588.5</ele>
        <time>2024-09-25T10:58:02Z</time>
      </trkpt>
      <trkpt lat="42.37668" lon="2.20246">
        <ele>1590.1</ele>
        <time>2024-09-25T10:58:03Z</time>
      </trkpt>
      <trkpt lat="42.37668" lon="2.20246">
        <ele>1590.3</ele>
        <time>2024-09-25T10:58:04Z</time>
      </trkpt>
      <trkpt lat="42.37668" lon="2.20247">
        <ele>1590.3</ele>
        <time>2024-09-25T10:58:05Z</time>
      </trkpt>
      <trkpt lat="42.37668" lon="2.20247">
        <ele>1590.3</ele>
        <time>2024-09-25T10:58:06Z</time>
      </trkpt>
      <trkpt lat="42.37669" lon="2.20248">
        <ele>1590.3</ele>
        <time>2024-09-25T10:58:07Z</time>
      </trkpt>
      <trkpt lat="42.37669" lon="2.20248">
        <ele>1590.3</ele>
        <time>2024-09-25T10:58:08Z</time>
      </trkpt>
      <trkpt lat="42.37669" lon="2.20249">
        <ele>1590.3</ele>
        <time>2024-09-25T10:58:09Z</time>
      </trkpt>
      <trkpt lat="42.37669" lon="2.2025">
        <ele>1590.3</ele>
        <time>2024-09-25T10:58:10Z</time>
      </trkpt>
      <trkpt lat="42.37669" lon="2.2025">
        <ele>1590.3</ele>
        <time>2024-09-25T10:58:11Z</time>
      </trkpt>
      <trkpt lat="42.37669" lon="2.20251">
        <ele>1590.7</ele>
        <time>2024-09-25T10:58:12Z</time>
      </trkpt>
      <trkpt lat="42.37669" lon="2.20251">
        <ele>1590.7</ele>
        <time>2024-09-25T10:58:13Z</time>
      </trkpt>
      <trkpt lat="42.3767" lon="2.20252">
        <ele>1590.7</ele>
        <time>2024-09-25T10:58:14Z</time>
      </trkpt>
      <trkpt lat="42.3767" lon="2.20253">
        <ele>1590.7</ele>
        <time>2024-09-25T10:58:15Z</time>
      </trkpt>
      <trkpt lat="42.3767" lon="2.20254">
        <ele>1590.7</ele>
        <time>2024-09-25T10:58:16Z</time>
      </trkpt>
      <trkpt lat="42.3767" lon="2.20254">
        <ele>1590.7</ele>
        <time>2024-09-25T10:58:17Z</time>
      </trkpt>
      <trkpt lat="42.37671" lon="2.20255">
        <ele>1591.1</ele>
        <time>2024-09-25T10:58:18Z</time>
      </trkpt>
      <trkpt lat="42.37671" lon="2.20255">
        <ele>1591.1</ele>
        <time>2024-09-25T10:58:19Z</time>
      </trkpt>
      <trkpt lat="42.37671" lon="2.20255">
        <ele>1591.1</ele>
        <time>2024-09-25T10:58:20Z</time>
      </trkpt>
      <trkpt lat="42.37671" lon="2.20256">
        <ele>1591.1</ele>
        <time>2024-09-25T10:58:21Z</time>
      </trkpt>
      <trkpt lat="42.37671" lon="2.20256">
        <ele>1591.1</ele>
        <time>2024-09-25T10:58:22Z</time>
      </trkpt>
      <trkpt lat="42.37671" lon="2.20256">
        <ele>1591.1</ele>
        <time>2024-09-25T10:58:23Z</time>
      </trkpt>
      <trkpt lat="42.37671" lon="2.20256">
        <ele>1592.8</ele>
        <time>2024-09-25T10:58:24Z</time>
      </trkpt>
      <trkpt lat="42.37671" lon="2.20256">
        <ele>1592.8</ele>
        <time>2024-09-25T10:58:25Z</time>
      </trkpt>
      <trkpt lat="42.37671" lon="2.20256">
        <ele>1592.8</ele>
        <time>2024-09-25T10:58:26Z</time>
      </trkpt>
      <trkpt lat="42.37671" lon="2.20256">
        <ele>1592.8</ele>
        <time>2024-09-25T10:58:27Z</time>
      </trkpt>
      <trkpt lat="42.37671" lon="2.20256">
        <ele>1592.8</ele>
        <time>2024-09-25T10:58:28Z</time>
      </trkpt>
      <trkpt lat="42.37671" lon="2.20257">
        <ele>1591.1</ele>
        <time>2024-09-25T10:58:29Z</time>
      </trkpt>
      <trkpt lat="42.37671" lon="2.20257">
        <ele>1591.1</ele>
        <time>2024-09-25T10:58:30Z</time>
      </trkpt>
      <trkpt lat="42.37671" lon="2.20257">
        <ele>1591.1</ele>
        <time>2024-09-25T10:58:31Z</time>
      </trkpt>
      <trkpt lat="42.37671" lon="2.20257">
        <ele>1591.1</ele>
        <time>2024-09-25T10:58:32Z</time>
      </trkpt>
      <trkpt lat="42.37671" lon="2.20257">
        <ele>1591.1</ele>
        <time>2024-09-25T10:58:33Z</time>
      </trkpt>
      <trkpt lat="42.37671" lon="2.20257">
        <ele>1591.1</ele>
        <time>2024-09-25T10:58:34Z</time>
      </trkpt>
      <trkpt lat="42.37671" lon="2.20257">
        <ele>1591.1</ele>
        <time>2024-09-25T10:58:35Z</time>
      </trkpt>
      <trkpt lat="42.37671" lon="2.20257">
        <ele>1591.1</ele>
        <time>2024-09-25T10:58:36Z</time>
      </trkpt>
      <trkpt lat="42.37671" lon="2.20258">
        <ele>1591.1</ele>
        <time>2024-09-25T10:58:37Z</time>
      </trkpt>
      <trkpt lat="42.37671" lon="2.20258">
        <ele>1592.8</ele>
        <time>2024-09-25T10:58:38Z</time>
      </trkpt>
      <trkpt lat="42.37672" lon="2.20258">
        <ele>1592.8</ele>
        <time>2024-09-25T10:58:39Z</time>
      </trkpt>
      <trkpt lat="42.37672" lon="2.20258">
        <ele>1592.8</ele>
        <time>2024-09-25T10:58:40Z</time>
      </trkpt>
      <trkpt lat="42.37672" lon="2.20258">
        <ele>1592.8</ele>
        <time>2024-09-25T10:58:41Z</time>
      </trkpt>
      <trkpt lat="42.37673" lon="2.20259">
        <ele>1593.4</ele>
        <time>2024-09-25T10:58:42Z</time>
      </trkpt>
      <trkpt lat="42.37673" lon="2.2026">
        <ele>1593.4</ele>
        <time>2024-09-25T10:58:43Z</time>
      </trkpt>
      <trkpt lat="42.37673" lon="2.2026">
        <ele>1593.4</ele>
        <time>2024-09-25T10:58:44Z</time>
      </trkpt>
      <trkpt lat="42.37674" lon="2.20261">
        <ele>1593.4</ele>
        <time>2024-09-25T10:58:45Z</time>
      </trkpt>
      <trkpt lat="42.37674" lon="2.20261">
        <ele>1593.4</ele>
        <time>2024-09-25T10:58:46Z</time>
      </trkpt>
      <trkpt lat="42.37674" lon="2.20261">
        <ele>1593.4</ele>
        <time>2024-09-25T10:58:47Z</time>
      </trkpt>
      <trkpt lat="42.37674" lon="2.20261">
        <ele>1593.4</ele>
        <time>2024-09-25T10:58:48Z</time>
      </trkpt>
      <trkpt lat="42.37674" lon="2.20261">
        <ele>1593.4</ele>
        <time>2024-09-25T10:58:49Z</time>
      </trkpt>
      <trkpt lat="42.37674" lon="2.20261">
        <ele>1593.4</ele>
        <time>2024-09-25T10:58:50Z</time>
      </trkpt>
      <trkpt lat="42.37674" lon="2.20261">
        <ele>1593.4</ele>
        <time>2024-09-25T10:58:51Z</time>
      </trkpt>
      <trkpt lat="42.37674" lon="2.20262">
        <ele>1593.4</ele>
        <time>2024-09-25T10:58:52Z</time>
      </trkpt>
      <trkpt lat="42.37674" lon="2.20262">
        <ele>1593.4</ele>
        <time>2024-09-25T10:58:53Z</time>
      </trkpt>
      <trkpt lat="42.37675" lon="2.20263">
        <ele>1595.1</ele>
        <time>2024-09-25T10:58:54Z</time>
      </trkpt>
      <trkpt lat="42.37675" lon="2.20264">
        <ele>1595.9</ele>
        <time>2024-09-25T10:58:55Z</time>
      </trkpt>
      <trkpt lat="42.37675" lon="2.20265">
        <ele>1595.9</ele>
        <time>2024-09-25T10:58:56Z</time>
      </trkpt>
      <trkpt lat="42.37675" lon="2.20265">
        <ele>1595.9</ele>
        <time>2024-09-25T10:58:57Z</time>
      </trkpt>
      <trkpt lat="42.37675" lon="2.20266">
        <ele>1595.9</ele>
        <time>2024-09-25T10:58:58Z</time>
      </trkpt>
      <trkpt lat="42.37675" lon="2.20267">
        <ele>1595.9</ele>
        <time>2024-09-25T10:58:59Z</time>
      </trkpt>
      <trkpt lat="42.37675" lon="2.20268">
        <ele>1597</ele>
        <time>2024-09-25T10:59:00Z</time>
      </trkpt>
      <trkpt lat="42.37675" lon="2.20268">
        <ele>1597</ele>
        <time>2024-09-25T10:59:01Z</time>
      </trkpt>
      <trkpt lat="42.37675" lon="2.20268">
        <ele>1597</ele>
        <time>2024-09-25T10:59:02Z</time>
      </trkpt>
      <trkpt lat="42.37675" lon="2.20268">
        <ele>1597</ele>
        <time>2024-09-25T10:59:03Z</time>
      </trkpt>
      <trkpt lat="42.37674" lon="2.20269">
        <ele>1595.3</ele>
        <time>2024-09-25T10:59:05Z</time>
      </trkpt>
      <trkpt lat="42.37674" lon="2.20269">
        <ele>1595.3</ele>
        <time>2024-09-25T10:59:06Z</time>
      </trkpt>
      <trkpt lat="42.37674" lon="2.20269">
        <ele>1597</ele>
        <time>2024-09-25T10:59:07Z</time>
      </trkpt>
      <trkpt lat="42.37674" lon="2.20269">
        <ele>1597</ele>
        <time>2024-09-25T10:59:08Z</time>
      </trkpt>
      <trkpt lat="42.37674" lon="2.20269">
        <ele>1597</ele>
        <time>2024-09-25T10:59:09Z</time>
      </trkpt>
      <trkpt lat="42.37675" lon="2.20269">
        <ele>1597</ele>
        <time>2024-09-25T10:59:10Z</time>
      </trkpt>
      <trkpt lat="42.37675" lon="2.20269">
        <ele>1597</ele>
        <time>2024-09-25T10:59:11Z</time>
      </trkpt>
      <trkpt lat="42.37675" lon="2.20269">
        <ele>1597</ele>
        <time>2024-09-25T10:59:12Z</time>
      </trkpt>
      <trkpt lat="42.37675" lon="2.20269">
        <ele>1597</ele>
        <time>2024-09-25T10:59:13Z</time>
      </trkpt>
      <trkpt lat="42.37675" lon="2.20269">
        <ele>1597</ele>
        <time>2024-09-25T10:59:14Z</time>
      </trkpt>
      <trkpt lat="42.37675" lon="2.20269">
        <ele>1597</ele>
        <time>2024-09-25T10:59:15Z</time>
      </trkpt>
      <trkpt lat="42.37675" lon="2.20269">
        <ele>1597</ele>
        <time>2024-09-25T10:59:16Z</time>
      </trkpt>
      <trkpt lat="42.37675" lon="2.20269">
        <ele>1597</ele>
        <time>2024-09-25T10:59:17Z</time>
      </trkpt>
      <trkpt lat="42.37675" lon="2.20269">
        <ele>1597</ele>
        <time>2024-09-25T10:59:18Z</time>
      </trkpt>
      <trkpt lat="42.37675" lon="2.20269">
        <ele>1597</ele>
        <time>2024-09-25T10:59:19Z</time>
      </trkpt>
      <trkpt lat="42.37675" lon="2.20269">
        <ele>1597</ele>
        <time>2024-09-25T10:59:20Z</time>
      </trkpt>
      <trkpt lat="42.37675" lon="2.20269">
        <ele>1597</ele>
        <time>2024-09-25T10:59:21Z</time>
      </trkpt>
      <trkpt lat="42.37675" lon="2.2027">
        <ele>1597</ele>
        <time>2024-09-25T10:59:22Z</time>
      </trkpt>
      <trkpt lat="42.37675" lon="2.2027">
        <ele>1597</ele>
        <time>2024-09-25T10:59:23Z</time>
      </trkpt>
      <trkpt lat="42.37674" lon="2.2027">
        <ele>1595.3</ele>
        <time>2024-09-25T10:59:24Z</time>
      </trkpt>
      <trkpt lat="42.37674" lon="2.2027">
        <ele>1595.3</ele>
        <time>2024-09-25T10:59:25Z</time>
      </trkpt>
      <trkpt lat="42.37674" lon="2.2027">
        <ele>1595.3</ele>
        <time>2024-09-25T10:59:26Z</time>
      </trkpt>
      <trkpt lat="42.37674" lon="2.2027">
        <ele>1595.3</ele>
        <time>2024-09-25T10:59:27Z</time>
      </trkpt>
      <trkpt lat="42.37674" lon="2.20269">
        <ele>1595.3</ele>
        <time>2024-09-25T10:59:28Z</time>
      </trkpt>
      <trkpt lat="42.37674" lon="2.20269">
        <ele>1595.3</ele>
        <time>2024-09-25T10:59:29Z</time>
      </trkpt>
      <trkpt lat="42.37674" lon="2.20269">
        <ele>1595.3</ele>
        <time>2024-09-25T10:59:30Z</time>
      </trkpt>
      <trkpt lat="42.37674" lon="2.20269">
        <ele>1595.3</ele>
        <time>2024-09-25T10:59:31Z</time>
      </trkpt>
      <trkpt lat="42.37674" lon="2.20269">
        <ele>1595.3</ele>
        <time>2024-09-25T10:59:32Z</time>
      </trkpt>
      <trkpt lat="42.37674" lon="2.20269">
        <ele>1595.3</ele>
        <time>2024-09-25T10:59:33Z</time>
      </trkpt>
      <trkpt lat="42.37674" lon="2.20269">
        <ele>1595.3</ele>
        <time>2024-09-25T10:59:34Z</time>
      </trkpt>
      <trkpt lat="42.37674" lon="2.20269">
        <ele>1595.3</ele>
        <time>2024-09-25T10:59:35Z</time>
      </trkpt>
      <trkpt lat="42.37674" lon="2.20269">
        <ele>1595.3</ele>
        <time>2024-09-25T10:59:36Z</time>
      </trkpt>
      <trkpt lat="42.37674" lon="2.2027">
        <ele>1595.3</ele>
        <time>2024-09-25T10:59:37Z</time>
      </trkpt>
      <trkpt lat="42.37674" lon="2.2027">
        <ele>1595.3</ele>
        <time>2024-09-25T10:59:38Z</time>
      </trkpt>
      <trkpt lat="42.37674" lon="2.20269">
        <ele>1595.3</ele>
        <time>2024-09-25T10:59:39Z</time>
      </trkpt>
      <trkpt lat="42.37674" lon="2.20269">
        <ele>1595.3</ele>
        <time>2024-09-25T10:59:40Z</time>
      </trkpt>
      <trkpt lat="42.37674" lon="2.20269">
        <ele>1595.3</ele>
        <time>2024-09-25T10:59:41Z</time>
      </trkpt>
      <trkpt lat="42.37673" lon="2.20269">
        <ele>1595.3</ele>
        <time>2024-09-25T10:59:42Z</time>
      </trkpt>
      <trkpt lat="42.37673" lon="2.20269">
        <ele>1595.3</ele>
        <time>2024-09-25T10:59:43Z</time>
      </trkpt>
      <trkpt lat="42.37673" lon="2.20269">
        <ele>1595.3</ele>
        <time>2024-09-25T10:59:44Z</time>
      </trkpt>
      <trkpt lat="42.37672" lon="2.20269">
        <ele>1595.3</ele>
        <time>2024-09-25T10:59:45Z</time>
      </trkpt>
      <trkpt lat="42.37672" lon="2.20269">
        <ele>1595.3</ele>
        <time>2024-09-25T10:59:46Z</time>
      </trkpt>
      <trkpt lat="42.37672" lon="2.20269">
        <ele>1595.3</ele>
        <time>2024-09-25T10:59:47Z</time>
      </trkpt>
      <trkpt lat="42.37671" lon="2.2027">
        <ele>1595.3</ele>
        <time>2024-09-25T10:59:48Z</time>
      </trkpt>
      <trkpt lat="42.37671" lon="2.2027">
        <ele>1593.7</ele>
        <time>2024-09-25T10:59:49Z</time>
      </trkpt>
      <trkpt lat="42.37671" lon="2.2027">
        <ele>1593.7</ele>
        <time>2024-09-25T10:59:50Z</time>
      </trkpt>
      <trkpt lat="42.37671" lon="2.20271">
        <ele>1593.7</ele>
        <time>2024-09-25T10:59:51Z</time>
      </trkpt>
      <trkpt lat="42.37671" lon="2.20271">
        <ele>1593.7</ele>
        <time>2024-09-25T10:59:52Z</time>
      </trkpt>
      <trkpt lat="42.37671" lon="2.20271">
        <ele>1593.7</ele>
        <time>2024-09-25T10:59:53Z</time>
      </trkpt>
      <trkpt lat="42.3767" lon="2.20271">
        <ele>1593.7</ele>
        <time>2024-09-25T10:59:54Z</time>
      </trkpt>
      <trkpt lat="42.3767" lon="2.20271">
        <ele>1593.7</ele>
        <time>2024-09-25T10:59:55Z</time>
      </trkpt>
      <trkpt lat="42.3767" lon="2.20271">
        <ele>1593.7</ele>
        <time>2024-09-25T10:59:56Z</time>
      </trkpt>
      <trkpt lat="42.3767" lon="2.20271">
        <ele>1593.7</ele>
        <time>2024-09-25T10:59:57Z</time>
      </trkpt>
      <trkpt lat="42.3767" lon="2.20271">
        <ele>1593.7</ele>
        <time>2024-09-25T10:59:58Z</time>
      </trkpt>
      <trkpt lat="42.3767" lon="2.20271">
        <ele>1593.7</ele>
        <time>2024-09-25T10:59:59Z</time>
      </trkpt>
      <trkpt lat="42.3767" lon="2.20271">
        <ele>1593.7</ele>
        <time>2024-09-25T11:00:00Z</time>
      </trkpt>
      <trkpt lat="42.3767" lon="2.20271">
        <ele>1593.7</ele>
        <time>2024-09-25T11:00:01Z</time>
      </trkpt>
      <trkpt lat="42.3767" lon="2.2027">
        <ele>1593.7</ele>
        <time>2024-09-25T11:00:02Z</time>
      </trkpt>
      <trkpt lat="42.3767" lon="2.2027">
        <ele>1593.7</ele>
        <time>2024-09-25T11:00:03Z</time>
      </trkpt>
      <trkpt lat="42.3767" lon="2.2027">
        <ele>1593.7</ele>
        <time>2024-09-25T11:00:04Z</time>
      </trkpt>
      <trkpt lat="42.37669" lon="2.2027">
        <ele>1593.7</ele>
        <time>2024-09-25T11:00:05Z</time>
      </trkpt>
      <trkpt lat="42.37669" lon="2.2027">
        <ele>1593.7</ele>
        <time>2024-09-25T11:00:06Z</time>
      </trkpt>
      <trkpt lat="42.37669" lon="2.2027">
        <ele>1593.7</ele>
        <time>2024-09-25T11:00:07Z</time>
      </trkpt>
      <trkpt lat="42.3767" lon="2.2027">
        <ele>1593.7</ele>
        <time>2024-09-25T11:00:08Z</time>
      </trkpt>
      <trkpt lat="42.3767" lon="2.2027">
        <ele>1593.7</ele>
        <time>2024-09-25T11:00:09Z</time>
      </trkpt>
      <trkpt lat="42.37669" lon="2.2027">
        <ele>1593.7</ele>
        <time>2024-09-25T11:00:10Z</time>
      </trkpt>
      <trkpt lat="42.37669" lon="2.2027">
        <ele>1593.7</ele>
        <time>2024-09-25T11:00:11Z</time>
      </trkpt>
      <trkpt lat="42.37669" lon="2.2027">
        <ele>1593.7</ele>
        <time>2024-09-25T11:00:12Z</time>
      </trkpt>
      <trkpt lat="42.37669" lon="2.2027">
        <ele>1593.7</ele>
        <time>2024-09-25T11:00:13Z</time>
      </trkpt>
      <trkpt lat="42.37669" lon="2.2027">
        <ele>1593.7</ele>
        <time>2024-09-25T11:00:14Z</time>
      </trkpt>
      <trkpt lat="42.37669" lon="2.20271">
        <ele>1593.7</ele>
        <time>2024-09-25T11:00:15Z</time>
      </trkpt>
      <trkpt lat="42.37669" lon="2.20271">
        <ele>1593.7</ele>
        <time>2024-09-25T11:00:16Z</time>
      </trkpt>
      <trkpt lat="42.37669" lon="2.20271">
        <ele>1593.7</ele>
        <time>2024-09-25T11:00:17Z</time>
      </trkpt>
      <trkpt lat="42.37669" lon="2.20272">
        <ele>1593.7</ele>
        <time>2024-09-25T11:00:18Z</time>
      </trkpt>
      <trkpt lat="42.37669" lon="2.20272">
        <ele>1595.1</ele>
        <time>2024-09-25T11:00:19Z</time>
      </trkpt>
      <trkpt lat="42.37669" lon="2.20272">
        <ele>1595.1</ele>
        <time>2024-09-25T11:00:20Z</time>
      </trkpt>
      <trkpt lat="42.37669" lon="2.20272">
        <ele>1595.1</ele>
        <time>2024-09-25T11:00:21Z</time>
      </trkpt>
      <trkpt lat="42.37669" lon="2.20272">
        <ele>1595.1</ele>
        <time>2024-09-25T11:00:22Z</time>
      </trkpt>
      <trkpt lat="42.37669" lon="2.20272">
        <ele>1595.1</ele>
        <time>2024-09-25T11:00:23Z</time>
      </trkpt>
      <trkpt lat="42.37669" lon="2.20272">
        <ele>1595.1</ele>
        <time>2024-09-25T11:00:24Z</time>
      </trkpt>
      <trkpt lat="42.37668" lon="2.20272">
        <ele>1595.1</ele>
        <time>2024-09-25T11:00:25Z</time>
      </trkpt>
      <trkpt lat="42.37668" lon="2.20272">
        <ele>1593.6</ele>
        <time>2024-09-25T11:00:26Z</time>
      </trkpt>
      <trkpt lat="42.37667" lon="2.20272">
        <ele>1593.6</ele>
        <time>2024-09-25T11:00:27Z</time>
      </trkpt>
      <trkpt lat="42.37667" lon="2.20272">
        <ele>1593.6</ele>
        <time>2024-09-25T11:00:28Z</time>
      </trkpt>
      <trkpt lat="42.37667" lon="2.20273">
        <ele>1593.6</ele>
        <time>2024-09-25T11:00:29Z</time>
      </trkpt>
      <trkpt lat="42.37667" lon="2.20273">
        <ele>1593.6</ele>
        <time>2024-09-25T11:00:30Z</time>
      </trkpt>
      <trkpt lat="42.37667" lon="2.20273">
        <ele>1593.6</ele>
        <time>2024-09-25T11:00:31Z</time>
      </trkpt>
      <trkpt lat="42.37667" lon="2.20273">
        <ele>1593.6</ele>
        <time>2024-09-25T11:00:32Z</time>
      </trkpt>
      <trkpt lat="42.37667" lon="2.20273">
        <ele>1593.6</ele>
        <time>2024-09-25T11:00:33Z</time>
      </trkpt>
      <trkpt lat="42.37667" lon="2.20273">
        <ele>1593.6</ele>
        <time>2024-09-25T11:00:34Z</time>
      </trkpt>
      <trkpt lat="42.37667" lon="2.20273">
        <ele>1593.6</ele>
        <time>2024-09-25T11:00:35Z</time>
      </trkpt>
      <trkpt lat="42.37667" lon="2.20273">
        <ele>1593.6</ele>
        <time>2024-09-25T11:00:36Z</time>
      </trkpt>
      <trkpt lat="42.37666" lon="2.20274">
        <ele>1593.6</ele>
        <time>2024-09-25T11:00:37Z</time>
      </trkpt>
      <trkpt lat="42.37666" lon="2.20274">
        <ele>1593.6</ele>
        <time>2024-09-25T11:00:39Z</time>
      </trkpt>
      <trkpt lat="42.37666" lon="2.20273">
        <ele>1593.6</ele>
        <time>2024-09-25T11:00:41Z</time>
      </trkpt>
      <trkpt lat="42.37666" lon="2.20273">
        <ele>1593.6</ele>
        <time>2024-09-25T11:00:42Z</time>
      </trkpt>
      <trkpt lat="42.37666" lon="2.20274">
        <ele>1593.6</ele>
        <time>2024-09-25T11:00:43Z</time>
      </trkpt>
      <trkpt lat="42.37666" lon="2.20274">
        <ele>1593.6</ele>
        <time>2024-09-25T11:00:44Z</time>
      </trkpt>
      <trkpt lat="42.37666" lon="2.20274">
        <ele>1593.6</ele>
        <time>2024-09-25T11:00:45Z</time>
      </trkpt>
      <trkpt lat="42.37666" lon="2.20274">
        <ele>1593.6</ele>
        <time>2024-09-25T11:00:46Z</time>
      </trkpt>
      <trkpt lat="42.37666" lon="2.20274">
        <ele>1593.6</ele>
        <time>2024-09-25T11:00:47Z</time>
      </trkpt>
      <trkpt lat="42.37665" lon="2.20274">
        <ele>1593.6</ele>
        <time>2024-09-25T11:00:48Z</time>
      </trkpt>
      <trkpt lat="42.37665" lon="2.20274">
        <ele>1593.6</ele>
        <time>2024-09-25T11:00:49Z</time>
      </trkpt>
      <trkpt lat="42.37665" lon="2.20274">
        <ele>1593.6</ele>
        <time>2024-09-25T11:00:50Z</time>
      </trkpt>
      <trkpt lat="42.37665" lon="2.20274">
        <ele>1592.4</ele>
        <time>2024-09-25T11:00:51Z</time>
      </trkpt>
      <trkpt lat="42.37665" lon="2.20274">
        <ele>1592.4</ele>
        <time>2024-09-25T11:00:53Z</time>
      </trkpt>
      <trkpt lat="42.37664" lon="2.20274">
        <ele>1592.4</ele>
        <time>2024-09-25T11:00:54Z</time>
      </trkpt>
      <trkpt lat="42.37664" lon="2.20274">
        <ele>1592.4</ele>
        <time>2024-09-25T11:00:55Z</time>
      </trkpt>
      <trkpt lat="42.37664" lon="2.20274">
        <ele>1592.4</ele>
        <time>2024-09-25T11:00:56Z</time>
      </trkpt>
      <trkpt lat="42.37664" lon="2.20274">
        <ele>1592.4</ele>
        <time>2024-09-25T11:00:57Z</time>
      </trkpt>
      <trkpt lat="42.37664" lon="2.20274">
        <ele>1592.4</ele>
        <time>2024-09-25T11:00:58Z</time>
      </trkpt>
      <trkpt lat="42.37664" lon="2.20274">
        <ele>1592.4</ele>
        <time>2024-09-25T11:00:59Z</time>
      </trkpt>
      <trkpt lat="42.37664" lon="2.20274">
        <ele>1592.4</ele>
        <time>2024-09-25T11:01:00Z</time>
      </trkpt>
      <trkpt lat="42.37664" lon="2.20274">
        <ele>1592.4</ele>
        <time>2024-09-25T11:01:01Z</time>
      </trkpt>
      <trkpt lat="42.37664" lon="2.20274">
        <ele>1592.4</ele>
        <time>2024-09-25T11:01:02Z</time>
      </trkpt>
      <trkpt lat="42.37664" lon="2.20274">
        <ele>1592.4</ele>
        <time>2024-09-25T11:01:03Z</time>
      </trkpt>
      <trkpt lat="42.37663" lon="2.20274">
        <ele>1592.4</ele>
        <time>2024-09-25T11:01:04Z</time>
      </trkpt>
      <trkpt lat="42.37663" lon="2.20274">
        <ele>1592.4</ele>
        <time>2024-09-25T11:01:05Z</time>
      </trkpt>
      <trkpt lat="42.37663" lon="2.20274">
        <ele>1592.4</ele>
        <time>2024-09-25T11:01:06Z</time>
      </trkpt>
      <trkpt lat="42.37663" lon="2.20274">
        <ele>1592.4</ele>
        <time>2024-09-25T11:01:07Z</time>
      </trkpt>
      <trkpt lat="42.37663" lon="2.20274">
        <ele>1592.4</ele>
        <time>2024-09-25T11:01:08Z</time>
      </trkpt>
      <trkpt lat="42.37662" lon="2.20273">
        <ele>1592.4</ele>
        <time>2024-09-25T11:01:09Z</time>
      </trkpt>
      <trkpt lat="42.37662" lon="2.20273">
        <ele>1592.4</ele>
        <time>2024-09-25T11:01:10Z</time>
      </trkpt>
      <trkpt lat="42.37662" lon="2.20274">
        <ele>1592.4</ele>
        <time>2024-09-25T11:01:11Z</time>
      </trkpt>
      <trkpt lat="42.37662" lon="2.20273">
        <ele>1592.4</ele>
        <time>2024-09-25T11:01:12Z</time>
      </trkpt>
      <trkpt lat="42.37662" lon="2.20274">
        <ele>1592.4</ele>
        <time>2024-09-25T11:01:13Z</time>
      </trkpt>
      <trkpt lat="42.37662" lon="2.20274">
        <ele>1592.4</ele>
        <time>2024-09-25T11:01:14Z</time>
      </trkpt>
      <trkpt lat="42.37662" lon="2.20274">
        <ele>1592.4</ele>
        <time>2024-09-25T11:01:15Z</time>
      </trkpt>
      <trkpt lat="42.37662" lon="2.20274">
        <ele>1592.4</ele>
        <time>2024-09-25T11:01:16Z</time>
      </trkpt>
      <trkpt lat="42.37662" lon="2.20273">
        <ele>1592.4</ele>
        <time>2024-09-25T11:01:17Z</time>
      </trkpt>
      <trkpt lat="42.37662" lon="2.20274">
        <ele>1592.4</ele>
        <time>2024-09-25T11:01:18Z</time>
      </trkpt>
      <trkpt lat="42.37662" lon="2.20274">
        <ele>1592.4</ele>
        <time>2024-09-25T11:01:19Z</time>
      </trkpt>
      <trkpt lat="42.37662" lon="2.20274">
        <ele>1591.5</ele>
        <time>2024-09-25T11:01:20Z</time>
      </trkpt>
      <trkpt lat="42.37662" lon="2.20274">
        <ele>1591.5</ele>
        <time>2024-09-25T11:01:21Z</time>
      </trkpt>
      <trkpt lat="42.37662" lon="2.20274">
        <ele>1591.5</ele>
        <time>2024-09-25T11:01:22Z</time>
      </trkpt>
      <trkpt lat="42.37662" lon="2.20274">
        <ele>1591.5</ele>
        <time>2024-09-25T11:01:23Z</time>
      </trkpt>
      <trkpt lat="42.37662" lon="2.20273">
        <ele>1591.5</ele>
        <time>2024-09-25T11:01:24Z</time>
      </trkpt>
      <trkpt lat="42.37662" lon="2.20273">
        <ele>1591.5</ele>
        <time>2024-09-25T11:01:25Z</time>
      </trkpt>
      <trkpt lat="42.37662" lon="2.20273">
        <ele>1591.5</ele>
        <time>2024-09-25T11:01:26Z</time>
      </trkpt>
      <trkpt lat="42.37662" lon="2.20273">
        <ele>1591.5</ele>
        <time>2024-09-25T11:01:27Z</time>
      </trkpt>
      <trkpt lat="42.37662" lon="2.20273">
        <ele>1591.5</ele>
        <time>2024-09-25T11:01:28Z</time>
      </trkpt>
      <trkpt lat="42.37662" lon="2.20273">
        <ele>1592.4</ele>
        <time>2024-09-25T11:01:29Z</time>
      </trkpt>
      <trkpt lat="42.37662" lon="2.20272">
        <ele>1592.4</ele>
        <time>2024-09-25T11:01:30Z</time>
      </trkpt>
      <trkpt lat="42.37662" lon="2.20273">
        <ele>1591.5</ele>
        <time>2024-09-25T11:01:31Z</time>
      </trkpt>
      <trkpt lat="42.37661" lon="2.20273">
        <ele>1591.5</ele>
        <time>2024-09-25T11:01:32Z</time>
      </trkpt>
      <trkpt lat="42.37662" lon="2.20273">
        <ele>1591.5</ele>
        <time>2024-09-25T11:01:33Z</time>
      </trkpt>
      <trkpt lat="42.37662" lon="2.20273">
        <ele>1591.5</ele>
        <time>2024-09-25T11:01:34Z</time>
      </trkpt>
      <trkpt lat="42.37661" lon="2.20273">
        <ele>1591.5</ele>
        <time>2024-09-25T11:01:35Z</time>
      </trkpt>
      <trkpt lat="42.37661" lon="2.20273">
        <ele>1591.5</ele>
        <time>2024-09-25T11:01:36Z</time>
      </trkpt>
      <trkpt lat="42.37661" lon="2.20273">
        <ele>1591.5</ele>
        <time>2024-09-25T11:01:37Z</time>
      </trkpt>
      <trkpt lat="42.37661" lon="2.20273">
        <ele>1591.5</ele>
        <time>2024-09-25T11:01:38Z</time>
      </trkpt>
      <trkpt lat="42.37661" lon="2.20273">
        <ele>1591.5</ele>
        <time>2024-09-25T11:01:39Z</time>
      </trkpt>
      <trkpt lat="42.37662" lon="2.20273">
        <ele>1591.5</ele>
        <time>2024-09-25T11:01:40Z</time>
      </trkpt>
      <trkpt lat="42.37662" lon="2.20273">
        <ele>1591.5</ele>
        <time>2024-09-25T11:01:41Z</time>
      </trkpt>
      <trkpt lat="42.37662" lon="2.20273">
        <ele>1591.5</ele>
        <time>2024-09-25T11:01:42Z</time>
      </trkpt>
      <trkpt lat="42.37662" lon="2.20273">
        <ele>1591.5</ele>
        <time>2024-09-25T11:01:43Z</time>
      </trkpt>
      <trkpt lat="42.37662" lon="2.20273">
        <ele>1591.5</ele>
        <time>2024-09-25T11:01:44Z</time>
      </trkpt>
      <trkpt lat="42.37662" lon="2.20273">
        <ele>1591.5</ele>
        <time>2024-09-25T11:01:45Z</time>
      </trkpt>
      <trkpt lat="42.37662" lon="2.20273">
        <ele>1591.5</ele>
        <time>2024-09-25T11:01:46Z</time>
      </trkpt>
      <trkpt lat="42.37662" lon="2.20273">
        <ele>1591.5</ele>
        <time>2024-09-25T11:01:47Z</time>
      </trkpt>
      <trkpt lat="42.37662" lon="2.20273">
        <ele>1591.5</ele>
        <time>2024-09-25T11:01:48Z</time>
      </trkpt>
      <trkpt lat="42.37662" lon="2.20273">
        <ele>1591.5</ele>
        <time>2024-09-25T11:01:49Z</time>
      </trkpt>
      <trkpt lat="42.37662" lon="2.20273">
        <ele>1591.5</ele>
        <time>2024-09-25T11:01:50Z</time>
      </trkpt>
      <trkpt lat="42.37662" lon="2.20274">
        <ele>1591.5</ele>
        <time>2024-09-25T11:01:51Z</time>
      </trkpt>
      <trkpt lat="42.37662" lon="2.20274">
        <ele>1591.5</ele>
        <time>2024-09-25T11:01:52Z</time>
      </trkpt>
      <trkpt lat="42.37661" lon="2.20274">
        <ele>1591.5</ele>
        <time>2024-09-25T11:01:53Z</time>
      </trkpt>
      <trkpt lat="42.37661" lon="2.20274">
        <ele>1591.5</ele>
        <time>2024-09-25T11:01:54Z</time>
      </trkpt>
      <trkpt lat="42.37661" lon="2.20274">
        <ele>1591.5</ele>
        <time>2024-09-25T11:01:55Z</time>
      </trkpt>
      <trkpt lat="42.37661" lon="2.20274">
        <ele>1591.5</ele>
        <time>2024-09-25T11:01:56Z</time>
      </trkpt>
      <trkpt lat="42.37661" lon="2.20274">
        <ele>1591.5</ele>
        <time>2024-09-25T11:01:57Z</time>
      </trkpt>
      <trkpt lat="42.37661" lon="2.20274">
        <ele>1591.5</ele>
        <time>2024-09-25T11:01:58Z</time>
      </trkpt>
      <trkpt lat="42.37661" lon="2.20274">
        <ele>1591.5</ele>
        <time>2024-09-25T11:01:59Z</time>
      </trkpt>
      <trkpt lat="42.37661" lon="2.20274">
        <ele>1591.5</ele>
        <time>2024-09-25T11:02:00Z</time>
      </trkpt>
      <trkpt lat="42.37661" lon="2.20274">
        <ele>1591.5</ele>
        <time>2024-09-25T11:02:01Z</time>
      </trkpt>
      <trkpt lat="42.37661" lon="2.20275">
        <ele>1591.5</ele>
        <time>2024-09-25T11:02:02Z</time>
      </trkpt>
      <trkpt lat="42.37661" lon="2.20275">
        <ele>1591.5</ele>
        <time>2024-09-25T11:02:03Z</time>
      </trkpt>
      <trkpt lat="42.37661" lon="2.20275">
        <ele>1591.5</ele>
        <time>2024-09-25T11:02:04Z</time>
      </trkpt>
      <trkpt lat="42.37661" lon="2.20275">
        <ele>1591.5</ele>
        <time>2024-09-25T11:02:05Z</time>
      </trkpt>
      <trkpt lat="42.37661" lon="2.20275">
        <ele>1591.5</ele>
        <time>2024-09-25T11:02:06Z</time>
      </trkpt>
      <trkpt lat="42.37661" lon="2.20275">
        <ele>1591.5</ele>
        <time>2024-09-25T11:02:07Z</time>
      </trkpt>
      <trkpt lat="42.37661" lon="2.20275">
        <ele>1591.5</ele>
        <time>2024-09-25T11:02:08Z</time>
      </trkpt>
      <trkpt lat="42.37661" lon="2.20276">
        <ele>1591.5</ele>
        <time>2024-09-25T11:02:09Z</time>
      </trkpt>
      <trkpt lat="42.37661" lon="2.20276">
        <ele>1591.5</ele>
        <time>2024-09-25T11:02:10Z</time>
      </trkpt>
      <trkpt lat="42.37661" lon="2.20276">
        <ele>1593</ele>
        <time>2024-09-25T11:02:11Z</time>
      </trkpt>
      <trkpt lat="42.37661" lon="2.20277">
        <ele>1593</ele>
        <time>2024-09-25T11:02:12Z</time>
      </trkpt>
      <trkpt lat="42.37661" lon="2.20277">
        <ele>1593</ele>
        <time>2024-09-25T11:02:13Z</time>
      </trkpt>
      <trkpt lat="42.37661" lon="2.20277">
        <ele>1593</ele>
        <time>2024-09-25T11:02:14Z</time>
      </trkpt>
      <trkpt lat="42.37661" lon="2.20277">
        <ele>1593</ele>
        <time>2024-09-25T11:02:15Z</time>
      </trkpt>
      <trkpt lat="42.37661" lon="2.20277">
        <ele>1593</ele>
        <time>2024-09-25T11:02:16Z</time>
      </trkpt>
      <trkpt lat="42.37661" lon="2.20277">
        <ele>1593</ele>
        <time>2024-09-25T11:02:17Z</time>
      </trkpt>
      <trkpt lat="42.37661" lon="2.20277">
        <ele>1593</ele>
        <time>2024-09-25T11:02:18Z</time>
      </trkpt>
      <trkpt lat="42.37661" lon="2.20277">
        <ele>1593</ele>
        <time>2024-09-25T11:02:19Z</time>
      </trkpt>
      <trkpt lat="42.37661" lon="2.20277">
        <ele>1593</ele>
        <time>2024-09-25T11:02:20Z</time>
      </trkpt>
      <trkpt lat="42.37661" lon="2.20276">
        <ele>1593</ele>
        <time>2024-09-25T11:02:21Z</time>
      </trkpt>
      <trkpt lat="42.37661" lon="2.20276">
        <ele>1593</ele>
        <time>2024-09-25T11:02:22Z</time>
      </trkpt>
      <trkpt lat="42.37661" lon="2.20276">
        <ele>1593</ele>
        <time>2024-09-25T11:02:23Z</time>
      </trkpt>
      <trkpt lat="42.37661" lon="2.20276">
        <ele>1593</ele>
        <time>2024-09-25T11:02:24Z</time>
      </trkpt>
      <trkpt lat="42.37661" lon="2.20275">
        <ele>1591.5</ele>
        <time>2024-09-25T11:02:25Z</time>
      </trkpt>
      <trkpt lat="42.37661" lon="2.20275">
        <ele>1591.5</ele>
        <time>2024-09-25T11:02:26Z</time>
      </trkpt>
      <trkpt lat="42.37661" lon="2.20276">
        <ele>1591.5</ele>
        <time>2024-09-25T11:02:27Z</time>
      </trkpt>
      <trkpt lat="42.37661" lon="2.20276">
        <ele>1593</ele>
        <time>2024-09-25T11:02:28Z</time>
      </trkpt>
      <trkpt lat="42.37661" lon="2.20276">
        <ele>1593</ele>
        <time>2024-09-25T11:02:29Z</time>
      </trkpt>
      <trkpt lat="42.37661" lon="2.20276">
        <ele>1593</ele>
        <time>2024-09-25T11:02:30Z</time>
      </trkpt>
      <trkpt lat="42.37661" lon="2.20276">
        <ele>1593</ele>
        <time>2024-09-25T11:02:31Z</time>
      </trkpt>
      <trkpt lat="42.37661" lon="2.20277">
        <ele>1593</ele>
        <time>2024-09-25T11:02:32Z</time>
      </trkpt>
      <trkpt lat="42.37661" lon="2.20277">
        <ele>1593</ele>
        <time>2024-09-25T11:02:33Z</time>
      </trkpt>
      <trkpt lat="42.37661" lon="2.20277">
        <ele>1593</ele>
        <time>2024-09-25T11:02:34Z</time>
      </trkpt>
      <trkpt lat="42.37661" lon="2.20277">
        <ele>1593</ele>
        <time>2024-09-25T11:02:35Z</time>
      </trkpt>
      <trkpt lat="42.37661" lon="2.20277">
        <ele>1593</ele>
        <time>2024-09-25T11:02:36Z</time>
      </trkpt>
      <trkpt lat="42.37661" lon="2.20277">
        <ele>1593</ele>
        <time>2024-09-25T11:02:37Z</time>
      </trkpt>
      <trkpt lat="42.37661" lon="2.20277">
        <ele>1593</ele>
        <time>2024-09-25T11:02:38Z</time>
      </trkpt>
      <trkpt lat="42.37661" lon="2.20277">
        <ele>1593</ele>
        <time>2024-09-25T11:02:39Z</time>
      </trkpt>
      <trkpt lat="42.37661" lon="2.20277">
        <ele>1593</ele>
        <time>2024-09-25T11:02:40Z</time>
      </trkpt>
      <trkpt lat="42.37661" lon="2.20277">
        <ele>1593</ele>
        <time>2024-09-25T11:02:41Z</time>
      </trkpt>
      <trkpt lat="42.37661" lon="2.20277">
        <ele>1593</ele>
        <time>2024-09-25T11:02:42Z</time>
      </trkpt>
      <trkpt lat="42.37661" lon="2.20277">
        <ele>1593</ele>
        <time>2024-09-25T11:02:43Z</time>
      </trkpt>
      <trkpt lat="42.37661" lon="2.20277">
        <ele>1593</ele>
        <time>2024-09-25T11:02:44Z</time>
      </trkpt>
      <trkpt lat="42.37661" lon="2.20277">
        <ele>1593</ele>
        <time>2024-09-25T11:02:45Z</time>
      </trkpt>
      <trkpt lat="42.37661" lon="2.20277">
        <ele>1593</ele>
        <time>2024-09-25T11:02:46Z</time>
      </trkpt>
      <trkpt lat="42.37661" lon="2.20277">
        <ele>1593</ele>
        <time>2024-09-25T11:02:47Z</time>
      </trkpt>
      <trkpt lat="42.37661" lon="2.20277">
        <ele>1593</ele>
        <time>2024-09-25T11:02:48Z</time>
      </trkpt>
      <trkpt lat="42.37661" lon="2.20277">
        <ele>1593</ele>
        <time>2024-09-25T11:02:49Z</time>
      </trkpt>
      <trkpt lat="42.37661" lon="2.20277">
        <ele>1593</ele>
        <time>2024-09-25T11:02:50Z</time>
      </trkpt>
      <trkpt lat="42.37661" lon="2.20277">
        <ele>1593</ele>
        <time>2024-09-25T11:02:51Z</time>
      </trkpt>
      <trkpt lat="42.37661" lon="2.20277">
        <ele>1593</ele>
        <time>2024-09-25T11:02:52Z</time>
      </trkpt>
      <trkpt lat="42.37661" lon="2.20277">
        <ele>1593</ele>
        <time>2024-09-25T11:02:53Z</time>
      </trkpt>
      <trkpt lat="42.37661" lon="2.20277">
        <ele>1593</ele>
        <time>2024-09-25T11:02:54Z</time>
      </trkpt>
      <trkpt lat="42.37661" lon="2.20277">
        <ele>1593</ele>
        <time>2024-09-25T11:02:55Z</time>
      </trkpt>
      <trkpt lat="42.37661" lon="2.20277">
        <ele>1593</ele>
        <time>2024-09-25T11:02:56Z</time>
      </trkpt>
      <trkpt lat="42.37661" lon="2.20277">
        <ele>1593</ele>
        <time>2024-09-25T11:02:57Z</time>
      </trkpt>
      <trkpt lat="42.37661" lon="2.20277">
        <ele>1593</ele>
        <time>2024-09-25T11:02:58Z</time>
      </trkpt>
      <trkpt lat="42.37661" lon="2.20277">
        <ele>1593</ele>
        <time>2024-09-25T11:02:59Z</time>
      </trkpt>
      <trkpt lat="42.37661" lon="2.20277">
        <ele>1593</ele>
        <time>2024-09-25T11:03:00Z</time>
      </trkpt>
      <trkpt lat="42.37661" lon="2.20277">
        <ele>1593</ele>
        <time>2024-09-25T11:03:01Z</time>
      </trkpt>
      <trkpt lat="42.3766" lon="2.20277">
        <ele>1593</ele>
        <time>2024-09-25T11:03:02Z</time>
      </trkpt>
      <trkpt lat="42.3766" lon="2.20278">
        <ele>1593</ele>
        <time>2024-09-25T11:03:03Z</time>
      </trkpt>
      <trkpt lat="42.37661" lon="2.20277">
        <ele>1593</ele>
        <time>2024-09-25T11:03:04Z</time>
      </trkpt>
      <trkpt lat="42.37661" lon="2.20277">
        <ele>1593</ele>
        <time>2024-09-25T11:03:05Z</time>
      </trkpt>
      <trkpt lat="42.37661" lon="2.20277">
        <ele>1593</ele>
        <time>2024-09-25T11:03:06Z</time>
      </trkpt>
      <trkpt lat="42.3766" lon="2.20278">
        <ele>1593</ele>
        <time>2024-09-25T11:03:07Z</time>
      </trkpt>
      <trkpt lat="42.3766" lon="2.20278">
        <ele>1593</ele>
        <time>2024-09-25T11:03:08Z</time>
      </trkpt>
      <trkpt lat="42.3766" lon="2.20278">
        <ele>1593</ele>
        <time>2024-09-25T11:03:09Z</time>
      </trkpt>
      <trkpt lat="42.3766" lon="2.20278">
        <ele>1593</ele>
        <time>2024-09-25T11:03:10Z</time>
      </trkpt>
      <trkpt lat="42.3766" lon="2.20278">
        <ele>1593</ele>
        <time>2024-09-25T11:03:11Z</time>
      </trkpt>
      <trkpt lat="42.3766" lon="2.20278">
        <ele>1593</ele>
        <time>2024-09-25T11:03:12Z</time>
      </trkpt>
      <trkpt lat="42.3766" lon="2.20278">
        <ele>1593</ele>
        <time>2024-09-25T11:03:13Z</time>
      </trkpt>
      <trkpt lat="42.37659" lon="2.20278">
        <ele>1593</ele>
        <time>2024-09-25T11:03:14Z</time>
      </trkpt>
      <trkpt lat="42.37659" lon="2.20279">
        <ele>1593</ele>
        <time>2024-09-25T11:03:15Z</time>
      </trkpt>
      <trkpt lat="42.37659" lon="2.20279">
        <ele>1593</ele>
        <time>2024-09-25T11:03:16Z</time>
      </trkpt>
      <trkpt lat="42.37658" lon="2.20279">
        <ele>1592.4</ele>
        <time>2024-09-25T11:03:17Z</time>
      </trkpt>
      <trkpt lat="42.37658" lon="2.20279">
        <ele>1592.4</ele>
        <time>2024-09-25T11:03:18Z</time>
      </trkpt>
      <trkpt lat="42.37658" lon="2.20279">
        <ele>1592.4</ele>
        <time>2024-09-25T11:03:19Z</time>
      </trkpt>
      <trkpt lat="42.37658" lon="2.2028">
        <ele>1592.4</ele>
        <time>2024-09-25T11:03:20Z</time>
      </trkpt>
      <trkpt lat="42.37658" lon="2.2028">
        <ele>1592.4</ele>
        <time>2024-09-25T11:03:21Z</time>
      </trkpt>
      <trkpt lat="42.37658" lon="2.2028">
        <ele>1592.4</ele>
        <time>2024-09-25T11:03:22Z</time>
      </trkpt>
      <trkpt lat="42.37658" lon="2.2028">
        <ele>1592.4</ele>
        <time>2024-09-25T11:03:23Z</time>
      </trkpt>
      <trkpt lat="42.37659" lon="2.2028">
        <ele>1593</ele>
        <time>2024-09-25T11:03:24Z</time>
      </trkpt>
      <trkpt lat="42.37659" lon="2.2028">
        <ele>1593</ele>
        <time>2024-09-25T11:03:25Z</time>
      </trkpt>
      <trkpt lat="42.37659" lon="2.2028">
        <ele>1593</ele>
        <time>2024-09-25T11:03:26Z</time>
      </trkpt>
      <trkpt lat="42.37659" lon="2.2028">
        <ele>1593</ele>
        <time>2024-09-25T11:03:27Z</time>
      </trkpt>
      <trkpt lat="42.37659" lon="2.2028">
        <ele>1593</ele>
        <time>2024-09-25T11:03:28Z</time>
      </trkpt>
      <trkpt lat="42.37659" lon="2.2028">
        <ele>1593</ele>
        <time>2024-09-25T11:03:29Z</time>
      </trkpt>
      <trkpt lat="42.37659" lon="2.2028">
        <ele>1593</ele>
        <time>2024-09-25T11:03:30Z</time>
      </trkpt>
      <trkpt lat="42.37659" lon="2.2028">
        <ele>1593</ele>
        <time>2024-09-25T11:03:31Z</time>
      </trkpt>
      <trkpt lat="42.37659" lon="2.2028">
        <ele>1593</ele>
        <time>2024-09-25T11:03:32Z</time>
      </trkpt>
      <trkpt lat="42.37659" lon="2.2028">
        <ele>1593</ele>
        <time>2024-09-25T11:03:33Z</time>
      </trkpt>
      <trkpt lat="42.37659" lon="2.2028">
        <ele>1593</ele>
        <time>2024-09-25T11:03:34Z</time>
      </trkpt>
      <trkpt lat="42.37659" lon="2.2028">
        <ele>1593</ele>
        <time>2024-09-25T11:03:35Z</time>
      </trkpt>
      <trkpt lat="42.37659" lon="2.2028">
        <ele>1593</ele>
        <time>2024-09-25T11:03:36Z</time>
      </trkpt>
      <trkpt lat="42.37659" lon="2.2028">
        <ele>1593</ele>
        <time>2024-09-25T11:03:37Z</time>
      </trkpt>
      <trkpt lat="42.37659" lon="2.2028">
        <ele>1593</ele>
        <time>2024-09-25T11:03:38Z</time>
      </trkpt>
      <trkpt lat="42.37659" lon="2.2028">
        <ele>1593</ele>
        <time>2024-09-25T11:03:39Z</time>
      </trkpt>
      <trkpt lat="42.37659" lon="2.2028">
        <ele>1593</ele>
        <time>2024-09-25T11:03:40Z</time>
      </trkpt>
      <trkpt lat="42.37659" lon="2.2028">
        <ele>1593</ele>
        <time>2024-09-25T11:03:41Z</time>
      </trkpt>
      <trkpt lat="42.37659" lon="2.2028">
        <ele>1593</ele>
        <time>2024-09-25T11:03:42Z</time>
      </trkpt>
      <trkpt lat="42.3766" lon="2.2028">
        <ele>1593</ele>
        <time>2024-09-25T11:03:43Z</time>
      </trkpt>
      <trkpt lat="42.37659" lon="2.2028">
        <ele>1593</ele>
        <time>2024-09-25T11:03:44Z</time>
      </trkpt>
      <trkpt lat="42.37659" lon="2.2028">
        <ele>1593</ele>
        <time>2024-09-25T11:03:45Z</time>
      </trkpt>
      <trkpt lat="42.37659" lon="2.2028">
        <ele>1593</ele>
        <time>2024-09-25T11:03:46Z</time>
      </trkpt>
      <trkpt lat="42.37659" lon="2.2028">
        <ele>1593</ele>
        <time>2024-09-25T11:03:47Z</time>
      </trkpt>
      <trkpt lat="42.37659" lon="2.2028">
        <ele>1593</ele>
        <time>2024-09-25T11:03:48Z</time>
      </trkpt>
      <trkpt lat="42.37659" lon="2.2028">
        <ele>1593</ele>
        <time>2024-09-25T11:03:49Z</time>
      </trkpt>
      <trkpt lat="42.37659" lon="2.20279">
        <ele>1593</ele>
        <time>2024-09-25T11:03:50Z</time>
      </trkpt>
      <trkpt lat="42.37659" lon="2.20279">
        <ele>1592.4</ele>
        <time>2024-09-25T11:03:51Z</time>
      </trkpt>
      <trkpt lat="42.37658" lon="2.20279">
        <ele>1592.4</ele>
        <time>2024-09-25T11:03:52Z</time>
      </trkpt>
      <trkpt lat="42.37658" lon="2.20279">
        <ele>1592.4</ele>
        <time>2024-09-25T11:03:53Z</time>
      </trkpt>
      <trkpt lat="42.37659" lon="2.2028">
        <ele>1593</ele>
        <time>2024-09-25T11:03:54Z</time>
      </trkpt>
      <trkpt lat="42.37659" lon="2.2028">
        <ele>1593</ele>
        <time>2024-09-25T11:03:55Z</time>
      </trkpt>
      <trkpt lat="42.37659" lon="2.2028">
        <ele>1593</ele>
        <time>2024-09-25T11:03:56Z</time>
      </trkpt>
      <trkpt lat="42.37659" lon="2.2028">
        <ele>1593</ele>
        <time>2024-09-25T11:03:57Z</time>
      </trkpt>
      <trkpt lat="42.37659" lon="2.20279">
        <ele>1593</ele>
        <time>2024-09-25T11:03:58Z</time>
      </trkpt>
      <trkpt lat="42.37658" lon="2.20279">
        <ele>1592.4</ele>
        <time>2024-09-25T11:03:59Z</time>
      </trkpt>
      <trkpt lat="42.37658" lon="2.20279">
        <ele>1592.4</ele>
        <time>2024-09-25T11:04:00Z</time>
      </trkpt>
      <trkpt lat="42.37658" lon="2.20279">
        <ele>1592.4</ele>
        <time>2024-09-25T11:04:01Z</time>
      </trkpt>
      <trkpt lat="42.37658" lon="2.20279">
        <ele>1592.4</ele>
        <time>2024-09-25T11:04:02Z</time>
      </trkpt>
      <trkpt lat="42.37658" lon="2.20279">
        <ele>1592.4</ele>
        <time>2024-09-25T11:04:03Z</time>
      </trkpt>
      <trkpt lat="42.37658" lon="2.20279">
        <ele>1592.4</ele>
        <time>2024-09-25T11:04:04Z</time>
      </trkpt>
      <trkpt lat="42.37658" lon="2.20279">
        <ele>1592.4</ele>
        <time>2024-09-25T11:04:05Z</time>
      </trkpt>
      <trkpt lat="42.37658" lon="2.20279">
        <ele>1592.4</ele>
        <time>2024-09-25T11:04:06Z</time>
      </trkpt>
      <trkpt lat="42.37657" lon="2.20279">
        <ele>1592.4</ele>
        <time>2024-09-25T11:04:07Z</time>
      </trkpt>
      <trkpt lat="42.37657" lon="2.20279">
        <ele>1592.4</ele>
        <time>2024-09-25T11:04:08Z</time>
      </trkpt>
      <trkpt lat="42.37657" lon="2.20279">
        <ele>1592.4</ele>
        <time>2024-09-25T11:04:09Z</time>
      </trkpt>
      <trkpt lat="42.37657" lon="2.20279">
        <ele>1592.4</ele>
        <time>2024-09-25T11:04:10Z</time>
      </trkpt>
      <trkpt lat="42.37657" lon="2.20279">
        <ele>1592.4</ele>
        <time>2024-09-25T11:04:11Z</time>
      </trkpt>
      <trkpt lat="42.37657" lon="2.20278">
        <ele>1592.4</ele>
        <time>2024-09-25T11:04:12Z</time>
      </trkpt>
      <trkpt lat="42.37657" lon="2.20278">
        <ele>1592.4</ele>
        <time>2024-09-25T11:04:13Z</time>
      </trkpt>
      <trkpt lat="42.37657" lon="2.20279">
        <ele>1592.4</ele>
        <time>2024-09-25T11:04:14Z</time>
      </trkpt>
      <trkpt lat="42.37657" lon="2.20279">
        <ele>1592.4</ele>
        <time>2024-09-25T11:04:15Z</time>
      </trkpt>
      <trkpt lat="42.37657" lon="2.20279">
        <ele>1592.4</ele>
        <time>2024-09-25T11:04:16Z</time>
      </trkpt>
      <trkpt lat="42.37657" lon="2.20279">
        <ele>1592.4</ele>
        <time>2024-09-25T11:04:17Z</time>
      </trkpt>
      <trkpt lat="42.37657" lon="2.20279">
        <ele>1592.4</ele>
        <time>2024-09-25T11:04:18Z</time>
      </trkpt>
      <trkpt lat="42.37657" lon="2.20279">
        <ele>1592.4</ele>
        <time>2024-09-25T11:04:19Z</time>
      </trkpt>
      <trkpt lat="42.37657" lon="2.20279">
        <ele>1592.4</ele>
        <time>2024-09-25T11:04:20Z</time>
      </trkpt>
      <trkpt lat="42.37657" lon="2.20279">
        <ele>1592.4</ele>
        <time>2024-09-25T11:04:21Z</time>
      </trkpt>
      <trkpt lat="42.37657" lon="2.20279">
        <ele>1592.4</ele>
        <time>2024-09-25T11:04:22Z</time>
      </trkpt>
      <trkpt lat="42.37657" lon="2.20278">
        <ele>1592.4</ele>
        <time>2024-09-25T11:04:23Z</time>
      </trkpt>
      <trkpt lat="42.37657" lon="2.20278">
        <ele>1592.4</ele>
        <time>2024-09-25T11:04:24Z</time>
      </trkpt>
      <trkpt lat="42.37657" lon="2.20278">
        <ele>1592.4</ele>
        <time>2024-09-25T11:04:25Z</time>
      </trkpt>
      <trkpt lat="42.37657" lon="2.20278">
        <ele>1592.4</ele>
        <time>2024-09-25T11:04:26Z</time>
      </trkpt>
      <trkpt lat="42.37657" lon="2.20278">
        <ele>1592.4</ele>
        <time>2024-09-25T11:04:27Z</time>
      </trkpt>
      <trkpt lat="42.37657" lon="2.20278">
        <ele>1592.4</ele>
        <time>2024-09-25T11:04:28Z</time>
      </trkpt>
      <trkpt lat="42.37657" lon="2.20278">
        <ele>1592.4</ele>
        <time>2024-09-25T11:04:29Z</time>
      </trkpt>
      <trkpt lat="42.37657" lon="2.20278">
        <ele>1592.4</ele>
        <time>2024-09-25T11:04:30Z</time>
      </trkpt>
      <trkpt lat="42.37657" lon="2.20278">
        <ele>1592.4</ele>
        <time>2024-09-25T11:04:31Z</time>
      </trkpt>
      <trkpt lat="42.37657" lon="2.20278">
        <ele>1592.4</ele>
        <time>2024-09-25T11:04:32Z</time>
      </trkpt>
      <trkpt lat="42.37657" lon="2.20278">
        <ele>1592.4</ele>
        <time>2024-09-25T11:04:33Z</time>
      </trkpt>
      <trkpt lat="42.37657" lon="2.20278">
        <ele>1592.4</ele>
        <time>2024-09-25T11:04:34Z</time>
      </trkpt>
      <trkpt lat="42.37657" lon="2.20278">
        <ele>1592.4</ele>
        <time>2024-09-25T11:04:35Z</time>
      </trkpt>
      <trkpt lat="42.37657" lon="2.20278">
        <ele>1592.4</ele>
        <time>2024-09-25T11:04:36Z</time>
      </trkpt>
      <trkpt lat="42.37657" lon="2.20278">
        <ele>1592.4</ele>
        <time>2024-09-25T11:04:37Z</time>
      </trkpt>
      <trkpt lat="42.37657" lon="2.20278">
        <ele>1592.4</ele>
        <time>2024-09-25T11:04:38Z</time>
      </trkpt>
      <trkpt lat="42.37657" lon="2.20278">
        <ele>1592.4</ele>
        <time>2024-09-25T11:04:39Z</time>
      </trkpt>
      <trkpt lat="42.37657" lon="2.20278">
        <ele>1592.4</ele>
        <time>2024-09-25T11:04:40Z</time>
      </trkpt>
      <trkpt lat="42.37657" lon="2.20278">
        <ele>1592.4</ele>
        <time>2024-09-25T11:04:41Z</time>
      </trkpt>
      <trkpt lat="42.37657" lon="2.20278">
        <ele>1592.4</ele>
        <time>2024-09-25T11:04:42Z</time>
      </trkpt>
      <trkpt lat="42.37657" lon="2.20278">
        <ele>1592.4</ele>
        <time>2024-09-25T11:04:43Z</time>
      </trkpt>
      <trkpt lat="42.37657" lon="2.20278">
        <ele>1592.4</ele>
        <time>2024-09-25T11:04:44Z</time>
      </trkpt>
      <trkpt lat="42.37657" lon="2.20278">
        <ele>1592.4</ele>
        <time>2024-09-25T11:04:45Z</time>
      </trkpt>
      <trkpt lat="42.37657" lon="2.20278">
        <ele>1592.4</ele>
        <time>2024-09-25T11:04:46Z</time>
      </trkpt>
      <trkpt lat="42.37657" lon="2.20278">
        <ele>1592.4</ele>
        <time>2024-09-25T11:04:47Z</time>
      </trkpt>
      <trkpt lat="42.37657" lon="2.20278">
        <ele>1592.4</ele>
        <time>2024-09-25T11:04:48Z</time>
      </trkpt>
      <trkpt lat="42.37657" lon="2.20278">
        <ele>1592.4</ele>
        <time>2024-09-25T11:04:49Z</time>
      </trkpt>
      <trkpt lat="42.37657" lon="2.20278">
        <ele>1592.4</ele>
        <time>2024-09-25T11:04:50Z</time>
      </trkpt>
      <trkpt lat="42.37657" lon="2.20278">
        <ele>1592.4</ele>
        <time>2024-09-25T11:04:51Z</time>
      </trkpt>
      <trkpt lat="42.37657" lon="2.20279">
        <ele>1592.4</ele>
        <time>2024-09-25T11:04:52Z</time>
      </trkpt>
      <trkpt lat="42.37657" lon="2.20279">
        <ele>1592.4</ele>
        <time>2024-09-25T11:04:53Z</time>
      </trkpt>
      <trkpt lat="42.37657" lon="2.20279">
        <ele>1592.4</ele>
        <time>2024-09-25T11:04:54Z</time>
      </trkpt>
      <trkpt lat="42.37657" lon="2.20279">
        <ele>1592.4</ele>
        <time>2024-09-25T11:04:55Z</time>
      </trkpt>
      <trkpt lat="42.37657" lon="2.20278">
        <ele>1592.4</ele>
        <time>2024-09-25T11:04:56Z</time>
      </trkpt>
      <trkpt lat="42.37657" lon="2.20278">
        <ele>1592.4</ele>
        <time>2024-09-25T11:04:57Z</time>
      </trkpt>
      <trkpt lat="42.37657" lon="2.20277">
        <ele>1592.4</ele>
        <time>2024-09-25T11:04:58Z</time>
      </trkpt>
      <trkpt lat="42.37657" lon="2.20278">
        <ele>1592.4</ele>
        <time>2024-09-25T11:04:59Z</time>
      </trkpt>
      <trkpt lat="42.37658" lon="2.20277">
        <ele>1592.4</ele>
        <time>2024-09-25T11:05:00Z</time>
      </trkpt>
      <trkpt lat="42.37658" lon="2.20277">
        <ele>1592.4</ele>
        <time>2024-09-25T11:05:01Z</time>
      </trkpt>
      <trkpt lat="42.37659" lon="2.20277">
        <ele>1593</ele>
        <time>2024-09-25T11:05:02Z</time>
      </trkpt>
      <trkpt lat="42.37659" lon="2.20277">
        <ele>1593</ele>
        <time>2024-09-25T11:05:03Z</time>
      </trkpt>
      <trkpt lat="42.3766" lon="2.20277">
        <ele>1593</ele>
        <time>2024-09-25T11:05:04Z</time>
      </trkpt>
      <trkpt lat="42.3766" lon="2.20277">
        <ele>1593</ele>
        <time>2024-09-25T11:05:05Z</time>
      </trkpt>
      <trkpt lat="42.3766" lon="2.20278">
        <ele>1593</ele>
        <time>2024-09-25T11:05:06Z</time>
      </trkpt>
      <trkpt lat="42.37661" lon="2.20277">
        <ele>1593</ele>
        <time>2024-09-25T11:05:07Z</time>
      </trkpt>
      <trkpt lat="42.37661" lon="2.20277">
        <ele>1593</ele>
        <time>2024-09-25T11:05:08Z</time>
      </trkpt>
      <trkpt lat="42.37662" lon="2.20276">
        <ele>1593.9</ele>
        <time>2024-09-25T11:05:09Z</time>
      </trkpt>
      <trkpt lat="42.37663" lon="2.20275">
        <ele>1592.4</ele>
        <time>2024-09-25T11:05:10Z</time>
      </trkpt>
      <trkpt lat="42.37664" lon="2.20275">
        <ele>1592.4</ele>
        <time>2024-09-25T11:05:11Z</time>
      </trkpt>
      <trkpt lat="42.37664" lon="2.20274">
        <ele>1592.4</ele>
        <time>2024-09-25T11:05:12Z</time>
      </trkpt>
      <trkpt lat="42.37666" lon="2.20273">
        <ele>1593.6</ele>
        <time>2024-09-25T11:05:13Z</time>
      </trkpt>
      <trkpt lat="42.37666" lon="2.20272">
        <ele>1593.6</ele>
        <time>2024-09-25T11:05:14Z</time>
      </trkpt>
      <trkpt lat="42.37667" lon="2.20272">
        <ele>1593.6</ele>
        <time>2024-09-25T11:05:15Z</time>
      </trkpt>
      <trkpt lat="42.37669" lon="2.20273">
        <ele>1595.1</ele>
        <time>2024-09-25T11:05:16Z</time>
      </trkpt>
      <trkpt lat="42.3767" lon="2.20274">
        <ele>1595.1</ele>
        <time>2024-09-25T11:05:17Z</time>
      </trkpt>
      <trkpt lat="42.37671" lon="2.20276">
        <ele>1595.1</ele>
        <time>2024-09-25T11:05:18Z</time>
      </trkpt>
      <trkpt lat="42.37671" lon="2.20277">
        <ele>1598.3</ele>
        <time>2024-09-25T11:05:19Z</time>
      </trkpt>
      <trkpt lat="42.37672" lon="2.20278">
        <ele>1598.3</ele>
        <time>2024-09-25T11:05:20Z</time>
      </trkpt>
      <trkpt lat="42.37673" lon="2.2028">
        <ele>1598.3</ele>
        <time>2024-09-25T11:05:21Z</time>
      </trkpt>
      <trkpt lat="42.37673" lon="2.20281">
        <ele>1599.9</ele>
        <time>2024-09-25T11:05:22Z</time>
      </trkpt>
      <trkpt lat="42.37673" lon="2.20281">
        <ele>1599.9</ele>
        <time>2024-09-25T11:05:23Z</time>
      </trkpt>
      <trkpt lat="42.37673" lon="2.2028">
        <ele>1599.9</ele>
        <time>2024-09-25T11:05:24Z</time>
      </trkpt>
      <trkpt lat="42.37673" lon="2.2028">
        <ele>1598.3</ele>
        <time>2024-09-25T11:05:25Z</time>
      </trkpt>
      <trkpt lat="42.37674" lon="2.20279">
        <ele>1598.3</ele>
        <time>2024-09-25T11:05:26Z</time>
      </trkpt>
      <trkpt lat="42.37674" lon="2.20279">
        <ele>1598.3</ele>
        <time>2024-09-25T11:05:27Z</time>
      </trkpt>
      <trkpt lat="42.37674" lon="2.20279">
        <ele>1598.3</ele>
        <time>2024-09-25T11:05:28Z</time>
      </trkpt>
      <trkpt lat="42.37674" lon="2.20279">
        <ele>1598.3</ele>
        <time>2024-09-25T11:05:29Z</time>
      </trkpt>
      <trkpt lat="42.37674" lon="2.20279">
        <ele>1598.3</ele>
        <time>2024-09-25T11:05:30Z</time>
      </trkpt>
      <trkpt lat="42.37674" lon="2.2028">
        <ele>1598.3</ele>
        <time>2024-09-25T11:05:31Z</time>
      </trkpt>
      <trkpt lat="42.37674" lon="2.2028">
        <ele>1598.3</ele>
        <time>2024-09-25T11:05:32Z</time>
      </trkpt>
      <trkpt lat="42.37674" lon="2.20281">
        <ele>1599.9</ele>
        <time>2024-09-25T11:05:33Z</time>
      </trkpt>
      <trkpt lat="42.37674" lon="2.20282">
        <ele>1599.9</ele>
        <time>2024-09-25T11:05:34Z</time>
      </trkpt>
      <trkpt lat="42.37674" lon="2.20284">
        <ele>1599.9</ele>
        <time>2024-09-25T11:05:35Z</time>
      </trkpt>
      <trkpt lat="42.37674" lon="2.20286">
        <ele>1601.5</ele>
        <time>2024-09-25T11:05:36Z</time>
      </trkpt>
      <trkpt lat="42.37674" lon="2.20287">
        <ele>1601.5</ele>
        <time>2024-09-25T11:05:37Z</time>
      </trkpt>
      <trkpt lat="42.37673" lon="2.2029">
        <ele>1603</ele>
        <time>2024-09-25T11:05:38Z</time>
      </trkpt>
      <trkpt lat="42.37673" lon="2.20291">
        <ele>1603</ele>
        <time>2024-09-25T11:05:39Z</time>
      </trkpt>
      <trkpt lat="42.37674" lon="2.20292">
        <ele>1603</ele>
        <time>2024-09-25T11:05:40Z</time>
      </trkpt>
      <trkpt lat="42.37674" lon="2.20293">
        <ele>1604.5</ele>
        <time>2024-09-25T11:05:41Z</time>
      </trkpt>
      <trkpt lat="42.37673" lon="2.20294">
        <ele>1604.5</ele>
        <time>2024-09-25T11:05:42Z</time>
      </trkpt>
      <trkpt lat="42.37673" lon="2.20293">
        <ele>1603</ele>
        <time>2024-09-25T11:05:43Z</time>
      </trkpt>
      <trkpt lat="42.37673" lon="2.20292">
        <ele>1603</ele>
        <time>2024-09-25T11:05:44Z</time>
      </trkpt>
      <trkpt lat="42.37673" lon="2.20292">
        <ele>1603</ele>
        <time>2024-09-25T11:05:45Z</time>
      </trkpt>
      <trkpt lat="42.37673" lon="2.20292">
        <ele>1603</ele>
        <time>2024-09-25T11:05:46Z</time>
      </trkpt>
      <trkpt lat="42.37674" lon="2.20291">
        <ele>1603</ele>
        <time>2024-09-25T11:05:47Z</time>
      </trkpt>
      <trkpt lat="42.37674" lon="2.20291">
        <ele>1603</ele>
        <time>2024-09-25T11:05:48Z</time>
      </trkpt>
      <trkpt lat="42.37673" lon="2.20291">
        <ele>1603.2</ele>
        <time>2024-09-25T11:05:49Z</time>
      </trkpt>
      <trkpt lat="42.37673" lon="2.20292">
        <ele>1603.4</ele>
        <time>2024-09-25T11:05:50Z</time>
      </trkpt>
      <trkpt lat="42.37673" lon="2.20292">
        <ele>1603.5</ele>
        <time>2024-09-25T11:05:51Z</time>
      </trkpt>
      <trkpt lat="42.37673" lon="2.20292">
        <ele>1603.7</ele>
        <time>2024-09-25T11:05:52Z</time>
      </trkpt>
      <trkpt lat="42.37673" lon="2.20293">
        <ele>1603.9</ele>
        <time>2024-09-25T11:05:53Z</time>
      </trkpt>
      <trkpt lat="42.37673" lon="2.20293">
        <ele>1604</ele>
        <time>2024-09-25T11:05:54Z</time>
      </trkpt>
      <trkpt lat="42.37673" lon="2.20293">
        <ele>1604.2</ele>
        <time>2024-09-25T11:05:55Z</time>
      </trkpt>
      <trkpt lat="42.37673" lon="2.20293">
        <ele>1604.4</ele>
        <time>2024-09-25T11:05:56Z</time>
      </trkpt>
      <trkpt lat="42.37673" lon="2.20293">
        <ele>1604.6</ele>
        <time>2024-09-25T11:05:57Z</time>
      </trkpt>
      <trkpt lat="42.37673" lon="2.20293">
        <ele>1604.7</ele>
        <time>2024-09-25T11:05:58Z</time>
      </trkpt>
      <trkpt lat="42.37673" lon="2.20293">
        <ele>1604.9</ele>
        <time>2024-09-25T11:05:59Z</time>
      </trkpt>
      <trkpt lat="42.37673" lon="2.20293">
        <ele>1605.1</ele>
        <time>2024-09-25T11:06:00Z</time>
      </trkpt>
      <trkpt lat="42.37673" lon="2.20293">
        <ele>1605.3</ele>
        <time>2024-09-25T11:06:01Z</time>
      </trkpt>
      <trkpt lat="42.37673" lon="2.20293">
        <ele>1605.4</ele>
        <time>2024-09-25T11:06:02Z</time>
      </trkpt>
      <trkpt lat="42.37673" lon="2.20293">
        <ele>1607.1</ele>
        <time>2024-09-25T11:06:03Z</time>
      </trkpt>
      <trkpt lat="42.37673" lon="2.20293">
        <ele>1607.3</ele>
        <time>2024-09-25T11:06:04Z</time>
      </trkpt>
      <trkpt lat="42.37673" lon="2.20293">
        <ele>1607.5</ele>
        <time>2024-09-25T11:06:05Z</time>
      </trkpt>
      <trkpt lat="42.37673" lon="2.20293">
        <ele>1607.6</ele>
        <time>2024-09-25T11:06:06Z</time>
      </trkpt>
      <trkpt lat="42.37673" lon="2.20294">
        <ele>1607.8</ele>
        <time>2024-09-25T11:06:07Z</time>
      </trkpt>
      <trkpt lat="42.37673" lon="2.20294">
        <ele>1608</ele>
        <time>2024-09-25T11:06:08Z</time>
      </trkpt>
      <trkpt lat="42.37673" lon="2.20293">
        <ele>1608.1</ele>
        <time>2024-09-25T11:06:09Z</time>
      </trkpt>
      <trkpt lat="42.37673" lon="2.20294">
        <ele>1608.3</ele>
        <time>2024-09-25T11:06:10Z</time>
      </trkpt>
      <trkpt lat="42.37673" lon="2.20293">
        <ele>1608.5</ele>
        <time>2024-09-25T11:06:11Z</time>
      </trkpt>
      <trkpt lat="42.37673" lon="2.20293">
        <ele>1608.7</ele>
        <time>2024-09-25T11:06:12Z</time>
      </trkpt>
      <trkpt lat="42.37673" lon="2.20293">
        <ele>1608.8</ele>
        <time>2024-09-25T11:06:13Z</time>
      </trkpt>
      <trkpt lat="42.37673" lon="2.20293">
        <ele>1609</ele>
        <time>2024-09-25T11:06:14Z</time>
      </trkpt>
      <trkpt lat="42.37673" lon="2.20293">
        <ele>1609.2</ele>
        <time>2024-09-25T11:06:15Z</time>
      </trkpt>
      <trkpt lat="42.37673" lon="2.20294">
        <ele>1609.3</ele>
        <time>2024-09-25T11:06:16Z</time>
      </trkpt>
      <trkpt lat="42.37673" lon="2.20295">
        <ele>1609.5</ele>
        <time>2024-09-25T11:06:17Z</time>
      </trkpt>
      <trkpt lat="42.37672" lon="2.20296">
        <ele>1609.7</ele>
        <time>2024-09-25T11:06:18Z</time>
      </trkpt>
      <trkpt lat="42.37672" lon="2.20296">
        <ele>1609.9</ele>
        <time>2024-09-25T11:06:19Z</time>
      </trkpt>
      <trkpt lat="42.37672" lon="2.20296">
        <ele>1610</ele>
        <time>2024-09-25T11:06:20Z</time>
      </trkpt>
      <trkpt lat="42.37672" lon="2.20296">
        <ele>1610.2</ele>
        <time>2024-09-25T11:06:21Z</time>
      </trkpt>
      <trkpt lat="42.37672" lon="2.20296">
        <ele>1610.3</ele>
        <time>2024-09-25T11:06:22Z</time>
      </trkpt>
      <trkpt lat="42.37672" lon="2.20296">
        <ele>1610.5</ele>
        <time>2024-09-25T11:06:23Z</time>
      </trkpt>
      <trkpt lat="42.37672" lon="2.20296">
        <ele>1610.7</ele>
        <time>2024-09-25T11:06:24Z</time>
      </trkpt>
      <trkpt lat="42.37672" lon="2.20296">
        <ele>1610.9</ele>
        <time>2024-09-25T11:06:25Z</time>
      </trkpt>
      <trkpt lat="42.37672" lon="2.20296">
        <ele>1611</ele>
        <time>2024-09-25T11:06:26Z</time>
      </trkpt>
      <trkpt lat="42.37672" lon="2.20296">
        <ele>1611.2</ele>
        <time>2024-09-25T11:06:27Z</time>
      </trkpt>
      <trkpt lat="42.37673" lon="2.20297">
        <ele>1611.4</ele>
        <time>2024-09-25T11:06:28Z</time>
      </trkpt>
      <trkpt lat="42.37673" lon="2.20297">
        <ele>1613.1</ele>
        <time>2024-09-25T11:06:29Z</time>
      </trkpt>
      <trkpt lat="42.37674" lon="2.20298">
        <ele>1613.2</ele>
        <time>2024-09-25T11:06:30Z</time>
      </trkpt>
      <trkpt lat="42.37674" lon="2.20298">
        <ele>1613.4</ele>
        <time>2024-09-25T11:06:31Z</time>
      </trkpt>
      <trkpt lat="42.37674" lon="2.20298">
        <ele>1613.5</ele>
        <time>2024-09-25T11:06:32Z</time>
      </trkpt>
      <trkpt lat="42.37675" lon="2.20298">
        <ele>1615.3</ele>
        <time>2024-09-25T11:06:33Z</time>
      </trkpt>
      <trkpt lat="42.37675" lon="2.20298">
        <ele>1615.5</ele>
        <time>2024-09-25T11:06:34Z</time>
      </trkpt>
      <trkpt lat="42.37675" lon="2.20298">
        <ele>1615.6</ele>
        <time>2024-09-25T11:06:35Z</time>
      </trkpt>
      <trkpt lat="42.37675" lon="2.20297">
        <ele>1614.4</ele>
        <time>2024-09-25T11:06:36Z</time>
      </trkpt>
      <trkpt lat="42.37675" lon="2.20297">
        <ele>1614.5</ele>
        <time>2024-09-25T11:06:37Z</time>
      </trkpt>
      <trkpt lat="42.37675" lon="2.20297">
        <ele>1614.7</ele>
        <time>2024-09-25T11:06:38Z</time>
      </trkpt>
      <trkpt lat="42.37675" lon="2.20297">
        <ele>1614.8</ele>
        <time>2024-09-25T11:06:39Z</time>
      </trkpt>
      <trkpt lat="42.37675" lon="2.20296">
        <ele>1615</ele>
        <time>2024-09-25T11:06:40Z</time>
      </trkpt>
      <trkpt lat="42.37675" lon="2.20296">
        <ele>1615.2</ele>
        <time>2024-09-25T11:06:41Z</time>
      </trkpt>
      <trkpt lat="42.37675" lon="2.20296">
        <ele>1615.3</ele>
        <time>2024-09-25T11:06:42Z</time>
      </trkpt>
      <trkpt lat="42.37675" lon="2.20296">
        <ele>1615.5</ele>
        <time>2024-09-25T11:06:43Z</time>
      </trkpt>
      <trkpt lat="42.37675" lon="2.20295">
        <ele>1615.7</ele>
        <time>2024-09-25T11:06:44Z</time>
      </trkpt>
      <trkpt lat="42.37675" lon="2.20295">
        <ele>1615.8</ele>
        <time>2024-09-25T11:06:45Z</time>
      </trkpt>
      <trkpt lat="42.37675" lon="2.20295">
        <ele>1616</ele>
        <time>2024-09-25T11:06:46Z</time>
      </trkpt>
      <trkpt lat="42.37675" lon="2.20295">
        <ele>1616.2</ele>
        <time>2024-09-25T11:06:47Z</time>
      </trkpt>
      <trkpt lat="42.37675" lon="2.20294">
        <ele>1616.4</ele>
        <time>2024-09-25T11:06:48Z</time>
      </trkpt>
      <trkpt lat="42.37675" lon="2.20294">
        <ele>1616.5</ele>
        <time>2024-09-25T11:06:49Z</time>
      </trkpt>
      <trkpt lat="42.37675" lon="2.20294">
        <ele>1616.7</ele>
        <time>2024-09-25T11:06:50Z</time>
      </trkpt>
      <trkpt lat="42.37675" lon="2.20294">
        <ele>1616.9</ele>
        <time>2024-09-25T11:06:51Z</time>
      </trkpt>
      <trkpt lat="42.37675" lon="2.20294">
        <ele>1617</ele>
        <time>2024-09-25T11:06:52Z</time>
      </trkpt>
      <trkpt lat="42.37675" lon="2.20293">
        <ele>1617.2</ele>
        <time>2024-09-25T11:06:53Z</time>
      </trkpt>
      <trkpt lat="42.37675" lon="2.20293">
        <ele>1615.9</ele>
        <time>2024-09-25T11:06:54Z</time>
      </trkpt>
      <trkpt lat="42.37675" lon="2.20293">
        <ele>1616.1</ele>
        <time>2024-09-25T11:06:55Z</time>
      </trkpt>
      <trkpt lat="42.37675" lon="2.20293">
        <ele>1616.2</ele>
        <time>2024-09-25T11:06:56Z</time>
      </trkpt>
      <trkpt lat="42.37675" lon="2.2029">
        <ele>1616.4</ele>
        <time>2024-09-25T11:06:57Z</time>
      </trkpt>
      <trkpt lat="42.37675" lon="2.20289">
        <ele>1616.5</ele>
        <time>2024-09-25T11:06:58Z</time>
      </trkpt>
      <trkpt lat="42.37675" lon="2.20288">
        <ele>1615.2</ele>
        <time>2024-09-25T11:06:59Z</time>
      </trkpt>
      <trkpt lat="42.37676" lon="2.20287">
        <ele>1615.3</ele>
        <time>2024-09-25T11:07:00Z</time>
      </trkpt>
      <trkpt lat="42.37676" lon="2.20287">
        <ele>1615.5</ele>
        <time>2024-09-25T11:07:01Z</time>
      </trkpt>
      <trkpt lat="42.37677" lon="2.20287">
        <ele>1615.7</ele>
        <time>2024-09-25T11:07:02Z</time>
      </trkpt>
      <trkpt lat="42.37677" lon="2.20287">
        <ele>1615.9</ele>
        <time>2024-09-25T11:07:03Z</time>
      </trkpt>
      <trkpt lat="42.37676" lon="2.20288">
        <ele>1616</ele>
        <time>2024-09-25T11:07:04Z</time>
      </trkpt>
      <trkpt lat="42.37677" lon="2.20288">
        <ele>1616.1</ele>
        <time>2024-09-25T11:07:05Z</time>
      </trkpt>
      <trkpt lat="42.37677" lon="2.20287">
        <ele>1616.3</ele>
        <time>2024-09-25T11:07:06Z</time>
      </trkpt>
      <trkpt lat="42.37678" lon="2.20287">
        <ele>1618.2</ele>
        <time>2024-09-25T11:07:07Z</time>
      </trkpt>
      <trkpt lat="42.37679" lon="2.20287">
        <ele>1618.3</ele>
        <time>2024-09-25T11:07:08Z</time>
      </trkpt>
      <trkpt lat="42.37679" lon="2.20288">
        <ele>1618.5</ele>
        <time>2024-09-25T11:07:09Z</time>
      </trkpt>
      <trkpt lat="42.37679" lon="2.20288">
        <ele>1618.7</ele>
        <time>2024-09-25T11:07:10Z</time>
      </trkpt>
      <trkpt lat="42.37678" lon="2.20288">
        <ele>1618.7</ele>
        <time>2024-09-25T11:07:11Z</time>
      </trkpt>
      <trkpt lat="42.37679" lon="2.20288">
        <ele>1618.9</ele>
        <time>2024-09-25T11:07:12Z</time>
      </trkpt>
      <trkpt lat="42.37679" lon="2.20288">
        <ele>1619.1</ele>
        <time>2024-09-25T11:07:13Z</time>
      </trkpt>
      <trkpt lat="42.37679" lon="2.20287">
        <ele>1619.2</ele>
        <time>2024-09-25T11:07:14Z</time>
      </trkpt>
      <trkpt lat="42.37679" lon="2.20287">
        <ele>1619.4</ele>
        <time>2024-09-25T11:07:15Z</time>
      </trkpt>
      <trkpt lat="42.37679" lon="2.20287">
        <ele>1619.6</ele>
        <time>2024-09-25T11:07:16Z</time>
      </trkpt>
      <trkpt lat="42.37679" lon="2.20287">
        <ele>1619.8</ele>
        <time>2024-09-25T11:07:17Z</time>
      </trkpt>
      <trkpt lat="42.3768" lon="2.20287">
        <ele>1619.9</ele>
        <time>2024-09-25T11:07:18Z</time>
      </trkpt>
      <trkpt lat="42.3768" lon="2.20287">
        <ele>1620.1</ele>
        <time>2024-09-25T11:07:19Z</time>
      </trkpt>
      <trkpt lat="42.3768" lon="2.20287">
        <ele>1620.3</ele>
        <time>2024-09-25T11:07:20Z</time>
      </trkpt>
      <trkpt lat="42.3768" lon="2.20287">
        <ele>1620.4</ele>
        <time>2024-09-25T11:07:21Z</time>
      </trkpt>
      <trkpt lat="42.3768" lon="2.20287">
        <ele>1620.6</ele>
        <time>2024-09-25T11:07:22Z</time>
      </trkpt>
      <trkpt lat="42.3768" lon="2.20287">
        <ele>1620.8</ele>
        <time>2024-09-25T11:07:23Z</time>
      </trkpt>
      <trkpt lat="42.3768" lon="2.20287">
        <ele>1620.9</ele>
        <time>2024-09-25T11:07:24Z</time>
      </trkpt>
      <trkpt lat="42.3768" lon="2.20287">
        <ele>1621.1</ele>
        <time>2024-09-25T11:07:25Z</time>
      </trkpt>
      <trkpt lat="42.3768" lon="2.20287">
        <ele>1621.3</ele>
        <time>2024-09-25T11:07:26Z</time>
      </trkpt>
      <trkpt lat="42.3768" lon="2.20287">
        <ele>1621.3</ele>
        <time>2024-09-25T11:07:27Z</time>
      </trkpt>
      <trkpt lat="42.3768" lon="2.20287">
        <ele>1621.5</ele>
        <time>2024-09-25T11:07:28Z</time>
      </trkpt>
      <trkpt lat="42.3768" lon="2.20287">
        <ele>1621.5</ele>
        <time>2024-09-25T11:07:29Z</time>
      </trkpt>
      <trkpt lat="42.3768" lon="2.20288">
        <ele>1621.5</ele>
        <time>2024-09-25T11:07:30Z</time>
      </trkpt>
      <trkpt lat="42.3768" lon="2.20288">
        <ele>1621.5</ele>
        <time>2024-09-25T11:07:31Z</time>
      </trkpt>
      <trkpt lat="42.3768" lon="2.20288">
        <ele>1621.5</ele>
        <time>2024-09-25T11:07:32Z</time>
      </trkpt>
      <trkpt lat="42.3768" lon="2.20288">
        <ele>1621.5</ele>
        <time>2024-09-25T11:07:33Z</time>
      </trkpt>
      <trkpt lat="42.3768" lon="2.20288">
        <ele>1621.5</ele>
        <time>2024-09-25T11:07:34Z</time>
      </trkpt>
      <trkpt lat="42.3768" lon="2.20288">
        <ele>1621.5</ele>
        <time>2024-09-25T11:07:35Z</time>
      </trkpt>
      <trkpt lat="42.3768" lon="2.20288">
        <ele>1621.5</ele>
        <time>2024-09-25T11:07:36Z</time>
      </trkpt>
      <trkpt lat="42.3768" lon="2.20288">
        <ele>1621.5</ele>
        <time>2024-09-25T11:07:37Z</time>
      </trkpt>
      <trkpt lat="42.3768" lon="2.20288">
        <ele>1621.5</ele>
        <time>2024-09-25T11:07:38Z</time>
      </trkpt>
      <trkpt lat="42.3768" lon="2.20288">
        <ele>1621.5</ele>
        <time>2024-09-25T11:07:39Z</time>
      </trkpt>
      <trkpt lat="42.3768" lon="2.20288">
        <ele>1621.5</ele>
        <time>2024-09-25T11:07:40Z</time>
      </trkpt>
      <trkpt lat="42.3768" lon="2.20288">
        <ele>1621.5</ele>
        <time>2024-09-25T11:07:41Z</time>
      </trkpt>
      <trkpt lat="42.37681" lon="2.20288">
        <ele>1623.1</ele>
        <time>2024-09-25T11:07:42Z</time>
      </trkpt>
      <trkpt lat="42.37681" lon="2.20288">
        <ele>1623.1</ele>
        <time>2024-09-25T11:07:43Z</time>
      </trkpt>
      <trkpt lat="42.37682" lon="2.20289">
        <ele>1624.6</ele>
        <time>2024-09-25T11:07:44Z</time>
      </trkpt>
      <trkpt lat="42.37682" lon="2.20289">
        <ele>1624.6</ele>
        <time>2024-09-25T11:07:45Z</time>
      </trkpt>
      <trkpt lat="42.37682" lon="2.20289">
        <ele>1624.6</ele>
        <time>2024-09-25T11:07:46Z</time>
      </trkpt>
      <trkpt lat="42.37682" lon="2.20289">
        <ele>1624.6</ele>
        <time>2024-09-25T11:07:47Z</time>
      </trkpt>
      <trkpt lat="42.37682" lon="2.20289">
        <ele>1624.5</ele>
        <time>2024-09-25T11:07:48Z</time>
      </trkpt>
      <trkpt lat="42.37682" lon="2.20289">
        <ele>1624.5</ele>
        <time>2024-09-25T11:07:49Z</time>
      </trkpt>
      <trkpt lat="42.37682" lon="2.20289">
        <ele>1624.5</ele>
        <time>2024-09-25T11:07:50Z</time>
      </trkpt>
      <trkpt lat="42.37682" lon="2.20289">
        <ele>1624.5</ele>
        <time>2024-09-25T11:07:51Z</time>
      </trkpt>
      <trkpt lat="42.37682" lon="2.20289">
        <ele>1624.5</ele>
        <time>2024-09-25T11:07:52Z</time>
      </trkpt>
      <trkpt lat="42.37683" lon="2.20289">
        <ele>1624.5</ele>
        <time>2024-09-25T11:07:53Z</time>
      </trkpt>
      <trkpt lat="42.37683" lon="2.20289">
        <ele>1624.5</ele>
        <time>2024-09-25T11:07:54Z</time>
      </trkpt>
      <trkpt lat="42.37683" lon="2.20289">
        <ele>1624.5</ele>
        <time>2024-09-25T11:07:55Z</time>
      </trkpt>
      <trkpt lat="42.37683" lon="2.20289">
        <ele>1624.5</ele>
        <time>2024-09-25T11:07:56Z</time>
      </trkpt>
      <trkpt lat="42.37683" lon="2.20289">
        <ele>1624.5</ele>
        <time>2024-09-25T11:07:57Z</time>
      </trkpt>
      <trkpt lat="42.37683" lon="2.2029">
        <ele>1624.5</ele>
        <time>2024-09-25T11:07:58Z</time>
      </trkpt>
      <trkpt lat="42.37683" lon="2.2029">
        <ele>1624.5</ele>
        <time>2024-09-25T11:07:59Z</time>
      </trkpt>
      <trkpt lat="42.37683" lon="2.2029">
        <ele>1624.5</ele>
        <time>2024-09-25T11:08:00Z</time>
      </trkpt>
      <trkpt lat="42.37683" lon="2.2029">
        <ele>1624.5</ele>
        <time>2024-09-25T11:08:01Z</time>
      </trkpt>
      <trkpt lat="42.37683" lon="2.2029">
        <ele>1624.5</ele>
        <time>2024-09-25T11:08:02Z</time>
      </trkpt>
      <trkpt lat="42.37683" lon="2.2029">
        <ele>1624.4</ele>
        <time>2024-09-25T11:08:03Z</time>
      </trkpt>
      <trkpt lat="42.37683" lon="2.2029">
        <ele>1624.4</ele>
        <time>2024-09-25T11:08:04Z</time>
      </trkpt>
      <trkpt lat="42.37683" lon="2.2029">
        <ele>1624.4</ele>
        <time>2024-09-25T11:08:05Z</time>
      </trkpt>
      <trkpt lat="42.37683" lon="2.2029">
        <ele>1624.4</ele>
        <time>2024-09-25T11:08:06Z</time>
      </trkpt>
      <trkpt lat="42.37683" lon="2.2029">
        <ele>1624.4</ele>
        <time>2024-09-25T11:08:07Z</time>
      </trkpt>
      <trkpt lat="42.37683" lon="2.2029">
        <ele>1624.4</ele>
        <time>2024-09-25T11:08:08Z</time>
      </trkpt>
      <trkpt lat="42.37684" lon="2.2029">
        <ele>1624.4</ele>
        <time>2024-09-25T11:08:09Z</time>
      </trkpt>
      <trkpt lat="42.37684" lon="2.2029">
        <ele>1624.4</ele>
        <time>2024-09-25T11:08:10Z</time>
      </trkpt>
      <trkpt lat="42.37684" lon="2.2029">
        <ele>1624.4</ele>
        <time>2024-09-25T11:08:11Z</time>
      </trkpt>
      <trkpt lat="42.37684" lon="2.2029">
        <ele>1624.4</ele>
        <time>2024-09-25T11:08:12Z</time>
      </trkpt>
      <trkpt lat="42.37684" lon="2.2029">
        <ele>1624.4</ele>
        <time>2024-09-25T11:08:13Z</time>
      </trkpt>
      <trkpt lat="42.37684" lon="2.2029">
        <ele>1624.4</ele>
        <time>2024-09-25T11:08:14Z</time>
      </trkpt>
      <trkpt lat="42.37684" lon="2.2029">
        <ele>1624.4</ele>
        <time>2024-09-25T11:08:15Z</time>
      </trkpt>
      <trkpt lat="42.37684" lon="2.2029">
        <ele>1624.4</ele>
        <time>2024-09-25T11:08:16Z</time>
      </trkpt>
      <trkpt lat="42.37684" lon="2.2029">
        <ele>1624.4</ele>
        <time>2024-09-25T11:08:17Z</time>
      </trkpt>
      <trkpt lat="42.37684" lon="2.2029">
        <ele>1624.3</ele>
        <time>2024-09-25T11:08:18Z</time>
      </trkpt>
      <trkpt lat="42.37684" lon="2.20289">
        <ele>1624.3</ele>
        <time>2024-09-25T11:08:19Z</time>
      </trkpt>
      <trkpt lat="42.37684" lon="2.2029">
        <ele>1624.3</ele>
        <time>2024-09-25T11:08:20Z</time>
      </trkpt>
      <trkpt lat="42.37684" lon="2.2029">
        <ele>1624.3</ele>
        <time>2024-09-25T11:08:21Z</time>
      </trkpt>
      <trkpt lat="42.37684" lon="2.2029">
        <ele>1624.3</ele>
        <time>2024-09-25T11:08:22Z</time>
      </trkpt>
      <trkpt lat="42.37684" lon="2.2029">
        <ele>1624.3</ele>
        <time>2024-09-25T11:08:23Z</time>
      </trkpt>
      <trkpt lat="42.37684" lon="2.2029">
        <ele>1626</ele>
        <time>2024-09-25T11:08:24Z</time>
      </trkpt>
      <trkpt lat="42.37684" lon="2.2029">
        <ele>1626</ele>
        <time>2024-09-25T11:08:25Z</time>
      </trkpt>
      <trkpt lat="42.37685" lon="2.20291">
        <ele>1626</ele>
        <time>2024-09-25T11:08:26Z</time>
      </trkpt>
      <trkpt lat="42.37685" lon="2.20291">
        <ele>1626</ele>
        <time>2024-09-25T11:08:27Z</time>
      </trkpt>
      <trkpt lat="42.37685" lon="2.20291">
        <ele>1626</ele>
        <time>2024-09-25T11:08:28Z</time>
      </trkpt>
      <trkpt lat="42.37685" lon="2.20292">
        <ele>1626</ele>
        <time>2024-09-25T11:08:29Z</time>
      </trkpt>
      <trkpt lat="42.37685" lon="2.20292">
        <ele>1626</ele>
        <time>2024-09-25T11:08:30Z</time>
      </trkpt>
      <trkpt lat="42.37685" lon="2.20292">
        <ele>1626</ele>
        <time>2024-09-25T11:08:31Z</time>
      </trkpt>
      <trkpt lat="42.37686" lon="2.20293">
        <ele>1626</ele>
        <time>2024-09-25T11:08:32Z</time>
      </trkpt>
      <trkpt lat="42.37686" lon="2.20293">
        <ele>1625.9</ele>
        <time>2024-09-25T11:08:33Z</time>
      </trkpt>
      <trkpt lat="42.37686" lon="2.20293">
        <ele>1625.9</ele>
        <time>2024-09-25T11:08:34Z</time>
      </trkpt>
      <trkpt lat="42.37686" lon="2.20293">
        <ele>1627.3</ele>
        <time>2024-09-25T11:08:35Z</time>
      </trkpt>
      <trkpt lat="42.37686" lon="2.20293">
        <ele>1627.3</ele>
        <time>2024-09-25T11:08:36Z</time>
      </trkpt>
      <trkpt lat="42.37686" lon="2.20293">
        <ele>1627.2</ele>
        <time>2024-09-25T11:08:37Z</time>
      </trkpt>
      <trkpt lat="42.37686" lon="2.20293">
        <ele>1627.2</ele>
        <time>2024-09-25T11:08:38Z</time>
      </trkpt>
      <trkpt lat="42.37686" lon="2.20293">
        <ele>1627.2</ele>
        <time>2024-09-25T11:08:39Z</time>
      </trkpt>
      <trkpt lat="42.37686" lon="2.20294">
        <ele>1627.2</ele>
        <time>2024-09-25T11:08:40Z</time>
      </trkpt>
      <trkpt lat="42.37686" lon="2.20294">
        <ele>1627.2</ele>
        <time>2024-09-25T11:08:41Z</time>
      </trkpt>
      <trkpt lat="42.37686" lon="2.20294">
        <ele>1627.2</ele>
        <time>2024-09-25T11:08:42Z</time>
      </trkpt>
      <trkpt lat="42.37686" lon="2.20294">
        <ele>1627.2</ele>
        <time>2024-09-25T11:08:43Z</time>
      </trkpt>
      <trkpt lat="42.37688" lon="2.20295">
        <ele>1628.9</ele>
        <time>2024-09-25T11:08:44Z</time>
      </trkpt>
      <trkpt lat="42.37689" lon="2.20295">
        <ele>1628.9</ele>
        <time>2024-09-25T11:08:45Z</time>
      </trkpt>
      <trkpt lat="42.3769" lon="2.20296">
        <ele>1628.9</ele>
        <time>2024-09-25T11:08:46Z</time>
      </trkpt>
      <trkpt lat="42.3769" lon="2.20297">
        <ele>1630.7</ele>
        <time>2024-09-25T11:08:47Z</time>
      </trkpt>
      <trkpt lat="42.37691" lon="2.20298">
        <ele>1631.8</ele>
        <time>2024-09-25T11:08:48Z</time>
      </trkpt>
      <trkpt lat="42.37692" lon="2.20298">
        <ele>1631.8</ele>
        <time>2024-09-25T11:08:49Z</time>
      </trkpt>
      <trkpt lat="42.37692" lon="2.20299">
        <ele>1631.8</ele>
        <time>2024-09-25T11:08:50Z</time>
      </trkpt>
      <trkpt lat="42.37692" lon="2.20299">
        <ele>1631.8</ele>
        <time>2024-09-25T11:08:51Z</time>
      </trkpt>
      <trkpt lat="42.37692" lon="2.203">
        <ele>1631.7</ele>
        <time>2024-09-25T11:08:52Z</time>
      </trkpt>
      <trkpt lat="42.37692" lon="2.20299">
        <ele>1631.7</ele>
        <time>2024-09-25T11:08:53Z</time>
      </trkpt>
      <trkpt lat="42.37692" lon="2.203">
        <ele>1631.7</ele>
        <time>2024-09-25T11:08:54Z</time>
      </trkpt>
      <trkpt lat="42.37692" lon="2.203">
        <ele>1631.7</ele>
        <time>2024-09-25T11:08:55Z</time>
      </trkpt>
      <trkpt lat="42.37692" lon="2.20299">
        <ele>1631.7</ele>
        <time>2024-09-25T11:08:56Z</time>
      </trkpt>
      <trkpt lat="42.37692" lon="2.20299">
        <ele>1631.7</ele>
        <time>2024-09-25T11:08:57Z</time>
      </trkpt>
      <trkpt lat="42.37692" lon="2.20299">
        <ele>1631.7</ele>
        <time>2024-09-25T11:08:58Z</time>
      </trkpt>
      <trkpt lat="42.37692" lon="2.20299">
        <ele>1631.7</ele>
        <time>2024-09-25T11:08:59Z</time>
      </trkpt>
      <trkpt lat="42.37692" lon="2.20299">
        <ele>1631.7</ele>
        <time>2024-09-25T11:09:00Z</time>
      </trkpt>
      <trkpt lat="42.37692" lon="2.20299">
        <ele>1631.7</ele>
        <time>2024-09-25T11:09:01Z</time>
      </trkpt>
      <trkpt lat="42.37692" lon="2.20299">
        <ele>1631.7</ele>
        <time>2024-09-25T11:09:02Z</time>
      </trkpt>
      <trkpt lat="42.37692" lon="2.20299">
        <ele>1631.7</ele>
        <time>2024-09-25T11:09:03Z</time>
      </trkpt>
      <trkpt lat="42.37692" lon="2.20299">
        <ele>1631.7</ele>
        <time>2024-09-25T11:09:04Z</time>
      </trkpt>
      <trkpt lat="42.37692" lon="2.20299">
        <ele>1631.7</ele>
        <time>2024-09-25T11:09:05Z</time>
      </trkpt>
      <trkpt lat="42.37692" lon="2.203">
        <ele>1631.7</ele>
        <time>2024-09-25T11:09:06Z</time>
      </trkpt>
      <trkpt lat="42.37692" lon="2.203">
        <ele>1631.6</ele>
        <time>2024-09-25T11:09:07Z</time>
      </trkpt>
      <trkpt lat="42.37692" lon="2.203">
        <ele>1631.6</ele>
        <time>2024-09-25T11:09:08Z</time>
      </trkpt>
      <trkpt lat="42.37692" lon="2.20301">
        <ele>1631.6</ele>
        <time>2024-09-25T11:09:09Z</time>
      </trkpt>
      <trkpt lat="42.37692" lon="2.20301">
        <ele>1631.6</ele>
        <time>2024-09-25T11:09:10Z</time>
      </trkpt>
      <trkpt lat="42.37692" lon="2.20301">
        <ele>1631.6</ele>
        <time>2024-09-25T11:09:11Z</time>
      </trkpt>
      <trkpt lat="42.37693" lon="2.20301">
        <ele>1631.6</ele>
        <time>2024-09-25T11:09:12Z</time>
      </trkpt>
      <trkpt lat="42.37694" lon="2.20301">
        <ele>1633.3</ele>
        <time>2024-09-25T11:09:13Z</time>
      </trkpt>
      <trkpt lat="42.37695" lon="2.20301">
        <ele>1633.3</ele>
        <time>2024-09-25T11:09:14Z</time>
      </trkpt>
      <trkpt lat="42.37696" lon="2.20301">
        <ele>1633.3</ele>
        <time>2024-09-25T11:09:15Z</time>
      </trkpt>
      <trkpt lat="42.37696" lon="2.20301">
        <ele>1633.3</ele>
        <time>2024-09-25T11:09:16Z</time>
      </trkpt>
      <trkpt lat="42.37696" lon="2.20301">
        <ele>1633.3</ele>
        <time>2024-09-25T11:09:17Z</time>
      </trkpt>
      <trkpt lat="42.37696" lon="2.203">
        <ele>1633.3</ele>
        <time>2024-09-25T11:09:18Z</time>
      </trkpt>
      <trkpt lat="42.37697" lon="2.203">
        <ele>1633.3</ele>
        <time>2024-09-25T11:09:19Z</time>
      </trkpt>
      <trkpt lat="42.37697" lon="2.203">
        <ele>1635</ele>
        <time>2024-09-25T11:09:20Z</time>
      </trkpt>
      <trkpt lat="42.37697" lon="2.203">
        <ele>1635</ele>
        <time>2024-09-25T11:09:21Z</time>
      </trkpt>
      <trkpt lat="42.37697" lon="2.203">
        <ele>1635</ele>
        <time>2024-09-25T11:09:22Z</time>
      </trkpt>
      <trkpt lat="42.37698" lon="2.203">
        <ele>1635</ele>
        <time>2024-09-25T11:09:23Z</time>
      </trkpt>
      <trkpt lat="42.37698" lon="2.203">
        <ele>1635</ele>
        <time>2024-09-25T11:09:24Z</time>
      </trkpt>
      <trkpt lat="42.37698" lon="2.203">
        <ele>1635</ele>
        <time>2024-09-25T11:09:25Z</time>
      </trkpt>
      <trkpt lat="42.37698" lon="2.203">
        <ele>1635</ele>
        <time>2024-09-25T11:09:26Z</time>
      </trkpt>
      <trkpt lat="42.37698" lon="2.203">
        <ele>1635</ele>
        <time>2024-09-25T11:09:27Z</time>
      </trkpt>
      <trkpt lat="42.37698" lon="2.203">
        <ele>1635</ele>
        <time>2024-09-25T11:09:28Z</time>
      </trkpt>
      <trkpt lat="42.37698" lon="2.203">
        <ele>1635</ele>
        <time>2024-09-25T11:09:29Z</time>
      </trkpt>
      <trkpt lat="42.37699" lon="2.20301">
        <ele>1635</ele>
        <time>2024-09-25T11:09:30Z</time>
      </trkpt>
      <trkpt lat="42.37699" lon="2.20301">
        <ele>1634.9</ele>
        <time>2024-09-25T11:09:31Z</time>
      </trkpt>
      <trkpt lat="42.37699" lon="2.20302">
        <ele>1635.8</ele>
        <time>2024-09-25T11:09:32Z</time>
      </trkpt>
      <trkpt lat="42.377" lon="2.20303">
        <ele>1635.8</ele>
        <time>2024-09-25T11:09:33Z</time>
      </trkpt>
      <trkpt lat="42.37699" lon="2.20303">
        <ele>1635.8</ele>
        <time>2024-09-25T11:09:34Z</time>
      </trkpt>
      <trkpt lat="42.37699" lon="2.20304">
        <ele>1635.8</ele>
        <time>2024-09-25T11:09:35Z</time>
      </trkpt>
      <trkpt lat="42.37699" lon="2.20304">
        <ele>1635.7</ele>
        <time>2024-09-25T11:09:36Z</time>
      </trkpt>
      <trkpt lat="42.37699" lon="2.20304">
        <ele>1635.7</ele>
        <time>2024-09-25T11:09:37Z</time>
      </trkpt>
      <trkpt lat="42.37699" lon="2.20304">
        <ele>1635.7</ele>
        <time>2024-09-25T11:09:38Z</time>
      </trkpt>
      <trkpt lat="42.37699" lon="2.20305">
        <ele>1635.7</ele>
        <time>2024-09-25T11:09:39Z</time>
      </trkpt>
      <trkpt lat="42.37699" lon="2.20306">
        <ele>1635.7</ele>
        <time>2024-09-25T11:09:40Z</time>
      </trkpt>
      <trkpt lat="42.37698" lon="2.20306">
        <ele>1636.6</ele>
        <time>2024-09-25T11:09:41Z</time>
      </trkpt>
      <trkpt lat="42.37698" lon="2.20306">
        <ele>1636.6</ele>
        <time>2024-09-25T11:09:42Z</time>
      </trkpt>
      <trkpt lat="42.37698" lon="2.20307">
        <ele>1636.6</ele>
        <time>2024-09-25T11:09:43Z</time>
      </trkpt>
      <trkpt lat="42.37698" lon="2.20307">
        <ele>1636.6</ele>
        <time>2024-09-25T11:09:44Z</time>
      </trkpt>
      <trkpt lat="42.37698" lon="2.20307">
        <ele>1636.6</ele>
        <time>2024-09-25T11:09:45Z</time>
      </trkpt>
      <trkpt lat="42.37698" lon="2.20308">
        <ele>1636.5</ele>
        <time>2024-09-25T11:09:46Z</time>
      </trkpt>
      <trkpt lat="42.37697" lon="2.20308">
        <ele>1636.5</ele>
        <time>2024-09-25T11:09:47Z</time>
      </trkpt>
      <trkpt lat="42.37697" lon="2.20308">
        <ele>1636.5</ele>
        <time>2024-09-25T11:09:48Z</time>
      </trkpt>
      <trkpt lat="42.37697" lon="2.20308">
        <ele>1636.5</ele>
        <time>2024-09-25T11:09:49Z</time>
      </trkpt>
      <trkpt lat="42.37697" lon="2.20308">
        <ele>1636.5</ele>
        <time>2024-09-25T11:09:50Z</time>
      </trkpt>
      <trkpt lat="42.37697" lon="2.20308">
        <ele>1636.5</ele>
        <time>2024-09-25T11:09:51Z</time>
      </trkpt>
      <trkpt lat="42.37697" lon="2.20308">
        <ele>1636.5</ele>
        <time>2024-09-25T11:09:52Z</time>
      </trkpt>
      <trkpt lat="42.37697" lon="2.20308">
        <ele>1635</ele>
        <time>2024-09-25T11:09:53Z</time>
      </trkpt>
      <trkpt lat="42.37696" lon="2.20308">
        <ele>1635</ele>
        <time>2024-09-25T11:09:54Z</time>
      </trkpt>
      <trkpt lat="42.37696" lon="2.20308">
        <ele>1635</ele>
        <time>2024-09-25T11:09:55Z</time>
      </trkpt>
      <trkpt lat="42.37697" lon="2.20308">
        <ele>1635</ele>
        <time>2024-09-25T11:09:56Z</time>
      </trkpt>
      <trkpt lat="42.37697" lon="2.20308">
        <ele>1635</ele>
        <time>2024-09-25T11:09:57Z</time>
      </trkpt>
      <trkpt lat="42.37696" lon="2.20308">
        <ele>1635</ele>
        <time>2024-09-25T11:09:58Z</time>
      </trkpt>
      <trkpt lat="42.37696" lon="2.20308">
        <ele>1635</ele>
        <time>2024-09-25T11:09:59Z</time>
      </trkpt>
      <trkpt lat="42.37696" lon="2.20308">
        <ele>1635</ele>
        <time>2024-09-25T11:10:00Z</time>
      </trkpt>
      <trkpt lat="42.37695" lon="2.20308">
        <ele>1634.9</ele>
        <time>2024-09-25T11:10:01Z</time>
      </trkpt>
      <trkpt lat="42.37695" lon="2.20308">
        <ele>1634.9</ele>
        <time>2024-09-25T11:10:02Z</time>
      </trkpt>
      <trkpt lat="42.37695" lon="2.20308">
        <ele>1634.9</ele>
        <time>2024-09-25T11:10:03Z</time>
      </trkpt>
      <trkpt lat="42.37695" lon="2.20308">
        <ele>1634.9</ele>
        <time>2024-09-25T11:10:04Z</time>
      </trkpt>
      <trkpt lat="42.37695" lon="2.20308">
        <ele>1634.9</ele>
        <time>2024-09-25T11:10:05Z</time>
      </trkpt>
      <trkpt lat="42.37695" lon="2.20308">
        <ele>1634.9</ele>
        <time>2024-09-25T11:10:06Z</time>
      </trkpt>
      <trkpt lat="42.37695" lon="2.20308">
        <ele>1634.9</ele>
        <time>2024-09-25T11:10:07Z</time>
      </trkpt>
      <trkpt lat="42.37695" lon="2.20308">
        <ele>1634.9</ele>
        <time>2024-09-25T11:10:08Z</time>
      </trkpt>
      <trkpt lat="42.37695" lon="2.20308">
        <ele>1634.9</ele>
        <time>2024-09-25T11:10:09Z</time>
      </trkpt>
      <trkpt lat="42.37695" lon="2.20308">
        <ele>1634.9</ele>
        <time>2024-09-25T11:10:10Z</time>
      </trkpt>
      <trkpt lat="42.37695" lon="2.20308">
        <ele>1634.9</ele>
        <time>2024-09-25T11:10:11Z</time>
      </trkpt>
      <trkpt lat="42.37695" lon="2.20308">
        <ele>1634.9</ele>
        <time>2024-09-25T11:10:12Z</time>
      </trkpt>
      <trkpt lat="42.37695" lon="2.20308">
        <ele>1634.9</ele>
        <time>2024-09-25T11:10:13Z</time>
      </trkpt>
      <trkpt lat="42.37695" lon="2.20308">
        <ele>1634.9</ele>
        <time>2024-09-25T11:10:14Z</time>
      </trkpt>
      <trkpt lat="42.37695" lon="2.20308">
        <ele>1634.9</ele>
        <time>2024-09-25T11:10:15Z</time>
      </trkpt>
      <trkpt lat="42.37695" lon="2.20308">
        <ele>1634.8</ele>
        <time>2024-09-25T11:10:16Z</time>
      </trkpt>
      <trkpt lat="42.37695" lon="2.20308">
        <ele>1634.8</ele>
        <time>2024-09-25T11:10:17Z</time>
      </trkpt>
      <trkpt lat="42.37695" lon="2.20308">
        <ele>1634.8</ele>
        <time>2024-09-25T11:10:18Z</time>
      </trkpt>
      <trkpt lat="42.37695" lon="2.20308">
        <ele>1634.8</ele>
        <time>2024-09-25T11:10:19Z</time>
      </trkpt>
      <trkpt lat="42.37695" lon="2.20308">
        <ele>1634.8</ele>
        <time>2024-09-25T11:10:20Z</time>
      </trkpt>
      <trkpt lat="42.37695" lon="2.20308">
        <ele>1634.8</ele>
        <time>2024-09-25T11:10:21Z</time>
      </trkpt>
      <trkpt lat="42.37695" lon="2.20308">
        <ele>1634.8</ele>
        <time>2024-09-25T11:10:22Z</time>
      </trkpt>
      <trkpt lat="42.37695" lon="2.20308">
        <ele>1634.8</ele>
        <time>2024-09-25T11:10:23Z</time>
      </trkpt>
      <trkpt lat="42.37695" lon="2.20308">
        <ele>1634.8</ele>
        <time>2024-09-25T11:10:24Z</time>
      </trkpt>
      <trkpt lat="42.37695" lon="2.20308">
        <ele>1634.8</ele>
        <time>2024-09-25T11:10:25Z</time>
      </trkpt>
      <trkpt lat="42.37695" lon="2.20308">
        <ele>1634.8</ele>
        <time>2024-09-25T11:10:26Z</time>
      </trkpt>
      <trkpt lat="42.37695" lon="2.20308">
        <ele>1634.8</ele>
        <time>2024-09-25T11:10:27Z</time>
      </trkpt>
      <trkpt lat="42.37695" lon="2.20308">
        <ele>1634.8</ele>
        <time>2024-09-25T11:10:28Z</time>
      </trkpt>
      <trkpt lat="42.37695" lon="2.20308">
        <ele>1634.8</ele>
        <time>2024-09-25T11:10:29Z</time>
      </trkpt>
      <trkpt lat="42.37695" lon="2.20308">
        <ele>1634.8</ele>
        <time>2024-09-25T11:10:30Z</time>
      </trkpt>
      <trkpt lat="42.37695" lon="2.20308">
        <ele>1634.7</ele>
        <time>2024-09-25T11:10:31Z</time>
      </trkpt>
      <trkpt lat="42.37695" lon="2.20308">
        <ele>1634.7</ele>
        <time>2024-09-25T11:10:32Z</time>
      </trkpt>
      <trkpt lat="42.37695" lon="2.20309">
        <ele>1634.7</ele>
        <time>2024-09-25T11:10:33Z</time>
      </trkpt>
      <trkpt lat="42.37695" lon="2.20309">
        <ele>1634.7</ele>
        <time>2024-09-25T11:10:34Z</time>
      </trkpt>
      <trkpt lat="42.37695" lon="2.20309">
        <ele>1634.7</ele>
        <time>2024-09-25T11:10:35Z</time>
      </trkpt>
      <trkpt lat="42.37695" lon="2.20309">
        <ele>1634.7</ele>
        <time>2024-09-25T11:10:36Z</time>
      </trkpt>
      <trkpt lat="42.37695" lon="2.20309">
        <ele>1634.7</ele>
        <time>2024-09-25T11:10:37Z</time>
      </trkpt>
      <trkpt lat="42.37695" lon="2.20309">
        <ele>1634.7</ele>
        <time>2024-09-25T11:10:38Z</time>
      </trkpt>
      <trkpt lat="42.37695" lon="2.20309">
        <ele>1634.7</ele>
        <time>2024-09-25T11:10:39Z</time>
      </trkpt>
      <trkpt lat="42.37695" lon="2.20309">
        <ele>1634.7</ele>
        <time>2024-09-25T11:10:40Z</time>
      </trkpt>
      <trkpt lat="42.37695" lon="2.20309">
        <ele>1634.7</ele>
        <time>2024-09-25T11:10:41Z</time>
      </trkpt>
      <trkpt lat="42.37695" lon="2.20309">
        <ele>1634.7</ele>
        <time>2024-09-25T11:10:42Z</time>
      </trkpt>
      <trkpt lat="42.37695" lon="2.20309">
        <ele>1634.7</ele>
        <time>2024-09-25T11:10:43Z</time>
      </trkpt>
      <trkpt lat="42.37695" lon="2.20309">
        <ele>1634.7</ele>
        <time>2024-09-25T11:10:44Z</time>
      </trkpt>
      <trkpt lat="42.37695" lon="2.20309">
        <ele>1634.7</ele>
        <time>2024-09-25T11:10:45Z</time>
      </trkpt>
      <trkpt lat="42.37695" lon="2.20309">
        <ele>1634.7</ele>
        <time>2024-09-25T11:10:46Z</time>
      </trkpt>
      <trkpt lat="42.37695" lon="2.20309">
        <ele>1634.6</ele>
        <time>2024-09-25T11:10:47Z</time>
      </trkpt>
      <trkpt lat="42.37695" lon="2.20309">
        <ele>1634.6</ele>
        <time>2024-09-25T11:10:48Z</time>
      </trkpt>
      <trkpt lat="42.37695" lon="2.20309">
        <ele>1634.6</ele>
        <time>2024-09-25T11:10:49Z</time>
      </trkpt>
      <trkpt lat="42.37695" lon="2.20309">
        <ele>1634.6</ele>
        <time>2024-09-25T11:10:50Z</time>
      </trkpt>
      <trkpt lat="42.37695" lon="2.20309">
        <ele>1634.6</ele>
        <time>2024-09-25T11:10:51Z</time>
      </trkpt>
      <trkpt lat="42.37695" lon="2.20309">
        <ele>1634.6</ele>
        <time>2024-09-25T11:10:52Z</time>
      </trkpt>
      <trkpt lat="42.37695" lon="2.20309">
        <ele>1634.6</ele>
        <time>2024-09-25T11:10:53Z</time>
      </trkpt>
      <trkpt lat="42.37695" lon="2.20309">
        <ele>1634.6</ele>
        <time>2024-09-25T11:10:54Z</time>
      </trkpt>
      <trkpt lat="42.37695" lon="2.20309">
        <ele>1634.6</ele>
        <time>2024-09-25T11:10:55Z</time>
      </trkpt>
      <trkpt lat="42.37695" lon="2.20309">
        <ele>1634.6</ele>
        <time>2024-09-25T11:10:56Z</time>
      </trkpt>
      <trkpt lat="42.37695" lon="2.20309">
        <ele>1634.6</ele>
        <time>2024-09-25T11:10:57Z</time>
      </trkpt>
      <trkpt lat="42.37695" lon="2.20309">
        <ele>1634.6</ele>
        <time>2024-09-25T11:10:58Z</time>
      </trkpt>
      <trkpt lat="42.37695" lon="2.20309">
        <ele>1634.6</ele>
        <time>2024-09-25T11:10:59Z</time>
      </trkpt>
      <trkpt lat="42.37695" lon="2.20309">
        <ele>1634.6</ele>
        <time>2024-09-25T11:11:00Z</time>
      </trkpt>
      <trkpt lat="42.37695" lon="2.20309">
        <ele>1634.6</ele>
        <time>2024-09-25T11:11:01Z</time>
      </trkpt>
      <trkpt lat="42.37695" lon="2.20309">
        <ele>1634.5</ele>
        <time>2024-09-25T11:11:02Z</time>
      </trkpt>
      <trkpt lat="42.37695" lon="2.20309">
        <ele>1634.5</ele>
        <time>2024-09-25T11:11:03Z</time>
      </trkpt>
      <trkpt lat="42.37695" lon="2.20309">
        <ele>1634.5</ele>
        <time>2024-09-25T11:11:04Z</time>
      </trkpt>
      <trkpt lat="42.37695" lon="2.20309">
        <ele>1634.5</ele>
        <time>2024-09-25T11:11:05Z</time>
      </trkpt>
      <trkpt lat="42.37696" lon="2.20309">
        <ele>1634.5</ele>
        <time>2024-09-25T11:11:06Z</time>
      </trkpt>
      <trkpt lat="42.37696" lon="2.2031">
        <ele>1634.5</ele>
        <time>2024-09-25T11:11:07Z</time>
      </trkpt>
      <trkpt lat="42.37696" lon="2.2031">
        <ele>1634.5</ele>
        <time>2024-09-25T11:11:08Z</time>
      </trkpt>
      <trkpt lat="42.37696" lon="2.2031">
        <ele>1634.5</ele>
        <time>2024-09-25T11:11:09Z</time>
      </trkpt>
      <trkpt lat="42.37696" lon="2.2031">
        <ele>1634.5</ele>
        <time>2024-09-25T11:11:10Z</time>
      </trkpt>
      <trkpt lat="42.37696" lon="2.2031">
        <ele>1634.5</ele>
        <time>2024-09-25T11:11:11Z</time>
      </trkpt>
      <trkpt lat="42.37696" lon="2.2031">
        <ele>1634.5</ele>
        <time>2024-09-25T11:11:12Z</time>
      </trkpt>
      <trkpt lat="42.37697" lon="2.2031">
        <ele>1636</ele>
        <time>2024-09-25T11:11:13Z</time>
      </trkpt>
      <trkpt lat="42.37697" lon="2.2031">
        <ele>1636.9</ele>
        <time>2024-09-25T11:11:14Z</time>
      </trkpt>
      <trkpt lat="42.37697" lon="2.20311">
        <ele>1636.9</ele>
        <time>2024-09-25T11:11:15Z</time>
      </trkpt>
      <trkpt lat="42.37697" lon="2.20311">
        <ele>1636.9</ele>
        <time>2024-09-25T11:11:16Z</time>
      </trkpt>
      <trkpt lat="42.37697" lon="2.20311">
        <ele>1636.9</ele>
        <time>2024-09-25T11:11:17Z</time>
      </trkpt>
      <trkpt lat="42.37697" lon="2.20311">
        <ele>1636.9</ele>
        <time>2024-09-25T11:11:18Z</time>
      </trkpt>
      <trkpt lat="42.37697" lon="2.20311">
        <ele>1636.9</ele>
        <time>2024-09-25T11:11:19Z</time>
      </trkpt>
      <trkpt lat="42.37697" lon="2.20311">
        <ele>1636.9</ele>
        <time>2024-09-25T11:11:20Z</time>
      </trkpt>
      <trkpt lat="42.37698" lon="2.20311">
        <ele>1636.9</ele>
        <time>2024-09-25T11:11:21Z</time>
      </trkpt>
      <trkpt lat="42.37698" lon="2.20311">
        <ele>1636.9</ele>
        <time>2024-09-25T11:11:22Z</time>
      </trkpt>
      <trkpt lat="42.37698" lon="2.20311">
        <ele>1636.9</ele>
        <time>2024-09-25T11:11:23Z</time>
      </trkpt>
      <trkpt lat="42.37699" lon="2.20311">
        <ele>1636.9</ele>
        <time>2024-09-25T11:11:24Z</time>
      </trkpt>
      <trkpt lat="42.377" lon="2.20311">
        <ele>1636.8</ele>
        <time>2024-09-25T11:11:25Z</time>
      </trkpt>
      <trkpt lat="42.377" lon="2.20312">
        <ele>1638.2</ele>
        <time>2024-09-25T11:11:26Z</time>
      </trkpt>
      <trkpt lat="42.37701" lon="2.20312">
        <ele>1638.2</ele>
        <time>2024-09-25T11:11:27Z</time>
      </trkpt>
      <trkpt lat="42.37701" lon="2.20313">
        <ele>1638.2</ele>
        <time>2024-09-25T11:11:28Z</time>
      </trkpt>
      <trkpt lat="42.37702" lon="2.20314">
        <ele>1638.2</ele>
        <time>2024-09-25T11:11:29Z</time>
      </trkpt>
      <trkpt lat="42.37702" lon="2.20314">
        <ele>1638.2</ele>
        <time>2024-09-25T11:11:30Z</time>
      </trkpt>
      <trkpt lat="42.37702" lon="2.20313">
        <ele>1638.2</ele>
        <time>2024-09-25T11:11:31Z</time>
      </trkpt>
      <trkpt lat="42.37702" lon="2.20313">
        <ele>1638.2</ele>
        <time>2024-09-25T11:11:32Z</time>
      </trkpt>
      <trkpt lat="42.37702" lon="2.20313">
        <ele>1638.1</ele>
        <time>2024-09-25T11:11:33Z</time>
      </trkpt>
      <trkpt lat="42.37702" lon="2.20313">
        <ele>1638.1</ele>
        <time>2024-09-25T11:11:34Z</time>
      </trkpt>
      <trkpt lat="42.37702" lon="2.20313">
        <ele>1638.1</ele>
        <time>2024-09-25T11:11:35Z</time>
      </trkpt>
      <trkpt lat="42.37702" lon="2.20313">
        <ele>1638.1</ele>
        <time>2024-09-25T11:11:36Z</time>
      </trkpt>
      <trkpt lat="42.37702" lon="2.20313">
        <ele>1638.1</ele>
        <time>2024-09-25T11:11:37Z</time>
      </trkpt>
      <trkpt lat="42.37702" lon="2.20313">
        <ele>1638.1</ele>
        <time>2024-09-25T11:11:38Z</time>
      </trkpt>
      <trkpt lat="42.37702" lon="2.20313">
        <ele>1638.1</ele>
        <time>2024-09-25T11:11:39Z</time>
      </trkpt>
      <trkpt lat="42.37703" lon="2.20312">
        <ele>1638.1</ele>
        <time>2024-09-25T11:11:40Z</time>
      </trkpt>
      <trkpt lat="42.37703" lon="2.20312">
        <ele>1638.1</ele>
        <time>2024-09-25T11:11:41Z</time>
      </trkpt>
      <trkpt lat="42.37703" lon="2.20312">
        <ele>1639.4</ele>
        <time>2024-09-25T11:11:42Z</time>
      </trkpt>
      <trkpt lat="42.37703" lon="2.20312">
        <ele>1639.4</ele>
        <time>2024-09-25T11:11:43Z</time>
      </trkpt>
      <trkpt lat="42.37703" lon="2.20312">
        <ele>1639.4</ele>
        <time>2024-09-25T11:11:44Z</time>
      </trkpt>
      <trkpt lat="42.37703" lon="2.20312">
        <ele>1639.4</ele>
        <time>2024-09-25T11:11:45Z</time>
      </trkpt>
      <trkpt lat="42.37704" lon="2.20312">
        <ele>1639.4</ele>
        <time>2024-09-25T11:11:46Z</time>
      </trkpt>
      <trkpt lat="42.37704" lon="2.20312">
        <ele>1639.4</ele>
        <time>2024-09-25T11:11:47Z</time>
      </trkpt>
      <trkpt lat="42.37704" lon="2.20312">
        <ele>1639.4</ele>
        <time>2024-09-25T11:11:48Z</time>
      </trkpt>
      <trkpt lat="42.37705" lon="2.20312">
        <ele>1639.4</ele>
        <time>2024-09-25T11:11:49Z</time>
      </trkpt>
      <trkpt lat="42.37705" lon="2.20312">
        <ele>1639.4</ele>
        <time>2024-09-25T11:11:50Z</time>
      </trkpt>
      <trkpt lat="42.37705" lon="2.20311">
        <ele>1639.4</ele>
        <time>2024-09-25T11:11:51Z</time>
      </trkpt>
      <trkpt lat="42.37706" lon="2.20311">
        <ele>1639.4</ele>
        <time>2024-09-25T11:11:52Z</time>
      </trkpt>
      <trkpt lat="42.37706" lon="2.20311">
        <ele>1639.4</ele>
        <time>2024-09-25T11:11:53Z</time>
      </trkpt>
      <trkpt lat="42.37706" lon="2.20311">
        <ele>1639.4</ele>
        <time>2024-09-25T11:11:54Z</time>
      </trkpt>
      <trkpt lat="42.37706" lon="2.20311">
        <ele>1640.8</ele>
        <time>2024-09-25T11:11:55Z</time>
      </trkpt>
      <trkpt lat="42.37706" lon="2.20311">
        <ele>1640.8</ele>
        <time>2024-09-25T11:11:56Z</time>
      </trkpt>
      <trkpt lat="42.37706" lon="2.2031">
        <ele>1640.2</ele>
        <time>2024-09-25T11:11:57Z</time>
      </trkpt>
      <trkpt lat="42.37707" lon="2.20309">
        <ele>1640.2</ele>
        <time>2024-09-25T11:11:58Z</time>
      </trkpt>
      <trkpt lat="42.37705" lon="2.20308">
        <ele>1638.6</ele>
        <time>2024-09-25T11:11:59Z</time>
      </trkpt>
      <trkpt lat="42.37704" lon="2.20308">
        <ele>1638.6</ele>
        <time>2024-09-25T11:12:00Z</time>
      </trkpt>
      <trkpt lat="42.37703" lon="2.20308">
        <ele>1638.6</ele>
        <time>2024-09-25T11:12:01Z</time>
      </trkpt>
      <trkpt lat="42.37702" lon="2.20309">
        <ele>1637.1</ele>
        <time>2024-09-25T11:12:02Z</time>
      </trkpt>
      <trkpt lat="42.377" lon="2.2031">
        <ele>1637.1</ele>
        <time>2024-09-25T11:12:03Z</time>
      </trkpt>
      <trkpt lat="42.377" lon="2.20309">
        <ele>1635.6</ele>
        <time>2024-09-25T11:12:04Z</time>
      </trkpt>
      <trkpt lat="42.37699" lon="2.2031">
        <ele>1635.6</ele>
        <time>2024-09-25T11:12:05Z</time>
      </trkpt>
      <trkpt lat="42.37698" lon="2.20311">
        <ele>1636.6</ele>
        <time>2024-09-25T11:12:06Z</time>
      </trkpt>
      <trkpt lat="42.37697" lon="2.20311">
        <ele>1636.6</ele>
        <time>2024-09-25T11:12:07Z</time>
      </trkpt>
      <trkpt lat="42.37697" lon="2.20311">
        <ele>1636.6</ele>
        <time>2024-09-25T11:12:08Z</time>
      </trkpt>
      <trkpt lat="42.37696" lon="2.20311">
        <ele>1635.2</ele>
        <time>2024-09-25T11:12:09Z</time>
      </trkpt>
      <trkpt lat="42.37697" lon="2.20311">
        <ele>1635.1</ele>
        <time>2024-09-25T11:12:10Z</time>
      </trkpt>
      <trkpt lat="42.37697" lon="2.20311">
        <ele>1636.5</ele>
        <time>2024-09-25T11:12:11Z</time>
      </trkpt>
      <trkpt lat="42.37698" lon="2.20311">
        <ele>1636.5</ele>
        <time>2024-09-25T11:12:12Z</time>
      </trkpt>
      <trkpt lat="42.37698" lon="2.20311">
        <ele>1636.5</ele>
        <time>2024-09-25T11:12:13Z</time>
      </trkpt>
      <trkpt lat="42.37698" lon="2.20311">
        <ele>1636.5</ele>
        <time>2024-09-25T11:12:14Z</time>
      </trkpt>
      <trkpt lat="42.37698" lon="2.20311">
        <ele>1636.5</ele>
        <time>2024-09-25T11:12:15Z</time>
      </trkpt>
      <trkpt lat="42.37698" lon="2.20311">
        <ele>1636.5</ele>
        <time>2024-09-25T11:12:16Z</time>
      </trkpt>
      <trkpt lat="42.37699" lon="2.20312">
        <ele>1636.5</ele>
        <time>2024-09-25T11:12:17Z</time>
      </trkpt>
      <trkpt lat="42.37699" lon="2.20312">
        <ele>1636.5</ele>
        <time>2024-09-25T11:12:18Z</time>
      </trkpt>
      <trkpt lat="42.37699" lon="2.20313">
        <ele>1636.5</ele>
        <time>2024-09-25T11:12:19Z</time>
      </trkpt>
      <trkpt lat="42.37699" lon="2.20314">
        <ele>1636.5</ele>
        <time>2024-09-25T11:12:20Z</time>
      </trkpt>
      <trkpt lat="42.37698" lon="2.20317">
        <ele>1637.6</ele>
        <time>2024-09-25T11:12:21Z</time>
      </trkpt>
      <trkpt lat="42.37697" lon="2.20318">
        <ele>1637.6</ele>
        <time>2024-09-25T11:12:22Z</time>
      </trkpt>
      <trkpt lat="42.37698" lon="2.20321">
        <ele>1638.8</ele>
        <time>2024-09-25T11:12:23Z</time>
      </trkpt>
      <trkpt lat="42.37699" lon="2.20321">
        <ele>1638.8</ele>
        <time>2024-09-25T11:12:24Z</time>
      </trkpt>
      <trkpt lat="42.377" lon="2.20321">
        <ele>1640</ele>
        <time>2024-09-25T11:12:25Z</time>
      </trkpt>
      <trkpt lat="42.377" lon="2.2032">
        <ele>1640</ele>
        <time>2024-09-25T11:12:26Z</time>
      </trkpt>
      <trkpt lat="42.377" lon="2.2032">
        <ele>1640</ele>
        <time>2024-09-25T11:12:27Z</time>
      </trkpt>
      <trkpt lat="42.377" lon="2.2032">
        <ele>1640</ele>
        <time>2024-09-25T11:12:28Z</time>
      </trkpt>
      <trkpt lat="42.377" lon="2.2032">
        <ele>1640</ele>
        <time>2024-09-25T11:12:29Z</time>
      </trkpt>
      <trkpt lat="42.377" lon="2.2032">
        <ele>1640</ele>
        <time>2024-09-25T11:12:30Z</time>
      </trkpt>
      <trkpt lat="42.377" lon="2.2032">
        <ele>1640</ele>
        <time>2024-09-25T11:12:31Z</time>
      </trkpt>
      <trkpt lat="42.377" lon="2.20321">
        <ele>1640</ele>
        <time>2024-09-25T11:12:32Z</time>
      </trkpt>
      <trkpt lat="42.377" lon="2.20321">
        <ele>1639.9</ele>
        <time>2024-09-25T11:12:33Z</time>
      </trkpt>
      <trkpt lat="42.37701" lon="2.20321">
        <ele>1639.9</ele>
        <time>2024-09-25T11:12:34Z</time>
      </trkpt>
      <trkpt lat="42.37701" lon="2.20321">
        <ele>1639.9</ele>
        <time>2024-09-25T11:12:35Z</time>
      </trkpt>
      <trkpt lat="42.37701" lon="2.20321">
        <ele>1639.9</ele>
        <time>2024-09-25T11:12:36Z</time>
      </trkpt>
      <trkpt lat="42.37701" lon="2.20321">
        <ele>1639.9</ele>
        <time>2024-09-25T11:12:37Z</time>
      </trkpt>
      <trkpt lat="42.37701" lon="2.20321">
        <ele>1639.9</ele>
        <time>2024-09-25T11:12:38Z</time>
      </trkpt>
      <trkpt lat="42.37701" lon="2.20321">
        <ele>1639.9</ele>
        <time>2024-09-25T11:12:39Z</time>
      </trkpt>
      <trkpt lat="42.37702" lon="2.20321">
        <ele>1639.9</ele>
        <time>2024-09-25T11:12:40Z</time>
      </trkpt>
      <trkpt lat="42.37702" lon="2.2032">
        <ele>1639.9</ele>
        <time>2024-09-25T11:12:41Z</time>
      </trkpt>
      <trkpt lat="42.37702" lon="2.2032">
        <ele>1639.9</ele>
        <time>2024-09-25T11:12:42Z</time>
      </trkpt>
      <trkpt lat="42.37702" lon="2.2032">
        <ele>1639.9</ele>
        <time>2024-09-25T11:12:43Z</time>
      </trkpt>
      <trkpt lat="42.37702" lon="2.2032">
        <ele>1639.9</ele>
        <time>2024-09-25T11:12:44Z</time>
      </trkpt>
      <trkpt lat="42.37702" lon="2.2032">
        <ele>1639.9</ele>
        <time>2024-09-25T11:12:45Z</time>
      </trkpt>
      <trkpt lat="42.37702" lon="2.2032">
        <ele>1639.9</ele>
        <time>2024-09-25T11:12:46Z</time>
      </trkpt>
      <trkpt lat="42.37702" lon="2.2032">
        <ele>1639.9</ele>
        <time>2024-09-25T11:12:47Z</time>
      </trkpt>
      <trkpt lat="42.37702" lon="2.20319">
        <ele>1639.8</ele>
        <time>2024-09-25T11:12:48Z</time>
      </trkpt>
      <trkpt lat="42.37702" lon="2.20319">
        <ele>1639.8</ele>
        <time>2024-09-25T11:12:49Z</time>
      </trkpt>
      <trkpt lat="42.37702" lon="2.20319">
        <ele>1639.8</ele>
        <time>2024-09-25T11:12:50Z</time>
      </trkpt>
      <trkpt lat="42.37702" lon="2.20319">
        <ele>1639.8</ele>
        <time>2024-09-25T11:12:51Z</time>
      </trkpt>
      <trkpt lat="42.37702" lon="2.20319">
        <ele>1639.8</ele>
        <time>2024-09-25T11:12:52Z</time>
      </trkpt>
      <trkpt lat="42.37702" lon="2.20319">
        <ele>1639.8</ele>
        <time>2024-09-25T11:12:53Z</time>
      </trkpt>
      <trkpt lat="42.37702" lon="2.20319">
        <ele>1638.6</ele>
        <time>2024-09-25T11:12:54Z</time>
      </trkpt>
      <trkpt lat="42.37702" lon="2.20319">
        <ele>1639.8</ele>
        <time>2024-09-25T11:12:55Z</time>
      </trkpt>
      <trkpt lat="42.37701" lon="2.20319">
        <ele>1638.6</ele>
        <time>2024-09-25T11:12:56Z</time>
      </trkpt>
      <trkpt lat="42.37701" lon="2.20319">
        <ele>1638.6</ele>
        <time>2024-09-25T11:12:57Z</time>
      </trkpt>
      <trkpt lat="42.37701" lon="2.20319">
        <ele>1638.6</ele>
        <time>2024-09-25T11:12:58Z</time>
      </trkpt>
      <trkpt lat="42.37701" lon="2.20319">
        <ele>1638.6</ele>
        <time>2024-09-25T11:12:59Z</time>
      </trkpt>
      <trkpt lat="42.37701" lon="2.20319">
        <ele>1639.8</ele>
        <time>2024-09-25T11:13:00Z</time>
      </trkpt>
      <trkpt lat="42.37701" lon="2.20319">
        <ele>1639.8</ele>
        <time>2024-09-25T11:13:01Z</time>
      </trkpt>
      <trkpt lat="42.37701" lon="2.20319">
        <ele>1638.6</ele>
        <time>2024-09-25T11:13:02Z</time>
      </trkpt>
      <trkpt lat="42.37701" lon="2.20318">
        <ele>1638.6</ele>
        <time>2024-09-25T11:13:03Z</time>
      </trkpt>
      <trkpt lat="42.37701" lon="2.20318">
        <ele>1638.5</ele>
        <time>2024-09-25T11:13:04Z</time>
      </trkpt>
      <trkpt lat="42.37701" lon="2.20318">
        <ele>1638.5</ele>
        <time>2024-09-25T11:13:05Z</time>
      </trkpt>
      <trkpt lat="42.37701" lon="2.20318">
        <ele>1638.5</ele>
        <time>2024-09-25T11:13:06Z</time>
      </trkpt>
      <trkpt lat="42.37701" lon="2.20318">
        <ele>1638.5</ele>
        <time>2024-09-25T11:13:07Z</time>
      </trkpt>
      <trkpt lat="42.37701" lon="2.20318">
        <ele>1638.5</ele>
        <time>2024-09-25T11:13:08Z</time>
      </trkpt>
      <trkpt lat="42.37701" lon="2.20318">
        <ele>1638.5</ele>
        <time>2024-09-25T11:13:09Z</time>
      </trkpt>
      <trkpt lat="42.37701" lon="2.20318">
        <ele>1638.5</ele>
        <time>2024-09-25T11:13:10Z</time>
      </trkpt>
      <trkpt lat="42.37701" lon="2.20318">
        <ele>1638.5</ele>
        <time>2024-09-25T11:13:11Z</time>
      </trkpt>
      <trkpt lat="42.37701" lon="2.20318">
        <ele>1638.5</ele>
        <time>2024-09-25T11:13:12Z</time>
      </trkpt>
      <trkpt lat="42.37701" lon="2.20318">
        <ele>1638.5</ele>
        <time>2024-09-25T11:13:13Z</time>
      </trkpt>
      <trkpt lat="42.377" lon="2.20318">
        <ele>1638.5</ele>
        <time>2024-09-25T11:13:14Z</time>
      </trkpt>
      <trkpt lat="42.377" lon="2.20318">
        <ele>1638.5</ele>
        <time>2024-09-25T11:13:15Z</time>
      </trkpt>
      <trkpt lat="42.377" lon="2.20318">
        <ele>1638.5</ele>
        <time>2024-09-25T11:13:16Z</time>
      </trkpt>
      <trkpt lat="42.377" lon="2.20318">
        <ele>1638.5</ele>
        <time>2024-09-25T11:13:17Z</time>
      </trkpt>
      <trkpt lat="42.377" lon="2.20318">
        <ele>1638.5</ele>
        <time>2024-09-25T11:13:18Z</time>
      </trkpt>
      <trkpt lat="42.377" lon="2.20318">
        <ele>1638.4</ele>
        <time>2024-09-25T11:13:19Z</time>
      </trkpt>
      <trkpt lat="42.377" lon="2.20318">
        <ele>1638.4</ele>
        <time>2024-09-25T11:13:20Z</time>
      </trkpt>
      <trkpt lat="42.377" lon="2.20318">
        <ele>1638.4</ele>
        <time>2024-09-25T11:13:21Z</time>
      </trkpt>
      <trkpt lat="42.377" lon="2.20318">
        <ele>1638.4</ele>
        <time>2024-09-25T11:13:22Z</time>
      </trkpt>
      <trkpt lat="42.377" lon="2.20318">
        <ele>1638.4</ele>
        <time>2024-09-25T11:13:23Z</time>
      </trkpt>
      <trkpt lat="42.377" lon="2.20318">
        <ele>1638.4</ele>
        <time>2024-09-25T11:13:24Z</time>
      </trkpt>
      <trkpt lat="42.377" lon="2.20318">
        <ele>1638.4</ele>
        <time>2024-09-25T11:13:25Z</time>
      </trkpt>
      <trkpt lat="42.377" lon="2.20318">
        <ele>1637.1</ele>
        <time>2024-09-25T11:13:26Z</time>
      </trkpt>
      <trkpt lat="42.377" lon="2.20318">
        <ele>1637.1</ele>
        <time>2024-09-25T11:13:27Z</time>
      </trkpt>
      <trkpt lat="42.37699" lon="2.20318">
        <ele>1637.1</ele>
        <time>2024-09-25T11:13:28Z</time>
      </trkpt>
      <trkpt lat="42.37699" lon="2.20318">
        <ele>1637.1</ele>
        <time>2024-09-25T11:13:29Z</time>
      </trkpt>
      <trkpt lat="42.37699" lon="2.20318">
        <ele>1637.1</ele>
        <time>2024-09-25T11:13:30Z</time>
      </trkpt>
      <trkpt lat="42.37698" lon="2.20317">
        <ele>1637.1</ele>
        <time>2024-09-25T11:13:31Z</time>
      </trkpt>
      <trkpt lat="42.37698" lon="2.20317">
        <ele>1637.1</ele>
        <time>2024-09-25T11:13:32Z</time>
      </trkpt>
      <trkpt lat="42.37698" lon="2.20318">
        <ele>1637.1</ele>
        <time>2024-09-25T11:13:33Z</time>
      </trkpt>
      <trkpt lat="42.37698" lon="2.20318">
        <ele>1637.1</ele>
        <time>2024-09-25T11:13:34Z</time>
      </trkpt>
      <trkpt lat="42.37698" lon="2.20318">
        <ele>1637.1</ele>
        <time>2024-09-25T11:13:35Z</time>
      </trkpt>
      <trkpt lat="42.37698" lon="2.20318">
        <ele>1637.1</ele>
        <time>2024-09-25T11:13:36Z</time>
      </trkpt>
      <trkpt lat="42.37698" lon="2.20318">
        <ele>1637.1</ele>
        <time>2024-09-25T11:13:37Z</time>
      </trkpt>
      <trkpt lat="42.37698" lon="2.20318">
        <ele>1637.1</ele>
        <time>2024-09-25T11:13:38Z</time>
      </trkpt>
      <trkpt lat="42.37698" lon="2.20318">
        <ele>1637</ele>
        <time>2024-09-25T11:13:39Z</time>
      </trkpt>
      <trkpt lat="42.37698" lon="2.20318">
        <ele>1637</ele>
        <time>2024-09-25T11:13:40Z</time>
      </trkpt>
      <trkpt lat="42.37698" lon="2.20318">
        <ele>1637</ele>
        <time>2024-09-25T11:13:41Z</time>
      </trkpt>
      <trkpt lat="42.37698" lon="2.20318">
        <ele>1637</ele>
        <time>2024-09-25T11:13:42Z</time>
      </trkpt>
      <trkpt lat="42.37698" lon="2.20318">
        <ele>1637</ele>
        <time>2024-09-25T11:13:43Z</time>
      </trkpt>
      <trkpt lat="42.37697" lon="2.20317">
        <ele>1637</ele>
        <time>2024-09-25T11:13:44Z</time>
      </trkpt>
      <trkpt lat="42.37697" lon="2.20316">
        <ele>1637</ele>
        <time>2024-09-25T11:13:45Z</time>
      </trkpt>
      <trkpt lat="42.37697" lon="2.20316">
        <ele>1637</ele>
        <time>2024-09-25T11:13:46Z</time>
      </trkpt>
      <trkpt lat="42.37697" lon="2.20316">
        <ele>1637</ele>
        <time>2024-09-25T11:13:47Z</time>
      </trkpt>
      <trkpt lat="42.37697" lon="2.20316">
        <ele>1635.7</ele>
        <time>2024-09-25T11:13:48Z</time>
      </trkpt>
      <trkpt lat="42.37696" lon="2.20315">
        <ele>1635.7</ele>
        <time>2024-09-25T11:13:49Z</time>
      </trkpt>
      <trkpt lat="42.37696" lon="2.20315">
        <ele>1635.7</ele>
        <time>2024-09-25T11:13:50Z</time>
      </trkpt>
      <trkpt lat="42.37696" lon="2.20315">
        <ele>1635.6</ele>
        <time>2024-09-25T11:13:51Z</time>
      </trkpt>
      <trkpt lat="42.37695" lon="2.20315">
        <ele>1635.6</ele>
        <time>2024-09-25T11:13:52Z</time>
      </trkpt>
      <trkpt lat="42.37695" lon="2.20315">
        <ele>1635.6</ele>
        <time>2024-09-25T11:13:53Z</time>
      </trkpt>
      <trkpt lat="42.37695" lon="2.20315">
        <ele>1635.6</ele>
        <time>2024-09-25T11:13:54Z</time>
      </trkpt>
      <trkpt lat="42.37695" lon="2.20315">
        <ele>1635.6</ele>
        <time>2024-09-25T11:13:55Z</time>
      </trkpt>
      <trkpt lat="42.37695" lon="2.20315">
        <ele>1635.6</ele>
        <time>2024-09-25T11:13:56Z</time>
      </trkpt>
      <trkpt lat="42.37695" lon="2.20315">
        <ele>1635.6</ele>
        <time>2024-09-25T11:13:57Z</time>
      </trkpt>
      <trkpt lat="42.37695" lon="2.20315">
        <ele>1635.6</ele>
        <time>2024-09-25T11:13:58Z</time>
      </trkpt>
      <trkpt lat="42.37696" lon="2.20315">
        <ele>1635.6</ele>
        <time>2024-09-25T11:13:59Z</time>
      </trkpt>
      <trkpt lat="42.37696" lon="2.20315">
        <ele>1635.6</ele>
        <time>2024-09-25T11:14:00Z</time>
      </trkpt>
      <trkpt lat="42.37696" lon="2.20315">
        <ele>1635.6</ele>
        <time>2024-09-25T11:14:01Z</time>
      </trkpt>
      <trkpt lat="42.37696" lon="2.20315">
        <ele>1635.6</ele>
        <time>2024-09-25T11:14:02Z</time>
      </trkpt>
      <trkpt lat="42.37696" lon="2.20315">
        <ele>1635.6</ele>
        <time>2024-09-25T11:14:03Z</time>
      </trkpt>
      <trkpt lat="42.37696" lon="2.20315">
        <ele>1635.6</ele>
        <time>2024-09-25T11:14:04Z</time>
      </trkpt>
      <trkpt lat="42.37696" lon="2.20315">
        <ele>1635.6</ele>
        <time>2024-09-25T11:14:05Z</time>
      </trkpt>
      <trkpt lat="42.37696" lon="2.20315">
        <ele>1635.6</ele>
        <time>2024-09-25T11:14:06Z</time>
      </trkpt>
      <trkpt lat="42.37696" lon="2.20315">
        <ele>1635.5</ele>
        <time>2024-09-25T11:14:07Z</time>
      </trkpt>
      <trkpt lat="42.37696" lon="2.20315">
        <ele>1635.5</ele>
        <time>2024-09-25T11:14:08Z</time>
      </trkpt>
      <trkpt lat="42.37696" lon="2.20315">
        <ele>1635.5</ele>
        <time>2024-09-25T11:14:09Z</time>
      </trkpt>
      <trkpt lat="42.37696" lon="2.20315">
        <ele>1635.5</ele>
        <time>2024-09-25T11:14:10Z</time>
      </trkpt>
      <trkpt lat="42.37696" lon="2.20315">
        <ele>1635.5</ele>
        <time>2024-09-25T11:14:11Z</time>
      </trkpt>
      <trkpt lat="42.37696" lon="2.20315">
        <ele>1635.5</ele>
        <time>2024-09-25T11:14:12Z</time>
      </trkpt>
      <trkpt lat="42.37696" lon="2.20315">
        <ele>1635.5</ele>
        <time>2024-09-25T11:14:13Z</time>
      </trkpt>
      <trkpt lat="42.37696" lon="2.20315">
        <ele>1635.5</ele>
        <time>2024-09-25T11:14:14Z</time>
      </trkpt>
      <trkpt lat="42.37696" lon="2.20315">
        <ele>1635.5</ele>
        <time>2024-09-25T11:14:15Z</time>
      </trkpt>
      <trkpt lat="42.37696" lon="2.20315">
        <ele>1635.5</ele>
        <time>2024-09-25T11:14:16Z</time>
      </trkpt>
      <trkpt lat="42.37696" lon="2.20315">
        <ele>1635.5</ele>
        <time>2024-09-25T11:14:17Z</time>
      </trkpt>
      <trkpt lat="42.37696" lon="2.20315">
        <ele>1635.5</ele>
        <time>2024-09-25T11:14:18Z</time>
      </trkpt>
      <trkpt lat="42.37696" lon="2.20315">
        <ele>1635.5</ele>
        <time>2024-09-25T11:14:19Z</time>
      </trkpt>
      <trkpt lat="42.37696" lon="2.20315">
        <ele>1635.5</ele>
        <time>2024-09-25T11:14:20Z</time>
      </trkpt>
      <trkpt lat="42.37696" lon="2.20315">
        <ele>1635.5</ele>
        <time>2024-09-25T11:14:21Z</time>
      </trkpt>
      <trkpt lat="42.37696" lon="2.20315">
        <ele>1635.4</ele>
        <time>2024-09-25T11:14:22Z</time>
      </trkpt>
      <trkpt lat="42.37696" lon="2.20315">
        <ele>1635.4</ele>
        <time>2024-09-25T11:14:23Z</time>
      </trkpt>
      <trkpt lat="42.37696" lon="2.20315">
        <ele>1635.4</ele>
        <time>2024-09-25T11:14:24Z</time>
      </trkpt>
      <trkpt lat="42.37696" lon="2.20315">
        <ele>1635.4</ele>
        <time>2024-09-25T11:14:25Z</time>
      </trkpt>
      <trkpt lat="42.37696" lon="2.20315">
        <ele>1635.4</ele>
        <time>2024-09-25T11:14:26Z</time>
      </trkpt>
      <trkpt lat="42.37696" lon="2.20315">
        <ele>1635.4</ele>
        <time>2024-09-25T11:14:27Z</time>
      </trkpt>
      <trkpt lat="42.37696" lon="2.20315">
        <ele>1635.4</ele>
        <time>2024-09-25T11:14:28Z</time>
      </trkpt>
      <trkpt lat="42.37696" lon="2.20315">
        <ele>1635.4</ele>
        <time>2024-09-25T11:14:29Z</time>
      </trkpt>
      <trkpt lat="42.37696" lon="2.20315">
        <ele>1634.2</ele>
        <time>2024-09-25T11:14:30Z</time>
      </trkpt>
      <trkpt lat="42.37696" lon="2.20315">
        <ele>1634.2</ele>
        <time>2024-09-25T11:14:31Z</time>
      </trkpt>
      <trkpt lat="42.37696" lon="2.20315">
        <ele>1634.2</ele>
        <time>2024-09-25T11:14:32Z</time>
      </trkpt>
      <trkpt lat="42.37696" lon="2.20315">
        <ele>1635.4</ele>
        <time>2024-09-25T11:14:33Z</time>
      </trkpt>
      <trkpt lat="42.37696" lon="2.20315">
        <ele>1635.4</ele>
        <time>2024-09-25T11:14:34Z</time>
      </trkpt>
      <trkpt lat="42.37696" lon="2.20315">
        <ele>1635.4</ele>
        <time>2024-09-25T11:14:35Z</time>
      </trkpt>
      <trkpt lat="42.37696" lon="2.20315">
        <ele>1635.4</ele>
        <time>2024-09-25T11:14:36Z</time>
      </trkpt>
      <trkpt lat="42.37696" lon="2.20315">
        <ele>1635.3</ele>
        <time>2024-09-25T11:14:37Z</time>
      </trkpt>
      <trkpt lat="42.37696" lon="2.20315">
        <ele>1635.3</ele>
        <time>2024-09-25T11:14:38Z</time>
      </trkpt>
      <trkpt lat="42.37696" lon="2.20315">
        <ele>1635.3</ele>
        <time>2024-09-25T11:14:39Z</time>
      </trkpt>
      <trkpt lat="42.37696" lon="2.20315">
        <ele>1635.3</ele>
        <time>2024-09-25T11:14:40Z</time>
      </trkpt>
      <trkpt lat="42.37696" lon="2.20315">
        <ele>1635.3</ele>
        <time>2024-09-25T11:14:41Z</time>
      </trkpt>
      <trkpt lat="42.37696" lon="2.20314">
        <ele>1634.2</ele>
        <time>2024-09-25T11:14:42Z</time>
      </trkpt>
      <trkpt lat="42.37696" lon="2.20314">
        <ele>1634.1</ele>
        <time>2024-09-25T11:14:43Z</time>
      </trkpt>
      <trkpt lat="42.37696" lon="2.20314">
        <ele>1634.1</ele>
        <time>2024-09-25T11:14:44Z</time>
      </trkpt>
      <trkpt lat="42.37696" lon="2.20314">
        <ele>1634.1</ele>
        <time>2024-09-25T11:14:45Z</time>
      </trkpt>
      <trkpt lat="42.37696" lon="2.20314">
        <ele>1634.1</ele>
        <time>2024-09-25T11:14:46Z</time>
      </trkpt>
      <trkpt lat="42.37696" lon="2.20314">
        <ele>1634.1</ele>
        <time>2024-09-25T11:14:47Z</time>
      </trkpt>
      <trkpt lat="42.37697" lon="2.20314">
        <ele>1635.5</ele>
        <time>2024-09-25T11:14:48Z</time>
      </trkpt>
      <trkpt lat="42.37697" lon="2.20314">
        <ele>1635.5</ele>
        <time>2024-09-25T11:14:49Z</time>
      </trkpt>
      <trkpt lat="42.37697" lon="2.20314">
        <ele>1635.5</ele>
        <time>2024-09-25T11:14:50Z</time>
      </trkpt>
      <trkpt lat="42.37698" lon="2.20313">
        <ele>1635.5</ele>
        <time>2024-09-25T11:14:51Z</time>
      </trkpt>
      <trkpt lat="42.37698" lon="2.20313">
        <ele>1635.5</ele>
        <time>2024-09-25T11:14:52Z</time>
      </trkpt>
      <trkpt lat="42.37698" lon="2.20312">
        <ele>1635.5</ele>
        <time>2024-09-25T11:14:53Z</time>
      </trkpt>
      <trkpt lat="42.37698" lon="2.20312">
        <ele>1635.5</ele>
        <time>2024-09-25T11:14:54Z</time>
      </trkpt>
      <trkpt lat="42.37698" lon="2.20312">
        <ele>1635.5</ele>
        <time>2024-09-25T11:14:55Z</time>
      </trkpt>
      <trkpt lat="42.37699" lon="2.20311">
        <ele>1635.5</ele>
        <time>2024-09-25T11:14:56Z</time>
      </trkpt>
      <trkpt lat="42.37699" lon="2.20311">
        <ele>1635.5</ele>
        <time>2024-09-25T11:14:57Z</time>
      </trkpt>
      <trkpt lat="42.377" lon="2.2031">
        <ele>1634.5</ele>
        <time>2024-09-25T11:14:58Z</time>
      </trkpt>
      <trkpt lat="42.377" lon="2.2031">
        <ele>1635.9</ele>
        <time>2024-09-25T11:14:59Z</time>
      </trkpt>
      <trkpt lat="42.377" lon="2.2031">
        <ele>1635.9</ele>
        <time>2024-09-25T11:15:00Z</time>
      </trkpt>
      <trkpt lat="42.377" lon="2.2031">
        <ele>1635.9</ele>
        <time>2024-09-25T11:15:01Z</time>
      </trkpt>
      <trkpt lat="42.377" lon="2.2031">
        <ele>1635.9</ele>
        <time>2024-09-25T11:15:02Z</time>
      </trkpt>
      <trkpt lat="42.37701" lon="2.2031">
        <ele>1635.9</ele>
        <time>2024-09-25T11:15:03Z</time>
      </trkpt>
      <trkpt lat="42.37701" lon="2.2031">
        <ele>1635.9</ele>
        <time>2024-09-25T11:15:04Z</time>
      </trkpt>
      <trkpt lat="42.37701" lon="2.2031">
        <ele>1635.9</ele>
        <time>2024-09-25T11:15:05Z</time>
      </trkpt>
      <trkpt lat="42.377" lon="2.2031">
        <ele>1635.9</ele>
        <time>2024-09-25T11:15:06Z</time>
      </trkpt>
      <trkpt lat="42.377" lon="2.20309">
        <ele>1635.9</ele>
        <time>2024-09-25T11:15:07Z</time>
      </trkpt>
      <trkpt lat="42.377" lon="2.20309">
        <ele>1635.9</ele>
        <time>2024-09-25T11:15:08Z</time>
      </trkpt>
      <trkpt lat="42.377" lon="2.20309">
        <ele>1635.9</ele>
        <time>2024-09-25T11:15:09Z</time>
      </trkpt>
      <trkpt lat="42.377" lon="2.20309">
        <ele>1634.4</ele>
        <time>2024-09-25T11:15:10Z</time>
      </trkpt>
      <trkpt lat="42.377" lon="2.20309">
        <ele>1634.4</ele>
        <time>2024-09-25T11:15:11Z</time>
      </trkpt>
      <trkpt lat="42.377" lon="2.20309">
        <ele>1634.4</ele>
        <time>2024-09-25T11:15:12Z</time>
      </trkpt>
      <trkpt lat="42.37699" lon="2.20308">
        <ele>1634.4</ele>
        <time>2024-09-25T11:15:13Z</time>
      </trkpt>
      <trkpt lat="42.37699" lon="2.20308">
        <ele>1634.4</ele>
        <time>2024-09-25T11:15:14Z</time>
      </trkpt>
      <trkpt lat="42.37699" lon="2.20308">
        <ele>1634.4</ele>
        <time>2024-09-25T11:15:15Z</time>
      </trkpt>
      <trkpt lat="42.37699" lon="2.20308">
        <ele>1634.4</ele>
        <time>2024-09-25T11:15:16Z</time>
      </trkpt>
      <trkpt lat="42.37699" lon="2.20308">
        <ele>1634.4</ele>
        <time>2024-09-25T11:15:17Z</time>
      </trkpt>
      <trkpt lat="42.37699" lon="2.20308">
        <ele>1634.4</ele>
        <time>2024-09-25T11:15:18Z</time>
      </trkpt>
      <trkpt lat="42.37699" lon="2.20308">
        <ele>1634.4</ele>
        <time>2024-09-25T11:15:19Z</time>
      </trkpt>
      <trkpt lat="42.37699" lon="2.20308">
        <ele>1634.4</ele>
        <time>2024-09-25T11:15:20Z</time>
      </trkpt>
      <trkpt lat="42.37699" lon="2.20308">
        <ele>1634.3</ele>
        <time>2024-09-25T11:15:21Z</time>
      </trkpt>
      <trkpt lat="42.37698" lon="2.20307">
        <ele>1634.3</ele>
        <time>2024-09-25T11:15:22Z</time>
      </trkpt>
      <trkpt lat="42.37698" lon="2.20307">
        <ele>1634.3</ele>
        <time>2024-09-25T11:15:23Z</time>
      </trkpt>
      <trkpt lat="42.37698" lon="2.20307">
        <ele>1634.3</ele>
        <time>2024-09-25T11:15:24Z</time>
      </trkpt>
      <trkpt lat="42.37698" lon="2.20306">
        <ele>1634.3</ele>
        <time>2024-09-25T11:15:25Z</time>
      </trkpt>
      <trkpt lat="42.37698" lon="2.20306">
        <ele>1634.3</ele>
        <time>2024-09-25T11:15:26Z</time>
      </trkpt>
      <trkpt lat="42.37698" lon="2.20306">
        <ele>1633.4</ele>
        <time>2024-09-25T11:15:27Z</time>
      </trkpt>
      <trkpt lat="42.37698" lon="2.20305">
        <ele>1633.4</ele>
        <time>2024-09-25T11:15:28Z</time>
      </trkpt>
      <trkpt lat="42.37698" lon="2.20305">
        <ele>1633.4</ele>
        <time>2024-09-25T11:15:29Z</time>
      </trkpt>
      <trkpt lat="42.37698" lon="2.20305">
        <ele>1633.4</ele>
        <time>2024-09-25T11:15:30Z</time>
      </trkpt>
      <trkpt lat="42.37698" lon="2.20305">
        <ele>1633.4</ele>
        <time>2024-09-25T11:15:31Z</time>
      </trkpt>
      <trkpt lat="42.37698" lon="2.20305">
        <ele>1633.4</ele>
        <time>2024-09-25T11:15:32Z</time>
      </trkpt>
      <trkpt lat="42.37698" lon="2.20305">
        <ele>1633.4</ele>
        <time>2024-09-25T11:15:33Z</time>
      </trkpt>
      <trkpt lat="42.37698" lon="2.20305">
        <ele>1633.4</ele>
        <time>2024-09-25T11:15:34Z</time>
      </trkpt>
      <trkpt lat="42.37698" lon="2.20305">
        <ele>1633.4</ele>
        <time>2024-09-25T11:15:35Z</time>
      </trkpt>
      <trkpt lat="42.37698" lon="2.20305">
        <ele>1633.4</ele>
        <time>2024-09-25T11:15:36Z</time>
      </trkpt>
      <trkpt lat="42.37698" lon="2.20305">
        <ele>1633.4</ele>
        <time>2024-09-25T11:15:37Z</time>
      </trkpt>
      <trkpt lat="42.37697" lon="2.20305">
        <ele>1633.4</ele>
        <time>2024-09-25T11:15:38Z</time>
      </trkpt>
      <trkpt lat="42.37697" lon="2.20304">
        <ele>1633.4</ele>
        <time>2024-09-25T11:15:39Z</time>
      </trkpt>
      <trkpt lat="42.37697" lon="2.20304">
        <ele>1633.4</ele>
        <time>2024-09-25T11:15:40Z</time>
      </trkpt>
      <trkpt lat="42.37697" lon="2.20304">
        <ele>1633.3</ele>
        <time>2024-09-25T11:15:41Z</time>
      </trkpt>
      <trkpt lat="42.37697" lon="2.20304">
        <ele>1633.3</ele>
        <time>2024-09-25T11:15:42Z</time>
      </trkpt>
      <trkpt lat="42.37697" lon="2.20304">
        <ele>1633.3</ele>
        <time>2024-09-25T11:15:43Z</time>
      </trkpt>
      <trkpt lat="42.37697" lon="2.20304">
        <ele>1633.3</ele>
        <time>2024-09-25T11:15:44Z</time>
      </trkpt>
      <trkpt lat="42.37697" lon="2.20303">
        <ele>1633.3</ele>
        <time>2024-09-25T11:15:45Z</time>
      </trkpt>
      <trkpt lat="42.37698" lon="2.20303">
        <ele>1633.3</ele>
        <time>2024-09-25T11:15:46Z</time>
      </trkpt>
      <trkpt lat="42.37698" lon="2.20303">
        <ele>1633.3</ele>
        <time>2024-09-25T11:15:47Z</time>
      </trkpt>
      <trkpt lat="42.37698" lon="2.20303">
        <ele>1633.3</ele>
        <time>2024-09-25T11:15:48Z</time>
      </trkpt>
      <trkpt lat="42.37698" lon="2.20303">
        <ele>1633.3</ele>
        <time>2024-09-25T11:15:49Z</time>
      </trkpt>
      <trkpt lat="42.37698" lon="2.20302">
        <ele>1633.3</ele>
        <time>2024-09-25T11:15:50Z</time>
      </trkpt>
      <trkpt lat="42.37697" lon="2.20302">
        <ele>1632.5</ele>
        <time>2024-09-25T11:15:51Z</time>
      </trkpt>
      <trkpt lat="42.37697" lon="2.20301">
        <ele>1632.4</ele>
        <time>2024-09-25T11:15:52Z</time>
      </trkpt>
      <trkpt lat="42.37697" lon="2.20302">
        <ele>1633.3</ele>
        <time>2024-09-25T11:15:53Z</time>
      </trkpt>
      <trkpt lat="42.37697" lon="2.20302">
        <ele>1632.4</ele>
        <time>2024-09-25T11:15:54Z</time>
      </trkpt>
      <trkpt lat="42.37698" lon="2.20301">
        <ele>1632.4</ele>
        <time>2024-09-25T11:15:55Z</time>
      </trkpt>
      <trkpt lat="42.37698" lon="2.20301">
        <ele>1632.4</ele>
        <time>2024-09-25T11:15:56Z</time>
      </trkpt>
      <trkpt lat="42.37698" lon="2.20301">
        <ele>1632.4</ele>
        <time>2024-09-25T11:15:57Z</time>
      </trkpt>
      <trkpt lat="42.37698" lon="2.20301">
        <ele>1632.4</ele>
        <time>2024-09-25T11:15:58Z</time>
      </trkpt>
      <trkpt lat="42.37698" lon="2.20301">
        <ele>1632.4</ele>
        <time>2024-09-25T11:15:59Z</time>
      </trkpt>
      <trkpt lat="42.37698" lon="2.20301">
        <ele>1632.4</ele>
        <time>2024-09-25T11:16:00Z</time>
      </trkpt>
      <trkpt lat="42.37698" lon="2.20301">
        <ele>1632.4</ele>
        <time>2024-09-25T11:16:01Z</time>
      </trkpt>
      <trkpt lat="42.37698" lon="2.20301">
        <ele>1632.4</ele>
        <time>2024-09-25T11:16:02Z</time>
      </trkpt>
      <trkpt lat="42.37698" lon="2.20301">
        <ele>1632.4</ele>
        <time>2024-09-25T11:16:03Z</time>
      </trkpt>
      <trkpt lat="42.37698" lon="2.20301">
        <ele>1632.4</ele>
        <time>2024-09-25T11:16:04Z</time>
      </trkpt>
      <trkpt lat="42.37698" lon="2.20301">
        <ele>1632.4</ele>
        <time>2024-09-25T11:16:05Z</time>
      </trkpt>
      <trkpt lat="42.37698" lon="2.20301">
        <ele>1632.4</ele>
        <time>2024-09-25T11:16:06Z</time>
      </trkpt>
      <trkpt lat="42.37698" lon="2.20301">
        <ele>1632.3</ele>
        <time>2024-09-25T11:16:07Z</time>
      </trkpt>
      <trkpt lat="42.37698" lon="2.20301">
        <ele>1632.3</ele>
        <time>2024-09-25T11:16:08Z</time>
      </trkpt>
      <trkpt lat="42.37698" lon="2.20301">
        <ele>1632.3</ele>
        <time>2024-09-25T11:16:09Z</time>
      </trkpt>
      <trkpt lat="42.37698" lon="2.20301">
        <ele>1632.3</ele>
        <time>2024-09-25T11:16:10Z</time>
      </trkpt>
      <trkpt lat="42.37698" lon="2.20301">
        <ele>1632.3</ele>
        <time>2024-09-25T11:16:11Z</time>
      </trkpt>
      <trkpt lat="42.37698" lon="2.20301">
        <ele>1632.3</ele>
        <time>2024-09-25T11:16:12Z</time>
      </trkpt>
      <trkpt lat="42.37698" lon="2.20301">
        <ele>1632.3</ele>
        <time>2024-09-25T11:16:13Z</time>
      </trkpt>
      <trkpt lat="42.37697" lon="2.20301">
        <ele>1632.3</ele>
        <time>2024-09-25T11:16:14Z</time>
      </trkpt>
      <trkpt lat="42.37697" lon="2.20301">
        <ele>1632.3</ele>
        <time>2024-09-25T11:16:15Z</time>
      </trkpt>
      <trkpt lat="42.37697" lon="2.20301">
        <ele>1632.3</ele>
        <time>2024-09-25T11:16:16Z</time>
      </trkpt>
      <trkpt lat="42.37697" lon="2.20301">
        <ele>1632.3</ele>
        <time>2024-09-25T11:16:17Z</time>
      </trkpt>
      <trkpt lat="42.37697" lon="2.20301">
        <ele>1632.3</ele>
        <time>2024-09-25T11:16:18Z</time>
      </trkpt>
      <trkpt lat="42.37697" lon="2.20301">
        <ele>1632.3</ele>
        <time>2024-09-25T11:16:19Z</time>
      </trkpt>
      <trkpt lat="42.37697" lon="2.20301">
        <ele>1632.3</ele>
        <time>2024-09-25T11:16:20Z</time>
      </trkpt>
      <trkpt lat="42.37697" lon="2.20301">
        <ele>1632.3</ele>
        <time>2024-09-25T11:16:21Z</time>
      </trkpt>
      <trkpt lat="42.37697" lon="2.20301">
        <ele>1632.2</ele>
        <time>2024-09-25T11:16:22Z</time>
      </trkpt>
      <trkpt lat="42.37697" lon="2.20301">
        <ele>1632.2</ele>
        <time>2024-09-25T11:16:23Z</time>
      </trkpt>
      <trkpt lat="42.37697" lon="2.20301">
        <ele>1632.2</ele>
        <time>2024-09-25T11:16:24Z</time>
      </trkpt>
      <trkpt lat="42.37698" lon="2.20301">
        <ele>1632.2</ele>
        <time>2024-09-25T11:16:25Z</time>
      </trkpt>
      <trkpt lat="42.37698" lon="2.20301">
        <ele>1632.2</ele>
        <time>2024-09-25T11:16:26Z</time>
      </trkpt>
      <trkpt lat="42.37698" lon="2.20301">
        <ele>1632.2</ele>
        <time>2024-09-25T11:16:27Z</time>
      </trkpt>
      <trkpt lat="42.37698" lon="2.20301">
        <ele>1632.2</ele>
        <time>2024-09-25T11:16:28Z</time>
      </trkpt>
      <trkpt lat="42.37698" lon="2.20301">
        <ele>1632.2</ele>
        <time>2024-09-25T11:16:29Z</time>
      </trkpt>
      <trkpt lat="42.37698" lon="2.20301">
        <ele>1632.2</ele>
        <time>2024-09-25T11:16:30Z</time>
      </trkpt>
      <trkpt lat="42.37698" lon="2.20301">
        <ele>1632.2</ele>
        <time>2024-09-25T11:16:31Z</time>
      </trkpt>
      <trkpt lat="42.37698" lon="2.20301">
        <ele>1632.2</ele>
        <time>2024-09-25T11:16:32Z</time>
      </trkpt>
      <trkpt lat="42.37698" lon="2.20301">
        <ele>1632.2</ele>
        <time>2024-09-25T11:16:33Z</time>
      </trkpt>
      <trkpt lat="42.37698" lon="2.20301">
        <ele>1632.2</ele>
        <time>2024-09-25T11:16:34Z</time>
      </trkpt>
      <trkpt lat="42.37698" lon="2.20301">
        <ele>1632.2</ele>
        <time>2024-09-25T11:16:35Z</time>
      </trkpt>
      <trkpt lat="42.37698" lon="2.20301">
        <ele>1632.2</ele>
        <time>2024-09-25T11:16:36Z</time>
      </trkpt>
      <trkpt lat="42.37698" lon="2.20301">
        <ele>1632.1</ele>
        <time>2024-09-25T11:16:37Z</time>
      </trkpt>
      <trkpt lat="42.37698" lon="2.20301">
        <ele>1632.1</ele>
        <time>2024-09-25T11:16:38Z</time>
      </trkpt>
      <trkpt lat="42.37698" lon="2.20301">
        <ele>1632.1</ele>
        <time>2024-09-25T11:16:39Z</time>
      </trkpt>
      <trkpt lat="42.37698" lon="2.20301">
        <ele>1632.1</ele>
        <time>2024-09-25T11:16:40Z</time>
      </trkpt>
      <trkpt lat="42.37698" lon="2.20301">
        <ele>1632.1</ele>
        <time>2024-09-25T11:16:41Z</time>
      </trkpt>
      <trkpt lat="42.37698" lon="2.20301">
        <ele>1632.1</ele>
        <time>2024-09-25T11:16:42Z</time>
      </trkpt>
      <trkpt lat="42.37698" lon="2.20301">
        <ele>1632.1</ele>
        <time>2024-09-25T11:16:43Z</time>
      </trkpt>
      <trkpt lat="42.37698" lon="2.20301">
        <ele>1632.1</ele>
        <time>2024-09-25T11:16:44Z</time>
      </trkpt>
      <trkpt lat="42.37698" lon="2.20301">
        <ele>1632.1</ele>
        <time>2024-09-25T11:16:45Z</time>
      </trkpt>
      <trkpt lat="42.37698" lon="2.20301">
        <ele>1632.1</ele>
        <time>2024-09-25T11:16:46Z</time>
      </trkpt>
      <trkpt lat="42.37698" lon="2.20301">
        <ele>1632.1</ele>
        <time>2024-09-25T11:16:47Z</time>
      </trkpt>
      <trkpt lat="42.37698" lon="2.20301">
        <ele>1632.1</ele>
        <time>2024-09-25T11:16:48Z</time>
      </trkpt>
      <trkpt lat="42.37698" lon="2.20301">
        <ele>1632.1</ele>
        <time>2024-09-25T11:16:49Z</time>
      </trkpt>
      <trkpt lat="42.37698" lon="2.20301">
        <ele>1632.1</ele>
        <time>2024-09-25T11:16:50Z</time>
      </trkpt>
      <trkpt lat="42.37698" lon="2.20301">
        <ele>1632.1</ele>
        <time>2024-09-25T11:16:51Z</time>
      </trkpt>
      <trkpt lat="42.37698" lon="2.20301">
        <ele>1632.1</ele>
        <time>2024-09-25T11:16:52Z</time>
      </trkpt>
      <trkpt lat="42.37698" lon="2.20301">
        <ele>1632</ele>
        <time>2024-09-25T11:16:53Z</time>
      </trkpt>
      <trkpt lat="42.37698" lon="2.20301">
        <ele>1632</ele>
        <time>2024-09-25T11:16:54Z</time>
      </trkpt>
      <trkpt lat="42.37698" lon="2.20302">
        <ele>1632</ele>
        <time>2024-09-25T11:16:55Z</time>
      </trkpt>
      <trkpt lat="42.37698" lon="2.20302">
        <ele>1632.9</ele>
        <time>2024-09-25T11:16:56Z</time>
      </trkpt>
      <trkpt lat="42.37698" lon="2.20302">
        <ele>1632.8</ele>
        <time>2024-09-25T11:16:57Z</time>
      </trkpt>
      <trkpt lat="42.37698" lon="2.20302">
        <ele>1632.8</ele>
        <time>2024-09-25T11:16:58Z</time>
      </trkpt>
      <trkpt lat="42.37698" lon="2.20302">
        <ele>1632.8</ele>
        <time>2024-09-25T11:16:59Z</time>
      </trkpt>
      <trkpt lat="42.37698" lon="2.20302">
        <ele>1632.8</ele>
        <time>2024-09-25T11:17:00Z</time>
      </trkpt>
      <trkpt lat="42.37698" lon="2.20302">
        <ele>1632.8</ele>
        <time>2024-09-25T11:17:01Z</time>
      </trkpt>
      <trkpt lat="42.37698" lon="2.20302">
        <ele>1632.8</ele>
        <time>2024-09-25T11:17:02Z</time>
      </trkpt>
      <trkpt lat="42.37698" lon="2.20302">
        <ele>1632.8</ele>
        <time>2024-09-25T11:17:03Z</time>
      </trkpt>
      <trkpt lat="42.37698" lon="2.20302">
        <ele>1632.8</ele>
        <time>2024-09-25T11:17:04Z</time>
      </trkpt>
      <trkpt lat="42.37698" lon="2.20302">
        <ele>1632.8</ele>
        <time>2024-09-25T11:17:05Z</time>
      </trkpt>
      <trkpt lat="42.37698" lon="2.20302">
        <ele>1632.8</ele>
        <time>2024-09-25T11:17:06Z</time>
      </trkpt>
      <trkpt lat="42.37698" lon="2.20302">
        <ele>1632.8</ele>
        <time>2024-09-25T11:17:07Z</time>
      </trkpt>
      <trkpt lat="42.37698" lon="2.20302">
        <ele>1632.8</ele>
        <time>2024-09-25T11:17:08Z</time>
      </trkpt>
      <trkpt lat="42.37698" lon="2.20302">
        <ele>1632.8</ele>
        <time>2024-09-25T11:17:09Z</time>
      </trkpt>
      <trkpt lat="42.37698" lon="2.20303">
        <ele>1632.8</ele>
        <time>2024-09-25T11:17:10Z</time>
      </trkpt>
      <trkpt lat="42.37698" lon="2.20303">
        <ele>1632.8</ele>
        <time>2024-09-25T11:17:11Z</time>
      </trkpt>
      <trkpt lat="42.37698" lon="2.20303">
        <ele>1632.8</ele>
        <time>2024-09-25T11:17:12Z</time>
      </trkpt>
      <trkpt lat="42.37698" lon="2.20303">
        <ele>1632.7</ele>
        <time>2024-09-25T11:17:13Z</time>
      </trkpt>
      <trkpt lat="42.37698" lon="2.20304">
        <ele>1632.7</ele>
        <time>2024-09-25T11:17:14Z</time>
      </trkpt>
      <trkpt lat="42.37698" lon="2.20304">
        <ele>1632.7</ele>
        <time>2024-09-25T11:17:15Z</time>
      </trkpt>
      <trkpt lat="42.37698" lon="2.20304">
        <ele>1632.7</ele>
        <time>2024-09-25T11:17:16Z</time>
      </trkpt>
      <trkpt lat="42.37698" lon="2.20304">
        <ele>1632.7</ele>
        <time>2024-09-25T11:17:17Z</time>
      </trkpt>
      <trkpt lat="42.37698" lon="2.20303">
        <ele>1632.7</ele>
        <time>2024-09-25T11:17:18Z</time>
      </trkpt>
      <trkpt lat="42.37698" lon="2.20303">
        <ele>1632.7</ele>
        <time>2024-09-25T11:17:19Z</time>
      </trkpt>
      <trkpt lat="42.37698" lon="2.20303">
        <ele>1632.7</ele>
        <time>2024-09-25T11:17:20Z</time>
      </trkpt>
      <trkpt lat="42.37698" lon="2.20303">
        <ele>1632.7</ele>
        <time>2024-09-25T11:17:21Z</time>
      </trkpt>
      <trkpt lat="42.37698" lon="2.20303">
        <ele>1632.7</ele>
        <time>2024-09-25T11:17:22Z</time>
      </trkpt>
      <trkpt lat="42.37698" lon="2.20303">
        <ele>1632.7</ele>
        <time>2024-09-25T11:17:23Z</time>
      </trkpt>
      <trkpt lat="42.37698" lon="2.20303">
        <ele>1632.7</ele>
        <time>2024-09-25T11:17:24Z</time>
      </trkpt>
      <trkpt lat="42.37698" lon="2.20303">
        <ele>1632.7</ele>
        <time>2024-09-25T11:17:25Z</time>
      </trkpt>
      <trkpt lat="42.37698" lon="2.20303">
        <ele>1632.7</ele>
        <time>2024-09-25T11:17:26Z</time>
      </trkpt>
      <trkpt lat="42.37698" lon="2.20303">
        <ele>1632.7</ele>
        <time>2024-09-25T11:17:27Z</time>
      </trkpt>
      <trkpt lat="42.37698" lon="2.20303">
        <ele>1632.6</ele>
        <time>2024-09-25T11:17:28Z</time>
      </trkpt>
      <trkpt lat="42.37698" lon="2.20303">
        <ele>1632.6</ele>
        <time>2024-09-25T11:17:29Z</time>
      </trkpt>
      <trkpt lat="42.37698" lon="2.20303">
        <ele>1632.6</ele>
        <time>2024-09-25T11:17:30Z</time>
      </trkpt>
      <trkpt lat="42.37698" lon="2.20303">
        <ele>1632.6</ele>
        <time>2024-09-25T11:17:31Z</time>
      </trkpt>
      <trkpt lat="42.37698" lon="2.20303">
        <ele>1632.6</ele>
        <time>2024-09-25T11:17:32Z</time>
      </trkpt>
      <trkpt lat="42.37698" lon="2.20303">
        <ele>1632.6</ele>
        <time>2024-09-25T11:17:33Z</time>
      </trkpt>
      <trkpt lat="42.37698" lon="2.20303">
        <ele>1632.6</ele>
        <time>2024-09-25T11:17:34Z</time>
      </trkpt>
      <trkpt lat="42.37698" lon="2.20303">
        <ele>1632.6</ele>
        <time>2024-09-25T11:17:35Z</time>
      </trkpt>
      <trkpt lat="42.37698" lon="2.20303">
        <ele>1632.6</ele>
        <time>2024-09-25T11:17:36Z</time>
      </trkpt>
      <trkpt lat="42.37698" lon="2.20303">
        <ele>1632.6</ele>
        <time>2024-09-25T11:17:37Z</time>
      </trkpt>
      <trkpt lat="42.37698" lon="2.20303">
        <ele>1632.6</ele>
        <time>2024-09-25T11:17:38Z</time>
      </trkpt>
      <trkpt lat="42.37698" lon="2.20303">
        <ele>1632.6</ele>
        <time>2024-09-25T11:17:39Z</time>
      </trkpt>
      <trkpt lat="42.37698" lon="2.20303">
        <ele>1632.6</ele>
        <time>2024-09-25T11:17:40Z</time>
      </trkpt>
      <trkpt lat="42.37698" lon="2.20303">
        <ele>1632.6</ele>
        <time>2024-09-25T11:17:41Z</time>
      </trkpt>
      <trkpt lat="42.37698" lon="2.20303">
        <ele>1632.6</ele>
        <time>2024-09-25T11:17:42Z</time>
      </trkpt>
      <trkpt lat="42.37698" lon="2.20303">
        <ele>1632.5</ele>
        <time>2024-09-25T11:17:43Z</time>
      </trkpt>
      <trkpt lat="42.37698" lon="2.20303">
        <ele>1632.5</ele>
        <time>2024-09-25T11:17:44Z</time>
      </trkpt>
      <trkpt lat="42.37698" lon="2.20303">
        <ele>1632.5</ele>
        <time>2024-09-25T11:17:45Z</time>
      </trkpt>
      <trkpt lat="42.37698" lon="2.20303">
        <ele>1632.5</ele>
        <time>2024-09-25T11:17:46Z</time>
      </trkpt>
      <trkpt lat="42.37698" lon="2.20303">
        <ele>1632.5</ele>
        <time>2024-09-25T11:17:47Z</time>
      </trkpt>
      <trkpt lat="42.37698" lon="2.20303">
        <ele>1632.5</ele>
        <time>2024-09-25T11:17:48Z</time>
      </trkpt>
      <trkpt lat="42.37698" lon="2.20303">
        <ele>1632.5</ele>
        <time>2024-09-25T11:17:49Z</time>
      </trkpt>
      <trkpt lat="42.37698" lon="2.20303">
        <ele>1632.5</ele>
        <time>2024-09-25T11:17:50Z</time>
      </trkpt>
      <trkpt lat="42.37698" lon="2.20303">
        <ele>1632.5</ele>
        <time>2024-09-25T11:17:51Z</time>
      </trkpt>
      <trkpt lat="42.37698" lon="2.20303">
        <ele>1632.5</ele>
        <time>2024-09-25T11:17:52Z</time>
      </trkpt>
      <trkpt lat="42.37698" lon="2.20303">
        <ele>1632.5</ele>
        <time>2024-09-25T11:17:53Z</time>
      </trkpt>
      <trkpt lat="42.37698" lon="2.20303">
        <ele>1632.5</ele>
        <time>2024-09-25T11:17:54Z</time>
      </trkpt>
      <trkpt lat="42.37698" lon="2.20303">
        <ele>1632.5</ele>
        <time>2024-09-25T11:17:55Z</time>
      </trkpt>
      <trkpt lat="42.37698" lon="2.20303">
        <ele>1632.5</ele>
        <time>2024-09-25T11:17:56Z</time>
      </trkpt>
      <trkpt lat="42.37698" lon="2.20303">
        <ele>1632.5</ele>
        <time>2024-09-25T11:17:57Z</time>
      </trkpt>
      <trkpt lat="42.37698" lon="2.20303">
        <ele>1632.4</ele>
        <time>2024-09-25T11:17:58Z</time>
      </trkpt>
      <trkpt lat="42.37698" lon="2.20303">
        <ele>1632.4</ele>
        <time>2024-09-25T11:17:59Z</time>
      </trkpt>
      <trkpt lat="42.37698" lon="2.20303">
        <ele>1632.4</ele>
        <time>2024-09-25T11:18:00Z</time>
      </trkpt>
      <trkpt lat="42.37698" lon="2.20303">
        <ele>1632.4</ele>
        <time>2024-09-25T11:18:01Z</time>
      </trkpt>
      <trkpt lat="42.37698" lon="2.20303">
        <ele>1632.4</ele>
        <time>2024-09-25T11:18:02Z</time>
      </trkpt>
      <trkpt lat="42.37698" lon="2.20303">
        <ele>1632.4</ele>
        <time>2024-09-25T11:18:03Z</time>
      </trkpt>
      <trkpt lat="42.37698" lon="2.20304">
        <ele>1632.4</ele>
        <time>2024-09-25T11:18:04Z</time>
      </trkpt>
      <trkpt lat="42.37698" lon="2.20304">
        <ele>1632.4</ele>
        <time>2024-09-25T11:18:05Z</time>
      </trkpt>
      <trkpt lat="42.37698" lon="2.20304">
        <ele>1632.4</ele>
        <time>2024-09-25T11:18:06Z</time>
      </trkpt>
      <trkpt lat="42.37698" lon="2.20304">
        <ele>1632.4</ele>
        <time>2024-09-25T11:18:07Z</time>
      </trkpt>
      <trkpt lat="42.37698" lon="2.20304">
        <ele>1632.4</ele>
        <time>2024-09-25T11:18:08Z</time>
      </trkpt>
      <trkpt lat="42.37698" lon="2.20304">
        <ele>1632.4</ele>
        <time>2024-09-25T11:18:09Z</time>
      </trkpt>
      <trkpt lat="42.37698" lon="2.20304">
        <ele>1632.4</ele>
        <time>2024-09-25T11:18:10Z</time>
      </trkpt>
      <trkpt lat="42.37698" lon="2.20304">
        <ele>1632.4</ele>
        <time>2024-09-25T11:18:11Z</time>
      </trkpt>
      <trkpt lat="42.37698" lon="2.20303">
        <ele>1632.4</ele>
        <time>2024-09-25T11:18:12Z</time>
      </trkpt>
      <trkpt lat="42.37699" lon="2.20303">
        <ele>1632.3</ele>
        <time>2024-09-25T11:18:13Z</time>
      </trkpt>
      <trkpt lat="42.37699" lon="2.20303">
        <ele>1632.3</ele>
        <time>2024-09-25T11:18:14Z</time>
      </trkpt>
      <trkpt lat="42.37699" lon="2.20303">
        <ele>1632.3</ele>
        <time>2024-09-25T11:18:15Z</time>
      </trkpt>
      <trkpt lat="42.37699" lon="2.20303">
        <ele>1632.3</ele>
        <time>2024-09-25T11:18:16Z</time>
      </trkpt>
      <trkpt lat="42.37699" lon="2.20303">
        <ele>1632.3</ele>
        <time>2024-09-25T11:18:17Z</time>
      </trkpt>
      <trkpt lat="42.37699" lon="2.20303">
        <ele>1632.3</ele>
        <time>2024-09-25T11:18:18Z</time>
      </trkpt>
      <trkpt lat="42.37699" lon="2.20303">
        <ele>1632.3</ele>
        <time>2024-09-25T11:18:19Z</time>
      </trkpt>
      <trkpt lat="42.37699" lon="2.20303">
        <ele>1632.3</ele>
        <time>2024-09-25T11:18:20Z</time>
      </trkpt>
      <trkpt lat="42.37699" lon="2.20303">
        <ele>1632.3</ele>
        <time>2024-09-25T11:18:21Z</time>
      </trkpt>
      <trkpt lat="42.37699" lon="2.20303">
        <ele>1632.3</ele>
        <time>2024-09-25T11:18:22Z</time>
      </trkpt>
      <trkpt lat="42.37699" lon="2.20303">
        <ele>1632.3</ele>
        <time>2024-09-25T11:18:23Z</time>
      </trkpt>
      <trkpt lat="42.37699" lon="2.20303">
        <ele>1632.3</ele>
        <time>2024-09-25T11:18:24Z</time>
      </trkpt>
      <trkpt lat="42.37699" lon="2.20303">
        <ele>1632.3</ele>
        <time>2024-09-25T11:18:25Z</time>
      </trkpt>
      <trkpt lat="42.37699" lon="2.20303">
        <ele>1632.3</ele>
        <time>2024-09-25T11:18:26Z</time>
      </trkpt>
      <trkpt lat="42.37699" lon="2.20303">
        <ele>1632.3</ele>
        <time>2024-09-25T11:18:27Z</time>
      </trkpt>
      <trkpt lat="42.37699" lon="2.20303">
        <ele>1632.3</ele>
        <time>2024-09-25T11:18:28Z</time>
      </trkpt>
      <trkpt lat="42.37699" lon="2.20303">
        <ele>1632.2</ele>
        <time>2024-09-25T11:18:29Z</time>
      </trkpt>
      <trkpt lat="42.37699" lon="2.20303">
        <ele>1632.2</ele>
        <time>2024-09-25T11:18:30Z</time>
      </trkpt>
      <trkpt lat="42.37699" lon="2.20303">
        <ele>1632.2</ele>
        <time>2024-09-25T11:18:31Z</time>
      </trkpt>
      <trkpt lat="42.37699" lon="2.20303">
        <ele>1632.2</ele>
        <time>2024-09-25T11:18:32Z</time>
      </trkpt>
      <trkpt lat="42.37699" lon="2.20303">
        <ele>1632.2</ele>
        <time>2024-09-25T11:18:33Z</time>
      </trkpt>
      <trkpt lat="42.37699" lon="2.20303">
        <ele>1632.2</ele>
        <time>2024-09-25T11:18:34Z</time>
      </trkpt>
      <trkpt lat="42.37699" lon="2.20303">
        <ele>1632.2</ele>
        <time>2024-09-25T11:18:35Z</time>
      </trkpt>
      <trkpt lat="42.37699" lon="2.20303">
        <ele>1632.2</ele>
        <time>2024-09-25T11:18:36Z</time>
      </trkpt>
      <trkpt lat="42.37699" lon="2.20303">
        <ele>1632.2</ele>
        <time>2024-09-25T11:18:37Z</time>
      </trkpt>
      <trkpt lat="42.37699" lon="2.20303">
        <ele>1632.2</ele>
        <time>2024-09-25T11:18:38Z</time>
      </trkpt>
      <trkpt lat="42.37699" lon="2.20303">
        <ele>1632.2</ele>
        <time>2024-09-25T11:18:39Z</time>
      </trkpt>
      <trkpt lat="42.37699" lon="2.20303">
        <ele>1632.2</ele>
        <time>2024-09-25T11:18:40Z</time>
      </trkpt>
      <trkpt lat="42.37699" lon="2.20303">
        <ele>1632.2</ele>
        <time>2024-09-25T11:18:41Z</time>
      </trkpt>
      <trkpt lat="42.37699" lon="2.20303">
        <ele>1632.2</ele>
        <time>2024-09-25T11:18:42Z</time>
      </trkpt>
      <trkpt lat="42.37699" lon="2.20303">
        <ele>1632.2</ele>
        <time>2024-09-25T11:18:43Z</time>
      </trkpt>
      <trkpt lat="42.37699" lon="2.20303">
        <ele>1632.1</ele>
        <time>2024-09-25T11:18:44Z</time>
      </trkpt>
      <trkpt lat="42.37699" lon="2.20303">
        <ele>1632.1</ele>
        <time>2024-09-25T11:18:45Z</time>
      </trkpt>
      <trkpt lat="42.37699" lon="2.20303">
        <ele>1632.1</ele>
        <time>2024-09-25T11:18:46Z</time>
      </trkpt>
      <trkpt lat="42.37698" lon="2.20303">
        <ele>1632.1</ele>
        <time>2024-09-25T11:18:47Z</time>
      </trkpt>
      <trkpt lat="42.37698" lon="2.20303">
        <ele>1632.1</ele>
        <time>2024-09-25T11:18:48Z</time>
      </trkpt>
      <trkpt lat="42.37698" lon="2.20303">
        <ele>1632.1</ele>
        <time>2024-09-25T11:18:49Z</time>
      </trkpt>
      <trkpt lat="42.37698" lon="2.20303">
        <ele>1632.1</ele>
        <time>2024-09-25T11:18:50Z</time>
      </trkpt>
      <trkpt lat="42.37698" lon="2.20303">
        <ele>1632.1</ele>
        <time>2024-09-25T11:18:51Z</time>
      </trkpt>
      <trkpt lat="42.37698" lon="2.20303">
        <ele>1632.1</ele>
        <time>2024-09-25T11:18:52Z</time>
      </trkpt>
      <trkpt lat="42.37698" lon="2.20303">
        <ele>1632.1</ele>
        <time>2024-09-25T11:18:53Z</time>
      </trkpt>
      <trkpt lat="42.37698" lon="2.20303">
        <ele>1632.1</ele>
        <time>2024-09-25T11:18:54Z</time>
      </trkpt>
      <trkpt lat="42.37698" lon="2.20303">
        <ele>1632.1</ele>
        <time>2024-09-25T11:18:55Z</time>
      </trkpt>
      <trkpt lat="42.37698" lon="2.20303">
        <ele>1632.1</ele>
        <time>2024-09-25T11:18:56Z</time>
      </trkpt>
      <trkpt lat="42.37698" lon="2.20303">
        <ele>1632.1</ele>
        <time>2024-09-25T11:18:57Z</time>
      </trkpt>
      <trkpt lat="42.37698" lon="2.20303">
        <ele>1632.1</ele>
        <time>2024-09-25T11:18:58Z</time>
      </trkpt>
      <trkpt lat="42.37698" lon="2.20303">
        <ele>1632</ele>
        <time>2024-09-25T11:18:59Z</time>
      </trkpt>
      <trkpt lat="42.37698" lon="2.20303">
        <ele>1632</ele>
        <time>2024-09-25T11:19:00Z</time>
      </trkpt>
      <trkpt lat="42.37698" lon="2.20303">
        <ele>1632</ele>
        <time>2024-09-25T11:19:01Z</time>
      </trkpt>
      <trkpt lat="42.37698" lon="2.20303">
        <ele>1632</ele>
        <time>2024-09-25T11:19:02Z</time>
      </trkpt>
      <trkpt lat="42.37698" lon="2.20303">
        <ele>1632</ele>
        <time>2024-09-25T11:19:03Z</time>
      </trkpt>
      <trkpt lat="42.37698" lon="2.20303">
        <ele>1632</ele>
        <time>2024-09-25T11:19:04Z</time>
      </trkpt>
      <trkpt lat="42.37698" lon="2.20303">
        <ele>1632</ele>
        <time>2024-09-25T11:19:05Z</time>
      </trkpt>
      <trkpt lat="42.37698" lon="2.20303">
        <ele>1632</ele>
        <time>2024-09-25T11:19:06Z</time>
      </trkpt>
      <trkpt lat="42.37698" lon="2.20303">
        <ele>1632</ele>
        <time>2024-09-25T11:19:07Z</time>
      </trkpt>
      <trkpt lat="42.37698" lon="2.20303">
        <ele>1632</ele>
        <time>2024-09-25T11:19:08Z</time>
      </trkpt>
      <trkpt lat="42.37698" lon="2.20303">
        <ele>1632</ele>
        <time>2024-09-25T11:19:09Z</time>
      </trkpt>
      <trkpt lat="42.37698" lon="2.20303">
        <ele>1632</ele>
        <time>2024-09-25T11:19:10Z</time>
      </trkpt>
      <trkpt lat="42.37698" lon="2.20303">
        <ele>1632</ele>
        <time>2024-09-25T11:19:11Z</time>
      </trkpt>
      <trkpt lat="42.37698" lon="2.20303">
        <ele>1632</ele>
        <time>2024-09-25T11:19:12Z</time>
      </trkpt>
      <trkpt lat="42.37698" lon="2.20303">
        <ele>1632</ele>
        <time>2024-09-25T11:19:13Z</time>
      </trkpt>
      <trkpt lat="42.37698" lon="2.20303">
        <ele>1631.9</ele>
        <time>2024-09-25T11:19:14Z</time>
      </trkpt>
      <trkpt lat="42.37698" lon="2.20303">
        <ele>1631.9</ele>
        <time>2024-09-25T11:19:15Z</time>
      </trkpt>
      <trkpt lat="42.37698" lon="2.20303">
        <ele>1631.9</ele>
        <time>2024-09-25T11:19:16Z</time>
      </trkpt>
      <trkpt lat="42.37698" lon="2.20303">
        <ele>1631.9</ele>
        <time>2024-09-25T11:19:17Z</time>
      </trkpt>
      <trkpt lat="42.37698" lon="2.20303">
        <ele>1631.9</ele>
        <time>2024-09-25T11:19:18Z</time>
      </trkpt>
      <trkpt lat="42.37698" lon="2.20303">
        <ele>1631.9</ele>
        <time>2024-09-25T11:19:19Z</time>
      </trkpt>
      <trkpt lat="42.37698" lon="2.20303">
        <ele>1631.9</ele>
        <time>2024-09-25T11:19:20Z</time>
      </trkpt>
      <trkpt lat="42.37698" lon="2.20303">
        <ele>1631.9</ele>
        <time>2024-09-25T11:19:21Z</time>
      </trkpt>
      <trkpt lat="42.37698" lon="2.20303">
        <ele>1631.9</ele>
        <time>2024-09-25T11:19:22Z</time>
      </trkpt>
      <trkpt lat="42.37698" lon="2.20303">
        <ele>1631.9</ele>
        <time>2024-09-25T11:19:23Z</time>
      </trkpt>
      <trkpt lat="42.37698" lon="2.20303">
        <ele>1631.9</ele>
        <time>2024-09-25T11:19:24Z</time>
      </trkpt>
      <trkpt lat="42.37698" lon="2.20303">
        <ele>1631.9</ele>
        <time>2024-09-25T11:19:25Z</time>
      </trkpt>
      <trkpt lat="42.37698" lon="2.20303">
        <ele>1631.9</ele>
        <time>2024-09-25T11:19:26Z</time>
      </trkpt>
      <trkpt lat="42.37699" lon="2.20303">
        <ele>1631.9</ele>
        <time>2024-09-25T11:19:27Z</time>
      </trkpt>
      <trkpt lat="42.37699" lon="2.20303">
        <ele>1631.9</ele>
        <time>2024-09-25T11:19:28Z</time>
      </trkpt>
      <trkpt lat="42.37699" lon="2.20303">
        <ele>1631.9</ele>
        <time>2024-09-25T11:19:29Z</time>
      </trkpt>
      <trkpt lat="42.37699" lon="2.20303">
        <ele>1631.8</ele>
        <time>2024-09-25T11:19:30Z</time>
      </trkpt>
      <trkpt lat="42.37699" lon="2.20303">
        <ele>1631.8</ele>
        <time>2024-09-25T11:19:31Z</time>
      </trkpt>
      <trkpt lat="42.37699" lon="2.20303">
        <ele>1631.8</ele>
        <time>2024-09-25T11:19:32Z</time>
      </trkpt>
      <trkpt lat="42.37699" lon="2.20303">
        <ele>1631.8</ele>
        <time>2024-09-25T11:19:33Z</time>
      </trkpt>
      <trkpt lat="42.37699" lon="2.20303">
        <ele>1631.8</ele>
        <time>2024-09-25T11:19:34Z</time>
      </trkpt>
      <trkpt lat="42.37699" lon="2.20303">
        <ele>1631.8</ele>
        <time>2024-09-25T11:19:35Z</time>
      </trkpt>
      <trkpt lat="42.37699" lon="2.20303">
        <ele>1631.8</ele>
        <time>2024-09-25T11:19:36Z</time>
      </trkpt>
      <trkpt lat="42.37699" lon="2.20303">
        <ele>1631.8</ele>
        <time>2024-09-25T11:19:37Z</time>
      </trkpt>
      <trkpt lat="42.37699" lon="2.20303">
        <ele>1631.8</ele>
        <time>2024-09-25T11:19:38Z</time>
      </trkpt>
      <trkpt lat="42.37699" lon="2.20303">
        <ele>1631.8</ele>
        <time>2024-09-25T11:19:39Z</time>
      </trkpt>
      <trkpt lat="42.37699" lon="2.20303">
        <ele>1631.8</ele>
        <time>2024-09-25T11:19:40Z</time>
      </trkpt>
      <trkpt lat="42.37699" lon="2.20303">
        <ele>1631.8</ele>
        <time>2024-09-25T11:19:41Z</time>
      </trkpt>
      <trkpt lat="42.37699" lon="2.20303">
        <ele>1631.8</ele>
        <time>2024-09-25T11:19:42Z</time>
      </trkpt>
      <trkpt lat="42.37699" lon="2.20303">
        <ele>1631.8</ele>
        <time>2024-09-25T11:19:43Z</time>
      </trkpt>
      <trkpt lat="42.37699" lon="2.20303">
        <ele>1631.8</ele>
        <time>2024-09-25T11:19:44Z</time>
      </trkpt>
      <trkpt lat="42.37699" lon="2.20303">
        <ele>1631.7</ele>
        <time>2024-09-25T11:19:45Z</time>
      </trkpt>
      <trkpt lat="42.37699" lon="2.20303">
        <ele>1631.7</ele>
        <time>2024-09-25T11:19:46Z</time>
      </trkpt>
      <trkpt lat="42.37699" lon="2.20303">
        <ele>1631.7</ele>
        <time>2024-09-25T11:19:47Z</time>
      </trkpt>
      <trkpt lat="42.37699" lon="2.20303">
        <ele>1631.7</ele>
        <time>2024-09-25T11:19:48Z</time>
      </trkpt>
      <trkpt lat="42.37699" lon="2.20303">
        <ele>1631.7</ele>
        <time>2024-09-25T11:19:49Z</time>
      </trkpt>
      <trkpt lat="42.37699" lon="2.20303">
        <ele>1631.7</ele>
        <time>2024-09-25T11:19:50Z</time>
      </trkpt>
      <trkpt lat="42.37699" lon="2.20303">
        <ele>1631.7</ele>
        <time>2024-09-25T11:19:51Z</time>
      </trkpt>
      <trkpt lat="42.37699" lon="2.20303">
        <ele>1631.7</ele>
        <time>2024-09-25T11:19:52Z</time>
      </trkpt>
      <trkpt lat="42.37699" lon="2.20303">
        <ele>1631.7</ele>
        <time>2024-09-25T11:19:53Z</time>
      </trkpt>
      <trkpt lat="42.37699" lon="2.20303">
        <ele>1631.7</ele>
        <time>2024-09-25T11:19:54Z</time>
      </trkpt>
      <trkpt lat="42.37698" lon="2.20303">
        <ele>1631.7</ele>
        <time>2024-09-25T11:19:55Z</time>
      </trkpt>
      <trkpt lat="42.37698" lon="2.20303">
        <ele>1631.7</ele>
        <time>2024-09-25T11:19:56Z</time>
      </trkpt>
      <trkpt lat="42.37698" lon="2.20303">
        <ele>1631.7</ele>
        <time>2024-09-25T11:19:57Z</time>
      </trkpt>
      <trkpt lat="42.37698" lon="2.20303">
        <ele>1631.7</ele>
        <time>2024-09-25T11:19:58Z</time>
      </trkpt>
      <trkpt lat="42.37698" lon="2.20303">
        <ele>1631.7</ele>
        <time>2024-09-25T11:19:59Z</time>
      </trkpt>
      <trkpt lat="42.37698" lon="2.20303">
        <ele>1631.6</ele>
        <time>2024-09-25T11:20:00Z</time>
      </trkpt>
      <trkpt lat="42.37698" lon="2.20303">
        <ele>1631.6</ele>
        <time>2024-09-25T11:20:01Z</time>
      </trkpt>
      <trkpt lat="42.37698" lon="2.20303">
        <ele>1631.6</ele>
        <time>2024-09-25T11:20:02Z</time>
      </trkpt>
      <trkpt lat="42.37698" lon="2.20303">
        <ele>1631.6</ele>
        <time>2024-09-25T11:20:03Z</time>
      </trkpt>
      <trkpt lat="42.37698" lon="2.20303">
        <ele>1631.6</ele>
        <time>2024-09-25T11:20:04Z</time>
      </trkpt>
      <trkpt lat="42.37698" lon="2.20303">
        <ele>1631.6</ele>
        <time>2024-09-25T11:20:05Z</time>
      </trkpt>
      <trkpt lat="42.37698" lon="2.20303">
        <ele>1631.6</ele>
        <time>2024-09-25T11:20:06Z</time>
      </trkpt>
      <trkpt lat="42.37698" lon="2.20303">
        <ele>1631.6</ele>
        <time>2024-09-25T11:20:07Z</time>
      </trkpt>
      <trkpt lat="42.37698" lon="2.20303">
        <ele>1631.6</ele>
        <time>2024-09-25T11:20:08Z</time>
      </trkpt>
      <trkpt lat="42.37698" lon="2.20303">
        <ele>1631.6</ele>
        <time>2024-09-25T11:20:09Z</time>
      </trkpt>
      <trkpt lat="42.37698" lon="2.20303">
        <ele>1631.6</ele>
        <time>2024-09-25T11:20:10Z</time>
      </trkpt>
      <trkpt lat="42.37698" lon="2.20303">
        <ele>1631.6</ele>
        <time>2024-09-25T11:20:11Z</time>
      </trkpt>
      <trkpt lat="42.37698" lon="2.20303">
        <ele>1631.6</ele>
        <time>2024-09-25T11:20:12Z</time>
      </trkpt>
      <trkpt lat="42.37698" lon="2.20303">
        <ele>1631.6</ele>
        <time>2024-09-25T11:20:13Z</time>
      </trkpt>
      <trkpt lat="42.37698" lon="2.20303">
        <ele>1631.6</ele>
        <time>2024-09-25T11:20:14Z</time>
      </trkpt>
      <trkpt lat="42.37698" lon="2.20303">
        <ele>1631.5</ele>
        <time>2024-09-25T11:20:15Z</time>
      </trkpt>
      <trkpt lat="42.37698" lon="2.20303">
        <ele>1631.5</ele>
        <time>2024-09-25T11:20:16Z</time>
      </trkpt>
      <trkpt lat="42.37698" lon="2.20303">
        <ele>1631.5</ele>
        <time>2024-09-25T11:20:17Z</time>
      </trkpt>
      <trkpt lat="42.37698" lon="2.20303">
        <ele>1631.5</ele>
        <time>2024-09-25T11:20:18Z</time>
      </trkpt>
      <trkpt lat="42.37698" lon="2.20303">
        <ele>1631.5</ele>
        <time>2024-09-25T11:20:19Z</time>
      </trkpt>
      <trkpt lat="42.37698" lon="2.20303">
        <ele>1631.5</ele>
        <time>2024-09-25T11:20:20Z</time>
      </trkpt>
      <trkpt lat="42.37698" lon="2.20303">
        <ele>1631.5</ele>
        <time>2024-09-25T11:20:21Z</time>
      </trkpt>
      <trkpt lat="42.37698" lon="2.20303">
        <ele>1631.5</ele>
        <time>2024-09-25T11:20:22Z</time>
      </trkpt>
      <trkpt lat="42.37698" lon="2.20303">
        <ele>1631.5</ele>
        <time>2024-09-25T11:20:23Z</time>
      </trkpt>
      <trkpt lat="42.37698" lon="2.20303">
        <ele>1631.5</ele>
        <time>2024-09-25T11:20:24Z</time>
      </trkpt>
      <trkpt lat="42.37698" lon="2.20302">
        <ele>1631.5</ele>
        <time>2024-09-25T11:20:25Z</time>
      </trkpt>
      <trkpt lat="42.37698" lon="2.20302">
        <ele>1631.5</ele>
        <time>2024-09-25T11:20:26Z</time>
      </trkpt>
      <trkpt lat="42.37697" lon="2.20302">
        <ele>1631.5</ele>
        <time>2024-09-25T11:20:27Z</time>
      </trkpt>
      <trkpt lat="42.37697" lon="2.20302">
        <ele>1631.5</ele>
        <time>2024-09-25T11:20:28Z</time>
      </trkpt>
      <trkpt lat="42.37697" lon="2.20302">
        <ele>1631.5</ele>
        <time>2024-09-25T11:20:29Z</time>
      </trkpt>
      <trkpt lat="42.37697" lon="2.20302">
        <ele>1631.4</ele>
        <time>2024-09-25T11:20:30Z</time>
      </trkpt>
      <trkpt lat="42.37697" lon="2.20302">
        <ele>1631.4</ele>
        <time>2024-09-25T11:20:31Z</time>
      </trkpt>
      <trkpt lat="42.37697" lon="2.20302">
        <ele>1631.4</ele>
        <time>2024-09-25T11:20:32Z</time>
      </trkpt>
      <trkpt lat="42.37697" lon="2.20302">
        <ele>1631.4</ele>
        <time>2024-09-25T11:20:33Z</time>
      </trkpt>
      <trkpt lat="42.37697" lon="2.20302">
        <ele>1631.4</ele>
        <time>2024-09-25T11:20:34Z</time>
      </trkpt>
      <trkpt lat="42.37697" lon="2.20302">
        <ele>1631.4</ele>
        <time>2024-09-25T11:20:35Z</time>
      </trkpt>
      <trkpt lat="42.37697" lon="2.20302">
        <ele>1631.4</ele>
        <time>2024-09-25T11:20:36Z</time>
      </trkpt>
      <trkpt lat="42.37697" lon="2.20302">
        <ele>1631.4</ele>
        <time>2024-09-25T11:20:37Z</time>
      </trkpt>
      <trkpt lat="42.37697" lon="2.20302">
        <ele>1631.4</ele>
        <time>2024-09-25T11:20:38Z</time>
      </trkpt>
      <trkpt lat="42.37697" lon="2.20302">
        <ele>1631.4</ele>
        <time>2024-09-25T11:20:39Z</time>
      </trkpt>
      <trkpt lat="42.37697" lon="2.20303">
        <ele>1631.4</ele>
        <time>2024-09-25T11:20:40Z</time>
      </trkpt>
      <trkpt lat="42.37697" lon="2.20303">
        <ele>1631.4</ele>
        <time>2024-09-25T11:20:41Z</time>
      </trkpt>
      <trkpt lat="42.37697" lon="2.20303">
        <ele>1631.4</ele>
        <time>2024-09-25T11:20:42Z</time>
      </trkpt>
      <trkpt lat="42.37697" lon="2.20303">
        <ele>1631.4</ele>
        <time>2024-09-25T11:20:43Z</time>
      </trkpt>
      <trkpt lat="42.37697" lon="2.20303">
        <ele>1631.4</ele>
        <time>2024-09-25T11:20:44Z</time>
      </trkpt>
      <trkpt lat="42.37697" lon="2.20303">
        <ele>1631.4</ele>
        <time>2024-09-25T11:20:45Z</time>
      </trkpt>
      <trkpt lat="42.37697" lon="2.20302">
        <ele>1631.3</ele>
        <time>2024-09-25T11:20:46Z</time>
      </trkpt>
      <trkpt lat="42.37697" lon="2.20302">
        <ele>1631.3</ele>
        <time>2024-09-25T11:20:47Z</time>
      </trkpt>
      <trkpt lat="42.37697" lon="2.20302">
        <ele>1631.3</ele>
        <time>2024-09-25T11:20:48Z</time>
      </trkpt>
      <trkpt lat="42.37697" lon="2.20302">
        <ele>1631.3</ele>
        <time>2024-09-25T11:20:49Z</time>
      </trkpt>
      <trkpt lat="42.37697" lon="2.20302">
        <ele>1631.3</ele>
        <time>2024-09-25T11:20:50Z</time>
      </trkpt>
      <trkpt lat="42.37697" lon="2.20302">
        <ele>1631.3</ele>
        <time>2024-09-25T11:20:51Z</time>
      </trkpt>
      <trkpt lat="42.37697" lon="2.20302">
        <ele>1631.3</ele>
        <time>2024-09-25T11:20:52Z</time>
      </trkpt>
      <trkpt lat="42.37697" lon="2.20302">
        <ele>1631.3</ele>
        <time>2024-09-25T11:20:53Z</time>
      </trkpt>
      <trkpt lat="42.37697" lon="2.20302">
        <ele>1631.3</ele>
        <time>2024-09-25T11:20:54Z</time>
      </trkpt>
      <trkpt lat="42.37697" lon="2.20302">
        <ele>1631.3</ele>
        <time>2024-09-25T11:20:55Z</time>
      </trkpt>
      <trkpt lat="42.37697" lon="2.20302">
        <ele>1631.3</ele>
        <time>2024-09-25T11:20:56Z</time>
      </trkpt>
      <trkpt lat="42.37697" lon="2.20302">
        <ele>1631.3</ele>
        <time>2024-09-25T11:20:57Z</time>
      </trkpt>
      <trkpt lat="42.37697" lon="2.20302">
        <ele>1631.3</ele>
        <time>2024-09-25T11:20:58Z</time>
      </trkpt>
      <trkpt lat="42.37697" lon="2.20302">
        <ele>1631.3</ele>
        <time>2024-09-25T11:20:59Z</time>
      </trkpt>
      <trkpt lat="42.37697" lon="2.20302">
        <ele>1631.3</ele>
        <time>2024-09-25T11:21:00Z</time>
      </trkpt>
      <trkpt lat="42.37697" lon="2.20302">
        <ele>1631.2</ele>
        <time>2024-09-25T11:21:01Z</time>
      </trkpt>
      <trkpt lat="42.37697" lon="2.20302">
        <ele>1631.2</ele>
        <time>2024-09-25T11:21:02Z</time>
      </trkpt>
      <trkpt lat="42.37697" lon="2.20302">
        <ele>1631.2</ele>
        <time>2024-09-25T11:21:03Z</time>
      </trkpt>
      <trkpt lat="42.37697" lon="2.20302">
        <ele>1631.2</ele>
        <time>2024-09-25T11:21:04Z</time>
      </trkpt>
      <trkpt lat="42.37697" lon="2.20302">
        <ele>1631.2</ele>
        <time>2024-09-25T11:21:05Z</time>
      </trkpt>
      <trkpt lat="42.37697" lon="2.20302">
        <ele>1631.2</ele>
        <time>2024-09-25T11:21:06Z</time>
      </trkpt>
      <trkpt lat="42.37697" lon="2.20302">
        <ele>1631.2</ele>
        <time>2024-09-25T11:21:07Z</time>
      </trkpt>
      <trkpt lat="42.37697" lon="2.20302">
        <ele>1631.2</ele>
        <time>2024-09-25T11:21:08Z</time>
      </trkpt>
      <trkpt lat="42.37697" lon="2.20302">
        <ele>1631.2</ele>
        <time>2024-09-25T11:21:09Z</time>
      </trkpt>
      <trkpt lat="42.37697" lon="2.20302">
        <ele>1631.2</ele>
        <time>2024-09-25T11:21:10Z</time>
      </trkpt>
      <trkpt lat="42.37697" lon="2.20302">
        <ele>1631.2</ele>
        <time>2024-09-25T11:21:11Z</time>
      </trkpt>
      <trkpt lat="42.37697" lon="2.20302">
        <ele>1631.2</ele>
        <time>2024-09-25T11:21:12Z</time>
      </trkpt>
      <trkpt lat="42.37697" lon="2.20302">
        <ele>1631.2</ele>
        <time>2024-09-25T11:21:13Z</time>
      </trkpt>
      <trkpt lat="42.37697" lon="2.20302">
        <ele>1631.2</ele>
        <time>2024-09-25T11:21:14Z</time>
      </trkpt>
      <trkpt lat="42.37697" lon="2.20302">
        <ele>1631.2</ele>
        <time>2024-09-25T11:21:15Z</time>
      </trkpt>
      <trkpt lat="42.37697" lon="2.20302">
        <ele>1631.1</ele>
        <time>2024-09-25T11:21:16Z</time>
      </trkpt>
      <trkpt lat="42.37697" lon="2.20302">
        <ele>1631.1</ele>
        <time>2024-09-25T11:21:17Z</time>
      </trkpt>
      <trkpt lat="42.37697" lon="2.20302">
        <ele>1631.1</ele>
        <time>2024-09-25T11:21:18Z</time>
      </trkpt>
      <trkpt lat="42.37697" lon="2.20302">
        <ele>1631.1</ele>
        <time>2024-09-25T11:21:19Z</time>
      </trkpt>
      <trkpt lat="42.37697" lon="2.20302">
        <ele>1631.1</ele>
        <time>2024-09-25T11:21:20Z</time>
      </trkpt>
      <trkpt lat="42.37697" lon="2.20302">
        <ele>1631.1</ele>
        <time>2024-09-25T11:21:21Z</time>
      </trkpt>
      <trkpt lat="42.37697" lon="2.20302">
        <ele>1631.1</ele>
        <time>2024-09-25T11:21:22Z</time>
      </trkpt>
      <trkpt lat="42.37697" lon="2.20302">
        <ele>1631.1</ele>
        <time>2024-09-25T11:21:23Z</time>
      </trkpt>
      <trkpt lat="42.37697" lon="2.20302">
        <ele>1631.1</ele>
        <time>2024-09-25T11:21:24Z</time>
      </trkpt>
      <trkpt lat="42.37697" lon="2.20302">
        <ele>1631.1</ele>
        <time>2024-09-25T11:21:25Z</time>
      </trkpt>
      <trkpt lat="42.37697" lon="2.20302">
        <ele>1631.1</ele>
        <time>2024-09-25T11:21:26Z</time>
      </trkpt>
      <trkpt lat="42.37697" lon="2.20302">
        <ele>1631.1</ele>
        <time>2024-09-25T11:21:27Z</time>
      </trkpt>
      <trkpt lat="42.37697" lon="2.20302">
        <ele>1631.1</ele>
        <time>2024-09-25T11:21:28Z</time>
      </trkpt>
      <trkpt lat="42.37697" lon="2.20302">
        <ele>1631.1</ele>
        <time>2024-09-25T11:21:29Z</time>
      </trkpt>
      <trkpt lat="42.37697" lon="2.20303">
        <ele>1631.1</ele>
        <time>2024-09-25T11:21:30Z</time>
      </trkpt>
      <trkpt lat="42.37697" lon="2.20303">
        <ele>1631</ele>
        <time>2024-09-25T11:21:31Z</time>
      </trkpt>
      <trkpt lat="42.37697" lon="2.20303">
        <ele>1631</ele>
        <time>2024-09-25T11:21:32Z</time>
      </trkpt>
      <trkpt lat="42.37697" lon="2.20303">
        <ele>1631</ele>
        <time>2024-09-25T11:21:33Z</time>
      </trkpt>
      <trkpt lat="42.37697" lon="2.20303">
        <ele>1631</ele>
        <time>2024-09-25T11:21:34Z</time>
      </trkpt>
      <trkpt lat="42.37697" lon="2.20303">
        <ele>1631</ele>
        <time>2024-09-25T11:21:35Z</time>
      </trkpt>
      <trkpt lat="42.37697" lon="2.20303">
        <ele>1631</ele>
        <time>2024-09-25T11:21:36Z</time>
      </trkpt>
      <trkpt lat="42.37697" lon="2.20303">
        <ele>1631</ele>
        <time>2024-09-25T11:21:37Z</time>
      </trkpt>
      <trkpt lat="42.37697" lon="2.20303">
        <ele>1631</ele>
        <time>2024-09-25T11:21:38Z</time>
      </trkpt>
      <trkpt lat="42.37697" lon="2.20303">
        <ele>1631</ele>
        <time>2024-09-25T11:21:39Z</time>
      </trkpt>
      <trkpt lat="42.37697" lon="2.20303">
        <ele>1631</ele>
        <time>2024-09-25T11:21:40Z</time>
      </trkpt>
      <trkpt lat="42.37697" lon="2.20303">
        <ele>1631</ele>
        <time>2024-09-25T11:21:41Z</time>
      </trkpt>
      <trkpt lat="42.37697" lon="2.20303">
        <ele>1631</ele>
        <time>2024-09-25T11:21:42Z</time>
      </trkpt>
      <trkpt lat="42.37697" lon="2.20303">
        <ele>1631</ele>
        <time>2024-09-25T11:21:43Z</time>
      </trkpt>
      <trkpt lat="42.37697" lon="2.20303">
        <ele>1631</ele>
        <time>2024-09-25T11:21:44Z</time>
      </trkpt>
      <trkpt lat="42.37697" lon="2.20303">
        <ele>1631</ele>
        <time>2024-09-25T11:21:45Z</time>
      </trkpt>
      <trkpt lat="42.37697" lon="2.20303">
        <ele>1630.9</ele>
        <time>2024-09-25T11:21:46Z</time>
      </trkpt>
      <trkpt lat="42.37697" lon="2.20303">
        <ele>1630.9</ele>
        <time>2024-09-25T11:21:47Z</time>
      </trkpt>
      <trkpt lat="42.37697" lon="2.20303">
        <ele>1630.9</ele>
        <time>2024-09-25T11:21:48Z</time>
      </trkpt>
      <trkpt lat="42.37697" lon="2.20303">
        <ele>1630.9</ele>
        <time>2024-09-25T11:21:49Z</time>
      </trkpt>
      <trkpt lat="42.37697" lon="2.20303">
        <ele>1630.9</ele>
        <time>2024-09-25T11:21:50Z</time>
      </trkpt>
      <trkpt lat="42.37697" lon="2.20303">
        <ele>1630.9</ele>
        <time>2024-09-25T11:21:51Z</time>
      </trkpt>
      <trkpt lat="42.37697" lon="2.20303">
        <ele>1630.9</ele>
        <time>2024-09-25T11:21:52Z</time>
      </trkpt>
      <trkpt lat="42.37697" lon="2.20303">
        <ele>1630.9</ele>
        <time>2024-09-25T11:21:53Z</time>
      </trkpt>
      <trkpt lat="42.37697" lon="2.20303">
        <ele>1630.9</ele>
        <time>2024-09-25T11:21:54Z</time>
      </trkpt>
      <trkpt lat="42.37697" lon="2.20303">
        <ele>1630.9</ele>
        <time>2024-09-25T11:21:55Z</time>
      </trkpt>
      <trkpt lat="42.37697" lon="2.20303">
        <ele>1630.9</ele>
        <time>2024-09-25T11:21:56Z</time>
      </trkpt>
      <trkpt lat="42.37697" lon="2.20303">
        <ele>1630.9</ele>
        <time>2024-09-25T11:21:57Z</time>
      </trkpt>
      <trkpt lat="42.37697" lon="2.20303">
        <ele>1630.9</ele>
        <time>2024-09-25T11:21:58Z</time>
      </trkpt>
      <trkpt lat="42.37697" lon="2.20303">
        <ele>1630.9</ele>
        <time>2024-09-25T11:21:59Z</time>
      </trkpt>
      <trkpt lat="42.37697" lon="2.20303">
        <ele>1630.9</ele>
        <time>2024-09-25T11:22:00Z</time>
      </trkpt>
      <trkpt lat="42.37697" lon="2.20303">
        <ele>1630.9</ele>
        <time>2024-09-25T11:22:01Z</time>
      </trkpt>
      <trkpt lat="42.37697" lon="2.20303">
        <ele>1630.8</ele>
        <time>2024-09-25T11:22:02Z</time>
      </trkpt>
      <trkpt lat="42.37697" lon="2.20303">
        <ele>1630.8</ele>
        <time>2024-09-25T11:22:03Z</time>
      </trkpt>
      <trkpt lat="42.37697" lon="2.20303">
        <ele>1630.8</ele>
        <time>2024-09-25T11:22:04Z</time>
      </trkpt>
      <trkpt lat="42.37697" lon="2.20303">
        <ele>1630.8</ele>
        <time>2024-09-25T11:22:05Z</time>
      </trkpt>
      <trkpt lat="42.37697" lon="2.20303">
        <ele>1630.8</ele>
        <time>2024-09-25T11:22:06Z</time>
      </trkpt>
      <trkpt lat="42.37697" lon="2.20303">
        <ele>1630.8</ele>
        <time>2024-09-25T11:22:07Z</time>
      </trkpt>
      <trkpt lat="42.37697" lon="2.20303">
        <ele>1630.8</ele>
        <time>2024-09-25T11:22:08Z</time>
      </trkpt>
      <trkpt lat="42.37697" lon="2.20303">
        <ele>1630.8</ele>
        <time>2024-09-25T11:22:09Z</time>
      </trkpt>
      <trkpt lat="42.37697" lon="2.20303">
        <ele>1630.8</ele>
        <time>2024-09-25T11:22:10Z</time>
      </trkpt>
      <trkpt lat="42.37697" lon="2.20303">
        <ele>1630.8</ele>
        <time>2024-09-25T11:22:11Z</time>
      </trkpt>
      <trkpt lat="42.37697" lon="2.20303">
        <ele>1630.8</ele>
        <time>2024-09-25T11:22:12Z</time>
      </trkpt>
      <trkpt lat="42.37697" lon="2.20303">
        <ele>1630.8</ele>
        <time>2024-09-25T11:22:13Z</time>
      </trkpt>
      <trkpt lat="42.37697" lon="2.20303">
        <ele>1630.8</ele>
        <time>2024-09-25T11:22:14Z</time>
      </trkpt>
      <trkpt lat="42.37697" lon="2.20303">
        <ele>1630.8</ele>
        <time>2024-09-25T11:22:15Z</time>
      </trkpt>
      <trkpt lat="42.37697" lon="2.20303">
        <ele>1630.8</ele>
        <time>2024-09-25T11:22:16Z</time>
      </trkpt>
      <trkpt lat="42.37697" lon="2.20303">
        <ele>1630.7</ele>
        <time>2024-09-25T11:22:17Z</time>
      </trkpt>
      <trkpt lat="42.37697" lon="2.20303">
        <ele>1630.7</ele>
        <time>2024-09-25T11:22:18Z</time>
      </trkpt>
      <trkpt lat="42.37697" lon="2.20303">
        <ele>1630.7</ele>
        <time>2024-09-25T11:22:19Z</time>
      </trkpt>
      <trkpt lat="42.37697" lon="2.20303">
        <ele>1630.7</ele>
        <time>2024-09-25T11:22:20Z</time>
      </trkpt>
      <trkpt lat="42.37697" lon="2.20303">
        <ele>1630.7</ele>
        <time>2024-09-25T11:22:21Z</time>
      </trkpt>
      <trkpt lat="42.37697" lon="2.20303">
        <ele>1630.7</ele>
        <time>2024-09-25T11:22:22Z</time>
      </trkpt>
      <trkpt lat="42.37697" lon="2.20303">
        <ele>1630.7</ele>
        <time>2024-09-25T11:22:23Z</time>
      </trkpt>
      <trkpt lat="42.37697" lon="2.20303">
        <ele>1630.7</ele>
        <time>2024-09-25T11:22:24Z</time>
      </trkpt>
      <trkpt lat="42.37697" lon="2.20303">
        <ele>1630.7</ele>
        <time>2024-09-25T11:22:25Z</time>
      </trkpt>
      <trkpt lat="42.37697" lon="2.20303">
        <ele>1630.7</ele>
        <time>2024-09-25T11:22:26Z</time>
      </trkpt>
      <trkpt lat="42.37697" lon="2.20303">
        <ele>1630.7</ele>
        <time>2024-09-25T11:22:27Z</time>
      </trkpt>
      <trkpt lat="42.37697" lon="2.20303">
        <ele>1630.7</ele>
        <time>2024-09-25T11:22:28Z</time>
      </trkpt>
      <trkpt lat="42.37697" lon="2.20303">
        <ele>1630.7</ele>
        <time>2024-09-25T11:22:29Z</time>
      </trkpt>
      <trkpt lat="42.37697" lon="2.20303">
        <ele>1630.7</ele>
        <time>2024-09-25T11:22:30Z</time>
      </trkpt>
      <trkpt lat="42.37697" lon="2.20303">
        <ele>1630.7</ele>
        <time>2024-09-25T11:22:31Z</time>
      </trkpt>
      <trkpt lat="42.37697" lon="2.20303">
        <ele>1630.6</ele>
        <time>2024-09-25T11:22:32Z</time>
      </trkpt>
      <trkpt lat="42.37697" lon="2.20303">
        <ele>1630.6</ele>
        <time>2024-09-25T11:22:33Z</time>
      </trkpt>
      <trkpt lat="42.37697" lon="2.20303">
        <ele>1630.6</ele>
        <time>2024-09-25T11:22:34Z</time>
      </trkpt>
      <trkpt lat="42.37697" lon="2.20303">
        <ele>1630.6</ele>
        <time>2024-09-25T11:22:35Z</time>
      </trkpt>
      <trkpt lat="42.37697" lon="2.20303">
        <ele>1630.6</ele>
        <time>2024-09-25T11:22:36Z</time>
      </trkpt>
      <trkpt lat="42.37697" lon="2.20303">
        <ele>1630.6</ele>
        <time>2024-09-25T11:22:37Z</time>
      </trkpt>
      <trkpt lat="42.37697" lon="2.20303">
        <ele>1630.6</ele>
        <time>2024-09-25T11:22:38Z</time>
      </trkpt>
      <trkpt lat="42.37697" lon="2.20303">
        <ele>1630.6</ele>
        <time>2024-09-25T11:22:39Z</time>
      </trkpt>
      <trkpt lat="42.37697" lon="2.20303">
        <ele>1630.6</ele>
        <time>2024-09-25T11:22:40Z</time>
      </trkpt>
      <trkpt lat="42.37697" lon="2.20303">
        <ele>1630.6</ele>
        <time>2024-09-25T11:22:41Z</time>
      </trkpt>
      <trkpt lat="42.37697" lon="2.20303">
        <ele>1630.6</ele>
        <time>2024-09-25T11:22:42Z</time>
      </trkpt>
      <trkpt lat="42.37697" lon="2.20303">
        <ele>1630.6</ele>
        <time>2024-09-25T11:22:43Z</time>
      </trkpt>
      <trkpt lat="42.37697" lon="2.20303">
        <ele>1630.6</ele>
        <time>2024-09-25T11:22:44Z</time>
      </trkpt>
      <trkpt lat="42.37697" lon="2.20303">
        <ele>1630.6</ele>
        <time>2024-09-25T11:22:45Z</time>
      </trkpt>
      <trkpt lat="42.37697" lon="2.20303">
        <ele>1630.6</ele>
        <time>2024-09-25T11:22:46Z</time>
      </trkpt>
      <trkpt lat="42.37697" lon="2.20303">
        <ele>1630.5</ele>
        <time>2024-09-25T11:22:47Z</time>
      </trkpt>
      <trkpt lat="42.37697" lon="2.20303">
        <ele>1630.5</ele>
        <time>2024-09-25T11:22:48Z</time>
      </trkpt>
      <trkpt lat="42.37697" lon="2.20303">
        <ele>1630.5</ele>
        <time>2024-09-25T11:22:49Z</time>
      </trkpt>
      <trkpt lat="42.37697" lon="2.20303">
        <ele>1630.5</ele>
        <time>2024-09-25T11:22:50Z</time>
      </trkpt>
      <trkpt lat="42.37697" lon="2.20303">
        <ele>1630.5</ele>
        <time>2024-09-25T11:22:51Z</time>
      </trkpt>
      <trkpt lat="42.37697" lon="2.20303">
        <ele>1630.5</ele>
        <time>2024-09-25T11:22:52Z</time>
      </trkpt>
      <trkpt lat="42.37697" lon="2.20303">
        <ele>1630.5</ele>
        <time>2024-09-25T11:22:53Z</time>
      </trkpt>
      <trkpt lat="42.37697" lon="2.20303">
        <ele>1630.5</ele>
        <time>2024-09-25T11:22:54Z</time>
      </trkpt>
      <trkpt lat="42.37697" lon="2.20303">
        <ele>1630.5</ele>
        <time>2024-09-25T11:22:55Z</time>
      </trkpt>
      <trkpt lat="42.37697" lon="2.20303">
        <ele>1630.5</ele>
        <time>2024-09-25T11:22:56Z</time>
      </trkpt>
      <trkpt lat="42.37697" lon="2.20303">
        <ele>1630.5</ele>
        <time>2024-09-25T11:22:57Z</time>
      </trkpt>
      <trkpt lat="42.37697" lon="2.20303">
        <ele>1630.5</ele>
        <time>2024-09-25T11:22:58Z</time>
      </trkpt>
      <trkpt lat="42.37697" lon="2.20303">
        <ele>1630.5</ele>
        <time>2024-09-25T11:22:59Z</time>
      </trkpt>
      <trkpt lat="42.37697" lon="2.20303">
        <ele>1630.5</ele>
        <time>2024-09-25T11:23:00Z</time>
      </trkpt>
      <trkpt lat="42.37697" lon="2.20303">
        <ele>1630.5</ele>
        <time>2024-09-25T11:23:01Z</time>
      </trkpt>
      <trkpt lat="42.37697" lon="2.20303">
        <ele>1630.5</ele>
        <time>2024-09-25T11:23:02Z</time>
      </trkpt>
      <trkpt lat="42.37697" lon="2.20303">
        <ele>1630.4</ele>
        <time>2024-09-25T11:23:03Z</time>
      </trkpt>
      <trkpt lat="42.37697" lon="2.20303">
        <ele>1630.4</ele>
        <time>2024-09-25T11:23:04Z</time>
      </trkpt>
      <trkpt lat="42.37697" lon="2.20303">
        <ele>1630.4</ele>
        <time>2024-09-25T11:23:05Z</time>
      </trkpt>
      <trkpt lat="42.37697" lon="2.20303">
        <ele>1630.4</ele>
        <time>2024-09-25T11:23:06Z</time>
      </trkpt>
      <trkpt lat="42.37697" lon="2.20303">
        <ele>1630.4</ele>
        <time>2024-09-25T11:23:07Z</time>
      </trkpt>
      <trkpt lat="42.37697" lon="2.20303">
        <ele>1630.4</ele>
        <time>2024-09-25T11:23:08Z</time>
      </trkpt>
      <trkpt lat="42.37697" lon="2.20303">
        <ele>1630.4</ele>
        <time>2024-09-25T11:23:09Z</time>
      </trkpt>
      <trkpt lat="42.37697" lon="2.20303">
        <ele>1630.4</ele>
        <time>2024-09-25T11:23:10Z</time>
      </trkpt>
      <trkpt lat="42.37697" lon="2.20303">
        <ele>1630.4</ele>
        <time>2024-09-25T11:23:11Z</time>
      </trkpt>
      <trkpt lat="42.37697" lon="2.20303">
        <ele>1630.4</ele>
        <time>2024-09-25T11:23:12Z</time>
      </trkpt>
      <trkpt lat="42.37697" lon="2.20303">
        <ele>1630.4</ele>
        <time>2024-09-25T11:23:13Z</time>
      </trkpt>
      <trkpt lat="42.37697" lon="2.20303">
        <ele>1630.4</ele>
        <time>2024-09-25T11:23:14Z</time>
      </trkpt>
      <trkpt lat="42.37697" lon="2.20303">
        <ele>1630.4</ele>
        <time>2024-09-25T11:23:15Z</time>
      </trkpt>
      <trkpt lat="42.37697" lon="2.20303">
        <ele>1630.4</ele>
        <time>2024-09-25T11:23:16Z</time>
      </trkpt>
      <trkpt lat="42.37697" lon="2.20303">
        <ele>1630.4</ele>
        <time>2024-09-25T11:23:17Z</time>
      </trkpt>
      <trkpt lat="42.37697" lon="2.20303">
        <ele>1630.3</ele>
        <time>2024-09-25T11:23:18Z</time>
      </trkpt>
      <trkpt lat="42.37697" lon="2.20303">
        <ele>1630.3</ele>
        <time>2024-09-25T11:23:19Z</time>
      </trkpt>
      <trkpt lat="42.37697" lon="2.20303">
        <ele>1630.3</ele>
        <time>2024-09-25T11:23:20Z</time>
      </trkpt>
      <trkpt lat="42.37697" lon="2.20303">
        <ele>1630.3</ele>
        <time>2024-09-25T11:23:21Z</time>
      </trkpt>
      <trkpt lat="42.37697" lon="2.20303">
        <ele>1630.3</ele>
        <time>2024-09-25T11:23:22Z</time>
      </trkpt>
      <trkpt lat="42.37697" lon="2.20303">
        <ele>1630.3</ele>
        <time>2024-09-25T11:23:23Z</time>
      </trkpt>
      <trkpt lat="42.37697" lon="2.20303">
        <ele>1630.3</ele>
        <time>2024-09-25T11:23:24Z</time>
      </trkpt>
      <trkpt lat="42.37697" lon="2.20303">
        <ele>1630.3</ele>
        <time>2024-09-25T11:23:25Z</time>
      </trkpt>
      <trkpt lat="42.37697" lon="2.20303">
        <ele>1630.3</ele>
        <time>2024-09-25T11:23:26Z</time>
      </trkpt>
      <trkpt lat="42.37697" lon="2.20303">
        <ele>1630.3</ele>
        <time>2024-09-25T11:23:27Z</time>
      </trkpt>
      <trkpt lat="42.37697" lon="2.20303">
        <ele>1630.3</ele>
        <time>2024-09-25T11:23:28Z</time>
      </trkpt>
      <trkpt lat="42.37697" lon="2.20303">
        <ele>1630.3</ele>
        <time>2024-09-25T11:23:29Z</time>
      </trkpt>
      <trkpt lat="42.37697" lon="2.20304">
        <ele>1630.3</ele>
        <time>2024-09-25T11:23:30Z</time>
      </trkpt>
      <trkpt lat="42.37697" lon="2.20304">
        <ele>1630.3</ele>
        <time>2024-09-25T11:23:31Z</time>
      </trkpt>
      <trkpt lat="42.37697" lon="2.20304">
        <ele>1630.3</ele>
        <time>2024-09-25T11:23:32Z</time>
      </trkpt>
      <trkpt lat="42.37697" lon="2.20304">
        <ele>1630.2</ele>
        <time>2024-09-25T11:23:33Z</time>
      </trkpt>
      <trkpt lat="42.37697" lon="2.20304">
        <ele>1630.2</ele>
        <time>2024-09-25T11:23:34Z</time>
      </trkpt>
      <trkpt lat="42.37697" lon="2.20304">
        <ele>1630.2</ele>
        <time>2024-09-25T11:23:35Z</time>
      </trkpt>
      <trkpt lat="42.37697" lon="2.20304">
        <ele>1630.2</ele>
        <time>2024-09-25T11:23:36Z</time>
      </trkpt>
      <trkpt lat="42.37697" lon="2.20304">
        <ele>1630.2</ele>
        <time>2024-09-25T11:23:37Z</time>
      </trkpt>
      <trkpt lat="42.37697" lon="2.20304">
        <ele>1630.2</ele>
        <time>2024-09-25T11:23:38Z</time>
      </trkpt>
      <trkpt lat="42.37697" lon="2.20304">
        <ele>1630.2</ele>
        <time>2024-09-25T11:23:39Z</time>
      </trkpt>
      <trkpt lat="42.37697" lon="2.20304">
        <ele>1630.2</ele>
        <time>2024-09-25T11:23:40Z</time>
      </trkpt>
      <trkpt lat="42.37697" lon="2.20304">
        <ele>1630.2</ele>
        <time>2024-09-25T11:23:41Z</time>
      </trkpt>
      <trkpt lat="42.37697" lon="2.20304">
        <ele>1630.2</ele>
        <time>2024-09-25T11:23:42Z</time>
      </trkpt>
      <trkpt lat="42.37697" lon="2.20304">
        <ele>1630.2</ele>
        <time>2024-09-25T11:23:43Z</time>
      </trkpt>
      <trkpt lat="42.37697" lon="2.20304">
        <ele>1630.2</ele>
        <time>2024-09-25T11:23:44Z</time>
      </trkpt>
      <trkpt lat="42.37697" lon="2.20304">
        <ele>1630.2</ele>
        <time>2024-09-25T11:23:45Z</time>
      </trkpt>
      <trkpt lat="42.37697" lon="2.20304">
        <ele>1630.2</ele>
        <time>2024-09-25T11:23:46Z</time>
      </trkpt>
      <trkpt lat="42.37697" lon="2.20304">
        <ele>1630.2</ele>
        <time>2024-09-25T11:23:47Z</time>
      </trkpt>
      <trkpt lat="42.37697" lon="2.20304">
        <ele>1630.1</ele>
        <time>2024-09-25T11:23:48Z</time>
      </trkpt>
      <trkpt lat="42.37697" lon="2.20305">
        <ele>1630.1</ele>
        <time>2024-09-25T11:23:49Z</time>
      </trkpt>
      <trkpt lat="42.37698" lon="2.20305">
        <ele>1630.1</ele>
        <time>2024-09-25T11:23:50Z</time>
      </trkpt>
      <trkpt lat="42.37698" lon="2.20305">
        <ele>1630.1</ele>
        <time>2024-09-25T11:23:51Z</time>
      </trkpt>
      <trkpt lat="42.37698" lon="2.20305">
        <ele>1630.1</ele>
        <time>2024-09-25T11:23:52Z</time>
      </trkpt>
      <trkpt lat="42.37698" lon="2.20305">
        <ele>1630.1</ele>
        <time>2024-09-25T11:23:53Z</time>
      </trkpt>
      <trkpt lat="42.37698" lon="2.20305">
        <ele>1630.1</ele>
        <time>2024-09-25T11:23:54Z</time>
      </trkpt>
      <trkpt lat="42.37698" lon="2.20305">
        <ele>1630.1</ele>
        <time>2024-09-25T11:23:55Z</time>
      </trkpt>
      <trkpt lat="42.37698" lon="2.20305">
        <ele>1630.1</ele>
        <time>2024-09-25T11:23:56Z</time>
      </trkpt>
      <trkpt lat="42.37698" lon="2.20304">
        <ele>1630.1</ele>
        <time>2024-09-25T11:23:57Z</time>
      </trkpt>
      <trkpt lat="42.37698" lon="2.20303">
        <ele>1630.1</ele>
        <time>2024-09-25T11:23:58Z</time>
      </trkpt>
      <trkpt lat="42.37698" lon="2.20303">
        <ele>1630.1</ele>
        <time>2024-09-25T11:23:59Z</time>
      </trkpt>
      <trkpt lat="42.37698" lon="2.20303">
        <ele>1630.1</ele>
        <time>2024-09-25T11:24:00Z</time>
      </trkpt>
      <trkpt lat="42.37698" lon="2.20302">
        <ele>1630.1</ele>
        <time>2024-09-25T11:24:01Z</time>
      </trkpt>
      <trkpt lat="42.37698" lon="2.20302">
        <ele>1630.1</ele>
        <time>2024-09-25T11:24:02Z</time>
      </trkpt>
      <trkpt lat="42.37698" lon="2.20302">
        <ele>1630</ele>
        <time>2024-09-25T11:24:03Z</time>
      </trkpt>
      <trkpt lat="42.37698" lon="2.20302">
        <ele>1630</ele>
        <time>2024-09-25T11:24:04Z</time>
      </trkpt>
      <trkpt lat="42.37698" lon="2.20302">
        <ele>1630</ele>
        <time>2024-09-25T11:24:05Z</time>
      </trkpt>
      <trkpt lat="42.37698" lon="2.20302">
        <ele>1630</ele>
        <time>2024-09-25T11:24:06Z</time>
      </trkpt>
      <trkpt lat="42.37698" lon="2.20302">
        <ele>1630</ele>
        <time>2024-09-25T11:24:07Z</time>
      </trkpt>
      <trkpt lat="42.37698" lon="2.20302">
        <ele>1630</ele>
        <time>2024-09-25T11:24:08Z</time>
      </trkpt>
      <trkpt lat="42.37698" lon="2.20303">
        <ele>1630</ele>
        <time>2024-09-25T11:24:09Z</time>
      </trkpt>
      <trkpt lat="42.37698" lon="2.20303">
        <ele>1630</ele>
        <time>2024-09-25T11:24:10Z</time>
      </trkpt>
      <trkpt lat="42.37698" lon="2.20303">
        <ele>1630</ele>
        <time>2024-09-25T11:24:11Z</time>
      </trkpt>
      <trkpt lat="42.37698" lon="2.20303">
        <ele>1630</ele>
        <time>2024-09-25T11:24:12Z</time>
      </trkpt>
      <trkpt lat="42.37698" lon="2.20303">
        <ele>1630</ele>
        <time>2024-09-25T11:24:13Z</time>
      </trkpt>
      <trkpt lat="42.37698" lon="2.20303">
        <ele>1630</ele>
        <time>2024-09-25T11:24:14Z</time>
      </trkpt>
      <trkpt lat="42.37698" lon="2.20303">
        <ele>1630</ele>
        <time>2024-09-25T11:24:15Z</time>
      </trkpt>
      <trkpt lat="42.37698" lon="2.20303">
        <ele>1630</ele>
        <time>2024-09-25T11:24:16Z</time>
      </trkpt>
      <trkpt lat="42.37698" lon="2.20303">
        <ele>1630</ele>
        <time>2024-09-25T11:24:17Z</time>
      </trkpt>
      <trkpt lat="42.37698" lon="2.20303">
        <ele>1630</ele>
        <time>2024-09-25T11:24:18Z</time>
      </trkpt>
      <trkpt lat="42.37698" lon="2.20303">
        <ele>1629.9</ele>
        <time>2024-09-25T11:24:19Z</time>
      </trkpt>
      <trkpt lat="42.37698" lon="2.20303">
        <ele>1629.9</ele>
        <time>2024-09-25T11:24:20Z</time>
      </trkpt>
      <trkpt lat="42.37698" lon="2.20303">
        <ele>1629.9</ele>
        <time>2024-09-25T11:24:21Z</time>
      </trkpt>
      <trkpt lat="42.37698" lon="2.20303">
        <ele>1629.9</ele>
        <time>2024-09-25T11:24:22Z</time>
      </trkpt>
      <trkpt lat="42.37698" lon="2.20303">
        <ele>1629.9</ele>
        <time>2024-09-25T11:24:23Z</time>
      </trkpt>
      <trkpt lat="42.37698" lon="2.20303">
        <ele>1629.9</ele>
        <time>2024-09-25T11:24:24Z</time>
      </trkpt>
      <trkpt lat="42.37698" lon="2.20303">
        <ele>1629.9</ele>
        <time>2024-09-25T11:24:25Z</time>
      </trkpt>
      <trkpt lat="42.37698" lon="2.20303">
        <ele>1629.9</ele>
        <time>2024-09-25T11:24:26Z</time>
      </trkpt>
      <trkpt lat="42.37698" lon="2.20303">
        <ele>1629.9</ele>
        <time>2024-09-25T11:24:27Z</time>
      </trkpt>
      <trkpt lat="42.37698" lon="2.20303">
        <ele>1629.9</ele>
        <time>2024-09-25T11:24:28Z</time>
      </trkpt>
      <trkpt lat="42.37698" lon="2.20303">
        <ele>1629.9</ele>
        <time>2024-09-25T11:24:29Z</time>
      </trkpt>
      <trkpt lat="42.37698" lon="2.20303">
        <ele>1629.9</ele>
        <time>2024-09-25T11:24:30Z</time>
      </trkpt>
      <trkpt lat="42.37698" lon="2.20303">
        <ele>1629.9</ele>
        <time>2024-09-25T11:24:31Z</time>
      </trkpt>
      <trkpt lat="42.37698" lon="2.20303">
        <ele>1629.9</ele>
        <time>2024-09-25T11:24:32Z</time>
      </trkpt>
      <trkpt lat="42.37698" lon="2.20303">
        <ele>1629.9</ele>
        <time>2024-09-25T11:24:33Z</time>
      </trkpt>
      <trkpt lat="42.37698" lon="2.20303">
        <ele>1629.8</ele>
        <time>2024-09-25T11:24:34Z</time>
      </trkpt>
      <trkpt lat="42.37698" lon="2.20303">
        <ele>1629.8</ele>
        <time>2024-09-25T11:24:35Z</time>
      </trkpt>
      <trkpt lat="42.37698" lon="2.20303">
        <ele>1629.8</ele>
        <time>2024-09-25T11:24:36Z</time>
      </trkpt>
      <trkpt lat="42.37698" lon="2.20303">
        <ele>1629.8</ele>
        <time>2024-09-25T11:24:37Z</time>
      </trkpt>
      <trkpt lat="42.37698" lon="2.20303">
        <ele>1629.8</ele>
        <time>2024-09-25T11:24:38Z</time>
      </trkpt>
      <trkpt lat="42.37698" lon="2.20303">
        <ele>1629.8</ele>
        <time>2024-09-25T11:24:39Z</time>
      </trkpt>
      <trkpt lat="42.37698" lon="2.20303">
        <ele>1629.8</ele>
        <time>2024-09-25T11:24:40Z</time>
      </trkpt>
      <trkpt lat="42.37698" lon="2.20303">
        <ele>1629.8</ele>
        <time>2024-09-25T11:24:41Z</time>
      </trkpt>
      <trkpt lat="42.37698" lon="2.20303">
        <ele>1629.8</ele>
        <time>2024-09-25T11:24:42Z</time>
      </trkpt>
      <trkpt lat="42.37698" lon="2.20303">
        <ele>1629.8</ele>
        <time>2024-09-25T11:24:43Z</time>
      </trkpt>
      <trkpt lat="42.37698" lon="2.20303">
        <ele>1629.8</ele>
        <time>2024-09-25T11:24:44Z</time>
      </trkpt>
      <trkpt lat="42.37698" lon="2.20303">
        <ele>1629.8</ele>
        <time>2024-09-25T11:24:45Z</time>
      </trkpt>
      <trkpt lat="42.37698" lon="2.20303">
        <ele>1629.8</ele>
        <time>2024-09-25T11:24:46Z</time>
      </trkpt>
      <trkpt lat="42.37698" lon="2.20303">
        <ele>1629.8</ele>
        <time>2024-09-25T11:24:47Z</time>
      </trkpt>
      <trkpt lat="42.37698" lon="2.20303">
        <ele>1629.8</ele>
        <time>2024-09-25T11:24:48Z</time>
      </trkpt>
      <trkpt lat="42.37698" lon="2.20303">
        <ele>1629.7</ele>
        <time>2024-09-25T11:24:49Z</time>
      </trkpt>
      <trkpt lat="42.37698" lon="2.20303">
        <ele>1629.7</ele>
        <time>2024-09-25T11:24:50Z</time>
      </trkpt>
      <trkpt lat="42.37698" lon="2.20303">
        <ele>1629.7</ele>
        <time>2024-09-25T11:24:51Z</time>
      </trkpt>
      <trkpt lat="42.37698" lon="2.20303">
        <ele>1629.7</ele>
        <time>2024-09-25T11:24:52Z</time>
      </trkpt>
      <trkpt lat="42.37698" lon="2.20303">
        <ele>1629.7</ele>
        <time>2024-09-25T11:24:53Z</time>
      </trkpt>
      <trkpt lat="42.37698" lon="2.20303">
        <ele>1629.7</ele>
        <time>2024-09-25T11:24:54Z</time>
      </trkpt>
      <trkpt lat="42.37698" lon="2.20303">
        <ele>1629.7</ele>
        <time>2024-09-25T11:24:55Z</time>
      </trkpt>
      <trkpt lat="42.37698" lon="2.20303">
        <ele>1629.7</ele>
        <time>2024-09-25T11:24:56Z</time>
      </trkpt>
      <trkpt lat="42.37698" lon="2.20303">
        <ele>1629.7</ele>
        <time>2024-09-25T11:24:57Z</time>
      </trkpt>
      <trkpt lat="42.37698" lon="2.20303">
        <ele>1629.7</ele>
        <time>2024-09-25T11:24:58Z</time>
      </trkpt>
      <trkpt lat="42.37698" lon="2.20303">
        <ele>1629.7</ele>
        <time>2024-09-25T11:24:59Z</time>
      </trkpt>
      <trkpt lat="42.37698" lon="2.20303">
        <ele>1629.7</ele>
        <time>2024-09-25T11:25:00Z</time>
      </trkpt>
      <trkpt lat="42.37698" lon="2.20303">
        <ele>1629.7</ele>
        <time>2024-09-25T11:25:01Z</time>
      </trkpt>
      <trkpt lat="42.37698" lon="2.20303">
        <ele>1629.7</ele>
        <time>2024-09-25T11:25:02Z</time>
      </trkpt>
      <trkpt lat="42.37698" lon="2.20303">
        <ele>1629.7</ele>
        <time>2024-09-25T11:25:03Z</time>
      </trkpt>
      <trkpt lat="42.37698" lon="2.20303">
        <ele>1629.6</ele>
        <time>2024-09-25T11:25:04Z</time>
      </trkpt>
      <trkpt lat="42.37698" lon="2.20303">
        <ele>1629.6</ele>
        <time>2024-09-25T11:25:05Z</time>
      </trkpt>
      <trkpt lat="42.37698" lon="2.20303">
        <ele>1629.6</ele>
        <time>2024-09-25T11:25:06Z</time>
      </trkpt>
      <trkpt lat="42.37698" lon="2.20303">
        <ele>1629.6</ele>
        <time>2024-09-25T11:25:07Z</time>
      </trkpt>
      <trkpt lat="42.37698" lon="2.20303">
        <ele>1629.6</ele>
        <time>2024-09-25T11:25:08Z</time>
      </trkpt>
      <trkpt lat="42.37698" lon="2.20303">
        <ele>1629.6</ele>
        <time>2024-09-25T11:25:09Z</time>
      </trkpt>
      <trkpt lat="42.37698" lon="2.20303">
        <ele>1629.6</ele>
        <time>2024-09-25T11:25:10Z</time>
      </trkpt>
      <trkpt lat="42.37698" lon="2.20303">
        <ele>1629.6</ele>
        <time>2024-09-25T11:25:11Z</time>
      </trkpt>
      <trkpt lat="42.37698" lon="2.20303">
        <ele>1629.6</ele>
        <time>2024-09-25T11:25:12Z</time>
      </trkpt>
      <trkpt lat="42.37698" lon="2.20303">
        <ele>1629.6</ele>
        <time>2024-09-25T11:25:13Z</time>
      </trkpt>
      <trkpt lat="42.37698" lon="2.20303">
        <ele>1629.6</ele>
        <time>2024-09-25T11:25:14Z</time>
      </trkpt>
      <trkpt lat="42.37698" lon="2.20303">
        <ele>1629.6</ele>
        <time>2024-09-25T11:25:15Z</time>
      </trkpt>
      <trkpt lat="42.37698" lon="2.20303">
        <ele>1629.6</ele>
        <time>2024-09-25T11:25:16Z</time>
      </trkpt>
      <trkpt lat="42.37698" lon="2.20303">
        <ele>1629.6</ele>
        <time>2024-09-25T11:25:17Z</time>
      </trkpt>
      <trkpt lat="42.37698" lon="2.20303">
        <ele>1629.6</ele>
        <time>2024-09-25T11:25:18Z</time>
      </trkpt>
      <trkpt lat="42.37698" lon="2.20303">
        <ele>1629.6</ele>
        <time>2024-09-25T11:25:19Z</time>
      </trkpt>
      <trkpt lat="42.37698" lon="2.20303">
        <ele>1629.5</ele>
        <time>2024-09-25T11:25:20Z</time>
      </trkpt>
      <trkpt lat="42.37698" lon="2.20303">
        <ele>1629.5</ele>
        <time>2024-09-25T11:25:21Z</time>
      </trkpt>
      <trkpt lat="42.37698" lon="2.20303">
        <ele>1629.5</ele>
        <time>2024-09-25T11:25:22Z</time>
      </trkpt>
      <trkpt lat="42.37698" lon="2.20303">
        <ele>1629.5</ele>
        <time>2024-09-25T11:25:23Z</time>
      </trkpt>
      <trkpt lat="42.37698" lon="2.20303">
        <ele>1629.5</ele>
        <time>2024-09-25T11:25:24Z</time>
      </trkpt>
      <trkpt lat="42.37698" lon="2.20303">
        <ele>1629.5</ele>
        <time>2024-09-25T11:25:25Z</time>
      </trkpt>
      <trkpt lat="42.37698" lon="2.20303">
        <ele>1629.5</ele>
        <time>2024-09-25T11:25:26Z</time>
      </trkpt>
      <trkpt lat="42.37698" lon="2.20303">
        <ele>1629.5</ele>
        <time>2024-09-25T11:25:27Z</time>
      </trkpt>
      <trkpt lat="42.37698" lon="2.20303">
        <ele>1629.5</ele>
        <time>2024-09-25T11:25:28Z</time>
      </trkpt>
      <trkpt lat="42.37698" lon="2.20303">
        <ele>1629.5</ele>
        <time>2024-09-25T11:25:29Z</time>
      </trkpt>
      <trkpt lat="42.37698" lon="2.20303">
        <ele>1629.5</ele>
        <time>2024-09-25T11:25:30Z</time>
      </trkpt>
      <trkpt lat="42.37698" lon="2.20303">
        <ele>1629.5</ele>
        <time>2024-09-25T11:25:31Z</time>
      </trkpt>
      <trkpt lat="42.37698" lon="2.20303">
        <ele>1629.5</ele>
        <time>2024-09-25T11:25:32Z</time>
      </trkpt>
      <trkpt lat="42.37698" lon="2.20303">
        <ele>1629.5</ele>
        <time>2024-09-25T11:25:33Z</time>
      </trkpt>
      <trkpt lat="42.37698" lon="2.20303">
        <ele>1629.5</ele>
        <time>2024-09-25T11:25:34Z</time>
      </trkpt>
      <trkpt lat="42.37698" lon="2.20303">
        <ele>1629.4</ele>
        <time>2024-09-25T11:25:35Z</time>
      </trkpt>
      <trkpt lat="42.37698" lon="2.20303">
        <ele>1629.4</ele>
        <time>2024-09-25T11:25:36Z</time>
      </trkpt>
      <trkpt lat="42.37698" lon="2.20303">
        <ele>1629.4</ele>
        <time>2024-09-25T11:25:37Z</time>
      </trkpt>
      <trkpt lat="42.37698" lon="2.20303">
        <ele>1629.4</ele>
        <time>2024-09-25T11:25:38Z</time>
      </trkpt>
      <trkpt lat="42.37698" lon="2.20303">
        <ele>1629.4</ele>
        <time>2024-09-25T11:25:39Z</time>
      </trkpt>
      <trkpt lat="42.37698" lon="2.20303">
        <ele>1629.4</ele>
        <time>2024-09-25T11:25:40Z</time>
      </trkpt>
      <trkpt lat="42.37698" lon="2.20303">
        <ele>1629.4</ele>
        <time>2024-09-25T11:25:41Z</time>
      </trkpt>
      <trkpt lat="42.37698" lon="2.20303">
        <ele>1629.4</ele>
        <time>2024-09-25T11:25:42Z</time>
      </trkpt>
      <trkpt lat="42.37698" lon="2.20303">
        <ele>1629.4</ele>
        <time>2024-09-25T11:25:43Z</time>
      </trkpt>
      <trkpt lat="42.37698" lon="2.20303">
        <ele>1629.4</ele>
        <time>2024-09-25T11:25:44Z</time>
      </trkpt>
      <trkpt lat="42.37698" lon="2.20303">
        <ele>1629.4</ele>
        <time>2024-09-25T11:25:45Z</time>
      </trkpt>
      <trkpt lat="42.37698" lon="2.20303">
        <ele>1629.4</ele>
        <time>2024-09-25T11:25:46Z</time>
      </trkpt>
      <trkpt lat="42.37698" lon="2.20303">
        <ele>1629.4</ele>
        <time>2024-09-25T11:25:47Z</time>
      </trkpt>
      <trkpt lat="42.37698" lon="2.20303">
        <ele>1629.4</ele>
        <time>2024-09-25T11:25:48Z</time>
      </trkpt>
      <trkpt lat="42.37698" lon="2.20303">
        <ele>1629.4</ele>
        <time>2024-09-25T11:25:49Z</time>
      </trkpt>
      <trkpt lat="42.37698" lon="2.20303">
        <ele>1629.3</ele>
        <time>2024-09-25T11:25:50Z</time>
      </trkpt>
      <trkpt lat="42.37698" lon="2.20303">
        <ele>1629.3</ele>
        <time>2024-09-25T11:25:51Z</time>
      </trkpt>
      <trkpt lat="42.37698" lon="2.20303">
        <ele>1629.3</ele>
        <time>2024-09-25T11:25:52Z</time>
      </trkpt>
      <trkpt lat="42.37698" lon="2.20303">
        <ele>1629.3</ele>
        <time>2024-09-25T11:25:53Z</time>
      </trkpt>
      <trkpt lat="42.37698" lon="2.20303">
        <ele>1629.3</ele>
        <time>2024-09-25T11:25:54Z</time>
      </trkpt>
      <trkpt lat="42.37698" lon="2.20303">
        <ele>1629.3</ele>
        <time>2024-09-25T11:25:55Z</time>
      </trkpt>
      <trkpt lat="42.37698" lon="2.20303">
        <ele>1629.3</ele>
        <time>2024-09-25T11:25:56Z</time>
      </trkpt>
      <trkpt lat="42.37698" lon="2.20303">
        <ele>1629.3</ele>
        <time>2024-09-25T11:25:57Z</time>
      </trkpt>
      <trkpt lat="42.37698" lon="2.20303">
        <ele>1629.3</ele>
        <time>2024-09-25T11:25:58Z</time>
      </trkpt>
      <trkpt lat="42.37698" lon="2.20303">
        <ele>1629.3</ele>
        <time>2024-09-25T11:25:59Z</time>
      </trkpt>
      <trkpt lat="42.37698" lon="2.20303">
        <ele>1629.3</ele>
        <time>2024-09-25T11:26:00Z</time>
      </trkpt>
      <trkpt lat="42.37698" lon="2.20303">
        <ele>1629.3</ele>
        <time>2024-09-25T11:26:01Z</time>
      </trkpt>
      <trkpt lat="42.37698" lon="2.20303">
        <ele>1629.3</ele>
        <time>2024-09-25T11:26:02Z</time>
      </trkpt>
      <trkpt lat="42.37698" lon="2.20303">
        <ele>1629.3</ele>
        <time>2024-09-25T11:26:03Z</time>
      </trkpt>
      <trkpt lat="42.37698" lon="2.20303">
        <ele>1629.3</ele>
        <time>2024-09-25T11:26:04Z</time>
      </trkpt>
      <trkpt lat="42.37698" lon="2.20303">
        <ele>1629.2</ele>
        <time>2024-09-25T11:26:05Z</time>
      </trkpt>
      <trkpt lat="42.37698" lon="2.20303">
        <ele>1629.2</ele>
        <time>2024-09-25T11:26:06Z</time>
      </trkpt>
      <trkpt lat="42.37698" lon="2.20303">
        <ele>1629.2</ele>
        <time>2024-09-25T11:26:07Z</time>
      </trkpt>
      <trkpt lat="42.37698" lon="2.20303">
        <ele>1629.2</ele>
        <time>2024-09-25T11:26:08Z</time>
      </trkpt>
      <trkpt lat="42.37698" lon="2.20303">
        <ele>1629.2</ele>
        <time>2024-09-25T11:26:09Z</time>
      </trkpt>
      <trkpt lat="42.37698" lon="2.20303">
        <ele>1629.2</ele>
        <time>2024-09-25T11:26:10Z</time>
      </trkpt>
      <trkpt lat="42.37698" lon="2.20303">
        <ele>1629.2</ele>
        <time>2024-09-25T11:26:11Z</time>
      </trkpt>
      <trkpt lat="42.37698" lon="2.20303">
        <ele>1629.2</ele>
        <time>2024-09-25T11:26:12Z</time>
      </trkpt>
      <trkpt lat="42.37698" lon="2.20303">
        <ele>1629.2</ele>
        <time>2024-09-25T11:26:13Z</time>
      </trkpt>
      <trkpt lat="42.37698" lon="2.20303">
        <ele>1629.2</ele>
        <time>2024-09-25T11:26:14Z</time>
      </trkpt>
      <trkpt lat="42.37698" lon="2.20303">
        <ele>1629.2</ele>
        <time>2024-09-25T11:26:15Z</time>
      </trkpt>
      <trkpt lat="42.37698" lon="2.20303">
        <ele>1629.2</ele>
        <time>2024-09-25T11:26:16Z</time>
      </trkpt>
      <trkpt lat="42.37698" lon="2.20303">
        <ele>1629.2</ele>
        <time>2024-09-25T11:26:17Z</time>
      </trkpt>
      <trkpt lat="42.37698" lon="2.20303">
        <ele>1629.2</ele>
        <time>2024-09-25T11:26:18Z</time>
      </trkpt>
      <trkpt lat="42.37698" lon="2.20303">
        <ele>1629.2</ele>
        <time>2024-09-25T11:26:19Z</time>
      </trkpt>
      <trkpt lat="42.37698" lon="2.20303">
        <ele>1629.1</ele>
        <time>2024-09-25T11:26:20Z</time>
      </trkpt>
      <trkpt lat="42.37698" lon="2.20303">
        <ele>1629.1</ele>
        <time>2024-09-25T11:26:21Z</time>
      </trkpt>
      <trkpt lat="42.37698" lon="2.20303">
        <ele>1629.1</ele>
        <time>2024-09-25T11:26:22Z</time>
      </trkpt>
      <trkpt lat="42.37698" lon="2.20303">
        <ele>1629.1</ele>
        <time>2024-09-25T11:26:23Z</time>
      </trkpt>
      <trkpt lat="42.37698" lon="2.20303">
        <ele>1629.1</ele>
        <time>2024-09-25T11:26:24Z</time>
      </trkpt>
      <trkpt lat="42.37698" lon="2.20303">
        <ele>1629.1</ele>
        <time>2024-09-25T11:26:25Z</time>
      </trkpt>
      <trkpt lat="42.37698" lon="2.20303">
        <ele>1629.1</ele>
        <time>2024-09-25T11:26:26Z</time>
      </trkpt>
      <trkpt lat="42.37698" lon="2.20303">
        <ele>1629.1</ele>
        <time>2024-09-25T11:26:27Z</time>
      </trkpt>
      <trkpt lat="42.37698" lon="2.20303">
        <ele>1629.1</ele>
        <time>2024-09-25T11:26:28Z</time>
      </trkpt>
      <trkpt lat="42.37698" lon="2.20303">
        <ele>1629.1</ele>
        <time>2024-09-25T11:26:29Z</time>
      </trkpt>
      <trkpt lat="42.37698" lon="2.20303">
        <ele>1629.1</ele>
        <time>2024-09-25T11:26:30Z</time>
      </trkpt>
      <trkpt lat="42.37698" lon="2.20303">
        <ele>1629.1</ele>
        <time>2024-09-25T11:26:31Z</time>
      </trkpt>
      <trkpt lat="42.37698" lon="2.20303">
        <ele>1629.1</ele>
        <time>2024-09-25T11:26:32Z</time>
      </trkpt>
      <trkpt lat="42.37698" lon="2.20303">
        <ele>1629.1</ele>
        <time>2024-09-25T11:26:33Z</time>
      </trkpt>
      <trkpt lat="42.37698" lon="2.20303">
        <ele>1629.1</ele>
        <time>2024-09-25T11:26:34Z</time>
      </trkpt>
      <trkpt lat="42.37698" lon="2.20303">
        <ele>1629.1</ele>
        <time>2024-09-25T11:26:35Z</time>
      </trkpt>
      <trkpt lat="42.37698" lon="2.20303">
        <ele>1629</ele>
        <time>2024-09-25T11:26:36Z</time>
      </trkpt>
      <trkpt lat="42.37698" lon="2.20303">
        <ele>1629</ele>
        <time>2024-09-25T11:26:37Z</time>
      </trkpt>
      <trkpt lat="42.37698" lon="2.20303">
        <ele>1629</ele>
        <time>2024-09-25T11:26:38Z</time>
      </trkpt>
      <trkpt lat="42.37698" lon="2.20303">
        <ele>1629</ele>
        <time>2024-09-25T11:26:39Z</time>
      </trkpt>
      <trkpt lat="42.37698" lon="2.20303">
        <ele>1629</ele>
        <time>2024-09-25T11:26:40Z</time>
      </trkpt>
      <trkpt lat="42.37698" lon="2.20303">
        <ele>1629</ele>
        <time>2024-09-25T11:26:41Z</time>
      </trkpt>
      <trkpt lat="42.37698" lon="2.20303">
        <ele>1629</ele>
        <time>2024-09-25T11:26:42Z</time>
      </trkpt>
      <trkpt lat="42.37698" lon="2.20303">
        <ele>1629</ele>
        <time>2024-09-25T11:26:43Z</time>
      </trkpt>
      <trkpt lat="42.37698" lon="2.20303">
        <ele>1629</ele>
        <time>2024-09-25T11:26:44Z</time>
      </trkpt>
      <trkpt lat="42.37698" lon="2.20303">
        <ele>1629</ele>
        <time>2024-09-25T11:26:45Z</time>
      </trkpt>
      <trkpt lat="42.37698" lon="2.20303">
        <ele>1629</ele>
        <time>2024-09-25T11:26:46Z</time>
      </trkpt>
      <trkpt lat="42.37698" lon="2.20303">
        <ele>1629</ele>
        <time>2024-09-25T11:26:47Z</time>
      </trkpt>
      <trkpt lat="42.37698" lon="2.20304">
        <ele>1629</ele>
        <time>2024-09-25T11:26:48Z</time>
      </trkpt>
      <trkpt lat="42.37698" lon="2.20304">
        <ele>1629</ele>
        <time>2024-09-25T11:26:49Z</time>
      </trkpt>
      <trkpt lat="42.37698" lon="2.20305">
        <ele>1629</ele>
        <time>2024-09-25T11:26:50Z</time>
      </trkpt>
      <trkpt lat="42.37698" lon="2.20305">
        <ele>1628.9</ele>
        <time>2024-09-25T11:26:51Z</time>
      </trkpt>
      <trkpt lat="42.37698" lon="2.20305">
        <ele>1628.9</ele>
        <time>2024-09-25T11:26:52Z</time>
      </trkpt>
      <trkpt lat="42.37698" lon="2.20305">
        <ele>1628.9</ele>
        <time>2024-09-25T11:26:53Z</time>
      </trkpt>
      <trkpt lat="42.37698" lon="2.20306">
        <ele>1628.9</ele>
        <time>2024-09-25T11:26:54Z</time>
      </trkpt>
      <trkpt lat="42.37698" lon="2.20306">
        <ele>1628.9</ele>
        <time>2024-09-25T11:26:55Z</time>
      </trkpt>
      <trkpt lat="42.37698" lon="2.20306">
        <ele>1628.9</ele>
        <time>2024-09-25T11:26:56Z</time>
      </trkpt>
      <trkpt lat="42.37698" lon="2.20305">
        <ele>1628.9</ele>
        <time>2024-09-25T11:26:57Z</time>
      </trkpt>
      <trkpt lat="42.37698" lon="2.20305">
        <ele>1628.9</ele>
        <time>2024-09-25T11:26:58Z</time>
      </trkpt>
      <trkpt lat="42.37698" lon="2.20305">
        <ele>1628.9</ele>
        <time>2024-09-25T11:26:59Z</time>
      </trkpt>
      <trkpt lat="42.37698" lon="2.20305">
        <ele>1628.9</ele>
        <time>2024-09-25T11:27:00Z</time>
      </trkpt>
      <trkpt lat="42.37698" lon="2.20305">
        <ele>1628.9</ele>
        <time>2024-09-25T11:27:01Z</time>
      </trkpt>
      <trkpt lat="42.37698" lon="2.20305">
        <ele>1628.9</ele>
        <time>2024-09-25T11:27:02Z</time>
      </trkpt>
      <trkpt lat="42.37698" lon="2.20305">
        <ele>1628.9</ele>
        <time>2024-09-25T11:27:03Z</time>
      </trkpt>
      <trkpt lat="42.37698" lon="2.20305">
        <ele>1628.9</ele>
        <time>2024-09-25T11:27:04Z</time>
      </trkpt>
      <trkpt lat="42.37698" lon="2.20305">
        <ele>1628.9</ele>
        <time>2024-09-25T11:27:05Z</time>
      </trkpt>
      <trkpt lat="42.37698" lon="2.20305">
        <ele>1628.8</ele>
        <time>2024-09-25T11:27:06Z</time>
      </trkpt>
      <trkpt lat="42.37698" lon="2.20305">
        <ele>1628.8</ele>
        <time>2024-09-25T11:27:07Z</time>
      </trkpt>
      <trkpt lat="42.37698" lon="2.20305">
        <ele>1628.8</ele>
        <time>2024-09-25T11:27:08Z</time>
      </trkpt>
      <trkpt lat="42.37698" lon="2.20305">
        <ele>1628.8</ele>
        <time>2024-09-25T11:27:09Z</time>
      </trkpt>
      <trkpt lat="42.37698" lon="2.20305">
        <ele>1628.8</ele>
        <time>2024-09-25T11:27:10Z</time>
      </trkpt>
      <trkpt lat="42.37697" lon="2.20305">
        <ele>1628.8</ele>
        <time>2024-09-25T11:27:11Z</time>
      </trkpt>
      <trkpt lat="42.37697" lon="2.20306">
        <ele>1628.8</ele>
        <time>2024-09-25T11:27:12Z</time>
      </trkpt>
      <trkpt lat="42.37697" lon="2.20306">
        <ele>1628.8</ele>
        <time>2024-09-25T11:27:13Z</time>
      </trkpt>
      <trkpt lat="42.37697" lon="2.20306">
        <ele>1628.8</ele>
        <time>2024-09-25T11:27:14Z</time>
      </trkpt>
      <trkpt lat="42.37697" lon="2.20306">
        <ele>1628.8</ele>
        <time>2024-09-25T11:27:15Z</time>
      </trkpt>
      <trkpt lat="42.37697" lon="2.20306">
        <ele>1628.8</ele>
        <time>2024-09-25T11:27:16Z</time>
      </trkpt>
      <trkpt lat="42.37697" lon="2.20305">
        <ele>1628.8</ele>
        <time>2024-09-25T11:27:17Z</time>
      </trkpt>
      <trkpt lat="42.37697" lon="2.20305">
        <ele>1628.8</ele>
        <time>2024-09-25T11:27:18Z</time>
      </trkpt>
      <trkpt lat="42.37697" lon="2.20305">
        <ele>1628.8</ele>
        <time>2024-09-25T11:27:19Z</time>
      </trkpt>
      <trkpt lat="42.37697" lon="2.20305">
        <ele>1628.8</ele>
        <time>2024-09-25T11:27:20Z</time>
      </trkpt>
      <trkpt lat="42.37697" lon="2.20305">
        <ele>1628.7</ele>
        <time>2024-09-25T11:27:21Z</time>
      </trkpt>
      <trkpt lat="42.37697" lon="2.20305">
        <ele>1628.7</ele>
        <time>2024-09-25T11:27:22Z</time>
      </trkpt>
      <trkpt lat="42.37698" lon="2.20305">
        <ele>1628.7</ele>
        <time>2024-09-25T11:27:23Z</time>
      </trkpt>
      <trkpt lat="42.37698" lon="2.20305">
        <ele>1628.7</ele>
        <time>2024-09-25T11:27:24Z</time>
      </trkpt>
      <trkpt lat="42.37698" lon="2.20305">
        <ele>1628.7</ele>
        <time>2024-09-25T11:27:25Z</time>
      </trkpt>
      <trkpt lat="42.37698" lon="2.20305">
        <ele>1628.7</ele>
        <time>2024-09-25T11:27:26Z</time>
      </trkpt>
      <trkpt lat="42.37698" lon="2.20305">
        <ele>1628.7</ele>
        <time>2024-09-25T11:27:27Z</time>
      </trkpt>
      <trkpt lat="42.37698" lon="2.20305">
        <ele>1628.7</ele>
        <time>2024-09-25T11:27:28Z</time>
      </trkpt>
      <trkpt lat="42.37698" lon="2.20305">
        <ele>1628.7</ele>
        <time>2024-09-25T11:27:29Z</time>
      </trkpt>
      <trkpt lat="42.37698" lon="2.20305">
        <ele>1628.7</ele>
        <time>2024-09-25T11:27:30Z</time>
      </trkpt>
      <trkpt lat="42.37698" lon="2.20305">
        <ele>1628.7</ele>
        <time>2024-09-25T11:27:31Z</time>
      </trkpt>
      <trkpt lat="42.37698" lon="2.20305">
        <ele>1628.7</ele>
        <time>2024-09-25T11:27:32Z</time>
      </trkpt>
      <trkpt lat="42.37698" lon="2.20305">
        <ele>1628.7</ele>
        <time>2024-09-25T11:27:33Z</time>
      </trkpt>
      <trkpt lat="42.37698" lon="2.20305">
        <ele>1628.7</ele>
        <time>2024-09-25T11:27:34Z</time>
      </trkpt>
      <trkpt lat="42.37698" lon="2.20305">
        <ele>1628.7</ele>
        <time>2024-09-25T11:27:35Z</time>
      </trkpt>
      <trkpt lat="42.37698" lon="2.20305">
        <ele>1628.6</ele>
        <time>2024-09-25T11:27:36Z</time>
      </trkpt>
      <trkpt lat="42.37698" lon="2.20305">
        <ele>1628.6</ele>
        <time>2024-09-25T11:27:37Z</time>
      </trkpt>
      <trkpt lat="42.37698" lon="2.20305">
        <ele>1628.6</ele>
        <time>2024-09-25T11:27:38Z</time>
      </trkpt>
      <trkpt lat="42.37698" lon="2.20305">
        <ele>1628.6</ele>
        <time>2024-09-25T11:27:39Z</time>
      </trkpt>
      <trkpt lat="42.37698" lon="2.20305">
        <ele>1628.6</ele>
        <time>2024-09-25T11:27:40Z</time>
      </trkpt>
      <trkpt lat="42.37698" lon="2.20305">
        <ele>1628.6</ele>
        <time>2024-09-25T11:27:41Z</time>
      </trkpt>
      <trkpt lat="42.37697" lon="2.20305">
        <ele>1628.6</ele>
        <time>2024-09-25T11:27:42Z</time>
      </trkpt>
      <trkpt lat="42.37697" lon="2.20305">
        <ele>1628.6</ele>
        <time>2024-09-25T11:27:43Z</time>
      </trkpt>
      <trkpt lat="42.37697" lon="2.20305">
        <ele>1628.6</ele>
        <time>2024-09-25T11:27:44Z</time>
      </trkpt>
      <trkpt lat="42.37697" lon="2.20305">
        <ele>1628.6</ele>
        <time>2024-09-25T11:27:45Z</time>
      </trkpt>
      <trkpt lat="42.37697" lon="2.20305">
        <ele>1628.6</ele>
        <time>2024-09-25T11:27:46Z</time>
      </trkpt>
      <trkpt lat="42.37697" lon="2.20305">
        <ele>1628.6</ele>
        <time>2024-09-25T11:27:47Z</time>
      </trkpt>
      <trkpt lat="42.37697" lon="2.20305">
        <ele>1628.6</ele>
        <time>2024-09-25T11:27:48Z</time>
      </trkpt>
      <trkpt lat="42.37697" lon="2.20305">
        <ele>1628.6</ele>
        <time>2024-09-25T11:27:49Z</time>
      </trkpt>
      <trkpt lat="42.37697" lon="2.20305">
        <ele>1628.6</ele>
        <time>2024-09-25T11:27:50Z</time>
      </trkpt>
      <trkpt lat="42.37697" lon="2.20305">
        <ele>1628.6</ele>
        <time>2024-09-25T11:27:51Z</time>
      </trkpt>
      <trkpt lat="42.37697" lon="2.20305">
        <ele>1628.5</ele>
        <time>2024-09-25T11:27:52Z</time>
      </trkpt>
      <trkpt lat="42.37697" lon="2.20305">
        <ele>1628.5</ele>
        <time>2024-09-25T11:27:53Z</time>
      </trkpt>
      <trkpt lat="42.37697" lon="2.20305">
        <ele>1628.5</ele>
        <time>2024-09-25T11:27:54Z</time>
      </trkpt>
      <trkpt lat="42.37697" lon="2.20305">
        <ele>1628.5</ele>
        <time>2024-09-25T11:27:55Z</time>
      </trkpt>
      <trkpt lat="42.37697" lon="2.20305">
        <ele>1628.5</ele>
        <time>2024-09-25T11:27:56Z</time>
      </trkpt>
      <trkpt lat="42.37697" lon="2.20305">
        <ele>1628.5</ele>
        <time>2024-09-25T11:27:57Z</time>
      </trkpt>
      <trkpt lat="42.37697" lon="2.20305">
        <ele>1628.5</ele>
        <time>2024-09-25T11:27:58Z</time>
      </trkpt>
      <trkpt lat="42.37697" lon="2.20305">
        <ele>1628.5</ele>
        <time>2024-09-25T11:27:59Z</time>
      </trkpt>
      <trkpt lat="42.37697" lon="2.20305">
        <ele>1628.5</ele>
        <time>2024-09-25T11:28:00Z</time>
      </trkpt>
      <trkpt lat="42.37697" lon="2.20306">
        <ele>1628.5</ele>
        <time>2024-09-25T11:28:01Z</time>
      </trkpt>
      <trkpt lat="42.37697" lon="2.20306">
        <ele>1628.5</ele>
        <time>2024-09-25T11:28:02Z</time>
      </trkpt>
      <trkpt lat="42.37697" lon="2.20306">
        <ele>1628.5</ele>
        <time>2024-09-25T11:28:03Z</time>
      </trkpt>
      <trkpt lat="42.37697" lon="2.20306">
        <ele>1628.5</ele>
        <time>2024-09-25T11:28:04Z</time>
      </trkpt>
      <trkpt lat="42.37697" lon="2.20306">
        <ele>1628.5</ele>
        <time>2024-09-25T11:28:05Z</time>
      </trkpt>
      <trkpt lat="42.37697" lon="2.20306">
        <ele>1628.5</ele>
        <time>2024-09-25T11:28:06Z</time>
      </trkpt>
      <trkpt lat="42.37697" lon="2.20306">
        <ele>1628.4</ele>
        <time>2024-09-25T11:28:07Z</time>
      </trkpt>
      <trkpt lat="42.37697" lon="2.20306">
        <ele>1628.4</ele>
        <time>2024-09-25T11:28:08Z</time>
      </trkpt>
      <trkpt lat="42.37697" lon="2.20306">
        <ele>1628.4</ele>
        <time>2024-09-25T11:28:09Z</time>
      </trkpt>
      <trkpt lat="42.37697" lon="2.20306">
        <ele>1628.4</ele>
        <time>2024-09-25T11:28:10Z</time>
      </trkpt>
      <trkpt lat="42.37697" lon="2.20306">
        <ele>1628.4</ele>
        <time>2024-09-25T11:28:11Z</time>
      </trkpt>
      <trkpt lat="42.37697" lon="2.20306">
        <ele>1628.4</ele>
        <time>2024-09-25T11:28:12Z</time>
      </trkpt>
      <trkpt lat="42.37697" lon="2.20306">
        <ele>1628.4</ele>
        <time>2024-09-25T11:28:13Z</time>
      </trkpt>
      <trkpt lat="42.37697" lon="2.20306">
        <ele>1628.4</ele>
        <time>2024-09-25T11:28:14Z</time>
      </trkpt>
      <trkpt lat="42.37697" lon="2.20306">
        <ele>1628.4</ele>
        <time>2024-09-25T11:28:15Z</time>
      </trkpt>
      <trkpt lat="42.37697" lon="2.20306">
        <ele>1628.4</ele>
        <time>2024-09-25T11:28:16Z</time>
      </trkpt>
      <trkpt lat="42.37697" lon="2.20306">
        <ele>1628.4</ele>
        <time>2024-09-25T11:28:17Z</time>
      </trkpt>
      <trkpt lat="42.37697" lon="2.20306">
        <ele>1628.4</ele>
        <time>2024-09-25T11:28:18Z</time>
      </trkpt>
      <trkpt lat="42.37697" lon="2.20306">
        <ele>1628.4</ele>
        <time>2024-09-25T11:28:19Z</time>
      </trkpt>
      <trkpt lat="42.37697" lon="2.20306">
        <ele>1628.4</ele>
        <time>2024-09-25T11:28:20Z</time>
      </trkpt>
      <trkpt lat="42.37697" lon="2.20306">
        <ele>1628.4</ele>
        <time>2024-09-25T11:28:21Z</time>
      </trkpt>
      <trkpt lat="42.37697" lon="2.20306">
        <ele>1628.3</ele>
        <time>2024-09-25T11:28:22Z</time>
      </trkpt>
      <trkpt lat="42.37697" lon="2.20306">
        <ele>1628.3</ele>
        <time>2024-09-25T11:28:23Z</time>
      </trkpt>
      <trkpt lat="42.37697" lon="2.20306">
        <ele>1628.3</ele>
        <time>2024-09-25T11:28:24Z</time>
      </trkpt>
      <trkpt lat="42.37697" lon="2.20306">
        <ele>1628.3</ele>
        <time>2024-09-25T11:28:25Z</time>
      </trkpt>
      <trkpt lat="42.37697" lon="2.20306">
        <ele>1628.3</ele>
        <time>2024-09-25T11:28:26Z</time>
      </trkpt>
      <trkpt lat="42.37697" lon="2.20306">
        <ele>1628.3</ele>
        <time>2024-09-25T11:28:27Z</time>
      </trkpt>
      <trkpt lat="42.37697" lon="2.20306">
        <ele>1628.3</ele>
        <time>2024-09-25T11:28:28Z</time>
      </trkpt>
      <trkpt lat="42.37697" lon="2.20306">
        <ele>1628.3</ele>
        <time>2024-09-25T11:28:29Z</time>
      </trkpt>
      <trkpt lat="42.37697" lon="2.20306">
        <ele>1628.3</ele>
        <time>2024-09-25T11:28:30Z</time>
      </trkpt>
      <trkpt lat="42.37697" lon="2.20306">
        <ele>1628.3</ele>
        <time>2024-09-25T11:28:31Z</time>
      </trkpt>
      <trkpt lat="42.37697" lon="2.20306">
        <ele>1628.3</ele>
        <time>2024-09-25T11:28:32Z</time>
      </trkpt>
      <trkpt lat="42.37697" lon="2.20306">
        <ele>1628.3</ele>
        <time>2024-09-25T11:28:33Z</time>
      </trkpt>
      <trkpt lat="42.37697" lon="2.20306">
        <ele>1628.3</ele>
        <time>2024-09-25T11:28:34Z</time>
      </trkpt>
      <trkpt lat="42.37697" lon="2.20306">
        <ele>1628.3</ele>
        <time>2024-09-25T11:28:35Z</time>
      </trkpt>
      <trkpt lat="42.37697" lon="2.20306">
        <ele>1628.3</ele>
        <time>2024-09-25T11:28:36Z</time>
      </trkpt>
      <trkpt lat="42.37697" lon="2.20306">
        <ele>1628.2</ele>
        <time>2024-09-25T11:28:37Z</time>
      </trkpt>
      <trkpt lat="42.37697" lon="2.20306">
        <ele>1628.2</ele>
        <time>2024-09-25T11:28:38Z</time>
      </trkpt>
      <trkpt lat="42.37697" lon="2.20306">
        <ele>1628.2</ele>
        <time>2024-09-25T11:28:39Z</time>
      </trkpt>
      <trkpt lat="42.37697" lon="2.20306">
        <ele>1628.2</ele>
        <time>2024-09-25T11:28:40Z</time>
      </trkpt>
      <trkpt lat="42.37697" lon="2.20306">
        <ele>1628.2</ele>
        <time>2024-09-25T11:28:41Z</time>
      </trkpt>
      <trkpt lat="42.37697" lon="2.20306">
        <ele>1628.2</ele>
        <time>2024-09-25T11:28:42Z</time>
      </trkpt>
      <trkpt lat="42.37697" lon="2.20306">
        <ele>1628.2</ele>
        <time>2024-09-25T11:28:43Z</time>
      </trkpt>
      <trkpt lat="42.37697" lon="2.20306">
        <ele>1628.2</ele>
        <time>2024-09-25T11:28:44Z</time>
      </trkpt>
      <trkpt lat="42.37697" lon="2.20306">
        <ele>1628.2</ele>
        <time>2024-09-25T11:28:45Z</time>
      </trkpt>
      <trkpt lat="42.37697" lon="2.20306">
        <ele>1628.2</ele>
        <time>2024-09-25T11:28:46Z</time>
      </trkpt>
      <trkpt lat="42.37697" lon="2.20306">
        <ele>1628.2</ele>
        <time>2024-09-25T11:28:47Z</time>
      </trkpt>
      <trkpt lat="42.37697" lon="2.20306">
        <ele>1628.2</ele>
        <time>2024-09-25T11:28:48Z</time>
      </trkpt>
      <trkpt lat="42.37697" lon="2.20306">
        <ele>1628.2</ele>
        <time>2024-09-25T11:28:49Z</time>
      </trkpt>
      <trkpt lat="42.37697" lon="2.20306">
        <ele>1628.2</ele>
        <time>2024-09-25T11:28:50Z</time>
      </trkpt>
      <trkpt lat="42.37697" lon="2.20306">
        <ele>1628.2</ele>
        <time>2024-09-25T11:28:51Z</time>
      </trkpt>
      <trkpt lat="42.37697" lon="2.20306">
        <ele>1628.2</ele>
        <time>2024-09-25T11:28:52Z</time>
      </trkpt>
      <trkpt lat="42.37697" lon="2.20306">
        <ele>1628.1</ele>
        <time>2024-09-25T11:28:53Z</time>
      </trkpt>
      <trkpt lat="42.37697" lon="2.20306">
        <ele>1628.1</ele>
        <time>2024-09-25T11:28:54Z</time>
      </trkpt>
      <trkpt lat="42.37697" lon="2.20306">
        <ele>1628.1</ele>
        <time>2024-09-25T11:28:55Z</time>
      </trkpt>
      <trkpt lat="42.37697" lon="2.20306">
        <ele>1628.1</ele>
        <time>2024-09-25T11:28:56Z</time>
      </trkpt>
      <trkpt lat="42.37697" lon="2.20306">
        <ele>1628.1</ele>
        <time>2024-09-25T11:28:57Z</time>
      </trkpt>
      <trkpt lat="42.37697" lon="2.20306">
        <ele>1628.1</ele>
        <time>2024-09-25T11:28:58Z</time>
      </trkpt>
      <trkpt lat="42.37697" lon="2.20306">
        <ele>1628.1</ele>
        <time>2024-09-25T11:28:59Z</time>
      </trkpt>
      <trkpt lat="42.37697" lon="2.20306">
        <ele>1628.1</ele>
        <time>2024-09-25T11:29:00Z</time>
      </trkpt>
      <trkpt lat="42.37697" lon="2.20306">
        <ele>1628.1</ele>
        <time>2024-09-25T11:29:01Z</time>
      </trkpt>
      <trkpt lat="42.37697" lon="2.20306">
        <ele>1628.1</ele>
        <time>2024-09-25T11:29:02Z</time>
      </trkpt>
      <trkpt lat="42.37697" lon="2.20306">
        <ele>1628.1</ele>
        <time>2024-09-25T11:29:03Z</time>
      </trkpt>
      <trkpt lat="42.37697" lon="2.20306">
        <ele>1628.1</ele>
        <time>2024-09-25T11:29:04Z</time>
      </trkpt>
      <trkpt lat="42.37697" lon="2.20306">
        <ele>1628.1</ele>
        <time>2024-09-25T11:29:05Z</time>
      </trkpt>
      <trkpt lat="42.37697" lon="2.20306">
        <ele>1628.1</ele>
        <time>2024-09-25T11:29:06Z</time>
      </trkpt>
      <trkpt lat="42.37697" lon="2.20306">
        <ele>1628.1</ele>
        <time>2024-09-25T11:29:07Z</time>
      </trkpt>
      <trkpt lat="42.37697" lon="2.20306">
        <ele>1628</ele>
        <time>2024-09-25T11:29:08Z</time>
      </trkpt>
      <trkpt lat="42.37697" lon="2.20306">
        <ele>1628</ele>
        <time>2024-09-25T11:29:09Z</time>
      </trkpt>
      <trkpt lat="42.37697" lon="2.20306">
        <ele>1628</ele>
        <time>2024-09-25T11:29:10Z</time>
      </trkpt>
      <trkpt lat="42.37697" lon="2.20306">
        <ele>1628</ele>
        <time>2024-09-25T11:29:11Z</time>
      </trkpt>
      <trkpt lat="42.37697" lon="2.20306">
        <ele>1628</ele>
        <time>2024-09-25T11:29:12Z</time>
      </trkpt>
      <trkpt lat="42.37697" lon="2.20306">
        <ele>1628</ele>
        <time>2024-09-25T11:29:13Z</time>
      </trkpt>
      <trkpt lat="42.37697" lon="2.20306">
        <ele>1628</ele>
        <time>2024-09-25T11:29:14Z</time>
      </trkpt>
      <trkpt lat="42.37697" lon="2.20306">
        <ele>1628</ele>
        <time>2024-09-25T11:29:15Z</time>
      </trkpt>
      <trkpt lat="42.37697" lon="2.20306">
        <ele>1628</ele>
        <time>2024-09-25T11:29:16Z</time>
      </trkpt>
      <trkpt lat="42.37697" lon="2.20306">
        <ele>1628</ele>
        <time>2024-09-25T11:29:17Z</time>
      </trkpt>
      <trkpt lat="42.37697" lon="2.20306">
        <ele>1628</ele>
        <time>2024-09-25T11:29:18Z</time>
      </trkpt>
      <trkpt lat="42.37697" lon="2.20306">
        <ele>1628</ele>
        <time>2024-09-25T11:29:19Z</time>
      </trkpt>
      <trkpt lat="42.37697" lon="2.20306">
        <ele>1628</ele>
        <time>2024-09-25T11:29:20Z</time>
      </trkpt>
      <trkpt lat="42.37697" lon="2.20306">
        <ele>1628</ele>
        <time>2024-09-25T11:29:21Z</time>
      </trkpt>
      <trkpt lat="42.37697" lon="2.20306">
        <ele>1628</ele>
        <time>2024-09-25T11:29:22Z</time>
      </trkpt>
      <trkpt lat="42.37697" lon="2.20306">
        <ele>1627.9</ele>
        <time>2024-09-25T11:29:23Z</time>
      </trkpt>
      <trkpt lat="42.37697" lon="2.20306">
        <ele>1627.9</ele>
        <time>2024-09-25T11:29:24Z</time>
      </trkpt>
      <trkpt lat="42.37697" lon="2.20305">
        <ele>1627.9</ele>
        <time>2024-09-25T11:29:25Z</time>
      </trkpt>
      <trkpt lat="42.37697" lon="2.20305">
        <ele>1627.9</ele>
        <time>2024-09-25T11:29:26Z</time>
      </trkpt>
      <trkpt lat="42.37697" lon="2.20305">
        <ele>1627.9</ele>
        <time>2024-09-25T11:29:27Z</time>
      </trkpt>
      <trkpt lat="42.37697" lon="2.20305">
        <ele>1627.9</ele>
        <time>2024-09-25T11:29:28Z</time>
      </trkpt>
      <trkpt lat="42.37697" lon="2.20305">
        <ele>1627.9</ele>
        <time>2024-09-25T11:29:29Z</time>
      </trkpt>
      <trkpt lat="42.37697" lon="2.20305">
        <ele>1627.9</ele>
        <time>2024-09-25T11:29:30Z</time>
      </trkpt>
      <trkpt lat="42.37697" lon="2.20305">
        <ele>1627.9</ele>
        <time>2024-09-25T11:29:31Z</time>
      </trkpt>
      <trkpt lat="42.37697" lon="2.20305">
        <ele>1627.9</ele>
        <time>2024-09-25T11:29:32Z</time>
      </trkpt>
      <trkpt lat="42.37697" lon="2.20305">
        <ele>1627.9</ele>
        <time>2024-09-25T11:29:33Z</time>
      </trkpt>
      <trkpt lat="42.37697" lon="2.20305">
        <ele>1627.9</ele>
        <time>2024-09-25T11:29:34Z</time>
      </trkpt>
      <trkpt lat="42.37697" lon="2.20305">
        <ele>1627.9</ele>
        <time>2024-09-25T11:29:35Z</time>
      </trkpt>
      <trkpt lat="42.37697" lon="2.20305">
        <ele>1627.9</ele>
        <time>2024-09-25T11:29:36Z</time>
      </trkpt>
      <trkpt lat="42.37697" lon="2.20305">
        <ele>1627.9</ele>
        <time>2024-09-25T11:29:37Z</time>
      </trkpt>
      <trkpt lat="42.37697" lon="2.20305">
        <ele>1627.8</ele>
        <time>2024-09-25T11:29:38Z</time>
      </trkpt>
      <trkpt lat="42.37697" lon="2.20305">
        <ele>1627.8</ele>
        <time>2024-09-25T11:29:39Z</time>
      </trkpt>
      <trkpt lat="42.37697" lon="2.20305">
        <ele>1627.8</ele>
        <time>2024-09-25T11:29:40Z</time>
      </trkpt>
      <trkpt lat="42.37697" lon="2.20305">
        <ele>1627.8</ele>
        <time>2024-09-25T11:29:41Z</time>
      </trkpt>
      <trkpt lat="42.37697" lon="2.20305">
        <ele>1627.8</ele>
        <time>2024-09-25T11:29:42Z</time>
      </trkpt>
      <trkpt lat="42.37697" lon="2.20305">
        <ele>1627.8</ele>
        <time>2024-09-25T11:29:43Z</time>
      </trkpt>
      <trkpt lat="42.37697" lon="2.20305">
        <ele>1627.8</ele>
        <time>2024-09-25T11:29:44Z</time>
      </trkpt>
      <trkpt lat="42.37697" lon="2.20305">
        <ele>1627.8</ele>
        <time>2024-09-25T11:29:45Z</time>
      </trkpt>
      <trkpt lat="42.37697" lon="2.20305">
        <ele>1627.8</ele>
        <time>2024-09-25T11:29:46Z</time>
      </trkpt>
      <trkpt lat="42.37697" lon="2.20305">
        <ele>1627.8</ele>
        <time>2024-09-25T11:29:47Z</time>
      </trkpt>
      <trkpt lat="42.37697" lon="2.20306">
        <ele>1627.8</ele>
        <time>2024-09-25T11:29:48Z</time>
      </trkpt>
      <trkpt lat="42.37697" lon="2.20306">
        <ele>1627.8</ele>
        <time>2024-09-25T11:29:49Z</time>
      </trkpt>
      <trkpt lat="42.37697" lon="2.20305">
        <ele>1627.8</ele>
        <time>2024-09-25T11:29:50Z</time>
      </trkpt>
      <trkpt lat="42.37697" lon="2.20305">
        <ele>1627.8</ele>
        <time>2024-09-25T11:29:51Z</time>
      </trkpt>
      <trkpt lat="42.37697" lon="2.20305">
        <ele>1627.8</ele>
        <time>2024-09-25T11:29:52Z</time>
      </trkpt>
      <trkpt lat="42.37697" lon="2.20305">
        <ele>1627.7</ele>
        <time>2024-09-25T11:29:53Z</time>
      </trkpt>
      <trkpt lat="42.37697" lon="2.20305">
        <ele>1627.7</ele>
        <time>2024-09-25T11:29:54Z</time>
      </trkpt>
      <trkpt lat="42.37697" lon="2.20305">
        <ele>1627.7</ele>
        <time>2024-09-25T11:29:55Z</time>
      </trkpt>
      <trkpt lat="42.37697" lon="2.20305">
        <ele>1627.7</ele>
        <time>2024-09-25T11:29:56Z</time>
      </trkpt>
      <trkpt lat="42.37697" lon="2.20305">
        <ele>1627.7</ele>
        <time>2024-09-25T11:29:57Z</time>
      </trkpt>
      <trkpt lat="42.37697" lon="2.20305">
        <ele>1627.7</ele>
        <time>2024-09-25T11:29:58Z</time>
      </trkpt>
      <trkpt lat="42.37697" lon="2.20305">
        <ele>1627.7</ele>
        <time>2024-09-25T11:29:59Z</time>
      </trkpt>
      <trkpt lat="42.37697" lon="2.20305">
        <ele>1627.7</ele>
        <time>2024-09-25T11:30:00Z</time>
      </trkpt>
      <trkpt lat="42.37697" lon="2.20305">
        <ele>1627.7</ele>
        <time>2024-09-25T11:30:01Z</time>
      </trkpt>
      <trkpt lat="42.37697" lon="2.20305">
        <ele>1627.7</ele>
        <time>2024-09-25T11:30:02Z</time>
      </trkpt>
      <trkpt lat="42.37697" lon="2.20305">
        <ele>1627.7</ele>
        <time>2024-09-25T11:30:03Z</time>
      </trkpt>
      <trkpt lat="42.37697" lon="2.20305">
        <ele>1627.7</ele>
        <time>2024-09-25T11:30:04Z</time>
      </trkpt>
      <trkpt lat="42.37697" lon="2.20305">
        <ele>1627.7</ele>
        <time>2024-09-25T11:30:05Z</time>
      </trkpt>
      <trkpt lat="42.37697" lon="2.20305">
        <ele>1627.7</ele>
        <time>2024-09-25T11:30:06Z</time>
      </trkpt>
      <trkpt lat="42.37697" lon="2.20305">
        <ele>1627.7</ele>
        <time>2024-09-25T11:30:07Z</time>
      </trkpt>
      <trkpt lat="42.37697" lon="2.20305">
        <ele>1627.7</ele>
        <time>2024-09-25T11:30:08Z</time>
      </trkpt>
      <trkpt lat="42.37697" lon="2.20306">
        <ele>1627.6</ele>
        <time>2024-09-25T11:30:09Z</time>
      </trkpt>
      <trkpt lat="42.37697" lon="2.20306">
        <ele>1627.6</ele>
        <time>2024-09-25T11:30:10Z</time>
      </trkpt>
      <trkpt lat="42.37697" lon="2.20306">
        <ele>1628.5</ele>
        <time>2024-09-25T11:30:11Z</time>
      </trkpt>
      <trkpt lat="42.37698" lon="2.20306">
        <ele>1628.5</ele>
        <time>2024-09-25T11:30:12Z</time>
      </trkpt>
      <trkpt lat="42.37698" lon="2.20306">
        <ele>1628.5</ele>
        <time>2024-09-25T11:30:13Z</time>
      </trkpt>
      <trkpt lat="42.37698" lon="2.20306">
        <ele>1628.5</ele>
        <time>2024-09-25T11:30:14Z</time>
      </trkpt>
      <trkpt lat="42.37698" lon="2.20306">
        <ele>1628.5</ele>
        <time>2024-09-25T11:30:15Z</time>
      </trkpt>
      <trkpt lat="42.37698" lon="2.20306">
        <ele>1628.5</ele>
        <time>2024-09-25T11:30:16Z</time>
      </trkpt>
      <trkpt lat="42.37698" lon="2.20306">
        <ele>1628.5</ele>
        <time>2024-09-25T11:30:17Z</time>
      </trkpt>
      <trkpt lat="42.37698" lon="2.20306">
        <ele>1628.4</ele>
        <time>2024-09-25T11:30:18Z</time>
      </trkpt>
      <trkpt lat="42.37698" lon="2.20306">
        <ele>1628.4</ele>
        <time>2024-09-25T11:30:19Z</time>
      </trkpt>
      <trkpt lat="42.37698" lon="2.20306">
        <ele>1628.4</ele>
        <time>2024-09-25T11:30:20Z</time>
      </trkpt>
      <trkpt lat="42.37698" lon="2.20306">
        <ele>1628.4</ele>
        <time>2024-09-25T11:30:21Z</time>
      </trkpt>
      <trkpt lat="42.37698" lon="2.20306">
        <ele>1628.4</ele>
        <time>2024-09-25T11:30:22Z</time>
      </trkpt>
      <trkpt lat="42.37698" lon="2.20306">
        <ele>1628.4</ele>
        <time>2024-09-25T11:30:23Z</time>
      </trkpt>
      <trkpt lat="42.37698" lon="2.20306">
        <ele>1628.4</ele>
        <time>2024-09-25T11:30:24Z</time>
      </trkpt>
      <trkpt lat="42.37698" lon="2.20306">
        <ele>1628.4</ele>
        <time>2024-09-25T11:30:25Z</time>
      </trkpt>
      <trkpt lat="42.37698" lon="2.20306">
        <ele>1628.4</ele>
        <time>2024-09-25T11:30:26Z</time>
      </trkpt>
      <trkpt lat="42.37698" lon="2.20306">
        <ele>1628.4</ele>
        <time>2024-09-25T11:30:27Z</time>
      </trkpt>
      <trkpt lat="42.37698" lon="2.20306">
        <ele>1628.4</ele>
        <time>2024-09-25T11:30:28Z</time>
      </trkpt>
      <trkpt lat="42.37698" lon="2.20306">
        <ele>1628.4</ele>
        <time>2024-09-25T11:30:29Z</time>
      </trkpt>
      <trkpt lat="42.37698" lon="2.20306">
        <ele>1628.4</ele>
        <time>2024-09-25T11:30:30Z</time>
      </trkpt>
      <trkpt lat="42.37698" lon="2.20306">
        <ele>1628.4</ele>
        <time>2024-09-25T11:30:31Z</time>
      </trkpt>
      <trkpt lat="42.37698" lon="2.20306">
        <ele>1628.4</ele>
        <time>2024-09-25T11:30:32Z</time>
      </trkpt>
      <trkpt lat="42.37698" lon="2.20306">
        <ele>1628.3</ele>
        <time>2024-09-25T11:30:33Z</time>
      </trkpt>
      <trkpt lat="42.37698" lon="2.20306">
        <ele>1628.3</ele>
        <time>2024-09-25T11:30:34Z</time>
      </trkpt>
      <trkpt lat="42.37698" lon="2.20306">
        <ele>1628.3</ele>
        <time>2024-09-25T11:30:35Z</time>
      </trkpt>
      <trkpt lat="42.37698" lon="2.20306">
        <ele>1628.3</ele>
        <time>2024-09-25T11:30:36Z</time>
      </trkpt>
      <trkpt lat="42.37698" lon="2.20307">
        <ele>1628.3</ele>
        <time>2024-09-25T11:30:37Z</time>
      </trkpt>
      <trkpt lat="42.37698" lon="2.20307">
        <ele>1628.3</ele>
        <time>2024-09-25T11:30:38Z</time>
      </trkpt>
      <trkpt lat="42.37698" lon="2.20307">
        <ele>1628.3</ele>
        <time>2024-09-25T11:30:39Z</time>
      </trkpt>
      <trkpt lat="42.37698" lon="2.20307">
        <ele>1628.3</ele>
        <time>2024-09-25T11:30:40Z</time>
      </trkpt>
      <trkpt lat="42.37698" lon="2.20307">
        <ele>1628.3</ele>
        <time>2024-09-25T11:30:41Z</time>
      </trkpt>
      <trkpt lat="42.37698" lon="2.20307">
        <ele>1628.3</ele>
        <time>2024-09-25T11:30:42Z</time>
      </trkpt>
      <trkpt lat="42.37698" lon="2.20307">
        <ele>1628.3</ele>
        <time>2024-09-25T11:30:43Z</time>
      </trkpt>
      <trkpt lat="42.37698" lon="2.20307">
        <ele>1628.3</ele>
        <time>2024-09-25T11:30:44Z</time>
      </trkpt>
      <trkpt lat="42.37698" lon="2.20307">
        <ele>1628.3</ele>
        <time>2024-09-25T11:30:45Z</time>
      </trkpt>
      <trkpt lat="42.37698" lon="2.20307">
        <ele>1628.3</ele>
        <time>2024-09-25T11:30:46Z</time>
      </trkpt>
      <trkpt lat="42.37698" lon="2.20307">
        <ele>1628.3</ele>
        <time>2024-09-25T11:30:47Z</time>
      </trkpt>
      <trkpt lat="42.37698" lon="2.20307">
        <ele>1628.3</ele>
        <time>2024-09-25T11:30:48Z</time>
      </trkpt>
      <trkpt lat="42.37698" lon="2.20307">
        <ele>1628.2</ele>
        <time>2024-09-25T11:30:49Z</time>
      </trkpt>
      <trkpt lat="42.37698" lon="2.20307">
        <ele>1628.2</ele>
        <time>2024-09-25T11:30:50Z</time>
      </trkpt>
      <trkpt lat="42.37698" lon="2.20307">
        <ele>1628.2</ele>
        <time>2024-09-25T11:30:51Z</time>
      </trkpt>
      <trkpt lat="42.37698" lon="2.20307">
        <ele>1628.2</ele>
        <time>2024-09-25T11:30:52Z</time>
      </trkpt>
      <trkpt lat="42.37698" lon="2.20307">
        <ele>1628.2</ele>
        <time>2024-09-25T11:30:53Z</time>
      </trkpt>
      <trkpt lat="42.37698" lon="2.20307">
        <ele>1628.2</ele>
        <time>2024-09-25T11:30:54Z</time>
      </trkpt>
      <trkpt lat="42.37698" lon="2.20307">
        <ele>1628.2</ele>
        <time>2024-09-25T11:30:55Z</time>
      </trkpt>
      <trkpt lat="42.37698" lon="2.20307">
        <ele>1628.2</ele>
        <time>2024-09-25T11:30:56Z</time>
      </trkpt>
      <trkpt lat="42.37698" lon="2.20307">
        <ele>1628.2</ele>
        <time>2024-09-25T11:30:57Z</time>
      </trkpt>
      <trkpt lat="42.37698" lon="2.20307">
        <ele>1628.2</ele>
        <time>2024-09-25T11:30:58Z</time>
      </trkpt>
      <trkpt lat="42.37698" lon="2.20307">
        <ele>1628.2</ele>
        <time>2024-09-25T11:30:59Z</time>
      </trkpt>
      <trkpt lat="42.37698" lon="2.20307">
        <ele>1628.2</ele>
        <time>2024-09-25T11:31:00Z</time>
      </trkpt>
      <trkpt lat="42.37698" lon="2.20307">
        <ele>1628.2</ele>
        <time>2024-09-25T11:31:01Z</time>
      </trkpt>
      <trkpt lat="42.37698" lon="2.20307">
        <ele>1628.2</ele>
        <time>2024-09-25T11:31:02Z</time>
      </trkpt>
      <trkpt lat="42.37698" lon="2.20307">
        <ele>1628.2</ele>
        <time>2024-09-25T11:31:03Z</time>
      </trkpt>
      <trkpt lat="42.37698" lon="2.20307">
        <ele>1628.1</ele>
        <time>2024-09-25T11:31:04Z</time>
      </trkpt>
      <trkpt lat="42.37698" lon="2.20307">
        <ele>1628.1</ele>
        <time>2024-09-25T11:31:05Z</time>
      </trkpt>
      <trkpt lat="42.37698" lon="2.20307">
        <ele>1628.1</ele>
        <time>2024-09-25T11:31:06Z</time>
      </trkpt>
      <trkpt lat="42.37698" lon="2.20307">
        <ele>1628.1</ele>
        <time>2024-09-25T11:31:07Z</time>
      </trkpt>
      <trkpt lat="42.37698" lon="2.20307">
        <ele>1628.1</ele>
        <time>2024-09-25T11:31:08Z</time>
      </trkpt>
      <trkpt lat="42.37698" lon="2.20307">
        <ele>1628.1</ele>
        <time>2024-09-25T11:31:09Z</time>
      </trkpt>
      <trkpt lat="42.37698" lon="2.20307">
        <ele>1628.1</ele>
        <time>2024-09-25T11:31:10Z</time>
      </trkpt>
      <trkpt lat="42.37698" lon="2.20307">
        <ele>1628.1</ele>
        <time>2024-09-25T11:31:11Z</time>
      </trkpt>
      <trkpt lat="42.37698" lon="2.20307">
        <ele>1628.1</ele>
        <time>2024-09-25T11:31:12Z</time>
      </trkpt>
      <trkpt lat="42.37697" lon="2.20307">
        <ele>1628.1</ele>
        <time>2024-09-25T11:31:13Z</time>
      </trkpt>
      <trkpt lat="42.37697" lon="2.20307">
        <ele>1628.1</ele>
        <time>2024-09-25T11:31:14Z</time>
      </trkpt>
      <trkpt lat="42.37697" lon="2.20307">
        <ele>1628.1</ele>
        <time>2024-09-25T11:31:15Z</time>
      </trkpt>
      <trkpt lat="42.37697" lon="2.20307">
        <ele>1628.1</ele>
        <time>2024-09-25T11:31:16Z</time>
      </trkpt>
      <trkpt lat="42.37697" lon="2.20307">
        <ele>1628.1</ele>
        <time>2024-09-25T11:31:17Z</time>
      </trkpt>
      <trkpt lat="42.37697" lon="2.20307">
        <ele>1628.1</ele>
        <time>2024-09-25T11:31:18Z</time>
      </trkpt>
      <trkpt lat="42.37697" lon="2.20307">
        <ele>1628</ele>
        <time>2024-09-25T11:31:19Z</time>
      </trkpt>
      <trkpt lat="42.37697" lon="2.20307">
        <ele>1628</ele>
        <time>2024-09-25T11:31:20Z</time>
      </trkpt>
      <trkpt lat="42.37697" lon="2.20307">
        <ele>1628</ele>
        <time>2024-09-25T11:31:21Z</time>
      </trkpt>
      <trkpt lat="42.37697" lon="2.20307">
        <ele>1628</ele>
        <time>2024-09-25T11:31:22Z</time>
      </trkpt>
      <trkpt lat="42.37697" lon="2.20307">
        <ele>1628</ele>
        <time>2024-09-25T11:31:23Z</time>
      </trkpt>
      <trkpt lat="42.37697" lon="2.20307">
        <ele>1628</ele>
        <time>2024-09-25T11:31:24Z</time>
      </trkpt>
      <trkpt lat="42.37697" lon="2.20307">
        <ele>1628</ele>
        <time>2024-09-25T11:31:25Z</time>
      </trkpt>
      <trkpt lat="42.37697" lon="2.20307">
        <ele>1628</ele>
        <time>2024-09-25T11:31:26Z</time>
      </trkpt>
      <trkpt lat="42.37697" lon="2.20307">
        <ele>1628</ele>
        <time>2024-09-25T11:31:27Z</time>
      </trkpt>
      <trkpt lat="42.37697" lon="2.20307">
        <ele>1628</ele>
        <time>2024-09-25T11:31:28Z</time>
      </trkpt>
      <trkpt lat="42.37697" lon="2.20307">
        <ele>1628</ele>
        <time>2024-09-25T11:31:29Z</time>
      </trkpt>
      <trkpt lat="42.37697" lon="2.20307">
        <ele>1628</ele>
        <time>2024-09-25T11:31:30Z</time>
      </trkpt>
      <trkpt lat="42.37697" lon="2.20307">
        <ele>1628</ele>
        <time>2024-09-25T11:31:31Z</time>
      </trkpt>
      <trkpt lat="42.37697" lon="2.20307">
        <ele>1628</ele>
        <time>2024-09-25T11:31:32Z</time>
      </trkpt>
      <trkpt lat="42.37697" lon="2.20307">
        <ele>1628</ele>
        <time>2024-09-25T11:31:33Z</time>
      </trkpt>
      <trkpt lat="42.37697" lon="2.20307">
        <ele>1627.9</ele>
        <time>2024-09-25T11:31:34Z</time>
      </trkpt>
      <trkpt lat="42.37697" lon="2.20307">
        <ele>1627.9</ele>
        <time>2024-09-25T11:31:35Z</time>
      </trkpt>
      <trkpt lat="42.37697" lon="2.20307">
        <ele>1627.9</ele>
        <time>2024-09-25T11:31:36Z</time>
      </trkpt>
      <trkpt lat="42.37697" lon="2.20307">
        <ele>1627.9</ele>
        <time>2024-09-25T11:31:37Z</time>
      </trkpt>
      <trkpt lat="42.37697" lon="2.20307">
        <ele>1627.9</ele>
        <time>2024-09-25T11:31:38Z</time>
      </trkpt>
      <trkpt lat="42.37697" lon="2.20307">
        <ele>1627.9</ele>
        <time>2024-09-25T11:31:39Z</time>
      </trkpt>
      <trkpt lat="42.37697" lon="2.20307">
        <ele>1627.9</ele>
        <time>2024-09-25T11:31:40Z</time>
      </trkpt>
      <trkpt lat="42.37697" lon="2.20307">
        <ele>1627.9</ele>
        <time>2024-09-25T11:31:41Z</time>
      </trkpt>
      <trkpt lat="42.37697" lon="2.20307">
        <ele>1627.9</ele>
        <time>2024-09-25T11:31:42Z</time>
      </trkpt>
      <trkpt lat="42.37697" lon="2.20307">
        <ele>1627.9</ele>
        <time>2024-09-25T11:31:43Z</time>
      </trkpt>
      <trkpt lat="42.37697" lon="2.20307">
        <ele>1627.9</ele>
        <time>2024-09-25T11:31:44Z</time>
      </trkpt>
      <trkpt lat="42.37697" lon="2.20307">
        <ele>1627.9</ele>
        <time>2024-09-25T11:31:45Z</time>
      </trkpt>
      <trkpt lat="42.37697" lon="2.20307">
        <ele>1627.9</ele>
        <time>2024-09-25T11:31:46Z</time>
      </trkpt>
      <trkpt lat="42.37697" lon="2.20307">
        <ele>1627.9</ele>
        <time>2024-09-25T11:31:47Z</time>
      </trkpt>
      <trkpt lat="42.37697" lon="2.20307">
        <ele>1627.9</ele>
        <time>2024-09-25T11:31:48Z</time>
      </trkpt>
      <trkpt lat="42.37697" lon="2.20307">
        <ele>1627.9</ele>
        <time>2024-09-25T11:31:49Z</time>
      </trkpt>
      <trkpt lat="42.37697" lon="2.20307">
        <ele>1627.8</ele>
        <time>2024-09-25T11:31:50Z</time>
      </trkpt>
      <trkpt lat="42.37697" lon="2.20307">
        <ele>1627.8</ele>
        <time>2024-09-25T11:31:51Z</time>
      </trkpt>
      <trkpt lat="42.37697" lon="2.20307">
        <ele>1627.8</ele>
        <time>2024-09-25T11:31:52Z</time>
      </trkpt>
      <trkpt lat="42.37697" lon="2.20307">
        <ele>1627.8</ele>
        <time>2024-09-25T11:31:53Z</time>
      </trkpt>
      <trkpt lat="42.37697" lon="2.20307">
        <ele>1627.8</ele>
        <time>2024-09-25T11:31:54Z</time>
      </trkpt>
      <trkpt lat="42.37697" lon="2.20307">
        <ele>1627.8</ele>
        <time>2024-09-25T11:31:55Z</time>
      </trkpt>
      <trkpt lat="42.37697" lon="2.20307">
        <ele>1627.8</ele>
        <time>2024-09-25T11:31:56Z</time>
      </trkpt>
      <trkpt lat="42.37697" lon="2.20307">
        <ele>1627.8</ele>
        <time>2024-09-25T11:31:57Z</time>
      </trkpt>
      <trkpt lat="42.37697" lon="2.20307">
        <ele>1627.8</ele>
        <time>2024-09-25T11:31:58Z</time>
      </trkpt>
      <trkpt lat="42.37697" lon="2.20307">
        <ele>1627.8</ele>
        <time>2024-09-25T11:31:59Z</time>
      </trkpt>
      <trkpt lat="42.37697" lon="2.20307">
        <ele>1627.8</ele>
        <time>2024-09-25T11:32:00Z</time>
      </trkpt>
      <trkpt lat="42.37697" lon="2.20307">
        <ele>1627.8</ele>
        <time>2024-09-25T11:32:01Z</time>
      </trkpt>
      <trkpt lat="42.37697" lon="2.20307">
        <ele>1627.8</ele>
        <time>2024-09-25T11:32:02Z</time>
      </trkpt>
      <trkpt lat="42.37697" lon="2.20307">
        <ele>1627.8</ele>
        <time>2024-09-25T11:32:03Z</time>
      </trkpt>
      <trkpt lat="42.37697" lon="2.20307">
        <ele>1627.8</ele>
        <time>2024-09-25T11:32:04Z</time>
      </trkpt>
      <trkpt lat="42.37697" lon="2.20307">
        <ele>1627.7</ele>
        <time>2024-09-25T11:32:05Z</time>
      </trkpt>
      <trkpt lat="42.37697" lon="2.20307">
        <ele>1627.7</ele>
        <time>2024-09-25T11:32:06Z</time>
      </trkpt>
      <trkpt lat="42.37697" lon="2.20307">
        <ele>1627.7</ele>
        <time>2024-09-25T11:32:07Z</time>
      </trkpt>
      <trkpt lat="42.37697" lon="2.20307">
        <ele>1627.7</ele>
        <time>2024-09-25T11:32:08Z</time>
      </trkpt>
      <trkpt lat="42.37697" lon="2.20307">
        <ele>1627.7</ele>
        <time>2024-09-25T11:32:09Z</time>
      </trkpt>
      <trkpt lat="42.37697" lon="2.20307">
        <ele>1627.7</ele>
        <time>2024-09-25T11:32:10Z</time>
      </trkpt>
      <trkpt lat="42.37697" lon="2.20307">
        <ele>1627.7</ele>
        <time>2024-09-25T11:32:11Z</time>
      </trkpt>
      <trkpt lat="42.37697" lon="2.20307">
        <ele>1627.7</ele>
        <time>2024-09-25T11:32:12Z</time>
      </trkpt>
      <trkpt lat="42.37697" lon="2.20307">
        <ele>1627.7</ele>
        <time>2024-09-25T11:32:13Z</time>
      </trkpt>
      <trkpt lat="42.37697" lon="2.20307">
        <ele>1627.7</ele>
        <time>2024-09-25T11:32:14Z</time>
      </trkpt>
      <trkpt lat="42.37697" lon="2.20307">
        <ele>1627.7</ele>
        <time>2024-09-25T11:32:15Z</time>
      </trkpt>
      <trkpt lat="42.37697" lon="2.20307">
        <ele>1627.7</ele>
        <time>2024-09-25T11:32:16Z</time>
      </trkpt>
      <trkpt lat="42.37697" lon="2.20307">
        <ele>1627.7</ele>
        <time>2024-09-25T11:32:17Z</time>
      </trkpt>
      <trkpt lat="42.37697" lon="2.20307">
        <ele>1627.7</ele>
        <time>2024-09-25T11:32:18Z</time>
      </trkpt>
      <trkpt lat="42.37697" lon="2.20307">
        <ele>1627.7</ele>
        <time>2024-09-25T11:32:19Z</time>
      </trkpt>
      <trkpt lat="42.37697" lon="2.20307">
        <ele>1627.6</ele>
        <time>2024-09-25T11:32:20Z</time>
      </trkpt>
      <trkpt lat="42.37697" lon="2.20307">
        <ele>1627.6</ele>
        <time>2024-09-25T11:32:21Z</time>
      </trkpt>
      <trkpt lat="42.37697" lon="2.20307">
        <ele>1627.6</ele>
        <time>2024-09-25T11:32:22Z</time>
      </trkpt>
      <trkpt lat="42.37697" lon="2.20307">
        <ele>1627.6</ele>
        <time>2024-09-25T11:32:23Z</time>
      </trkpt>
      <trkpt lat="42.37697" lon="2.20307">
        <ele>1627.6</ele>
        <time>2024-09-25T11:32:24Z</time>
      </trkpt>
      <trkpt lat="42.37697" lon="2.20307">
        <ele>1627.6</ele>
        <time>2024-09-25T11:32:25Z</time>
      </trkpt>
      <trkpt lat="42.37697" lon="2.20307">
        <ele>1627.6</ele>
        <time>2024-09-25T11:32:26Z</time>
      </trkpt>
      <trkpt lat="42.37697" lon="2.20307">
        <ele>1627.6</ele>
        <time>2024-09-25T11:32:27Z</time>
      </trkpt>
      <trkpt lat="42.37697" lon="2.20307">
        <ele>1627.6</ele>
        <time>2024-09-25T11:32:28Z</time>
      </trkpt>
      <trkpt lat="42.37697" lon="2.20307">
        <ele>1627.6</ele>
        <time>2024-09-25T11:32:29Z</time>
      </trkpt>
      <trkpt lat="42.37697" lon="2.20307">
        <ele>1627.6</ele>
        <time>2024-09-25T11:32:30Z</time>
      </trkpt>
      <trkpt lat="42.37697" lon="2.20307">
        <ele>1627.6</ele>
        <time>2024-09-25T11:32:31Z</time>
      </trkpt>
      <trkpt lat="42.37697" lon="2.20307">
        <ele>1627.6</ele>
        <time>2024-09-25T11:32:32Z</time>
      </trkpt>
      <trkpt lat="42.37697" lon="2.20307">
        <ele>1627.6</ele>
        <time>2024-09-25T11:32:33Z</time>
      </trkpt>
      <trkpt lat="42.37697" lon="2.20307">
        <ele>1627.6</ele>
        <time>2024-09-25T11:32:34Z</time>
      </trkpt>
      <trkpt lat="42.37697" lon="2.20307">
        <ele>1627.5</ele>
        <time>2024-09-25T11:32:35Z</time>
      </trkpt>
      <trkpt lat="42.37697" lon="2.20307">
        <ele>1627.5</ele>
        <time>2024-09-25T11:32:36Z</time>
      </trkpt>
      <trkpt lat="42.37697" lon="2.20307">
        <ele>1627.5</ele>
        <time>2024-09-25T11:32:37Z</time>
      </trkpt>
      <trkpt lat="42.37697" lon="2.20307">
        <ele>1627.5</ele>
        <time>2024-09-25T11:32:38Z</time>
      </trkpt>
      <trkpt lat="42.37697" lon="2.20307">
        <ele>1627.5</ele>
        <time>2024-09-25T11:32:39Z</time>
      </trkpt>
      <trkpt lat="42.37697" lon="2.20307">
        <ele>1627.5</ele>
        <time>2024-09-25T11:32:40Z</time>
      </trkpt>
      <trkpt lat="42.37697" lon="2.20307">
        <ele>1627.5</ele>
        <time>2024-09-25T11:32:41Z</time>
      </trkpt>
      <trkpt lat="42.37697" lon="2.20307">
        <ele>1627.5</ele>
        <time>2024-09-25T11:32:42Z</time>
      </trkpt>
      <trkpt lat="42.37697" lon="2.20307">
        <ele>1627.5</ele>
        <time>2024-09-25T11:32:43Z</time>
      </trkpt>
      <trkpt lat="42.37697" lon="2.20307">
        <ele>1627.5</ele>
        <time>2024-09-25T11:32:44Z</time>
      </trkpt>
      <trkpt lat="42.37697" lon="2.20307">
        <ele>1627.5</ele>
        <time>2024-09-25T11:32:45Z</time>
      </trkpt>
      <trkpt lat="42.37697" lon="2.20307">
        <ele>1627.5</ele>
        <time>2024-09-25T11:32:46Z</time>
      </trkpt>
      <trkpt lat="42.37697" lon="2.20307">
        <ele>1627.5</ele>
        <time>2024-09-25T11:32:47Z</time>
      </trkpt>
      <trkpt lat="42.37697" lon="2.20307">
        <ele>1627.5</ele>
        <time>2024-09-25T11:32:48Z</time>
      </trkpt>
      <trkpt lat="42.37697" lon="2.20307">
        <ele>1627.5</ele>
        <time>2024-09-25T11:32:49Z</time>
      </trkpt>
      <trkpt lat="42.37697" lon="2.20307">
        <ele>1627.4</ele>
        <time>2024-09-25T11:32:50Z</time>
      </trkpt>
      <trkpt lat="42.37697" lon="2.20307">
        <ele>1627.4</ele>
        <time>2024-09-25T11:32:51Z</time>
      </trkpt>
      <trkpt lat="42.37697" lon="2.20307">
        <ele>1627.4</ele>
        <time>2024-09-25T11:32:52Z</time>
      </trkpt>
      <trkpt lat="42.37697" lon="2.20307">
        <ele>1627.4</ele>
        <time>2024-09-25T11:32:53Z</time>
      </trkpt>
      <trkpt lat="42.37697" lon="2.20307">
        <ele>1627.4</ele>
        <time>2024-09-25T11:32:54Z</time>
      </trkpt>
      <trkpt lat="42.37697" lon="2.20307">
        <ele>1627.4</ele>
        <time>2024-09-25T11:32:55Z</time>
      </trkpt>
      <trkpt lat="42.37697" lon="2.20307">
        <ele>1627.4</ele>
        <time>2024-09-25T11:32:56Z</time>
      </trkpt>
      <trkpt lat="42.37697" lon="2.20307">
        <ele>1627.4</ele>
        <time>2024-09-25T11:32:57Z</time>
      </trkpt>
      <trkpt lat="42.37697" lon="2.20307">
        <ele>1627.4</ele>
        <time>2024-09-25T11:32:58Z</time>
      </trkpt>
      <trkpt lat="42.37697" lon="2.20307">
        <ele>1627.4</ele>
        <time>2024-09-25T11:32:59Z</time>
      </trkpt>
      <trkpt lat="42.37697" lon="2.20307">
        <ele>1627.4</ele>
        <time>2024-09-25T11:33:00Z</time>
      </trkpt>
      <trkpt lat="42.37697" lon="2.20307">
        <ele>1627.4</ele>
        <time>2024-09-25T11:33:01Z</time>
      </trkpt>
      <trkpt lat="42.37697" lon="2.20307">
        <ele>1627.4</ele>
        <time>2024-09-25T11:33:02Z</time>
      </trkpt>
      <trkpt lat="42.37697" lon="2.20307">
        <ele>1627.4</ele>
        <time>2024-09-25T11:33:03Z</time>
      </trkpt>
      <trkpt lat="42.37697" lon="2.20307">
        <ele>1627.4</ele>
        <time>2024-09-25T11:33:04Z</time>
      </trkpt>
      <trkpt lat="42.37697" lon="2.20307">
        <ele>1627.4</ele>
        <time>2024-09-25T11:33:05Z</time>
      </trkpt>
      <trkpt lat="42.37697" lon="2.20307">
        <ele>1627.3</ele>
        <time>2024-09-25T11:33:06Z</time>
      </trkpt>
      <trkpt lat="42.37697" lon="2.20307">
        <ele>1627.3</ele>
        <time>2024-09-25T11:33:07Z</time>
      </trkpt>
      <trkpt lat="42.37697" lon="2.20307">
        <ele>1627.3</ele>
        <time>2024-09-25T11:33:08Z</time>
      </trkpt>
      <trkpt lat="42.37697" lon="2.20307">
        <ele>1627.3</ele>
        <time>2024-09-25T11:33:09Z</time>
      </trkpt>
      <trkpt lat="42.37697" lon="2.20307">
        <ele>1627.3</ele>
        <time>2024-09-25T11:33:10Z</time>
      </trkpt>
      <trkpt lat="42.37697" lon="2.20307">
        <ele>1627.3</ele>
        <time>2024-09-25T11:33:11Z</time>
      </trkpt>
      <trkpt lat="42.37697" lon="2.20307">
        <ele>1627.3</ele>
        <time>2024-09-25T11:33:12Z</time>
      </trkpt>
      <trkpt lat="42.37697" lon="2.20307">
        <ele>1627.3</ele>
        <time>2024-09-25T11:33:13Z</time>
      </trkpt>
      <trkpt lat="42.37697" lon="2.20307">
        <ele>1627.3</ele>
        <time>2024-09-25T11:33:14Z</time>
      </trkpt>
      <trkpt lat="42.37697" lon="2.20307">
        <ele>1627.3</ele>
        <time>2024-09-25T11:33:15Z</time>
      </trkpt>
      <trkpt lat="42.37697" lon="2.20307">
        <ele>1627.3</ele>
        <time>2024-09-25T11:33:16Z</time>
      </trkpt>
      <trkpt lat="42.37697" lon="2.20307">
        <ele>1627.3</ele>
        <time>2024-09-25T11:33:17Z</time>
      </trkpt>
      <trkpt lat="42.37697" lon="2.20307">
        <ele>1627.3</ele>
        <time>2024-09-25T11:33:18Z</time>
      </trkpt>
      <trkpt lat="42.37697" lon="2.20307">
        <ele>1627.3</ele>
        <time>2024-09-25T11:33:19Z</time>
      </trkpt>
      <trkpt lat="42.37697" lon="2.20307">
        <ele>1627.3</ele>
        <time>2024-09-25T11:33:20Z</time>
      </trkpt>
      <trkpt lat="42.37697" lon="2.20307">
        <ele>1627.2</ele>
        <time>2024-09-25T11:33:21Z</time>
      </trkpt>
      <trkpt lat="42.37697" lon="2.20307">
        <ele>1627.2</ele>
        <time>2024-09-25T11:33:22Z</time>
      </trkpt>
      <trkpt lat="42.37697" lon="2.20307">
        <ele>1627.2</ele>
        <time>2024-09-25T11:33:23Z</time>
      </trkpt>
      <trkpt lat="42.37697" lon="2.20307">
        <ele>1627.2</ele>
        <time>2024-09-25T11:33:24Z</time>
      </trkpt>
      <trkpt lat="42.37697" lon="2.20307">
        <ele>1627.2</ele>
        <time>2024-09-25T11:33:25Z</time>
      </trkpt>
      <trkpt lat="42.37697" lon="2.20307">
        <ele>1627.2</ele>
        <time>2024-09-25T11:33:26Z</time>
      </trkpt>
      <trkpt lat="42.37697" lon="2.20307">
        <ele>1627.2</ele>
        <time>2024-09-25T11:33:27Z</time>
      </trkpt>
      <trkpt lat="42.37697" lon="2.20307">
        <ele>1627.2</ele>
        <time>2024-09-25T11:33:28Z</time>
      </trkpt>
      <trkpt lat="42.37697" lon="2.20307">
        <ele>1627.2</ele>
        <time>2024-09-25T11:33:29Z</time>
      </trkpt>
      <trkpt lat="42.37697" lon="2.20307">
        <ele>1627.2</ele>
        <time>2024-09-25T11:33:30Z</time>
      </trkpt>
      <trkpt lat="42.37697" lon="2.20307">
        <ele>1627.2</ele>
        <time>2024-09-25T11:33:31Z</time>
      </trkpt>
      <trkpt lat="42.37697" lon="2.20307">
        <ele>1627.2</ele>
        <time>2024-09-25T11:33:32Z</time>
      </trkpt>
      <trkpt lat="42.37697" lon="2.20307">
        <ele>1627.2</ele>
        <time>2024-09-25T11:33:33Z</time>
      </trkpt>
      <trkpt lat="42.37697" lon="2.20307">
        <ele>1627.2</ele>
        <time>2024-09-25T11:33:34Z</time>
      </trkpt>
      <trkpt lat="42.37697" lon="2.20307">
        <ele>1627.2</ele>
        <time>2024-09-25T11:33:35Z</time>
      </trkpt>
      <trkpt lat="42.37697" lon="2.20307">
        <ele>1627.1</ele>
        <time>2024-09-25T11:33:36Z</time>
      </trkpt>
      <trkpt lat="42.37697" lon="2.20307">
        <ele>1627.1</ele>
        <time>2024-09-25T11:33:37Z</time>
      </trkpt>
      <trkpt lat="42.37697" lon="2.20307">
        <ele>1627.1</ele>
        <time>2024-09-25T11:33:38Z</time>
      </trkpt>
      <trkpt lat="42.37698" lon="2.20306">
        <ele>1627.1</ele>
        <time>2024-09-25T11:33:39Z</time>
      </trkpt>
      <trkpt lat="42.37698" lon="2.20306">
        <ele>1626.3</ele>
        <time>2024-09-25T11:33:40Z</time>
      </trkpt>
      <trkpt lat="42.37699" lon="2.20306">
        <ele>1626.3</ele>
        <time>2024-09-25T11:33:41Z</time>
      </trkpt>
      <trkpt lat="42.37698" lon="2.20306">
        <ele>1626.2</ele>
        <time>2024-09-25T11:33:42Z</time>
      </trkpt>
      <trkpt lat="42.37698" lon="2.20306">
        <ele>1626.2</ele>
        <time>2024-09-25T11:33:43Z</time>
      </trkpt>
      <trkpt lat="42.37698" lon="2.20306">
        <ele>1626.2</ele>
        <time>2024-09-25T11:33:44Z</time>
      </trkpt>
      <trkpt lat="42.37698" lon="2.20306">
        <ele>1626.2</ele>
        <time>2024-09-25T11:33:45Z</time>
      </trkpt>
      <trkpt lat="42.37698" lon="2.20306">
        <ele>1626.2</ele>
        <time>2024-09-25T11:33:46Z</time>
      </trkpt>
      <trkpt lat="42.37698" lon="2.20306">
        <ele>1626.2</ele>
        <time>2024-09-25T11:33:47Z</time>
      </trkpt>
      <trkpt lat="42.37698" lon="2.20306">
        <ele>1626.2</ele>
        <time>2024-09-25T11:33:48Z</time>
      </trkpt>
      <trkpt lat="42.37698" lon="2.20306">
        <ele>1626.2</ele>
        <time>2024-09-25T11:33:49Z</time>
      </trkpt>
      <trkpt lat="42.37698" lon="2.20306">
        <ele>1626.2</ele>
        <time>2024-09-25T11:33:50Z</time>
      </trkpt>
      <trkpt lat="42.37698" lon="2.20306">
        <ele>1626.2</ele>
        <time>2024-09-25T11:33:51Z</time>
      </trkpt>
      <trkpt lat="42.37698" lon="2.20306">
        <ele>1626.2</ele>
        <time>2024-09-25T11:33:52Z</time>
      </trkpt>
      <trkpt lat="42.37698" lon="2.20306">
        <ele>1626.2</ele>
        <time>2024-09-25T11:33:53Z</time>
      </trkpt>
      <trkpt lat="42.37698" lon="2.20306">
        <ele>1626.2</ele>
        <time>2024-09-25T11:33:54Z</time>
      </trkpt>
      <trkpt lat="42.37698" lon="2.20306">
        <ele>1626.2</ele>
        <time>2024-09-25T11:33:55Z</time>
      </trkpt>
      <trkpt lat="42.37698" lon="2.20306">
        <ele>1626.2</ele>
        <time>2024-09-25T11:33:56Z</time>
      </trkpt>
      <trkpt lat="42.37698" lon="2.20306">
        <ele>1626.1</ele>
        <time>2024-09-25T11:33:57Z</time>
      </trkpt>
      <trkpt lat="42.37698" lon="2.20306">
        <ele>1626.1</ele>
        <time>2024-09-25T11:33:58Z</time>
      </trkpt>
      <trkpt lat="42.37698" lon="2.20306">
        <ele>1626.1</ele>
        <time>2024-09-25T11:33:59Z</time>
      </trkpt>
      <trkpt lat="42.37698" lon="2.20306">
        <ele>1626.1</ele>
        <time>2024-09-25T11:34:00Z</time>
      </trkpt>
      <trkpt lat="42.37698" lon="2.20306">
        <ele>1626.1</ele>
        <time>2024-09-25T11:34:01Z</time>
      </trkpt>
      <trkpt lat="42.37698" lon="2.20306">
        <ele>1626.1</ele>
        <time>2024-09-25T11:34:02Z</time>
      </trkpt>
      <trkpt lat="42.37698" lon="2.20306">
        <ele>1626.1</ele>
        <time>2024-09-25T11:34:03Z</time>
      </trkpt>
      <trkpt lat="42.37698" lon="2.20306">
        <ele>1626.1</ele>
        <time>2024-09-25T11:34:04Z</time>
      </trkpt>
      <trkpt lat="42.37698" lon="2.20306">
        <ele>1626.1</ele>
        <time>2024-09-25T11:34:05Z</time>
      </trkpt>
      <trkpt lat="42.37698" lon="2.20306">
        <ele>1626.1</ele>
        <time>2024-09-25T11:34:06Z</time>
      </trkpt>
      <trkpt lat="42.37698" lon="2.20306">
        <ele>1626.1</ele>
        <time>2024-09-25T11:34:07Z</time>
      </trkpt>
      <trkpt lat="42.37698" lon="2.20306">
        <ele>1626.1</ele>
        <time>2024-09-25T11:34:08Z</time>
      </trkpt>
      <trkpt lat="42.37698" lon="2.20306">
        <ele>1626.1</ele>
        <time>2024-09-25T11:34:09Z</time>
      </trkpt>
      <trkpt lat="42.37698" lon="2.20306">
        <ele>1626.1</ele>
        <time>2024-09-25T11:34:10Z</time>
      </trkpt>
      <trkpt lat="42.37698" lon="2.20306">
        <ele>1626.1</ele>
        <time>2024-09-25T11:34:11Z</time>
      </trkpt>
      <trkpt lat="42.37698" lon="2.20306">
        <ele>1626</ele>
        <time>2024-09-25T11:34:12Z</time>
      </trkpt>
      <trkpt lat="42.37698" lon="2.20306">
        <ele>1626</ele>
        <time>2024-09-25T11:34:13Z</time>
      </trkpt>
      <trkpt lat="42.37698" lon="2.20306">
        <ele>1626</ele>
        <time>2024-09-25T11:34:14Z</time>
      </trkpt>
      <trkpt lat="42.37698" lon="2.20306">
        <ele>1626</ele>
        <time>2024-09-25T11:34:15Z</time>
      </trkpt>
      <trkpt lat="42.37698" lon="2.20306">
        <ele>1626</ele>
        <time>2024-09-25T11:34:16Z</time>
      </trkpt>
      <trkpt lat="42.37698" lon="2.20306">
        <ele>1626</ele>
        <time>2024-09-25T11:34:17Z</time>
      </trkpt>
      <trkpt lat="42.37698" lon="2.20306">
        <ele>1626</ele>
        <time>2024-09-25T11:34:18Z</time>
      </trkpt>
      <trkpt lat="42.37698" lon="2.20306">
        <ele>1626</ele>
        <time>2024-09-25T11:34:19Z</time>
      </trkpt>
      <trkpt lat="42.37698" lon="2.20306">
        <ele>1626</ele>
        <time>2024-09-25T11:34:20Z</time>
      </trkpt>
      <trkpt lat="42.37698" lon="2.20306">
        <ele>1626</ele>
        <time>2024-09-25T11:34:21Z</time>
      </trkpt>
      <trkpt lat="42.37698" lon="2.20306">
        <ele>1626</ele>
        <time>2024-09-25T11:34:22Z</time>
      </trkpt>
      <trkpt lat="42.37698" lon="2.20306">
        <ele>1626.8</ele>
        <time>2024-09-25T11:34:23Z</time>
      </trkpt>
      <trkpt lat="42.37698" lon="2.20306">
        <ele>1626.8</ele>
        <time>2024-09-25T11:34:24Z</time>
      </trkpt>
      <trkpt lat="42.37698" lon="2.20306">
        <ele>1626.8</ele>
        <time>2024-09-25T11:34:25Z</time>
      </trkpt>
      <trkpt lat="42.37698" lon="2.20306">
        <ele>1626.8</ele>
        <time>2024-09-25T11:34:26Z</time>
      </trkpt>
      <trkpt lat="42.37698" lon="2.20306">
        <ele>1626.8</ele>
        <time>2024-09-25T11:34:27Z</time>
      </trkpt>
      <trkpt lat="42.37698" lon="2.20306">
        <ele>1626.8</ele>
        <time>2024-09-25T11:34:28Z</time>
      </trkpt>
      <trkpt lat="42.37698" lon="2.20306">
        <ele>1626.8</ele>
        <time>2024-09-25T11:34:29Z</time>
      </trkpt>
      <trkpt lat="42.37698" lon="2.20306">
        <ele>1626.8</ele>
        <time>2024-09-25T11:34:30Z</time>
      </trkpt>
      <trkpt lat="42.37698" lon="2.20306">
        <ele>1626.8</ele>
        <time>2024-09-25T11:34:31Z</time>
      </trkpt>
      <trkpt lat="42.37698" lon="2.20306">
        <ele>1626.8</ele>
        <time>2024-09-25T11:34:32Z</time>
      </trkpt>
      <trkpt lat="42.37698" lon="2.20306">
        <ele>1626.8</ele>
        <time>2024-09-25T11:34:33Z</time>
      </trkpt>
      <trkpt lat="42.37698" lon="2.20306">
        <ele>1626.8</ele>
        <time>2024-09-25T11:34:34Z</time>
      </trkpt>
      <trkpt lat="42.37698" lon="2.20306">
        <ele>1626.8</ele>
        <time>2024-09-25T11:34:35Z</time>
      </trkpt>
      <trkpt lat="42.37698" lon="2.20306">
        <ele>1626.8</ele>
        <time>2024-09-25T11:34:36Z</time>
      </trkpt>
      <trkpt lat="42.37698" lon="2.20306">
        <ele>1626.7</ele>
        <time>2024-09-25T11:34:37Z</time>
      </trkpt>
      <trkpt lat="42.37698" lon="2.20306">
        <ele>1626.7</ele>
        <time>2024-09-25T11:34:38Z</time>
      </trkpt>
      <trkpt lat="42.37698" lon="2.20306">
        <ele>1626.7</ele>
        <time>2024-09-25T11:34:39Z</time>
      </trkpt>
      <trkpt lat="42.37698" lon="2.20306">
        <ele>1626.7</ele>
        <time>2024-09-25T11:34:40Z</time>
      </trkpt>
      <trkpt lat="42.37698" lon="2.20306">
        <ele>1626.7</ele>
        <time>2024-09-25T11:34:41Z</time>
      </trkpt>
      <trkpt lat="42.37698" lon="2.20306">
        <ele>1626.7</ele>
        <time>2024-09-25T11:34:42Z</time>
      </trkpt>
      <trkpt lat="42.37698" lon="2.20306">
        <ele>1626.7</ele>
        <time>2024-09-25T11:34:43Z</time>
      </trkpt>
      <trkpt lat="42.37698" lon="2.20306">
        <ele>1626.7</ele>
        <time>2024-09-25T11:34:44Z</time>
      </trkpt>
      <trkpt lat="42.37698" lon="2.20306">
        <ele>1626.7</ele>
        <time>2024-09-25T11:34:45Z</time>
      </trkpt>
      <trkpt lat="42.37698" lon="2.20306">
        <ele>1626.7</ele>
        <time>2024-09-25T11:34:46Z</time>
      </trkpt>
      <trkpt lat="42.37698" lon="2.20306">
        <ele>1626.7</ele>
        <time>2024-09-25T11:34:47Z</time>
      </trkpt>
      <trkpt lat="42.37698" lon="2.20306">
        <ele>1626.7</ele>
        <time>2024-09-25T11:34:48Z</time>
      </trkpt>
      <trkpt lat="42.37698" lon="2.20306">
        <ele>1626.7</ele>
        <time>2024-09-25T11:34:49Z</time>
      </trkpt>
      <trkpt lat="42.37698" lon="2.20306">
        <ele>1626.7</ele>
        <time>2024-09-25T11:34:50Z</time>
      </trkpt>
      <trkpt lat="42.37698" lon="2.20306">
        <ele>1626.7</ele>
        <time>2024-09-25T11:34:51Z</time>
      </trkpt>
      <trkpt lat="42.37698" lon="2.20306">
        <ele>1626.6</ele>
        <time>2024-09-25T11:34:52Z</time>
      </trkpt>
      <trkpt lat="42.37698" lon="2.20306">
        <ele>1626.6</ele>
        <time>2024-09-25T11:34:53Z</time>
      </trkpt>
      <trkpt lat="42.37698" lon="2.20306">
        <ele>1626.6</ele>
        <time>2024-09-25T11:34:54Z</time>
      </trkpt>
      <trkpt lat="42.37698" lon="2.20306">
        <ele>1626.6</ele>
        <time>2024-09-25T11:34:55Z</time>
      </trkpt>
      <trkpt lat="42.37698" lon="2.20306">
        <ele>1626.6</ele>
        <time>2024-09-25T11:34:56Z</time>
      </trkpt>
      <trkpt lat="42.37698" lon="2.20306">
        <ele>1626.6</ele>
        <time>2024-09-25T11:34:57Z</time>
      </trkpt>
      <trkpt lat="42.37698" lon="2.20306">
        <ele>1626.6</ele>
        <time>2024-09-25T11:34:58Z</time>
      </trkpt>
      <trkpt lat="42.37698" lon="2.20306">
        <ele>1626.6</ele>
        <time>2024-09-25T11:34:59Z</time>
      </trkpt>
      <trkpt lat="42.37698" lon="2.20306">
        <ele>1626.6</ele>
        <time>2024-09-25T11:35:00Z</time>
      </trkpt>
      <trkpt lat="42.37698" lon="2.20306">
        <ele>1626.6</ele>
        <time>2024-09-25T11:35:01Z</time>
      </trkpt>
      <trkpt lat="42.37698" lon="2.20306">
        <ele>1626.6</ele>
        <time>2024-09-25T11:35:02Z</time>
      </trkpt>
      <trkpt lat="42.37698" lon="2.20306">
        <ele>1626.6</ele>
        <time>2024-09-25T11:35:03Z</time>
      </trkpt>
      <trkpt lat="42.37698" lon="2.20306">
        <ele>1626.6</ele>
        <time>2024-09-25T11:35:04Z</time>
      </trkpt>
      <trkpt lat="42.37698" lon="2.20306">
        <ele>1626.6</ele>
        <time>2024-09-25T11:35:05Z</time>
      </trkpt>
      <trkpt lat="42.37698" lon="2.20306">
        <ele>1626.6</ele>
        <time>2024-09-25T11:35:06Z</time>
      </trkpt>
      <trkpt lat="42.37698" lon="2.20306">
        <ele>1626.5</ele>
        <time>2024-09-25T11:35:07Z</time>
      </trkpt>
      <trkpt lat="42.37698" lon="2.20306">
        <ele>1626.5</ele>
        <time>2024-09-25T11:35:08Z</time>
      </trkpt>
      <trkpt lat="42.37698" lon="2.20306">
        <ele>1626.5</ele>
        <time>2024-09-25T11:35:09Z</time>
      </trkpt>
      <trkpt lat="42.37698" lon="2.20306">
        <ele>1626.5</ele>
        <time>2024-09-25T11:35:10Z</time>
      </trkpt>
      <trkpt lat="42.37698" lon="2.20306">
        <ele>1626.5</ele>
        <time>2024-09-25T11:35:11Z</time>
      </trkpt>
      <trkpt lat="42.37698" lon="2.20306">
        <ele>1626.5</ele>
        <time>2024-09-25T11:35:12Z</time>
      </trkpt>
      <trkpt lat="42.37698" lon="2.20306">
        <ele>1626.5</ele>
        <time>2024-09-25T11:35:13Z</time>
      </trkpt>
      <trkpt lat="42.37698" lon="2.20306">
        <ele>1626.5</ele>
        <time>2024-09-25T11:35:14Z</time>
      </trkpt>
      <trkpt lat="42.37698" lon="2.20306">
        <ele>1626.5</ele>
        <time>2024-09-25T11:35:15Z</time>
      </trkpt>
      <trkpt lat="42.37698" lon="2.20306">
        <ele>1626.5</ele>
        <time>2024-09-25T11:35:16Z</time>
      </trkpt>
      <trkpt lat="42.37698" lon="2.20306">
        <ele>1626.5</ele>
        <time>2024-09-25T11:35:17Z</time>
      </trkpt>
      <trkpt lat="42.37698" lon="2.20306">
        <ele>1626.5</ele>
        <time>2024-09-25T11:35:18Z</time>
      </trkpt>
      <trkpt lat="42.37698" lon="2.20306">
        <ele>1626.5</ele>
        <time>2024-09-25T11:35:19Z</time>
      </trkpt>
      <trkpt lat="42.37698" lon="2.20306">
        <ele>1626.5</ele>
        <time>2024-09-25T11:35:20Z</time>
      </trkpt>
      <trkpt lat="42.37698" lon="2.20306">
        <ele>1626.5</ele>
        <time>2024-09-25T11:35:21Z</time>
      </trkpt>
      <trkpt lat="42.37698" lon="2.20306">
        <ele>1626.5</ele>
        <time>2024-09-25T11:35:22Z</time>
      </trkpt>
      <trkpt lat="42.37698" lon="2.20306">
        <ele>1626.4</ele>
        <time>2024-09-25T11:35:23Z</time>
      </trkpt>
      <trkpt lat="42.37698" lon="2.20306">
        <ele>1626.4</ele>
        <time>2024-09-25T11:35:24Z</time>
      </trkpt>
      <trkpt lat="42.37698" lon="2.20306">
        <ele>1626.4</ele>
        <time>2024-09-25T11:35:25Z</time>
      </trkpt>
      <trkpt lat="42.37698" lon="2.20306">
        <ele>1626.4</ele>
        <time>2024-09-25T11:35:26Z</time>
      </trkpt>
      <trkpt lat="42.37698" lon="2.20306">
        <ele>1626.4</ele>
        <time>2024-09-25T11:35:27Z</time>
      </trkpt>
      <trkpt lat="42.37698" lon="2.20306">
        <ele>1626.4</ele>
        <time>2024-09-25T11:35:28Z</time>
      </trkpt>
      <trkpt lat="42.37698" lon="2.20306">
        <ele>1626.4</ele>
        <time>2024-09-25T11:35:29Z</time>
      </trkpt>
      <trkpt lat="42.37698" lon="2.20306">
        <ele>1626.4</ele>
        <time>2024-09-25T11:35:30Z</time>
      </trkpt>
      <trkpt lat="42.37698" lon="2.20306">
        <ele>1626.4</ele>
        <time>2024-09-25T11:35:31Z</time>
      </trkpt>
      <trkpt lat="42.37698" lon="2.20306">
        <ele>1626.4</ele>
        <time>2024-09-25T11:35:32Z</time>
      </trkpt>
      <trkpt lat="42.37698" lon="2.20306">
        <ele>1626.4</ele>
        <time>2024-09-25T11:35:33Z</time>
      </trkpt>
      <trkpt lat="42.37699" lon="2.20306">
        <ele>1625.5</ele>
        <time>2024-09-25T11:35:34Z</time>
      </trkpt>
      <trkpt lat="42.37699" lon="2.20306">
        <ele>1625.5</ele>
        <time>2024-09-25T11:35:35Z</time>
      </trkpt>
      <trkpt lat="42.37699" lon="2.20306">
        <ele>1625.5</ele>
        <time>2024-09-25T11:35:36Z</time>
      </trkpt>
      <trkpt lat="42.37699" lon="2.20306">
        <ele>1625.5</ele>
        <time>2024-09-25T11:35:37Z</time>
      </trkpt>
      <trkpt lat="42.37699" lon="2.20306">
        <ele>1625.5</ele>
        <time>2024-09-25T11:35:38Z</time>
      </trkpt>
      <trkpt lat="42.37699" lon="2.20306">
        <ele>1625.5</ele>
        <time>2024-09-25T11:35:39Z</time>
      </trkpt>
      <trkpt lat="42.37699" lon="2.20306">
        <ele>1625.5</ele>
        <time>2024-09-25T11:35:40Z</time>
      </trkpt>
      <trkpt lat="42.37699" lon="2.20306">
        <ele>1625.5</ele>
        <time>2024-09-25T11:35:41Z</time>
      </trkpt>
      <trkpt lat="42.37699" lon="2.20306">
        <ele>1625.5</ele>
        <time>2024-09-25T11:35:42Z</time>
      </trkpt>
      <trkpt lat="42.37699" lon="2.20306">
        <ele>1625.4</ele>
        <time>2024-09-25T11:35:43Z</time>
      </trkpt>
      <trkpt lat="42.37699" lon="2.20306">
        <ele>1625.4</ele>
        <time>2024-09-25T11:35:44Z</time>
      </trkpt>
      <trkpt lat="42.37699" lon="2.20306">
        <ele>1625.4</ele>
        <time>2024-09-25T11:35:45Z</time>
      </trkpt>
      <trkpt lat="42.37699" lon="2.20306">
        <ele>1625.4</ele>
        <time>2024-09-25T11:35:46Z</time>
      </trkpt>
      <trkpt lat="42.37699" lon="2.20306">
        <ele>1625.4</ele>
        <time>2024-09-25T11:35:47Z</time>
      </trkpt>
      <trkpt lat="42.37699" lon="2.20306">
        <ele>1625.4</ele>
        <time>2024-09-25T11:35:48Z</time>
      </trkpt>
      <trkpt lat="42.37699" lon="2.20306">
        <ele>1625.4</ele>
        <time>2024-09-25T11:35:49Z</time>
      </trkpt>
      <trkpt lat="42.37699" lon="2.20306">
        <ele>1625.4</ele>
        <time>2024-09-25T11:35:50Z</time>
      </trkpt>
      <trkpt lat="42.37699" lon="2.20306">
        <ele>1625.4</ele>
        <time>2024-09-25T11:35:51Z</time>
      </trkpt>
      <trkpt lat="42.37699" lon="2.20305">
        <ele>1625.4</ele>
        <time>2024-09-25T11:35:52Z</time>
      </trkpt>
      <trkpt lat="42.37699" lon="2.20305">
        <ele>1625.4</ele>
        <time>2024-09-25T11:35:53Z</time>
      </trkpt>
      <trkpt lat="42.37699" lon="2.20305">
        <ele>1625.4</ele>
        <time>2024-09-25T11:35:54Z</time>
      </trkpt>
      <trkpt lat="42.37699" lon="2.20305">
        <ele>1625.4</ele>
        <time>2024-09-25T11:35:55Z</time>
      </trkpt>
      <trkpt lat="42.37699" lon="2.20305">
        <ele>1625.4</ele>
        <time>2024-09-25T11:35:56Z</time>
      </trkpt>
      <trkpt lat="42.37699" lon="2.20305">
        <ele>1625.4</ele>
        <time>2024-09-25T11:35:57Z</time>
      </trkpt>
      <trkpt lat="42.37699" lon="2.20305">
        <ele>1625.4</ele>
        <time>2024-09-25T11:35:58Z</time>
      </trkpt>
      <trkpt lat="42.37699" lon="2.20305">
        <ele>1625.3</ele>
        <time>2024-09-25T11:35:59Z</time>
      </trkpt>
      <trkpt lat="42.37699" lon="2.20305">
        <ele>1625.3</ele>
        <time>2024-09-25T11:36:00Z</time>
      </trkpt>
      <trkpt lat="42.37699" lon="2.20305">
        <ele>1625.3</ele>
        <time>2024-09-25T11:36:01Z</time>
      </trkpt>
      <trkpt lat="42.37699" lon="2.20305">
        <ele>1625.3</ele>
        <time>2024-09-25T11:36:02Z</time>
      </trkpt>
      <trkpt lat="42.37699" lon="2.20305">
        <ele>1625.3</ele>
        <time>2024-09-25T11:36:03Z</time>
      </trkpt>
      <trkpt lat="42.37699" lon="2.20305">
        <ele>1625.3</ele>
        <time>2024-09-25T11:36:04Z</time>
      </trkpt>
      <trkpt lat="42.37699" lon="2.20305">
        <ele>1625.3</ele>
        <time>2024-09-25T11:36:05Z</time>
      </trkpt>
      <trkpt lat="42.37699" lon="2.20305">
        <ele>1625.3</ele>
        <time>2024-09-25T11:36:06Z</time>
      </trkpt>
      <trkpt lat="42.37699" lon="2.20305">
        <ele>1625.3</ele>
        <time>2024-09-25T11:36:07Z</time>
      </trkpt>
      <trkpt lat="42.37699" lon="2.20305">
        <ele>1625.3</ele>
        <time>2024-09-25T11:36:08Z</time>
      </trkpt>
      <trkpt lat="42.37699" lon="2.20305">
        <ele>1625.3</ele>
        <time>2024-09-25T11:36:09Z</time>
      </trkpt>
      <trkpt lat="42.37699" lon="2.20305">
        <ele>1625.3</ele>
        <time>2024-09-25T11:36:10Z</time>
      </trkpt>
      <trkpt lat="42.37699" lon="2.20305">
        <ele>1625.3</ele>
        <time>2024-09-25T11:36:11Z</time>
      </trkpt>
      <trkpt lat="42.37699" lon="2.20305">
        <ele>1625.3</ele>
        <time>2024-09-25T11:36:12Z</time>
      </trkpt>
      <trkpt lat="42.37699" lon="2.20305">
        <ele>1625.3</ele>
        <time>2024-09-25T11:36:13Z</time>
      </trkpt>
      <trkpt lat="42.37699" lon="2.20305">
        <ele>1625.2</ele>
        <time>2024-09-25T11:36:14Z</time>
      </trkpt>
      <trkpt lat="42.37699" lon="2.20305">
        <ele>1625.2</ele>
        <time>2024-09-25T11:36:15Z</time>
      </trkpt>
      <trkpt lat="42.37699" lon="2.20305">
        <ele>1625.2</ele>
        <time>2024-09-25T11:36:16Z</time>
      </trkpt>
      <trkpt lat="42.37699" lon="2.20305">
        <ele>1625.2</ele>
        <time>2024-09-25T11:36:17Z</time>
      </trkpt>
      <trkpt lat="42.37699" lon="2.20305">
        <ele>1625.2</ele>
        <time>2024-09-25T11:36:18Z</time>
      </trkpt>
      <trkpt lat="42.37699" lon="2.20305">
        <ele>1625.2</ele>
        <time>2024-09-25T11:36:19Z</time>
      </trkpt>
      <trkpt lat="42.37699" lon="2.20305">
        <ele>1625.2</ele>
        <time>2024-09-25T11:36:20Z</time>
      </trkpt>
      <trkpt lat="42.37699" lon="2.20305">
        <ele>1625.2</ele>
        <time>2024-09-25T11:36:21Z</time>
      </trkpt>
      <trkpt lat="42.37699" lon="2.20305">
        <ele>1625.2</ele>
        <time>2024-09-25T11:36:22Z</time>
      </trkpt>
      <trkpt lat="42.37699" lon="2.20305">
        <ele>1625.2</ele>
        <time>2024-09-25T11:36:23Z</time>
      </trkpt>
      <trkpt lat="42.37699" lon="2.20305">
        <ele>1625.2</ele>
        <time>2024-09-25T11:36:24Z</time>
      </trkpt>
      <trkpt lat="42.37699" lon="2.20305">
        <ele>1625.2</ele>
        <time>2024-09-25T11:36:25Z</time>
      </trkpt>
      <trkpt lat="42.37699" lon="2.20305">
        <ele>1625.2</ele>
        <time>2024-09-25T11:36:26Z</time>
      </trkpt>
      <trkpt lat="42.37699" lon="2.20305">
        <ele>1625.2</ele>
        <time>2024-09-25T11:36:27Z</time>
      </trkpt>
      <trkpt lat="42.37699" lon="2.20305">
        <ele>1625.2</ele>
        <time>2024-09-25T11:36:28Z</time>
      </trkpt>
      <trkpt lat="42.37699" lon="2.20305">
        <ele>1625.1</ele>
        <time>2024-09-25T11:36:29Z</time>
      </trkpt>
      <trkpt lat="42.37699" lon="2.20305">
        <ele>1625.1</ele>
        <time>2024-09-25T11:36:30Z</time>
      </trkpt>
      <trkpt lat="42.37699" lon="2.20305">
        <ele>1625.1</ele>
        <time>2024-09-25T11:36:31Z</time>
      </trkpt>
      <trkpt lat="42.37699" lon="2.20305">
        <ele>1625.1</ele>
        <time>2024-09-25T11:36:32Z</time>
      </trkpt>
      <trkpt lat="42.37699" lon="2.20305">
        <ele>1625.1</ele>
        <time>2024-09-25T11:36:33Z</time>
      </trkpt>
      <trkpt lat="42.37699" lon="2.20305">
        <ele>1625.1</ele>
        <time>2024-09-25T11:36:34Z</time>
      </trkpt>
      <trkpt lat="42.37699" lon="2.20305">
        <ele>1625.1</ele>
        <time>2024-09-25T11:36:35Z</time>
      </trkpt>
      <trkpt lat="42.37699" lon="2.20305">
        <ele>1625.1</ele>
        <time>2024-09-25T11:36:36Z</time>
      </trkpt>
      <trkpt lat="42.37699" lon="2.20305">
        <ele>1625.1</ele>
        <time>2024-09-25T11:36:37Z</time>
      </trkpt>
      <trkpt lat="42.37699" lon="2.20305">
        <ele>1625.1</ele>
        <time>2024-09-25T11:36:38Z</time>
      </trkpt>
      <trkpt lat="42.37699" lon="2.20306">
        <ele>1625.1</ele>
        <time>2024-09-25T11:36:39Z</time>
      </trkpt>
      <trkpt lat="42.37699" lon="2.20305">
        <ele>1625.1</ele>
        <time>2024-09-25T11:36:40Z</time>
      </trkpt>
      <trkpt lat="42.37699" lon="2.20305">
        <ele>1625.1</ele>
        <time>2024-09-25T11:36:41Z</time>
      </trkpt>
      <trkpt lat="42.37699" lon="2.20305">
        <ele>1625.1</ele>
        <time>2024-09-25T11:36:42Z</time>
      </trkpt>
      <trkpt lat="42.37699" lon="2.20305">
        <ele>1625.1</ele>
        <time>2024-09-25T11:36:43Z</time>
      </trkpt>
      <trkpt lat="42.37699" lon="2.20305">
        <ele>1625</ele>
        <time>2024-09-25T11:36:44Z</time>
      </trkpt>
      <trkpt lat="42.37699" lon="2.20305">
        <ele>1625</ele>
        <time>2024-09-25T11:36:45Z</time>
      </trkpt>
      <trkpt lat="42.37699" lon="2.20305">
        <ele>1625</ele>
        <time>2024-09-25T11:36:46Z</time>
      </trkpt>
      <trkpt lat="42.37699" lon="2.20305">
        <ele>1625</ele>
        <time>2024-09-25T11:36:47Z</time>
      </trkpt>
      <trkpt lat="42.37699" lon="2.20305">
        <ele>1625</ele>
        <time>2024-09-25T11:36:48Z</time>
      </trkpt>
      <trkpt lat="42.37699" lon="2.20305">
        <ele>1625</ele>
        <time>2024-09-25T11:36:49Z</time>
      </trkpt>
      <trkpt lat="42.37698" lon="2.20305">
        <ele>1625</ele>
        <time>2024-09-25T11:36:50Z</time>
      </trkpt>
      <trkpt lat="42.37698" lon="2.20305">
        <ele>1625</ele>
        <time>2024-09-25T11:36:51Z</time>
      </trkpt>
      <trkpt lat="42.37698" lon="2.20305">
        <ele>1625</ele>
        <time>2024-09-25T11:36:52Z</time>
      </trkpt>
      <trkpt lat="42.37698" lon="2.20305">
        <ele>1625</ele>
        <time>2024-09-25T11:36:53Z</time>
      </trkpt>
      <trkpt lat="42.37698" lon="2.20305">
        <ele>1625</ele>
        <time>2024-09-25T11:36:54Z</time>
      </trkpt>
      <trkpt lat="42.37698" lon="2.20305">
        <ele>1625</ele>
        <time>2024-09-25T11:36:55Z</time>
      </trkpt>
      <trkpt lat="42.37698" lon="2.20305">
        <ele>1625</ele>
        <time>2024-09-25T11:36:56Z</time>
      </trkpt>
      <trkpt lat="42.37699" lon="2.20305">
        <ele>1625</ele>
        <time>2024-09-25T11:36:57Z</time>
      </trkpt>
      <trkpt lat="42.37699" lon="2.20305">
        <ele>1625</ele>
        <time>2024-09-25T11:36:58Z</time>
      </trkpt>
      <trkpt lat="42.37699" lon="2.20305">
        <ele>1624.9</ele>
        <time>2024-09-25T11:36:59Z</time>
      </trkpt>
      <trkpt lat="42.37699" lon="2.20305">
        <ele>1624.9</ele>
        <time>2024-09-25T11:37:00Z</time>
      </trkpt>
      <trkpt lat="42.37699" lon="2.20305">
        <ele>1624.9</ele>
        <time>2024-09-25T11:37:01Z</time>
      </trkpt>
      <trkpt lat="42.37699" lon="2.20305">
        <ele>1624.9</ele>
        <time>2024-09-25T11:37:02Z</time>
      </trkpt>
      <trkpt lat="42.37699" lon="2.20305">
        <ele>1624.9</ele>
        <time>2024-09-25T11:37:03Z</time>
      </trkpt>
      <trkpt lat="42.37699" lon="2.20305">
        <ele>1624.9</ele>
        <time>2024-09-25T11:37:04Z</time>
      </trkpt>
      <trkpt lat="42.37699" lon="2.20305">
        <ele>1624.9</ele>
        <time>2024-09-25T11:37:05Z</time>
      </trkpt>
      <trkpt lat="42.37699" lon="2.20305">
        <ele>1624.9</ele>
        <time>2024-09-25T11:37:06Z</time>
      </trkpt>
      <trkpt lat="42.37699" lon="2.20305">
        <ele>1624.9</ele>
        <time>2024-09-25T11:37:07Z</time>
      </trkpt>
      <trkpt lat="42.37699" lon="2.20305">
        <ele>1624.9</ele>
        <time>2024-09-25T11:37:08Z</time>
      </trkpt>
      <trkpt lat="42.37699" lon="2.20305">
        <ele>1624.9</ele>
        <time>2024-09-25T11:37:09Z</time>
      </trkpt>
      <trkpt lat="42.37699" lon="2.20305">
        <ele>1624.9</ele>
        <time>2024-09-25T11:37:10Z</time>
      </trkpt>
      <trkpt lat="42.37699" lon="2.20305">
        <ele>1624.9</ele>
        <time>2024-09-25T11:37:11Z</time>
      </trkpt>
      <trkpt lat="42.37699" lon="2.20305">
        <ele>1624.9</ele>
        <time>2024-09-25T11:37:12Z</time>
      </trkpt>
      <trkpt lat="42.37699" lon="2.20305">
        <ele>1624.9</ele>
        <time>2024-09-25T11:37:13Z</time>
      </trkpt>
      <trkpt lat="42.37699" lon="2.20305">
        <ele>1624.9</ele>
        <time>2024-09-25T11:37:14Z</time>
      </trkpt>
      <trkpt lat="42.37699" lon="2.20305">
        <ele>1624.8</ele>
        <time>2024-09-25T11:37:15Z</time>
      </trkpt>
      <trkpt lat="42.37699" lon="2.20305">
        <ele>1624.8</ele>
        <time>2024-09-25T11:37:16Z</time>
      </trkpt>
      <trkpt lat="42.37699" lon="2.20305">
        <ele>1624.8</ele>
        <time>2024-09-25T11:37:17Z</time>
      </trkpt>
      <trkpt lat="42.37699" lon="2.20305">
        <ele>1624.8</ele>
        <time>2024-09-25T11:37:18Z</time>
      </trkpt>
      <trkpt lat="42.37699" lon="2.20305">
        <ele>1624.8</ele>
        <time>2024-09-25T11:37:19Z</time>
      </trkpt>
      <trkpt lat="42.37699" lon="2.20305">
        <ele>1624.8</ele>
        <time>2024-09-25T11:37:20Z</time>
      </trkpt>
      <trkpt lat="42.37699" lon="2.20305">
        <ele>1624.8</ele>
        <time>2024-09-25T11:37:21Z</time>
      </trkpt>
      <trkpt lat="42.37699" lon="2.20305">
        <ele>1624.8</ele>
        <time>2024-09-25T11:37:22Z</time>
      </trkpt>
      <trkpt lat="42.37699" lon="2.20305">
        <ele>1624.8</ele>
        <time>2024-09-25T11:37:23Z</time>
      </trkpt>
      <trkpt lat="42.37699" lon="2.20305">
        <ele>1624.8</ele>
        <time>2024-09-25T11:37:24Z</time>
      </trkpt>
      <trkpt lat="42.37699" lon="2.20305">
        <ele>1624.8</ele>
        <time>2024-09-25T11:37:25Z</time>
      </trkpt>
      <trkpt lat="42.37699" lon="2.20305">
        <ele>1624.8</ele>
        <time>2024-09-25T11:37:26Z</time>
      </trkpt>
      <trkpt lat="42.37699" lon="2.20305">
        <ele>1624.8</ele>
        <time>2024-09-25T11:37:27Z</time>
      </trkpt>
      <trkpt lat="42.37699" lon="2.20305">
        <ele>1624.8</ele>
        <time>2024-09-25T11:37:28Z</time>
      </trkpt>
      <trkpt lat="42.37699" lon="2.20305">
        <ele>1624.8</ele>
        <time>2024-09-25T11:37:29Z</time>
      </trkpt>
      <trkpt lat="42.37699" lon="2.20305">
        <ele>1624.7</ele>
        <time>2024-09-25T11:37:30Z</time>
      </trkpt>
      <trkpt lat="42.37699" lon="2.20305">
        <ele>1624.7</ele>
        <time>2024-09-25T11:37:31Z</time>
      </trkpt>
      <trkpt lat="42.37699" lon="2.20305">
        <ele>1624.7</ele>
        <time>2024-09-25T11:37:32Z</time>
      </trkpt>
      <trkpt lat="42.37699" lon="2.20305">
        <ele>1624.7</ele>
        <time>2024-09-25T11:37:33Z</time>
      </trkpt>
      <trkpt lat="42.37699" lon="2.20305">
        <ele>1624.7</ele>
        <time>2024-09-25T11:37:34Z</time>
      </trkpt>
      <trkpt lat="42.37699" lon="2.20305">
        <ele>1624.7</ele>
        <time>2024-09-25T11:37:35Z</time>
      </trkpt>
      <trkpt lat="42.37699" lon="2.20306">
        <ele>1624.7</ele>
        <time>2024-09-25T11:37:36Z</time>
      </trkpt>
      <trkpt lat="42.37699" lon="2.20306">
        <ele>1624.7</ele>
        <time>2024-09-25T11:37:37Z</time>
      </trkpt>
      <trkpt lat="42.37699" lon="2.20305">
        <ele>1624.7</ele>
        <time>2024-09-25T11:37:38Z</time>
      </trkpt>
      <trkpt lat="42.37699" lon="2.20305">
        <ele>1624.7</ele>
        <time>2024-09-25T11:37:39Z</time>
      </trkpt>
      <trkpt lat="42.37699" lon="2.20305">
        <ele>1624.7</ele>
        <time>2024-09-25T11:37:40Z</time>
      </trkpt>
      <trkpt lat="42.37699" lon="2.20305">
        <ele>1624.7</ele>
        <time>2024-09-25T11:37:41Z</time>
      </trkpt>
      <trkpt lat="42.37699" lon="2.20302">
        <ele>1623.8</ele>
        <time>2024-09-25T11:38:24Z</time>
      </trkpt>
      <trkpt lat="42.377" lon="2.20301">
        <ele>1625.5</ele>
        <time>2024-09-25T12:56:50Z</time>
      </trkpt>
      <trkpt lat="42.377" lon="2.20301">
        <ele>1625.5</ele>
        <time>2024-09-25T12:56:51Z</time>
      </trkpt>
      <trkpt lat="42.377" lon="2.20301">
        <ele>1625.5</ele>
        <time>2024-09-25T12:56:52Z</time>
      </trkpt>
      <trkpt lat="42.377" lon="2.20301">
        <ele>1625.5</ele>
        <time>2024-09-25T12:56:53Z</time>
      </trkpt>
      <trkpt lat="42.377" lon="2.20301">
        <ele>1625.5</ele>
        <time>2024-09-25T12:56:54Z</time>
      </trkpt>
      <trkpt lat="42.377" lon="2.20301">
        <ele>1625.5</ele>
        <time>2024-09-25T12:56:55Z</time>
      </trkpt>
      <trkpt lat="42.377" lon="2.20301">
        <ele>1625.5</ele>
        <time>2024-09-25T12:56:56Z</time>
      </trkpt>
      <trkpt lat="42.377" lon="2.20301">
        <ele>1625.5</ele>
        <time>2024-09-25T12:56:57Z</time>
      </trkpt>
      <trkpt lat="42.377" lon="2.20301">
        <ele>1625.5</ele>
        <time>2024-09-25T12:56:58Z</time>
      </trkpt>
      <trkpt lat="42.37699" lon="2.20302">
        <ele>1624.6</ele>
        <time>2024-09-25T12:56:59Z</time>
      </trkpt>
      <trkpt lat="42.37699" lon="2.20302">
        <ele>1624.6</ele>
        <time>2024-09-25T12:57:00Z</time>
      </trkpt>
      <trkpt lat="42.37698" lon="2.20302">
        <ele>1624.6</ele>
        <time>2024-09-25T12:57:01Z</time>
      </trkpt>
      <trkpt lat="42.37698" lon="2.20301">
        <ele>1623.7</ele>
        <time>2024-09-25T12:57:02Z</time>
      </trkpt>
      <trkpt lat="42.37698" lon="2.20301">
        <ele>1623.7</ele>
        <time>2024-09-25T12:57:03Z</time>
      </trkpt>
      <trkpt lat="42.37698" lon="2.20301">
        <ele>1623.7</ele>
        <time>2024-09-25T12:57:04Z</time>
      </trkpt>
      <trkpt lat="42.37698" lon="2.203">
        <ele>1623.7</ele>
        <time>2024-09-25T12:57:05Z</time>
      </trkpt>
      <trkpt lat="42.37698" lon="2.20299">
        <ele>1623.7</ele>
        <time>2024-09-25T12:57:06Z</time>
      </trkpt>
      <trkpt lat="42.37698" lon="2.20299">
        <ele>1623.7</ele>
        <time>2024-09-25T12:57:07Z</time>
      </trkpt>
      <trkpt lat="42.37698" lon="2.20299">
        <ele>1623.7</ele>
        <time>2024-09-25T12:57:08Z</time>
      </trkpt>
      <trkpt lat="42.37698" lon="2.20299">
        <ele>1623.7</ele>
        <time>2024-09-25T12:57:09Z</time>
      </trkpt>
      <trkpt lat="42.37698" lon="2.20299">
        <ele>1623.7</ele>
        <time>2024-09-25T12:57:10Z</time>
      </trkpt>
      <trkpt lat="42.37698" lon="2.20299">
        <ele>1623.7</ele>
        <time>2024-09-25T12:57:11Z</time>
      </trkpt>
      <trkpt lat="42.37698" lon="2.20298">
        <ele>1623.7</ele>
        <time>2024-09-25T12:57:12Z</time>
      </trkpt>
      <trkpt lat="42.37697" lon="2.20298">
        <ele>1623.7</ele>
        <time>2024-09-25T12:57:13Z</time>
      </trkpt>
      <trkpt lat="42.37697" lon="2.20298">
        <ele>1623.7</ele>
        <time>2024-09-25T12:57:14Z</time>
      </trkpt>
      <trkpt lat="42.37697" lon="2.20298">
        <ele>1621.9</ele>
        <time>2024-09-25T12:57:15Z</time>
      </trkpt>
      <trkpt lat="42.37696" lon="2.20297">
        <ele>1621</ele>
        <time>2024-09-25T12:57:16Z</time>
      </trkpt>
      <trkpt lat="42.37696" lon="2.20297">
        <ele>1621</ele>
        <time>2024-09-25T12:57:17Z</time>
      </trkpt>
      <trkpt lat="42.37697" lon="2.20296">
        <ele>1622.8</ele>
        <time>2024-09-25T12:57:18Z</time>
      </trkpt>
      <trkpt lat="42.37697" lon="2.20296">
        <ele>1622.8</ele>
        <time>2024-09-25T12:57:19Z</time>
      </trkpt>
      <trkpt lat="42.37698" lon="2.20296">
        <ele>1622.8</ele>
        <time>2024-09-25T12:57:20Z</time>
      </trkpt>
      <trkpt lat="42.37697" lon="2.20296">
        <ele>1622.8</ele>
        <time>2024-09-25T12:57:21Z</time>
      </trkpt>
      <trkpt lat="42.37697" lon="2.20296">
        <ele>1622.8</ele>
        <time>2024-09-25T12:57:22Z</time>
      </trkpt>
      <trkpt lat="42.37697" lon="2.20296">
        <ele>1622.8</ele>
        <time>2024-09-25T12:57:23Z</time>
      </trkpt>
      <trkpt lat="42.37697" lon="2.20297">
        <ele>1622.8</ele>
        <time>2024-09-25T12:57:24Z</time>
      </trkpt>
      <trkpt lat="42.37696" lon="2.20298">
        <ele>1621.9</ele>
        <time>2024-09-25T12:57:25Z</time>
      </trkpt>
      <trkpt lat="42.37696" lon="2.20298">
        <ele>1621.9</ele>
        <time>2024-09-25T12:57:26Z</time>
      </trkpt>
      <trkpt lat="42.37696" lon="2.20299">
        <ele>1621.9</ele>
        <time>2024-09-25T12:57:27Z</time>
      </trkpt>
      <trkpt lat="42.37696" lon="2.20299">
        <ele>1621.9</ele>
        <time>2024-09-25T12:57:28Z</time>
      </trkpt>
      <trkpt lat="42.37695" lon="2.20299">
        <ele>1621.8</ele>
        <time>2024-09-25T12:57:29Z</time>
      </trkpt>
      <trkpt lat="42.37695" lon="2.20299">
        <ele>1621.8</ele>
        <time>2024-09-25T12:57:30Z</time>
      </trkpt>
      <trkpt lat="42.37695" lon="2.20299">
        <ele>1621.8</ele>
        <time>2024-09-25T12:57:31Z</time>
      </trkpt>
      <trkpt lat="42.37695" lon="2.20299">
        <ele>1621.8</ele>
        <time>2024-09-25T12:57:32Z</time>
      </trkpt>
      <trkpt lat="42.37695" lon="2.20299">
        <ele>1621.8</ele>
        <time>2024-09-25T12:57:33Z</time>
      </trkpt>
      <trkpt lat="42.37694" lon="2.20298">
        <ele>1621.8</ele>
        <time>2024-09-25T12:57:34Z</time>
      </trkpt>
      <trkpt lat="42.37694" lon="2.20298">
        <ele>1621.8</ele>
        <time>2024-09-25T12:57:35Z</time>
      </trkpt>
      <trkpt lat="42.37694" lon="2.20298">
        <ele>1621.8</ele>
        <time>2024-09-25T12:57:36Z</time>
      </trkpt>
      <trkpt lat="42.37694" lon="2.20298">
        <ele>1621.8</ele>
        <time>2024-09-25T12:57:37Z</time>
      </trkpt>
      <trkpt lat="42.37694" lon="2.20297">
        <ele>1620.8</ele>
        <time>2024-09-25T12:57:38Z</time>
      </trkpt>
      <trkpt lat="42.37694" lon="2.20297">
        <ele>1620.8</ele>
        <time>2024-09-25T12:57:39Z</time>
      </trkpt>
      <trkpt lat="42.37694" lon="2.20297">
        <ele>1620.8</ele>
        <time>2024-09-25T12:57:40Z</time>
      </trkpt>
      <trkpt lat="42.37694" lon="2.20297">
        <ele>1620.8</ele>
        <time>2024-09-25T12:57:41Z</time>
      </trkpt>
      <trkpt lat="42.37694" lon="2.20297">
        <ele>1620.8</ele>
        <time>2024-09-25T12:57:42Z</time>
      </trkpt>
      <trkpt lat="42.37694" lon="2.20296">
        <ele>1620.8</ele>
        <time>2024-09-25T12:57:43Z</time>
      </trkpt>
      <trkpt lat="42.37694" lon="2.20296">
        <ele>1620.8</ele>
        <time>2024-09-25T12:57:44Z</time>
      </trkpt>
      <trkpt lat="42.37694" lon="2.20296">
        <ele>1620.8</ele>
        <time>2024-09-25T12:57:45Z</time>
      </trkpt>
      <trkpt lat="42.37693" lon="2.20296">
        <ele>1618.9</ele>
        <time>2024-09-25T12:57:46Z</time>
      </trkpt>
      <trkpt lat="42.37693" lon="2.20296">
        <ele>1618.9</ele>
        <time>2024-09-25T12:57:47Z</time>
      </trkpt>
      <trkpt lat="42.37692" lon="2.20297">
        <ele>1618.9</ele>
        <time>2024-09-25T12:57:48Z</time>
      </trkpt>
      <trkpt lat="42.37692" lon="2.20297">
        <ele>1618.9</ele>
        <time>2024-09-25T12:57:49Z</time>
      </trkpt>
      <trkpt lat="42.37692" lon="2.20297">
        <ele>1618.9</ele>
        <time>2024-09-25T12:57:50Z</time>
      </trkpt>
      <trkpt lat="42.37692" lon="2.20297">
        <ele>1618.9</ele>
        <time>2024-09-25T12:57:51Z</time>
      </trkpt>
      <trkpt lat="42.37691" lon="2.20297">
        <ele>1618.9</ele>
        <time>2024-09-25T12:57:52Z</time>
      </trkpt>
      <trkpt lat="42.37691" lon="2.20296">
        <ele>1618.9</ele>
        <time>2024-09-25T12:57:53Z</time>
      </trkpt>
      <trkpt lat="42.37691" lon="2.20296">
        <ele>1618.9</ele>
        <time>2024-09-25T12:57:54Z</time>
      </trkpt>
      <trkpt lat="42.37691" lon="2.20296">
        <ele>1618.9</ele>
        <time>2024-09-25T12:57:55Z</time>
      </trkpt>
      <trkpt lat="42.37691" lon="2.20296">
        <ele>1618.9</ele>
        <time>2024-09-25T12:57:56Z</time>
      </trkpt>
      <trkpt lat="42.37691" lon="2.20296">
        <ele>1618.8</ele>
        <time>2024-09-25T12:57:57Z</time>
      </trkpt>
      <trkpt lat="42.37691" lon="2.20296">
        <ele>1618.8</ele>
        <time>2024-09-25T12:57:58Z</time>
      </trkpt>
      <trkpt lat="42.37691" lon="2.20296">
        <ele>1618.8</ele>
        <time>2024-09-25T12:57:59Z</time>
      </trkpt>
      <trkpt lat="42.37691" lon="2.20296">
        <ele>1618.8</ele>
        <time>2024-09-25T12:58:00Z</time>
      </trkpt>
      <trkpt lat="42.37691" lon="2.20296">
        <ele>1618.8</ele>
        <time>2024-09-25T12:58:01Z</time>
      </trkpt>
      <trkpt lat="42.37691" lon="2.20296">
        <ele>1618.8</ele>
        <time>2024-09-25T12:58:02Z</time>
      </trkpt>
      <trkpt lat="42.37691" lon="2.20296">
        <ele>1618.8</ele>
        <time>2024-09-25T12:58:03Z</time>
      </trkpt>
      <trkpt lat="42.37691" lon="2.20296">
        <ele>1618.8</ele>
        <time>2024-09-25T12:58:04Z</time>
      </trkpt>
      <trkpt lat="42.37691" lon="2.20296">
        <ele>1618.8</ele>
        <time>2024-09-25T12:58:05Z</time>
      </trkpt>
      <trkpt lat="42.37691" lon="2.20296">
        <ele>1618.8</ele>
        <time>2024-09-25T12:58:06Z</time>
      </trkpt>
      <trkpt lat="42.37691" lon="2.20296">
        <ele>1618.8</ele>
        <time>2024-09-25T12:58:07Z</time>
      </trkpt>
      <trkpt lat="42.37691" lon="2.20296">
        <ele>1618.8</ele>
        <time>2024-09-25T12:58:08Z</time>
      </trkpt>
      <trkpt lat="42.37691" lon="2.20296">
        <ele>1618.8</ele>
        <time>2024-09-25T12:58:09Z</time>
      </trkpt>
      <trkpt lat="42.37691" lon="2.20296">
        <ele>1618.8</ele>
        <time>2024-09-25T12:58:10Z</time>
      </trkpt>
      <trkpt lat="42.37691" lon="2.20296">
        <ele>1618.8</ele>
        <time>2024-09-25T12:58:11Z</time>
      </trkpt>
      <trkpt lat="42.37691" lon="2.20296">
        <ele>1618.8</ele>
        <time>2024-09-25T12:58:12Z</time>
      </trkpt>
      <trkpt lat="42.37691" lon="2.20296">
        <ele>1618.7</ele>
        <time>2024-09-25T12:58:13Z</time>
      </trkpt>
      <trkpt lat="42.37691" lon="2.20296">
        <ele>1618.7</ele>
        <time>2024-09-25T12:58:14Z</time>
      </trkpt>
      <trkpt lat="42.37691" lon="2.20296">
        <ele>1618.7</ele>
        <time>2024-09-25T12:58:15Z</time>
      </trkpt>
      <trkpt lat="42.37691" lon="2.20296">
        <ele>1618.7</ele>
        <time>2024-09-25T12:58:16Z</time>
      </trkpt>
      <trkpt lat="42.37691" lon="2.20295">
        <ele>1618.7</ele>
        <time>2024-09-25T12:58:17Z</time>
      </trkpt>
      <trkpt lat="42.37691" lon="2.20295">
        <ele>1618.7</ele>
        <time>2024-09-25T12:58:18Z</time>
      </trkpt>
      <trkpt lat="42.37691" lon="2.20295">
        <ele>1618.7</ele>
        <time>2024-09-25T12:58:19Z</time>
      </trkpt>
      <trkpt lat="42.37691" lon="2.20295">
        <ele>1618.7</ele>
        <time>2024-09-25T12:58:20Z</time>
      </trkpt>
      <trkpt lat="42.37691" lon="2.20295">
        <ele>1618.7</ele>
        <time>2024-09-25T12:58:21Z</time>
      </trkpt>
      <trkpt lat="42.37691" lon="2.20295">
        <ele>1618.7</ele>
        <time>2024-09-25T12:58:22Z</time>
      </trkpt>
      <trkpt lat="42.3769" lon="2.20296">
        <ele>1618.7</ele>
        <time>2024-09-25T12:58:23Z</time>
      </trkpt>
      <trkpt lat="42.3769" lon="2.20296">
        <ele>1618.7</ele>
        <time>2024-09-25T12:58:24Z</time>
      </trkpt>
      <trkpt lat="42.3769" lon="2.20296">
        <ele>1616.9</ele>
        <time>2024-09-25T12:58:25Z</time>
      </trkpt>
      <trkpt lat="42.3769" lon="2.20296">
        <ele>1616.9</ele>
        <time>2024-09-25T12:58:26Z</time>
      </trkpt>
      <trkpt lat="42.3769" lon="2.20296">
        <ele>1616.9</ele>
        <time>2024-09-25T12:58:27Z</time>
      </trkpt>
      <trkpt lat="42.3769" lon="2.20296">
        <ele>1616.8</ele>
        <time>2024-09-25T12:58:28Z</time>
      </trkpt>
      <trkpt lat="42.3769" lon="2.20296">
        <ele>1616.8</ele>
        <time>2024-09-25T12:58:29Z</time>
      </trkpt>
      <trkpt lat="42.3769" lon="2.20296">
        <ele>1616.8</ele>
        <time>2024-09-25T12:58:30Z</time>
      </trkpt>
      <trkpt lat="42.3769" lon="2.20296">
        <ele>1616.8</ele>
        <time>2024-09-25T12:58:31Z</time>
      </trkpt>
      <trkpt lat="42.3769" lon="2.20296">
        <ele>1616.8</ele>
        <time>2024-09-25T12:58:32Z</time>
      </trkpt>
      <trkpt lat="42.3769" lon="2.20296">
        <ele>1616.8</ele>
        <time>2024-09-25T12:58:33Z</time>
      </trkpt>
      <trkpt lat="42.3769" lon="2.20296">
        <ele>1616.8</ele>
        <time>2024-09-25T12:58:34Z</time>
      </trkpt>
      <trkpt lat="42.3769" lon="2.20296">
        <ele>1616.8</ele>
        <time>2024-09-25T12:58:35Z</time>
      </trkpt>
      <trkpt lat="42.3769" lon="2.20296">
        <ele>1616.8</ele>
        <time>2024-09-25T12:58:36Z</time>
      </trkpt>
      <trkpt lat="42.3769" lon="2.20296">
        <ele>1616.8</ele>
        <time>2024-09-25T12:58:37Z</time>
      </trkpt>
      <trkpt lat="42.3769" lon="2.20296">
        <ele>1616.8</ele>
        <time>2024-09-25T12:58:38Z</time>
      </trkpt>
      <trkpt lat="42.3769" lon="2.20296">
        <ele>1616.8</ele>
        <time>2024-09-25T12:58:39Z</time>
      </trkpt>
      <trkpt lat="42.3769" lon="2.20296">
        <ele>1616.8</ele>
        <time>2024-09-25T12:58:40Z</time>
      </trkpt>
      <trkpt lat="42.3769" lon="2.20296">
        <ele>1616.8</ele>
        <time>2024-09-25T12:58:41Z</time>
      </trkpt>
      <trkpt lat="42.3769" lon="2.20296">
        <ele>1616.8</ele>
        <time>2024-09-25T12:58:42Z</time>
      </trkpt>
      <trkpt lat="42.3769" lon="2.20296">
        <ele>1616.7</ele>
        <time>2024-09-25T12:58:43Z</time>
      </trkpt>
      <trkpt lat="42.3769" lon="2.20296">
        <ele>1616.7</ele>
        <time>2024-09-25T12:58:44Z</time>
      </trkpt>
      <trkpt lat="42.3769" lon="2.20296">
        <ele>1616.7</ele>
        <time>2024-09-25T12:58:45Z</time>
      </trkpt>
      <trkpt lat="42.3769" lon="2.20296">
        <ele>1616.7</ele>
        <time>2024-09-25T12:58:46Z</time>
      </trkpt>
      <trkpt lat="42.3769" lon="2.20296">
        <ele>1616.7</ele>
        <time>2024-09-25T12:58:47Z</time>
      </trkpt>
      <trkpt lat="42.3769" lon="2.20296">
        <ele>1616.7</ele>
        <time>2024-09-25T12:58:48Z</time>
      </trkpt>
      <trkpt lat="42.3769" lon="2.20296">
        <ele>1616.7</ele>
        <time>2024-09-25T12:58:49Z</time>
      </trkpt>
      <trkpt lat="42.3769" lon="2.20296">
        <ele>1616.7</ele>
        <time>2024-09-25T12:58:50Z</time>
      </trkpt>
      <trkpt lat="42.3769" lon="2.20296">
        <ele>1616.7</ele>
        <time>2024-09-25T12:58:51Z</time>
      </trkpt>
      <trkpt lat="42.3769" lon="2.20296">
        <ele>1616.7</ele>
        <time>2024-09-25T12:58:52Z</time>
      </trkpt>
      <trkpt lat="42.3769" lon="2.20296">
        <ele>1616.7</ele>
        <time>2024-09-25T12:58:53Z</time>
      </trkpt>
      <trkpt lat="42.3769" lon="2.20296">
        <ele>1616.7</ele>
        <time>2024-09-25T12:58:54Z</time>
      </trkpt>
      <trkpt lat="42.3769" lon="2.20296">
        <ele>1616.7</ele>
        <time>2024-09-25T12:58:55Z</time>
      </trkpt>
      <trkpt lat="42.3769" lon="2.20296">
        <ele>1616.7</ele>
        <time>2024-09-25T12:58:56Z</time>
      </trkpt>
      <trkpt lat="42.3769" lon="2.20296">
        <ele>1616.7</ele>
        <time>2024-09-25T12:58:57Z</time>
      </trkpt>
      <trkpt lat="42.3769" lon="2.20296">
        <ele>1616.6</ele>
        <time>2024-09-25T12:58:58Z</time>
      </trkpt>
      <trkpt lat="42.3769" lon="2.20296">
        <ele>1616.6</ele>
        <time>2024-09-25T12:58:59Z</time>
      </trkpt>
      <trkpt lat="42.3769" lon="2.20295">
        <ele>1618.4</ele>
        <time>2024-09-25T12:59:00Z</time>
      </trkpt>
      <trkpt lat="42.3769" lon="2.20295">
        <ele>1618.4</ele>
        <time>2024-09-25T12:59:01Z</time>
      </trkpt>
      <trkpt lat="42.37691" lon="2.20295">
        <ele>1618.4</ele>
        <time>2024-09-25T12:59:02Z</time>
      </trkpt>
      <trkpt lat="42.37691" lon="2.20295">
        <ele>1618.4</ele>
        <time>2024-09-25T12:59:03Z</time>
      </trkpt>
      <trkpt lat="42.37691" lon="2.20295">
        <ele>1618.4</ele>
        <time>2024-09-25T12:59:04Z</time>
      </trkpt>
      <trkpt lat="42.37691" lon="2.20295">
        <ele>1618.4</ele>
        <time>2024-09-25T12:59:05Z</time>
      </trkpt>
      <trkpt lat="42.37691" lon="2.20295">
        <ele>1618.4</ele>
        <time>2024-09-25T12:59:06Z</time>
      </trkpt>
      <trkpt lat="42.37691" lon="2.20295">
        <ele>1618.4</ele>
        <time>2024-09-25T12:59:07Z</time>
      </trkpt>
      <trkpt lat="42.37691" lon="2.20295">
        <ele>1618.4</ele>
        <time>2024-09-25T12:59:08Z</time>
      </trkpt>
      <trkpt lat="42.37691" lon="2.20295">
        <ele>1618.4</ele>
        <time>2024-09-25T12:59:09Z</time>
      </trkpt>
      <trkpt lat="42.37691" lon="2.20295">
        <ele>1618.4</ele>
        <time>2024-09-25T12:59:10Z</time>
      </trkpt>
      <trkpt lat="42.3769" lon="2.20294">
        <ele>1618.4</ele>
        <time>2024-09-25T12:59:11Z</time>
      </trkpt>
      <trkpt lat="42.3769" lon="2.20294">
        <ele>1616.6</ele>
        <time>2024-09-25T12:59:12Z</time>
      </trkpt>
      <trkpt lat="42.3769" lon="2.20293">
        <ele>1616.5</ele>
        <time>2024-09-25T12:59:13Z</time>
      </trkpt>
      <trkpt lat="42.3769" lon="2.20293">
        <ele>1615.3</ele>
        <time>2024-09-25T12:59:14Z</time>
      </trkpt>
      <trkpt lat="42.3769" lon="2.20293">
        <ele>1615.3</ele>
        <time>2024-09-25T12:59:15Z</time>
      </trkpt>
      <trkpt lat="42.37689" lon="2.20293">
        <ele>1615.3</ele>
        <time>2024-09-25T12:59:16Z</time>
      </trkpt>
      <trkpt lat="42.37689" lon="2.20292">
        <ele>1615.3</ele>
        <time>2024-09-25T12:59:17Z</time>
      </trkpt>
      <trkpt lat="42.37689" lon="2.20292">
        <ele>1615.3</ele>
        <time>2024-09-25T12:59:18Z</time>
      </trkpt>
      <trkpt lat="42.37688" lon="2.20292">
        <ele>1615.3</ele>
        <time>2024-09-25T12:59:19Z</time>
      </trkpt>
      <trkpt lat="42.37688" lon="2.20292">
        <ele>1615.3</ele>
        <time>2024-09-25T12:59:20Z</time>
      </trkpt>
      <trkpt lat="42.37688" lon="2.20292">
        <ele>1615.3</ele>
        <time>2024-09-25T12:59:21Z</time>
      </trkpt>
      <trkpt lat="42.37688" lon="2.20292">
        <ele>1615.3</ele>
        <time>2024-09-25T12:59:22Z</time>
      </trkpt>
      <trkpt lat="42.37687" lon="2.20292">
        <ele>1615.2</ele>
        <time>2024-09-25T12:59:23Z</time>
      </trkpt>
      <trkpt lat="42.37687" lon="2.20292">
        <ele>1613.4</ele>
        <time>2024-09-25T12:59:24Z</time>
      </trkpt>
      <trkpt lat="42.37686" lon="2.20292">
        <ele>1613.4</ele>
        <time>2024-09-25T12:59:25Z</time>
      </trkpt>
      <trkpt lat="42.37686" lon="2.20292">
        <ele>1613.4</ele>
        <time>2024-09-25T12:59:26Z</time>
      </trkpt>
      <trkpt lat="42.37686" lon="2.20292">
        <ele>1613.4</ele>
        <time>2024-09-25T12:59:27Z</time>
      </trkpt>
      <trkpt lat="42.37685" lon="2.20292">
        <ele>1613.4</ele>
        <time>2024-09-25T12:59:28Z</time>
      </trkpt>
      <trkpt lat="42.37685" lon="2.20292">
        <ele>1613.4</ele>
        <time>2024-09-25T12:59:29Z</time>
      </trkpt>
      <trkpt lat="42.37685" lon="2.20292">
        <ele>1613.4</ele>
        <time>2024-09-25T12:59:30Z</time>
      </trkpt>
      <trkpt lat="42.37685" lon="2.20292">
        <ele>1613.4</ele>
        <time>2024-09-25T12:59:31Z</time>
      </trkpt>
      <trkpt lat="42.37685" lon="2.20292">
        <ele>1613.4</ele>
        <time>2024-09-25T12:59:32Z</time>
      </trkpt>
      <trkpt lat="42.37685" lon="2.20291">
        <ele>1613.4</ele>
        <time>2024-09-25T12:59:33Z</time>
      </trkpt>
      <trkpt lat="42.37685" lon="2.20291">
        <ele>1613.4</ele>
        <time>2024-09-25T12:59:34Z</time>
      </trkpt>
      <trkpt lat="42.37685" lon="2.20291">
        <ele>1613.4</ele>
        <time>2024-09-25T12:59:35Z</time>
      </trkpt>
      <trkpt lat="42.37685" lon="2.20291">
        <ele>1613.4</ele>
        <time>2024-09-25T12:59:36Z</time>
      </trkpt>
      <trkpt lat="42.37685" lon="2.20291">
        <ele>1613.3</ele>
        <time>2024-09-25T12:59:37Z</time>
      </trkpt>
      <trkpt lat="42.37685" lon="2.20291">
        <ele>1613.3</ele>
        <time>2024-09-25T12:59:38Z</time>
      </trkpt>
      <trkpt lat="42.37684" lon="2.20292">
        <ele>1613.3</ele>
        <time>2024-09-25T12:59:39Z</time>
      </trkpt>
      <trkpt lat="42.37684" lon="2.20292">
        <ele>1613.3</ele>
        <time>2024-09-25T12:59:40Z</time>
      </trkpt>
      <trkpt lat="42.37684" lon="2.20293">
        <ele>1613.3</ele>
        <time>2024-09-25T12:59:41Z</time>
      </trkpt>
      <trkpt lat="42.37684" lon="2.20292">
        <ele>1613.3</ele>
        <time>2024-09-25T12:59:42Z</time>
      </trkpt>
      <trkpt lat="42.37684" lon="2.20292">
        <ele>1613.3</ele>
        <time>2024-09-25T12:59:43Z</time>
      </trkpt>
      <trkpt lat="42.37684" lon="2.20292">
        <ele>1613.3</ele>
        <time>2024-09-25T12:59:44Z</time>
      </trkpt>
      <trkpt lat="42.37684" lon="2.20292">
        <ele>1613.3</ele>
        <time>2024-09-25T12:59:45Z</time>
      </trkpt>
      <trkpt lat="42.37684" lon="2.20291">
        <ele>1613.3</ele>
        <time>2024-09-25T12:59:46Z</time>
      </trkpt>
      <trkpt lat="42.37684" lon="2.20291">
        <ele>1611.6</ele>
        <time>2024-09-25T12:59:47Z</time>
      </trkpt>
      <trkpt lat="42.37684" lon="2.2029">
        <ele>1611.6</ele>
        <time>2024-09-25T12:59:48Z</time>
      </trkpt>
      <trkpt lat="42.37683" lon="2.2029">
        <ele>1611.6</ele>
        <time>2024-09-25T12:59:49Z</time>
      </trkpt>
      <trkpt lat="42.37683" lon="2.2029">
        <ele>1611.6</ele>
        <time>2024-09-25T12:59:50Z</time>
      </trkpt>
      <trkpt lat="42.37683" lon="2.2029">
        <ele>1611.6</ele>
        <time>2024-09-25T12:59:51Z</time>
      </trkpt>
      <trkpt lat="42.37683" lon="2.2029">
        <ele>1611.6</ele>
        <time>2024-09-25T12:59:52Z</time>
      </trkpt>
      <trkpt lat="42.37683" lon="2.2029">
        <ele>1611.5</ele>
        <time>2024-09-25T12:59:53Z</time>
      </trkpt>
      <trkpt lat="42.37683" lon="2.2029">
        <ele>1611.5</ele>
        <time>2024-09-25T12:59:54Z</time>
      </trkpt>
      <trkpt lat="42.37683" lon="2.2029">
        <ele>1611.5</ele>
        <time>2024-09-25T12:59:55Z</time>
      </trkpt>
      <trkpt lat="42.37683" lon="2.2029">
        <ele>1611.5</ele>
        <time>2024-09-25T12:59:56Z</time>
      </trkpt>
      <trkpt lat="42.37683" lon="2.2029">
        <ele>1611.5</ele>
        <time>2024-09-25T12:59:57Z</time>
      </trkpt>
      <trkpt lat="42.37683" lon="2.2029">
        <ele>1611.5</ele>
        <time>2024-09-25T12:59:58Z</time>
      </trkpt>
      <trkpt lat="42.37683" lon="2.2029">
        <ele>1611.5</ele>
        <time>2024-09-25T12:59:59Z</time>
      </trkpt>
      <trkpt lat="42.37683" lon="2.2029">
        <ele>1611.5</ele>
        <time>2024-09-25T13:00:00Z</time>
      </trkpt>
      <trkpt lat="42.37683" lon="2.2029">
        <ele>1611.5</ele>
        <time>2024-09-25T13:00:01Z</time>
      </trkpt>
      <trkpt lat="42.37683" lon="2.2029">
        <ele>1611.5</ele>
        <time>2024-09-25T13:00:02Z</time>
      </trkpt>
      <trkpt lat="42.37683" lon="2.2029">
        <ele>1611.5</ele>
        <time>2024-09-25T13:00:03Z</time>
      </trkpt>
      <trkpt lat="42.37683" lon="2.20289">
        <ele>1611.5</ele>
        <time>2024-09-25T13:00:04Z</time>
      </trkpt>
      <trkpt lat="42.37683" lon="2.20289">
        <ele>1610</ele>
        <time>2024-09-25T13:00:05Z</time>
      </trkpt>
      <trkpt lat="42.37683" lon="2.20288">
        <ele>1610</ele>
        <time>2024-09-25T13:00:06Z</time>
      </trkpt>
      <trkpt lat="42.37683" lon="2.20288">
        <ele>1610</ele>
        <time>2024-09-25T13:00:07Z</time>
      </trkpt>
      <trkpt lat="42.37683" lon="2.20288">
        <ele>1610</ele>
        <time>2024-09-25T13:00:08Z</time>
      </trkpt>
      <trkpt lat="42.37683" lon="2.20287">
        <ele>1610</ele>
        <time>2024-09-25T13:00:09Z</time>
      </trkpt>
      <trkpt lat="42.37683" lon="2.20287">
        <ele>1610</ele>
        <time>2024-09-25T13:00:10Z</time>
      </trkpt>
      <trkpt lat="42.37683" lon="2.20287">
        <ele>1610</ele>
        <time>2024-09-25T13:00:11Z</time>
      </trkpt>
      <trkpt lat="42.37683" lon="2.20287">
        <ele>1610</ele>
        <time>2024-09-25T13:00:12Z</time>
      </trkpt>
      <trkpt lat="42.37683" lon="2.20286">
        <ele>1610</ele>
        <time>2024-09-25T13:00:13Z</time>
      </trkpt>
      <trkpt lat="42.37683" lon="2.20286">
        <ele>1609.9</ele>
        <time>2024-09-25T13:00:14Z</time>
      </trkpt>
      <trkpt lat="42.37683" lon="2.20285">
        <ele>1609.9</ele>
        <time>2024-09-25T13:00:15Z</time>
      </trkpt>
      <trkpt lat="42.37682" lon="2.20285">
        <ele>1609.9</ele>
        <time>2024-09-25T13:00:16Z</time>
      </trkpt>
      <trkpt lat="42.37682" lon="2.20285">
        <ele>1609.9</ele>
        <time>2024-09-25T13:00:17Z</time>
      </trkpt>
      <trkpt lat="42.37682" lon="2.20286">
        <ele>1609.9</ele>
        <time>2024-09-25T13:00:18Z</time>
      </trkpt>
      <trkpt lat="42.37682" lon="2.20285">
        <ele>1609.9</ele>
        <time>2024-09-25T13:00:19Z</time>
      </trkpt>
      <trkpt lat="42.37682" lon="2.20285">
        <ele>1609.9</ele>
        <time>2024-09-25T13:00:20Z</time>
      </trkpt>
      <trkpt lat="42.37682" lon="2.20285">
        <ele>1609.9</ele>
        <time>2024-09-25T13:00:21Z</time>
      </trkpt>
      <trkpt lat="42.37682" lon="2.20285">
        <ele>1609.9</ele>
        <time>2024-09-25T13:00:22Z</time>
      </trkpt>
      <trkpt lat="42.37682" lon="2.20285">
        <ele>1609.9</ele>
        <time>2024-09-25T13:00:23Z</time>
      </trkpt>
      <trkpt lat="42.37681" lon="2.20285">
        <ele>1609.9</ele>
        <time>2024-09-25T13:00:24Z</time>
      </trkpt>
      <trkpt lat="42.37681" lon="2.20285">
        <ele>1608.2</ele>
        <time>2024-09-25T13:00:25Z</time>
      </trkpt>
      <trkpt lat="42.3768" lon="2.20285">
        <ele>1608.2</ele>
        <time>2024-09-25T13:00:26Z</time>
      </trkpt>
      <trkpt lat="42.3768" lon="2.20285">
        <ele>1608.2</ele>
        <time>2024-09-25T13:00:27Z</time>
      </trkpt>
      <trkpt lat="42.3768" lon="2.20285">
        <ele>1608.2</ele>
        <time>2024-09-25T13:00:28Z</time>
      </trkpt>
      <trkpt lat="42.3768" lon="2.20285">
        <ele>1608.2</ele>
        <time>2024-09-25T13:00:29Z</time>
      </trkpt>
      <trkpt lat="42.3768" lon="2.20285">
        <ele>1608.2</ele>
        <time>2024-09-25T13:00:30Z</time>
      </trkpt>
      <trkpt lat="42.3768" lon="2.20285">
        <ele>1608.2</ele>
        <time>2024-09-25T13:00:31Z</time>
      </trkpt>
      <trkpt lat="42.3768" lon="2.20285">
        <ele>1608.2</ele>
        <time>2024-09-25T13:00:32Z</time>
      </trkpt>
      <trkpt lat="42.3768" lon="2.20285">
        <ele>1608.1</ele>
        <time>2024-09-25T13:00:33Z</time>
      </trkpt>
      <trkpt lat="42.3768" lon="2.20285">
        <ele>1608.1</ele>
        <time>2024-09-25T13:00:34Z</time>
      </trkpt>
      <trkpt lat="42.3768" lon="2.20285">
        <ele>1608.1</ele>
        <time>2024-09-25T13:00:35Z</time>
      </trkpt>
      <trkpt lat="42.3768" lon="2.20285">
        <ele>1608.1</ele>
        <time>2024-09-25T13:00:36Z</time>
      </trkpt>
      <trkpt lat="42.3768" lon="2.20285">
        <ele>1608.1</ele>
        <time>2024-09-25T13:00:37Z</time>
      </trkpt>
      <trkpt lat="42.3768" lon="2.20285">
        <ele>1608.1</ele>
        <time>2024-09-25T13:00:38Z</time>
      </trkpt>
      <trkpt lat="42.3768" lon="2.20285">
        <ele>1608.1</ele>
        <time>2024-09-25T13:00:39Z</time>
      </trkpt>
      <trkpt lat="42.3768" lon="2.20285">
        <ele>1608.1</ele>
        <time>2024-09-25T13:00:40Z</time>
      </trkpt>
      <trkpt lat="42.3768" lon="2.20285">
        <ele>1608.1</ele>
        <time>2024-09-25T13:00:41Z</time>
      </trkpt>
      <trkpt lat="42.37679" lon="2.20286">
        <ele>1608.1</ele>
        <time>2024-09-25T13:00:42Z</time>
      </trkpt>
      <trkpt lat="42.37678" lon="2.20286">
        <ele>1608.1</ele>
        <time>2024-09-25T13:00:43Z</time>
      </trkpt>
      <trkpt lat="42.37678" lon="2.20287">
        <ele>1608.1</ele>
        <time>2024-09-25T13:00:44Z</time>
      </trkpt>
      <trkpt lat="42.37678" lon="2.20287">
        <ele>1608.1</ele>
        <time>2024-09-25T13:00:45Z</time>
      </trkpt>
      <trkpt lat="42.37677" lon="2.20287">
        <ele>1606.4</ele>
        <time>2024-09-25T13:00:46Z</time>
      </trkpt>
      <trkpt lat="42.37677" lon="2.20288">
        <ele>1606.4</ele>
        <time>2024-09-25T13:00:47Z</time>
      </trkpt>
      <trkpt lat="42.37677" lon="2.20288">
        <ele>1606.4</ele>
        <time>2024-09-25T13:00:48Z</time>
      </trkpt>
      <trkpt lat="42.37676" lon="2.20287">
        <ele>1606.4</ele>
        <time>2024-09-25T13:00:49Z</time>
      </trkpt>
      <trkpt lat="42.37676" lon="2.20287">
        <ele>1606.4</ele>
        <time>2024-09-25T13:00:50Z</time>
      </trkpt>
      <trkpt lat="42.37675" lon="2.20287">
        <ele>1606.4</ele>
        <time>2024-09-25T13:00:51Z</time>
      </trkpt>
      <trkpt lat="42.37675" lon="2.20287">
        <ele>1606.4</ele>
        <time>2024-09-25T13:00:52Z</time>
      </trkpt>
      <trkpt lat="42.37674" lon="2.20286">
        <ele>1604.7</ele>
        <time>2024-09-25T13:00:53Z</time>
      </trkpt>
      <trkpt lat="42.37673" lon="2.20286">
        <ele>1604.7</ele>
        <time>2024-09-25T13:00:54Z</time>
      </trkpt>
      <trkpt lat="42.37672" lon="2.20286">
        <ele>1604.7</ele>
        <time>2024-09-25T13:00:55Z</time>
      </trkpt>
      <trkpt lat="42.37671" lon="2.20286">
        <ele>1604.7</ele>
        <time>2024-09-25T13:00:56Z</time>
      </trkpt>
      <trkpt lat="42.37671" lon="2.20287">
        <ele>1603.1</ele>
        <time>2024-09-25T13:00:57Z</time>
      </trkpt>
      <trkpt lat="42.37671" lon="2.20287">
        <ele>1603.1</ele>
        <time>2024-09-25T13:00:58Z</time>
      </trkpt>
      <trkpt lat="42.37671" lon="2.20287">
        <ele>1603.1</ele>
        <time>2024-09-25T13:00:59Z</time>
      </trkpt>
      <trkpt lat="42.37671" lon="2.20287">
        <ele>1603.1</ele>
        <time>2024-09-25T13:01:00Z</time>
      </trkpt>
      <trkpt lat="42.37671" lon="2.20287">
        <ele>1603</ele>
        <time>2024-09-25T13:01:01Z</time>
      </trkpt>
      <trkpt lat="42.37671" lon="2.20287">
        <ele>1603</ele>
        <time>2024-09-25T13:01:02Z</time>
      </trkpt>
      <trkpt lat="42.37671" lon="2.20286">
        <ele>1604.7</ele>
        <time>2024-09-25T13:01:03Z</time>
      </trkpt>
      <trkpt lat="42.37672" lon="2.20286">
        <ele>1604.7</ele>
        <time>2024-09-25T13:01:04Z</time>
      </trkpt>
      <trkpt lat="42.37672" lon="2.20286">
        <ele>1604.7</ele>
        <time>2024-09-25T13:01:05Z</time>
      </trkpt>
      <trkpt lat="42.37672" lon="2.20286">
        <ele>1604.6</ele>
        <time>2024-09-25T13:01:06Z</time>
      </trkpt>
      <trkpt lat="42.37672" lon="2.20286">
        <ele>1604.6</ele>
        <time>2024-09-25T13:01:07Z</time>
      </trkpt>
      <trkpt lat="42.37672" lon="2.20286">
        <ele>1604.6</ele>
        <time>2024-09-25T13:01:08Z</time>
      </trkpt>
      <trkpt lat="42.37672" lon="2.20286">
        <ele>1604.6</ele>
        <time>2024-09-25T13:01:09Z</time>
      </trkpt>
      <trkpt lat="42.37672" lon="2.20286">
        <ele>1604.6</ele>
        <time>2024-09-25T13:01:10Z</time>
      </trkpt>
      <trkpt lat="42.37672" lon="2.20286">
        <ele>1604.6</ele>
        <time>2024-09-25T13:01:11Z</time>
      </trkpt>
      <trkpt lat="42.37672" lon="2.20286">
        <ele>1604.6</ele>
        <time>2024-09-25T13:01:12Z</time>
      </trkpt>
      <trkpt lat="42.37672" lon="2.20286">
        <ele>1604.6</ele>
        <time>2024-09-25T13:01:13Z</time>
      </trkpt>
      <trkpt lat="42.37672" lon="2.20286">
        <ele>1604.6</ele>
        <time>2024-09-25T13:01:14Z</time>
      </trkpt>
      <trkpt lat="42.37672" lon="2.20286">
        <ele>1604.6</ele>
        <time>2024-09-25T13:01:15Z</time>
      </trkpt>
      <trkpt lat="42.37672" lon="2.20286">
        <ele>1604.6</ele>
        <time>2024-09-25T13:01:16Z</time>
      </trkpt>
      <trkpt lat="42.37672" lon="2.20286">
        <ele>1604.6</ele>
        <time>2024-09-25T13:01:17Z</time>
      </trkpt>
      <trkpt lat="42.37672" lon="2.20286">
        <ele>1604.6</ele>
        <time>2024-09-25T13:01:18Z</time>
      </trkpt>
      <trkpt lat="42.37672" lon="2.20286">
        <ele>1604.6</ele>
        <time>2024-09-25T13:01:19Z</time>
      </trkpt>
      <trkpt lat="42.37672" lon="2.20286">
        <ele>1604.6</ele>
        <time>2024-09-25T13:01:20Z</time>
      </trkpt>
      <trkpt lat="42.37672" lon="2.20286">
        <ele>1604.5</ele>
        <time>2024-09-25T13:01:21Z</time>
      </trkpt>
      <trkpt lat="42.37672" lon="2.20286">
        <ele>1604.5</ele>
        <time>2024-09-25T13:01:22Z</time>
      </trkpt>
      <trkpt lat="42.37672" lon="2.20286">
        <ele>1604.5</ele>
        <time>2024-09-25T13:01:23Z</time>
      </trkpt>
      <trkpt lat="42.37672" lon="2.20286">
        <ele>1604.5</ele>
        <time>2024-09-25T13:01:24Z</time>
      </trkpt>
      <trkpt lat="42.37672" lon="2.20286">
        <ele>1604.5</ele>
        <time>2024-09-25T13:01:25Z</time>
      </trkpt>
      <trkpt lat="42.37672" lon="2.20286">
        <ele>1604.5</ele>
        <time>2024-09-25T13:01:26Z</time>
      </trkpt>
      <trkpt lat="42.37672" lon="2.20286">
        <ele>1604.5</ele>
        <time>2024-09-25T13:01:27Z</time>
      </trkpt>
      <trkpt lat="42.37672" lon="2.20287">
        <ele>1604.5</ele>
        <time>2024-09-25T13:01:28Z</time>
      </trkpt>
      <trkpt lat="42.37672" lon="2.20287">
        <ele>1604.5</ele>
        <time>2024-09-25T13:01:29Z</time>
      </trkpt>
      <trkpt lat="42.37672" lon="2.20287">
        <ele>1604.5</ele>
        <time>2024-09-25T13:01:30Z</time>
      </trkpt>
      <trkpt lat="42.37671" lon="2.20287">
        <ele>1604.5</ele>
        <time>2024-09-25T13:01:31Z</time>
      </trkpt>
      <trkpt lat="42.37671" lon="2.20287">
        <ele>1604.5</ele>
        <time>2024-09-25T13:01:32Z</time>
      </trkpt>
      <trkpt lat="42.37671" lon="2.20287">
        <ele>1604.5</ele>
        <time>2024-09-25T13:01:33Z</time>
      </trkpt>
      <trkpt lat="42.37671" lon="2.20287">
        <ele>1604.5</ele>
        <time>2024-09-25T13:01:34Z</time>
      </trkpt>
      <trkpt lat="42.37671" lon="2.20287">
        <ele>1604.5</ele>
        <time>2024-09-25T13:01:35Z</time>
      </trkpt>
      <trkpt lat="42.37671" lon="2.20287">
        <ele>1604.4</ele>
        <time>2024-09-25T13:01:36Z</time>
      </trkpt>
      <trkpt lat="42.37671" lon="2.20287">
        <ele>1604.4</ele>
        <time>2024-09-25T13:01:37Z</time>
      </trkpt>
      <trkpt lat="42.37671" lon="2.20287">
        <ele>1604.4</ele>
        <time>2024-09-25T13:01:38Z</time>
      </trkpt>
      <trkpt lat="42.37671" lon="2.20287">
        <ele>1604.4</ele>
        <time>2024-09-25T13:01:39Z</time>
      </trkpt>
      <trkpt lat="42.37671" lon="2.20287">
        <ele>1604.4</ele>
        <time>2024-09-25T13:01:40Z</time>
      </trkpt>
      <trkpt lat="42.37671" lon="2.20287">
        <ele>1604.4</ele>
        <time>2024-09-25T13:01:41Z</time>
      </trkpt>
      <trkpt lat="42.37671" lon="2.20287">
        <ele>1604.4</ele>
        <time>2024-09-25T13:01:42Z</time>
      </trkpt>
      <trkpt lat="42.37671" lon="2.20287">
        <ele>1604.4</ele>
        <time>2024-09-25T13:01:43Z</time>
      </trkpt>
      <trkpt lat="42.37671" lon="2.20287">
        <ele>1604.4</ele>
        <time>2024-09-25T13:01:44Z</time>
      </trkpt>
      <trkpt lat="42.37671" lon="2.20287">
        <ele>1604.4</ele>
        <time>2024-09-25T13:01:45Z</time>
      </trkpt>
      <trkpt lat="42.37671" lon="2.20287">
        <ele>1604.4</ele>
        <time>2024-09-25T13:01:46Z</time>
      </trkpt>
      <trkpt lat="42.37671" lon="2.20287">
        <ele>1604.4</ele>
        <time>2024-09-25T13:01:47Z</time>
      </trkpt>
      <trkpt lat="42.37671" lon="2.20287">
        <ele>1604.4</ele>
        <time>2024-09-25T13:01:48Z</time>
      </trkpt>
      <trkpt lat="42.37671" lon="2.20287">
        <ele>1604.4</ele>
        <time>2024-09-25T13:01:49Z</time>
      </trkpt>
      <trkpt lat="42.37671" lon="2.20287">
        <ele>1604.4</ele>
        <time>2024-09-25T13:01:50Z</time>
      </trkpt>
      <trkpt lat="42.37671" lon="2.20287">
        <ele>1604.4</ele>
        <time>2024-09-25T13:01:51Z</time>
      </trkpt>
      <trkpt lat="42.37671" lon="2.20287">
        <ele>1604.3</ele>
        <time>2024-09-25T13:01:52Z</time>
      </trkpt>
      <trkpt lat="42.37671" lon="2.20287">
        <ele>1604.3</ele>
        <time>2024-09-25T13:01:53Z</time>
      </trkpt>
      <trkpt lat="42.37671" lon="2.20287">
        <ele>1604.3</ele>
        <time>2024-09-25T13:01:54Z</time>
      </trkpt>
      <trkpt lat="42.37671" lon="2.20287">
        <ele>1604.3</ele>
        <time>2024-09-25T13:01:55Z</time>
      </trkpt>
      <trkpt lat="42.37671" lon="2.20287">
        <ele>1604.3</ele>
        <time>2024-09-25T13:01:56Z</time>
      </trkpt>
      <trkpt lat="42.37671" lon="2.20287">
        <ele>1604.3</ele>
        <time>2024-09-25T13:01:57Z</time>
      </trkpt>
      <trkpt lat="42.37671" lon="2.20287">
        <ele>1604.3</ele>
        <time>2024-09-25T13:01:58Z</time>
      </trkpt>
      <trkpt lat="42.37671" lon="2.20287">
        <ele>1604.3</ele>
        <time>2024-09-25T13:01:59Z</time>
      </trkpt>
      <trkpt lat="42.37671" lon="2.20287">
        <ele>1604.3</ele>
        <time>2024-09-25T13:02:00Z</time>
      </trkpt>
      <trkpt lat="42.37671" lon="2.20287">
        <ele>1604.3</ele>
        <time>2024-09-25T13:02:01Z</time>
      </trkpt>
      <trkpt lat="42.37671" lon="2.20287">
        <ele>1604.3</ele>
        <time>2024-09-25T13:02:02Z</time>
      </trkpt>
      <trkpt lat="42.37671" lon="2.20287">
        <ele>1604.3</ele>
        <time>2024-09-25T13:02:03Z</time>
      </trkpt>
      <trkpt lat="42.37672" lon="2.20287">
        <ele>1604.3</ele>
        <time>2024-09-25T13:02:04Z</time>
      </trkpt>
      <trkpt lat="42.37672" lon="2.20288">
        <ele>1604.3</ele>
        <time>2024-09-25T13:02:05Z</time>
      </trkpt>
      <trkpt lat="42.37672" lon="2.20288">
        <ele>1604.3</ele>
        <time>2024-09-25T13:02:06Z</time>
      </trkpt>
      <trkpt lat="42.37672" lon="2.20289">
        <ele>1605.8</ele>
        <time>2024-09-25T13:02:07Z</time>
      </trkpt>
      <trkpt lat="42.37672" lon="2.2029">
        <ele>1605.8</ele>
        <time>2024-09-25T13:02:08Z</time>
      </trkpt>
      <trkpt lat="42.37673" lon="2.2029">
        <ele>1605.8</ele>
        <time>2024-09-25T13:02:09Z</time>
      </trkpt>
      <trkpt lat="42.37673" lon="2.20291">
        <ele>1605.8</ele>
        <time>2024-09-25T13:02:10Z</time>
      </trkpt>
      <trkpt lat="42.37674" lon="2.20291">
        <ele>1605.8</ele>
        <time>2024-09-25T13:02:11Z</time>
      </trkpt>
      <trkpt lat="42.37674" lon="2.20292">
        <ele>1605.8</ele>
        <time>2024-09-25T13:02:12Z</time>
      </trkpt>
      <trkpt lat="42.37674" lon="2.20291">
        <ele>1605.8</ele>
        <time>2024-09-25T13:02:13Z</time>
      </trkpt>
      <trkpt lat="42.37674" lon="2.20291">
        <ele>1605.7</ele>
        <time>2024-09-25T13:02:14Z</time>
      </trkpt>
      <trkpt lat="42.37674" lon="2.20291">
        <ele>1605.7</ele>
        <time>2024-09-25T13:02:15Z</time>
      </trkpt>
      <trkpt lat="42.37674" lon="2.20291">
        <ele>1605.7</ele>
        <time>2024-09-25T13:02:16Z</time>
      </trkpt>
      <trkpt lat="42.37674" lon="2.20291">
        <ele>1605.7</ele>
        <time>2024-09-25T13:02:17Z</time>
      </trkpt>
      <trkpt lat="42.37674" lon="2.20291">
        <ele>1605.7</ele>
        <time>2024-09-25T13:02:18Z</time>
      </trkpt>
      <trkpt lat="42.37674" lon="2.20291">
        <ele>1605.7</ele>
        <time>2024-09-25T13:02:19Z</time>
      </trkpt>
      <trkpt lat="42.37674" lon="2.20291">
        <ele>1605.7</ele>
        <time>2024-09-25T13:02:20Z</time>
      </trkpt>
      <trkpt lat="42.37674" lon="2.20291">
        <ele>1605.7</ele>
        <time>2024-09-25T13:02:21Z</time>
      </trkpt>
      <trkpt lat="42.37674" lon="2.20291">
        <ele>1605.7</ele>
        <time>2024-09-25T13:02:22Z</time>
      </trkpt>
      <trkpt lat="42.37674" lon="2.20291">
        <ele>1605.7</ele>
        <time>2024-09-25T13:02:23Z</time>
      </trkpt>
      <trkpt lat="42.37674" lon="2.20291">
        <ele>1605.7</ele>
        <time>2024-09-25T13:02:24Z</time>
      </trkpt>
      <trkpt lat="42.37674" lon="2.20291">
        <ele>1605.7</ele>
        <time>2024-09-25T13:02:25Z</time>
      </trkpt>
      <trkpt lat="42.37674" lon="2.20291">
        <ele>1605.7</ele>
        <time>2024-09-25T13:02:26Z</time>
      </trkpt>
      <trkpt lat="42.37674" lon="2.20291">
        <ele>1605.7</ele>
        <time>2024-09-25T13:02:27Z</time>
      </trkpt>
      <trkpt lat="42.37674" lon="2.20291">
        <ele>1605.7</ele>
        <time>2024-09-25T13:02:28Z</time>
      </trkpt>
      <trkpt lat="42.37674" lon="2.2029">
        <ele>1605.7</ele>
        <time>2024-09-25T13:02:29Z</time>
      </trkpt>
      <trkpt lat="42.37673" lon="2.20289">
        <ele>1605.6</ele>
        <time>2024-09-25T13:02:30Z</time>
      </trkpt>
      <trkpt lat="42.37672" lon="2.20289">
        <ele>1604.1</ele>
        <time>2024-09-25T13:02:31Z</time>
      </trkpt>
      <trkpt lat="42.37672" lon="2.20288">
        <ele>1604.1</ele>
        <time>2024-09-25T13:02:32Z</time>
      </trkpt>
      <trkpt lat="42.37671" lon="2.20288">
        <ele>1602.4</ele>
        <time>2024-09-25T13:02:33Z</time>
      </trkpt>
      <trkpt lat="42.37671" lon="2.20288">
        <ele>1602.4</ele>
        <time>2024-09-25T13:02:34Z</time>
      </trkpt>
      <trkpt lat="42.3767" lon="2.20289">
        <ele>1602.4</ele>
        <time>2024-09-25T13:02:35Z</time>
      </trkpt>
      <trkpt lat="42.3767" lon="2.20289">
        <ele>1602.4</ele>
        <time>2024-09-25T13:02:36Z</time>
      </trkpt>
      <trkpt lat="42.3767" lon="2.20289">
        <ele>1602.4</ele>
        <time>2024-09-25T13:02:37Z</time>
      </trkpt>
      <trkpt lat="42.3767" lon="2.20289">
        <ele>1604</ele>
        <time>2024-09-25T13:02:38Z</time>
      </trkpt>
      <trkpt lat="42.3767" lon="2.20289">
        <ele>1603.9</ele>
        <time>2024-09-25T13:02:39Z</time>
      </trkpt>
      <trkpt lat="42.3767" lon="2.20289">
        <ele>1603.9</ele>
        <time>2024-09-25T13:02:40Z</time>
      </trkpt>
      <trkpt lat="42.3767" lon="2.20289">
        <ele>1603.9</ele>
        <time>2024-09-25T13:02:41Z</time>
      </trkpt>
      <trkpt lat="42.3767" lon="2.20289">
        <ele>1603.9</ele>
        <time>2024-09-25T13:02:42Z</time>
      </trkpt>
      <trkpt lat="42.3767" lon="2.20289">
        <ele>1603.9</ele>
        <time>2024-09-25T13:02:43Z</time>
      </trkpt>
      <trkpt lat="42.3767" lon="2.20289">
        <ele>1603.9</ele>
        <time>2024-09-25T13:02:44Z</time>
      </trkpt>
      <trkpt lat="42.3767" lon="2.20289">
        <ele>1603.9</ele>
        <time>2024-09-25T13:02:45Z</time>
      </trkpt>
      <trkpt lat="42.3767" lon="2.20289">
        <ele>1603.9</ele>
        <time>2024-09-25T13:02:46Z</time>
      </trkpt>
      <trkpt lat="42.3767" lon="2.20289">
        <ele>1603.9</ele>
        <time>2024-09-25T13:02:47Z</time>
      </trkpt>
      <trkpt lat="42.3767" lon="2.20289">
        <ele>1603.9</ele>
        <time>2024-09-25T13:02:48Z</time>
      </trkpt>
      <trkpt lat="42.3767" lon="2.20289">
        <ele>1603.9</ele>
        <time>2024-09-25T13:02:49Z</time>
      </trkpt>
      <trkpt lat="42.3767" lon="2.20289">
        <ele>1603.9</ele>
        <time>2024-09-25T13:02:50Z</time>
      </trkpt>
      <trkpt lat="42.3767" lon="2.20289">
        <ele>1603.9</ele>
        <time>2024-09-25T13:02:51Z</time>
      </trkpt>
      <trkpt lat="42.3767" lon="2.20289">
        <ele>1603.9</ele>
        <time>2024-09-25T13:02:52Z</time>
      </trkpt>
      <trkpt lat="42.3767" lon="2.20289">
        <ele>1603.9</ele>
        <time>2024-09-25T13:02:53Z</time>
      </trkpt>
      <trkpt lat="42.3767" lon="2.20289">
        <ele>1603.8</ele>
        <time>2024-09-25T13:02:54Z</time>
      </trkpt>
      <trkpt lat="42.3767" lon="2.20289">
        <ele>1603.8</ele>
        <time>2024-09-25T13:02:55Z</time>
      </trkpt>
      <trkpt lat="42.3767" lon="2.20289">
        <ele>1603.8</ele>
        <time>2024-09-25T13:02:56Z</time>
      </trkpt>
      <trkpt lat="42.3767" lon="2.20289">
        <ele>1603.8</ele>
        <time>2024-09-25T13:02:57Z</time>
      </trkpt>
      <trkpt lat="42.3767" lon="2.20289">
        <ele>1603.8</ele>
        <time>2024-09-25T13:02:58Z</time>
      </trkpt>
      <trkpt lat="42.3767" lon="2.20289">
        <ele>1603.8</ele>
        <time>2024-09-25T13:02:59Z</time>
      </trkpt>
      <trkpt lat="42.3767" lon="2.20289">
        <ele>1603.8</ele>
        <time>2024-09-25T13:03:00Z</time>
      </trkpt>
      <trkpt lat="42.3767" lon="2.20289">
        <ele>1603.8</ele>
        <time>2024-09-25T13:03:01Z</time>
      </trkpt>
      <trkpt lat="42.3767" lon="2.20289">
        <ele>1603.8</ele>
        <time>2024-09-25T13:03:02Z</time>
      </trkpt>
      <trkpt lat="42.3767" lon="2.20289">
        <ele>1603.8</ele>
        <time>2024-09-25T13:03:03Z</time>
      </trkpt>
      <trkpt lat="42.3767" lon="2.20289">
        <ele>1603.8</ele>
        <time>2024-09-25T13:03:04Z</time>
      </trkpt>
      <trkpt lat="42.3767" lon="2.20289">
        <ele>1603.8</ele>
        <time>2024-09-25T13:03:05Z</time>
      </trkpt>
      <trkpt lat="42.3767" lon="2.20289">
        <ele>1603.8</ele>
        <time>2024-09-25T13:03:06Z</time>
      </trkpt>
      <trkpt lat="42.3767" lon="2.20289">
        <ele>1603.8</ele>
        <time>2024-09-25T13:03:07Z</time>
      </trkpt>
      <trkpt lat="42.3767" lon="2.20289">
        <ele>1603.8</ele>
        <time>2024-09-25T13:03:08Z</time>
      </trkpt>
      <trkpt lat="42.3767" lon="2.20289">
        <ele>1603.7</ele>
        <time>2024-09-25T13:03:09Z</time>
      </trkpt>
      <trkpt lat="42.3767" lon="2.20289">
        <ele>1603.7</ele>
        <time>2024-09-25T13:03:10Z</time>
      </trkpt>
      <trkpt lat="42.3767" lon="2.20289">
        <ele>1603.7</ele>
        <time>2024-09-25T13:03:11Z</time>
      </trkpt>
      <trkpt lat="42.3767" lon="2.20289">
        <ele>1603.7</ele>
        <time>2024-09-25T13:03:12Z</time>
      </trkpt>
      <trkpt lat="42.3767" lon="2.20289">
        <ele>1603.7</ele>
        <time>2024-09-25T13:03:13Z</time>
      </trkpt>
      <trkpt lat="42.3767" lon="2.20289">
        <ele>1603.7</ele>
        <time>2024-09-25T13:03:14Z</time>
      </trkpt>
      <trkpt lat="42.3767" lon="2.20289">
        <ele>1603.7</ele>
        <time>2024-09-25T13:03:15Z</time>
      </trkpt>
      <trkpt lat="42.3767" lon="2.20289">
        <ele>1603.7</ele>
        <time>2024-09-25T13:03:16Z</time>
      </trkpt>
      <trkpt lat="42.3767" lon="2.20289">
        <ele>1603.7</ele>
        <time>2024-09-25T13:03:17Z</time>
      </trkpt>
      <trkpt lat="42.3767" lon="2.20289">
        <ele>1603.7</ele>
        <time>2024-09-25T13:03:18Z</time>
      </trkpt>
      <trkpt lat="42.3767" lon="2.20289">
        <ele>1603.7</ele>
        <time>2024-09-25T13:03:19Z</time>
      </trkpt>
      <trkpt lat="42.3767" lon="2.20289">
        <ele>1603.7</ele>
        <time>2024-09-25T13:03:20Z</time>
      </trkpt>
      <trkpt lat="42.3767" lon="2.20289">
        <ele>1603.7</ele>
        <time>2024-09-25T13:03:21Z</time>
      </trkpt>
      <trkpt lat="42.3767" lon="2.20289">
        <ele>1603.7</ele>
        <time>2024-09-25T13:03:22Z</time>
      </trkpt>
      <trkpt lat="42.3767" lon="2.20289">
        <ele>1603.7</ele>
        <time>2024-09-25T13:03:23Z</time>
      </trkpt>
      <trkpt lat="42.3767" lon="2.20289">
        <ele>1603.6</ele>
        <time>2024-09-25T13:03:24Z</time>
      </trkpt>
      <trkpt lat="42.3767" lon="2.20289">
        <ele>1603.6</ele>
        <time>2024-09-25T13:03:25Z</time>
      </trkpt>
      <trkpt lat="42.3767" lon="2.20289">
        <ele>1603.6</ele>
        <time>2024-09-25T13:03:26Z</time>
      </trkpt>
      <trkpt lat="42.3767" lon="2.20289">
        <ele>1603.6</ele>
        <time>2024-09-25T13:03:27Z</time>
      </trkpt>
      <trkpt lat="42.3767" lon="2.20289">
        <ele>1603.6</ele>
        <time>2024-09-25T13:03:28Z</time>
      </trkpt>
      <trkpt lat="42.3767" lon="2.20289">
        <ele>1603.6</ele>
        <time>2024-09-25T13:03:29Z</time>
      </trkpt>
      <trkpt lat="42.3767" lon="2.20289">
        <ele>1603.6</ele>
        <time>2024-09-25T13:03:30Z</time>
      </trkpt>
      <trkpt lat="42.3767" lon="2.20289">
        <ele>1603.6</ele>
        <time>2024-09-25T13:03:31Z</time>
      </trkpt>
      <trkpt lat="42.3767" lon="2.20289">
        <ele>1603.6</ele>
        <time>2024-09-25T13:03:32Z</time>
      </trkpt>
      <trkpt lat="42.3767" lon="2.20289">
        <ele>1603.6</ele>
        <time>2024-09-25T13:03:33Z</time>
      </trkpt>
      <trkpt lat="42.3767" lon="2.20289">
        <ele>1603.6</ele>
        <time>2024-09-25T13:03:34Z</time>
      </trkpt>
      <trkpt lat="42.3767" lon="2.20289">
        <ele>1603.6</ele>
        <time>2024-09-25T13:03:35Z</time>
      </trkpt>
      <trkpt lat="42.3767" lon="2.20289">
        <ele>1603.6</ele>
        <time>2024-09-25T13:03:36Z</time>
      </trkpt>
      <trkpt lat="42.3767" lon="2.20289">
        <ele>1603.6</ele>
        <time>2024-09-25T13:03:37Z</time>
      </trkpt>
      <trkpt lat="42.37671" lon="2.20289">
        <ele>1602</ele>
        <time>2024-09-25T13:03:38Z</time>
      </trkpt>
      <trkpt lat="42.37672" lon="2.20288">
        <ele>1603.6</ele>
        <time>2024-09-25T13:03:39Z</time>
      </trkpt>
      <trkpt lat="42.37672" lon="2.20288">
        <ele>1603.6</ele>
        <time>2024-09-25T13:03:40Z</time>
      </trkpt>
      <trkpt lat="42.37673" lon="2.20289">
        <ele>1603.6</ele>
        <time>2024-09-25T13:03:41Z</time>
      </trkpt>
      <trkpt lat="42.37674" lon="2.20289">
        <ele>1605.2</ele>
        <time>2024-09-25T13:03:42Z</time>
      </trkpt>
      <trkpt lat="42.37674" lon="2.20291">
        <ele>1605.2</ele>
        <time>2024-09-25T13:03:43Z</time>
      </trkpt>
      <trkpt lat="42.37675" lon="2.20291">
        <ele>1606.8</ele>
        <time>2024-09-25T13:03:44Z</time>
      </trkpt>
      <trkpt lat="42.37675" lon="2.20292">
        <ele>1606.8</ele>
        <time>2024-09-25T13:03:45Z</time>
      </trkpt>
      <trkpt lat="42.37675" lon="2.20293">
        <ele>1606.8</ele>
        <time>2024-09-25T13:03:46Z</time>
      </trkpt>
      <trkpt lat="42.37675" lon="2.20293">
        <ele>1606.8</ele>
        <time>2024-09-25T13:03:47Z</time>
      </trkpt>
      <trkpt lat="42.37675" lon="2.20293">
        <ele>1608.2</ele>
        <time>2024-09-25T13:03:48Z</time>
      </trkpt>
      <trkpt lat="42.37675" lon="2.20293">
        <ele>1608.2</ele>
        <time>2024-09-25T13:03:49Z</time>
      </trkpt>
      <trkpt lat="42.37675" lon="2.20293">
        <ele>1608.2</ele>
        <time>2024-09-25T13:03:50Z</time>
      </trkpt>
      <trkpt lat="42.37675" lon="2.20293">
        <ele>1608.2</ele>
        <time>2024-09-25T13:03:51Z</time>
      </trkpt>
      <trkpt lat="42.37675" lon="2.20293">
        <ele>1608.2</ele>
        <time>2024-09-25T13:03:52Z</time>
      </trkpt>
      <trkpt lat="42.37675" lon="2.20293">
        <ele>1608.2</ele>
        <time>2024-09-25T13:03:53Z</time>
      </trkpt>
      <trkpt lat="42.37675" lon="2.20293">
        <ele>1608.2</ele>
        <time>2024-09-25T13:03:54Z</time>
      </trkpt>
      <trkpt lat="42.37675" lon="2.20293">
        <ele>1608.2</ele>
        <time>2024-09-25T13:03:55Z</time>
      </trkpt>
      <trkpt lat="42.37675" lon="2.20293">
        <ele>1608.2</ele>
        <time>2024-09-25T13:03:56Z</time>
      </trkpt>
      <trkpt lat="42.37675" lon="2.20293">
        <ele>1608.2</ele>
        <time>2024-09-25T13:03:57Z</time>
      </trkpt>
      <trkpt lat="42.37675" lon="2.20293">
        <ele>1608.2</ele>
        <time>2024-09-25T13:03:58Z</time>
      </trkpt>
      <trkpt lat="42.37675" lon="2.20293">
        <ele>1608.2</ele>
        <time>2024-09-25T13:03:59Z</time>
      </trkpt>
      <trkpt lat="42.37675" lon="2.20293">
        <ele>1608.2</ele>
        <time>2024-09-25T13:04:00Z</time>
      </trkpt>
      <trkpt lat="42.37675" lon="2.20293">
        <ele>1608.2</ele>
        <time>2024-09-25T13:04:01Z</time>
      </trkpt>
      <trkpt lat="42.37675" lon="2.20293">
        <ele>1608.2</ele>
        <time>2024-09-25T13:04:02Z</time>
      </trkpt>
      <trkpt lat="42.37675" lon="2.20293">
        <ele>1608.2</ele>
        <time>2024-09-25T13:04:03Z</time>
      </trkpt>
      <trkpt lat="42.37675" lon="2.20293">
        <ele>1608.1</ele>
        <time>2024-09-25T13:04:04Z</time>
      </trkpt>
      <trkpt lat="42.37675" lon="2.20293">
        <ele>1608.1</ele>
        <time>2024-09-25T13:04:05Z</time>
      </trkpt>
      <trkpt lat="42.37675" lon="2.20293">
        <ele>1608.1</ele>
        <time>2024-09-25T13:04:06Z</time>
      </trkpt>
      <trkpt lat="42.37675" lon="2.20294">
        <ele>1608.1</ele>
        <time>2024-09-25T13:04:07Z</time>
      </trkpt>
      <trkpt lat="42.37675" lon="2.20294">
        <ele>1608.1</ele>
        <time>2024-09-25T13:04:08Z</time>
      </trkpt>
      <trkpt lat="42.37675" lon="2.20293">
        <ele>1608.1</ele>
        <time>2024-09-25T13:04:09Z</time>
      </trkpt>
      <trkpt lat="42.37674" lon="2.20293">
        <ele>1605</ele>
        <time>2024-09-25T13:04:10Z</time>
      </trkpt>
      <trkpt lat="42.37674" lon="2.20292">
        <ele>1605</ele>
        <time>2024-09-25T13:04:11Z</time>
      </trkpt>
      <trkpt lat="42.37674" lon="2.20291">
        <ele>1605</ele>
        <time>2024-09-25T13:04:12Z</time>
      </trkpt>
      <trkpt lat="42.37673" lon="2.2029">
        <ele>1605</ele>
        <time>2024-09-25T13:04:13Z</time>
      </trkpt>
      <trkpt lat="42.37672" lon="2.20289">
        <ele>1605</ele>
        <time>2024-09-25T13:04:14Z</time>
      </trkpt>
      <trkpt lat="42.37672" lon="2.20288">
        <ele>1603.4</ele>
        <time>2024-09-25T13:04:15Z</time>
      </trkpt>
      <trkpt lat="42.37672" lon="2.20288">
        <ele>1603.4</ele>
        <time>2024-09-25T13:04:16Z</time>
      </trkpt>
      <trkpt lat="42.37671" lon="2.20287">
        <ele>1603.4</ele>
        <time>2024-09-25T13:04:17Z</time>
      </trkpt>
      <trkpt lat="42.37671" lon="2.20287">
        <ele>1603.4</ele>
        <time>2024-09-25T13:04:18Z</time>
      </trkpt>
      <trkpt lat="42.37671" lon="2.20288">
        <ele>1603.4</ele>
        <time>2024-09-25T13:04:19Z</time>
      </trkpt>
      <trkpt lat="42.37671" lon="2.20288">
        <ele>1603.4</ele>
        <time>2024-09-25T13:04:20Z</time>
      </trkpt>
      <trkpt lat="42.37671" lon="2.20288">
        <ele>1603.4</ele>
        <time>2024-09-25T13:04:21Z</time>
      </trkpt>
      <trkpt lat="42.37671" lon="2.20288">
        <ele>1603.4</ele>
        <time>2024-09-25T13:04:22Z</time>
      </trkpt>
      <trkpt lat="42.37671" lon="2.20288">
        <ele>1603.4</ele>
        <time>2024-09-25T13:04:23Z</time>
      </trkpt>
      <trkpt lat="42.37671" lon="2.20288">
        <ele>1603.3</ele>
        <time>2024-09-25T13:04:24Z</time>
      </trkpt>
      <trkpt lat="42.37671" lon="2.20288">
        <ele>1603.3</ele>
        <time>2024-09-25T13:04:25Z</time>
      </trkpt>
      <trkpt lat="42.37671" lon="2.20288">
        <ele>1603.3</ele>
        <time>2024-09-25T13:04:26Z</time>
      </trkpt>
      <trkpt lat="42.37671" lon="2.20288">
        <ele>1603.3</ele>
        <time>2024-09-25T13:04:27Z</time>
      </trkpt>
      <trkpt lat="42.37671" lon="2.20288">
        <ele>1603.3</ele>
        <time>2024-09-25T13:04:28Z</time>
      </trkpt>
      <trkpt lat="42.37671" lon="2.20288">
        <ele>1603.3</ele>
        <time>2024-09-25T13:04:29Z</time>
      </trkpt>
      <trkpt lat="42.37672" lon="2.20288">
        <ele>1603.3</ele>
        <time>2024-09-25T13:04:30Z</time>
      </trkpt>
      <trkpt lat="42.37672" lon="2.20288">
        <ele>1603.3</ele>
        <time>2024-09-25T13:04:31Z</time>
      </trkpt>
      <trkpt lat="42.37672" lon="2.20289">
        <ele>1603.3</ele>
        <time>2024-09-25T13:04:32Z</time>
      </trkpt>
      <trkpt lat="42.37672" lon="2.20289">
        <ele>1603.3</ele>
        <time>2024-09-25T13:04:33Z</time>
      </trkpt>
      <trkpt lat="42.37672" lon="2.20289">
        <ele>1603.3</ele>
        <time>2024-09-25T13:04:34Z</time>
      </trkpt>
      <trkpt lat="42.37672" lon="2.20289">
        <ele>1603.3</ele>
        <time>2024-09-25T13:04:35Z</time>
      </trkpt>
      <trkpt lat="42.37672" lon="2.20289">
        <ele>1603.3</ele>
        <time>2024-09-25T13:04:36Z</time>
      </trkpt>
      <trkpt lat="42.37672" lon="2.20289">
        <ele>1603.3</ele>
        <time>2024-09-25T13:04:37Z</time>
      </trkpt>
      <trkpt lat="42.37672" lon="2.20289">
        <ele>1603.3</ele>
        <time>2024-09-25T13:04:38Z</time>
      </trkpt>
      <trkpt lat="42.37672" lon="2.20289">
        <ele>1603.2</ele>
        <time>2024-09-25T13:04:39Z</time>
      </trkpt>
      <trkpt lat="42.37672" lon="2.20289">
        <ele>1603.2</ele>
        <time>2024-09-25T13:04:40Z</time>
      </trkpt>
      <trkpt lat="42.37672" lon="2.20289">
        <ele>1603.2</ele>
        <time>2024-09-25T13:04:41Z</time>
      </trkpt>
      <trkpt lat="42.37672" lon="2.20289">
        <ele>1603.2</ele>
        <time>2024-09-25T13:04:42Z</time>
      </trkpt>
      <trkpt lat="42.37672" lon="2.20289">
        <ele>1603.2</ele>
        <time>2024-09-25T13:04:43Z</time>
      </trkpt>
      <trkpt lat="42.37672" lon="2.20289">
        <ele>1603.2</ele>
        <time>2024-09-25T13:04:44Z</time>
      </trkpt>
      <trkpt lat="42.37671" lon="2.20289">
        <ele>1601.6</ele>
        <time>2024-09-25T13:04:45Z</time>
      </trkpt>
      <trkpt lat="42.37671" lon="2.20288">
        <ele>1601.6</ele>
        <time>2024-09-25T13:04:46Z</time>
      </trkpt>
      <trkpt lat="42.37671" lon="2.20288">
        <ele>1601.6</ele>
        <time>2024-09-25T13:04:47Z</time>
      </trkpt>
      <trkpt lat="42.37671" lon="2.20288">
        <ele>1601.6</ele>
        <time>2024-09-25T13:04:48Z</time>
      </trkpt>
      <trkpt lat="42.37671" lon="2.20287">
        <ele>1601.5</ele>
        <time>2024-09-25T13:04:49Z</time>
      </trkpt>
      <trkpt lat="42.37671" lon="2.20287">
        <ele>1601.5</ele>
        <time>2024-09-25T13:04:50Z</time>
      </trkpt>
      <trkpt lat="42.37671" lon="2.20287">
        <ele>1601.5</ele>
        <time>2024-09-25T13:04:51Z</time>
      </trkpt>
      <trkpt lat="42.37671" lon="2.20287">
        <ele>1601.5</ele>
        <time>2024-09-25T13:04:52Z</time>
      </trkpt>
      <trkpt lat="42.37671" lon="2.20287">
        <ele>1601.5</ele>
        <time>2024-09-25T13:04:53Z</time>
      </trkpt>
      <trkpt lat="42.37671" lon="2.20287">
        <ele>1603.1</ele>
        <time>2024-09-25T13:04:54Z</time>
      </trkpt>
      <trkpt lat="42.37671" lon="2.20287">
        <ele>1603.1</ele>
        <time>2024-09-25T13:04:55Z</time>
      </trkpt>
      <trkpt lat="42.37672" lon="2.20287">
        <ele>1603.1</ele>
        <time>2024-09-25T13:04:56Z</time>
      </trkpt>
      <trkpt lat="42.37672" lon="2.20287">
        <ele>1603.1</ele>
        <time>2024-09-25T13:04:57Z</time>
      </trkpt>
      <trkpt lat="42.37672" lon="2.20287">
        <ele>1603.1</ele>
        <time>2024-09-25T13:04:58Z</time>
      </trkpt>
      <trkpt lat="42.37672" lon="2.20287">
        <ele>1603.1</ele>
        <time>2024-09-25T13:04:59Z</time>
      </trkpt>
      <trkpt lat="42.37672" lon="2.20287">
        <ele>1603.1</ele>
        <time>2024-09-25T13:05:00Z</time>
      </trkpt>
      <trkpt lat="42.37672" lon="2.20287">
        <ele>1603.1</ele>
        <time>2024-09-25T13:05:01Z</time>
      </trkpt>
      <trkpt lat="42.37672" lon="2.20287">
        <ele>1603.1</ele>
        <time>2024-09-25T13:05:02Z</time>
      </trkpt>
      <trkpt lat="42.37672" lon="2.20287">
        <ele>1603.1</ele>
        <time>2024-09-25T13:05:03Z</time>
      </trkpt>
      <trkpt lat="42.37672" lon="2.20286">
        <ele>1603.1</ele>
        <time>2024-09-25T13:05:04Z</time>
      </trkpt>
      <trkpt lat="42.37672" lon="2.20285">
        <ele>1603.1</ele>
        <time>2024-09-25T13:05:05Z</time>
      </trkpt>
      <trkpt lat="42.37672" lon="2.20285">
        <ele>1603.1</ele>
        <time>2024-09-25T13:05:06Z</time>
      </trkpt>
      <trkpt lat="42.37673" lon="2.20285">
        <ele>1603.1</ele>
        <time>2024-09-25T13:05:07Z</time>
      </trkpt>
      <trkpt lat="42.37673" lon="2.20284">
        <ele>1601.4</ele>
        <time>2024-09-25T13:05:08Z</time>
      </trkpt>
      <trkpt lat="42.37673" lon="2.20284">
        <ele>1601.4</ele>
        <time>2024-09-25T13:05:09Z</time>
      </trkpt>
      <trkpt lat="42.37673" lon="2.20284">
        <ele>1601.4</ele>
        <time>2024-09-25T13:05:10Z</time>
      </trkpt>
      <trkpt lat="42.37673" lon="2.20284">
        <ele>1601.4</ele>
        <time>2024-09-25T13:05:11Z</time>
      </trkpt>
      <trkpt lat="42.37673" lon="2.20284">
        <ele>1601.4</ele>
        <time>2024-09-25T13:05:12Z</time>
      </trkpt>
      <trkpt lat="42.37674" lon="2.20284">
        <ele>1601.4</ele>
        <time>2024-09-25T13:05:13Z</time>
      </trkpt>
      <trkpt lat="42.37674" lon="2.20283">
        <ele>1601.4</ele>
        <time>2024-09-25T13:05:14Z</time>
      </trkpt>
      <trkpt lat="42.37674" lon="2.20283">
        <ele>1601.4</ele>
        <time>2024-09-25T13:05:15Z</time>
      </trkpt>
      <trkpt lat="42.37673" lon="2.20283">
        <ele>1601.4</ele>
        <time>2024-09-25T13:05:16Z</time>
      </trkpt>
      <trkpt lat="42.37673" lon="2.20283">
        <ele>1601.4</ele>
        <time>2024-09-25T13:05:17Z</time>
      </trkpt>
      <trkpt lat="42.37673" lon="2.20282">
        <ele>1601.4</ele>
        <time>2024-09-25T13:05:18Z</time>
      </trkpt>
      <trkpt lat="42.37672" lon="2.20282">
        <ele>1601.4</ele>
        <time>2024-09-25T13:05:19Z</time>
      </trkpt>
      <trkpt lat="42.37672" lon="2.20282">
        <ele>1601.4</ele>
        <time>2024-09-25T13:05:20Z</time>
      </trkpt>
      <trkpt lat="42.37672" lon="2.20281">
        <ele>1601.4</ele>
        <time>2024-09-25T13:05:21Z</time>
      </trkpt>
      <trkpt lat="42.37672" lon="2.20281">
        <ele>1601.4</ele>
        <time>2024-09-25T13:05:22Z</time>
      </trkpt>
      <trkpt lat="42.37671" lon="2.20281">
        <ele>1601.4</ele>
        <time>2024-09-25T13:05:23Z</time>
      </trkpt>
      <trkpt lat="42.37671" lon="2.2028">
        <ele>1598.1</ele>
        <time>2024-09-25T13:05:24Z</time>
      </trkpt>
      <trkpt lat="42.37671" lon="2.20279">
        <ele>1599.7</ele>
        <time>2024-09-25T13:05:25Z</time>
      </trkpt>
      <trkpt lat="42.37672" lon="2.20279">
        <ele>1599.7</ele>
        <time>2024-09-25T13:05:26Z</time>
      </trkpt>
      <trkpt lat="42.37672" lon="2.20278">
        <ele>1599.7</ele>
        <time>2024-09-25T13:05:27Z</time>
      </trkpt>
      <trkpt lat="42.37672" lon="2.20278">
        <ele>1599.7</ele>
        <time>2024-09-25T13:05:28Z</time>
      </trkpt>
      <trkpt lat="42.37673" lon="2.20278">
        <ele>1599.7</ele>
        <time>2024-09-25T13:05:29Z</time>
      </trkpt>
      <trkpt lat="42.37673" lon="2.20278">
        <ele>1599.7</ele>
        <time>2024-09-25T13:05:30Z</time>
      </trkpt>
      <trkpt lat="42.37673" lon="2.20277">
        <ele>1599.7</ele>
        <time>2024-09-25T13:05:31Z</time>
      </trkpt>
      <trkpt lat="42.37674" lon="2.20276">
        <ele>1599.7</ele>
        <time>2024-09-25T13:05:32Z</time>
      </trkpt>
      <trkpt lat="42.37674" lon="2.20276">
        <ele>1598.1</ele>
        <time>2024-09-25T13:05:33Z</time>
      </trkpt>
      <trkpt lat="42.37674" lon="2.20275">
        <ele>1598.1</ele>
        <time>2024-09-25T13:05:34Z</time>
      </trkpt>
      <trkpt lat="42.37674" lon="2.20274">
        <ele>1598.1</ele>
        <time>2024-09-25T13:05:35Z</time>
      </trkpt>
      <trkpt lat="42.37675" lon="2.20273">
        <ele>1599.8</ele>
        <time>2024-09-25T13:05:36Z</time>
      </trkpt>
      <trkpt lat="42.37675" lon="2.20272">
        <ele>1599.8</ele>
        <time>2024-09-25T13:05:37Z</time>
      </trkpt>
      <trkpt lat="42.37674" lon="2.20272">
        <ele>1598.4</ele>
        <time>2024-09-25T13:05:38Z</time>
      </trkpt>
      <trkpt lat="42.37674" lon="2.20271">
        <ele>1596.7</ele>
        <time>2024-09-25T13:05:39Z</time>
      </trkpt>
      <trkpt lat="42.37674" lon="2.20271">
        <ele>1596.7</ele>
        <time>2024-09-25T13:05:40Z</time>
      </trkpt>
      <trkpt lat="42.37673" lon="2.2027">
        <ele>1596.7</ele>
        <time>2024-09-25T13:05:41Z</time>
      </trkpt>
      <trkpt lat="42.37673" lon="2.2027">
        <ele>1596.7</ele>
        <time>2024-09-25T13:05:42Z</time>
      </trkpt>
      <trkpt lat="42.37673" lon="2.2027">
        <ele>1596.7</ele>
        <time>2024-09-25T13:05:43Z</time>
      </trkpt>
      <trkpt lat="42.37673" lon="2.2027">
        <ele>1596.7</ele>
        <time>2024-09-25T13:05:44Z</time>
      </trkpt>
      <trkpt lat="42.37672" lon="2.20269">
        <ele>1596.7</ele>
        <time>2024-09-25T13:05:45Z</time>
      </trkpt>
      <trkpt lat="42.37672" lon="2.20269">
        <ele>1596.7</ele>
        <time>2024-09-25T13:05:46Z</time>
      </trkpt>
      <trkpt lat="42.37671" lon="2.20269">
        <ele>1596.7</ele>
        <time>2024-09-25T13:05:47Z</time>
      </trkpt>
      <trkpt lat="42.37671" lon="2.20269">
        <ele>1595.1</ele>
        <time>2024-09-25T13:05:48Z</time>
      </trkpt>
      <trkpt lat="42.3767" lon="2.20268">
        <ele>1595</ele>
        <time>2024-09-25T13:05:49Z</time>
      </trkpt>
      <trkpt lat="42.3767" lon="2.20268">
        <ele>1595</ele>
        <time>2024-09-25T13:05:50Z</time>
      </trkpt>
      <trkpt lat="42.37669" lon="2.20267">
        <ele>1593.9</ele>
        <time>2024-09-25T13:05:51Z</time>
      </trkpt>
      <trkpt lat="42.37669" lon="2.20267">
        <ele>1593.9</ele>
        <time>2024-09-25T13:05:52Z</time>
      </trkpt>
      <trkpt lat="42.37669" lon="2.20266">
        <ele>1593.9</ele>
        <time>2024-09-25T13:05:53Z</time>
      </trkpt>
      <trkpt lat="42.37669" lon="2.20265">
        <ele>1593.9</ele>
        <time>2024-09-25T13:05:54Z</time>
      </trkpt>
      <trkpt lat="42.37669" lon="2.20265">
        <ele>1593.9</ele>
        <time>2024-09-25T13:05:55Z</time>
      </trkpt>
      <trkpt lat="42.37669" lon="2.20264">
        <ele>1593.9</ele>
        <time>2024-09-25T13:05:56Z</time>
      </trkpt>
      <trkpt lat="42.37669" lon="2.20263">
        <ele>1593</ele>
        <time>2024-09-25T13:05:57Z</time>
      </trkpt>
      <trkpt lat="42.37669" lon="2.20262">
        <ele>1593</ele>
        <time>2024-09-25T13:05:58Z</time>
      </trkpt>
      <trkpt lat="42.37669" lon="2.20262">
        <ele>1593</ele>
        <time>2024-09-25T13:05:59Z</time>
      </trkpt>
      <trkpt lat="42.3767" lon="2.20261">
        <ele>1593</ele>
        <time>2024-09-25T13:06:00Z</time>
      </trkpt>
      <trkpt lat="42.3767" lon="2.20261">
        <ele>1593</ele>
        <time>2024-09-25T13:06:01Z</time>
      </trkpt>
      <trkpt lat="42.3767" lon="2.2026">
        <ele>1593</ele>
        <time>2024-09-25T13:06:02Z</time>
      </trkpt>
      <trkpt lat="42.37671" lon="2.20259">
        <ele>1593</ele>
        <time>2024-09-25T13:06:03Z</time>
      </trkpt>
      <trkpt lat="42.37671" lon="2.20259">
        <ele>1592.3</ele>
        <time>2024-09-25T13:06:04Z</time>
      </trkpt>
      <trkpt lat="42.37671" lon="2.20258">
        <ele>1592.3</ele>
        <time>2024-09-25T13:06:05Z</time>
      </trkpt>
      <trkpt lat="42.37671" lon="2.20258">
        <ele>1594</ele>
        <time>2024-09-25T13:06:06Z</time>
      </trkpt>
      <trkpt lat="42.37671" lon="2.20258">
        <ele>1594</ele>
        <time>2024-09-25T13:06:07Z</time>
      </trkpt>
      <trkpt lat="42.37671" lon="2.20258">
        <ele>1594</ele>
        <time>2024-09-25T13:06:08Z</time>
      </trkpt>
      <trkpt lat="42.37671" lon="2.20258">
        <ele>1593.9</ele>
        <time>2024-09-25T13:06:09Z</time>
      </trkpt>
      <trkpt lat="42.37671" lon="2.20258">
        <ele>1593.9</ele>
        <time>2024-09-25T13:06:10Z</time>
      </trkpt>
      <trkpt lat="42.37671" lon="2.20257">
        <ele>1593.9</ele>
        <time>2024-09-25T13:06:11Z</time>
      </trkpt>
      <trkpt lat="42.37671" lon="2.20256">
        <ele>1592.3</ele>
        <time>2024-09-25T13:06:12Z</time>
      </trkpt>
      <trkpt lat="42.37671" lon="2.20256">
        <ele>1592.3</ele>
        <time>2024-09-25T13:06:13Z</time>
      </trkpt>
      <trkpt lat="42.37671" lon="2.20255">
        <ele>1592.3</ele>
        <time>2024-09-25T13:06:14Z</time>
      </trkpt>
      <trkpt lat="42.37671" lon="2.20255">
        <ele>1593.9</ele>
        <time>2024-09-25T13:06:15Z</time>
      </trkpt>
      <trkpt lat="42.37671" lon="2.20254">
        <ele>1593.5</ele>
        <time>2024-09-25T13:06:16Z</time>
      </trkpt>
      <trkpt lat="42.37671" lon="2.20254">
        <ele>1593.5</ele>
        <time>2024-09-25T13:06:17Z</time>
      </trkpt>
      <trkpt lat="42.37671" lon="2.20253">
        <ele>1593.5</ele>
        <time>2024-09-25T13:06:18Z</time>
      </trkpt>
      <trkpt lat="42.37671" lon="2.20253">
        <ele>1591.8</ele>
        <time>2024-09-25T13:06:19Z</time>
      </trkpt>
      <trkpt lat="42.37671" lon="2.20253">
        <ele>1591.8</ele>
        <time>2024-09-25T13:06:20Z</time>
      </trkpt>
      <trkpt lat="42.37671" lon="2.20252">
        <ele>1591.8</ele>
        <time>2024-09-25T13:06:21Z</time>
      </trkpt>
      <trkpt lat="42.37671" lon="2.20252">
        <ele>1591.8</ele>
        <time>2024-09-25T13:06:22Z</time>
      </trkpt>
      <trkpt lat="42.37671" lon="2.20252">
        <ele>1591.8</ele>
        <time>2024-09-25T13:06:23Z</time>
      </trkpt>
      <trkpt lat="42.3767" lon="2.20252">
        <ele>1591.7</ele>
        <time>2024-09-25T13:06:24Z</time>
      </trkpt>
      <trkpt lat="42.3767" lon="2.20251">
        <ele>1591.7</ele>
        <time>2024-09-25T13:06:25Z</time>
      </trkpt>
      <trkpt lat="42.3767" lon="2.2025">
        <ele>1591.4</ele>
        <time>2024-09-25T13:06:26Z</time>
      </trkpt>
      <trkpt lat="42.3767" lon="2.20249">
        <ele>1591.4</ele>
        <time>2024-09-25T13:06:27Z</time>
      </trkpt>
      <trkpt lat="42.3767" lon="2.20248">
        <ele>1591.4</ele>
        <time>2024-09-25T13:06:28Z</time>
      </trkpt>
      <trkpt lat="42.3767" lon="2.20248">
        <ele>1591.4</ele>
        <time>2024-09-25T13:06:29Z</time>
      </trkpt>
      <trkpt lat="42.3767" lon="2.20248">
        <ele>1591.4</ele>
        <time>2024-09-25T13:06:30Z</time>
      </trkpt>
      <trkpt lat="42.3767" lon="2.20248">
        <ele>1591.4</ele>
        <time>2024-09-25T13:06:31Z</time>
      </trkpt>
      <trkpt lat="42.3767" lon="2.20248">
        <ele>1591.4</ele>
        <time>2024-09-25T13:06:32Z</time>
      </trkpt>
      <trkpt lat="42.3767" lon="2.20247">
        <ele>1591.4</ele>
        <time>2024-09-25T13:06:33Z</time>
      </trkpt>
      <trkpt lat="42.3767" lon="2.20247">
        <ele>1591.4</ele>
        <time>2024-09-25T13:06:34Z</time>
      </trkpt>
      <trkpt lat="42.3767" lon="2.20247">
        <ele>1591.4</ele>
        <time>2024-09-25T13:06:35Z</time>
      </trkpt>
      <trkpt lat="42.3767" lon="2.20247">
        <ele>1591.3</ele>
        <time>2024-09-25T13:06:36Z</time>
      </trkpt>
      <trkpt lat="42.3767" lon="2.20247">
        <ele>1591.3</ele>
        <time>2024-09-25T13:06:37Z</time>
      </trkpt>
      <trkpt lat="42.3767" lon="2.20247">
        <ele>1591.3</ele>
        <time>2024-09-25T13:06:38Z</time>
      </trkpt>
      <trkpt lat="42.3767" lon="2.20247">
        <ele>1591.3</ele>
        <time>2024-09-25T13:06:39Z</time>
      </trkpt>
      <trkpt lat="42.3767" lon="2.20247">
        <ele>1591.3</ele>
        <time>2024-09-25T13:06:40Z</time>
      </trkpt>
      <trkpt lat="42.3767" lon="2.20247">
        <ele>1591.3</ele>
        <time>2024-09-25T13:06:41Z</time>
      </trkpt>
      <trkpt lat="42.3767" lon="2.20247">
        <ele>1591.3</ele>
        <time>2024-09-25T13:06:42Z</time>
      </trkpt>
      <trkpt lat="42.3767" lon="2.20247">
        <ele>1591.3</ele>
        <time>2024-09-25T13:06:43Z</time>
      </trkpt>
      <trkpt lat="42.3767" lon="2.20246">
        <ele>1591.3</ele>
        <time>2024-09-25T13:06:44Z</time>
      </trkpt>
      <trkpt lat="42.3767" lon="2.20245">
        <ele>1591</ele>
        <time>2024-09-25T13:06:45Z</time>
      </trkpt>
      <trkpt lat="42.37669" lon="2.20244">
        <ele>1591</ele>
        <time>2024-09-25T13:06:46Z</time>
      </trkpt>
      <trkpt lat="42.37669" lon="2.20243">
        <ele>1591</ele>
        <time>2024-09-25T13:06:47Z</time>
      </trkpt>
      <trkpt lat="42.37669" lon="2.20243">
        <ele>1591</ele>
        <time>2024-09-25T13:06:48Z</time>
      </trkpt>
      <trkpt lat="42.37669" lon="2.20242">
        <ele>1591</ele>
        <time>2024-09-25T13:06:49Z</time>
      </trkpt>
      <trkpt lat="42.37669" lon="2.20242">
        <ele>1591</ele>
        <time>2024-09-25T13:06:50Z</time>
      </trkpt>
      <trkpt lat="42.37669" lon="2.20242">
        <ele>1591</ele>
        <time>2024-09-25T13:06:51Z</time>
      </trkpt>
      <trkpt lat="42.37669" lon="2.20241">
        <ele>1590.8</ele>
        <time>2024-09-25T13:06:52Z</time>
      </trkpt>
      <trkpt lat="42.37669" lon="2.20241">
        <ele>1590.8</ele>
        <time>2024-09-25T13:06:53Z</time>
      </trkpt>
      <trkpt lat="42.37668" lon="2.2024">
        <ele>1590.8</ele>
        <time>2024-09-25T13:06:54Z</time>
      </trkpt>
      <trkpt lat="42.37668" lon="2.2024">
        <ele>1589.1</ele>
        <time>2024-09-25T13:06:55Z</time>
      </trkpt>
      <trkpt lat="42.37668" lon="2.20239">
        <ele>1590.8</ele>
        <time>2024-09-25T13:06:56Z</time>
      </trkpt>
      <trkpt lat="42.37669" lon="2.20239">
        <ele>1590.7</ele>
        <time>2024-09-25T13:06:57Z</time>
      </trkpt>
      <trkpt lat="42.37669" lon="2.20239">
        <ele>1590.7</ele>
        <time>2024-09-25T13:06:58Z</time>
      </trkpt>
      <trkpt lat="42.3767" lon="2.20238">
        <ele>1590.7</ele>
        <time>2024-09-25T13:06:59Z</time>
      </trkpt>
      <trkpt lat="42.3767" lon="2.20238">
        <ele>1590.7</ele>
        <time>2024-09-25T13:07:00Z</time>
      </trkpt>
      <trkpt lat="42.3767" lon="2.20238">
        <ele>1590.7</ele>
        <time>2024-09-25T13:07:01Z</time>
      </trkpt>
      <trkpt lat="42.3767" lon="2.20238">
        <ele>1590.7</ele>
        <time>2024-09-25T13:07:02Z</time>
      </trkpt>
      <trkpt lat="42.3767" lon="2.20238">
        <ele>1590.7</ele>
        <time>2024-09-25T13:07:03Z</time>
      </trkpt>
      <trkpt lat="42.3767" lon="2.20238">
        <ele>1590.7</ele>
        <time>2024-09-25T13:07:04Z</time>
      </trkpt>
      <trkpt lat="42.3767" lon="2.20238">
        <ele>1590.7</ele>
        <time>2024-09-25T13:07:05Z</time>
      </trkpt>
      <trkpt lat="42.37669" lon="2.20237">
        <ele>1590.7</ele>
        <time>2024-09-25T13:07:06Z</time>
      </trkpt>
      <trkpt lat="42.37669" lon="2.20237">
        <ele>1590.4</ele>
        <time>2024-09-25T13:07:07Z</time>
      </trkpt>
      <trkpt lat="42.37668" lon="2.20236">
        <ele>1590.4</ele>
        <time>2024-09-25T13:07:08Z</time>
      </trkpt>
      <trkpt lat="42.37668" lon="2.20235">
        <ele>1590.4</ele>
        <time>2024-09-25T13:07:09Z</time>
      </trkpt>
      <trkpt lat="42.37668" lon="2.20234">
        <ele>1588.7</ele>
        <time>2024-09-25T13:07:10Z</time>
      </trkpt>
      <trkpt lat="42.37668" lon="2.20233">
        <ele>1588.4</ele>
        <time>2024-09-25T13:07:11Z</time>
      </trkpt>
      <trkpt lat="42.37667" lon="2.20232">
        <ele>1588.4</ele>
        <time>2024-09-25T13:07:12Z</time>
      </trkpt>
      <trkpt lat="42.37667" lon="2.20231">
        <ele>1588.4</ele>
        <time>2024-09-25T13:07:13Z</time>
      </trkpt>
      <trkpt lat="42.37667" lon="2.20231">
        <ele>1588.4</ele>
        <time>2024-09-25T13:07:14Z</time>
      </trkpt>
      <trkpt lat="42.37666" lon="2.20231">
        <ele>1588.3</ele>
        <time>2024-09-25T13:07:15Z</time>
      </trkpt>
      <trkpt lat="42.37665" lon="2.20231">
        <ele>1588.3</ele>
        <time>2024-09-25T13:07:16Z</time>
      </trkpt>
      <trkpt lat="42.37664" lon="2.20231">
        <ele>1586.9</ele>
        <time>2024-09-25T13:07:17Z</time>
      </trkpt>
      <trkpt lat="42.37663" lon="2.20231">
        <ele>1586.9</ele>
        <time>2024-09-25T13:07:18Z</time>
      </trkpt>
      <trkpt lat="42.37663" lon="2.20231">
        <ele>1586.9</ele>
        <time>2024-09-25T13:07:19Z</time>
      </trkpt>
      <trkpt lat="42.37662" lon="2.20231">
        <ele>1585.7</ele>
        <time>2024-09-25T13:07:20Z</time>
      </trkpt>
      <trkpt lat="42.37661" lon="2.2023">
        <ele>1585.7</ele>
        <time>2024-09-25T13:07:21Z</time>
      </trkpt>
      <trkpt lat="42.37661" lon="2.20229">
        <ele>1585.7</ele>
        <time>2024-09-25T13:07:22Z</time>
      </trkpt>
      <trkpt lat="42.37661" lon="2.20228">
        <ele>1585.2</ele>
        <time>2024-09-25T13:07:23Z</time>
      </trkpt>
      <trkpt lat="42.37662" lon="2.20227">
        <ele>1585.2</ele>
        <time>2024-09-25T13:07:24Z</time>
      </trkpt>
      <trkpt lat="42.37662" lon="2.20227">
        <ele>1586.3</ele>
        <time>2024-09-25T13:07:25Z</time>
      </trkpt>
      <trkpt lat="42.37662" lon="2.20226">
        <ele>1586.3</ele>
        <time>2024-09-25T13:07:26Z</time>
      </trkpt>
      <trkpt lat="42.37662" lon="2.20226">
        <ele>1586.3</ele>
        <time>2024-09-25T13:07:27Z</time>
      </trkpt>
      <trkpt lat="42.37662" lon="2.20226">
        <ele>1586.3</ele>
        <time>2024-09-25T13:07:28Z</time>
      </trkpt>
      <trkpt lat="42.37662" lon="2.20226">
        <ele>1586.3</ele>
        <time>2024-09-25T13:07:29Z</time>
      </trkpt>
      <trkpt lat="42.37662" lon="2.20226">
        <ele>1586.3</ele>
        <time>2024-09-25T13:07:30Z</time>
      </trkpt>
      <trkpt lat="42.37662" lon="2.20226">
        <ele>1586.3</ele>
        <time>2024-09-25T13:07:31Z</time>
      </trkpt>
      <trkpt lat="42.37662" lon="2.20226">
        <ele>1585.1</ele>
        <time>2024-09-25T13:07:32Z</time>
      </trkpt>
      <trkpt lat="42.37661" lon="2.20225">
        <ele>1585.1</ele>
        <time>2024-09-25T13:07:33Z</time>
      </trkpt>
      <trkpt lat="42.37661" lon="2.20224">
        <ele>1584.5</ele>
        <time>2024-09-25T13:07:34Z</time>
      </trkpt>
      <trkpt lat="42.37661" lon="2.20223">
        <ele>1584.5</ele>
        <time>2024-09-25T13:07:35Z</time>
      </trkpt>
      <trkpt lat="42.37661" lon="2.20222">
        <ele>1584.5</ele>
        <time>2024-09-25T13:07:36Z</time>
      </trkpt>
      <trkpt lat="42.37661" lon="2.20221">
        <ele>1584.5</ele>
        <time>2024-09-25T13:07:37Z</time>
      </trkpt>
      <trkpt lat="42.37661" lon="2.2022">
        <ele>1584.5</ele>
        <time>2024-09-25T13:07:38Z</time>
      </trkpt>
      <trkpt lat="42.37661" lon="2.2022">
        <ele>1583.9</ele>
        <time>2024-09-25T13:07:39Z</time>
      </trkpt>
      <trkpt lat="42.37661" lon="2.20219">
        <ele>1583.9</ele>
        <time>2024-09-25T13:07:40Z</time>
      </trkpt>
      <trkpt lat="42.37661" lon="2.20218">
        <ele>1583.9</ele>
        <time>2024-09-25T13:07:41Z</time>
      </trkpt>
      <trkpt lat="42.3766" lon="2.20217">
        <ele>1583.9</ele>
        <time>2024-09-25T13:07:42Z</time>
      </trkpt>
      <trkpt lat="42.3766" lon="2.20216">
        <ele>1583.9</ele>
        <time>2024-09-25T13:07:43Z</time>
      </trkpt>
      <trkpt lat="42.3766" lon="2.20215">
        <ele>1583.3</ele>
        <time>2024-09-25T13:07:44Z</time>
      </trkpt>
      <trkpt lat="42.3766" lon="2.20215">
        <ele>1583.3</ele>
        <time>2024-09-25T13:07:45Z</time>
      </trkpt>
      <trkpt lat="42.3766" lon="2.20214">
        <ele>1583.3</ele>
        <time>2024-09-25T13:07:46Z</time>
      </trkpt>
      <trkpt lat="42.3766" lon="2.20213">
        <ele>1583.3</ele>
        <time>2024-09-25T13:07:47Z</time>
      </trkpt>
      <trkpt lat="42.3766" lon="2.20212">
        <ele>1583.3</ele>
        <time>2024-09-25T13:07:48Z</time>
      </trkpt>
      <trkpt lat="42.3766" lon="2.20211">
        <ele>1582.7</ele>
        <time>2024-09-25T13:07:49Z</time>
      </trkpt>
      <trkpt lat="42.3766" lon="2.20211">
        <ele>1582.7</ele>
        <time>2024-09-25T13:07:50Z</time>
      </trkpt>
      <trkpt lat="42.3766" lon="2.2021">
        <ele>1582.7</ele>
        <time>2024-09-25T13:07:51Z</time>
      </trkpt>
      <trkpt lat="42.3766" lon="2.20208">
        <ele>1582.7</ele>
        <time>2024-09-25T13:07:52Z</time>
      </trkpt>
      <trkpt lat="42.3766" lon="2.20208">
        <ele>1582.7</ele>
        <time>2024-09-25T13:07:53Z</time>
      </trkpt>
      <trkpt lat="42.3766" lon="2.20207">
        <ele>1582.1</ele>
        <time>2024-09-25T13:07:54Z</time>
      </trkpt>
      <trkpt lat="42.3766" lon="2.20207">
        <ele>1582.1</ele>
        <time>2024-09-25T13:07:55Z</time>
      </trkpt>
      <trkpt lat="42.3766" lon="2.20206">
        <ele>1582.1</ele>
        <time>2024-09-25T13:07:56Z</time>
      </trkpt>
      <trkpt lat="42.3766" lon="2.20205">
        <ele>1582.1</ele>
        <time>2024-09-25T13:07:57Z</time>
      </trkpt>
      <trkpt lat="42.3766" lon="2.20204">
        <ele>1582.1</ele>
        <time>2024-09-25T13:07:58Z</time>
      </trkpt>
      <trkpt lat="42.37661" lon="2.20204">
        <ele>1582.1</ele>
        <time>2024-09-25T13:07:59Z</time>
      </trkpt>
      <trkpt lat="42.37661" lon="2.20203">
        <ele>1582.1</ele>
        <time>2024-09-25T13:08:00Z</time>
      </trkpt>
      <trkpt lat="42.37661" lon="2.20203">
        <ele>1581.5</ele>
        <time>2024-09-25T13:08:01Z</time>
      </trkpt>
      <trkpt lat="42.37661" lon="2.20203">
        <ele>1581.5</ele>
        <time>2024-09-25T13:08:02Z</time>
      </trkpt>
      <trkpt lat="42.37661" lon="2.20202">
        <ele>1581.5</ele>
        <time>2024-09-25T13:08:03Z</time>
      </trkpt>
      <trkpt lat="42.37661" lon="2.20201">
        <ele>1581.5</ele>
        <time>2024-09-25T13:08:04Z</time>
      </trkpt>
      <trkpt lat="42.37661" lon="2.202">
        <ele>1581.5</ele>
        <time>2024-09-25T13:08:05Z</time>
      </trkpt>
      <trkpt lat="42.37662" lon="2.20199">
        <ele>1582.9</ele>
        <time>2024-09-25T13:08:06Z</time>
      </trkpt>
      <trkpt lat="42.37662" lon="2.20198">
        <ele>1582.4</ele>
        <time>2024-09-25T13:08:07Z</time>
      </trkpt>
      <trkpt lat="42.37662" lon="2.20197">
        <ele>1582.4</ele>
        <time>2024-09-25T13:08:08Z</time>
      </trkpt>
      <trkpt lat="42.37663" lon="2.20197">
        <ele>1582.3</ele>
        <time>2024-09-25T13:08:09Z</time>
      </trkpt>
      <trkpt lat="42.37664" lon="2.20196">
        <ele>1582.3</ele>
        <time>2024-09-25T13:08:10Z</time>
      </trkpt>
      <trkpt lat="42.37664" lon="2.20196">
        <ele>1582.3</ele>
        <time>2024-09-25T13:08:11Z</time>
      </trkpt>
      <trkpt lat="42.37665" lon="2.20196">
        <ele>1582.3</ele>
        <time>2024-09-25T13:08:12Z</time>
      </trkpt>
      <trkpt lat="42.37665" lon="2.20195">
        <ele>1582.3</ele>
        <time>2024-09-25T13:08:13Z</time>
      </trkpt>
      <trkpt lat="42.37665" lon="2.20195">
        <ele>1584.1</ele>
        <time>2024-09-25T13:08:14Z</time>
      </trkpt>
      <trkpt lat="42.37666" lon="2.20195">
        <ele>1584.1</ele>
        <time>2024-09-25T13:08:15Z</time>
      </trkpt>
      <trkpt lat="42.37666" lon="2.20195">
        <ele>1584.1</ele>
        <time>2024-09-25T13:08:16Z</time>
      </trkpt>
      <trkpt lat="42.37667" lon="2.20194">
        <ele>1584.1</ele>
        <time>2024-09-25T13:08:17Z</time>
      </trkpt>
      <trkpt lat="42.37667" lon="2.20194">
        <ele>1583.6</ele>
        <time>2024-09-25T13:08:18Z</time>
      </trkpt>
      <trkpt lat="42.37667" lon="2.20193">
        <ele>1583.6</ele>
        <time>2024-09-25T13:08:19Z</time>
      </trkpt>
      <trkpt lat="42.37668" lon="2.20192">
        <ele>1583.6</ele>
        <time>2024-09-25T13:08:20Z</time>
      </trkpt>
      <trkpt lat="42.37668" lon="2.20191">
        <ele>1583.6</ele>
        <time>2024-09-25T13:08:21Z</time>
      </trkpt>
      <trkpt lat="42.37668" lon="2.2019">
        <ele>1585.7</ele>
        <time>2024-09-25T13:08:22Z</time>
      </trkpt>
      <trkpt lat="42.37668" lon="2.2019">
        <ele>1583.2</ele>
        <time>2024-09-25T13:08:23Z</time>
      </trkpt>
      <trkpt lat="42.37668" lon="2.20189">
        <ele>1583.2</ele>
        <time>2024-09-25T13:08:24Z</time>
      </trkpt>
      <trkpt lat="42.37668" lon="2.20189">
        <ele>1583.2</ele>
        <time>2024-09-25T13:08:25Z</time>
      </trkpt>
      <trkpt lat="42.37668" lon="2.20189">
        <ele>1583.2</ele>
        <time>2024-09-25T13:08:26Z</time>
      </trkpt>
      <trkpt lat="42.37667" lon="2.2019">
        <ele>1583.2</ele>
        <time>2024-09-25T13:08:27Z</time>
      </trkpt>
      <trkpt lat="42.37667" lon="2.2019">
        <ele>1583.2</ele>
        <time>2024-09-25T13:08:28Z</time>
      </trkpt>
      <trkpt lat="42.37667" lon="2.2019">
        <ele>1583.2</ele>
        <time>2024-09-25T13:08:29Z</time>
      </trkpt>
      <trkpt lat="42.37666" lon="2.2019">
        <ele>1583.2</ele>
        <time>2024-09-25T13:08:30Z</time>
      </trkpt>
      <trkpt lat="42.37666" lon="2.20191">
        <ele>1583.6</ele>
        <time>2024-09-25T13:08:31Z</time>
      </trkpt>
      <trkpt lat="42.37666" lon="2.20191">
        <ele>1583.5</ele>
        <time>2024-09-25T13:08:32Z</time>
      </trkpt>
      <trkpt lat="42.37665" lon="2.20191">
        <ele>1583.5</ele>
        <time>2024-09-25T13:08:33Z</time>
      </trkpt>
      <trkpt lat="42.37665" lon="2.20192">
        <ele>1583.5</ele>
        <time>2024-09-25T13:08:34Z</time>
      </trkpt>
      <trkpt lat="42.37665" lon="2.20192">
        <ele>1581.7</ele>
        <time>2024-09-25T13:08:35Z</time>
      </trkpt>
      <trkpt lat="42.37664" lon="2.20192">
        <ele>1581.7</ele>
        <time>2024-09-25T13:08:36Z</time>
      </trkpt>
      <trkpt lat="42.37664" lon="2.20191">
        <ele>1581.7</ele>
        <time>2024-09-25T13:08:37Z</time>
      </trkpt>
      <trkpt lat="42.37664" lon="2.20191">
        <ele>1581.7</ele>
        <time>2024-09-25T13:08:38Z</time>
      </trkpt>
      <trkpt lat="42.37663" lon="2.2019">
        <ele>1581.2</ele>
        <time>2024-09-25T13:08:39Z</time>
      </trkpt>
      <trkpt lat="42.37663" lon="2.20189">
        <ele>1581.2</ele>
        <time>2024-09-25T13:08:40Z</time>
      </trkpt>
      <trkpt lat="42.37663" lon="2.20189">
        <ele>1581.2</ele>
        <time>2024-09-25T13:08:41Z</time>
      </trkpt>
      <trkpt lat="42.37662" lon="2.20188">
        <ele>1581.2</ele>
        <time>2024-09-25T13:08:42Z</time>
      </trkpt>
      <trkpt lat="42.37662" lon="2.20188">
        <ele>1581.2</ele>
        <time>2024-09-25T13:08:43Z</time>
      </trkpt>
      <trkpt lat="42.37662" lon="2.20187">
        <ele>1579.6</ele>
        <time>2024-09-25T13:08:44Z</time>
      </trkpt>
      <trkpt lat="42.37661" lon="2.20187">
        <ele>1579.6</ele>
        <time>2024-09-25T13:08:45Z</time>
      </trkpt>
      <trkpt lat="42.37661" lon="2.20187">
        <ele>1579.6</ele>
        <time>2024-09-25T13:08:46Z</time>
      </trkpt>
      <trkpt lat="42.37661" lon="2.20187">
        <ele>1579.6</ele>
        <time>2024-09-25T13:08:47Z</time>
      </trkpt>
      <trkpt lat="42.37661" lon="2.20187">
        <ele>1579.6</ele>
        <time>2024-09-25T13:08:48Z</time>
      </trkpt>
      <trkpt lat="42.37661" lon="2.20187">
        <ele>1579.6</ele>
        <time>2024-09-25T13:08:49Z</time>
      </trkpt>
      <trkpt lat="42.37661" lon="2.20187">
        <ele>1579.6</ele>
        <time>2024-09-25T13:08:50Z</time>
      </trkpt>
      <trkpt lat="42.37661" lon="2.20187">
        <ele>1579.6</ele>
        <time>2024-09-25T13:08:51Z</time>
      </trkpt>
      <trkpt lat="42.37661" lon="2.20187">
        <ele>1579.6</ele>
        <time>2024-09-25T13:08:52Z</time>
      </trkpt>
      <trkpt lat="42.37661" lon="2.20187">
        <ele>1579.6</ele>
        <time>2024-09-25T13:08:53Z</time>
      </trkpt>
      <trkpt lat="42.37661" lon="2.20187">
        <ele>1579.6</ele>
        <time>2024-09-25T13:08:54Z</time>
      </trkpt>
      <trkpt lat="42.37661" lon="2.20187">
        <ele>1579.6</ele>
        <time>2024-09-25T13:08:55Z</time>
      </trkpt>
      <trkpt lat="42.37661" lon="2.20187">
        <ele>1579.6</ele>
        <time>2024-09-25T13:08:56Z</time>
      </trkpt>
      <trkpt lat="42.37661" lon="2.20187">
        <ele>1579.6</ele>
        <time>2024-09-25T13:08:57Z</time>
      </trkpt>
      <trkpt lat="42.37661" lon="2.20187">
        <ele>1579.6</ele>
        <time>2024-09-25T13:08:58Z</time>
      </trkpt>
      <trkpt lat="42.37661" lon="2.20187">
        <ele>1579.5</ele>
        <time>2024-09-25T13:08:59Z</time>
      </trkpt>
      <trkpt lat="42.37661" lon="2.20187">
        <ele>1579.5</ele>
        <time>2024-09-25T13:09:00Z</time>
      </trkpt>
      <trkpt lat="42.37661" lon="2.20187">
        <ele>1579.5</ele>
        <time>2024-09-25T13:09:01Z</time>
      </trkpt>
      <trkpt lat="42.37661" lon="2.20187">
        <ele>1579.5</ele>
        <time>2024-09-25T13:09:02Z</time>
      </trkpt>
      <trkpt lat="42.37661" lon="2.20187">
        <ele>1579.5</ele>
        <time>2024-09-25T13:09:03Z</time>
      </trkpt>
      <trkpt lat="42.37661" lon="2.20187">
        <ele>1579.5</ele>
        <time>2024-09-25T13:09:04Z</time>
      </trkpt>
      <trkpt lat="42.37661" lon="2.20188">
        <ele>1579.5</ele>
        <time>2024-09-25T13:09:05Z</time>
      </trkpt>
      <trkpt lat="42.37661" lon="2.20189">
        <ele>1579.5</ele>
        <time>2024-09-25T13:09:06Z</time>
      </trkpt>
      <trkpt lat="42.37661" lon="2.2019">
        <ele>1579.5</ele>
        <time>2024-09-25T13:09:07Z</time>
      </trkpt>
      <trkpt lat="42.37662" lon="2.2019">
        <ele>1580</ele>
        <time>2024-09-25T13:09:08Z</time>
      </trkpt>
      <trkpt lat="42.37662" lon="2.2019">
        <ele>1580</ele>
        <time>2024-09-25T13:09:09Z</time>
      </trkpt>
      <trkpt lat="42.37662" lon="2.20189">
        <ele>1579.5</ele>
        <time>2024-09-25T13:09:10Z</time>
      </trkpt>
      <trkpt lat="42.37662" lon="2.20188">
        <ele>1581</ele>
        <time>2024-09-25T13:09:11Z</time>
      </trkpt>
      <trkpt lat="42.37662" lon="2.20187">
        <ele>1581</ele>
        <time>2024-09-25T13:09:12Z</time>
      </trkpt>
      <trkpt lat="42.37662" lon="2.20186">
        <ele>1579.5</ele>
        <time>2024-09-25T13:09:13Z</time>
      </trkpt>
      <trkpt lat="42.37661" lon="2.20186">
        <ele>1579</ele>
        <time>2024-09-25T13:09:14Z</time>
      </trkpt>
      <trkpt lat="42.37661" lon="2.20186">
        <ele>1579</ele>
        <time>2024-09-25T13:09:15Z</time>
      </trkpt>
      <trkpt lat="42.3766" lon="2.20186">
        <ele>1579.4</ele>
        <time>2024-09-25T13:09:16Z</time>
      </trkpt>
      <trkpt lat="42.37659" lon="2.20186">
        <ele>1579.4</ele>
        <time>2024-09-25T13:09:17Z</time>
      </trkpt>
      <trkpt lat="42.37659" lon="2.20186">
        <ele>1579.4</ele>
        <time>2024-09-25T13:09:18Z</time>
      </trkpt>
      <trkpt lat="42.37658" lon="2.20186">
        <ele>1578.3</ele>
        <time>2024-09-25T13:09:19Z</time>
      </trkpt>
      <trkpt lat="42.37658" lon="2.20186">
        <ele>1578.3</ele>
        <time>2024-09-25T13:09:20Z</time>
      </trkpt>
      <trkpt lat="42.37657" lon="2.20185">
        <ele>1577.8</ele>
        <time>2024-09-25T13:09:21Z</time>
      </trkpt>
      <trkpt lat="42.37657" lon="2.20185">
        <ele>1577.8</ele>
        <time>2024-09-25T13:09:22Z</time>
      </trkpt>
      <trkpt lat="42.37657" lon="2.20185">
        <ele>1577.8</ele>
        <time>2024-09-25T13:09:23Z</time>
      </trkpt>
      <trkpt lat="42.37657" lon="2.20185">
        <ele>1577.8</ele>
        <time>2024-09-25T13:09:24Z</time>
      </trkpt>
      <trkpt lat="42.37657" lon="2.20184">
        <ele>1577.8</ele>
        <time>2024-09-25T13:09:25Z</time>
      </trkpt>
      <trkpt lat="42.37656" lon="2.20183">
        <ele>1577.8</ele>
        <time>2024-09-25T13:09:26Z</time>
      </trkpt>
      <trkpt lat="42.37657" lon="2.20183">
        <ele>1577.8</ele>
        <time>2024-09-25T13:09:27Z</time>
      </trkpt>
      <trkpt lat="42.37657" lon="2.20182">
        <ele>1577.8</ele>
        <time>2024-09-25T13:09:28Z</time>
      </trkpt>
      <trkpt lat="42.37657" lon="2.20182">
        <ele>1577.8</ele>
        <time>2024-09-25T13:09:29Z</time>
      </trkpt>
      <trkpt lat="42.37657" lon="2.20182">
        <ele>1577.8</ele>
        <time>2024-09-25T13:09:30Z</time>
      </trkpt>
      <trkpt lat="42.37657" lon="2.20182">
        <ele>1577.8</ele>
        <time>2024-09-25T13:09:31Z</time>
      </trkpt>
      <trkpt lat="42.37657" lon="2.20182">
        <ele>1577.7</ele>
        <time>2024-09-25T13:09:32Z</time>
      </trkpt>
      <trkpt lat="42.37657" lon="2.20182">
        <ele>1577.7</ele>
        <time>2024-09-25T13:09:33Z</time>
      </trkpt>
      <trkpt lat="42.37657" lon="2.20182">
        <ele>1577.7</ele>
        <time>2024-09-25T13:09:34Z</time>
      </trkpt>
      <trkpt lat="42.37657" lon="2.20182">
        <ele>1577.7</ele>
        <time>2024-09-25T13:09:35Z</time>
      </trkpt>
      <trkpt lat="42.37657" lon="2.20182">
        <ele>1577.7</ele>
        <time>2024-09-25T13:09:36Z</time>
      </trkpt>
      <trkpt lat="42.37657" lon="2.20182">
        <ele>1577.7</ele>
        <time>2024-09-25T13:09:37Z</time>
      </trkpt>
      <trkpt lat="42.37657" lon="2.20182">
        <ele>1577.7</ele>
        <time>2024-09-25T13:09:38Z</time>
      </trkpt>
      <trkpt lat="42.37657" lon="2.20182">
        <ele>1577.7</ele>
        <time>2024-09-25T13:09:39Z</time>
      </trkpt>
      <trkpt lat="42.37657" lon="2.20182">
        <ele>1577.7</ele>
        <time>2024-09-25T13:09:40Z</time>
      </trkpt>
      <trkpt lat="42.37656" lon="2.20182">
        <ele>1577.7</ele>
        <time>2024-09-25T13:09:41Z</time>
      </trkpt>
      <trkpt lat="42.37656" lon="2.20182">
        <ele>1577.7</ele>
        <time>2024-09-25T13:09:42Z</time>
      </trkpt>
      <trkpt lat="42.37655" lon="2.20181">
        <ele>1576.5</ele>
        <time>2024-09-25T13:09:43Z</time>
      </trkpt>
      <trkpt lat="42.37654" lon="2.20181">
        <ele>1576.5</ele>
        <time>2024-09-25T13:09:44Z</time>
      </trkpt>
      <trkpt lat="42.37654" lon="2.2018">
        <ele>1576.5</ele>
        <time>2024-09-25T13:09:45Z</time>
      </trkpt>
      <trkpt lat="42.37654" lon="2.20179">
        <ele>1576.5</ele>
        <time>2024-09-25T13:09:46Z</time>
      </trkpt>
      <trkpt lat="42.37654" lon="2.20178">
        <ele>1576.5</ele>
        <time>2024-09-25T13:09:47Z</time>
      </trkpt>
      <trkpt lat="42.37654" lon="2.20177">
        <ele>1576.3</ele>
        <time>2024-09-25T13:09:48Z</time>
      </trkpt>
      <trkpt lat="42.37654" lon="2.20176">
        <ele>1576.3</ele>
        <time>2024-09-25T13:09:49Z</time>
      </trkpt>
      <trkpt lat="42.37654" lon="2.20176">
        <ele>1576.2</ele>
        <time>2024-09-25T13:09:50Z</time>
      </trkpt>
      <trkpt lat="42.37654" lon="2.20176">
        <ele>1576.2</ele>
        <time>2024-09-25T13:09:51Z</time>
      </trkpt>
      <trkpt lat="42.37654" lon="2.20176">
        <ele>1576.2</ele>
        <time>2024-09-25T13:09:52Z</time>
      </trkpt>
      <trkpt lat="42.37654" lon="2.20176">
        <ele>1576.2</ele>
        <time>2024-09-25T13:09:53Z</time>
      </trkpt>
      <trkpt lat="42.37654" lon="2.20176">
        <ele>1576.2</ele>
        <time>2024-09-25T13:09:54Z</time>
      </trkpt>
      <trkpt lat="42.37654" lon="2.20176">
        <ele>1576.2</ele>
        <time>2024-09-25T13:09:55Z</time>
      </trkpt>
      <trkpt lat="42.37654" lon="2.20176">
        <ele>1576.2</ele>
        <time>2024-09-25T13:09:56Z</time>
      </trkpt>
      <trkpt lat="42.37654" lon="2.20175">
        <ele>1576.2</ele>
        <time>2024-09-25T13:09:57Z</time>
      </trkpt>
      <trkpt lat="42.37654" lon="2.20175">
        <ele>1576.2</ele>
        <time>2024-09-25T13:09:58Z</time>
      </trkpt>
      <trkpt lat="42.37654" lon="2.20174">
        <ele>1576.2</ele>
        <time>2024-09-25T13:09:59Z</time>
      </trkpt>
      <trkpt lat="42.37654" lon="2.20174">
        <ele>1576.2</ele>
        <time>2024-09-25T13:10:00Z</time>
      </trkpt>
      <trkpt lat="42.37654" lon="2.20173">
        <ele>1576.2</ele>
        <time>2024-09-25T13:10:01Z</time>
      </trkpt>
      <trkpt lat="42.37654" lon="2.20172">
        <ele>1576</ele>
        <time>2024-09-25T13:10:02Z</time>
      </trkpt>
      <trkpt lat="42.37654" lon="2.20172">
        <ele>1576</ele>
        <time>2024-09-25T13:10:03Z</time>
      </trkpt>
      <trkpt lat="42.37655" lon="2.20171">
        <ele>1576</ele>
        <time>2024-09-25T13:10:04Z</time>
      </trkpt>
      <trkpt lat="42.37655" lon="2.20171">
        <ele>1576</ele>
        <time>2024-09-25T13:10:05Z</time>
      </trkpt>
      <trkpt lat="42.37655" lon="2.2017">
        <ele>1576.9</ele>
        <time>2024-09-25T13:10:06Z</time>
      </trkpt>
      <trkpt lat="42.37656" lon="2.20169">
        <ele>1576.8</ele>
        <time>2024-09-25T13:10:07Z</time>
      </trkpt>
      <trkpt lat="42.37655" lon="2.20169">
        <ele>1576.8</ele>
        <time>2024-09-25T13:10:08Z</time>
      </trkpt>
      <trkpt lat="42.37655" lon="2.20169">
        <ele>1576</ele>
        <time>2024-09-25T13:10:09Z</time>
      </trkpt>
      <trkpt lat="42.37655" lon="2.20169">
        <ele>1576</ele>
        <time>2024-09-25T13:10:10Z</time>
      </trkpt>
      <trkpt lat="42.37655" lon="2.20169">
        <ele>1576</ele>
        <time>2024-09-25T13:10:11Z</time>
      </trkpt>
      <trkpt lat="42.37655" lon="2.20169">
        <ele>1576</ele>
        <time>2024-09-25T13:10:12Z</time>
      </trkpt>
      <trkpt lat="42.37654" lon="2.20168">
        <ele>1575.9</ele>
        <time>2024-09-25T13:10:13Z</time>
      </trkpt>
      <trkpt lat="42.37653" lon="2.20168">
        <ele>1575.9</ele>
        <time>2024-09-25T13:10:14Z</time>
      </trkpt>
      <trkpt lat="42.37653" lon="2.20167">
        <ele>1575.9</ele>
        <time>2024-09-25T13:10:15Z</time>
      </trkpt>
      <trkpt lat="42.37652" lon="2.20167">
        <ele>1575.4</ele>
        <time>2024-09-25T13:10:16Z</time>
      </trkpt>
      <trkpt lat="42.37652" lon="2.20167">
        <ele>1575.4</ele>
        <time>2024-09-25T13:10:17Z</time>
      </trkpt>
      <trkpt lat="42.37652" lon="2.20167">
        <ele>1575.4</ele>
        <time>2024-09-25T13:10:18Z</time>
      </trkpt>
      <trkpt lat="42.37651" lon="2.20166">
        <ele>1575.4</ele>
        <time>2024-09-25T13:10:19Z</time>
      </trkpt>
      <trkpt lat="42.37651" lon="2.20166">
        <ele>1575.4</ele>
        <time>2024-09-25T13:10:20Z</time>
      </trkpt>
      <trkpt lat="42.3765" lon="2.20166">
        <ele>1575.4</ele>
        <time>2024-09-25T13:10:21Z</time>
      </trkpt>
      <trkpt lat="42.3765" lon="2.20165">
        <ele>1575.4</ele>
        <time>2024-09-25T13:10:22Z</time>
      </trkpt>
      <trkpt lat="42.37649" lon="2.20165">
        <ele>1575.2</ele>
        <time>2024-09-25T13:10:23Z</time>
      </trkpt>
      <trkpt lat="42.37648" lon="2.20164">
        <ele>1575.2</ele>
        <time>2024-09-25T13:10:24Z</time>
      </trkpt>
      <trkpt lat="42.37647" lon="2.20164">
        <ele>1575.2</ele>
        <time>2024-09-25T13:10:25Z</time>
      </trkpt>
      <trkpt lat="42.37647" lon="2.20164">
        <ele>1575.1</ele>
        <time>2024-09-25T13:10:26Z</time>
      </trkpt>
      <trkpt lat="42.37647" lon="2.20164">
        <ele>1575.1</ele>
        <time>2024-09-25T13:10:27Z</time>
      </trkpt>
      <trkpt lat="42.37647" lon="2.20164">
        <ele>1575.1</ele>
        <time>2024-09-25T13:10:28Z</time>
      </trkpt>
      <trkpt lat="42.37647" lon="2.20164">
        <ele>1575.1</ele>
        <time>2024-09-25T13:10:29Z</time>
      </trkpt>
      <trkpt lat="42.37647" lon="2.20164">
        <ele>1575.1</ele>
        <time>2024-09-25T13:10:30Z</time>
      </trkpt>
      <trkpt lat="42.37647" lon="2.20163">
        <ele>1575.1</ele>
        <time>2024-09-25T13:10:31Z</time>
      </trkpt>
      <trkpt lat="42.37646" lon="2.20163">
        <ele>1575.1</ele>
        <time>2024-09-25T13:10:32Z</time>
      </trkpt>
      <trkpt lat="42.37645" lon="2.20163">
        <ele>1575.1</ele>
        <time>2024-09-25T13:10:33Z</time>
      </trkpt>
      <trkpt lat="42.37645" lon="2.20163">
        <ele>1575.1</ele>
        <time>2024-09-25T13:10:34Z</time>
      </trkpt>
      <trkpt lat="42.37644" lon="2.20163">
        <ele>1575.1</ele>
        <time>2024-09-25T13:10:35Z</time>
      </trkpt>
      <trkpt lat="42.37644" lon="2.20162">
        <ele>1575.1</ele>
        <time>2024-09-25T13:10:36Z</time>
      </trkpt>
      <trkpt lat="42.37645" lon="2.20161">
        <ele>1575.1</ele>
        <time>2024-09-25T13:10:37Z</time>
      </trkpt>
      <trkpt lat="42.37645" lon="2.20161">
        <ele>1575.1</ele>
        <time>2024-09-25T13:10:38Z</time>
      </trkpt>
      <trkpt lat="42.37645" lon="2.20161">
        <ele>1575.1</ele>
        <time>2024-09-25T13:10:39Z</time>
      </trkpt>
      <trkpt lat="42.37645" lon="2.20161">
        <ele>1575.1</ele>
        <time>2024-09-25T13:10:40Z</time>
      </trkpt>
      <trkpt lat="42.37645" lon="2.20161">
        <ele>1575.1</ele>
        <time>2024-09-25T13:10:41Z</time>
      </trkpt>
      <trkpt lat="42.37645" lon="2.20161">
        <ele>1575.1</ele>
        <time>2024-09-25T13:10:42Z</time>
      </trkpt>
      <trkpt lat="42.37645" lon="2.20161">
        <ele>1575.1</ele>
        <time>2024-09-25T13:10:43Z</time>
      </trkpt>
      <trkpt lat="42.37645" lon="2.20161">
        <ele>1575.1</ele>
        <time>2024-09-25T13:10:44Z</time>
      </trkpt>
      <trkpt lat="42.37645" lon="2.20161">
        <ele>1575.1</ele>
        <time>2024-09-25T13:10:45Z</time>
      </trkpt>
      <trkpt lat="42.37645" lon="2.20161">
        <ele>1575</ele>
        <time>2024-09-25T13:10:46Z</time>
      </trkpt>
      <trkpt lat="42.37645" lon="2.20161">
        <ele>1575</ele>
        <time>2024-09-25T13:10:47Z</time>
      </trkpt>
      <trkpt lat="42.37645" lon="2.20161">
        <ele>1575</ele>
        <time>2024-09-25T13:10:48Z</time>
      </trkpt>
      <trkpt lat="42.37645" lon="2.20161">
        <ele>1575</ele>
        <time>2024-09-25T13:10:49Z</time>
      </trkpt>
      <trkpt lat="42.37645" lon="2.20161">
        <ele>1575</ele>
        <time>2024-09-25T13:10:50Z</time>
      </trkpt>
      <trkpt lat="42.37645" lon="2.20161">
        <ele>1575</ele>
        <time>2024-09-25T13:10:51Z</time>
      </trkpt>
      <trkpt lat="42.37646" lon="2.2016">
        <ele>1575</ele>
        <time>2024-09-25T13:10:52Z</time>
      </trkpt>
      <trkpt lat="42.37646" lon="2.20159">
        <ele>1575</ele>
        <time>2024-09-25T13:10:53Z</time>
      </trkpt>
      <trkpt lat="42.37646" lon="2.20158">
        <ele>1575</ele>
        <time>2024-09-25T13:10:54Z</time>
      </trkpt>
      <trkpt lat="42.37646" lon="2.20157">
        <ele>1575</ele>
        <time>2024-09-25T13:10:55Z</time>
      </trkpt>
      <trkpt lat="42.37645" lon="2.20157">
        <ele>1575</ele>
        <time>2024-09-25T13:10:56Z</time>
      </trkpt>
      <trkpt lat="42.37645" lon="2.20156">
        <ele>1575</ele>
        <time>2024-09-25T13:10:57Z</time>
      </trkpt>
      <trkpt lat="42.37645" lon="2.20155">
        <ele>1575</ele>
        <time>2024-09-25T13:10:58Z</time>
      </trkpt>
      <trkpt lat="42.37645" lon="2.20154">
        <ele>1575</ele>
        <time>2024-09-25T13:10:59Z</time>
      </trkpt>
      <trkpt lat="42.37645" lon="2.20153">
        <ele>1575</ele>
        <time>2024-09-25T13:11:00Z</time>
      </trkpt>
      <trkpt lat="42.37645" lon="2.20152">
        <ele>1575</ele>
        <time>2024-09-25T13:11:01Z</time>
      </trkpt>
      <trkpt lat="42.37644" lon="2.20152">
        <ele>1575</ele>
        <time>2024-09-25T13:11:02Z</time>
      </trkpt>
      <trkpt lat="42.37644" lon="2.20152">
        <ele>1575</ele>
        <time>2024-09-25T13:11:03Z</time>
      </trkpt>
      <trkpt lat="42.37644" lon="2.20152">
        <ele>1575</ele>
        <time>2024-09-25T13:11:04Z</time>
      </trkpt>
      <trkpt lat="42.37643" lon="2.20152">
        <ele>1575</ele>
        <time>2024-09-25T13:11:05Z</time>
      </trkpt>
      <trkpt lat="42.37643" lon="2.20152">
        <ele>1575</ele>
        <time>2024-09-25T13:11:06Z</time>
      </trkpt>
      <trkpt lat="42.37643" lon="2.20151">
        <ele>1575</ele>
        <time>2024-09-25T13:11:07Z</time>
      </trkpt>
      <trkpt lat="42.37644" lon="2.20151">
        <ele>1575</ele>
        <time>2024-09-25T13:11:08Z</time>
      </trkpt>
      <trkpt lat="42.37645" lon="2.2015">
        <ele>1575</ele>
        <time>2024-09-25T13:11:09Z</time>
      </trkpt>
      <trkpt lat="42.37645" lon="2.2015">
        <ele>1575</ele>
        <time>2024-09-25T13:11:10Z</time>
      </trkpt>
      <trkpt lat="42.37646" lon="2.2015">
        <ele>1575</ele>
        <time>2024-09-25T13:11:11Z</time>
      </trkpt>
      <trkpt lat="42.37646" lon="2.2015">
        <ele>1575</ele>
        <time>2024-09-25T13:11:12Z</time>
      </trkpt>
      <trkpt lat="42.37647" lon="2.2015">
        <ele>1575</ele>
        <time>2024-09-25T13:11:13Z</time>
      </trkpt>
      <trkpt lat="42.37647" lon="2.2015">
        <ele>1575</ele>
        <time>2024-09-25T13:11:14Z</time>
      </trkpt>
      <trkpt lat="42.37647" lon="2.2015">
        <ele>1575</ele>
        <time>2024-09-25T13:11:15Z</time>
      </trkpt>
      <trkpt lat="42.37647" lon="2.20149">
        <ele>1575</ele>
        <time>2024-09-25T13:11:16Z</time>
      </trkpt>
      <trkpt lat="42.37647" lon="2.20149">
        <ele>1574.9</ele>
        <time>2024-09-25T13:11:17Z</time>
      </trkpt>
      <trkpt lat="42.37647" lon="2.20148">
        <ele>1574.9</ele>
        <time>2024-09-25T13:11:18Z</time>
      </trkpt>
      <trkpt lat="42.37647" lon="2.20147">
        <ele>1574.9</ele>
        <time>2024-09-25T13:11:19Z</time>
      </trkpt>
      <trkpt lat="42.37647" lon="2.20147">
        <ele>1574.9</ele>
        <time>2024-09-25T13:11:20Z</time>
      </trkpt>
      <trkpt lat="42.37646" lon="2.20147">
        <ele>1574.9</ele>
        <time>2024-09-25T13:11:21Z</time>
      </trkpt>
      <trkpt lat="42.37646" lon="2.20146">
        <ele>1574.9</ele>
        <time>2024-09-25T13:11:22Z</time>
      </trkpt>
      <trkpt lat="42.37646" lon="2.20145">
        <ele>1574.9</ele>
        <time>2024-09-25T13:11:23Z</time>
      </trkpt>
      <trkpt lat="42.37646" lon="2.20145">
        <ele>1574.8</ele>
        <time>2024-09-25T13:11:24Z</time>
      </trkpt>
      <trkpt lat="42.37646" lon="2.20145">
        <ele>1574.8</ele>
        <time>2024-09-25T13:11:25Z</time>
      </trkpt>
      <trkpt lat="42.37646" lon="2.20145">
        <ele>1574.8</ele>
        <time>2024-09-25T13:11:26Z</time>
      </trkpt>
      <trkpt lat="42.37646" lon="2.20145">
        <ele>1574.8</ele>
        <time>2024-09-25T13:11:27Z</time>
      </trkpt>
      <trkpt lat="42.37646" lon="2.20145">
        <ele>1574.8</ele>
        <time>2024-09-25T13:11:28Z</time>
      </trkpt>
      <trkpt lat="42.37646" lon="2.20144">
        <ele>1574.8</ele>
        <time>2024-09-25T13:11:29Z</time>
      </trkpt>
      <trkpt lat="42.37646" lon="2.20143">
        <ele>1574.8</ele>
        <time>2024-09-25T13:11:30Z</time>
      </trkpt>
      <trkpt lat="42.37646" lon="2.20143">
        <ele>1574.7</ele>
        <time>2024-09-25T13:11:31Z</time>
      </trkpt>
      <trkpt lat="42.37646" lon="2.20142">
        <ele>1574.7</ele>
        <time>2024-09-25T13:11:32Z</time>
      </trkpt>
      <trkpt lat="42.37647" lon="2.20141">
        <ele>1574.7</ele>
        <time>2024-09-25T13:11:33Z</time>
      </trkpt>
      <trkpt lat="42.37647" lon="2.20141">
        <ele>1574.7</ele>
        <time>2024-09-25T13:11:34Z</time>
      </trkpt>
      <trkpt lat="42.37647" lon="2.20141">
        <ele>1574.7</ele>
        <time>2024-09-25T13:11:35Z</time>
      </trkpt>
      <trkpt lat="42.37647" lon="2.2014">
        <ele>1574.7</ele>
        <time>2024-09-25T13:11:36Z</time>
      </trkpt>
      <trkpt lat="42.37647" lon="2.2014">
        <ele>1574.7</ele>
        <time>2024-09-25T13:11:37Z</time>
      </trkpt>
      <trkpt lat="42.37647" lon="2.20141">
        <ele>1574.7</ele>
        <time>2024-09-25T13:11:38Z</time>
      </trkpt>
      <trkpt lat="42.37647" lon="2.20141">
        <ele>1574.7</ele>
        <time>2024-09-25T13:11:39Z</time>
      </trkpt>
      <trkpt lat="42.37647" lon="2.20141">
        <ele>1574.7</ele>
        <time>2024-09-25T13:11:40Z</time>
      </trkpt>
      <trkpt lat="42.37648" lon="2.20141">
        <ele>1574.6</ele>
        <time>2024-09-25T13:11:41Z</time>
      </trkpt>
      <trkpt lat="42.37648" lon="2.20142">
        <ele>1574.6</ele>
        <time>2024-09-25T13:11:42Z</time>
      </trkpt>
      <trkpt lat="42.37648" lon="2.20143">
        <ele>1574.6</ele>
        <time>2024-09-25T13:11:43Z</time>
      </trkpt>
      <trkpt lat="42.37649" lon="2.20143">
        <ele>1574.7</ele>
        <time>2024-09-25T13:11:44Z</time>
      </trkpt>
      <trkpt lat="42.37649" lon="2.20144">
        <ele>1574.7</ele>
        <time>2024-09-25T13:11:45Z</time>
      </trkpt>
      <trkpt lat="42.37649" lon="2.20144">
        <ele>1574.7</ele>
        <time>2024-09-25T13:11:46Z</time>
      </trkpt>
      <trkpt lat="42.37649" lon="2.20144">
        <ele>1575</ele>
        <time>2024-09-25T13:11:47Z</time>
      </trkpt>
      <trkpt lat="42.3765" lon="2.20143">
        <ele>1575</ele>
        <time>2024-09-25T13:11:48Z</time>
      </trkpt>
      <trkpt lat="42.37651" lon="2.20143">
        <ele>1574.9</ele>
        <time>2024-09-25T13:11:49Z</time>
      </trkpt>
      <trkpt lat="42.37651" lon="2.20142">
        <ele>1574.8</ele>
        <time>2024-09-25T13:11:50Z</time>
      </trkpt>
      <trkpt lat="42.37652" lon="2.20141">
        <ele>1574.8</ele>
        <time>2024-09-25T13:11:51Z</time>
      </trkpt>
      <trkpt lat="42.37652" lon="2.2014">
        <ele>1574.8</ele>
        <time>2024-09-25T13:11:52Z</time>
      </trkpt>
      <trkpt lat="42.37652" lon="2.2014">
        <ele>1574.8</ele>
        <time>2024-09-25T13:11:53Z</time>
      </trkpt>
      <trkpt lat="42.37652" lon="2.20139">
        <ele>1574.8</ele>
        <time>2024-09-25T13:11:54Z</time>
      </trkpt>
      <trkpt lat="42.37652" lon="2.20139">
        <ele>1574.8</ele>
        <time>2024-09-25T13:11:55Z</time>
      </trkpt>
      <trkpt lat="42.37652" lon="2.20139">
        <ele>1574.8</ele>
        <time>2024-09-25T13:11:56Z</time>
      </trkpt>
      <trkpt lat="42.37652" lon="2.20139">
        <ele>1574.8</ele>
        <time>2024-09-25T13:11:57Z</time>
      </trkpt>
      <trkpt lat="42.37652" lon="2.20139">
        <ele>1574.8</ele>
        <time>2024-09-25T13:11:58Z</time>
      </trkpt>
      <trkpt lat="42.37652" lon="2.20139">
        <ele>1574.8</ele>
        <time>2024-09-25T13:11:59Z</time>
      </trkpt>
      <trkpt lat="42.37652" lon="2.20139">
        <ele>1574.8</ele>
        <time>2024-09-25T13:12:00Z</time>
      </trkpt>
      <trkpt lat="42.37652" lon="2.20139">
        <ele>1574.8</ele>
        <time>2024-09-25T13:12:01Z</time>
      </trkpt>
      <trkpt lat="42.37652" lon="2.20139">
        <ele>1574.8</ele>
        <time>2024-09-25T13:12:02Z</time>
      </trkpt>
      <trkpt lat="42.37652" lon="2.20139">
        <ele>1574.8</ele>
        <time>2024-09-25T13:12:03Z</time>
      </trkpt>
      <trkpt lat="42.37652" lon="2.20139">
        <ele>1574.8</ele>
        <time>2024-09-25T13:12:04Z</time>
      </trkpt>
      <trkpt lat="42.37652" lon="2.20139">
        <ele>1574.7</ele>
        <time>2024-09-25T13:12:05Z</time>
      </trkpt>
      <trkpt lat="42.37652" lon="2.20139">
        <ele>1574.7</ele>
        <time>2024-09-25T13:12:06Z</time>
      </trkpt>
      <trkpt lat="42.37652" lon="2.20139">
        <ele>1574.7</ele>
        <time>2024-09-25T13:12:07Z</time>
      </trkpt>
      <trkpt lat="42.37652" lon="2.20139">
        <ele>1574.7</ele>
        <time>2024-09-25T13:12:08Z</time>
      </trkpt>
      <trkpt lat="42.37652" lon="2.20139">
        <ele>1574.7</ele>
        <time>2024-09-25T13:12:09Z</time>
      </trkpt>
      <trkpt lat="42.37652" lon="2.20138">
        <ele>1574.6</ele>
        <time>2024-09-25T13:12:10Z</time>
      </trkpt>
      <trkpt lat="42.37652" lon="2.20138">
        <ele>1574.6</ele>
        <time>2024-09-25T13:12:11Z</time>
      </trkpt>
      <trkpt lat="42.37652" lon="2.20137">
        <ele>1574.6</ele>
        <time>2024-09-25T13:12:12Z</time>
      </trkpt>
      <trkpt lat="42.37652" lon="2.20137">
        <ele>1574.6</ele>
        <time>2024-09-25T13:12:13Z</time>
      </trkpt>
      <trkpt lat="42.37651" lon="2.20136">
        <ele>1574.6</ele>
        <time>2024-09-25T13:12:14Z</time>
      </trkpt>
      <trkpt lat="42.37651" lon="2.20135">
        <ele>1574.6</ele>
        <time>2024-09-25T13:12:15Z</time>
      </trkpt>
      <trkpt lat="42.37651" lon="2.20134">
        <ele>1574.5</ele>
        <time>2024-09-25T13:12:16Z</time>
      </trkpt>
      <trkpt lat="42.37651" lon="2.20133">
        <ele>1574.5</ele>
        <time>2024-09-25T13:12:17Z</time>
      </trkpt>
      <trkpt lat="42.37651" lon="2.20132">
        <ele>1574.5</ele>
        <time>2024-09-25T13:12:18Z</time>
      </trkpt>
      <trkpt lat="42.37651" lon="2.20131">
        <ele>1574.5</ele>
        <time>2024-09-25T13:12:19Z</time>
      </trkpt>
      <trkpt lat="42.37651" lon="2.2013">
        <ele>1574.4</ele>
        <time>2024-09-25T13:12:20Z</time>
      </trkpt>
      <trkpt lat="42.37651" lon="2.20129">
        <ele>1574.4</ele>
        <time>2024-09-25T13:12:21Z</time>
      </trkpt>
      <trkpt lat="42.37651" lon="2.20129">
        <ele>1574.4</ele>
        <time>2024-09-25T13:12:22Z</time>
      </trkpt>
      <trkpt lat="42.37651" lon="2.20129">
        <ele>1574.4</ele>
        <time>2024-09-25T13:12:23Z</time>
      </trkpt>
      <trkpt lat="42.37651" lon="2.20128">
        <ele>1574.4</ele>
        <time>2024-09-25T13:12:24Z</time>
      </trkpt>
      <trkpt lat="42.3765" lon="2.20128">
        <ele>1574.4</ele>
        <time>2024-09-25T13:12:25Z</time>
      </trkpt>
      <trkpt lat="42.3765" lon="2.20127">
        <ele>1574.4</ele>
        <time>2024-09-25T13:12:26Z</time>
      </trkpt>
      <trkpt lat="42.3765" lon="2.20126">
        <ele>1574.4</ele>
        <time>2024-09-25T13:12:27Z</time>
      </trkpt>
      <trkpt lat="42.37649" lon="2.20125">
        <ele>1574.4</ele>
        <time>2024-09-25T13:12:28Z</time>
      </trkpt>
      <trkpt lat="42.37649" lon="2.20124">
        <ele>1574.1</ele>
        <time>2024-09-25T13:12:29Z</time>
      </trkpt>
      <trkpt lat="42.37649" lon="2.20123">
        <ele>1574.1</ele>
        <time>2024-09-25T13:12:30Z</time>
      </trkpt>
      <trkpt lat="42.37649" lon="2.20123">
        <ele>1574.1</ele>
        <time>2024-09-25T13:12:31Z</time>
      </trkpt>
      <trkpt lat="42.37649" lon="2.20123">
        <ele>1574.1</ele>
        <time>2024-09-25T13:12:32Z</time>
      </trkpt>
      <trkpt lat="42.37649" lon="2.20122">
        <ele>1574.4</ele>
        <time>2024-09-25T13:12:33Z</time>
      </trkpt>
      <trkpt lat="42.37649" lon="2.20122">
        <ele>1574.4</ele>
        <time>2024-09-25T13:12:34Z</time>
      </trkpt>
      <trkpt lat="42.37649" lon="2.20121">
        <ele>1574.1</ele>
        <time>2024-09-25T13:12:35Z</time>
      </trkpt>
      <trkpt lat="42.37649" lon="2.2012">
        <ele>1574.1</ele>
        <time>2024-09-25T13:12:36Z</time>
      </trkpt>
      <trkpt lat="42.37648" lon="2.20119">
        <ele>1574.1</ele>
        <time>2024-09-25T13:12:37Z</time>
      </trkpt>
      <trkpt lat="42.37648" lon="2.20119">
        <ele>1574.1</ele>
        <time>2024-09-25T13:12:38Z</time>
      </trkpt>
      <trkpt lat="42.37648" lon="2.20118">
        <ele>1574.1</ele>
        <time>2024-09-25T13:12:39Z</time>
      </trkpt>
      <trkpt lat="42.37647" lon="2.20118">
        <ele>1574.1</ele>
        <time>2024-09-25T13:12:40Z</time>
      </trkpt>
      <trkpt lat="42.37648" lon="2.20118">
        <ele>1574.1</ele>
        <time>2024-09-25T13:12:41Z</time>
      </trkpt>
      <trkpt lat="42.37648" lon="2.20117">
        <ele>1574.1</ele>
        <time>2024-09-25T13:12:42Z</time>
      </trkpt>
      <trkpt lat="42.37647" lon="2.20116">
        <ele>1574.2</ele>
        <time>2024-09-25T13:12:43Z</time>
      </trkpt>
      <trkpt lat="42.37647" lon="2.20116">
        <ele>1574.2</ele>
        <time>2024-09-25T13:12:44Z</time>
      </trkpt>
      <trkpt lat="42.37647" lon="2.20115">
        <ele>1574.2</ele>
        <time>2024-09-25T13:12:45Z</time>
      </trkpt>
      <trkpt lat="42.37646" lon="2.20115">
        <ele>1573.9</ele>
        <time>2024-09-25T13:12:46Z</time>
      </trkpt>
      <trkpt lat="42.37644" lon="2.20114">
        <ele>1573.9</ele>
        <time>2024-09-25T13:12:47Z</time>
      </trkpt>
      <trkpt lat="42.37644" lon="2.20114">
        <ele>1573.9</ele>
        <time>2024-09-25T13:12:48Z</time>
      </trkpt>
      <trkpt lat="42.37643" lon="2.20113">
        <ele>1573.9</ele>
        <time>2024-09-25T13:12:49Z</time>
      </trkpt>
      <trkpt lat="42.37642" lon="2.20113">
        <ele>1573.7</ele>
        <time>2024-09-25T13:12:50Z</time>
      </trkpt>
      <trkpt lat="42.37642" lon="2.20111">
        <ele>1573.7</ele>
        <time>2024-09-25T13:12:51Z</time>
      </trkpt>
      <trkpt lat="42.37641" lon="2.2011">
        <ele>1573.7</ele>
        <time>2024-09-25T13:12:52Z</time>
      </trkpt>
      <trkpt lat="42.37641" lon="2.20109">
        <ele>1573.7</ele>
        <time>2024-09-25T13:12:53Z</time>
      </trkpt>
      <trkpt lat="42.3764" lon="2.20108">
        <ele>1573.6</ele>
        <time>2024-09-25T13:12:54Z</time>
      </trkpt>
      <trkpt lat="42.3764" lon="2.20107">
        <ele>1573.6</ele>
        <time>2024-09-25T13:12:55Z</time>
      </trkpt>
      <trkpt lat="42.37639" lon="2.20106">
        <ele>1573.5</ele>
        <time>2024-09-25T13:12:56Z</time>
      </trkpt>
      <trkpt lat="42.37639" lon="2.20105">
        <ele>1573.5</ele>
        <time>2024-09-25T13:12:57Z</time>
      </trkpt>
      <trkpt lat="42.37639" lon="2.20104">
        <ele>1573.2</ele>
        <time>2024-09-25T13:12:58Z</time>
      </trkpt>
      <trkpt lat="42.37639" lon="2.20103">
        <ele>1573.2</ele>
        <time>2024-09-25T13:12:59Z</time>
      </trkpt>
      <trkpt lat="42.37639" lon="2.20102">
        <ele>1573.2</ele>
        <time>2024-09-25T13:13:00Z</time>
      </trkpt>
      <trkpt lat="42.37638" lon="2.20101">
        <ele>1573.2</ele>
        <time>2024-09-25T13:13:01Z</time>
      </trkpt>
      <trkpt lat="42.37638" lon="2.201">
        <ele>1573.2</ele>
        <time>2024-09-25T13:13:02Z</time>
      </trkpt>
      <trkpt lat="42.37638" lon="2.201">
        <ele>1572.8</ele>
        <time>2024-09-25T13:13:03Z</time>
      </trkpt>
      <trkpt lat="42.37638" lon="2.201">
        <ele>1572.8</ele>
        <time>2024-09-25T13:13:04Z</time>
      </trkpt>
      <trkpt lat="42.37637" lon="2.20099">
        <ele>1572.8</ele>
        <time>2024-09-25T13:13:05Z</time>
      </trkpt>
      <trkpt lat="42.37636" lon="2.20099">
        <ele>1572.7</ele>
        <time>2024-09-25T13:13:06Z</time>
      </trkpt>
      <trkpt lat="42.37636" lon="2.20098">
        <ele>1572.7</ele>
        <time>2024-09-25T13:13:07Z</time>
      </trkpt>
      <trkpt lat="42.37635" lon="2.20098">
        <ele>1572.7</ele>
        <time>2024-09-25T13:13:08Z</time>
      </trkpt>
      <trkpt lat="42.37634" lon="2.20097">
        <ele>1572.7</ele>
        <time>2024-09-25T13:13:09Z</time>
      </trkpt>
      <trkpt lat="42.37633" lon="2.20096">
        <ele>1572.7</ele>
        <time>2024-09-25T13:13:10Z</time>
      </trkpt>
      <trkpt lat="42.37634" lon="2.20095">
        <ele>1572.2</ele>
        <time>2024-09-25T13:13:11Z</time>
      </trkpt>
      <trkpt lat="42.37634" lon="2.20095">
        <ele>1572.2</ele>
        <time>2024-09-25T13:13:12Z</time>
      </trkpt>
      <trkpt lat="42.37635" lon="2.20095">
        <ele>1572.2</ele>
        <time>2024-09-25T13:13:13Z</time>
      </trkpt>
      <trkpt lat="42.37635" lon="2.20095">
        <ele>1572.2</ele>
        <time>2024-09-25T13:13:14Z</time>
      </trkpt>
      <trkpt lat="42.37635" lon="2.20095">
        <ele>1572.2</ele>
        <time>2024-09-25T13:13:15Z</time>
      </trkpt>
      <trkpt lat="42.37635" lon="2.20094">
        <ele>1572.1</ele>
        <time>2024-09-25T13:13:16Z</time>
      </trkpt>
      <trkpt lat="42.37635" lon="2.20094">
        <ele>1572.1</ele>
        <time>2024-09-25T13:13:17Z</time>
      </trkpt>
      <trkpt lat="42.37635" lon="2.20094">
        <ele>1572.1</ele>
        <time>2024-09-25T13:13:18Z</time>
      </trkpt>
      <trkpt lat="42.37635" lon="2.20095">
        <ele>1572.1</ele>
        <time>2024-09-25T13:13:19Z</time>
      </trkpt>
      <trkpt lat="42.37635" lon="2.20094">
        <ele>1572.1</ele>
        <time>2024-09-25T13:13:20Z</time>
      </trkpt>
      <trkpt lat="42.37636" lon="2.20094">
        <ele>1572.1</ele>
        <time>2024-09-25T13:13:21Z</time>
      </trkpt>
      <trkpt lat="42.37636" lon="2.20094">
        <ele>1572.1</ele>
        <time>2024-09-25T13:13:22Z</time>
      </trkpt>
      <trkpt lat="42.37636" lon="2.20093">
        <ele>1572.1</ele>
        <time>2024-09-25T13:13:23Z</time>
      </trkpt>
      <trkpt lat="42.37636" lon="2.20093">
        <ele>1572.1</ele>
        <time>2024-09-25T13:13:24Z</time>
      </trkpt>
      <trkpt lat="42.37636" lon="2.20092">
        <ele>1572.1</ele>
        <time>2024-09-25T13:13:25Z</time>
      </trkpt>
      <trkpt lat="42.37636" lon="2.20092">
        <ele>1572.1</ele>
        <time>2024-09-25T13:13:26Z</time>
      </trkpt>
      <trkpt lat="42.37637" lon="2.20091">
        <ele>1571.6</ele>
        <time>2024-09-25T13:13:27Z</time>
      </trkpt>
      <trkpt lat="42.37637" lon="2.2009">
        <ele>1571.6</ele>
        <time>2024-09-25T13:13:28Z</time>
      </trkpt>
      <trkpt lat="42.37636" lon="2.2009">
        <ele>1571.5</ele>
        <time>2024-09-25T13:13:29Z</time>
      </trkpt>
      <trkpt lat="42.37635" lon="2.20089">
        <ele>1571.5</ele>
        <time>2024-09-25T13:13:30Z</time>
      </trkpt>
      <trkpt lat="42.37635" lon="2.20088">
        <ele>1571.5</ele>
        <time>2024-09-25T13:13:31Z</time>
      </trkpt>
      <trkpt lat="42.37634" lon="2.20088">
        <ele>1571.4</ele>
        <time>2024-09-25T13:13:32Z</time>
      </trkpt>
      <trkpt lat="42.37634" lon="2.20087">
        <ele>1571.4</ele>
        <time>2024-09-25T13:13:33Z</time>
      </trkpt>
      <trkpt lat="42.37634" lon="2.20086">
        <ele>1570.8</ele>
        <time>2024-09-25T13:13:34Z</time>
      </trkpt>
      <trkpt lat="42.37633" lon="2.20085">
        <ele>1570.8</ele>
        <time>2024-09-25T13:13:35Z</time>
      </trkpt>
      <trkpt lat="42.37633" lon="2.20084">
        <ele>1570.8</ele>
        <time>2024-09-25T13:13:36Z</time>
      </trkpt>
      <trkpt lat="42.37632" lon="2.20084">
        <ele>1570.8</ele>
        <time>2024-09-25T13:13:37Z</time>
      </trkpt>
      <trkpt lat="42.37632" lon="2.20083">
        <ele>1570.8</ele>
        <time>2024-09-25T13:13:38Z</time>
      </trkpt>
      <trkpt lat="42.37631" lon="2.20082">
        <ele>1570.1</ele>
        <time>2024-09-25T13:13:39Z</time>
      </trkpt>
      <trkpt lat="42.37631" lon="2.20081">
        <ele>1570.1</ele>
        <time>2024-09-25T13:13:40Z</time>
      </trkpt>
      <trkpt lat="42.37631" lon="2.2008">
        <ele>1570.1</ele>
        <time>2024-09-25T13:13:41Z</time>
      </trkpt>
      <trkpt lat="42.37631" lon="2.20079">
        <ele>1569.9</ele>
        <time>2024-09-25T13:13:42Z</time>
      </trkpt>
      <trkpt lat="42.37631" lon="2.20079">
        <ele>1569.9</ele>
        <time>2024-09-25T13:13:43Z</time>
      </trkpt>
      <trkpt lat="42.37631" lon="2.20078">
        <ele>1569.8</ele>
        <time>2024-09-25T13:13:44Z</time>
      </trkpt>
      <trkpt lat="42.37632" lon="2.20077">
        <ele>1569.6</ele>
        <time>2024-09-25T13:13:45Z</time>
      </trkpt>
      <trkpt lat="42.37632" lon="2.20076">
        <ele>1569.6</ele>
        <time>2024-09-25T13:13:46Z</time>
      </trkpt>
      <trkpt lat="42.37633" lon="2.20076">
        <ele>1569.5</ele>
        <time>2024-09-25T13:13:47Z</time>
      </trkpt>
      <trkpt lat="42.37633" lon="2.20075">
        <ele>1569.4</ele>
        <time>2024-09-25T13:13:48Z</time>
      </trkpt>
      <trkpt lat="42.37633" lon="2.20075">
        <ele>1569.3</ele>
        <time>2024-09-25T13:13:49Z</time>
      </trkpt>
      <trkpt lat="42.37634" lon="2.20074">
        <ele>1569.2</ele>
        <time>2024-09-25T13:13:50Z</time>
      </trkpt>
      <trkpt lat="42.37634" lon="2.20074">
        <ele>1569.1</ele>
        <time>2024-09-25T13:13:51Z</time>
      </trkpt>
      <trkpt lat="42.37635" lon="2.20073">
        <ele>1569</ele>
        <time>2024-09-25T13:13:52Z</time>
      </trkpt>
      <trkpt lat="42.37635" lon="2.20073">
        <ele>1568.9</ele>
        <time>2024-09-25T13:13:53Z</time>
      </trkpt>
      <trkpt lat="42.37636" lon="2.20073">
        <ele>1568.9</ele>
        <time>2024-09-25T13:13:54Z</time>
      </trkpt>
      <trkpt lat="42.37636" lon="2.20073">
        <ele>1568.8</ele>
        <time>2024-09-25T13:13:55Z</time>
      </trkpt>
      <trkpt lat="42.37636" lon="2.20073">
        <ele>1568.8</ele>
        <time>2024-09-25T13:13:56Z</time>
      </trkpt>
      <trkpt lat="42.37636" lon="2.20073">
        <ele>1568.8</ele>
        <time>2024-09-25T13:13:57Z</time>
      </trkpt>
      <trkpt lat="42.37636" lon="2.20072">
        <ele>1568.7</ele>
        <time>2024-09-25T13:13:58Z</time>
      </trkpt>
      <trkpt lat="42.37635" lon="2.20072">
        <ele>1568.6</ele>
        <time>2024-09-25T13:13:59Z</time>
      </trkpt>
      <trkpt lat="42.37634" lon="2.20071">
        <ele>1568.5</ele>
        <time>2024-09-25T13:14:00Z</time>
      </trkpt>
      <trkpt lat="42.37634" lon="2.2007">
        <ele>1568.3</ele>
        <time>2024-09-25T13:14:01Z</time>
      </trkpt>
      <trkpt lat="42.37634" lon="2.20069">
        <ele>1568.2</ele>
        <time>2024-09-25T13:14:02Z</time>
      </trkpt>
      <trkpt lat="42.37633" lon="2.20068">
        <ele>1568.1</ele>
        <time>2024-09-25T13:14:03Z</time>
      </trkpt>
      <trkpt lat="42.37633" lon="2.20068">
        <ele>1568.1</ele>
        <time>2024-09-25T13:14:04Z</time>
      </trkpt>
      <trkpt lat="42.37634" lon="2.20068">
        <ele>1568</ele>
        <time>2024-09-25T13:14:05Z</time>
      </trkpt>
      <trkpt lat="42.37634" lon="2.20068">
        <ele>1568</ele>
        <time>2024-09-25T13:14:06Z</time>
      </trkpt>
      <trkpt lat="42.37634" lon="2.20067">
        <ele>1567.9</ele>
        <time>2024-09-25T13:14:07Z</time>
      </trkpt>
      <trkpt lat="42.37634" lon="2.20067">
        <ele>1567.9</ele>
        <time>2024-09-25T13:14:08Z</time>
      </trkpt>
      <trkpt lat="42.37634" lon="2.20067">
        <ele>1567.9</ele>
        <time>2024-09-25T13:14:09Z</time>
      </trkpt>
      <trkpt lat="42.37634" lon="2.20067">
        <ele>1567.9</ele>
        <time>2024-09-25T13:14:10Z</time>
      </trkpt>
      <trkpt lat="42.37634" lon="2.20067">
        <ele>1567.9</ele>
        <time>2024-09-25T13:14:11Z</time>
      </trkpt>
      <trkpt lat="42.37634" lon="2.20067">
        <ele>1567.9</ele>
        <time>2024-09-25T13:14:12Z</time>
      </trkpt>
      <trkpt lat="42.37634" lon="2.20067">
        <ele>1567.9</ele>
        <time>2024-09-25T13:14:13Z</time>
      </trkpt>
      <trkpt lat="42.37634" lon="2.20067">
        <ele>1567.8</ele>
        <time>2024-09-25T13:14:14Z</time>
      </trkpt>
      <trkpt lat="42.37634" lon="2.20066">
        <ele>1567.7</ele>
        <time>2024-09-25T13:14:15Z</time>
      </trkpt>
      <trkpt lat="42.37633" lon="2.20065">
        <ele>1567.6</ele>
        <time>2024-09-25T13:14:16Z</time>
      </trkpt>
      <trkpt lat="42.37633" lon="2.20064">
        <ele>1567.4</ele>
        <time>2024-09-25T13:14:17Z</time>
      </trkpt>
      <trkpt lat="42.37633" lon="2.20063">
        <ele>1567.3</ele>
        <time>2024-09-25T13:14:18Z</time>
      </trkpt>
      <trkpt lat="42.37634" lon="2.20061">
        <ele>1567.1</ele>
        <time>2024-09-25T13:14:19Z</time>
      </trkpt>
      <trkpt lat="42.37635" lon="2.20061">
        <ele>1566.9</ele>
        <time>2024-09-25T13:14:20Z</time>
      </trkpt>
      <trkpt lat="42.37635" lon="2.2006">
        <ele>1566.8</ele>
        <time>2024-09-25T13:14:21Z</time>
      </trkpt>
      <trkpt lat="42.37636" lon="2.2006">
        <ele>1566.7</ele>
        <time>2024-09-25T13:14:22Z</time>
      </trkpt>
      <trkpt lat="42.37636" lon="2.2006">
        <ele>1566.6</ele>
        <time>2024-09-25T13:14:23Z</time>
      </trkpt>
      <trkpt lat="42.37637" lon="2.2006">
        <ele>1566.5</ele>
        <time>2024-09-25T13:14:24Z</time>
      </trkpt>
      <trkpt lat="42.37638" lon="2.2006">
        <ele>1566.4</ele>
        <time>2024-09-25T13:14:25Z</time>
      </trkpt>
      <trkpt lat="42.37639" lon="2.2006">
        <ele>1566.3</ele>
        <time>2024-09-25T13:14:26Z</time>
      </trkpt>
      <trkpt lat="42.37639" lon="2.20059">
        <ele>1566.2</ele>
        <time>2024-09-25T13:14:27Z</time>
      </trkpt>
      <trkpt lat="42.3764" lon="2.20059">
        <ele>1566.1</ele>
        <time>2024-09-25T13:14:28Z</time>
      </trkpt>
      <trkpt lat="42.37641" lon="2.20059">
        <ele>1566</ele>
        <time>2024-09-25T13:14:29Z</time>
      </trkpt>
      <trkpt lat="42.37641" lon="2.20058">
        <ele>1566</ele>
        <time>2024-09-25T13:14:30Z</time>
      </trkpt>
      <trkpt lat="42.37642" lon="2.20057">
        <ele>1565.9</ele>
        <time>2024-09-25T13:14:31Z</time>
      </trkpt>
      <trkpt lat="42.37642" lon="2.20057">
        <ele>1565.8</ele>
        <time>2024-09-25T13:14:32Z</time>
      </trkpt>
      <trkpt lat="42.37642" lon="2.20056">
        <ele>1565.7</ele>
        <time>2024-09-25T13:14:33Z</time>
      </trkpt>
      <trkpt lat="42.37642" lon="2.20055">
        <ele>1565.7</ele>
        <time>2024-09-25T13:14:34Z</time>
      </trkpt>
      <trkpt lat="42.37642" lon="2.20054">
        <ele>1565.6</ele>
        <time>2024-09-25T13:14:35Z</time>
      </trkpt>
      <trkpt lat="42.37642" lon="2.20053">
        <ele>1565.5</ele>
        <time>2024-09-25T13:14:36Z</time>
      </trkpt>
      <trkpt lat="42.37642" lon="2.20051">
        <ele>1565.4</ele>
        <time>2024-09-25T13:14:37Z</time>
      </trkpt>
      <trkpt lat="42.37642" lon="2.2005">
        <ele>1565.4</ele>
        <time>2024-09-25T13:14:38Z</time>
      </trkpt>
      <trkpt lat="42.37643" lon="2.2005">
        <ele>1565.3</ele>
        <time>2024-09-25T13:14:39Z</time>
      </trkpt>
      <trkpt lat="42.37643" lon="2.20049">
        <ele>1565.3</ele>
        <time>2024-09-25T13:14:40Z</time>
      </trkpt>
      <trkpt lat="42.37644" lon="2.20049">
        <ele>1565.2</ele>
        <time>2024-09-25T13:14:41Z</time>
      </trkpt>
      <trkpt lat="42.37646" lon="2.20048">
        <ele>1565.1</ele>
        <time>2024-09-25T13:14:42Z</time>
      </trkpt>
      <trkpt lat="42.37647" lon="2.20048">
        <ele>1565</ele>
        <time>2024-09-25T13:14:43Z</time>
      </trkpt>
      <trkpt lat="42.37647" lon="2.20047">
        <ele>1565</ele>
        <time>2024-09-25T13:14:44Z</time>
      </trkpt>
      <trkpt lat="42.37649" lon="2.20047">
        <ele>1564.9</ele>
        <time>2024-09-25T13:14:45Z</time>
      </trkpt>
      <trkpt lat="42.3765" lon="2.20047">
        <ele>1564.9</ele>
        <time>2024-09-25T13:14:46Z</time>
      </trkpt>
      <trkpt lat="42.3765" lon="2.20047">
        <ele>1564.8</ele>
        <time>2024-09-25T13:14:47Z</time>
      </trkpt>
      <trkpt lat="42.37651" lon="2.20047">
        <ele>1564.8</ele>
        <time>2024-09-25T13:14:48Z</time>
      </trkpt>
      <trkpt lat="42.37652" lon="2.20047">
        <ele>1564.8</ele>
        <time>2024-09-25T13:14:49Z</time>
      </trkpt>
      <trkpt lat="42.37652" lon="2.20047">
        <ele>1564.8</ele>
        <time>2024-09-25T13:14:50Z</time>
      </trkpt>
      <trkpt lat="42.37652" lon="2.20047">
        <ele>1564.7</ele>
        <time>2024-09-25T13:14:51Z</time>
      </trkpt>
      <trkpt lat="42.37653" lon="2.20047">
        <ele>1564.7</ele>
        <time>2024-09-25T13:14:52Z</time>
      </trkpt>
      <trkpt lat="42.37653" lon="2.20046">
        <ele>1564.7</ele>
        <time>2024-09-25T13:14:53Z</time>
      </trkpt>
      <trkpt lat="42.37653" lon="2.20045">
        <ele>1564.7</ele>
        <time>2024-09-25T13:14:54Z</time>
      </trkpt>
      <trkpt lat="42.37653" lon="2.20044">
        <ele>1564.6</ele>
        <time>2024-09-25T13:14:55Z</time>
      </trkpt>
      <trkpt lat="42.37653" lon="2.20043">
        <ele>1564.6</ele>
        <time>2024-09-25T13:14:56Z</time>
      </trkpt>
      <trkpt lat="42.37653" lon="2.20042">
        <ele>1564.6</ele>
        <time>2024-09-25T13:14:57Z</time>
      </trkpt>
      <trkpt lat="42.37653" lon="2.20042">
        <ele>1564.6</ele>
        <time>2024-09-25T13:14:58Z</time>
      </trkpt>
      <trkpt lat="42.37654" lon="2.20041">
        <ele>1564.6</ele>
        <time>2024-09-25T13:14:59Z</time>
      </trkpt>
      <trkpt lat="42.37654" lon="2.20041">
        <ele>1564.6</ele>
        <time>2024-09-25T13:15:00Z</time>
      </trkpt>
      <trkpt lat="42.37655" lon="2.20041">
        <ele>1564.6</ele>
        <time>2024-09-25T13:15:01Z</time>
      </trkpt>
      <trkpt lat="42.37655" lon="2.20041">
        <ele>1564.6</ele>
        <time>2024-09-25T13:15:02Z</time>
      </trkpt>
      <trkpt lat="42.37655" lon="2.20041">
        <ele>1564.6</ele>
        <time>2024-09-25T13:15:03Z</time>
      </trkpt>
      <trkpt lat="42.37656" lon="2.2004">
        <ele>1564.6</ele>
        <time>2024-09-25T13:15:04Z</time>
      </trkpt>
      <trkpt lat="42.37656" lon="2.2004">
        <ele>1564.6</ele>
        <time>2024-09-25T13:15:05Z</time>
      </trkpt>
      <trkpt lat="42.37657" lon="2.20039">
        <ele>1564.6</ele>
        <time>2024-09-25T13:15:06Z</time>
      </trkpt>
      <trkpt lat="42.37657" lon="2.20039">
        <ele>1564.6</ele>
        <time>2024-09-25T13:15:07Z</time>
      </trkpt>
      <trkpt lat="42.37657" lon="2.20038">
        <ele>1564.6</ele>
        <time>2024-09-25T13:15:08Z</time>
      </trkpt>
      <trkpt lat="42.37658" lon="2.20038">
        <ele>1564.6</ele>
        <time>2024-09-25T13:15:09Z</time>
      </trkpt>
      <trkpt lat="42.37657" lon="2.20038">
        <ele>1564.6</ele>
        <time>2024-09-25T13:15:10Z</time>
      </trkpt>
      <trkpt lat="42.37658" lon="2.20038">
        <ele>1564.6</ele>
        <time>2024-09-25T13:15:11Z</time>
      </trkpt>
      <trkpt lat="42.37658" lon="2.20038">
        <ele>1564.6</ele>
        <time>2024-09-25T13:15:12Z</time>
      </trkpt>
      <trkpt lat="42.37658" lon="2.20037">
        <ele>1564.6</ele>
        <time>2024-09-25T13:15:13Z</time>
      </trkpt>
      <trkpt lat="42.37659" lon="2.20037">
        <ele>1564.6</ele>
        <time>2024-09-25T13:15:14Z</time>
      </trkpt>
      <trkpt lat="42.3766" lon="2.20036">
        <ele>1564.6</ele>
        <time>2024-09-25T13:15:15Z</time>
      </trkpt>
      <trkpt lat="42.3766" lon="2.20035">
        <ele>1564.6</ele>
        <time>2024-09-25T13:15:16Z</time>
      </trkpt>
      <trkpt lat="42.3766" lon="2.20035">
        <ele>1564.6</ele>
        <time>2024-09-25T13:15:17Z</time>
      </trkpt>
      <trkpt lat="42.3766" lon="2.20035">
        <ele>1564.6</ele>
        <time>2024-09-25T13:15:18Z</time>
      </trkpt>
      <trkpt lat="42.3766" lon="2.20034">
        <ele>1564.6</ele>
        <time>2024-09-25T13:15:19Z</time>
      </trkpt>
      <trkpt lat="42.37661" lon="2.20034">
        <ele>1564.6</ele>
        <time>2024-09-25T13:15:20Z</time>
      </trkpt>
      <trkpt lat="42.37661" lon="2.20033">
        <ele>1564.5</ele>
        <time>2024-09-25T13:15:21Z</time>
      </trkpt>
      <trkpt lat="42.37661" lon="2.20033">
        <ele>1564.5</ele>
        <time>2024-09-25T13:15:22Z</time>
      </trkpt>
      <trkpt lat="42.37661" lon="2.20032">
        <ele>1564.5</ele>
        <time>2024-09-25T13:15:23Z</time>
      </trkpt>
      <trkpt lat="42.37661" lon="2.20032">
        <ele>1564.5</ele>
        <time>2024-09-25T13:15:24Z</time>
      </trkpt>
      <trkpt lat="42.37661" lon="2.2003">
        <ele>1564.5</ele>
        <time>2024-09-25T13:15:25Z</time>
      </trkpt>
      <trkpt lat="42.37661" lon="2.20029">
        <ele>1564.4</ele>
        <time>2024-09-25T13:15:26Z</time>
      </trkpt>
      <trkpt lat="42.37661" lon="2.20027">
        <ele>1564.4</ele>
        <time>2024-09-25T13:15:27Z</time>
      </trkpt>
      <trkpt lat="42.37661" lon="2.20026">
        <ele>1564.3</ele>
        <time>2024-09-25T13:15:28Z</time>
      </trkpt>
      <trkpt lat="42.37661" lon="2.20026">
        <ele>1564.3</ele>
        <time>2024-09-25T13:15:29Z</time>
      </trkpt>
      <trkpt lat="42.37661" lon="2.20026">
        <ele>1564.3</ele>
        <time>2024-09-25T13:15:30Z</time>
      </trkpt>
      <trkpt lat="42.37662" lon="2.20025">
        <ele>1564.3</ele>
        <time>2024-09-25T13:15:31Z</time>
      </trkpt>
      <trkpt lat="42.37662" lon="2.20025">
        <ele>1564.3</ele>
        <time>2024-09-25T13:15:32Z</time>
      </trkpt>
      <trkpt lat="42.37663" lon="2.20024">
        <ele>1564.2</ele>
        <time>2024-09-25T13:15:33Z</time>
      </trkpt>
      <trkpt lat="42.37664" lon="2.20023">
        <ele>1564.2</ele>
        <time>2024-09-25T13:15:34Z</time>
      </trkpt>
      <trkpt lat="42.37664" lon="2.20022">
        <ele>1564.2</ele>
        <time>2024-09-25T13:15:35Z</time>
      </trkpt>
      <trkpt lat="42.37664" lon="2.20021">
        <ele>1564.1</ele>
        <time>2024-09-25T13:15:36Z</time>
      </trkpt>
      <trkpt lat="42.37664" lon="2.20019">
        <ele>1564.1</ele>
        <time>2024-09-25T13:15:37Z</time>
      </trkpt>
      <trkpt lat="42.37664" lon="2.20018">
        <ele>1564</ele>
        <time>2024-09-25T13:15:38Z</time>
      </trkpt>
      <trkpt lat="42.37664" lon="2.20017">
        <ele>1564</ele>
        <time>2024-09-25T13:15:39Z</time>
      </trkpt>
      <trkpt lat="42.37664" lon="2.20016">
        <ele>1564</ele>
        <time>2024-09-25T13:15:40Z</time>
      </trkpt>
      <trkpt lat="42.37664" lon="2.20015">
        <ele>1563.9</ele>
        <time>2024-09-25T13:15:41Z</time>
      </trkpt>
      <trkpt lat="42.37664" lon="2.20014">
        <ele>1563.9</ele>
        <time>2024-09-25T13:15:42Z</time>
      </trkpt>
      <trkpt lat="42.37664" lon="2.20013">
        <ele>1563.8</ele>
        <time>2024-09-25T13:15:43Z</time>
      </trkpt>
      <trkpt lat="42.37663" lon="2.20012">
        <ele>1563.8</ele>
        <time>2024-09-25T13:15:44Z</time>
      </trkpt>
      <trkpt lat="42.37663" lon="2.20011">
        <ele>1563.7</ele>
        <time>2024-09-25T13:15:45Z</time>
      </trkpt>
      <trkpt lat="42.37662" lon="2.20011">
        <ele>1563.7</ele>
        <time>2024-09-25T13:15:46Z</time>
      </trkpt>
      <trkpt lat="42.37661" lon="2.20011">
        <ele>1563.6</ele>
        <time>2024-09-25T13:15:47Z</time>
      </trkpt>
      <trkpt lat="42.3766" lon="2.20011">
        <ele>1563.6</ele>
        <time>2024-09-25T13:15:48Z</time>
      </trkpt>
      <trkpt lat="42.3766" lon="2.20011">
        <ele>1563.6</ele>
        <time>2024-09-25T13:15:49Z</time>
      </trkpt>
      <trkpt lat="42.3766" lon="2.20012">
        <ele>1563.5</ele>
        <time>2024-09-25T13:15:50Z</time>
      </trkpt>
      <trkpt lat="42.37659" lon="2.20012">
        <ele>1563.5</ele>
        <time>2024-09-25T13:15:51Z</time>
      </trkpt>
      <trkpt lat="42.37659" lon="2.20012">
        <ele>1563.5</ele>
        <time>2024-09-25T13:15:52Z</time>
      </trkpt>
      <trkpt lat="42.3766" lon="2.20011">
        <ele>1563.5</ele>
        <time>2024-09-25T13:15:53Z</time>
      </trkpt>
      <trkpt lat="42.3766" lon="2.20011">
        <ele>1563.4</ele>
        <time>2024-09-25T13:15:54Z</time>
      </trkpt>
      <trkpt lat="42.37661" lon="2.2001">
        <ele>1563.3</ele>
        <time>2024-09-25T13:15:55Z</time>
      </trkpt>
      <trkpt lat="42.37662" lon="2.20009">
        <ele>1563.3</ele>
        <time>2024-09-25T13:15:56Z</time>
      </trkpt>
      <trkpt lat="42.37662" lon="2.20009">
        <ele>1563.2</ele>
        <time>2024-09-25T13:15:57Z</time>
      </trkpt>
      <trkpt lat="42.37662" lon="2.20008">
        <ele>1563.2</ele>
        <time>2024-09-25T13:15:58Z</time>
      </trkpt>
      <trkpt lat="42.37662" lon="2.20008">
        <ele>1563.2</ele>
        <time>2024-09-25T13:15:59Z</time>
      </trkpt>
      <trkpt lat="42.37662" lon="2.20008">
        <ele>1563.1</ele>
        <time>2024-09-25T13:16:00Z</time>
      </trkpt>
      <trkpt lat="42.37661" lon="2.20008">
        <ele>1563.1</ele>
        <time>2024-09-25T13:16:01Z</time>
      </trkpt>
      <trkpt lat="42.37661" lon="2.20008">
        <ele>1563.1</ele>
        <time>2024-09-25T13:16:02Z</time>
      </trkpt>
      <trkpt lat="42.37661" lon="2.20008">
        <ele>1563.1</ele>
        <time>2024-09-25T13:16:03Z</time>
      </trkpt>
      <trkpt lat="42.37661" lon="2.20008">
        <ele>1563.1</ele>
        <time>2024-09-25T13:16:04Z</time>
      </trkpt>
      <trkpt lat="42.37661" lon="2.20009">
        <ele>1563.1</ele>
        <time>2024-09-25T13:16:05Z</time>
      </trkpt>
      <trkpt lat="42.37661" lon="2.20009">
        <ele>1563.1</ele>
        <time>2024-09-25T13:16:06Z</time>
      </trkpt>
      <trkpt lat="42.3766" lon="2.20009">
        <ele>1563</ele>
        <time>2024-09-25T13:16:07Z</time>
      </trkpt>
      <trkpt lat="42.3766" lon="2.20008">
        <ele>1563</ele>
        <time>2024-09-25T13:16:08Z</time>
      </trkpt>
      <trkpt lat="42.37659" lon="2.20008">
        <ele>1562.9</ele>
        <time>2024-09-25T13:16:09Z</time>
      </trkpt>
      <trkpt lat="42.37658" lon="2.20007">
        <ele>1562.8</ele>
        <time>2024-09-25T13:16:10Z</time>
      </trkpt>
      <trkpt lat="42.37658" lon="2.20007">
        <ele>1562.8</ele>
        <time>2024-09-25T13:16:11Z</time>
      </trkpt>
      <trkpt lat="42.37658" lon="2.20007">
        <ele>1562.8</ele>
        <time>2024-09-25T13:16:12Z</time>
      </trkpt>
      <trkpt lat="42.37658" lon="2.20007">
        <ele>1562.8</ele>
        <time>2024-09-25T13:16:13Z</time>
      </trkpt>
      <trkpt lat="42.37658" lon="2.20007">
        <ele>1562.8</ele>
        <time>2024-09-25T13:16:14Z</time>
      </trkpt>
      <trkpt lat="42.37658" lon="2.20007">
        <ele>1562.7</ele>
        <time>2024-09-25T13:16:15Z</time>
      </trkpt>
      <trkpt lat="42.37658" lon="2.20007">
        <ele>1562.7</ele>
        <time>2024-09-25T13:16:16Z</time>
      </trkpt>
      <trkpt lat="42.37658" lon="2.20007">
        <ele>1562.7</ele>
        <time>2024-09-25T13:16:17Z</time>
      </trkpt>
      <trkpt lat="42.37658" lon="2.20007">
        <ele>1562.7</ele>
        <time>2024-09-25T13:16:18Z</time>
      </trkpt>
      <trkpt lat="42.37658" lon="2.20007">
        <ele>1562.7</ele>
        <time>2024-09-25T13:16:19Z</time>
      </trkpt>
      <trkpt lat="42.37658" lon="2.20007">
        <ele>1562.7</ele>
        <time>2024-09-25T13:16:20Z</time>
      </trkpt>
      <trkpt lat="42.37657" lon="2.20007">
        <ele>1562.7</ele>
        <time>2024-09-25T13:16:21Z</time>
      </trkpt>
      <trkpt lat="42.37657" lon="2.20007">
        <ele>1562.7</ele>
        <time>2024-09-25T13:16:22Z</time>
      </trkpt>
      <trkpt lat="42.37657" lon="2.20007">
        <ele>1562.7</ele>
        <time>2024-09-25T13:16:23Z</time>
      </trkpt>
      <trkpt lat="42.37657" lon="2.20007">
        <ele>1562.7</ele>
        <time>2024-09-25T13:16:24Z</time>
      </trkpt>
      <trkpt lat="42.37657" lon="2.20007">
        <ele>1562.7</ele>
        <time>2024-09-25T13:16:25Z</time>
      </trkpt>
      <trkpt lat="42.37657" lon="2.20007">
        <ele>1562.7</ele>
        <time>2024-09-25T13:16:26Z</time>
      </trkpt>
      <trkpt lat="42.37657" lon="2.20007">
        <ele>1562.7</ele>
        <time>2024-09-25T13:16:27Z</time>
      </trkpt>
      <trkpt lat="42.37657" lon="2.20007">
        <ele>1562.7</ele>
        <time>2024-09-25T13:16:28Z</time>
      </trkpt>
      <trkpt lat="42.37657" lon="2.20007">
        <ele>1562.7</ele>
        <time>2024-09-25T13:16:29Z</time>
      </trkpt>
      <trkpt lat="42.37657" lon="2.20007">
        <ele>1562.7</ele>
        <time>2024-09-25T13:16:30Z</time>
      </trkpt>
      <trkpt lat="42.37657" lon="2.20007">
        <ele>1562.7</ele>
        <time>2024-09-25T13:16:31Z</time>
      </trkpt>
      <trkpt lat="42.37657" lon="2.20007">
        <ele>1562.7</ele>
        <time>2024-09-25T13:16:32Z</time>
      </trkpt>
      <trkpt lat="42.37657" lon="2.20007">
        <ele>1562.7</ele>
        <time>2024-09-25T13:16:33Z</time>
      </trkpt>
      <trkpt lat="42.37657" lon="2.20007">
        <ele>1562.7</ele>
        <time>2024-09-25T13:16:34Z</time>
      </trkpt>
      <trkpt lat="42.37657" lon="2.20007">
        <ele>1562.7</ele>
        <time>2024-09-25T13:16:35Z</time>
      </trkpt>
      <trkpt lat="42.37658" lon="2.20007">
        <ele>1562.7</ele>
        <time>2024-09-25T13:16:36Z</time>
      </trkpt>
      <trkpt lat="42.37658" lon="2.20008">
        <ele>1562.6</ele>
        <time>2024-09-25T13:16:37Z</time>
      </trkpt>
      <trkpt lat="42.37659" lon="2.20008">
        <ele>1562.6</ele>
        <time>2024-09-25T13:16:38Z</time>
      </trkpt>
      <trkpt lat="42.37659" lon="2.20008">
        <ele>1562.5</ele>
        <time>2024-09-25T13:16:39Z</time>
      </trkpt>
      <trkpt lat="42.37659" lon="2.20008">
        <ele>1562.5</ele>
        <time>2024-09-25T13:16:40Z</time>
      </trkpt>
      <trkpt lat="42.3766" lon="2.20007">
        <ele>1562.4</ele>
        <time>2024-09-25T13:16:41Z</time>
      </trkpt>
      <trkpt lat="42.3766" lon="2.20006">
        <ele>1562.3</ele>
        <time>2024-09-25T13:16:42Z</time>
      </trkpt>
      <trkpt lat="42.37661" lon="2.20005">
        <ele>1562.2</ele>
        <time>2024-09-25T13:16:43Z</time>
      </trkpt>
      <trkpt lat="42.37661" lon="2.20005">
        <ele>1562.2</ele>
        <time>2024-09-25T13:16:44Z</time>
      </trkpt>
      <trkpt lat="42.37661" lon="2.20005">
        <ele>1562.2</ele>
        <time>2024-09-25T13:16:45Z</time>
      </trkpt>
      <trkpt lat="42.3766" lon="2.20004">
        <ele>1562.1</ele>
        <time>2024-09-25T13:16:46Z</time>
      </trkpt>
      <trkpt lat="42.3766" lon="2.20003">
        <ele>1562</ele>
        <time>2024-09-25T13:16:47Z</time>
      </trkpt>
      <trkpt lat="42.37659" lon="2.20002">
        <ele>1561.9</ele>
        <time>2024-09-25T13:16:48Z</time>
      </trkpt>
      <trkpt lat="42.37659" lon="2.20002">
        <ele>1561.9</ele>
        <time>2024-09-25T13:16:49Z</time>
      </trkpt>
      <trkpt lat="42.37658" lon="2.20001">
        <ele>1561.8</ele>
        <time>2024-09-25T13:16:50Z</time>
      </trkpt>
      <trkpt lat="42.37658" lon="2.2">
        <ele>1561.7</ele>
        <time>2024-09-25T13:16:51Z</time>
      </trkpt>
      <trkpt lat="42.37657" lon="2.2">
        <ele>1561.6</ele>
        <time>2024-09-25T13:16:52Z</time>
      </trkpt>
      <trkpt lat="42.37657" lon="2.19999">
        <ele>1561.6</ele>
        <time>2024-09-25T13:16:53Z</time>
      </trkpt>
      <trkpt lat="42.37656" lon="2.19999">
        <ele>1561.6</ele>
        <time>2024-09-25T13:16:54Z</time>
      </trkpt>
      <trkpt lat="42.37656" lon="2.19999">
        <ele>1561.6</ele>
        <time>2024-09-25T13:16:55Z</time>
      </trkpt>
      <trkpt lat="42.37657" lon="2.19999">
        <ele>1561.5</ele>
        <time>2024-09-25T13:16:56Z</time>
      </trkpt>
      <trkpt lat="42.37657" lon="2.19999">
        <ele>1561.5</ele>
        <time>2024-09-25T13:16:57Z</time>
      </trkpt>
      <trkpt lat="42.37657" lon="2.20001">
        <ele>1561.4</ele>
        <time>2024-09-25T13:16:58Z</time>
      </trkpt>
      <trkpt lat="42.37657" lon="2.20002">
        <ele>1561.3</ele>
        <time>2024-09-25T13:16:59Z</time>
      </trkpt>
      <trkpt lat="42.37658" lon="2.20002">
        <ele>1561.2</ele>
        <time>2024-09-25T13:17:00Z</time>
      </trkpt>
      <trkpt lat="42.37658" lon="2.20003">
        <ele>1561.2</ele>
        <time>2024-09-25T13:17:01Z</time>
      </trkpt>
      <trkpt lat="42.37659" lon="2.20004">
        <ele>1561.1</ele>
        <time>2024-09-25T13:17:02Z</time>
      </trkpt>
      <trkpt lat="42.37659" lon="2.20005">
        <ele>1561</ele>
        <time>2024-09-25T13:17:03Z</time>
      </trkpt>
      <trkpt lat="42.37659" lon="2.20006">
        <ele>1560.9</ele>
        <time>2024-09-25T13:17:04Z</time>
      </trkpt>
      <trkpt lat="42.37659" lon="2.20006">
        <ele>1560.9</ele>
        <time>2024-09-25T13:17:05Z</time>
      </trkpt>
      <trkpt lat="42.3766" lon="2.20007">
        <ele>1560.8</ele>
        <time>2024-09-25T13:17:06Z</time>
      </trkpt>
      <trkpt lat="42.3766" lon="2.20008">
        <ele>1560.7</ele>
        <time>2024-09-25T13:17:07Z</time>
      </trkpt>
      <trkpt lat="42.37662" lon="2.20008">
        <ele>1560.6</ele>
        <time>2024-09-25T13:17:08Z</time>
      </trkpt>
      <trkpt lat="42.37663" lon="2.20008">
        <ele>1560.5</ele>
        <time>2024-09-25T13:17:09Z</time>
      </trkpt>
      <trkpt lat="42.37664" lon="2.20007">
        <ele>1560.4</ele>
        <time>2024-09-25T13:17:10Z</time>
      </trkpt>
      <trkpt lat="42.37665" lon="2.20006">
        <ele>1560.2</ele>
        <time>2024-09-25T13:17:11Z</time>
      </trkpt>
      <trkpt lat="42.37666" lon="2.20005">
        <ele>1560.1</ele>
        <time>2024-09-25T13:17:12Z</time>
      </trkpt>
      <trkpt lat="42.37666" lon="2.20003">
        <ele>1560</ele>
        <time>2024-09-25T13:17:13Z</time>
      </trkpt>
      <trkpt lat="42.37666" lon="2.20002">
        <ele>1559.9</ele>
        <time>2024-09-25T13:17:14Z</time>
      </trkpt>
      <trkpt lat="42.37666" lon="2.2">
        <ele>1559.8</ele>
        <time>2024-09-25T13:17:15Z</time>
      </trkpt>
      <trkpt lat="42.37666" lon="2.19997">
        <ele>1559.6</ele>
        <time>2024-09-25T13:17:16Z</time>
      </trkpt>
      <trkpt lat="42.37665" lon="2.19996">
        <ele>1559.5</ele>
        <time>2024-09-25T13:17:17Z</time>
      </trkpt>
      <trkpt lat="42.37665" lon="2.19995">
        <ele>1559.4</ele>
        <time>2024-09-25T13:17:18Z</time>
      </trkpt>
      <trkpt lat="42.37665" lon="2.19994">
        <ele>1559.3</ele>
        <time>2024-09-25T13:17:19Z</time>
      </trkpt>
      <trkpt lat="42.37665" lon="2.19992">
        <ele>1559.2</ele>
        <time>2024-09-25T13:17:20Z</time>
      </trkpt>
      <trkpt lat="42.37665" lon="2.1999">
        <ele>1559.1</ele>
        <time>2024-09-25T13:17:21Z</time>
      </trkpt>
      <trkpt lat="42.37665" lon="2.19989">
        <ele>1559</ele>
        <time>2024-09-25T13:17:22Z</time>
      </trkpt>
      <trkpt lat="42.37665" lon="2.19988">
        <ele>1558.9</ele>
        <time>2024-09-25T13:17:23Z</time>
      </trkpt>
      <trkpt lat="42.37665" lon="2.19986">
        <ele>1558.8</ele>
        <time>2024-09-25T13:17:24Z</time>
      </trkpt>
      <trkpt lat="42.37665" lon="2.19985">
        <ele>1558.7</ele>
        <time>2024-09-25T13:17:25Z</time>
      </trkpt>
      <trkpt lat="42.37665" lon="2.19984">
        <ele>1558.6</ele>
        <time>2024-09-25T13:17:26Z</time>
      </trkpt>
      <trkpt lat="42.37665" lon="2.19983">
        <ele>1558.5</ele>
        <time>2024-09-25T13:17:27Z</time>
      </trkpt>
      <trkpt lat="42.37665" lon="2.19982">
        <ele>1558.5</ele>
        <time>2024-09-25T13:17:28Z</time>
      </trkpt>
      <trkpt lat="42.37665" lon="2.19981">
        <ele>1558.4</ele>
        <time>2024-09-25T13:17:29Z</time>
      </trkpt>
      <trkpt lat="42.37665" lon="2.1998">
        <ele>1558.3</ele>
        <time>2024-09-25T13:17:30Z</time>
      </trkpt>
      <trkpt lat="42.37665" lon="2.19979">
        <ele>1558.3</ele>
        <time>2024-09-25T13:17:31Z</time>
      </trkpt>
      <trkpt lat="42.37666" lon="2.19978">
        <ele>1558.2</ele>
        <time>2024-09-25T13:17:32Z</time>
      </trkpt>
      <trkpt lat="42.37665" lon="2.19977">
        <ele>1558.1</ele>
        <time>2024-09-25T13:17:33Z</time>
      </trkpt>
      <trkpt lat="42.37665" lon="2.19975">
        <ele>1558.1</ele>
        <time>2024-09-25T13:17:34Z</time>
      </trkpt>
      <trkpt lat="42.37665" lon="2.19974">
        <ele>1558</ele>
        <time>2024-09-25T13:17:35Z</time>
      </trkpt>
      <trkpt lat="42.37663" lon="2.19973">
        <ele>1557.8</ele>
        <time>2024-09-25T13:17:36Z</time>
      </trkpt>
      <trkpt lat="42.37661" lon="2.19974">
        <ele>1557.6</ele>
        <time>2024-09-25T13:17:37Z</time>
      </trkpt>
      <trkpt lat="42.3766" lon="2.19975">
        <ele>1557.5</ele>
        <time>2024-09-25T13:17:38Z</time>
      </trkpt>
      <trkpt lat="42.37659" lon="2.19976">
        <ele>1557.5</ele>
        <time>2024-09-25T13:17:39Z</time>
      </trkpt>
      <trkpt lat="42.37659" lon="2.19976">
        <ele>1557.4</ele>
        <time>2024-09-25T13:17:40Z</time>
      </trkpt>
      <trkpt lat="42.37658" lon="2.19976">
        <ele>1557.3</ele>
        <time>2024-09-25T13:17:41Z</time>
      </trkpt>
      <trkpt lat="42.37657" lon="2.19977">
        <ele>1557.3</ele>
        <time>2024-09-25T13:17:42Z</time>
      </trkpt>
      <trkpt lat="42.37656" lon="2.19978">
        <ele>1557.2</ele>
        <time>2024-09-25T13:17:43Z</time>
      </trkpt>
      <trkpt lat="42.37655" lon="2.19979">
        <ele>1557.1</ele>
        <time>2024-09-25T13:17:44Z</time>
      </trkpt>
      <trkpt lat="42.37658" lon="2.19974">
        <ele>1556.7</ele>
        <time>2024-09-25T13:17:45Z</time>
      </trkpt>
      <trkpt lat="42.37662" lon="2.19968">
        <ele>1556.3</ele>
        <time>2024-09-25T13:17:46Z</time>
      </trkpt>
      <trkpt lat="42.37665" lon="2.1996">
        <ele>1555.8</ele>
        <time>2024-09-25T13:17:47Z</time>
      </trkpt>
      <trkpt lat="42.37665" lon="2.19958">
        <ele>1555.8</ele>
        <time>2024-09-25T13:17:48Z</time>
      </trkpt>
      <trkpt lat="42.37665" lon="2.19956">
        <ele>1555.6</ele>
        <time>2024-09-25T13:17:49Z</time>
      </trkpt>
      <trkpt lat="42.37664" lon="2.19954">
        <ele>1555.5</ele>
        <time>2024-09-25T13:17:50Z</time>
      </trkpt>
      <trkpt lat="42.37664" lon="2.19952">
        <ele>1555.5</ele>
        <time>2024-09-25T13:17:51Z</time>
      </trkpt>
      <trkpt lat="42.37664" lon="2.19951">
        <ele>1555.4</ele>
        <time>2024-09-25T13:17:52Z</time>
      </trkpt>
      <trkpt lat="42.37664" lon="2.1995">
        <ele>1555.4</ele>
        <time>2024-09-25T13:17:53Z</time>
      </trkpt>
      <trkpt lat="42.37663" lon="2.19948">
        <ele>1555.3</ele>
        <time>2024-09-25T13:17:54Z</time>
      </trkpt>
      <trkpt lat="42.37663" lon="2.19947">
        <ele>1555.2</ele>
        <time>2024-09-25T13:17:55Z</time>
      </trkpt>
      <trkpt lat="42.37663" lon="2.19946">
        <ele>1555.2</ele>
        <time>2024-09-25T13:17:56Z</time>
      </trkpt>
      <trkpt lat="42.37663" lon="2.19944">
        <ele>1555.1</ele>
        <time>2024-09-25T13:17:57Z</time>
      </trkpt>
      <trkpt lat="42.37663" lon="2.19943">
        <ele>1555</ele>
        <time>2024-09-25T13:17:58Z</time>
      </trkpt>
      <trkpt lat="42.37663" lon="2.19941">
        <ele>1555</ele>
        <time>2024-09-25T13:17:59Z</time>
      </trkpt>
      <trkpt lat="42.37663" lon="2.1994">
        <ele>1554.9</ele>
        <time>2024-09-25T13:18:00Z</time>
      </trkpt>
      <trkpt lat="42.37663" lon="2.19939">
        <ele>1554.9</ele>
        <time>2024-09-25T13:18:01Z</time>
      </trkpt>
      <trkpt lat="42.37663" lon="2.19938">
        <ele>1554.8</ele>
        <time>2024-09-25T13:18:02Z</time>
      </trkpt>
      <trkpt lat="42.37663" lon="2.19937">
        <ele>1554.7</ele>
        <time>2024-09-25T13:18:03Z</time>
      </trkpt>
      <trkpt lat="42.37662" lon="2.19936">
        <ele>1554.7</ele>
        <time>2024-09-25T13:18:04Z</time>
      </trkpt>
      <trkpt lat="42.37662" lon="2.19935">
        <ele>1554.6</ele>
        <time>2024-09-25T13:18:05Z</time>
      </trkpt>
      <trkpt lat="42.37662" lon="2.19933">
        <ele>1554.6</ele>
        <time>2024-09-25T13:18:06Z</time>
      </trkpt>
      <trkpt lat="42.37662" lon="2.19932">
        <ele>1554.5</ele>
        <time>2024-09-25T13:18:07Z</time>
      </trkpt>
      <trkpt lat="42.37662" lon="2.19931">
        <ele>1554.4</ele>
        <time>2024-09-25T13:18:08Z</time>
      </trkpt>
      <trkpt lat="42.37662" lon="2.19929">
        <ele>1554.3</ele>
        <time>2024-09-25T13:18:09Z</time>
      </trkpt>
      <trkpt lat="42.37662" lon="2.19928">
        <ele>1554.2</ele>
        <time>2024-09-25T13:18:10Z</time>
      </trkpt>
      <trkpt lat="42.37662" lon="2.19927">
        <ele>1554.2</ele>
        <time>2024-09-25T13:18:11Z</time>
      </trkpt>
      <trkpt lat="42.37662" lon="2.19925">
        <ele>1554.1</ele>
        <time>2024-09-25T13:18:12Z</time>
      </trkpt>
      <trkpt lat="42.37662" lon="2.19924">
        <ele>1554</ele>
        <time>2024-09-25T13:18:13Z</time>
      </trkpt>
      <trkpt lat="42.37662" lon="2.19923">
        <ele>1553.9</ele>
        <time>2024-09-25T13:18:14Z</time>
      </trkpt>
      <trkpt lat="42.37662" lon="2.19922">
        <ele>1553.8</ele>
        <time>2024-09-25T13:18:15Z</time>
      </trkpt>
      <trkpt lat="42.37662" lon="2.1992">
        <ele>1553.8</ele>
        <time>2024-09-25T13:18:16Z</time>
      </trkpt>
      <trkpt lat="42.37661" lon="2.19919">
        <ele>1553.7</ele>
        <time>2024-09-25T13:18:17Z</time>
      </trkpt>
      <trkpt lat="42.37661" lon="2.19917">
        <ele>1553.5</ele>
        <time>2024-09-25T13:18:18Z</time>
      </trkpt>
      <trkpt lat="42.37661" lon="2.19916">
        <ele>1553.5</ele>
        <time>2024-09-25T13:18:19Z</time>
      </trkpt>
      <trkpt lat="42.37661" lon="2.19915">
        <ele>1553.4</ele>
        <time>2024-09-25T13:18:20Z</time>
      </trkpt>
      <trkpt lat="42.37661" lon="2.19914">
        <ele>1553.3</ele>
        <time>2024-09-25T13:18:21Z</time>
      </trkpt>
      <trkpt lat="42.37661" lon="2.19913">
        <ele>1553.3</ele>
        <time>2024-09-25T13:18:22Z</time>
      </trkpt>
      <trkpt lat="42.37661" lon="2.19912">
        <ele>1553.2</ele>
        <time>2024-09-25T13:18:23Z</time>
      </trkpt>
      <trkpt lat="42.37661" lon="2.19911">
        <ele>1553.1</ele>
        <time>2024-09-25T13:18:24Z</time>
      </trkpt>
      <trkpt lat="42.37661" lon="2.1991">
        <ele>1553.1</ele>
        <time>2024-09-25T13:18:25Z</time>
      </trkpt>
      <trkpt lat="42.37661" lon="2.19909">
        <ele>1553</ele>
        <time>2024-09-25T13:18:26Z</time>
      </trkpt>
      <trkpt lat="42.3766" lon="2.19908">
        <ele>1552.9</ele>
        <time>2024-09-25T13:18:27Z</time>
      </trkpt>
      <trkpt lat="42.3766" lon="2.19907">
        <ele>1552.8</ele>
        <time>2024-09-25T13:18:28Z</time>
      </trkpt>
      <trkpt lat="42.3766" lon="2.19906">
        <ele>1552.8</ele>
        <time>2024-09-25T13:18:29Z</time>
      </trkpt>
      <trkpt lat="42.3766" lon="2.19906">
        <ele>1552.8</ele>
        <time>2024-09-25T13:18:30Z</time>
      </trkpt>
      <trkpt lat="42.37659" lon="2.19906">
        <ele>1552.7</ele>
        <time>2024-09-25T13:18:31Z</time>
      </trkpt>
      <trkpt lat="42.37659" lon="2.19904">
        <ele>1552.6</ele>
        <time>2024-09-25T13:18:32Z</time>
      </trkpt>
      <trkpt lat="42.37659" lon="2.19902">
        <ele>1552.5</ele>
        <time>2024-09-25T13:18:33Z</time>
      </trkpt>
      <trkpt lat="42.37659" lon="2.19901">
        <ele>1552.5</ele>
        <time>2024-09-25T13:18:34Z</time>
      </trkpt>
      <trkpt lat="42.37658" lon="2.199">
        <ele>1552.4</ele>
        <time>2024-09-25T13:18:35Z</time>
      </trkpt>
      <trkpt lat="42.37657" lon="2.19899">
        <ele>1552.3</ele>
        <time>2024-09-25T13:18:36Z</time>
      </trkpt>
      <trkpt lat="42.37656" lon="2.19897">
        <ele>1552.1</ele>
        <time>2024-09-25T13:18:37Z</time>
      </trkpt>
      <trkpt lat="42.37655" lon="2.19896">
        <ele>1552.1</ele>
        <time>2024-09-25T13:18:38Z</time>
      </trkpt>
      <trkpt lat="42.37655" lon="2.19896">
        <ele>1552</ele>
        <time>2024-09-25T13:18:39Z</time>
      </trkpt>
      <trkpt lat="42.37654" lon="2.19895">
        <ele>1551.9</ele>
        <time>2024-09-25T13:18:40Z</time>
      </trkpt>
      <trkpt lat="42.37654" lon="2.19894">
        <ele>1551.9</ele>
        <time>2024-09-25T13:18:41Z</time>
      </trkpt>
      <trkpt lat="42.37653" lon="2.19893">
        <ele>1551.8</ele>
        <time>2024-09-25T13:18:42Z</time>
      </trkpt>
      <trkpt lat="42.37653" lon="2.19893">
        <ele>1551.8</ele>
        <time>2024-09-25T13:18:43Z</time>
      </trkpt>
      <trkpt lat="42.37653" lon="2.19893">
        <ele>1551.8</ele>
        <time>2024-09-25T13:18:44Z</time>
      </trkpt>
      <trkpt lat="42.37653" lon="2.19894">
        <ele>1551.7</ele>
        <time>2024-09-25T13:18:45Z</time>
      </trkpt>
      <trkpt lat="42.37653" lon="2.19894">
        <ele>1551.7</ele>
        <time>2024-09-25T13:18:46Z</time>
      </trkpt>
      <trkpt lat="42.37654" lon="2.19894">
        <ele>1551.7</ele>
        <time>2024-09-25T13:18:47Z</time>
      </trkpt>
      <trkpt lat="42.37654" lon="2.19894">
        <ele>1551.7</ele>
        <time>2024-09-25T13:18:48Z</time>
      </trkpt>
      <trkpt lat="42.37654" lon="2.19894">
        <ele>1551.7</ele>
        <time>2024-09-25T13:18:49Z</time>
      </trkpt>
      <trkpt lat="42.37654" lon="2.19894">
        <ele>1551.7</ele>
        <time>2024-09-25T13:18:50Z</time>
      </trkpt>
      <trkpt lat="42.37654" lon="2.19894">
        <ele>1551.7</ele>
        <time>2024-09-25T13:18:51Z</time>
      </trkpt>
      <trkpt lat="42.37654" lon="2.19894">
        <ele>1551.7</ele>
        <time>2024-09-25T13:18:52Z</time>
      </trkpt>
      <trkpt lat="42.37654" lon="2.19893">
        <ele>1551.6</ele>
        <time>2024-09-25T13:18:53Z</time>
      </trkpt>
      <trkpt lat="42.37654" lon="2.19893">
        <ele>1551.6</ele>
        <time>2024-09-25T13:18:54Z</time>
      </trkpt>
      <trkpt lat="42.37654" lon="2.19891">
        <ele>1551.6</ele>
        <time>2024-09-25T13:18:55Z</time>
      </trkpt>
      <trkpt lat="42.37653" lon="2.1989">
        <ele>1551.5</ele>
        <time>2024-09-25T13:18:56Z</time>
      </trkpt>
      <trkpt lat="42.37653" lon="2.19889">
        <ele>1551.4</ele>
        <time>2024-09-25T13:18:57Z</time>
      </trkpt>
      <trkpt lat="42.37652" lon="2.19887">
        <ele>1551.3</ele>
        <time>2024-09-25T13:18:58Z</time>
      </trkpt>
      <trkpt lat="42.37651" lon="2.19885">
        <ele>1551.3</ele>
        <time>2024-09-25T13:18:59Z</time>
      </trkpt>
      <trkpt lat="42.37651" lon="2.19883">
        <ele>1551.2</ele>
        <time>2024-09-25T13:19:00Z</time>
      </trkpt>
      <trkpt lat="42.3765" lon="2.19882">
        <ele>1551.1</ele>
        <time>2024-09-25T13:19:01Z</time>
      </trkpt>
      <trkpt lat="42.3765" lon="2.19881">
        <ele>1551.1</ele>
        <time>2024-09-25T13:19:02Z</time>
      </trkpt>
      <trkpt lat="42.37649" lon="2.19879">
        <ele>1551</ele>
        <time>2024-09-25T13:19:03Z</time>
      </trkpt>
      <trkpt lat="42.37649" lon="2.19878">
        <ele>1551</ele>
        <time>2024-09-25T13:19:04Z</time>
      </trkpt>
      <trkpt lat="42.37648" lon="2.19877">
        <ele>1550.9</ele>
        <time>2024-09-25T13:19:05Z</time>
      </trkpt>
      <trkpt lat="42.37648" lon="2.19875">
        <ele>1550.9</ele>
        <time>2024-09-25T13:19:06Z</time>
      </trkpt>
      <trkpt lat="42.37649" lon="2.19873">
        <ele>1550.9</ele>
        <time>2024-09-25T13:19:07Z</time>
      </trkpt>
      <trkpt lat="42.37649" lon="2.19871">
        <ele>1550.8</ele>
        <time>2024-09-25T13:19:08Z</time>
      </trkpt>
      <trkpt lat="42.37649" lon="2.1987">
        <ele>1550.8</ele>
        <time>2024-09-25T13:19:09Z</time>
      </trkpt>
      <trkpt lat="42.37649" lon="2.19868">
        <ele>1550.8</ele>
        <time>2024-09-25T13:19:10Z</time>
      </trkpt>
      <trkpt lat="42.37648" lon="2.19867">
        <ele>1550.7</ele>
        <time>2024-09-25T13:19:11Z</time>
      </trkpt>
      <trkpt lat="42.37648" lon="2.19866">
        <ele>1550.7</ele>
        <time>2024-09-25T13:19:12Z</time>
      </trkpt>
      <trkpt lat="42.37648" lon="2.19865">
        <ele>1550.7</ele>
        <time>2024-09-25T13:19:13Z</time>
      </trkpt>
      <trkpt lat="42.37647" lon="2.19864">
        <ele>1550.7</ele>
        <time>2024-09-25T13:19:14Z</time>
      </trkpt>
      <trkpt lat="42.37646" lon="2.19864">
        <ele>1550.7</ele>
        <time>2024-09-25T13:19:15Z</time>
      </trkpt>
      <trkpt lat="42.37645" lon="2.19863">
        <ele>1550.6</ele>
        <time>2024-09-25T13:19:16Z</time>
      </trkpt>
      <trkpt lat="42.37645" lon="2.19862">
        <ele>1550.6</ele>
        <time>2024-09-25T13:19:17Z</time>
      </trkpt>
      <trkpt lat="42.37644" lon="2.19861">
        <ele>1550.6</ele>
        <time>2024-09-25T13:19:18Z</time>
      </trkpt>
      <trkpt lat="42.37644" lon="2.1986">
        <ele>1550.6</ele>
        <time>2024-09-25T13:19:19Z</time>
      </trkpt>
      <trkpt lat="42.37644" lon="2.19858">
        <ele>1550.6</ele>
        <time>2024-09-25T13:19:20Z</time>
      </trkpt>
      <trkpt lat="42.37644" lon="2.19856">
        <ele>1550.6</ele>
        <time>2024-09-25T13:19:21Z</time>
      </trkpt>
      <trkpt lat="42.37644" lon="2.19855">
        <ele>1550.6</ele>
        <time>2024-09-25T13:19:22Z</time>
      </trkpt>
      <trkpt lat="42.37644" lon="2.19854">
        <ele>1550.6</ele>
        <time>2024-09-25T13:19:23Z</time>
      </trkpt>
      <trkpt lat="42.37644" lon="2.19852">
        <ele>1550.6</ele>
        <time>2024-09-25T13:19:24Z</time>
      </trkpt>
      <trkpt lat="42.37644" lon="2.19851">
        <ele>1550.6</ele>
        <time>2024-09-25T13:19:25Z</time>
      </trkpt>
      <trkpt lat="42.37644" lon="2.1985">
        <ele>1550.6</ele>
        <time>2024-09-25T13:19:26Z</time>
      </trkpt>
      <trkpt lat="42.37643" lon="2.19849">
        <ele>1550.6</ele>
        <time>2024-09-25T13:19:27Z</time>
      </trkpt>
      <trkpt lat="42.37643" lon="2.19848">
        <ele>1550.6</ele>
        <time>2024-09-25T13:19:28Z</time>
      </trkpt>
      <trkpt lat="42.37643" lon="2.19846">
        <ele>1550.7</ele>
        <time>2024-09-25T13:19:29Z</time>
      </trkpt>
      <trkpt lat="42.37643" lon="2.19845">
        <ele>1550.7</ele>
        <time>2024-09-25T13:19:30Z</time>
      </trkpt>
      <trkpt lat="42.37643" lon="2.19844">
        <ele>1550.7</ele>
        <time>2024-09-25T13:19:31Z</time>
      </trkpt>
      <trkpt lat="42.37643" lon="2.19843">
        <ele>1550.7</ele>
        <time>2024-09-25T13:19:32Z</time>
      </trkpt>
      <trkpt lat="42.37643" lon="2.19842">
        <ele>1550.7</ele>
        <time>2024-09-25T13:19:33Z</time>
      </trkpt>
      <trkpt lat="42.37643" lon="2.19841">
        <ele>1550.7</ele>
        <time>2024-09-25T13:19:34Z</time>
      </trkpt>
      <trkpt lat="42.37643" lon="2.1984">
        <ele>1550.7</ele>
        <time>2024-09-25T13:19:35Z</time>
      </trkpt>
      <trkpt lat="42.37642" lon="2.19839">
        <ele>1550.7</ele>
        <time>2024-09-25T13:19:36Z</time>
      </trkpt>
      <trkpt lat="42.37641" lon="2.1984">
        <ele>1550.7</ele>
        <time>2024-09-25T13:19:37Z</time>
      </trkpt>
      <trkpt lat="42.3764" lon="2.19841">
        <ele>1550.8</ele>
        <time>2024-09-25T13:19:38Z</time>
      </trkpt>
      <trkpt lat="42.37638" lon="2.1984">
        <ele>1550.8</ele>
        <time>2024-09-25T13:19:39Z</time>
      </trkpt>
      <trkpt lat="42.37636" lon="2.19838">
        <ele>1550.8</ele>
        <time>2024-09-25T13:19:40Z</time>
      </trkpt>
      <trkpt lat="42.37635" lon="2.19836">
        <ele>1550.7</ele>
        <time>2024-09-25T13:19:41Z</time>
      </trkpt>
      <trkpt lat="42.37635" lon="2.19835">
        <ele>1550.7</ele>
        <time>2024-09-25T13:19:42Z</time>
      </trkpt>
      <trkpt lat="42.37634" lon="2.19834">
        <ele>1550.7</ele>
        <time>2024-09-25T13:19:43Z</time>
      </trkpt>
      <trkpt lat="42.37634" lon="2.19832">
        <ele>1550.7</ele>
        <time>2024-09-25T13:19:44Z</time>
      </trkpt>
      <trkpt lat="42.37634" lon="2.19831">
        <ele>1550.7</ele>
        <time>2024-09-25T13:19:45Z</time>
      </trkpt>
      <trkpt lat="42.37634" lon="2.1983">
        <ele>1550.6</ele>
        <time>2024-09-25T13:19:46Z</time>
      </trkpt>
      <trkpt lat="42.37634" lon="2.19829">
        <ele>1550.6</ele>
        <time>2024-09-25T13:19:47Z</time>
      </trkpt>
      <trkpt lat="42.37633" lon="2.19828">
        <ele>1550.6</ele>
        <time>2024-09-25T13:19:48Z</time>
      </trkpt>
      <trkpt lat="42.37633" lon="2.19827">
        <ele>1550.5</ele>
        <time>2024-09-25T13:19:49Z</time>
      </trkpt>
      <trkpt lat="42.37633" lon="2.19826">
        <ele>1550.5</ele>
        <time>2024-09-25T13:19:50Z</time>
      </trkpt>
      <trkpt lat="42.37634" lon="2.19825">
        <ele>1550.5</ele>
        <time>2024-09-25T13:19:51Z</time>
      </trkpt>
      <trkpt lat="42.37633" lon="2.19824">
        <ele>1550.4</ele>
        <time>2024-09-25T13:19:52Z</time>
      </trkpt>
      <trkpt lat="42.37634" lon="2.19823">
        <ele>1550.4</ele>
        <time>2024-09-25T13:19:53Z</time>
      </trkpt>
      <trkpt lat="42.37634" lon="2.19822">
        <ele>1550.3</ele>
        <time>2024-09-25T13:19:54Z</time>
      </trkpt>
      <trkpt lat="42.37634" lon="2.19821">
        <ele>1550.3</ele>
        <time>2024-09-25T13:19:55Z</time>
      </trkpt>
      <trkpt lat="42.37634" lon="2.1982">
        <ele>1550.2</ele>
        <time>2024-09-25T13:19:56Z</time>
      </trkpt>
      <trkpt lat="42.37634" lon="2.19819">
        <ele>1550.2</ele>
        <time>2024-09-25T13:19:57Z</time>
      </trkpt>
      <trkpt lat="42.37634" lon="2.19819">
        <ele>1550.1</ele>
        <time>2024-09-25T13:19:58Z</time>
      </trkpt>
      <trkpt lat="42.37634" lon="2.19818">
        <ele>1550.1</ele>
        <time>2024-09-25T13:19:59Z</time>
      </trkpt>
      <trkpt lat="42.37633" lon="2.19817">
        <ele>1550</ele>
        <time>2024-09-25T13:20:00Z</time>
      </trkpt>
      <trkpt lat="42.37634" lon="2.19817">
        <ele>1550</ele>
        <time>2024-09-25T13:20:01Z</time>
      </trkpt>
      <trkpt lat="42.37634" lon="2.19816">
        <ele>1550</ele>
        <time>2024-09-25T13:20:02Z</time>
      </trkpt>
      <trkpt lat="42.37634" lon="2.19816">
        <ele>1549.9</ele>
        <time>2024-09-25T13:20:03Z</time>
      </trkpt>
      <trkpt lat="42.37635" lon="2.19816">
        <ele>1549.9</ele>
        <time>2024-09-25T13:20:04Z</time>
      </trkpt>
      <trkpt lat="42.37635" lon="2.19815">
        <ele>1549.8</ele>
        <time>2024-09-25T13:20:05Z</time>
      </trkpt>
      <trkpt lat="42.37635" lon="2.19814">
        <ele>1549.8</ele>
        <time>2024-09-25T13:20:06Z</time>
      </trkpt>
      <trkpt lat="42.37635" lon="2.19813">
        <ele>1549.7</ele>
        <time>2024-09-25T13:20:07Z</time>
      </trkpt>
      <trkpt lat="42.37635" lon="2.19812">
        <ele>1549.6</ele>
        <time>2024-09-25T13:20:08Z</time>
      </trkpt>
      <trkpt lat="42.37635" lon="2.19811">
        <ele>1549.6</ele>
        <time>2024-09-25T13:20:09Z</time>
      </trkpt>
      <trkpt lat="42.37635" lon="2.1981">
        <ele>1549.5</ele>
        <time>2024-09-25T13:20:10Z</time>
      </trkpt>
      <trkpt lat="42.37635" lon="2.19808">
        <ele>1549.4</ele>
        <time>2024-09-25T13:20:11Z</time>
      </trkpt>
      <trkpt lat="42.37636" lon="2.19807">
        <ele>1549.2</ele>
        <time>2024-09-25T13:20:12Z</time>
      </trkpt>
      <trkpt lat="42.37637" lon="2.19806">
        <ele>1549.1</ele>
        <time>2024-09-25T13:20:13Z</time>
      </trkpt>
      <trkpt lat="42.37637" lon="2.19806">
        <ele>1549.1</ele>
        <time>2024-09-25T13:20:14Z</time>
      </trkpt>
      <trkpt lat="42.37638" lon="2.19806">
        <ele>1549</ele>
        <time>2024-09-25T13:20:15Z</time>
      </trkpt>
      <trkpt lat="42.37639" lon="2.19805">
        <ele>1548.9</ele>
        <time>2024-09-25T13:20:16Z</time>
      </trkpt>
      <trkpt lat="42.37639" lon="2.19804">
        <ele>1548.8</ele>
        <time>2024-09-25T13:20:17Z</time>
      </trkpt>
      <trkpt lat="42.3764" lon="2.19803">
        <ele>1548.7</ele>
        <time>2024-09-25T13:20:18Z</time>
      </trkpt>
      <trkpt lat="42.3764" lon="2.19802">
        <ele>1548.6</ele>
        <time>2024-09-25T13:20:19Z</time>
      </trkpt>
      <trkpt lat="42.37641" lon="2.198">
        <ele>1548.5</ele>
        <time>2024-09-25T13:20:20Z</time>
      </trkpt>
      <trkpt lat="42.37641" lon="2.19799">
        <ele>1548.4</ele>
        <time>2024-09-25T13:20:21Z</time>
      </trkpt>
      <trkpt lat="42.37641" lon="2.19798">
        <ele>1548.3</ele>
        <time>2024-09-25T13:20:22Z</time>
      </trkpt>
      <trkpt lat="42.37641" lon="2.19797">
        <ele>1548.2</ele>
        <time>2024-09-25T13:20:23Z</time>
      </trkpt>
      <trkpt lat="42.37641" lon="2.19796">
        <ele>1548.1</ele>
        <time>2024-09-25T13:20:24Z</time>
      </trkpt>
      <trkpt lat="42.37641" lon="2.19794">
        <ele>1548</ele>
        <time>2024-09-25T13:20:25Z</time>
      </trkpt>
      <trkpt lat="42.3764" lon="2.19793">
        <ele>1547.9</ele>
        <time>2024-09-25T13:20:26Z</time>
      </trkpt>
      <trkpt lat="42.3764" lon="2.19792">
        <ele>1547.9</ele>
        <time>2024-09-25T13:20:27Z</time>
      </trkpt>
      <trkpt lat="42.37639" lon="2.19791">
        <ele>1547.7</ele>
        <time>2024-09-25T13:20:28Z</time>
      </trkpt>
      <trkpt lat="42.37639" lon="2.19789">
        <ele>1547.6</ele>
        <time>2024-09-25T13:20:29Z</time>
      </trkpt>
      <trkpt lat="42.3764" lon="2.19788">
        <ele>1547.5</ele>
        <time>2024-09-25T13:20:30Z</time>
      </trkpt>
      <trkpt lat="42.37639" lon="2.19787">
        <ele>1547.4</ele>
        <time>2024-09-25T13:20:31Z</time>
      </trkpt>
      <trkpt lat="42.37639" lon="2.19786">
        <ele>1547.4</ele>
        <time>2024-09-25T13:20:32Z</time>
      </trkpt>
      <trkpt lat="42.37639" lon="2.19785">
        <ele>1547.3</ele>
        <time>2024-09-25T13:20:33Z</time>
      </trkpt>
      <trkpt lat="42.37639" lon="2.19784">
        <ele>1547.2</ele>
        <time>2024-09-25T13:20:34Z</time>
      </trkpt>
      <trkpt lat="42.37639" lon="2.19783">
        <ele>1547.1</ele>
        <time>2024-09-25T13:20:35Z</time>
      </trkpt>
      <trkpt lat="42.37639" lon="2.19782">
        <ele>1547</ele>
        <time>2024-09-25T13:20:36Z</time>
      </trkpt>
      <trkpt lat="42.37639" lon="2.1978">
        <ele>1546.9</ele>
        <time>2024-09-25T13:20:37Z</time>
      </trkpt>
      <trkpt lat="42.37639" lon="2.19779">
        <ele>1546.9</ele>
        <time>2024-09-25T13:20:38Z</time>
      </trkpt>
      <trkpt lat="42.37639" lon="2.19779">
        <ele>1546.8</ele>
        <time>2024-09-25T13:20:39Z</time>
      </trkpt>
      <trkpt lat="42.37639" lon="2.19778">
        <ele>1546.8</ele>
        <time>2024-09-25T13:20:40Z</time>
      </trkpt>
      <trkpt lat="42.37639" lon="2.19778">
        <ele>1546.7</ele>
        <time>2024-09-25T13:20:41Z</time>
      </trkpt>
      <trkpt lat="42.37639" lon="2.19777">
        <ele>1546.7</ele>
        <time>2024-09-25T13:20:42Z</time>
      </trkpt>
      <trkpt lat="42.37639" lon="2.19776">
        <ele>1546.6</ele>
        <time>2024-09-25T13:20:43Z</time>
      </trkpt>
      <trkpt lat="42.37639" lon="2.19776">
        <ele>1546.6</ele>
        <time>2024-09-25T13:20:44Z</time>
      </trkpt>
      <trkpt lat="42.37639" lon="2.19775">
        <ele>1546.5</ele>
        <time>2024-09-25T13:20:45Z</time>
      </trkpt>
      <trkpt lat="42.37639" lon="2.19775">
        <ele>1546.5</ele>
        <time>2024-09-25T13:20:46Z</time>
      </trkpt>
      <trkpt lat="42.37639" lon="2.19774">
        <ele>1546.4</ele>
        <time>2024-09-25T13:20:47Z</time>
      </trkpt>
      <trkpt lat="42.37639" lon="2.19773">
        <ele>1546.3</ele>
        <time>2024-09-25T13:20:48Z</time>
      </trkpt>
      <trkpt lat="42.37639" lon="2.19772">
        <ele>1546.3</ele>
        <time>2024-09-25T13:20:49Z</time>
      </trkpt>
      <trkpt lat="42.37638" lon="2.19772">
        <ele>1546.2</ele>
        <time>2024-09-25T13:20:50Z</time>
      </trkpt>
      <trkpt lat="42.37638" lon="2.19772">
        <ele>1546.2</ele>
        <time>2024-09-25T13:20:51Z</time>
      </trkpt>
      <trkpt lat="42.37639" lon="2.1977">
        <ele>1546.1</ele>
        <time>2024-09-25T13:20:52Z</time>
      </trkpt>
      <trkpt lat="42.37639" lon="2.19769">
        <ele>1546</ele>
        <time>2024-09-25T13:20:53Z</time>
      </trkpt>
      <trkpt lat="42.37639" lon="2.19768">
        <ele>1545.9</ele>
        <time>2024-09-25T13:20:54Z</time>
      </trkpt>
      <trkpt lat="42.3764" lon="2.19767">
        <ele>1545.8</ele>
        <time>2024-09-25T13:20:55Z</time>
      </trkpt>
      <trkpt lat="42.37641" lon="2.19763">
        <ele>1545.6</ele>
        <time>2024-09-25T13:20:56Z</time>
      </trkpt>
      <trkpt lat="42.37641" lon="2.19762">
        <ele>1545.5</ele>
        <time>2024-09-25T13:20:57Z</time>
      </trkpt>
      <trkpt lat="42.37641" lon="2.19759">
        <ele>1545.4</ele>
        <time>2024-09-25T13:20:58Z</time>
      </trkpt>
      <trkpt lat="42.37641" lon="2.19758">
        <ele>1545.3</ele>
        <time>2024-09-25T13:20:59Z</time>
      </trkpt>
      <trkpt lat="42.37641" lon="2.19757">
        <ele>1545.2</ele>
        <time>2024-09-25T13:21:00Z</time>
      </trkpt>
      <trkpt lat="42.3764" lon="2.19755">
        <ele>1545.2</ele>
        <time>2024-09-25T13:21:01Z</time>
      </trkpt>
      <trkpt lat="42.3764" lon="2.19754">
        <ele>1545.1</ele>
        <time>2024-09-25T13:21:02Z</time>
      </trkpt>
      <trkpt lat="42.37639" lon="2.19754">
        <ele>1545</ele>
        <time>2024-09-25T13:21:03Z</time>
      </trkpt>
      <trkpt lat="42.37639" lon="2.19753">
        <ele>1545</ele>
        <time>2024-09-25T13:21:04Z</time>
      </trkpt>
      <trkpt lat="42.37638" lon="2.19752">
        <ele>1544.9</ele>
        <time>2024-09-25T13:21:05Z</time>
      </trkpt>
      <trkpt lat="42.37637" lon="2.19751">
        <ele>1544.8</ele>
        <time>2024-09-25T13:21:06Z</time>
      </trkpt>
      <trkpt lat="42.37637" lon="2.1975">
        <ele>1544.7</ele>
        <time>2024-09-25T13:21:07Z</time>
      </trkpt>
      <trkpt lat="42.37637" lon="2.19749">
        <ele>1544.7</ele>
        <time>2024-09-25T13:21:08Z</time>
      </trkpt>
      <trkpt lat="42.37637" lon="2.19748">
        <ele>1544.6</ele>
        <time>2024-09-25T13:21:09Z</time>
      </trkpt>
      <trkpt lat="42.37637" lon="2.19748">
        <ele>1544.6</ele>
        <time>2024-09-25T13:21:10Z</time>
      </trkpt>
      <trkpt lat="42.37637" lon="2.19747">
        <ele>1544.6</ele>
        <time>2024-09-25T13:21:11Z</time>
      </trkpt>
      <trkpt lat="42.37637" lon="2.19746">
        <ele>1544.5</ele>
        <time>2024-09-25T13:21:12Z</time>
      </trkpt>
      <trkpt lat="42.37637" lon="2.19746">
        <ele>1544.5</ele>
        <time>2024-09-25T13:21:13Z</time>
      </trkpt>
      <trkpt lat="42.37637" lon="2.19745">
        <ele>1544.4</ele>
        <time>2024-09-25T13:21:14Z</time>
      </trkpt>
      <trkpt lat="42.37637" lon="2.19744">
        <ele>1544.4</ele>
        <time>2024-09-25T13:21:15Z</time>
      </trkpt>
      <trkpt lat="42.37637" lon="2.19743">
        <ele>1544.3</ele>
        <time>2024-09-25T13:21:16Z</time>
      </trkpt>
      <trkpt lat="42.37637" lon="2.19742">
        <ele>1544.3</ele>
        <time>2024-09-25T13:21:17Z</time>
      </trkpt>
      <trkpt lat="42.37637" lon="2.19741">
        <ele>1544.2</ele>
        <time>2024-09-25T13:21:18Z</time>
      </trkpt>
      <trkpt lat="42.37637" lon="2.1974">
        <ele>1544.2</ele>
        <time>2024-09-25T13:21:19Z</time>
      </trkpt>
      <trkpt lat="42.37637" lon="2.19738">
        <ele>1544.1</ele>
        <time>2024-09-25T13:21:20Z</time>
      </trkpt>
      <trkpt lat="42.37637" lon="2.19737">
        <ele>1544</ele>
        <time>2024-09-25T13:21:21Z</time>
      </trkpt>
      <trkpt lat="42.37637" lon="2.19736">
        <ele>1544</ele>
        <time>2024-09-25T13:21:22Z</time>
      </trkpt>
      <trkpt lat="42.37637" lon="2.19735">
        <ele>1543.9</ele>
        <time>2024-09-25T13:21:23Z</time>
      </trkpt>
      <trkpt lat="42.37637" lon="2.19733">
        <ele>1543.8</ele>
        <time>2024-09-25T13:21:24Z</time>
      </trkpt>
      <trkpt lat="42.37637" lon="2.19732">
        <ele>1543.8</ele>
        <time>2024-09-25T13:21:25Z</time>
      </trkpt>
      <trkpt lat="42.37637" lon="2.1973">
        <ele>1543.7</ele>
        <time>2024-09-25T13:21:26Z</time>
      </trkpt>
      <trkpt lat="42.37637" lon="2.19729">
        <ele>1543.6</ele>
        <time>2024-09-25T13:21:27Z</time>
      </trkpt>
      <trkpt lat="42.37638" lon="2.19727">
        <ele>1543.6</ele>
        <time>2024-09-25T13:21:28Z</time>
      </trkpt>
      <trkpt lat="42.37638" lon="2.19726">
        <ele>1543.6</ele>
        <time>2024-09-25T13:21:29Z</time>
      </trkpt>
      <trkpt lat="42.37639" lon="2.19725">
        <ele>1543.5</ele>
        <time>2024-09-25T13:21:30Z</time>
      </trkpt>
      <trkpt lat="42.37639" lon="2.19724">
        <ele>1543.5</ele>
        <time>2024-09-25T13:21:31Z</time>
      </trkpt>
      <trkpt lat="42.37639" lon="2.19724">
        <ele>1543.4</ele>
        <time>2024-09-25T13:21:32Z</time>
      </trkpt>
      <trkpt lat="42.3764" lon="2.19723">
        <ele>1543.4</ele>
        <time>2024-09-25T13:21:33Z</time>
      </trkpt>
      <trkpt lat="42.3764" lon="2.19722">
        <ele>1543.4</ele>
        <time>2024-09-25T13:21:34Z</time>
      </trkpt>
      <trkpt lat="42.37641" lon="2.1972">
        <ele>1543.3</ele>
        <time>2024-09-25T13:21:35Z</time>
      </trkpt>
      <trkpt lat="42.37641" lon="2.19719">
        <ele>1543.3</ele>
        <time>2024-09-25T13:21:36Z</time>
      </trkpt>
      <trkpt lat="42.37641" lon="2.19718">
        <ele>1543.3</ele>
        <time>2024-09-25T13:21:37Z</time>
      </trkpt>
      <trkpt lat="42.37642" lon="2.19717">
        <ele>1543.3</ele>
        <time>2024-09-25T13:21:38Z</time>
      </trkpt>
      <trkpt lat="42.37642" lon="2.19716">
        <ele>1543.2</ele>
        <time>2024-09-25T13:21:39Z</time>
      </trkpt>
      <trkpt lat="42.37642" lon="2.19715">
        <ele>1543.2</ele>
        <time>2024-09-25T13:21:40Z</time>
      </trkpt>
      <trkpt lat="42.37642" lon="2.19713">
        <ele>1543.2</ele>
        <time>2024-09-25T13:21:41Z</time>
      </trkpt>
      <trkpt lat="42.37642" lon="2.19712">
        <ele>1543.2</ele>
        <time>2024-09-25T13:21:42Z</time>
      </trkpt>
      <trkpt lat="42.37642" lon="2.19711">
        <ele>1543.2</ele>
        <time>2024-09-25T13:21:43Z</time>
      </trkpt>
      <trkpt lat="42.37642" lon="2.1971">
        <ele>1543.1</ele>
        <time>2024-09-25T13:21:44Z</time>
      </trkpt>
      <trkpt lat="42.37642" lon="2.19709">
        <ele>1543.1</ele>
        <time>2024-09-25T13:21:45Z</time>
      </trkpt>
      <trkpt lat="42.37642" lon="2.19708">
        <ele>1543.1</ele>
        <time>2024-09-25T13:21:46Z</time>
      </trkpt>
      <trkpt lat="42.37642" lon="2.19706">
        <ele>1543.1</ele>
        <time>2024-09-25T13:21:47Z</time>
      </trkpt>
      <trkpt lat="42.37643" lon="2.19705">
        <ele>1543.1</ele>
        <time>2024-09-25T13:21:48Z</time>
      </trkpt>
      <trkpt lat="42.37643" lon="2.19704">
        <ele>1543.1</ele>
        <time>2024-09-25T13:21:49Z</time>
      </trkpt>
      <trkpt lat="42.37643" lon="2.19703">
        <ele>1543</ele>
        <time>2024-09-25T13:21:50Z</time>
      </trkpt>
      <trkpt lat="42.37642" lon="2.19702">
        <ele>1543</ele>
        <time>2024-09-25T13:21:51Z</time>
      </trkpt>
      <trkpt lat="42.37642" lon="2.19702">
        <ele>1543</ele>
        <time>2024-09-25T13:21:52Z</time>
      </trkpt>
      <trkpt lat="42.37641" lon="2.19702">
        <ele>1543</ele>
        <time>2024-09-25T13:21:53Z</time>
      </trkpt>
      <trkpt lat="42.37641" lon="2.19702">
        <ele>1543</ele>
        <time>2024-09-25T13:21:54Z</time>
      </trkpt>
      <trkpt lat="42.37641" lon="2.19701">
        <ele>1543</ele>
        <time>2024-09-25T13:21:55Z</time>
      </trkpt>
      <trkpt lat="42.37641" lon="2.19701">
        <ele>1543</ele>
        <time>2024-09-25T13:21:56Z</time>
      </trkpt>
      <trkpt lat="42.37641" lon="2.197">
        <ele>1543</ele>
        <time>2024-09-25T13:21:57Z</time>
      </trkpt>
      <trkpt lat="42.37641" lon="2.197">
        <ele>1543</ele>
        <time>2024-09-25T13:21:58Z</time>
      </trkpt>
      <trkpt lat="42.37641" lon="2.19698">
        <ele>1543</ele>
        <time>2024-09-25T13:21:59Z</time>
      </trkpt>
      <trkpt lat="42.37642" lon="2.19697">
        <ele>1542.9</ele>
        <time>2024-09-25T13:22:00Z</time>
      </trkpt>
      <trkpt lat="42.37642" lon="2.19695">
        <ele>1542.9</ele>
        <time>2024-09-25T13:22:01Z</time>
      </trkpt>
      <trkpt lat="42.37643" lon="2.19693">
        <ele>1542.9</ele>
        <time>2024-09-25T13:22:02Z</time>
      </trkpt>
      <trkpt lat="42.37643" lon="2.19692">
        <ele>1542.9</ele>
        <time>2024-09-25T13:22:03Z</time>
      </trkpt>
      <trkpt lat="42.37643" lon="2.19691">
        <ele>1542.9</ele>
        <time>2024-09-25T13:22:04Z</time>
      </trkpt>
      <trkpt lat="42.37643" lon="2.1969">
        <ele>1542.8</ele>
        <time>2024-09-25T13:22:05Z</time>
      </trkpt>
      <trkpt lat="42.37643" lon="2.19689">
        <ele>1542.8</ele>
        <time>2024-09-25T13:22:06Z</time>
      </trkpt>
      <trkpt lat="42.37642" lon="2.19688">
        <ele>1542.8</ele>
        <time>2024-09-25T13:22:07Z</time>
      </trkpt>
      <trkpt lat="42.37642" lon="2.19686">
        <ele>1542.8</ele>
        <time>2024-09-25T13:22:08Z</time>
      </trkpt>
      <trkpt lat="42.37641" lon="2.19685">
        <ele>1542.7</ele>
        <time>2024-09-25T13:22:09Z</time>
      </trkpt>
      <trkpt lat="42.37641" lon="2.19684">
        <ele>1542.7</ele>
        <time>2024-09-25T13:22:10Z</time>
      </trkpt>
      <trkpt lat="42.37641" lon="2.19683">
        <ele>1542.7</ele>
        <time>2024-09-25T13:22:11Z</time>
      </trkpt>
      <trkpt lat="42.37641" lon="2.19683">
        <ele>1542.7</ele>
        <time>2024-09-25T13:22:12Z</time>
      </trkpt>
      <trkpt lat="42.3764" lon="2.19684">
        <ele>1542.7</ele>
        <time>2024-09-25T13:22:13Z</time>
      </trkpt>
      <trkpt lat="42.37641" lon="2.19684">
        <ele>1542.7</ele>
        <time>2024-09-25T13:22:14Z</time>
      </trkpt>
      <trkpt lat="42.37643" lon="2.19683">
        <ele>1542.6</ele>
        <time>2024-09-25T13:22:15Z</time>
      </trkpt>
      <trkpt lat="42.37644" lon="2.19683">
        <ele>1542.6</ele>
        <time>2024-09-25T13:22:16Z</time>
      </trkpt>
      <trkpt lat="42.37646" lon="2.1968">
        <ele>1542.4</ele>
        <time>2024-09-25T13:22:17Z</time>
      </trkpt>
      <trkpt lat="42.37646" lon="2.19679">
        <ele>1542.4</ele>
        <time>2024-09-25T13:22:18Z</time>
      </trkpt>
      <trkpt lat="42.37647" lon="2.19675">
        <ele>1542.3</ele>
        <time>2024-09-25T13:22:19Z</time>
      </trkpt>
      <trkpt lat="42.37647" lon="2.19674">
        <ele>1542.3</ele>
        <time>2024-09-25T13:22:20Z</time>
      </trkpt>
      <trkpt lat="42.37646" lon="2.19672">
        <ele>1542.2</ele>
        <time>2024-09-25T13:22:21Z</time>
      </trkpt>
      <trkpt lat="42.37645" lon="2.19671">
        <ele>1542.2</ele>
        <time>2024-09-25T13:22:22Z</time>
      </trkpt>
      <trkpt lat="42.37645" lon="2.19669">
        <ele>1542.1</ele>
        <time>2024-09-25T13:22:23Z</time>
      </trkpt>
      <trkpt lat="42.37645" lon="2.19667">
        <ele>1542</ele>
        <time>2024-09-25T13:22:24Z</time>
      </trkpt>
      <trkpt lat="42.37645" lon="2.19665">
        <ele>1542</ele>
        <time>2024-09-25T13:22:25Z</time>
      </trkpt>
      <trkpt lat="42.37645" lon="2.19664">
        <ele>1541.9</ele>
        <time>2024-09-25T13:22:26Z</time>
      </trkpt>
      <trkpt lat="42.37645" lon="2.19663">
        <ele>1541.9</ele>
        <time>2024-09-25T13:22:27Z</time>
      </trkpt>
      <trkpt lat="42.37645" lon="2.19662">
        <ele>1541.8</ele>
        <time>2024-09-25T13:22:28Z</time>
      </trkpt>
      <trkpt lat="42.37644" lon="2.19661">
        <ele>1541.8</ele>
        <time>2024-09-25T13:22:29Z</time>
      </trkpt>
      <trkpt lat="42.37644" lon="2.19661">
        <ele>1541.8</ele>
        <time>2024-09-25T13:22:30Z</time>
      </trkpt>
      <trkpt lat="42.37643" lon="2.19661">
        <ele>1541.7</ele>
        <time>2024-09-25T13:22:31Z</time>
      </trkpt>
      <trkpt lat="42.37642" lon="2.19661">
        <ele>1541.7</ele>
        <time>2024-09-25T13:22:32Z</time>
      </trkpt>
      <trkpt lat="42.37641" lon="2.19662">
        <ele>1541.6</ele>
        <time>2024-09-25T13:22:33Z</time>
      </trkpt>
      <trkpt lat="42.37642" lon="2.1966">
        <ele>1541.5</ele>
        <time>2024-09-25T13:22:34Z</time>
      </trkpt>
      <trkpt lat="42.37644" lon="2.19657">
        <ele>1541.4</ele>
        <time>2024-09-25T13:22:35Z</time>
      </trkpt>
      <trkpt lat="42.37647" lon="2.19654">
        <ele>1541.2</ele>
        <time>2024-09-25T13:22:36Z</time>
      </trkpt>
      <trkpt lat="42.37652" lon="2.19649">
        <ele>1540.9</ele>
        <time>2024-09-25T13:22:37Z</time>
      </trkpt>
      <trkpt lat="42.37653" lon="2.19646">
        <ele>1540.8</ele>
        <time>2024-09-25T13:22:38Z</time>
      </trkpt>
      <trkpt lat="42.37654" lon="2.19645">
        <ele>1540.8</ele>
        <time>2024-09-25T13:22:39Z</time>
      </trkpt>
      <trkpt lat="42.37654" lon="2.19642">
        <ele>1540.7</ele>
        <time>2024-09-25T13:22:40Z</time>
      </trkpt>
      <trkpt lat="42.37654" lon="2.19641">
        <ele>1540.6</ele>
        <time>2024-09-25T13:22:41Z</time>
      </trkpt>
      <trkpt lat="42.37655" lon="2.1964">
        <ele>1540.6</ele>
        <time>2024-09-25T13:22:42Z</time>
      </trkpt>
      <trkpt lat="42.37655" lon="2.19639">
        <ele>1540.6</ele>
        <time>2024-09-25T13:22:43Z</time>
      </trkpt>
      <trkpt lat="42.37655" lon="2.19638">
        <ele>1540.6</ele>
        <time>2024-09-25T13:22:44Z</time>
      </trkpt>
      <trkpt lat="42.37655" lon="2.19638">
        <ele>1540.6</ele>
        <time>2024-09-25T13:22:45Z</time>
      </trkpt>
      <trkpt lat="42.37656" lon="2.19637">
        <ele>1540.5</ele>
        <time>2024-09-25T13:22:46Z</time>
      </trkpt>
      <trkpt lat="42.37656" lon="2.19636">
        <ele>1540.5</ele>
        <time>2024-09-25T13:22:47Z</time>
      </trkpt>
      <trkpt lat="42.37656" lon="2.19634">
        <ele>1540.5</ele>
        <time>2024-09-25T13:22:48Z</time>
      </trkpt>
      <trkpt lat="42.37656" lon="2.19632">
        <ele>1540.4</ele>
        <time>2024-09-25T13:22:49Z</time>
      </trkpt>
      <trkpt lat="42.37655" lon="2.19632">
        <ele>1540.4</ele>
        <time>2024-09-25T13:22:50Z</time>
      </trkpt>
      <trkpt lat="42.37655" lon="2.19631">
        <ele>1540.4</ele>
        <time>2024-09-25T13:22:51Z</time>
      </trkpt>
      <trkpt lat="42.37655" lon="2.19631">
        <ele>1540.4</ele>
        <time>2024-09-25T13:22:52Z</time>
      </trkpt>
      <trkpt lat="42.37654" lon="2.19631">
        <ele>1540.4</ele>
        <time>2024-09-25T13:22:53Z</time>
      </trkpt>
      <trkpt lat="42.37655" lon="2.1963">
        <ele>1540.4</ele>
        <time>2024-09-25T13:22:54Z</time>
      </trkpt>
      <trkpt lat="42.37654" lon="2.1963">
        <ele>1540.4</ele>
        <time>2024-09-25T13:22:55Z</time>
      </trkpt>
      <trkpt lat="42.37655" lon="2.19629">
        <ele>1540.3</ele>
        <time>2024-09-25T13:22:56Z</time>
      </trkpt>
      <trkpt lat="42.37656" lon="2.19629">
        <ele>1540.3</ele>
        <time>2024-09-25T13:22:57Z</time>
      </trkpt>
      <trkpt lat="42.37657" lon="2.19628">
        <ele>1540.3</ele>
        <time>2024-09-25T13:22:58Z</time>
      </trkpt>
      <trkpt lat="42.37657" lon="2.19628">
        <ele>1540.3</ele>
        <time>2024-09-25T13:22:59Z</time>
      </trkpt>
      <trkpt lat="42.37657" lon="2.19627">
        <ele>1540.3</ele>
        <time>2024-09-25T13:23:00Z</time>
      </trkpt>
      <trkpt lat="42.37658" lon="2.19627">
        <ele>1540.3</ele>
        <time>2024-09-25T13:23:01Z</time>
      </trkpt>
      <trkpt lat="42.37658" lon="2.19626">
        <ele>1540.3</ele>
        <time>2024-09-25T13:23:02Z</time>
      </trkpt>
      <trkpt lat="42.37658" lon="2.19626">
        <ele>1540.3</ele>
        <time>2024-09-25T13:23:03Z</time>
      </trkpt>
      <trkpt lat="42.37659" lon="2.19626">
        <ele>1540.3</ele>
        <time>2024-09-25T13:23:04Z</time>
      </trkpt>
      <trkpt lat="42.37659" lon="2.19626">
        <ele>1540.3</ele>
        <time>2024-09-25T13:23:05Z</time>
      </trkpt>
      <trkpt lat="42.37659" lon="2.19625">
        <ele>1540.2</ele>
        <time>2024-09-25T13:23:06Z</time>
      </trkpt>
      <trkpt lat="42.3766" lon="2.19625">
        <ele>1540.2</ele>
        <time>2024-09-25T13:23:07Z</time>
      </trkpt>
      <trkpt lat="42.3766" lon="2.19624">
        <ele>1540.2</ele>
        <time>2024-09-25T13:23:08Z</time>
      </trkpt>
      <trkpt lat="42.37661" lon="2.19623">
        <ele>1540.2</ele>
        <time>2024-09-25T13:23:09Z</time>
      </trkpt>
      <trkpt lat="42.37661" lon="2.1962">
        <ele>1540.2</ele>
        <time>2024-09-25T13:23:10Z</time>
      </trkpt>
      <trkpt lat="42.37662" lon="2.19619">
        <ele>1540.2</ele>
        <time>2024-09-25T13:23:11Z</time>
      </trkpt>
      <trkpt lat="42.37663" lon="2.19617">
        <ele>1540.2</ele>
        <time>2024-09-25T13:23:12Z</time>
      </trkpt>
      <trkpt lat="42.37663" lon="2.19615">
        <ele>1540.2</ele>
        <time>2024-09-25T13:23:13Z</time>
      </trkpt>
      <trkpt lat="42.37662" lon="2.19613">
        <ele>1540.2</ele>
        <time>2024-09-25T13:23:14Z</time>
      </trkpt>
      <trkpt lat="42.37662" lon="2.1961">
        <ele>1540.2</ele>
        <time>2024-09-25T13:23:15Z</time>
      </trkpt>
      <trkpt lat="42.37662" lon="2.19608">
        <ele>1540.2</ele>
        <time>2024-09-25T13:23:16Z</time>
      </trkpt>
      <trkpt lat="42.37662" lon="2.19605">
        <ele>1540.2</ele>
        <time>2024-09-25T13:23:17Z</time>
      </trkpt>
      <trkpt lat="42.37662" lon="2.19604">
        <ele>1540.2</ele>
        <time>2024-09-25T13:23:18Z</time>
      </trkpt>
      <trkpt lat="42.37662" lon="2.19603">
        <ele>1540.2</ele>
        <time>2024-09-25T13:23:19Z</time>
      </trkpt>
      <trkpt lat="42.37662" lon="2.19601">
        <ele>1540.2</ele>
        <time>2024-09-25T13:23:20Z</time>
      </trkpt>
      <trkpt lat="42.37663" lon="2.196">
        <ele>1540.2</ele>
        <time>2024-09-25T13:23:21Z</time>
      </trkpt>
      <trkpt lat="42.37663" lon="2.196">
        <ele>1540.2</ele>
        <time>2024-09-25T13:23:22Z</time>
      </trkpt>
      <trkpt lat="42.37664" lon="2.196">
        <ele>1540.2</ele>
        <time>2024-09-25T13:23:23Z</time>
      </trkpt>
      <trkpt lat="42.37664" lon="2.196">
        <ele>1540.2</ele>
        <time>2024-09-25T13:23:24Z</time>
      </trkpt>
      <trkpt lat="42.37664" lon="2.196">
        <ele>1540.2</ele>
        <time>2024-09-25T13:23:25Z</time>
      </trkpt>
      <trkpt lat="42.37664" lon="2.196">
        <ele>1540.2</ele>
        <time>2024-09-25T13:23:26Z</time>
      </trkpt>
      <trkpt lat="42.37664" lon="2.19599">
        <ele>1540.2</ele>
        <time>2024-09-25T13:23:27Z</time>
      </trkpt>
      <trkpt lat="42.37664" lon="2.19599">
        <ele>1540.2</ele>
        <time>2024-09-25T13:23:28Z</time>
      </trkpt>
      <trkpt lat="42.37664" lon="2.19598">
        <ele>1540.2</ele>
        <time>2024-09-25T13:23:29Z</time>
      </trkpt>
      <trkpt lat="42.37664" lon="2.19596">
        <ele>1540.2</ele>
        <time>2024-09-25T13:23:30Z</time>
      </trkpt>
      <trkpt lat="42.37665" lon="2.19595">
        <ele>1540.2</ele>
        <time>2024-09-25T13:23:31Z</time>
      </trkpt>
      <trkpt lat="42.37665" lon="2.19594">
        <ele>1540.2</ele>
        <time>2024-09-25T13:23:32Z</time>
      </trkpt>
      <trkpt lat="42.37665" lon="2.19593">
        <ele>1540.2</ele>
        <time>2024-09-25T13:23:33Z</time>
      </trkpt>
      <trkpt lat="42.37665" lon="2.19592">
        <ele>1540.2</ele>
        <time>2024-09-25T13:23:34Z</time>
      </trkpt>
      <trkpt lat="42.37664" lon="2.19591">
        <ele>1540.2</ele>
        <time>2024-09-25T13:23:35Z</time>
      </trkpt>
      <trkpt lat="42.37664" lon="2.1959">
        <ele>1540.3</ele>
        <time>2024-09-25T13:23:36Z</time>
      </trkpt>
      <trkpt lat="42.37663" lon="2.1959">
        <ele>1540.3</ele>
        <time>2024-09-25T13:23:37Z</time>
      </trkpt>
      <trkpt lat="42.37663" lon="2.19589">
        <ele>1540.3</ele>
        <time>2024-09-25T13:23:38Z</time>
      </trkpt>
      <trkpt lat="42.37663" lon="2.19588">
        <ele>1540.3</ele>
        <time>2024-09-25T13:23:39Z</time>
      </trkpt>
      <trkpt lat="42.37663" lon="2.19586">
        <ele>1540.3</ele>
        <time>2024-09-25T13:23:40Z</time>
      </trkpt>
      <trkpt lat="42.37662" lon="2.19585">
        <ele>1540.3</ele>
        <time>2024-09-25T13:23:41Z</time>
      </trkpt>
      <trkpt lat="42.37662" lon="2.19584">
        <ele>1540.3</ele>
        <time>2024-09-25T13:23:42Z</time>
      </trkpt>
      <trkpt lat="42.37661" lon="2.19583">
        <ele>1540.3</ele>
        <time>2024-09-25T13:23:43Z</time>
      </trkpt>
      <trkpt lat="42.37661" lon="2.19582">
        <ele>1540.3</ele>
        <time>2024-09-25T13:23:44Z</time>
      </trkpt>
      <trkpt lat="42.3766" lon="2.19581">
        <ele>1540.3</ele>
        <time>2024-09-25T13:23:45Z</time>
      </trkpt>
      <trkpt lat="42.37659" lon="2.1958">
        <ele>1540.3</ele>
        <time>2024-09-25T13:23:46Z</time>
      </trkpt>
      <trkpt lat="42.37658" lon="2.19579">
        <ele>1540.3</ele>
        <time>2024-09-25T13:23:47Z</time>
      </trkpt>
      <trkpt lat="42.37657" lon="2.19578">
        <ele>1540.3</ele>
        <time>2024-09-25T13:23:48Z</time>
      </trkpt>
      <trkpt lat="42.37657" lon="2.19577">
        <ele>1540.3</ele>
        <time>2024-09-25T13:23:49Z</time>
      </trkpt>
      <trkpt lat="42.37657" lon="2.19576">
        <ele>1540.3</ele>
        <time>2024-09-25T13:23:50Z</time>
      </trkpt>
      <trkpt lat="42.37656" lon="2.19575">
        <ele>1540.3</ele>
        <time>2024-09-25T13:23:51Z</time>
      </trkpt>
      <trkpt lat="42.37656" lon="2.19574">
        <ele>1540.3</ele>
        <time>2024-09-25T13:23:52Z</time>
      </trkpt>
      <trkpt lat="42.37655" lon="2.19573">
        <ele>1540.2</ele>
        <time>2024-09-25T13:23:53Z</time>
      </trkpt>
      <trkpt lat="42.37656" lon="2.19571">
        <ele>1540.2</ele>
        <time>2024-09-25T13:23:54Z</time>
      </trkpt>
      <trkpt lat="42.37656" lon="2.1957">
        <ele>1540.2</ele>
        <time>2024-09-25T13:23:55Z</time>
      </trkpt>
      <trkpt lat="42.37655" lon="2.19568">
        <ele>1540.2</ele>
        <time>2024-09-25T13:23:56Z</time>
      </trkpt>
      <trkpt lat="42.37655" lon="2.19567">
        <ele>1540.1</ele>
        <time>2024-09-25T13:23:57Z</time>
      </trkpt>
      <trkpt lat="42.37655" lon="2.19565">
        <ele>1540.1</ele>
        <time>2024-09-25T13:23:58Z</time>
      </trkpt>
      <trkpt lat="42.37654" lon="2.19564">
        <ele>1540.1</ele>
        <time>2024-09-25T13:23:59Z</time>
      </trkpt>
      <trkpt lat="42.37654" lon="2.19563">
        <ele>1540.1</ele>
        <time>2024-09-25T13:24:00Z</time>
      </trkpt>
      <trkpt lat="42.37654" lon="2.19562">
        <ele>1540</ele>
        <time>2024-09-25T13:24:01Z</time>
      </trkpt>
      <trkpt lat="42.37653" lon="2.1956">
        <ele>1540</ele>
        <time>2024-09-25T13:24:02Z</time>
      </trkpt>
      <trkpt lat="42.37653" lon="2.19559">
        <ele>1539.9</ele>
        <time>2024-09-25T13:24:03Z</time>
      </trkpt>
      <trkpt lat="42.37654" lon="2.19558">
        <ele>1539.9</ele>
        <time>2024-09-25T13:24:04Z</time>
      </trkpt>
      <trkpt lat="42.37653" lon="2.19557">
        <ele>1539.9</ele>
        <time>2024-09-25T13:24:05Z</time>
      </trkpt>
      <trkpt lat="42.37653" lon="2.19555">
        <ele>1539.8</ele>
        <time>2024-09-25T13:24:06Z</time>
      </trkpt>
      <trkpt lat="42.37653" lon="2.19554">
        <ele>1539.8</ele>
        <time>2024-09-25T13:24:07Z</time>
      </trkpt>
      <trkpt lat="42.37653" lon="2.19553">
        <ele>1539.7</ele>
        <time>2024-09-25T13:24:08Z</time>
      </trkpt>
      <trkpt lat="42.37653" lon="2.19551">
        <ele>1539.7</ele>
        <time>2024-09-25T13:24:09Z</time>
      </trkpt>
      <trkpt lat="42.37653" lon="2.1955">
        <ele>1539.6</ele>
        <time>2024-09-25T13:24:10Z</time>
      </trkpt>
      <trkpt lat="42.37653" lon="2.19549">
        <ele>1539.6</ele>
        <time>2024-09-25T13:24:11Z</time>
      </trkpt>
      <trkpt lat="42.37654" lon="2.19549">
        <ele>1539.6</ele>
        <time>2024-09-25T13:24:12Z</time>
      </trkpt>
      <trkpt lat="42.37654" lon="2.19547">
        <ele>1539.5</ele>
        <time>2024-09-25T13:24:13Z</time>
      </trkpt>
      <trkpt lat="42.37654" lon="2.19547">
        <ele>1539.5</ele>
        <time>2024-09-25T13:24:14Z</time>
      </trkpt>
      <trkpt lat="42.37653" lon="2.19548">
        <ele>1539.5</ele>
        <time>2024-09-25T13:24:15Z</time>
      </trkpt>
      <trkpt lat="42.37653" lon="2.19548">
        <ele>1539.4</ele>
        <time>2024-09-25T13:24:16Z</time>
      </trkpt>
      <trkpt lat="42.37653" lon="2.19548">
        <ele>1539.4</ele>
        <time>2024-09-25T13:24:17Z</time>
      </trkpt>
      <trkpt lat="42.37653" lon="2.19548">
        <ele>1539.4</ele>
        <time>2024-09-25T13:24:18Z</time>
      </trkpt>
      <trkpt lat="42.37653" lon="2.19548">
        <ele>1539.4</ele>
        <time>2024-09-25T13:24:19Z</time>
      </trkpt>
      <trkpt lat="42.37653" lon="2.19548">
        <ele>1539.4</ele>
        <time>2024-09-25T13:24:20Z</time>
      </trkpt>
      <trkpt lat="42.37653" lon="2.19547">
        <ele>1539.4</ele>
        <time>2024-09-25T13:24:21Z</time>
      </trkpt>
      <trkpt lat="42.37653" lon="2.19547">
        <ele>1539.4</ele>
        <time>2024-09-25T13:24:22Z</time>
      </trkpt>
      <trkpt lat="42.37653" lon="2.19547">
        <ele>1539.4</ele>
        <time>2024-09-25T13:24:23Z</time>
      </trkpt>
      <trkpt lat="42.37653" lon="2.19547">
        <ele>1539.4</ele>
        <time>2024-09-25T13:24:24Z</time>
      </trkpt>
      <trkpt lat="42.37653" lon="2.19546">
        <ele>1539.4</ele>
        <time>2024-09-25T13:24:25Z</time>
      </trkpt>
      <trkpt lat="42.37653" lon="2.19545">
        <ele>1539.3</ele>
        <time>2024-09-25T13:24:26Z</time>
      </trkpt>
      <trkpt lat="42.37653" lon="2.19544">
        <ele>1539.3</ele>
        <time>2024-09-25T13:24:27Z</time>
      </trkpt>
      <trkpt lat="42.37653" lon="2.19543">
        <ele>1539.2</ele>
        <time>2024-09-25T13:24:28Z</time>
      </trkpt>
      <trkpt lat="42.37653" lon="2.19541">
        <ele>1539.2</ele>
        <time>2024-09-25T13:24:29Z</time>
      </trkpt>
      <trkpt lat="42.37653" lon="2.1954">
        <ele>1539.1</ele>
        <time>2024-09-25T13:24:30Z</time>
      </trkpt>
      <trkpt lat="42.37653" lon="2.19538">
        <ele>1539</ele>
        <time>2024-09-25T13:24:31Z</time>
      </trkpt>
      <trkpt lat="42.37653" lon="2.19537">
        <ele>1539</ele>
        <time>2024-09-25T13:24:32Z</time>
      </trkpt>
      <trkpt lat="42.37653" lon="2.19536">
        <ele>1538.9</ele>
        <time>2024-09-25T13:24:33Z</time>
      </trkpt>
      <trkpt lat="42.37654" lon="2.19534">
        <ele>1538.8</ele>
        <time>2024-09-25T13:24:34Z</time>
      </trkpt>
      <trkpt lat="42.37654" lon="2.19533">
        <ele>1538.8</ele>
        <time>2024-09-25T13:24:35Z</time>
      </trkpt>
      <trkpt lat="42.37655" lon="2.19532">
        <ele>1538.7</ele>
        <time>2024-09-25T13:24:36Z</time>
      </trkpt>
      <trkpt lat="42.37654" lon="2.19531">
        <ele>1538.6</ele>
        <time>2024-09-25T13:24:37Z</time>
      </trkpt>
      <trkpt lat="42.37654" lon="2.19532">
        <ele>1538.6</ele>
        <time>2024-09-25T13:24:38Z</time>
      </trkpt>
      <trkpt lat="42.37653" lon="2.19533">
        <ele>1538.6</ele>
        <time>2024-09-25T13:24:39Z</time>
      </trkpt>
      <trkpt lat="42.37653" lon="2.19532">
        <ele>1538.6</ele>
        <time>2024-09-25T13:24:40Z</time>
      </trkpt>
      <trkpt lat="42.37653" lon="2.19532">
        <ele>1538.5</ele>
        <time>2024-09-25T13:24:41Z</time>
      </trkpt>
      <trkpt lat="42.37653" lon="2.19532">
        <ele>1538.5</ele>
        <time>2024-09-25T13:24:42Z</time>
      </trkpt>
      <trkpt lat="42.37654" lon="2.1953">
        <ele>1538.4</ele>
        <time>2024-09-25T13:24:44Z</time>
      </trkpt>
      <trkpt lat="42.37654" lon="2.19529">
        <ele>1538.4</ele>
        <time>2024-09-25T13:24:45Z</time>
      </trkpt>
      <trkpt lat="42.37654" lon="2.19529">
        <ele>1538.3</ele>
        <time>2024-09-25T13:24:46Z</time>
      </trkpt>
      <trkpt lat="42.37654" lon="2.19529">
        <ele>1538.3</ele>
        <time>2024-09-25T13:24:47Z</time>
      </trkpt>
      <trkpt lat="42.37654" lon="2.19528">
        <ele>1538.3</ele>
        <time>2024-09-25T13:24:48Z</time>
      </trkpt>
      <trkpt lat="42.37652" lon="2.19524">
        <ele>1538</ele>
        <time>2024-09-25T13:24:49Z</time>
      </trkpt>
      <trkpt lat="42.37652" lon="2.19525">
        <ele>1538</ele>
        <time>2024-09-25T13:24:50Z</time>
      </trkpt>
      <trkpt lat="42.37651" lon="2.19523">
        <ele>1537.9</ele>
        <time>2024-09-25T13:24:51Z</time>
      </trkpt>
      <trkpt lat="42.3765" lon="2.19522">
        <ele>1537.8</ele>
        <time>2024-09-25T13:24:52Z</time>
      </trkpt>
      <trkpt lat="42.3765" lon="2.19521">
        <ele>1537.8</ele>
        <time>2024-09-25T13:24:53Z</time>
      </trkpt>
      <trkpt lat="42.37649" lon="2.1952">
        <ele>1537.7</ele>
        <time>2024-09-25T13:24:54Z</time>
      </trkpt>
      <trkpt lat="42.37648" lon="2.19519">
        <ele>1537.6</ele>
        <time>2024-09-25T13:24:55Z</time>
      </trkpt>
      <trkpt lat="42.37648" lon="2.19518">
        <ele>1537.5</ele>
        <time>2024-09-25T13:24:56Z</time>
      </trkpt>
      <trkpt lat="42.37647" lon="2.19517">
        <ele>1537.4</ele>
        <time>2024-09-25T13:24:57Z</time>
      </trkpt>
      <trkpt lat="42.37646" lon="2.19516">
        <ele>1537.4</ele>
        <time>2024-09-25T13:24:58Z</time>
      </trkpt>
      <trkpt lat="42.37646" lon="2.19516">
        <ele>1537.3</ele>
        <time>2024-09-25T13:24:59Z</time>
      </trkpt>
      <trkpt lat="42.37645" lon="2.19516">
        <ele>1537.3</ele>
        <time>2024-09-25T13:25:00Z</time>
      </trkpt>
      <trkpt lat="42.37644" lon="2.19516">
        <ele>1537.2</ele>
        <time>2024-09-25T13:25:01Z</time>
      </trkpt>
      <trkpt lat="42.37644" lon="2.19516">
        <ele>1537.2</ele>
        <time>2024-09-25T13:25:02Z</time>
      </trkpt>
      <trkpt lat="42.37643" lon="2.19516">
        <ele>1537.1</ele>
        <time>2024-09-25T13:25:03Z</time>
      </trkpt>
      <trkpt lat="42.37642" lon="2.19516">
        <ele>1537</ele>
        <time>2024-09-25T13:25:04Z</time>
      </trkpt>
      <trkpt lat="42.37642" lon="2.19516">
        <ele>1537</ele>
        <time>2024-09-25T13:25:05Z</time>
      </trkpt>
      <trkpt lat="42.37642" lon="2.19516">
        <ele>1537</ele>
        <time>2024-09-25T13:25:06Z</time>
      </trkpt>
      <trkpt lat="42.37642" lon="2.19516">
        <ele>1537</ele>
        <time>2024-09-25T13:25:07Z</time>
      </trkpt>
      <trkpt lat="42.37641" lon="2.19516">
        <ele>1536.9</ele>
        <time>2024-09-25T13:25:08Z</time>
      </trkpt>
      <trkpt lat="42.3764" lon="2.19516">
        <ele>1536.8</ele>
        <time>2024-09-25T13:25:09Z</time>
      </trkpt>
      <trkpt lat="42.37639" lon="2.19516">
        <ele>1536.7</ele>
        <time>2024-09-25T13:25:10Z</time>
      </trkpt>
      <trkpt lat="42.37638" lon="2.19516">
        <ele>1536.6</ele>
        <time>2024-09-25T13:25:11Z</time>
      </trkpt>
      <trkpt lat="42.37638" lon="2.19516">
        <ele>1536.6</ele>
        <time>2024-09-25T13:25:12Z</time>
      </trkpt>
      <trkpt lat="42.37637" lon="2.19516">
        <ele>1536.5</ele>
        <time>2024-09-25T13:25:13Z</time>
      </trkpt>
      <trkpt lat="42.37636" lon="2.19516">
        <ele>1536.4</ele>
        <time>2024-09-25T13:25:14Z</time>
      </trkpt>
      <trkpt lat="42.37636" lon="2.19516">
        <ele>1536.4</ele>
        <time>2024-09-25T13:25:15Z</time>
      </trkpt>
      <trkpt lat="42.37636" lon="2.19515">
        <ele>1536.3</ele>
        <time>2024-09-25T13:25:16Z</time>
      </trkpt>
      <trkpt lat="42.37635" lon="2.19515">
        <ele>1536.2</ele>
        <time>2024-09-25T13:25:17Z</time>
      </trkpt>
      <trkpt lat="42.37634" lon="2.19514">
        <ele>1536.1</ele>
        <time>2024-09-25T13:25:18Z</time>
      </trkpt>
      <trkpt lat="42.37632" lon="2.19514">
        <ele>1535.9</ele>
        <time>2024-09-25T13:25:19Z</time>
      </trkpt>
      <trkpt lat="42.37631" lon="2.19513">
        <ele>1535.8</ele>
        <time>2024-09-25T13:25:20Z</time>
      </trkpt>
      <trkpt lat="42.3763" lon="2.19512">
        <ele>1535.7</ele>
        <time>2024-09-25T13:25:21Z</time>
      </trkpt>
      <trkpt lat="42.3763" lon="2.19511">
        <ele>1535.6</ele>
        <time>2024-09-25T13:25:22Z</time>
      </trkpt>
      <trkpt lat="42.3763" lon="2.1951">
        <ele>1535.5</ele>
        <time>2024-09-25T13:25:23Z</time>
      </trkpt>
      <trkpt lat="42.37629" lon="2.1951">
        <ele>1535.4</ele>
        <time>2024-09-25T13:25:24Z</time>
      </trkpt>
      <trkpt lat="42.37628" lon="2.1951">
        <ele>1535.3</ele>
        <time>2024-09-25T13:25:25Z</time>
      </trkpt>
      <trkpt lat="42.37627" lon="2.1951">
        <ele>1535.1</ele>
        <time>2024-09-25T13:25:26Z</time>
      </trkpt>
      <trkpt lat="42.37626" lon="2.1951">
        <ele>1535.1</ele>
        <time>2024-09-25T13:25:27Z</time>
      </trkpt>
      <trkpt lat="42.37626" lon="2.1951">
        <ele>1535</ele>
        <time>2024-09-25T13:25:28Z</time>
      </trkpt>
      <trkpt lat="42.37626" lon="2.19509">
        <ele>1534.9</ele>
        <time>2024-09-25T13:25:29Z</time>
      </trkpt>
      <trkpt lat="42.37626" lon="2.19509">
        <ele>1534.9</ele>
        <time>2024-09-25T13:25:30Z</time>
      </trkpt>
      <trkpt lat="42.37625" lon="2.19509">
        <ele>1534.9</ele>
        <time>2024-09-25T13:25:31Z</time>
      </trkpt>
      <trkpt lat="42.37625" lon="2.19509">
        <ele>1534.8</ele>
        <time>2024-09-25T13:25:32Z</time>
      </trkpt>
      <trkpt lat="42.37625" lon="2.1951">
        <ele>1534.8</ele>
        <time>2024-09-25T13:25:33Z</time>
      </trkpt>
      <trkpt lat="42.37625" lon="2.1951">
        <ele>1534.8</ele>
        <time>2024-09-25T13:25:34Z</time>
      </trkpt>
      <trkpt lat="42.37625" lon="2.1951">
        <ele>1534.8</ele>
        <time>2024-09-25T13:25:35Z</time>
      </trkpt>
      <trkpt lat="42.37625" lon="2.1951">
        <ele>1534.8</ele>
        <time>2024-09-25T13:25:36Z</time>
      </trkpt>
      <trkpt lat="42.37625" lon="2.1951">
        <ele>1534.8</ele>
        <time>2024-09-25T13:25:37Z</time>
      </trkpt>
      <trkpt lat="42.37625" lon="2.19509">
        <ele>1534.7</ele>
        <time>2024-09-25T13:25:38Z</time>
      </trkpt>
      <trkpt lat="42.37625" lon="2.19509">
        <ele>1534.7</ele>
        <time>2024-09-25T13:25:39Z</time>
      </trkpt>
      <trkpt lat="42.37624" lon="2.19509">
        <ele>1534.6</ele>
        <time>2024-09-25T13:25:40Z</time>
      </trkpt>
      <trkpt lat="42.37623" lon="2.19509">
        <ele>1534.5</ele>
        <time>2024-09-25T13:25:41Z</time>
      </trkpt>
      <trkpt lat="42.37623" lon="2.19509">
        <ele>1534.4</ele>
        <time>2024-09-25T13:25:42Z</time>
      </trkpt>
      <trkpt lat="42.37622" lon="2.19509">
        <ele>1534.3</ele>
        <time>2024-09-25T13:25:43Z</time>
      </trkpt>
      <trkpt lat="42.37621" lon="2.19508">
        <ele>1534.2</ele>
        <time>2024-09-25T13:25:44Z</time>
      </trkpt>
      <trkpt lat="42.37621" lon="2.19507">
        <ele>1534</ele>
        <time>2024-09-25T13:25:45Z</time>
      </trkpt>
      <trkpt lat="42.3762" lon="2.19507">
        <ele>1533.9</ele>
        <time>2024-09-25T13:25:46Z</time>
      </trkpt>
      <trkpt lat="42.37619" lon="2.19506">
        <ele>1533.8</ele>
        <time>2024-09-25T13:25:47Z</time>
      </trkpt>
      <trkpt lat="42.37618" lon="2.19506">
        <ele>1533.7</ele>
        <time>2024-09-25T13:25:48Z</time>
      </trkpt>
      <trkpt lat="42.37618" lon="2.19506">
        <ele>1533.6</ele>
        <time>2024-09-25T13:25:49Z</time>
      </trkpt>
      <trkpt lat="42.37617" lon="2.19506">
        <ele>1533.4</ele>
        <time>2024-09-25T13:25:50Z</time>
      </trkpt>
      <trkpt lat="42.37616" lon="2.19506">
        <ele>1533.3</ele>
        <time>2024-09-25T13:25:51Z</time>
      </trkpt>
      <trkpt lat="42.37615" lon="2.19506">
        <ele>1533.1</ele>
        <time>2024-09-25T13:25:52Z</time>
      </trkpt>
      <trkpt lat="42.37614" lon="2.19505">
        <ele>1533</ele>
        <time>2024-09-25T13:25:53Z</time>
      </trkpt>
      <trkpt lat="42.37613" lon="2.19506">
        <ele>1532.8</ele>
        <time>2024-09-25T13:25:54Z</time>
      </trkpt>
      <trkpt lat="42.37612" lon="2.19506">
        <ele>1532.7</ele>
        <time>2024-09-25T13:25:55Z</time>
      </trkpt>
      <trkpt lat="42.37611" lon="2.19506">
        <ele>1532.5</ele>
        <time>2024-09-25T13:25:56Z</time>
      </trkpt>
      <trkpt lat="42.3761" lon="2.19505">
        <ele>1532.3</ele>
        <time>2024-09-25T13:25:57Z</time>
      </trkpt>
      <trkpt lat="42.37609" lon="2.19505">
        <ele>1532.1</ele>
        <time>2024-09-25T13:25:58Z</time>
      </trkpt>
      <trkpt lat="42.37608" lon="2.19506">
        <ele>1531.9</ele>
        <time>2024-09-25T13:25:59Z</time>
      </trkpt>
      <trkpt lat="42.37607" lon="2.19507">
        <ele>1531.7</ele>
        <time>2024-09-25T13:26:00Z</time>
      </trkpt>
      <trkpt lat="42.37606" lon="2.19507">
        <ele>1531.6</ele>
        <time>2024-09-25T13:26:01Z</time>
      </trkpt>
      <trkpt lat="42.37605" lon="2.19507">
        <ele>1531.4</ele>
        <time>2024-09-25T13:26:02Z</time>
      </trkpt>
      <trkpt lat="42.37604" lon="2.19508">
        <ele>1531.2</ele>
        <time>2024-09-25T13:26:03Z</time>
      </trkpt>
      <trkpt lat="42.37603" lon="2.19508">
        <ele>1531.1</ele>
        <time>2024-09-25T13:26:04Z</time>
      </trkpt>
      <trkpt lat="42.37603" lon="2.19508">
        <ele>1530.9</ele>
        <time>2024-09-25T13:26:05Z</time>
      </trkpt>
      <trkpt lat="42.37602" lon="2.19508">
        <ele>1530.7</ele>
        <time>2024-09-25T13:26:06Z</time>
      </trkpt>
      <trkpt lat="42.37601" lon="2.19508">
        <ele>1530.6</ele>
        <time>2024-09-25T13:26:07Z</time>
      </trkpt>
      <trkpt lat="42.376" lon="2.19507">
        <ele>1530.4</ele>
        <time>2024-09-25T13:26:08Z</time>
      </trkpt>
      <trkpt lat="42.37599" lon="2.19507">
        <ele>1530.2</ele>
        <time>2024-09-25T13:26:09Z</time>
      </trkpt>
      <trkpt lat="42.37598" lon="2.19506">
        <ele>1530</ele>
        <time>2024-09-25T13:26:10Z</time>
      </trkpt>
      <trkpt lat="42.37597" lon="2.19506">
        <ele>1529.7</ele>
        <time>2024-09-25T13:26:11Z</time>
      </trkpt>
      <trkpt lat="42.37596" lon="2.19505">
        <ele>1529.5</ele>
        <time>2024-09-25T13:26:12Z</time>
      </trkpt>
      <trkpt lat="42.37595" lon="2.19505">
        <ele>1529.3</ele>
        <time>2024-09-25T13:26:13Z</time>
      </trkpt>
      <trkpt lat="42.37595" lon="2.19504">
        <ele>1529.2</ele>
        <time>2024-09-25T13:26:14Z</time>
      </trkpt>
      <trkpt lat="42.37595" lon="2.19504">
        <ele>1529.1</ele>
        <time>2024-09-25T13:26:15Z</time>
      </trkpt>
      <trkpt lat="42.37594" lon="2.19504">
        <ele>1529</ele>
        <time>2024-09-25T13:26:16Z</time>
      </trkpt>
      <trkpt lat="42.37593" lon="2.19504">
        <ele>1528.8</ele>
        <time>2024-09-25T13:26:17Z</time>
      </trkpt>
      <trkpt lat="42.37593" lon="2.19502">
        <ele>1528.5</ele>
        <time>2024-09-25T13:26:18Z</time>
      </trkpt>
      <trkpt lat="42.37594" lon="2.19502">
        <ele>1528.4</ele>
        <time>2024-09-25T13:26:19Z</time>
      </trkpt>
      <trkpt lat="42.37594" lon="2.19501">
        <ele>1528.3</ele>
        <time>2024-09-25T13:26:20Z</time>
      </trkpt>
      <trkpt lat="42.37594" lon="2.195">
        <ele>1528.2</ele>
        <time>2024-09-25T13:26:21Z</time>
      </trkpt>
      <trkpt lat="42.37594" lon="2.195">
        <ele>1528.1</ele>
        <time>2024-09-25T13:26:22Z</time>
      </trkpt>
      <trkpt lat="42.37594" lon="2.19499">
        <ele>1528</ele>
        <time>2024-09-25T13:26:23Z</time>
      </trkpt>
      <trkpt lat="42.37594" lon="2.19498">
        <ele>1527.8</ele>
        <time>2024-09-25T13:26:24Z</time>
      </trkpt>
      <trkpt lat="42.37594" lon="2.19496">
        <ele>1527.6</ele>
        <time>2024-09-25T13:26:25Z</time>
      </trkpt>
      <trkpt lat="42.37594" lon="2.19495">
        <ele>1527.4</ele>
        <time>2024-09-25T13:26:26Z</time>
      </trkpt>
      <trkpt lat="42.37593" lon="2.19492">
        <ele>1526.9</ele>
        <time>2024-09-25T13:26:27Z</time>
      </trkpt>
      <trkpt lat="42.37593" lon="2.19491">
        <ele>1526.7</ele>
        <time>2024-09-25T13:26:28Z</time>
      </trkpt>
      <trkpt lat="42.37592" lon="2.19489">
        <ele>1526.5</ele>
        <time>2024-09-25T13:26:29Z</time>
      </trkpt>
      <trkpt lat="42.37592" lon="2.19488">
        <ele>1526.3</ele>
        <time>2024-09-25T13:26:30Z</time>
      </trkpt>
      <trkpt lat="42.37591" lon="2.19487">
        <ele>1526.1</ele>
        <time>2024-09-25T13:26:31Z</time>
      </trkpt>
      <trkpt lat="42.3759" lon="2.19486">
        <ele>1525.9</ele>
        <time>2024-09-25T13:26:32Z</time>
      </trkpt>
      <trkpt lat="42.3759" lon="2.19485">
        <ele>1525.7</ele>
        <time>2024-09-25T13:26:33Z</time>
      </trkpt>
      <trkpt lat="42.3759" lon="2.19483">
        <ele>1525.5</ele>
        <time>2024-09-25T13:26:34Z</time>
      </trkpt>
      <trkpt lat="42.3759" lon="2.19482">
        <ele>1525.4</ele>
        <time>2024-09-25T13:26:35Z</time>
      </trkpt>
      <trkpt lat="42.3759" lon="2.19482">
        <ele>1525.2</ele>
        <time>2024-09-25T13:26:36Z</time>
      </trkpt>
      <trkpt lat="42.3759" lon="2.19481">
        <ele>1525.1</ele>
        <time>2024-09-25T13:26:37Z</time>
      </trkpt>
      <trkpt lat="42.37589" lon="2.1948">
        <ele>1525</ele>
        <time>2024-09-25T13:26:38Z</time>
      </trkpt>
      <trkpt lat="42.37589" lon="2.1948">
        <ele>1524.9</ele>
        <time>2024-09-25T13:26:39Z</time>
      </trkpt>
      <trkpt lat="42.37589" lon="2.1948">
        <ele>1524.9</ele>
        <time>2024-09-25T13:26:40Z</time>
      </trkpt>
      <trkpt lat="42.37588" lon="2.19479">
        <ele>1524.7</ele>
        <time>2024-09-25T13:26:41Z</time>
      </trkpt>
      <trkpt lat="42.37588" lon="2.19479">
        <ele>1524.7</ele>
        <time>2024-09-25T13:26:42Z</time>
      </trkpt>
      <trkpt lat="42.37588" lon="2.19478">
        <ele>1524.5</ele>
        <time>2024-09-25T13:26:43Z</time>
      </trkpt>
      <trkpt lat="42.37588" lon="2.19477">
        <ele>1524.4</ele>
        <time>2024-09-25T13:26:44Z</time>
      </trkpt>
      <trkpt lat="42.37587" lon="2.19477">
        <ele>1524.3</ele>
        <time>2024-09-25T13:26:45Z</time>
      </trkpt>
      <trkpt lat="42.37586" lon="2.19477">
        <ele>1524.1</ele>
        <time>2024-09-25T13:26:46Z</time>
      </trkpt>
      <trkpt lat="42.37585" lon="2.19477">
        <ele>1523.8</ele>
        <time>2024-09-25T13:26:47Z</time>
      </trkpt>
      <trkpt lat="42.37584" lon="2.19478">
        <ele>1523.6</ele>
        <time>2024-09-25T13:26:48Z</time>
      </trkpt>
      <trkpt lat="42.37583" lon="2.19479">
        <ele>1523.4</ele>
        <time>2024-09-25T13:26:49Z</time>
      </trkpt>
      <trkpt lat="42.37582" lon="2.19479">
        <ele>1523.3</ele>
        <time>2024-09-25T13:26:50Z</time>
      </trkpt>
      <trkpt lat="42.37582" lon="2.19478">
        <ele>1523.2</ele>
        <time>2024-09-25T13:26:51Z</time>
      </trkpt>
      <trkpt lat="42.37581" lon="2.19478">
        <ele>1523.1</ele>
        <time>2024-09-25T13:26:52Z</time>
      </trkpt>
      <trkpt lat="42.37581" lon="2.19477">
        <ele>1523</ele>
        <time>2024-09-25T13:26:53Z</time>
      </trkpt>
      <trkpt lat="42.37581" lon="2.19476">
        <ele>1522.9</ele>
        <time>2024-09-25T13:26:54Z</time>
      </trkpt>
      <trkpt lat="42.37581" lon="2.19475">
        <ele>1522.7</ele>
        <time>2024-09-25T13:26:55Z</time>
      </trkpt>
      <trkpt lat="42.37581" lon="2.19474">
        <ele>1522.5</ele>
        <time>2024-09-25T13:26:56Z</time>
      </trkpt>
      <trkpt lat="42.37582" lon="2.19472">
        <ele>1522.3</ele>
        <time>2024-09-25T13:26:57Z</time>
      </trkpt>
      <trkpt lat="42.37581" lon="2.19472">
        <ele>1522.2</ele>
        <time>2024-09-25T13:26:58Z</time>
      </trkpt>
      <trkpt lat="42.37581" lon="2.19472">
        <ele>1522.2</ele>
        <time>2024-09-25T13:26:59Z</time>
      </trkpt>
      <trkpt lat="42.37583" lon="2.19472">
        <ele>1521.9</ele>
        <time>2024-09-25T13:27:00Z</time>
      </trkpt>
      <trkpt lat="42.37584" lon="2.19471">
        <ele>1521.6</ele>
        <time>2024-09-25T13:27:01Z</time>
      </trkpt>
      <trkpt lat="42.37585" lon="2.19471">
        <ele>1521.5</ele>
        <time>2024-09-25T13:27:02Z</time>
      </trkpt>
      <trkpt lat="42.37586" lon="2.1947">
        <ele>1521.3</ele>
        <time>2024-09-25T13:27:03Z</time>
      </trkpt>
      <trkpt lat="42.37587" lon="2.19468">
        <ele>1521.1</ele>
        <time>2024-09-25T13:27:04Z</time>
      </trkpt>
      <trkpt lat="42.37588" lon="2.19467">
        <ele>1520.9</ele>
        <time>2024-09-25T13:27:05Z</time>
      </trkpt>
      <trkpt lat="42.37588" lon="2.19466">
        <ele>1520.7</ele>
        <time>2024-09-25T13:27:06Z</time>
      </trkpt>
      <trkpt lat="42.37588" lon="2.19465">
        <ele>1520.6</ele>
        <time>2024-09-25T13:27:07Z</time>
      </trkpt>
      <trkpt lat="42.37589" lon="2.19463">
        <ele>1520.4</ele>
        <time>2024-09-25T13:27:08Z</time>
      </trkpt>
      <trkpt lat="42.37589" lon="2.19462">
        <ele>1520.2</ele>
        <time>2024-09-25T13:27:09Z</time>
      </trkpt>
      <trkpt lat="42.37589" lon="2.19461">
        <ele>1520.1</ele>
        <time>2024-09-25T13:27:10Z</time>
      </trkpt>
      <trkpt lat="42.3759" lon="2.1946">
        <ele>1519.9</ele>
        <time>2024-09-25T13:27:11Z</time>
      </trkpt>
      <trkpt lat="42.37589" lon="2.19458">
        <ele>1519.7</ele>
        <time>2024-09-25T13:27:12Z</time>
      </trkpt>
      <trkpt lat="42.37588" lon="2.19458">
        <ele>1519.5</ele>
        <time>2024-09-25T13:27:13Z</time>
      </trkpt>
      <trkpt lat="42.37587" lon="2.19458">
        <ele>1519.4</ele>
        <time>2024-09-25T13:27:14Z</time>
      </trkpt>
      <trkpt lat="42.37587" lon="2.19458">
        <ele>1519.3</ele>
        <time>2024-09-25T13:27:15Z</time>
      </trkpt>
      <trkpt lat="42.37587" lon="2.19458">
        <ele>1519.3</ele>
        <time>2024-09-25T13:27:16Z</time>
      </trkpt>
      <trkpt lat="42.37588" lon="2.19458">
        <ele>1519.2</ele>
        <time>2024-09-25T13:27:17Z</time>
      </trkpt>
      <trkpt lat="42.37587" lon="2.19457">
        <ele>1519.1</ele>
        <time>2024-09-25T13:27:18Z</time>
      </trkpt>
      <trkpt lat="42.37588" lon="2.19457">
        <ele>1518.9</ele>
        <time>2024-09-25T13:27:19Z</time>
      </trkpt>
      <trkpt lat="42.37588" lon="2.19456">
        <ele>1518.9</ele>
        <time>2024-09-25T13:27:20Z</time>
      </trkpt>
      <trkpt lat="42.37588" lon="2.19456">
        <ele>1518.8</ele>
        <time>2024-09-25T13:27:21Z</time>
      </trkpt>
      <trkpt lat="42.37588" lon="2.19456">
        <ele>1518.8</ele>
        <time>2024-09-25T13:27:22Z</time>
      </trkpt>
      <trkpt lat="42.37588" lon="2.19455">
        <ele>1518.7</ele>
        <time>2024-09-25T13:27:23Z</time>
      </trkpt>
      <trkpt lat="42.37589" lon="2.19455">
        <ele>1518.6</ele>
        <time>2024-09-25T13:27:24Z</time>
      </trkpt>
      <trkpt lat="42.37589" lon="2.19455">
        <ele>1518.6</ele>
        <time>2024-09-25T13:27:25Z</time>
      </trkpt>
      <trkpt lat="42.37589" lon="2.19455">
        <ele>1518.6</ele>
        <time>2024-09-25T13:27:26Z</time>
      </trkpt>
      <trkpt lat="42.37589" lon="2.19455">
        <ele>1518.4</ele>
        <time>2024-09-25T13:27:27Z</time>
      </trkpt>
      <trkpt lat="42.3759" lon="2.19455">
        <ele>1518.3</ele>
        <time>2024-09-25T13:27:28Z</time>
      </trkpt>
      <trkpt lat="42.37592" lon="2.19454">
        <ele>1518</ele>
        <time>2024-09-25T13:27:29Z</time>
      </trkpt>
      <trkpt lat="42.37592" lon="2.19453">
        <ele>1517.9</ele>
        <time>2024-09-25T13:27:30Z</time>
      </trkpt>
      <trkpt lat="42.37593" lon="2.19452">
        <ele>1517.8</ele>
        <time>2024-09-25T13:27:31Z</time>
      </trkpt>
      <trkpt lat="42.37593" lon="2.19452">
        <ele>1517.7</ele>
        <time>2024-09-25T13:27:32Z</time>
      </trkpt>
      <trkpt lat="42.37594" lon="2.19451">
        <ele>1517.4</ele>
        <time>2024-09-25T13:27:33Z</time>
      </trkpt>
      <trkpt lat="42.37595" lon="2.1945">
        <ele>1517.3</ele>
        <time>2024-09-25T13:27:34Z</time>
      </trkpt>
      <trkpt lat="42.37595" lon="2.19449">
        <ele>1517.2</ele>
        <time>2024-09-25T13:27:35Z</time>
      </trkpt>
      <trkpt lat="42.37596" lon="2.19448">
        <ele>1516.9</ele>
        <time>2024-09-25T13:27:36Z</time>
      </trkpt>
      <trkpt lat="42.37596" lon="2.19446">
        <ele>1516.7</ele>
        <time>2024-09-25T13:27:37Z</time>
      </trkpt>
      <trkpt lat="42.37596" lon="2.19444">
        <ele>1516.4</ele>
        <time>2024-09-25T13:27:38Z</time>
      </trkpt>
      <trkpt lat="42.37595" lon="2.19442">
        <ele>1516.2</ele>
        <time>2024-09-25T13:27:39Z</time>
      </trkpt>
      <trkpt lat="42.37595" lon="2.19441">
        <ele>1516</ele>
        <time>2024-09-25T13:27:40Z</time>
      </trkpt>
      <trkpt lat="42.37595" lon="2.19438">
        <ele>1515.5</ele>
        <time>2024-09-25T13:27:41Z</time>
      </trkpt>
      <trkpt lat="42.37595" lon="2.19437">
        <ele>1515.4</ele>
        <time>2024-09-25T13:27:42Z</time>
      </trkpt>
      <trkpt lat="42.37595" lon="2.19436">
        <ele>1515.3</ele>
        <time>2024-09-25T13:27:43Z</time>
      </trkpt>
      <trkpt lat="42.37595" lon="2.19434">
        <ele>1515</ele>
        <time>2024-09-25T13:27:44Z</time>
      </trkpt>
      <trkpt lat="42.37595" lon="2.19433">
        <ele>1514.9</ele>
        <time>2024-09-25T13:27:45Z</time>
      </trkpt>
      <trkpt lat="42.37596" lon="2.19432">
        <ele>1514.8</ele>
        <time>2024-09-25T13:27:46Z</time>
      </trkpt>
      <trkpt lat="42.37596" lon="2.19431">
        <ele>1514.6</ele>
        <time>2024-09-25T13:27:47Z</time>
      </trkpt>
      <trkpt lat="42.37596" lon="2.19429">
        <ele>1514.4</ele>
        <time>2024-09-25T13:27:48Z</time>
      </trkpt>
      <trkpt lat="42.37596" lon="2.19429">
        <ele>1514.3</ele>
        <time>2024-09-25T13:27:49Z</time>
      </trkpt>
      <trkpt lat="42.37596" lon="2.19428">
        <ele>1514.2</ele>
        <time>2024-09-25T13:27:50Z</time>
      </trkpt>
      <trkpt lat="42.37595" lon="2.19427">
        <ele>1514.1</ele>
        <time>2024-09-25T13:27:51Z</time>
      </trkpt>
      <trkpt lat="42.37595" lon="2.19427">
        <ele>1513.9</ele>
        <time>2024-09-25T13:27:52Z</time>
      </trkpt>
      <trkpt lat="42.37594" lon="2.19426">
        <ele>1513.8</ele>
        <time>2024-09-25T13:27:53Z</time>
      </trkpt>
      <trkpt lat="42.37593" lon="2.19426">
        <ele>1513.7</ele>
        <time>2024-09-25T13:27:54Z</time>
      </trkpt>
      <trkpt lat="42.37592" lon="2.19426">
        <ele>1513.5</ele>
        <time>2024-09-25T13:27:55Z</time>
      </trkpt>
      <trkpt lat="42.37592" lon="2.19426">
        <ele>1513.4</ele>
        <time>2024-09-25T13:27:56Z</time>
      </trkpt>
      <trkpt lat="42.37591" lon="2.19426">
        <ele>1513.2</ele>
        <time>2024-09-25T13:27:57Z</time>
      </trkpt>
      <trkpt lat="42.3759" lon="2.19426">
        <ele>1513</ele>
        <time>2024-09-25T13:27:58Z</time>
      </trkpt>
      <trkpt lat="42.37589" lon="2.19427">
        <ele>1512.9</ele>
        <time>2024-09-25T13:27:59Z</time>
      </trkpt>
      <trkpt lat="42.37588" lon="2.19427">
        <ele>1512.7</ele>
        <time>2024-09-25T13:28:00Z</time>
      </trkpt>
      <trkpt lat="42.37587" lon="2.19428">
        <ele>1512.5</ele>
        <time>2024-09-25T13:28:01Z</time>
      </trkpt>
      <trkpt lat="42.37586" lon="2.19428">
        <ele>1512.4</ele>
        <time>2024-09-25T13:28:02Z</time>
      </trkpt>
      <trkpt lat="42.37585" lon="2.19429">
        <ele>1512.2</ele>
        <time>2024-09-25T13:28:03Z</time>
      </trkpt>
      <trkpt lat="42.37585" lon="2.19429">
        <ele>1512.1</ele>
        <time>2024-09-25T13:28:04Z</time>
      </trkpt>
      <trkpt lat="42.37584" lon="2.19429">
        <ele>1511.9</ele>
        <time>2024-09-25T13:28:05Z</time>
      </trkpt>
      <trkpt lat="42.37583" lon="2.1943">
        <ele>1511.8</ele>
        <time>2024-09-25T13:28:06Z</time>
      </trkpt>
      <trkpt lat="42.37582" lon="2.1943">
        <ele>1511.7</ele>
        <time>2024-09-25T13:28:07Z</time>
      </trkpt>
      <trkpt lat="42.37582" lon="2.1943">
        <ele>1511.5</ele>
        <time>2024-09-25T13:28:08Z</time>
      </trkpt>
      <trkpt lat="42.37581" lon="2.1943">
        <ele>1511.4</ele>
        <time>2024-09-25T13:28:09Z</time>
      </trkpt>
      <trkpt lat="42.3758" lon="2.19431">
        <ele>1511.2</ele>
        <time>2024-09-25T13:28:10Z</time>
      </trkpt>
      <trkpt lat="42.37579" lon="2.19431">
        <ele>1511.1</ele>
        <time>2024-09-25T13:28:11Z</time>
      </trkpt>
      <trkpt lat="42.37579" lon="2.19432">
        <ele>1510.9</ele>
        <time>2024-09-25T13:28:12Z</time>
      </trkpt>
      <trkpt lat="42.37578" lon="2.19432">
        <ele>1510.8</ele>
        <time>2024-09-25T13:28:13Z</time>
      </trkpt>
      <trkpt lat="42.37577" lon="2.19432">
        <ele>1510.6</ele>
        <time>2024-09-25T13:28:14Z</time>
      </trkpt>
      <trkpt lat="42.37576" lon="2.19432">
        <ele>1510.5</ele>
        <time>2024-09-25T13:28:15Z</time>
      </trkpt>
      <trkpt lat="42.37575" lon="2.19432">
        <ele>1510.4</ele>
        <time>2024-09-25T13:28:16Z</time>
      </trkpt>
      <trkpt lat="42.37575" lon="2.19431">
        <ele>1510.2</ele>
        <time>2024-09-25T13:28:17Z</time>
      </trkpt>
      <trkpt lat="42.37574" lon="2.19431">
        <ele>1510.1</ele>
        <time>2024-09-25T13:28:18Z</time>
      </trkpt>
      <trkpt lat="42.37573" lon="2.19432">
        <ele>1509.9</ele>
        <time>2024-09-25T13:28:19Z</time>
      </trkpt>
      <trkpt lat="42.37573" lon="2.19431">
        <ele>1509.7</ele>
        <time>2024-09-25T13:28:20Z</time>
      </trkpt>
      <trkpt lat="42.37572" lon="2.19433">
        <ele>1509.5</ele>
        <time>2024-09-25T13:28:21Z</time>
      </trkpt>
      <trkpt lat="42.37571" lon="2.19434">
        <ele>1509.2</ele>
        <time>2024-09-25T13:28:22Z</time>
      </trkpt>
      <trkpt lat="42.3757" lon="2.19435">
        <ele>1509</ele>
        <time>2024-09-25T13:28:23Z</time>
      </trkpt>
      <trkpt lat="42.37569" lon="2.19436">
        <ele>1508.8</ele>
        <time>2024-09-25T13:28:24Z</time>
      </trkpt>
      <trkpt lat="42.37568" lon="2.19437">
        <ele>1508.7</ele>
        <time>2024-09-25T13:28:25Z</time>
      </trkpt>
      <trkpt lat="42.37568" lon="2.19437">
        <ele>1508.5</ele>
        <time>2024-09-25T13:28:26Z</time>
      </trkpt>
      <trkpt lat="42.37567" lon="2.19438">
        <ele>1508.4</ele>
        <time>2024-09-25T13:28:27Z</time>
      </trkpt>
      <trkpt lat="42.37566" lon="2.19439">
        <ele>1508.2</ele>
        <time>2024-09-25T13:28:28Z</time>
      </trkpt>
      <trkpt lat="42.37566" lon="2.19438">
        <ele>1508.1</ele>
        <time>2024-09-25T13:28:29Z</time>
      </trkpt>
      <trkpt lat="42.37565" lon="2.19438">
        <ele>1507.9</ele>
        <time>2024-09-25T13:28:30Z</time>
      </trkpt>
      <trkpt lat="42.37564" lon="2.19439">
        <ele>1507.7</ele>
        <time>2024-09-25T13:28:31Z</time>
      </trkpt>
      <trkpt lat="42.37563" lon="2.19439">
        <ele>1507.6</ele>
        <time>2024-09-25T13:28:32Z</time>
      </trkpt>
      <trkpt lat="42.37562" lon="2.19439">
        <ele>1507.5</ele>
        <time>2024-09-25T13:28:33Z</time>
      </trkpt>
      <trkpt lat="42.37562" lon="2.19439">
        <ele>1507.4</ele>
        <time>2024-09-25T13:28:34Z</time>
      </trkpt>
      <trkpt lat="42.37561" lon="2.19439">
        <ele>1507.2</ele>
        <time>2024-09-25T13:28:35Z</time>
      </trkpt>
      <trkpt lat="42.37561" lon="2.1944">
        <ele>1507.1</ele>
        <time>2024-09-25T13:28:36Z</time>
      </trkpt>
      <trkpt lat="42.3756" lon="2.1944">
        <ele>1507</ele>
        <time>2024-09-25T13:28:37Z</time>
      </trkpt>
      <trkpt lat="42.37559" lon="2.1944">
        <ele>1506.8</ele>
        <time>2024-09-25T13:28:38Z</time>
      </trkpt>
      <trkpt lat="42.37558" lon="2.1944">
        <ele>1506.7</ele>
        <time>2024-09-25T13:28:39Z</time>
      </trkpt>
      <trkpt lat="42.37558" lon="2.1944">
        <ele>1506.6</ele>
        <time>2024-09-25T13:28:40Z</time>
      </trkpt>
      <trkpt lat="42.37557" lon="2.1944">
        <ele>1506.5</ele>
        <time>2024-09-25T13:28:41Z</time>
      </trkpt>
      <trkpt lat="42.37556" lon="2.1944">
        <ele>1506.4</ele>
        <time>2024-09-25T13:28:42Z</time>
      </trkpt>
      <trkpt lat="42.37556" lon="2.19441">
        <ele>1506.3</ele>
        <time>2024-09-25T13:28:43Z</time>
      </trkpt>
      <trkpt lat="42.37555" lon="2.1944">
        <ele>1506.2</ele>
        <time>2024-09-25T13:28:44Z</time>
      </trkpt>
      <trkpt lat="42.37555" lon="2.19441">
        <ele>1506</ele>
        <time>2024-09-25T13:28:45Z</time>
      </trkpt>
      <trkpt lat="42.37554" lon="2.19442">
        <ele>1505.9</ele>
        <time>2024-09-25T13:28:46Z</time>
      </trkpt>
      <trkpt lat="42.37553" lon="2.19442">
        <ele>1505.7</ele>
        <time>2024-09-25T13:28:47Z</time>
      </trkpt>
      <trkpt lat="42.37553" lon="2.19442">
        <ele>1505.6</ele>
        <time>2024-09-25T13:28:48Z</time>
      </trkpt>
      <trkpt lat="42.37552" lon="2.19442">
        <ele>1505.5</ele>
        <time>2024-09-25T13:28:49Z</time>
      </trkpt>
      <trkpt lat="42.37552" lon="2.19443">
        <ele>1505.4</ele>
        <time>2024-09-25T13:28:50Z</time>
      </trkpt>
      <trkpt lat="42.37551" lon="2.19443">
        <ele>1505.3</ele>
        <time>2024-09-25T13:28:51Z</time>
      </trkpt>
      <trkpt lat="42.3755" lon="2.19443">
        <ele>1505.2</ele>
        <time>2024-09-25T13:28:52Z</time>
      </trkpt>
      <trkpt lat="42.3755" lon="2.19442">
        <ele>1505.1</ele>
        <time>2024-09-25T13:28:53Z</time>
      </trkpt>
      <trkpt lat="42.37549" lon="2.19444">
        <ele>1504.9</ele>
        <time>2024-09-25T13:28:54Z</time>
      </trkpt>
      <trkpt lat="42.37548" lon="2.19444">
        <ele>1504.7</ele>
        <time>2024-09-25T13:28:55Z</time>
      </trkpt>
      <trkpt lat="42.37547" lon="2.19445">
        <ele>1504.5</ele>
        <time>2024-09-25T13:28:56Z</time>
      </trkpt>
      <trkpt lat="42.37546" lon="2.19445">
        <ele>1504.4</ele>
        <time>2024-09-25T13:28:57Z</time>
      </trkpt>
      <trkpt lat="42.37545" lon="2.19445">
        <ele>1504.2</ele>
        <time>2024-09-25T13:28:58Z</time>
      </trkpt>
      <trkpt lat="42.37545" lon="2.19446">
        <ele>1504.1</ele>
        <time>2024-09-25T13:28:59Z</time>
      </trkpt>
      <trkpt lat="42.37544" lon="2.19446">
        <ele>1503.9</ele>
        <time>2024-09-25T13:29:00Z</time>
      </trkpt>
      <trkpt lat="42.37544" lon="2.19446">
        <ele>1503.9</ele>
        <time>2024-09-25T13:29:01Z</time>
      </trkpt>
      <trkpt lat="42.37543" lon="2.19446">
        <ele>1503.8</ele>
        <time>2024-09-25T13:29:02Z</time>
      </trkpt>
      <trkpt lat="42.37543" lon="2.19446">
        <ele>1503.7</ele>
        <time>2024-09-25T13:29:03Z</time>
      </trkpt>
      <trkpt lat="42.37542" lon="2.19446">
        <ele>1503.6</ele>
        <time>2024-09-25T13:29:04Z</time>
      </trkpt>
      <trkpt lat="42.37542" lon="2.19446">
        <ele>1503.5</ele>
        <time>2024-09-25T13:29:05Z</time>
      </trkpt>
      <trkpt lat="42.37541" lon="2.19446">
        <ele>1503.4</ele>
        <time>2024-09-25T13:29:06Z</time>
      </trkpt>
      <trkpt lat="42.37541" lon="2.19446">
        <ele>1503.3</ele>
        <time>2024-09-25T13:29:07Z</time>
      </trkpt>
      <trkpt lat="42.3754" lon="2.19445">
        <ele>1503.3</ele>
        <time>2024-09-25T13:29:08Z</time>
      </trkpt>
      <trkpt lat="42.3754" lon="2.19445">
        <ele>1503.2</ele>
        <time>2024-09-25T13:29:09Z</time>
      </trkpt>
      <trkpt lat="42.37539" lon="2.19444">
        <ele>1503.1</ele>
        <time>2024-09-25T13:29:10Z</time>
      </trkpt>
      <trkpt lat="42.3754" lon="2.19444">
        <ele>1503</ele>
        <time>2024-09-25T13:29:11Z</time>
      </trkpt>
      <trkpt lat="42.3754" lon="2.19442">
        <ele>1502.8</ele>
        <time>2024-09-25T13:29:12Z</time>
      </trkpt>
      <trkpt lat="42.3754" lon="2.19441">
        <ele>1502.7</ele>
        <time>2024-09-25T13:29:13Z</time>
      </trkpt>
      <trkpt lat="42.37541" lon="2.1944">
        <ele>1502.5</ele>
        <time>2024-09-25T13:29:14Z</time>
      </trkpt>
      <trkpt lat="42.37541" lon="2.19439">
        <ele>1502.4</ele>
        <time>2024-09-25T13:29:15Z</time>
      </trkpt>
      <trkpt lat="42.37542" lon="2.19438">
        <ele>1502.3</ele>
        <time>2024-09-25T13:29:16Z</time>
      </trkpt>
      <trkpt lat="42.37542" lon="2.19438">
        <ele>1502.2</ele>
        <time>2024-09-25T13:29:17Z</time>
      </trkpt>
      <trkpt lat="42.37542" lon="2.19437">
        <ele>1502.1</ele>
        <time>2024-09-25T13:29:18Z</time>
      </trkpt>
      <trkpt lat="42.37542" lon="2.19437">
        <ele>1502.1</ele>
        <time>2024-09-25T13:29:19Z</time>
      </trkpt>
      <trkpt lat="42.37541" lon="2.19437">
        <ele>1502</ele>
        <time>2024-09-25T13:29:20Z</time>
      </trkpt>
      <trkpt lat="42.37541" lon="2.19437">
        <ele>1502</ele>
        <time>2024-09-25T13:29:21Z</time>
      </trkpt>
      <trkpt lat="42.37541" lon="2.19438">
        <ele>1502</ele>
        <time>2024-09-25T13:29:22Z</time>
      </trkpt>
      <trkpt lat="42.3754" lon="2.19438">
        <ele>1501.9</ele>
        <time>2024-09-25T13:29:23Z</time>
      </trkpt>
      <trkpt lat="42.3754" lon="2.19439">
        <ele>1501.7</ele>
        <time>2024-09-25T13:29:24Z</time>
      </trkpt>
      <trkpt lat="42.37539" lon="2.19439">
        <ele>1501.7</ele>
        <time>2024-09-25T13:29:25Z</time>
      </trkpt>
      <trkpt lat="42.37539" lon="2.19439">
        <ele>1501.6</ele>
        <time>2024-09-25T13:29:26Z</time>
      </trkpt>
      <trkpt lat="42.37538" lon="2.19439">
        <ele>1501.5</ele>
        <time>2024-09-25T13:29:27Z</time>
      </trkpt>
      <trkpt lat="42.37537" lon="2.19439">
        <ele>1501.4</ele>
        <time>2024-09-25T13:29:28Z</time>
      </trkpt>
      <trkpt lat="42.37537" lon="2.19439">
        <ele>1501.4</ele>
        <time>2024-09-25T13:29:29Z</time>
      </trkpt>
      <trkpt lat="42.37537" lon="2.19439">
        <ele>1501.4</ele>
        <time>2024-09-25T13:29:30Z</time>
      </trkpt>
      <trkpt lat="42.37537" lon="2.19439">
        <ele>1501.3</ele>
        <time>2024-09-25T13:29:31Z</time>
      </trkpt>
      <trkpt lat="42.37537" lon="2.19438">
        <ele>1501.3</ele>
        <time>2024-09-25T13:29:32Z</time>
      </trkpt>
      <trkpt lat="42.37537" lon="2.19438">
        <ele>1501.2</ele>
        <time>2024-09-25T13:29:33Z</time>
      </trkpt>
      <trkpt lat="42.37537" lon="2.19438">
        <ele>1501.2</ele>
        <time>2024-09-25T13:29:34Z</time>
      </trkpt>
      <trkpt lat="42.37536" lon="2.19437">
        <ele>1501.1</ele>
        <time>2024-09-25T13:29:35Z</time>
      </trkpt>
      <trkpt lat="42.37536" lon="2.19437">
        <ele>1501</ele>
        <time>2024-09-25T13:29:36Z</time>
      </trkpt>
      <trkpt lat="42.37535" lon="2.19437">
        <ele>1500.9</ele>
        <time>2024-09-25T13:29:37Z</time>
      </trkpt>
      <trkpt lat="42.37534" lon="2.19436">
        <ele>1500.7</ele>
        <time>2024-09-25T13:29:38Z</time>
      </trkpt>
      <trkpt lat="42.37533" lon="2.19436">
        <ele>1500.6</ele>
        <time>2024-09-25T13:29:39Z</time>
      </trkpt>
      <trkpt lat="42.37533" lon="2.19435">
        <ele>1500.6</ele>
        <time>2024-09-25T13:29:40Z</time>
      </trkpt>
      <trkpt lat="42.37533" lon="2.19434">
        <ele>1500.5</ele>
        <time>2024-09-25T13:29:41Z</time>
      </trkpt>
      <trkpt lat="42.37532" lon="2.19434">
        <ele>1500.4</ele>
        <time>2024-09-25T13:29:42Z</time>
      </trkpt>
      <trkpt lat="42.37531" lon="2.19433">
        <ele>1500.2</ele>
        <time>2024-09-25T13:29:43Z</time>
      </trkpt>
      <trkpt lat="42.3753" lon="2.19432">
        <ele>1500</ele>
        <time>2024-09-25T13:29:44Z</time>
      </trkpt>
      <trkpt lat="42.3753" lon="2.19432">
        <ele>1499.9</ele>
        <time>2024-09-25T13:29:45Z</time>
      </trkpt>
      <trkpt lat="42.37529" lon="2.19431">
        <ele>1499.8</ele>
        <time>2024-09-25T13:29:46Z</time>
      </trkpt>
      <trkpt lat="42.37528" lon="2.19431">
        <ele>1499.7</ele>
        <time>2024-09-25T13:29:47Z</time>
      </trkpt>
      <trkpt lat="42.37527" lon="2.1943">
        <ele>1499.5</ele>
        <time>2024-09-25T13:29:48Z</time>
      </trkpt>
      <trkpt lat="42.37527" lon="2.1943">
        <ele>1499.4</ele>
        <time>2024-09-25T13:29:49Z</time>
      </trkpt>
      <trkpt lat="42.37526" lon="2.19429">
        <ele>1499.3</ele>
        <time>2024-09-25T13:29:50Z</time>
      </trkpt>
      <trkpt lat="42.37525" lon="2.19429">
        <ele>1499.1</ele>
        <time>2024-09-25T13:29:51Z</time>
      </trkpt>
      <trkpt lat="42.37524" lon="2.19429">
        <ele>1499</ele>
        <time>2024-09-25T13:29:52Z</time>
      </trkpt>
      <trkpt lat="42.37523" lon="2.19429">
        <ele>1498.9</ele>
        <time>2024-09-25T13:29:53Z</time>
      </trkpt>
      <trkpt lat="42.37523" lon="2.19428">
        <ele>1498.8</ele>
        <time>2024-09-25T13:29:54Z</time>
      </trkpt>
      <trkpt lat="42.37522" lon="2.19428">
        <ele>1498.7</ele>
        <time>2024-09-25T13:29:55Z</time>
      </trkpt>
      <trkpt lat="42.37522" lon="2.19427">
        <ele>1498.6</ele>
        <time>2024-09-25T13:29:56Z</time>
      </trkpt>
      <trkpt lat="42.37521" lon="2.19426">
        <ele>1498.4</ele>
        <time>2024-09-25T13:29:57Z</time>
      </trkpt>
      <trkpt lat="42.3752" lon="2.19426">
        <ele>1498.3</ele>
        <time>2024-09-25T13:29:58Z</time>
      </trkpt>
      <trkpt lat="42.3752" lon="2.19426">
        <ele>1498.2</ele>
        <time>2024-09-25T13:29:59Z</time>
      </trkpt>
      <trkpt lat="42.3752" lon="2.19426">
        <ele>1498.2</ele>
        <time>2024-09-25T13:30:00Z</time>
      </trkpt>
      <trkpt lat="42.3752" lon="2.19426">
        <ele>1498.2</ele>
        <time>2024-09-25T13:30:01Z</time>
      </trkpt>
      <trkpt lat="42.3752" lon="2.19426">
        <ele>1498.1</ele>
        <time>2024-09-25T13:30:02Z</time>
      </trkpt>
      <trkpt lat="42.37521" lon="2.19425">
        <ele>1498.1</ele>
        <time>2024-09-25T13:30:03Z</time>
      </trkpt>
      <trkpt lat="42.37521" lon="2.19425">
        <ele>1498</ele>
        <time>2024-09-25T13:30:04Z</time>
      </trkpt>
      <trkpt lat="42.37522" lon="2.19424">
        <ele>1497.9</ele>
        <time>2024-09-25T13:30:05Z</time>
      </trkpt>
      <trkpt lat="42.37523" lon="2.19423">
        <ele>1497.5</ele>
        <time>2024-09-25T13:30:06Z</time>
      </trkpt>
      <trkpt lat="42.37524" lon="2.19424">
        <ele>1497.4</ele>
        <time>2024-09-25T13:30:07Z</time>
      </trkpt>
      <trkpt lat="42.37523" lon="2.19424">
        <ele>1497.3</ele>
        <time>2024-09-25T13:30:08Z</time>
      </trkpt>
      <trkpt lat="42.37523" lon="2.19424">
        <ele>1497.2</ele>
        <time>2024-09-25T13:30:09Z</time>
      </trkpt>
      <trkpt lat="42.37523" lon="2.19423">
        <ele>1497.1</ele>
        <time>2024-09-25T13:30:10Z</time>
      </trkpt>
      <trkpt lat="42.37524" lon="2.19423">
        <ele>1497</ele>
        <time>2024-09-25T13:30:11Z</time>
      </trkpt>
      <trkpt lat="42.37524" lon="2.19422">
        <ele>1496.9</ele>
        <time>2024-09-25T13:30:12Z</time>
      </trkpt>
      <trkpt lat="42.37525" lon="2.19422">
        <ele>1496.8</ele>
        <time>2024-09-25T13:30:13Z</time>
      </trkpt>
      <trkpt lat="42.37525" lon="2.19422">
        <ele>1496.7</ele>
        <time>2024-09-25T13:30:14Z</time>
      </trkpt>
      <trkpt lat="42.37525" lon="2.19422">
        <ele>1496.6</ele>
        <time>2024-09-25T13:30:15Z</time>
      </trkpt>
      <trkpt lat="42.37526" lon="2.19422">
        <ele>1496.5</ele>
        <time>2024-09-25T13:30:16Z</time>
      </trkpt>
      <trkpt lat="42.37527" lon="2.19422">
        <ele>1496.5</ele>
        <time>2024-09-25T13:30:17Z</time>
      </trkpt>
      <trkpt lat="42.37527" lon="2.19422">
        <ele>1496.4</ele>
        <time>2024-09-25T13:30:18Z</time>
      </trkpt>
      <trkpt lat="42.37528" lon="2.19421">
        <ele>1496.1</ele>
        <time>2024-09-25T13:30:19Z</time>
      </trkpt>
      <trkpt lat="42.37529" lon="2.19421">
        <ele>1496</ele>
        <time>2024-09-25T13:30:20Z</time>
      </trkpt>
      <trkpt lat="42.37529" lon="2.19421">
        <ele>1495.9</ele>
        <time>2024-09-25T13:30:21Z</time>
      </trkpt>
      <trkpt lat="42.3753" lon="2.1942">
        <ele>1495.8</ele>
        <time>2024-09-25T13:30:22Z</time>
      </trkpt>
      <trkpt lat="42.3753" lon="2.19419">
        <ele>1495.7</ele>
        <time>2024-09-25T13:30:23Z</time>
      </trkpt>
      <trkpt lat="42.37531" lon="2.19419">
        <ele>1495.5</ele>
        <time>2024-09-25T13:30:24Z</time>
      </trkpt>
      <trkpt lat="42.37532" lon="2.19418">
        <ele>1495.4</ele>
        <time>2024-09-25T13:30:25Z</time>
      </trkpt>
      <trkpt lat="42.37532" lon="2.19418">
        <ele>1495.3</ele>
        <time>2024-09-25T13:30:26Z</time>
      </trkpt>
      <trkpt lat="42.37532" lon="2.19416">
        <ele>1495</ele>
        <time>2024-09-25T13:30:27Z</time>
      </trkpt>
      <trkpt lat="42.37532" lon="2.19415">
        <ele>1494.9</ele>
        <time>2024-09-25T13:30:28Z</time>
      </trkpt>
      <trkpt lat="42.37533" lon="2.19414">
        <ele>1494.6</ele>
        <time>2024-09-25T13:30:29Z</time>
      </trkpt>
      <trkpt lat="42.37535" lon="2.19412">
        <ele>1494.3</ele>
        <time>2024-09-25T13:30:30Z</time>
      </trkpt>
      <trkpt lat="42.37535" lon="2.19411">
        <ele>1494.1</ele>
        <time>2024-09-25T13:30:31Z</time>
      </trkpt>
      <trkpt lat="42.37535" lon="2.1941">
        <ele>1493.9</ele>
        <time>2024-09-25T13:30:32Z</time>
      </trkpt>
      <trkpt lat="42.37536" lon="2.19409">
        <ele>1493.8</ele>
        <time>2024-09-25T13:30:33Z</time>
      </trkpt>
      <trkpt lat="42.37536" lon="2.19409">
        <ele>1493.7</ele>
        <time>2024-09-25T13:30:34Z</time>
      </trkpt>
      <trkpt lat="42.37536" lon="2.19408">
        <ele>1493.5</ele>
        <time>2024-09-25T13:30:35Z</time>
      </trkpt>
      <trkpt lat="42.37536" lon="2.19406">
        <ele>1493.3</ele>
        <time>2024-09-25T13:30:36Z</time>
      </trkpt>
      <trkpt lat="42.37536" lon="2.19405">
        <ele>1493.1</ele>
        <time>2024-09-25T13:30:37Z</time>
      </trkpt>
      <trkpt lat="42.37535" lon="2.19404">
        <ele>1492.9</ele>
        <time>2024-09-25T13:30:38Z</time>
      </trkpt>
      <trkpt lat="42.37535" lon="2.19404">
        <ele>1492.8</ele>
        <time>2024-09-25T13:30:39Z</time>
      </trkpt>
      <trkpt lat="42.37534" lon="2.19402">
        <ele>1492.6</ele>
        <time>2024-09-25T13:30:40Z</time>
      </trkpt>
      <trkpt lat="42.37533" lon="2.19402">
        <ele>1492.4</ele>
        <time>2024-09-25T13:30:41Z</time>
      </trkpt>
      <trkpt lat="42.37532" lon="2.19402">
        <ele>1492.1</ele>
        <time>2024-09-25T13:30:42Z</time>
      </trkpt>
      <trkpt lat="42.37531" lon="2.19402">
        <ele>1491.9</ele>
        <time>2024-09-25T13:30:43Z</time>
      </trkpt>
      <trkpt lat="42.3753" lon="2.19403">
        <ele>1491.8</ele>
        <time>2024-09-25T13:30:44Z</time>
      </trkpt>
      <trkpt lat="42.37529" lon="2.19402">
        <ele>1491.6</ele>
        <time>2024-09-25T13:30:45Z</time>
      </trkpt>
      <trkpt lat="42.37528" lon="2.19402">
        <ele>1491.4</ele>
        <time>2024-09-25T13:30:46Z</time>
      </trkpt>
      <trkpt lat="42.37527" lon="2.19402">
        <ele>1491.2</ele>
        <time>2024-09-25T13:30:47Z</time>
      </trkpt>
      <trkpt lat="42.37526" lon="2.19402">
        <ele>1491.1</ele>
        <time>2024-09-25T13:30:48Z</time>
      </trkpt>
      <trkpt lat="42.37526" lon="2.19402">
        <ele>1491</ele>
        <time>2024-09-25T13:30:49Z</time>
      </trkpt>
      <trkpt lat="42.37525" lon="2.19401">
        <ele>1490.8</ele>
        <time>2024-09-25T13:30:50Z</time>
      </trkpt>
      <trkpt lat="42.37524" lon="2.19402">
        <ele>1490.7</ele>
        <time>2024-09-25T13:30:51Z</time>
      </trkpt>
      <trkpt lat="42.37524" lon="2.19402">
        <ele>1490.6</ele>
        <time>2024-09-25T13:30:52Z</time>
      </trkpt>
      <trkpt lat="42.37523" lon="2.19402">
        <ele>1490.4</ele>
        <time>2024-09-25T13:30:53Z</time>
      </trkpt>
      <trkpt lat="42.37522" lon="2.19402">
        <ele>1490.3</ele>
        <time>2024-09-25T13:30:54Z</time>
      </trkpt>
      <trkpt lat="42.37521" lon="2.19402">
        <ele>1490.1</ele>
        <time>2024-09-25T13:30:55Z</time>
      </trkpt>
      <trkpt lat="42.3752" lon="2.19402">
        <ele>1489.9</ele>
        <time>2024-09-25T13:30:56Z</time>
      </trkpt>
      <trkpt lat="42.37519" lon="2.19401">
        <ele>1489.7</ele>
        <time>2024-09-25T13:30:57Z</time>
      </trkpt>
      <trkpt lat="42.37519" lon="2.194">
        <ele>1489.6</ele>
        <time>2024-09-25T13:30:58Z</time>
      </trkpt>
      <trkpt lat="42.37518" lon="2.19399">
        <ele>1489.4</ele>
        <time>2024-09-25T13:30:59Z</time>
      </trkpt>
      <trkpt lat="42.37518" lon="2.19399">
        <ele>1489.4</ele>
        <time>2024-09-25T13:31:00Z</time>
      </trkpt>
      <trkpt lat="42.37518" lon="2.19399">
        <ele>1489.4</ele>
        <time>2024-09-25T13:31:01Z</time>
      </trkpt>
      <trkpt lat="42.37519" lon="2.19399">
        <ele>1489.3</ele>
        <time>2024-09-25T13:31:02Z</time>
      </trkpt>
      <trkpt lat="42.37519" lon="2.194">
        <ele>1489.2</ele>
        <time>2024-09-25T13:31:03Z</time>
      </trkpt>
      <trkpt lat="42.37519" lon="2.194">
        <ele>1489.2</ele>
        <time>2024-09-25T13:31:04Z</time>
      </trkpt>
      <trkpt lat="42.37519" lon="2.194">
        <ele>1489.2</ele>
        <time>2024-09-25T13:31:05Z</time>
      </trkpt>
      <trkpt lat="42.37519" lon="2.194">
        <ele>1489.2</ele>
        <time>2024-09-25T13:31:06Z</time>
      </trkpt>
      <trkpt lat="42.37519" lon="2.194">
        <ele>1489.1</ele>
        <time>2024-09-25T13:31:07Z</time>
      </trkpt>
      <trkpt lat="42.37518" lon="2.194">
        <ele>1488.9</ele>
        <time>2024-09-25T13:31:08Z</time>
      </trkpt>
      <trkpt lat="42.37517" lon="2.19402">
        <ele>1488.7</ele>
        <time>2024-09-25T13:31:09Z</time>
      </trkpt>
      <trkpt lat="42.37517" lon="2.19403">
        <ele>1488.5</ele>
        <time>2024-09-25T13:31:10Z</time>
      </trkpt>
      <trkpt lat="42.37517" lon="2.19403">
        <ele>1488.3</ele>
        <time>2024-09-25T13:31:11Z</time>
      </trkpt>
      <trkpt lat="42.37515" lon="2.19402">
        <ele>1488</ele>
        <time>2024-09-25T13:31:12Z</time>
      </trkpt>
      <trkpt lat="42.37514" lon="2.19402">
        <ele>1487.8</ele>
        <time>2024-09-25T13:31:13Z</time>
      </trkpt>
      <trkpt lat="42.37513" lon="2.19402">
        <ele>1487.6</ele>
        <time>2024-09-25T13:31:14Z</time>
      </trkpt>
      <trkpt lat="42.37512" lon="2.19402">
        <ele>1487.3</ele>
        <time>2024-09-25T13:31:15Z</time>
      </trkpt>
      <trkpt lat="42.37511" lon="2.19402">
        <ele>1487.2</ele>
        <time>2024-09-25T13:31:16Z</time>
      </trkpt>
      <trkpt lat="42.3751" lon="2.19402">
        <ele>1487.1</ele>
        <time>2024-09-25T13:31:17Z</time>
      </trkpt>
      <trkpt lat="42.37509" lon="2.19401">
        <ele>1486.8</ele>
        <time>2024-09-25T13:31:18Z</time>
      </trkpt>
      <trkpt lat="42.37508" lon="2.19399">
        <ele>1486.5</ele>
        <time>2024-09-25T13:31:19Z</time>
      </trkpt>
      <trkpt lat="42.37507" lon="2.19399">
        <ele>1486.3</ele>
        <time>2024-09-25T13:31:20Z</time>
      </trkpt>
      <trkpt lat="42.37505" lon="2.19398">
        <ele>1485.9</ele>
        <time>2024-09-25T13:31:21Z</time>
      </trkpt>
      <trkpt lat="42.37503" lon="2.19401">
        <ele>1485.3</ele>
        <time>2024-09-25T13:31:22Z</time>
      </trkpt>
      <trkpt lat="42.37502" lon="2.19403">
        <ele>1485</ele>
        <time>2024-09-25T13:31:23Z</time>
      </trkpt>
      <trkpt lat="42.37501" lon="2.19403">
        <ele>1484.8</ele>
        <time>2024-09-25T13:31:24Z</time>
      </trkpt>
      <trkpt lat="42.375" lon="2.19404">
        <ele>1484.6</ele>
        <time>2024-09-25T13:31:25Z</time>
      </trkpt>
      <trkpt lat="42.37498" lon="2.19405">
        <ele>1484.2</ele>
        <time>2024-09-25T13:31:26Z</time>
      </trkpt>
      <trkpt lat="42.37497" lon="2.19405">
        <ele>1484</ele>
        <time>2024-09-25T13:31:27Z</time>
      </trkpt>
      <trkpt lat="42.37497" lon="2.19406">
        <ele>1483.8</ele>
        <time>2024-09-25T13:31:28Z</time>
      </trkpt>
      <trkpt lat="42.37495" lon="2.19408">
        <ele>1483.5</ele>
        <time>2024-09-25T13:31:29Z</time>
      </trkpt>
      <trkpt lat="42.37494" lon="2.19409">
        <ele>1483.2</ele>
        <time>2024-09-25T13:31:30Z</time>
      </trkpt>
      <trkpt lat="42.37493" lon="2.19409">
        <ele>1483.1</ele>
        <time>2024-09-25T13:31:31Z</time>
      </trkpt>
      <trkpt lat="42.37493" lon="2.19409">
        <ele>1483</ele>
        <time>2024-09-25T13:31:32Z</time>
      </trkpt>
      <trkpt lat="42.37493" lon="2.19409">
        <ele>1483</ele>
        <time>2024-09-25T13:31:33Z</time>
      </trkpt>
      <trkpt lat="42.37493" lon="2.19409">
        <ele>1482.9</ele>
        <time>2024-09-25T13:31:34Z</time>
      </trkpt>
      <trkpt lat="42.37493" lon="2.19409">
        <ele>1482.9</ele>
        <time>2024-09-25T13:31:35Z</time>
      </trkpt>
      <trkpt lat="42.37492" lon="2.1941">
        <ele>1482.8</ele>
        <time>2024-09-25T13:31:36Z</time>
      </trkpt>
      <trkpt lat="42.37492" lon="2.19411">
        <ele>1482.6</ele>
        <time>2024-09-25T13:31:37Z</time>
      </trkpt>
      <trkpt lat="42.37492" lon="2.19412">
        <ele>1482.5</ele>
        <time>2024-09-25T13:31:38Z</time>
      </trkpt>
      <trkpt lat="42.37492" lon="2.19413">
        <ele>1482.3</ele>
        <time>2024-09-25T13:31:39Z</time>
      </trkpt>
      <trkpt lat="42.37491" lon="2.19414">
        <ele>1482.2</ele>
        <time>2024-09-25T13:31:40Z</time>
      </trkpt>
      <trkpt lat="42.3749" lon="2.19415">
        <ele>1482</ele>
        <time>2024-09-25T13:31:41Z</time>
      </trkpt>
      <trkpt lat="42.37489" lon="2.19416">
        <ele>1481.7</ele>
        <time>2024-09-25T13:31:42Z</time>
      </trkpt>
      <trkpt lat="42.37487" lon="2.19417">
        <ele>1481.5</ele>
        <time>2024-09-25T13:31:43Z</time>
      </trkpt>
      <trkpt lat="42.37486" lon="2.19418">
        <ele>1481.2</ele>
        <time>2024-09-25T13:31:44Z</time>
      </trkpt>
      <trkpt lat="42.37485" lon="2.19419">
        <ele>1481</ele>
        <time>2024-09-25T13:31:45Z</time>
      </trkpt>
      <trkpt lat="42.37484" lon="2.1942">
        <ele>1480.8</ele>
        <time>2024-09-25T13:31:46Z</time>
      </trkpt>
      <trkpt lat="42.37484" lon="2.19422">
        <ele>1480.7</ele>
        <time>2024-09-25T13:31:47Z</time>
      </trkpt>
      <trkpt lat="42.37484" lon="2.19423">
        <ele>1480.5</ele>
        <time>2024-09-25T13:31:48Z</time>
      </trkpt>
      <trkpt lat="42.37484" lon="2.19424">
        <ele>1480.4</ele>
        <time>2024-09-25T13:31:49Z</time>
      </trkpt>
      <trkpt lat="42.37483" lon="2.19425">
        <ele>1480.2</ele>
        <time>2024-09-25T13:31:50Z</time>
      </trkpt>
      <trkpt lat="42.37482" lon="2.19426">
        <ele>1480.1</ele>
        <time>2024-09-25T13:31:51Z</time>
      </trkpt>
      <trkpt lat="42.37482" lon="2.19426">
        <ele>1480</ele>
        <time>2024-09-25T13:31:52Z</time>
      </trkpt>
      <trkpt lat="42.37481" lon="2.19427">
        <ele>1479.9</ele>
        <time>2024-09-25T13:31:53Z</time>
      </trkpt>
      <trkpt lat="42.37481" lon="2.19428">
        <ele>1479.8</ele>
        <time>2024-09-25T13:31:54Z</time>
      </trkpt>
      <trkpt lat="42.37481" lon="2.19429">
        <ele>1479.8</ele>
        <time>2024-09-25T13:31:55Z</time>
      </trkpt>
      <trkpt lat="42.37481" lon="2.19429">
        <ele>1479.7</ele>
        <time>2024-09-25T13:31:56Z</time>
      </trkpt>
      <trkpt lat="42.3748" lon="2.1943">
        <ele>1479.7</ele>
        <time>2024-09-25T13:31:57Z</time>
      </trkpt>
      <trkpt lat="42.3748" lon="2.1943">
        <ele>1479.6</ele>
        <time>2024-09-25T13:31:58Z</time>
      </trkpt>
      <trkpt lat="42.3748" lon="2.19431">
        <ele>1479.5</ele>
        <time>2024-09-25T13:31:59Z</time>
      </trkpt>
      <trkpt lat="42.3748" lon="2.19432">
        <ele>1479.5</ele>
        <time>2024-09-25T13:32:00Z</time>
      </trkpt>
      <trkpt lat="42.3748" lon="2.19431">
        <ele>1479.4</ele>
        <time>2024-09-25T13:32:01Z</time>
      </trkpt>
      <trkpt lat="42.37481" lon="2.1943">
        <ele>1479.3</ele>
        <time>2024-09-25T13:32:02Z</time>
      </trkpt>
      <trkpt lat="42.37481" lon="2.1943">
        <ele>1479.3</ele>
        <time>2024-09-25T13:32:03Z</time>
      </trkpt>
      <trkpt lat="42.37481" lon="2.19429">
        <ele>1479.3</ele>
        <time>2024-09-25T13:32:04Z</time>
      </trkpt>
      <trkpt lat="42.37481" lon="2.19429">
        <ele>1479.2</ele>
        <time>2024-09-25T13:32:05Z</time>
      </trkpt>
      <trkpt lat="42.37481" lon="2.19429">
        <ele>1479.2</ele>
        <time>2024-09-25T13:32:06Z</time>
      </trkpt>
      <trkpt lat="42.37481" lon="2.19429">
        <ele>1479.2</ele>
        <time>2024-09-25T13:32:07Z</time>
      </trkpt>
      <trkpt lat="42.37482" lon="2.19429">
        <ele>1479.2</ele>
        <time>2024-09-25T13:32:08Z</time>
      </trkpt>
      <trkpt lat="42.37482" lon="2.19428">
        <ele>1479.1</ele>
        <time>2024-09-25T13:32:09Z</time>
      </trkpt>
      <trkpt lat="42.37482" lon="2.19428">
        <ele>1479.1</ele>
        <time>2024-09-25T13:32:10Z</time>
      </trkpt>
      <trkpt lat="42.37482" lon="2.19428">
        <ele>1479.1</ele>
        <time>2024-09-25T13:32:11Z</time>
      </trkpt>
      <trkpt lat="42.37482" lon="2.19428">
        <ele>1479.1</ele>
        <time>2024-09-25T13:32:12Z</time>
      </trkpt>
      <trkpt lat="42.37482" lon="2.19428">
        <ele>1479.1</ele>
        <time>2024-09-25T13:32:13Z</time>
      </trkpt>
      <trkpt lat="42.37482" lon="2.19428">
        <ele>1479.1</ele>
        <time>2024-09-25T13:32:14Z</time>
      </trkpt>
      <trkpt lat="42.37482" lon="2.19428">
        <ele>1479.1</ele>
        <time>2024-09-25T13:32:15Z</time>
      </trkpt>
      <trkpt lat="42.37482" lon="2.19428">
        <ele>1479</ele>
        <time>2024-09-25T13:32:16Z</time>
      </trkpt>
      <trkpt lat="42.37482" lon="2.19428">
        <ele>1479</ele>
        <time>2024-09-25T13:32:17Z</time>
      </trkpt>
      <trkpt lat="42.37482" lon="2.19428">
        <ele>1479</ele>
        <time>2024-09-25T13:32:18Z</time>
      </trkpt>
      <trkpt lat="42.37483" lon="2.19427">
        <ele>1479</ele>
        <time>2024-09-25T13:32:19Z</time>
      </trkpt>
      <trkpt lat="42.37483" lon="2.19427">
        <ele>1479</ele>
        <time>2024-09-25T13:32:20Z</time>
      </trkpt>
      <trkpt lat="42.37483" lon="2.19427">
        <ele>1479</ele>
        <time>2024-09-25T13:32:21Z</time>
      </trkpt>
      <trkpt lat="42.37483" lon="2.19427">
        <ele>1478.9</ele>
        <time>2024-09-25T13:32:22Z</time>
      </trkpt>
      <trkpt lat="42.37483" lon="2.19427">
        <ele>1478.9</ele>
        <time>2024-09-25T13:32:23Z</time>
      </trkpt>
      <trkpt lat="42.37483" lon="2.19427">
        <ele>1478.9</ele>
        <time>2024-09-25T13:32:24Z</time>
      </trkpt>
      <trkpt lat="42.37482" lon="2.19427">
        <ele>1478.9</ele>
        <time>2024-09-25T13:32:25Z</time>
      </trkpt>
      <trkpt lat="42.37482" lon="2.19427">
        <ele>1478.9</ele>
        <time>2024-09-25T13:32:26Z</time>
      </trkpt>
      <trkpt lat="42.37482" lon="2.19427">
        <ele>1478.9</ele>
        <time>2024-09-25T13:32:27Z</time>
      </trkpt>
      <trkpt lat="42.37482" lon="2.19427">
        <ele>1478.9</ele>
        <time>2024-09-25T13:32:28Z</time>
      </trkpt>
      <trkpt lat="42.37482" lon="2.19428">
        <ele>1478.9</ele>
        <time>2024-09-25T13:32:29Z</time>
      </trkpt>
      <trkpt lat="42.37482" lon="2.19428">
        <ele>1478.8</ele>
        <time>2024-09-25T13:32:30Z</time>
      </trkpt>
      <trkpt lat="42.37482" lon="2.19428">
        <ele>1478.8</ele>
        <time>2024-09-25T13:32:31Z</time>
      </trkpt>
      <trkpt lat="42.37482" lon="2.19428">
        <ele>1478.8</ele>
        <time>2024-09-25T13:32:32Z</time>
      </trkpt>
      <trkpt lat="42.37482" lon="2.19428">
        <ele>1478.8</ele>
        <time>2024-09-25T13:32:33Z</time>
      </trkpt>
      <trkpt lat="42.37482" lon="2.19428">
        <ele>1478.8</ele>
        <time>2024-09-25T13:32:34Z</time>
      </trkpt>
      <trkpt lat="42.37482" lon="2.19428">
        <ele>1478.8</ele>
        <time>2024-09-25T13:32:35Z</time>
      </trkpt>
      <trkpt lat="42.37482" lon="2.19428">
        <ele>1478.8</ele>
        <time>2024-09-25T13:32:36Z</time>
      </trkpt>
      <trkpt lat="42.37482" lon="2.19428">
        <ele>1478.8</ele>
        <time>2024-09-25T13:32:37Z</time>
      </trkpt>
      <trkpt lat="42.37482" lon="2.19427">
        <ele>1478.7</ele>
        <time>2024-09-25T13:32:38Z</time>
      </trkpt>
      <trkpt lat="42.37482" lon="2.19427">
        <ele>1478.7</ele>
        <time>2024-09-25T13:32:39Z</time>
      </trkpt>
      <trkpt lat="42.37483" lon="2.19427">
        <ele>1478.7</ele>
        <time>2024-09-25T13:32:40Z</time>
      </trkpt>
      <trkpt lat="42.37483" lon="2.19427">
        <ele>1478.7</ele>
        <time>2024-09-25T13:32:41Z</time>
      </trkpt>
      <trkpt lat="42.37483" lon="2.19427">
        <ele>1478.7</ele>
        <time>2024-09-25T13:32:42Z</time>
      </trkpt>
      <trkpt lat="42.37483" lon="2.19427">
        <ele>1478.7</ele>
        <time>2024-09-25T13:32:43Z</time>
      </trkpt>
      <trkpt lat="42.37483" lon="2.19427">
        <ele>1478.7</ele>
        <time>2024-09-25T13:32:44Z</time>
      </trkpt>
      <trkpt lat="42.37483" lon="2.19427">
        <ele>1478.7</ele>
        <time>2024-09-25T13:32:45Z</time>
      </trkpt>
      <trkpt lat="42.37483" lon="2.19427">
        <ele>1478.6</ele>
        <time>2024-09-25T13:32:46Z</time>
      </trkpt>
      <trkpt lat="42.37483" lon="2.19427">
        <ele>1478.6</ele>
        <time>2024-09-25T13:32:47Z</time>
      </trkpt>
      <trkpt lat="42.37482" lon="2.19427">
        <ele>1478.6</ele>
        <time>2024-09-25T13:32:48Z</time>
      </trkpt>
      <trkpt lat="42.37482" lon="2.19427">
        <ele>1478.6</ele>
        <time>2024-09-25T13:32:49Z</time>
      </trkpt>
      <trkpt lat="42.37482" lon="2.19427">
        <ele>1478.6</ele>
        <time>2024-09-25T13:32:50Z</time>
      </trkpt>
      <trkpt lat="42.37482" lon="2.19427">
        <ele>1478.6</ele>
        <time>2024-09-25T13:32:51Z</time>
      </trkpt>
      <trkpt lat="42.37482" lon="2.19427">
        <ele>1478.6</ele>
        <time>2024-09-25T13:32:52Z</time>
      </trkpt>
      <trkpt lat="42.37482" lon="2.19427">
        <ele>1478.6</ele>
        <time>2024-09-25T13:32:53Z</time>
      </trkpt>
      <trkpt lat="42.37482" lon="2.19427">
        <ele>1478.5</ele>
        <time>2024-09-25T13:32:54Z</time>
      </trkpt>
      <trkpt lat="42.37482" lon="2.19427">
        <ele>1478.5</ele>
        <time>2024-09-25T13:32:55Z</time>
      </trkpt>
      <trkpt lat="42.37482" lon="2.19427">
        <ele>1478.5</ele>
        <time>2024-09-25T13:32:56Z</time>
      </trkpt>
      <trkpt lat="42.37482" lon="2.19427">
        <ele>1478.5</ele>
        <time>2024-09-25T13:32:57Z</time>
      </trkpt>
      <trkpt lat="42.37482" lon="2.19427">
        <ele>1478.4</ele>
        <time>2024-09-25T13:32:58Z</time>
      </trkpt>
      <trkpt lat="42.37481" lon="2.19426">
        <ele>1478.4</ele>
        <time>2024-09-25T13:32:59Z</time>
      </trkpt>
      <trkpt lat="42.37481" lon="2.19426">
        <ele>1478.4</ele>
        <time>2024-09-25T13:33:00Z</time>
      </trkpt>
      <trkpt lat="42.37482" lon="2.19426">
        <ele>1478.3</ele>
        <time>2024-09-25T13:33:01Z</time>
      </trkpt>
      <trkpt lat="42.37481" lon="2.19426">
        <ele>1478.3</ele>
        <time>2024-09-25T13:33:02Z</time>
      </trkpt>
      <trkpt lat="42.37481" lon="2.19426">
        <ele>1478.3</ele>
        <time>2024-09-25T13:33:03Z</time>
      </trkpt>
      <trkpt lat="42.37481" lon="2.19426">
        <ele>1478.2</ele>
        <time>2024-09-25T13:33:04Z</time>
      </trkpt>
      <trkpt lat="42.37481" lon="2.19425">
        <ele>1478.2</ele>
        <time>2024-09-25T13:33:05Z</time>
      </trkpt>
      <trkpt lat="42.37481" lon="2.19425">
        <ele>1478.2</ele>
        <time>2024-09-25T13:33:06Z</time>
      </trkpt>
      <trkpt lat="42.37481" lon="2.19425">
        <ele>1478.2</ele>
        <time>2024-09-25T13:33:07Z</time>
      </trkpt>
      <trkpt lat="42.37481" lon="2.19425">
        <ele>1478.2</ele>
        <time>2024-09-25T13:33:08Z</time>
      </trkpt>
      <trkpt lat="42.37481" lon="2.19424">
        <ele>1478.2</ele>
        <time>2024-09-25T13:33:09Z</time>
      </trkpt>
      <trkpt lat="42.37481" lon="2.19424">
        <ele>1478.1</ele>
        <time>2024-09-25T13:33:10Z</time>
      </trkpt>
      <trkpt lat="42.37481" lon="2.19424">
        <ele>1478.1</ele>
        <time>2024-09-25T13:33:11Z</time>
      </trkpt>
      <trkpt lat="42.37481" lon="2.19424">
        <ele>1478.1</ele>
        <time>2024-09-25T13:33:12Z</time>
      </trkpt>
      <trkpt lat="42.37481" lon="2.19424">
        <ele>1478.1</ele>
        <time>2024-09-25T13:33:13Z</time>
      </trkpt>
      <trkpt lat="42.37481" lon="2.19424">
        <ele>1478.1</ele>
        <time>2024-09-25T13:33:14Z</time>
      </trkpt>
      <trkpt lat="42.37481" lon="2.19424">
        <ele>1478.1</ele>
        <time>2024-09-25T13:33:15Z</time>
      </trkpt>
      <trkpt lat="42.37481" lon="2.19424">
        <ele>1478.1</ele>
        <time>2024-09-25T13:33:16Z</time>
      </trkpt>
      <trkpt lat="42.37481" lon="2.19424">
        <ele>1478.1</ele>
        <time>2024-09-25T13:33:17Z</time>
      </trkpt>
      <trkpt lat="42.37481" lon="2.19424">
        <ele>1478.1</ele>
        <time>2024-09-25T13:33:18Z</time>
      </trkpt>
      <trkpt lat="42.37481" lon="2.19424">
        <ele>1478</ele>
        <time>2024-09-25T13:33:19Z</time>
      </trkpt>
      <trkpt lat="42.37481" lon="2.19424">
        <ele>1478</ele>
        <time>2024-09-25T13:33:20Z</time>
      </trkpt>
      <trkpt lat="42.37481" lon="2.19424">
        <ele>1478</ele>
        <time>2024-09-25T13:33:21Z</time>
      </trkpt>
      <trkpt lat="42.37481" lon="2.19424">
        <ele>1478</ele>
        <time>2024-09-25T13:33:22Z</time>
      </trkpt>
      <trkpt lat="42.37481" lon="2.19424">
        <ele>1478</ele>
        <time>2024-09-25T13:33:23Z</time>
      </trkpt>
      <trkpt lat="42.37481" lon="2.19424">
        <ele>1478</ele>
        <time>2024-09-25T13:33:24Z</time>
      </trkpt>
      <trkpt lat="42.37481" lon="2.19424">
        <ele>1478</ele>
        <time>2024-09-25T13:33:25Z</time>
      </trkpt>
      <trkpt lat="42.37481" lon="2.19423">
        <ele>1478</ele>
        <time>2024-09-25T13:33:26Z</time>
      </trkpt>
      <trkpt lat="42.37481" lon="2.19423">
        <ele>1478</ele>
        <time>2024-09-25T13:33:27Z</time>
      </trkpt>
      <trkpt lat="42.3748" lon="2.19423">
        <ele>1478</ele>
        <time>2024-09-25T13:33:28Z</time>
      </trkpt>
      <trkpt lat="42.3748" lon="2.19423">
        <ele>1478</ele>
        <time>2024-09-25T13:33:29Z</time>
      </trkpt>
      <trkpt lat="42.3748" lon="2.19423">
        <ele>1478</ele>
        <time>2024-09-25T13:33:30Z</time>
      </trkpt>
      <trkpt lat="42.3748" lon="2.19423">
        <ele>1478</ele>
        <time>2024-09-25T13:33:31Z</time>
      </trkpt>
      <trkpt lat="42.3748" lon="2.19423">
        <ele>1477.9</ele>
        <time>2024-09-25T13:33:32Z</time>
      </trkpt>
      <trkpt lat="42.3748" lon="2.19423">
        <ele>1477.9</ele>
        <time>2024-09-25T13:33:33Z</time>
      </trkpt>
      <trkpt lat="42.3748" lon="2.19423">
        <ele>1477.9</ele>
        <time>2024-09-25T13:33:34Z</time>
      </trkpt>
      <trkpt lat="42.3748" lon="2.19423">
        <ele>1477.9</ele>
        <time>2024-09-25T13:33:35Z</time>
      </trkpt>
      <trkpt lat="42.3748" lon="2.19423">
        <ele>1477.9</ele>
        <time>2024-09-25T13:33:36Z</time>
      </trkpt>
      <trkpt lat="42.37479" lon="2.19424">
        <ele>1477.9</ele>
        <time>2024-09-25T13:33:37Z</time>
      </trkpt>
      <trkpt lat="42.37479" lon="2.19424">
        <ele>1477.8</ele>
        <time>2024-09-25T13:33:38Z</time>
      </trkpt>
      <trkpt lat="42.37479" lon="2.19424">
        <ele>1477.8</ele>
        <time>2024-09-25T13:33:39Z</time>
      </trkpt>
      <trkpt lat="42.37479" lon="2.19424">
        <ele>1477.8</ele>
        <time>2024-09-25T13:33:40Z</time>
      </trkpt>
      <trkpt lat="42.3748" lon="2.19424">
        <ele>1477.8</ele>
        <time>2024-09-25T13:33:41Z</time>
      </trkpt>
      <trkpt lat="42.3748" lon="2.19425">
        <ele>1477.8</ele>
        <time>2024-09-25T13:33:42Z</time>
      </trkpt>
      <trkpt lat="42.3748" lon="2.19425">
        <ele>1477.8</ele>
        <time>2024-09-25T13:33:43Z</time>
      </trkpt>
      <trkpt lat="42.3748" lon="2.19425">
        <ele>1477.8</ele>
        <time>2024-09-25T13:33:44Z</time>
      </trkpt>
      <trkpt lat="42.3748" lon="2.19425">
        <ele>1477.8</ele>
        <time>2024-09-25T13:33:45Z</time>
      </trkpt>
      <trkpt lat="42.3748" lon="2.19425">
        <ele>1477.8</ele>
        <time>2024-09-25T13:33:46Z</time>
      </trkpt>
      <trkpt lat="42.3748" lon="2.19425">
        <ele>1477.7</ele>
        <time>2024-09-25T13:33:47Z</time>
      </trkpt>
      <trkpt lat="42.3748" lon="2.19425">
        <ele>1477.7</ele>
        <time>2024-09-25T13:33:48Z</time>
      </trkpt>
      <trkpt lat="42.3748" lon="2.19425">
        <ele>1477.7</ele>
        <time>2024-09-25T13:33:49Z</time>
      </trkpt>
      <trkpt lat="42.3748" lon="2.19425">
        <ele>1477.7</ele>
        <time>2024-09-25T13:33:50Z</time>
      </trkpt>
      <trkpt lat="42.3748" lon="2.19425">
        <ele>1477.7</ele>
        <time>2024-09-25T13:33:51Z</time>
      </trkpt>
      <trkpt lat="42.3748" lon="2.19425">
        <ele>1477.7</ele>
        <time>2024-09-25T13:33:52Z</time>
      </trkpt>
      <trkpt lat="42.3748" lon="2.19425">
        <ele>1477.7</ele>
        <time>2024-09-25T13:33:53Z</time>
      </trkpt>
      <trkpt lat="42.3748" lon="2.19425">
        <ele>1477.7</ele>
        <time>2024-09-25T13:33:54Z</time>
      </trkpt>
      <trkpt lat="42.3748" lon="2.19425">
        <ele>1477.7</ele>
        <time>2024-09-25T13:33:55Z</time>
      </trkpt>
      <trkpt lat="42.37481" lon="2.19425">
        <ele>1477.6</ele>
        <time>2024-09-25T13:33:56Z</time>
      </trkpt>
      <trkpt lat="42.37481" lon="2.19425">
        <ele>1477.6</ele>
        <time>2024-09-25T13:33:57Z</time>
      </trkpt>
      <trkpt lat="42.37481" lon="2.19425">
        <ele>1477.6</ele>
        <time>2024-09-25T13:33:58Z</time>
      </trkpt>
      <trkpt lat="42.37481" lon="2.19425">
        <ele>1477.6</ele>
        <time>2024-09-25T13:33:59Z</time>
      </trkpt>
      <trkpt lat="42.37481" lon="2.19425">
        <ele>1477.6</ele>
        <time>2024-09-25T13:34:00Z</time>
      </trkpt>
      <trkpt lat="42.37481" lon="2.19425">
        <ele>1477.6</ele>
        <time>2024-09-25T13:34:01Z</time>
      </trkpt>
      <trkpt lat="42.37481" lon="2.19425">
        <ele>1477.6</ele>
        <time>2024-09-25T13:34:02Z</time>
      </trkpt>
      <trkpt lat="42.37481" lon="2.19425">
        <ele>1477.6</ele>
        <time>2024-09-25T13:34:03Z</time>
      </trkpt>
      <trkpt lat="42.37481" lon="2.19426">
        <ele>1477.6</ele>
        <time>2024-09-25T13:34:04Z</time>
      </trkpt>
      <trkpt lat="42.37481" lon="2.19426">
        <ele>1477.6</ele>
        <time>2024-09-25T13:34:05Z</time>
      </trkpt>
      <trkpt lat="42.37481" lon="2.19426">
        <ele>1477.6</ele>
        <time>2024-09-25T13:34:06Z</time>
      </trkpt>
      <trkpt lat="42.37481" lon="2.19426">
        <ele>1477.6</ele>
        <time>2024-09-25T13:34:07Z</time>
      </trkpt>
      <trkpt lat="42.37481" lon="2.19426">
        <ele>1477.6</ele>
        <time>2024-09-25T13:34:08Z</time>
      </trkpt>
      <trkpt lat="42.37481" lon="2.19426">
        <ele>1477.5</ele>
        <time>2024-09-25T13:34:09Z</time>
      </trkpt>
      <trkpt lat="42.37481" lon="2.19426">
        <ele>1477.5</ele>
        <time>2024-09-25T13:34:10Z</time>
      </trkpt>
      <trkpt lat="42.37481" lon="2.19426">
        <ele>1477.5</ele>
        <time>2024-09-25T13:34:11Z</time>
      </trkpt>
      <trkpt lat="42.37482" lon="2.19426">
        <ele>1477.5</ele>
        <time>2024-09-25T13:34:12Z</time>
      </trkpt>
      <trkpt lat="42.37482" lon="2.19426">
        <ele>1477.5</ele>
        <time>2024-09-25T13:34:13Z</time>
      </trkpt>
      <trkpt lat="42.37482" lon="2.19426">
        <ele>1477.5</ele>
        <time>2024-09-25T13:34:14Z</time>
      </trkpt>
      <trkpt lat="42.37482" lon="2.19426">
        <ele>1477.4</ele>
        <time>2024-09-25T13:34:15Z</time>
      </trkpt>
      <trkpt lat="42.37481" lon="2.19426">
        <ele>1477.4</ele>
        <time>2024-09-25T13:34:16Z</time>
      </trkpt>
      <trkpt lat="42.37481" lon="2.19426">
        <ele>1477.4</ele>
        <time>2024-09-25T13:34:17Z</time>
      </trkpt>
      <trkpt lat="42.37481" lon="2.19425">
        <ele>1477.4</ele>
        <time>2024-09-25T13:34:18Z</time>
      </trkpt>
      <trkpt lat="42.37481" lon="2.19425">
        <ele>1477.4</ele>
        <time>2024-09-25T13:34:19Z</time>
      </trkpt>
      <trkpt lat="42.37481" lon="2.19425">
        <ele>1477.4</ele>
        <time>2024-09-25T13:34:20Z</time>
      </trkpt>
      <trkpt lat="42.37481" lon="2.19425">
        <ele>1477.4</ele>
        <time>2024-09-25T13:34:21Z</time>
      </trkpt>
      <trkpt lat="42.37482" lon="2.19425">
        <ele>1477.4</ele>
        <time>2024-09-25T13:34:22Z</time>
      </trkpt>
      <trkpt lat="42.37482" lon="2.19425">
        <ele>1477.3</ele>
        <time>2024-09-25T13:34:23Z</time>
      </trkpt>
      <trkpt lat="42.37482" lon="2.19425">
        <ele>1477.3</ele>
        <time>2024-09-25T13:34:24Z</time>
      </trkpt>
      <trkpt lat="42.37482" lon="2.19426">
        <ele>1477.3</ele>
        <time>2024-09-25T13:34:25Z</time>
      </trkpt>
      <trkpt lat="42.37482" lon="2.19425">
        <ele>1477.3</ele>
        <time>2024-09-25T13:34:26Z</time>
      </trkpt>
      <trkpt lat="42.37482" lon="2.19426">
        <ele>1477.3</ele>
        <time>2024-09-25T13:34:27Z</time>
      </trkpt>
      <trkpt lat="42.37483" lon="2.19426">
        <ele>1477.2</ele>
        <time>2024-09-25T13:34:28Z</time>
      </trkpt>
      <trkpt lat="42.37483" lon="2.19426">
        <ele>1477.2</ele>
        <time>2024-09-25T13:34:29Z</time>
      </trkpt>
      <trkpt lat="42.37483" lon="2.19426">
        <ele>1477.2</ele>
        <time>2024-09-25T13:34:30Z</time>
      </trkpt>
      <trkpt lat="42.37483" lon="2.19426">
        <ele>1477.2</ele>
        <time>2024-09-25T13:34:31Z</time>
      </trkpt>
      <trkpt lat="42.37483" lon="2.19426">
        <ele>1477.2</ele>
        <time>2024-09-25T13:34:32Z</time>
      </trkpt>
      <trkpt lat="42.37483" lon="2.19426">
        <ele>1477.2</ele>
        <time>2024-09-25T13:34:33Z</time>
      </trkpt>
      <trkpt lat="42.37483" lon="2.19426">
        <ele>1477.2</ele>
        <time>2024-09-25T13:34:34Z</time>
      </trkpt>
      <trkpt lat="42.37483" lon="2.19426">
        <ele>1477.2</ele>
        <time>2024-09-25T13:34:35Z</time>
      </trkpt>
      <trkpt lat="42.37483" lon="2.19426">
        <ele>1477.2</ele>
        <time>2024-09-25T13:34:36Z</time>
      </trkpt>
      <trkpt lat="42.37483" lon="2.19426">
        <ele>1477.2</ele>
        <time>2024-09-25T13:34:37Z</time>
      </trkpt>
      <trkpt lat="42.37483" lon="2.19426">
        <ele>1477.2</ele>
        <time>2024-09-25T13:34:38Z</time>
      </trkpt>
      <trkpt lat="42.37483" lon="2.19426">
        <ele>1477.2</ele>
        <time>2024-09-25T13:34:39Z</time>
      </trkpt>
      <trkpt lat="42.37483" lon="2.19426">
        <ele>1477.2</ele>
        <time>2024-09-25T13:34:40Z</time>
      </trkpt>
      <trkpt lat="42.37483" lon="2.19426">
        <ele>1477.2</ele>
        <time>2024-09-25T13:34:41Z</time>
      </trkpt>
      <trkpt lat="42.37483" lon="2.19426">
        <ele>1477.2</ele>
        <time>2024-09-25T13:34:42Z</time>
      </trkpt>
      <trkpt lat="42.37483" lon="2.19426">
        <ele>1477.2</ele>
        <time>2024-09-25T13:34:43Z</time>
      </trkpt>
      <trkpt lat="42.37483" lon="2.19426">
        <ele>1477.2</ele>
        <time>2024-09-25T13:34:44Z</time>
      </trkpt>
      <trkpt lat="42.37483" lon="2.19426">
        <ele>1477.2</ele>
        <time>2024-09-25T13:34:45Z</time>
      </trkpt>
      <trkpt lat="42.37483" lon="2.19426">
        <ele>1477.2</ele>
        <time>2024-09-25T13:34:46Z</time>
      </trkpt>
      <trkpt lat="42.37483" lon="2.19426">
        <ele>1477.2</ele>
        <time>2024-09-25T13:34:47Z</time>
      </trkpt>
      <trkpt lat="42.37483" lon="2.19426">
        <ele>1477.2</ele>
        <time>2024-09-25T13:34:48Z</time>
      </trkpt>
      <trkpt lat="42.37483" lon="2.19426">
        <ele>1477.2</ele>
        <time>2024-09-25T13:34:49Z</time>
      </trkpt>
      <trkpt lat="42.37483" lon="2.19426">
        <ele>1477.2</ele>
        <time>2024-09-25T13:34:50Z</time>
      </trkpt>
      <trkpt lat="42.37483" lon="2.19426">
        <ele>1477.2</ele>
        <time>2024-09-25T13:34:51Z</time>
      </trkpt>
      <trkpt lat="42.37483" lon="2.19426">
        <ele>1477.2</ele>
        <time>2024-09-25T13:34:52Z</time>
      </trkpt>
      <trkpt lat="42.37483" lon="2.19426">
        <ele>1477.2</ele>
        <time>2024-09-25T13:34:53Z</time>
      </trkpt>
      <trkpt lat="42.37483" lon="2.19426">
        <ele>1477.2</ele>
        <time>2024-09-25T13:34:54Z</time>
      </trkpt>
      <trkpt lat="42.37483" lon="2.19426">
        <ele>1477.2</ele>
        <time>2024-09-25T13:34:55Z</time>
      </trkpt>
      <trkpt lat="42.37483" lon="2.19426">
        <ele>1477.2</ele>
        <time>2024-09-25T13:34:56Z</time>
      </trkpt>
      <trkpt lat="42.37483" lon="2.19426">
        <ele>1477.2</ele>
        <time>2024-09-25T13:34:57Z</time>
      </trkpt>
      <trkpt lat="42.37483" lon="2.19426">
        <ele>1477.2</ele>
        <time>2024-09-25T13:34:58Z</time>
      </trkpt>
      <trkpt lat="42.37483" lon="2.19426">
        <ele>1477.2</ele>
        <time>2024-09-25T13:34:59Z</time>
      </trkpt>
      <trkpt lat="42.37483" lon="2.19426">
        <ele>1477.2</ele>
        <time>2024-09-25T13:35:00Z</time>
      </trkpt>
      <trkpt lat="42.37483" lon="2.19426">
        <ele>1477.2</ele>
        <time>2024-09-25T13:35:01Z</time>
      </trkpt>
      <trkpt lat="42.37483" lon="2.19426">
        <ele>1477.2</ele>
        <time>2024-09-25T13:35:02Z</time>
      </trkpt>
      <trkpt lat="42.37483" lon="2.19426">
        <ele>1477.2</ele>
        <time>2024-09-25T13:35:03Z</time>
      </trkpt>
      <trkpt lat="42.37483" lon="2.19426">
        <ele>1477.2</ele>
        <time>2024-09-25T13:35:04Z</time>
      </trkpt>
      <trkpt lat="42.37483" lon="2.19426">
        <ele>1477.2</ele>
        <time>2024-09-25T13:35:05Z</time>
      </trkpt>
      <trkpt lat="42.37483" lon="2.19426">
        <ele>1477.2</ele>
        <time>2024-09-25T13:35:06Z</time>
      </trkpt>
      <trkpt lat="42.37483" lon="2.19426">
        <ele>1477.2</ele>
        <time>2024-09-25T13:35:07Z</time>
      </trkpt>
      <trkpt lat="42.37483" lon="2.19426">
        <ele>1477.2</ele>
        <time>2024-09-25T13:35:08Z</time>
      </trkpt>
      <trkpt lat="42.37483" lon="2.19426">
        <ele>1477.2</ele>
        <time>2024-09-25T13:35:09Z</time>
      </trkpt>
      <trkpt lat="42.37483" lon="2.19426">
        <ele>1477.2</ele>
        <time>2024-09-25T13:35:10Z</time>
      </trkpt>
      <trkpt lat="42.37483" lon="2.19426">
        <ele>1477.2</ele>
        <time>2024-09-25T13:35:11Z</time>
      </trkpt>
      <trkpt lat="42.37483" lon="2.19426">
        <ele>1477.2</ele>
        <time>2024-09-25T13:35:12Z</time>
      </trkpt>
      <trkpt lat="42.37483" lon="2.19426">
        <ele>1477.2</ele>
        <time>2024-09-25T13:35:13Z</time>
      </trkpt>
      <trkpt lat="42.37483" lon="2.19426">
        <ele>1477.2</ele>
        <time>2024-09-25T13:35:14Z</time>
      </trkpt>
      <trkpt lat="42.37483" lon="2.19426">
        <ele>1477.2</ele>
        <time>2024-09-25T13:35:15Z</time>
      </trkpt>
      <trkpt lat="42.37483" lon="2.19426">
        <ele>1477.2</ele>
        <time>2024-09-25T13:35:16Z</time>
      </trkpt>
      <trkpt lat="42.37483" lon="2.19426">
        <ele>1477.2</ele>
        <time>2024-09-25T13:35:17Z</time>
      </trkpt>
      <trkpt lat="42.37483" lon="2.19426">
        <ele>1477.2</ele>
        <time>2024-09-25T13:35:18Z</time>
      </trkpt>
      <trkpt lat="42.37482" lon="2.19426">
        <ele>1477.2</ele>
        <time>2024-09-25T13:35:19Z</time>
      </trkpt>
      <trkpt lat="42.37482" lon="2.19426">
        <ele>1477.2</ele>
        <time>2024-09-25T13:35:20Z</time>
      </trkpt>
      <trkpt lat="42.37482" lon="2.19426">
        <ele>1477.2</ele>
        <time>2024-09-25T13:35:21Z</time>
      </trkpt>
      <trkpt lat="42.37482" lon="2.19426">
        <ele>1477.2</ele>
        <time>2024-09-25T13:35:22Z</time>
      </trkpt>
      <trkpt lat="42.37482" lon="2.19426">
        <ele>1477.2</ele>
        <time>2024-09-25T13:35:23Z</time>
      </trkpt>
      <trkpt lat="42.37482" lon="2.19426">
        <ele>1477.2</ele>
        <time>2024-09-25T13:35:24Z</time>
      </trkpt>
      <trkpt lat="42.37482" lon="2.19426">
        <ele>1477.2</ele>
        <time>2024-09-25T13:35:25Z</time>
      </trkpt>
      <trkpt lat="42.37482" lon="2.19426">
        <ele>1477.2</ele>
        <time>2024-09-25T13:35:26Z</time>
      </trkpt>
      <trkpt lat="42.37482" lon="2.19426">
        <ele>1477.2</ele>
        <time>2024-09-25T13:35:27Z</time>
      </trkpt>
      <trkpt lat="42.37482" lon="2.19426">
        <ele>1477.2</ele>
        <time>2024-09-25T13:35:28Z</time>
      </trkpt>
      <trkpt lat="42.37482" lon="2.19426">
        <ele>1477.2</ele>
        <time>2024-09-25T13:35:29Z</time>
      </trkpt>
      <trkpt lat="42.37482" lon="2.19426">
        <ele>1477.2</ele>
        <time>2024-09-25T13:35:30Z</time>
      </trkpt>
      <trkpt lat="42.37482" lon="2.19426">
        <ele>1477.2</ele>
        <time>2024-09-25T13:35:31Z</time>
      </trkpt>
      <trkpt lat="42.37482" lon="2.19426">
        <ele>1477.2</ele>
        <time>2024-09-25T13:35:32Z</time>
      </trkpt>
      <trkpt lat="42.37482" lon="2.19426">
        <ele>1477.2</ele>
        <time>2024-09-25T13:35:33Z</time>
      </trkpt>
      <trkpt lat="42.37482" lon="2.19426">
        <ele>1477.2</ele>
        <time>2024-09-25T13:35:34Z</time>
      </trkpt>
      <trkpt lat="42.37482" lon="2.19426">
        <ele>1477.2</ele>
        <time>2024-09-25T13:35:35Z</time>
      </trkpt>
      <trkpt lat="42.37482" lon="2.19426">
        <ele>1477.2</ele>
        <time>2024-09-25T13:35:36Z</time>
      </trkpt>
      <trkpt lat="42.37482" lon="2.19426">
        <ele>1477.2</ele>
        <time>2024-09-25T13:35:37Z</time>
      </trkpt>
      <trkpt lat="42.37482" lon="2.19426">
        <ele>1477.2</ele>
        <time>2024-09-25T13:35:38Z</time>
      </trkpt>
      <trkpt lat="42.37482" lon="2.19426">
        <ele>1477.2</ele>
        <time>2024-09-25T13:35:39Z</time>
      </trkpt>
      <trkpt lat="42.37482" lon="2.19426">
        <ele>1477.2</ele>
        <time>2024-09-25T13:35:40Z</time>
      </trkpt>
      <trkpt lat="42.37482" lon="2.19426">
        <ele>1477.2</ele>
        <time>2024-09-25T13:35:41Z</time>
      </trkpt>
      <trkpt lat="42.37482" lon="2.19426">
        <ele>1477.2</ele>
        <time>2024-09-25T13:35:42Z</time>
      </trkpt>
      <trkpt lat="42.37482" lon="2.19426">
        <ele>1477.2</ele>
        <time>2024-09-25T13:35:43Z</time>
      </trkpt>
      <trkpt lat="42.37482" lon="2.19426">
        <ele>1477.2</ele>
        <time>2024-09-25T13:35:44Z</time>
      </trkpt>
      <trkpt lat="42.37482" lon="2.19426">
        <ele>1477.2</ele>
        <time>2024-09-25T13:35:45Z</time>
      </trkpt>
      <trkpt lat="42.37482" lon="2.19426">
        <ele>1477.2</ele>
        <time>2024-09-25T13:35:46Z</time>
      </trkpt>
      <trkpt lat="42.37482" lon="2.19426">
        <ele>1477.2</ele>
        <time>2024-09-25T13:35:47Z</time>
      </trkpt>
      <trkpt lat="42.37482" lon="2.19426">
        <ele>1477.2</ele>
        <time>2024-09-25T13:35:48Z</time>
      </trkpt>
      <trkpt lat="42.37482" lon="2.19426">
        <ele>1477.2</ele>
        <time>2024-09-25T13:35:49Z</time>
      </trkpt>
      <trkpt lat="42.37482" lon="2.19426">
        <ele>1477.1</ele>
        <time>2024-09-25T13:35:50Z</time>
      </trkpt>
      <trkpt lat="42.37482" lon="2.19426">
        <ele>1477.1</ele>
        <time>2024-09-25T13:35:51Z</time>
      </trkpt>
      <trkpt lat="42.37482" lon="2.19426">
        <ele>1477.1</ele>
        <time>2024-09-25T13:35:52Z</time>
      </trkpt>
      <trkpt lat="42.37482" lon="2.19426">
        <ele>1477.1</ele>
        <time>2024-09-25T13:35:53Z</time>
      </trkpt>
      <trkpt lat="42.37482" lon="2.19426">
        <ele>1477.1</ele>
        <time>2024-09-25T13:35:54Z</time>
      </trkpt>
      <trkpt lat="42.37482" lon="2.19427">
        <ele>1477</ele>
        <time>2024-09-25T13:35:55Z</time>
      </trkpt>
      <trkpt lat="42.37482" lon="2.19427">
        <ele>1477</ele>
        <time>2024-09-25T13:35:56Z</time>
      </trkpt>
      <trkpt lat="42.37482" lon="2.19426">
        <ele>1477</ele>
        <time>2024-09-25T13:35:57Z</time>
      </trkpt>
      <trkpt lat="42.37482" lon="2.19426">
        <ele>1477</ele>
        <time>2024-09-25T13:35:58Z</time>
      </trkpt>
      <trkpt lat="42.37482" lon="2.19426">
        <ele>1477</ele>
        <time>2024-09-25T13:35:59Z</time>
      </trkpt>
      <trkpt lat="42.37482" lon="2.19426">
        <ele>1477</ele>
        <time>2024-09-25T13:36:00Z</time>
      </trkpt>
      <trkpt lat="42.37482" lon="2.19426">
        <ele>1477</ele>
        <time>2024-09-25T13:36:01Z</time>
      </trkpt>
      <trkpt lat="42.37482" lon="2.19426">
        <ele>1476.9</ele>
        <time>2024-09-25T13:36:03Z</time>
      </trkpt>
      <trkpt lat="42.37486" lon="2.19427">
        <ele>1476.5</ele>
        <time>2024-09-25T14:17:12Z</time>
      </trkpt>
      <trkpt lat="42.37486" lon="2.19427">
        <ele>1476.5</ele>
        <time>2024-09-25T14:17:13Z</time>
      </trkpt>
      <trkpt lat="42.37486" lon="2.19427">
        <ele>1476.4</ele>
        <time>2024-09-25T14:17:14Z</time>
      </trkpt>
      <trkpt lat="42.37486" lon="2.19427">
        <ele>1476.4</ele>
        <time>2024-09-25T14:17:15Z</time>
      </trkpt>
      <trkpt lat="42.37485" lon="2.19427">
        <ele>1476.3</ele>
        <time>2024-09-25T14:17:16Z</time>
      </trkpt>
      <trkpt lat="42.37485" lon="2.19427">
        <ele>1476.3</ele>
        <time>2024-09-25T14:17:17Z</time>
      </trkpt>
      <trkpt lat="42.37485" lon="2.19427">
        <ele>1476.2</ele>
        <time>2024-09-25T14:17:18Z</time>
      </trkpt>
      <trkpt lat="42.37485" lon="2.19428">
        <ele>1476.2</ele>
        <time>2024-09-25T14:17:19Z</time>
      </trkpt>
      <trkpt lat="42.37485" lon="2.19428">
        <ele>1476.1</ele>
        <time>2024-09-25T14:17:20Z</time>
      </trkpt>
      <trkpt lat="42.37485" lon="2.19428">
        <ele>1476.1</ele>
        <time>2024-09-25T14:17:21Z</time>
      </trkpt>
      <trkpt lat="42.37485" lon="2.19428">
        <ele>1476.1</ele>
        <time>2024-09-25T14:17:22Z</time>
      </trkpt>
      <trkpt lat="42.37485" lon="2.19428">
        <ele>1476.1</ele>
        <time>2024-09-25T14:17:23Z</time>
      </trkpt>
      <trkpt lat="42.37485" lon="2.19428">
        <ele>1476.1</ele>
        <time>2024-09-25T14:17:24Z</time>
      </trkpt>
      <trkpt lat="42.37485" lon="2.19428">
        <ele>1476.1</ele>
        <time>2024-09-25T14:17:25Z</time>
      </trkpt>
      <trkpt lat="42.37485" lon="2.19428">
        <ele>1476.1</ele>
        <time>2024-09-25T14:17:26Z</time>
      </trkpt>
      <trkpt lat="42.37485" lon="2.19428">
        <ele>1476.1</ele>
        <time>2024-09-25T14:17:27Z</time>
      </trkpt>
      <trkpt lat="42.37485" lon="2.19428">
        <ele>1476.1</ele>
        <time>2024-09-25T14:17:28Z</time>
      </trkpt>
      <trkpt lat="42.37485" lon="2.19428">
        <ele>1476</ele>
        <time>2024-09-25T14:17:29Z</time>
      </trkpt>
      <trkpt lat="42.37485" lon="2.19428">
        <ele>1476</ele>
        <time>2024-09-25T14:17:30Z</time>
      </trkpt>
      <trkpt lat="42.37485" lon="2.19428">
        <ele>1476</ele>
        <time>2024-09-25T14:17:31Z</time>
      </trkpt>
      <trkpt lat="42.37485" lon="2.19428">
        <ele>1476</ele>
        <time>2024-09-25T14:17:32Z</time>
      </trkpt>
      <trkpt lat="42.37485" lon="2.19428">
        <ele>1476</ele>
        <time>2024-09-25T14:17:33Z</time>
      </trkpt>
      <trkpt lat="42.37485" lon="2.19428">
        <ele>1476</ele>
        <time>2024-09-25T14:17:34Z</time>
      </trkpt>
      <trkpt lat="42.37485" lon="2.19428">
        <ele>1476</ele>
        <time>2024-09-25T14:17:35Z</time>
      </trkpt>
      <trkpt lat="42.37485" lon="2.19428">
        <ele>1476</ele>
        <time>2024-09-25T14:17:36Z</time>
      </trkpt>
      <trkpt lat="42.37485" lon="2.19428">
        <ele>1476</ele>
        <time>2024-09-25T14:17:37Z</time>
      </trkpt>
      <trkpt lat="42.37485" lon="2.19428">
        <ele>1476</ele>
        <time>2024-09-25T14:17:38Z</time>
      </trkpt>
      <trkpt lat="42.37485" lon="2.19428">
        <ele>1476</ele>
        <time>2024-09-25T14:17:39Z</time>
      </trkpt>
      <trkpt lat="42.37485" lon="2.19428">
        <ele>1476</ele>
        <time>2024-09-25T14:17:40Z</time>
      </trkpt>
      <trkpt lat="42.37485" lon="2.19428">
        <ele>1476</ele>
        <time>2024-09-25T14:17:41Z</time>
      </trkpt>
      <trkpt lat="42.37485" lon="2.19428">
        <ele>1476</ele>
        <time>2024-09-25T14:17:42Z</time>
      </trkpt>
      <trkpt lat="42.37485" lon="2.19428">
        <ele>1476</ele>
        <time>2024-09-25T14:17:43Z</time>
      </trkpt>
      <trkpt lat="42.37485" lon="2.19428">
        <ele>1476</ele>
        <time>2024-09-25T14:17:44Z</time>
      </trkpt>
      <trkpt lat="42.37485" lon="2.19428">
        <ele>1476</ele>
        <time>2024-09-25T14:17:45Z</time>
      </trkpt>
      <trkpt lat="42.37485" lon="2.19428">
        <ele>1476</ele>
        <time>2024-09-25T14:17:46Z</time>
      </trkpt>
      <trkpt lat="42.37485" lon="2.19428">
        <ele>1476</ele>
        <time>2024-09-25T14:17:47Z</time>
      </trkpt>
      <trkpt lat="42.37485" lon="2.19428">
        <ele>1476</ele>
        <time>2024-09-25T14:17:48Z</time>
      </trkpt>
      <trkpt lat="42.37484" lon="2.19428">
        <ele>1475.9</ele>
        <time>2024-09-25T14:17:49Z</time>
      </trkpt>
      <trkpt lat="42.37484" lon="2.19428">
        <ele>1475.9</ele>
        <time>2024-09-25T14:17:50Z</time>
      </trkpt>
      <trkpt lat="42.37484" lon="2.19428">
        <ele>1475.9</ele>
        <time>2024-09-25T14:17:51Z</time>
      </trkpt>
      <trkpt lat="42.37485" lon="2.19428">
        <ele>1475.9</ele>
        <time>2024-09-25T14:17:52Z</time>
      </trkpt>
      <trkpt lat="42.37485" lon="2.19427">
        <ele>1475.8</ele>
        <time>2024-09-25T14:17:53Z</time>
      </trkpt>
      <trkpt lat="42.37485" lon="2.19427">
        <ele>1475.8</ele>
        <time>2024-09-25T14:17:54Z</time>
      </trkpt>
      <trkpt lat="42.37485" lon="2.19427">
        <ele>1475.8</ele>
        <time>2024-09-25T14:17:55Z</time>
      </trkpt>
      <trkpt lat="42.37484" lon="2.19426">
        <ele>1475.7</ele>
        <time>2024-09-25T14:17:56Z</time>
      </trkpt>
      <trkpt lat="42.37484" lon="2.19426">
        <ele>1475.7</ele>
        <time>2024-09-25T14:17:57Z</time>
      </trkpt>
      <trkpt lat="42.37484" lon="2.19426">
        <ele>1475.6</ele>
        <time>2024-09-25T14:17:58Z</time>
      </trkpt>
      <trkpt lat="42.37484" lon="2.19426">
        <ele>1475.6</ele>
        <time>2024-09-25T14:17:59Z</time>
      </trkpt>
      <trkpt lat="42.37484" lon="2.19426">
        <ele>1475.6</ele>
        <time>2024-09-25T14:18:00Z</time>
      </trkpt>
      <trkpt lat="42.37484" lon="2.19425">
        <ele>1475.6</ele>
        <time>2024-09-25T14:18:01Z</time>
      </trkpt>
      <trkpt lat="42.37484" lon="2.19425">
        <ele>1475.6</ele>
        <time>2024-09-25T14:18:02Z</time>
      </trkpt>
      <trkpt lat="42.37484" lon="2.19425">
        <ele>1475.5</ele>
        <time>2024-09-25T14:18:03Z</time>
      </trkpt>
      <trkpt lat="42.37484" lon="2.19425">
        <ele>1475.5</ele>
        <time>2024-09-25T14:18:04Z</time>
      </trkpt>
      <trkpt lat="42.37484" lon="2.19425">
        <ele>1475.5</ele>
        <time>2024-09-25T14:18:05Z</time>
      </trkpt>
      <trkpt lat="42.37484" lon="2.19425">
        <ele>1475.5</ele>
        <time>2024-09-25T14:18:06Z</time>
      </trkpt>
      <trkpt lat="42.37485" lon="2.19424">
        <ele>1475.4</ele>
        <time>2024-09-25T14:18:07Z</time>
      </trkpt>
      <trkpt lat="42.37485" lon="2.19423">
        <ele>1475.3</ele>
        <time>2024-09-25T14:18:08Z</time>
      </trkpt>
      <trkpt lat="42.37486" lon="2.19423">
        <ele>1475.2</ele>
        <time>2024-09-25T14:18:09Z</time>
      </trkpt>
      <trkpt lat="42.37486" lon="2.19422">
        <ele>1475.2</ele>
        <time>2024-09-25T14:18:10Z</time>
      </trkpt>
      <trkpt lat="42.37486" lon="2.19421">
        <ele>1475.1</ele>
        <time>2024-09-25T14:18:11Z</time>
      </trkpt>
      <trkpt lat="42.37486" lon="2.1942">
        <ele>1475</ele>
        <time>2024-09-25T14:18:12Z</time>
      </trkpt>
      <trkpt lat="42.37487" lon="2.19419">
        <ele>1474.9</ele>
        <time>2024-09-25T14:18:13Z</time>
      </trkpt>
      <trkpt lat="42.37487" lon="2.19418">
        <ele>1474.8</ele>
        <time>2024-09-25T14:18:14Z</time>
      </trkpt>
      <trkpt lat="42.37488" lon="2.19417">
        <ele>1474.7</ele>
        <time>2024-09-25T14:18:15Z</time>
      </trkpt>
      <trkpt lat="42.37488" lon="2.19416">
        <ele>1474.6</ele>
        <time>2024-09-25T14:18:16Z</time>
      </trkpt>
      <trkpt lat="42.37488" lon="2.19416">
        <ele>1474.5</ele>
        <time>2024-09-25T14:18:17Z</time>
      </trkpt>
      <trkpt lat="42.37489" lon="2.19415">
        <ele>1474.5</ele>
        <time>2024-09-25T14:18:18Z</time>
      </trkpt>
      <trkpt lat="42.37489" lon="2.19414">
        <ele>1474.4</ele>
        <time>2024-09-25T14:18:19Z</time>
      </trkpt>
      <trkpt lat="42.37489" lon="2.19413">
        <ele>1474.3</ele>
        <time>2024-09-25T14:18:20Z</time>
      </trkpt>
      <trkpt lat="42.3749" lon="2.19412">
        <ele>1474.2</ele>
        <time>2024-09-25T14:18:21Z</time>
      </trkpt>
      <trkpt lat="42.3749" lon="2.19411">
        <ele>1474.1</ele>
        <time>2024-09-25T14:18:22Z</time>
      </trkpt>
      <trkpt lat="42.37491" lon="2.19411">
        <ele>1474</ele>
        <time>2024-09-25T14:18:23Z</time>
      </trkpt>
      <trkpt lat="42.37491" lon="2.1941">
        <ele>1473.9</ele>
        <time>2024-09-25T14:18:24Z</time>
      </trkpt>
      <trkpt lat="42.37492" lon="2.19409">
        <ele>1473.7</ele>
        <time>2024-09-25T14:18:25Z</time>
      </trkpt>
      <trkpt lat="42.37493" lon="2.19407">
        <ele>1473.5</ele>
        <time>2024-09-25T14:18:26Z</time>
      </trkpt>
      <trkpt lat="42.37494" lon="2.19406">
        <ele>1473.3</ele>
        <time>2024-09-25T14:18:27Z</time>
      </trkpt>
      <trkpt lat="42.37497" lon="2.19405">
        <ele>1472.8</ele>
        <time>2024-09-25T14:18:28Z</time>
      </trkpt>
      <trkpt lat="42.37499" lon="2.19405">
        <ele>1472.6</ele>
        <time>2024-09-25T14:18:29Z</time>
      </trkpt>
      <trkpt lat="42.37501" lon="2.19405">
        <ele>1472.4</ele>
        <time>2024-09-25T14:18:30Z</time>
      </trkpt>
      <trkpt lat="42.37502" lon="2.19405">
        <ele>1472.2</ele>
        <time>2024-09-25T14:18:31Z</time>
      </trkpt>
      <trkpt lat="42.37503" lon="2.19405">
        <ele>1472</ele>
        <time>2024-09-25T14:18:32Z</time>
      </trkpt>
      <trkpt lat="42.37504" lon="2.19405">
        <ele>1471.9</ele>
        <time>2024-09-25T14:18:33Z</time>
      </trkpt>
      <trkpt lat="42.37505" lon="2.19404">
        <ele>1471.8</ele>
        <time>2024-09-25T14:18:34Z</time>
      </trkpt>
      <trkpt lat="42.37506" lon="2.19404">
        <ele>1471.7</ele>
        <time>2024-09-25T14:18:35Z</time>
      </trkpt>
      <trkpt lat="42.37507" lon="2.19403">
        <ele>1471.5</ele>
        <time>2024-09-25T14:18:36Z</time>
      </trkpt>
      <trkpt lat="42.37507" lon="2.19401">
        <ele>1471.4</ele>
        <time>2024-09-25T14:18:37Z</time>
      </trkpt>
      <trkpt lat="42.37507" lon="2.194">
        <ele>1471.3</ele>
        <time>2024-09-25T14:18:38Z</time>
      </trkpt>
      <trkpt lat="42.37508" lon="2.194">
        <ele>1471.2</ele>
        <time>2024-09-25T14:18:39Z</time>
      </trkpt>
      <trkpt lat="42.37509" lon="2.194">
        <ele>1471.1</ele>
        <time>2024-09-25T14:18:40Z</time>
      </trkpt>
      <trkpt lat="42.3751" lon="2.194">
        <ele>1471</ele>
        <time>2024-09-25T14:18:41Z</time>
      </trkpt>
      <trkpt lat="42.37511" lon="2.194">
        <ele>1470.8</ele>
        <time>2024-09-25T14:18:42Z</time>
      </trkpt>
      <trkpt lat="42.37512" lon="2.19399">
        <ele>1470.6</ele>
        <time>2024-09-25T14:18:43Z</time>
      </trkpt>
      <trkpt lat="42.37513" lon="2.19398">
        <ele>1470.4</ele>
        <time>2024-09-25T14:18:44Z</time>
      </trkpt>
      <trkpt lat="42.37515" lon="2.19397">
        <ele>1470.2</ele>
        <time>2024-09-25T14:18:45Z</time>
      </trkpt>
      <trkpt lat="42.37516" lon="2.19397">
        <ele>1470.1</ele>
        <time>2024-09-25T14:18:46Z</time>
      </trkpt>
      <trkpt lat="42.37517" lon="2.19397">
        <ele>1470</ele>
        <time>2024-09-25T14:18:47Z</time>
      </trkpt>
      <trkpt lat="42.37518" lon="2.19396">
        <ele>1469.9</ele>
        <time>2024-09-25T14:18:48Z</time>
      </trkpt>
      <trkpt lat="42.37518" lon="2.19395">
        <ele>1469.8</ele>
        <time>2024-09-25T14:18:49Z</time>
      </trkpt>
      <trkpt lat="42.37519" lon="2.19394">
        <ele>1469.7</ele>
        <time>2024-09-25T14:18:50Z</time>
      </trkpt>
      <trkpt lat="42.37519" lon="2.19394">
        <ele>1469.5</ele>
        <time>2024-09-25T14:18:51Z</time>
      </trkpt>
      <trkpt lat="42.3752" lon="2.19393">
        <ele>1469.5</ele>
        <time>2024-09-25T14:18:52Z</time>
      </trkpt>
      <trkpt lat="42.3752" lon="2.19392">
        <ele>1469.4</ele>
        <time>2024-09-25T14:18:53Z</time>
      </trkpt>
      <trkpt lat="42.3752" lon="2.19392">
        <ele>1469.4</ele>
        <time>2024-09-25T14:18:54Z</time>
      </trkpt>
      <trkpt lat="42.3752" lon="2.19392">
        <ele>1469.3</ele>
        <time>2024-09-25T14:18:55Z</time>
      </trkpt>
      <trkpt lat="42.3752" lon="2.19393">
        <ele>1469.3</ele>
        <time>2024-09-25T14:18:56Z</time>
      </trkpt>
      <trkpt lat="42.3752" lon="2.19393">
        <ele>1469.3</ele>
        <time>2024-09-25T14:18:57Z</time>
      </trkpt>
      <trkpt lat="42.3752" lon="2.19393">
        <ele>1469.2</ele>
        <time>2024-09-25T14:18:58Z</time>
      </trkpt>
      <trkpt lat="42.37519" lon="2.19393">
        <ele>1469.2</ele>
        <time>2024-09-25T14:18:59Z</time>
      </trkpt>
      <trkpt lat="42.37519" lon="2.19393">
        <ele>1469.2</ele>
        <time>2024-09-25T14:19:00Z</time>
      </trkpt>
      <trkpt lat="42.37519" lon="2.19393">
        <ele>1469.2</ele>
        <time>2024-09-25T14:19:01Z</time>
      </trkpt>
      <trkpt lat="42.37519" lon="2.19393">
        <ele>1469.2</ele>
        <time>2024-09-25T14:19:02Z</time>
      </trkpt>
      <trkpt lat="42.37519" lon="2.19393">
        <ele>1469.2</ele>
        <time>2024-09-25T14:19:03Z</time>
      </trkpt>
      <trkpt lat="42.37519" lon="2.19393">
        <ele>1469.2</ele>
        <time>2024-09-25T14:19:04Z</time>
      </trkpt>
      <trkpt lat="42.3752" lon="2.19392">
        <ele>1469.1</ele>
        <time>2024-09-25T14:19:05Z</time>
      </trkpt>
      <trkpt lat="42.3752" lon="2.19392">
        <ele>1469.1</ele>
        <time>2024-09-25T14:19:06Z</time>
      </trkpt>
      <trkpt lat="42.37521" lon="2.19392">
        <ele>1469</ele>
        <time>2024-09-25T14:19:07Z</time>
      </trkpt>
      <trkpt lat="42.37521" lon="2.19392">
        <ele>1468.9</ele>
        <time>2024-09-25T14:19:08Z</time>
      </trkpt>
      <trkpt lat="42.37523" lon="2.1939">
        <ele>1468.7</ele>
        <time>2024-09-25T14:19:09Z</time>
      </trkpt>
      <trkpt lat="42.37523" lon="2.1939">
        <ele>1468.7</ele>
        <time>2024-09-25T14:19:10Z</time>
      </trkpt>
      <trkpt lat="42.37524" lon="2.1939">
        <ele>1468.6</ele>
        <time>2024-09-25T14:19:11Z</time>
      </trkpt>
      <trkpt lat="42.37524" lon="2.1939">
        <ele>1468.6</ele>
        <time>2024-09-25T14:19:12Z</time>
      </trkpt>
      <trkpt lat="42.37524" lon="2.1939">
        <ele>1468.5</ele>
        <time>2024-09-25T14:19:13Z</time>
      </trkpt>
      <trkpt lat="42.37525" lon="2.1939">
        <ele>1468.5</ele>
        <time>2024-09-25T14:19:14Z</time>
      </trkpt>
      <trkpt lat="42.37525" lon="2.19389">
        <ele>1468.4</ele>
        <time>2024-09-25T14:19:15Z</time>
      </trkpt>
      <trkpt lat="42.37526" lon="2.19389">
        <ele>1468.4</ele>
        <time>2024-09-25T14:19:16Z</time>
      </trkpt>
      <trkpt lat="42.37526" lon="2.19389">
        <ele>1468.3</ele>
        <time>2024-09-25T14:19:17Z</time>
      </trkpt>
      <trkpt lat="42.37526" lon="2.19388">
        <ele>1468.3</ele>
        <time>2024-09-25T14:19:18Z</time>
      </trkpt>
      <trkpt lat="42.37526" lon="2.19388">
        <ele>1468.2</ele>
        <time>2024-09-25T14:19:19Z</time>
      </trkpt>
      <trkpt lat="42.37527" lon="2.19387">
        <ele>1468.2</ele>
        <time>2024-09-25T14:19:20Z</time>
      </trkpt>
      <trkpt lat="42.37527" lon="2.19387">
        <ele>1468.2</ele>
        <time>2024-09-25T14:19:21Z</time>
      </trkpt>
      <trkpt lat="42.37527" lon="2.19386">
        <ele>1468.1</ele>
        <time>2024-09-25T14:19:22Z</time>
      </trkpt>
      <trkpt lat="42.37527" lon="2.19384">
        <ele>1468</ele>
        <time>2024-09-25T14:19:23Z</time>
      </trkpt>
      <trkpt lat="42.37527" lon="2.19383">
        <ele>1467.9</ele>
        <time>2024-09-25T14:19:24Z</time>
      </trkpt>
      <trkpt lat="42.37527" lon="2.19381">
        <ele>1467.8</ele>
        <time>2024-09-25T14:19:25Z</time>
      </trkpt>
      <trkpt lat="42.37527" lon="2.1938">
        <ele>1467.7</ele>
        <time>2024-09-25T14:19:26Z</time>
      </trkpt>
      <trkpt lat="42.37526" lon="2.19379">
        <ele>1467.6</ele>
        <time>2024-09-25T14:19:27Z</time>
      </trkpt>
      <trkpt lat="42.37526" lon="2.19379">
        <ele>1467.6</ele>
        <time>2024-09-25T14:19:28Z</time>
      </trkpt>
      <trkpt lat="42.37525" lon="2.19378">
        <ele>1467.5</ele>
        <time>2024-09-25T14:19:29Z</time>
      </trkpt>
      <trkpt lat="42.37525" lon="2.19378">
        <ele>1467.5</ele>
        <time>2024-09-25T14:19:30Z</time>
      </trkpt>
      <trkpt lat="42.37525" lon="2.19378">
        <ele>1467.4</ele>
        <time>2024-09-25T14:19:31Z</time>
      </trkpt>
      <trkpt lat="42.37524" lon="2.19378">
        <ele>1467.4</ele>
        <time>2024-09-25T14:19:32Z</time>
      </trkpt>
      <trkpt lat="42.37523" lon="2.19377">
        <ele>1467.3</ele>
        <time>2024-09-25T14:19:33Z</time>
      </trkpt>
      <trkpt lat="42.37523" lon="2.19377">
        <ele>1467.3</ele>
        <time>2024-09-25T14:19:34Z</time>
      </trkpt>
      <trkpt lat="42.37522" lon="2.19376">
        <ele>1467.2</ele>
        <time>2024-09-25T14:19:35Z</time>
      </trkpt>
      <trkpt lat="42.37522" lon="2.19375">
        <ele>1467.1</ele>
        <time>2024-09-25T14:19:36Z</time>
      </trkpt>
      <trkpt lat="42.37522" lon="2.19374">
        <ele>1467</ele>
        <time>2024-09-25T14:19:37Z</time>
      </trkpt>
      <trkpt lat="42.37521" lon="2.19373">
        <ele>1466.9</ele>
        <time>2024-09-25T14:19:38Z</time>
      </trkpt>
      <trkpt lat="42.37521" lon="2.19372">
        <ele>1466.9</ele>
        <time>2024-09-25T14:19:39Z</time>
      </trkpt>
      <trkpt lat="42.3752" lon="2.19372">
        <ele>1466.8</ele>
        <time>2024-09-25T14:19:40Z</time>
      </trkpt>
      <trkpt lat="42.3752" lon="2.19372">
        <ele>1466.7</ele>
        <time>2024-09-25T14:19:41Z</time>
      </trkpt>
      <trkpt lat="42.37519" lon="2.19372">
        <ele>1466.7</ele>
        <time>2024-09-25T14:19:42Z</time>
      </trkpt>
      <trkpt lat="42.37519" lon="2.19372">
        <ele>1466.7</ele>
        <time>2024-09-25T14:19:43Z</time>
      </trkpt>
      <trkpt lat="42.37519" lon="2.19371">
        <ele>1466.6</ele>
        <time>2024-09-25T14:19:44Z</time>
      </trkpt>
      <trkpt lat="42.37518" lon="2.1937">
        <ele>1466.5</ele>
        <time>2024-09-25T14:19:45Z</time>
      </trkpt>
      <trkpt lat="42.37518" lon="2.19369">
        <ele>1466.5</ele>
        <time>2024-09-25T14:19:46Z</time>
      </trkpt>
      <trkpt lat="42.37517" lon="2.19368">
        <ele>1466.4</ele>
        <time>2024-09-25T14:19:47Z</time>
      </trkpt>
      <trkpt lat="42.37517" lon="2.19366">
        <ele>1466.3</ele>
        <time>2024-09-25T14:19:48Z</time>
      </trkpt>
      <trkpt lat="42.37516" lon="2.19367">
        <ele>1466.2</ele>
        <time>2024-09-25T14:19:49Z</time>
      </trkpt>
      <trkpt lat="42.37516" lon="2.19366">
        <ele>1466.2</ele>
        <time>2024-09-25T14:19:50Z</time>
      </trkpt>
      <trkpt lat="42.37516" lon="2.19365">
        <ele>1466.1</ele>
        <time>2024-09-25T14:19:51Z</time>
      </trkpt>
      <trkpt lat="42.37516" lon="2.19364">
        <ele>1466.1</ele>
        <time>2024-09-25T14:19:52Z</time>
      </trkpt>
      <trkpt lat="42.37515" lon="2.19363">
        <ele>1466</ele>
        <time>2024-09-25T14:19:53Z</time>
      </trkpt>
      <trkpt lat="42.37515" lon="2.19361">
        <ele>1465.9</ele>
        <time>2024-09-25T14:19:54Z</time>
      </trkpt>
      <trkpt lat="42.37514" lon="2.1936">
        <ele>1465.8</ele>
        <time>2024-09-25T14:19:55Z</time>
      </trkpt>
      <trkpt lat="42.37514" lon="2.19359">
        <ele>1465.7</ele>
        <time>2024-09-25T14:19:56Z</time>
      </trkpt>
      <trkpt lat="42.37513" lon="2.19358">
        <ele>1465.6</ele>
        <time>2024-09-25T14:19:57Z</time>
      </trkpt>
      <trkpt lat="42.37514" lon="2.19357">
        <ele>1465.6</ele>
        <time>2024-09-25T14:19:58Z</time>
      </trkpt>
      <trkpt lat="42.37513" lon="2.19357">
        <ele>1465.6</ele>
        <time>2024-09-25T14:19:59Z</time>
      </trkpt>
      <trkpt lat="42.37513" lon="2.19357">
        <ele>1465.5</ele>
        <time>2024-09-25T14:20:00Z</time>
      </trkpt>
      <trkpt lat="42.37512" lon="2.19357">
        <ele>1465.4</ele>
        <time>2024-09-25T14:20:01Z</time>
      </trkpt>
      <trkpt lat="42.37512" lon="2.19356">
        <ele>1465.4</ele>
        <time>2024-09-25T14:20:02Z</time>
      </trkpt>
      <trkpt lat="42.37511" lon="2.19355">
        <ele>1465.3</ele>
        <time>2024-09-25T14:20:03Z</time>
      </trkpt>
      <trkpt lat="42.37511" lon="2.19354">
        <ele>1465.3</ele>
        <time>2024-09-25T14:20:04Z</time>
      </trkpt>
      <trkpt lat="42.37511" lon="2.19354">
        <ele>1465.2</ele>
        <time>2024-09-25T14:20:05Z</time>
      </trkpt>
      <trkpt lat="42.37511" lon="2.19353">
        <ele>1465.2</ele>
        <time>2024-09-25T14:20:06Z</time>
      </trkpt>
      <trkpt lat="42.3751" lon="2.19352">
        <ele>1465.1</ele>
        <time>2024-09-25T14:20:07Z</time>
      </trkpt>
      <trkpt lat="42.3751" lon="2.19351">
        <ele>1465</ele>
        <time>2024-09-25T14:20:08Z</time>
      </trkpt>
      <trkpt lat="42.37509" lon="2.1935">
        <ele>1465</ele>
        <time>2024-09-25T14:20:09Z</time>
      </trkpt>
      <trkpt lat="42.37508" lon="2.1935">
        <ele>1464.9</ele>
        <time>2024-09-25T14:20:10Z</time>
      </trkpt>
      <trkpt lat="42.37508" lon="2.19349">
        <ele>1464.8</ele>
        <time>2024-09-25T14:20:11Z</time>
      </trkpt>
      <trkpt lat="42.37508" lon="2.19348">
        <ele>1464.8</ele>
        <time>2024-09-25T14:20:12Z</time>
      </trkpt>
      <trkpt lat="42.37508" lon="2.19347">
        <ele>1464.7</ele>
        <time>2024-09-25T14:20:13Z</time>
      </trkpt>
      <trkpt lat="42.37508" lon="2.19346">
        <ele>1464.7</ele>
        <time>2024-09-25T14:20:14Z</time>
      </trkpt>
      <trkpt lat="42.37508" lon="2.19346">
        <ele>1464.6</ele>
        <time>2024-09-25T14:20:15Z</time>
      </trkpt>
      <trkpt lat="42.37508" lon="2.19345">
        <ele>1464.6</ele>
        <time>2024-09-25T14:20:16Z</time>
      </trkpt>
      <trkpt lat="42.37508" lon="2.19345">
        <ele>1464.5</ele>
        <time>2024-09-25T14:20:17Z</time>
      </trkpt>
      <trkpt lat="42.37508" lon="2.19343">
        <ele>1464.4</ele>
        <time>2024-09-25T14:20:18Z</time>
      </trkpt>
      <trkpt lat="42.37508" lon="2.19341">
        <ele>1464.3</ele>
        <time>2024-09-25T14:20:19Z</time>
      </trkpt>
      <trkpt lat="42.37507" lon="2.1934">
        <ele>1464.2</ele>
        <time>2024-09-25T14:20:20Z</time>
      </trkpt>
      <trkpt lat="42.37507" lon="2.19339">
        <ele>1464.2</ele>
        <time>2024-09-25T14:20:21Z</time>
      </trkpt>
      <trkpt lat="42.37507" lon="2.19339">
        <ele>1464.2</ele>
        <time>2024-09-25T14:20:22Z</time>
      </trkpt>
      <trkpt lat="42.37507" lon="2.19338">
        <ele>1464.1</ele>
        <time>2024-09-25T14:20:23Z</time>
      </trkpt>
      <trkpt lat="42.37507" lon="2.19338">
        <ele>1464.1</ele>
        <time>2024-09-25T14:20:24Z</time>
      </trkpt>
      <trkpt lat="42.37507" lon="2.19337">
        <ele>1464</ele>
        <time>2024-09-25T14:20:25Z</time>
      </trkpt>
      <trkpt lat="42.37506" lon="2.19336">
        <ele>1464</ele>
        <time>2024-09-25T14:20:26Z</time>
      </trkpt>
      <trkpt lat="42.37506" lon="2.19335">
        <ele>1463.9</ele>
        <time>2024-09-25T14:20:27Z</time>
      </trkpt>
      <trkpt lat="42.37506" lon="2.19334">
        <ele>1463.9</ele>
        <time>2024-09-25T14:20:28Z</time>
      </trkpt>
      <trkpt lat="42.37506" lon="2.19333">
        <ele>1463.8</ele>
        <time>2024-09-25T14:20:29Z</time>
      </trkpt>
      <trkpt lat="42.37506" lon="2.19332">
        <ele>1463.7</ele>
        <time>2024-09-25T14:20:30Z</time>
      </trkpt>
      <trkpt lat="42.37505" lon="2.19331">
        <ele>1463.6</ele>
        <time>2024-09-25T14:20:31Z</time>
      </trkpt>
      <trkpt lat="42.37504" lon="2.19331">
        <ele>1463.5</ele>
        <time>2024-09-25T14:20:32Z</time>
      </trkpt>
      <trkpt lat="42.37503" lon="2.19331">
        <ele>1463.4</ele>
        <time>2024-09-25T14:20:33Z</time>
      </trkpt>
      <trkpt lat="42.37502" lon="2.19331">
        <ele>1463.3</ele>
        <time>2024-09-25T14:20:34Z</time>
      </trkpt>
      <trkpt lat="42.37502" lon="2.1933">
        <ele>1463.3</ele>
        <time>2024-09-25T14:20:35Z</time>
      </trkpt>
      <trkpt lat="42.37501" lon="2.1933">
        <ele>1463.2</ele>
        <time>2024-09-25T14:20:36Z</time>
      </trkpt>
      <trkpt lat="42.375" lon="2.19329">
        <ele>1463.1</ele>
        <time>2024-09-25T14:20:37Z</time>
      </trkpt>
      <trkpt lat="42.37499" lon="2.19329">
        <ele>1463.1</ele>
        <time>2024-09-25T14:20:38Z</time>
      </trkpt>
      <trkpt lat="42.37499" lon="2.19328">
        <ele>1463</ele>
        <time>2024-09-25T14:20:39Z</time>
      </trkpt>
      <trkpt lat="42.37498" lon="2.19327">
        <ele>1462.9</ele>
        <time>2024-09-25T14:20:40Z</time>
      </trkpt>
      <trkpt lat="42.37497" lon="2.19326">
        <ele>1462.8</ele>
        <time>2024-09-25T14:20:41Z</time>
      </trkpt>
      <trkpt lat="42.37496" lon="2.19323">
        <ele>1462.6</ele>
        <time>2024-09-25T14:20:42Z</time>
      </trkpt>
      <trkpt lat="42.37496" lon="2.19322">
        <ele>1462.5</ele>
        <time>2024-09-25T14:20:43Z</time>
      </trkpt>
      <trkpt lat="42.37495" lon="2.19321">
        <ele>1462.5</ele>
        <time>2024-09-25T14:20:44Z</time>
      </trkpt>
      <trkpt lat="42.37495" lon="2.1932">
        <ele>1462.4</ele>
        <time>2024-09-25T14:20:45Z</time>
      </trkpt>
      <trkpt lat="42.37495" lon="2.19319">
        <ele>1462.3</ele>
        <time>2024-09-25T14:20:46Z</time>
      </trkpt>
      <trkpt lat="42.37495" lon="2.19317">
        <ele>1462.2</ele>
        <time>2024-09-25T14:20:47Z</time>
      </trkpt>
      <trkpt lat="42.37494" lon="2.19315">
        <ele>1462</ele>
        <time>2024-09-25T14:20:48Z</time>
      </trkpt>
      <trkpt lat="42.37494" lon="2.19314">
        <ele>1461.9</ele>
        <time>2024-09-25T14:20:49Z</time>
      </trkpt>
      <trkpt lat="42.37494" lon="2.19312">
        <ele>1461.8</ele>
        <time>2024-09-25T14:20:50Z</time>
      </trkpt>
      <trkpt lat="42.37493" lon="2.19311">
        <ele>1461.7</ele>
        <time>2024-09-25T14:20:51Z</time>
      </trkpt>
      <trkpt lat="42.37493" lon="2.19309">
        <ele>1461.6</ele>
        <time>2024-09-25T14:20:52Z</time>
      </trkpt>
      <trkpt lat="42.37493" lon="2.19308">
        <ele>1461.5</ele>
        <time>2024-09-25T14:20:53Z</time>
      </trkpt>
      <trkpt lat="42.37492" lon="2.19307">
        <ele>1461.4</ele>
        <time>2024-09-25T14:20:54Z</time>
      </trkpt>
      <trkpt lat="42.37491" lon="2.19305">
        <ele>1461.3</ele>
        <time>2024-09-25T14:20:55Z</time>
      </trkpt>
      <trkpt lat="42.37491" lon="2.19304">
        <ele>1461.2</ele>
        <time>2024-09-25T14:20:56Z</time>
      </trkpt>
      <trkpt lat="42.3749" lon="2.19303">
        <ele>1461.1</ele>
        <time>2024-09-25T14:20:57Z</time>
      </trkpt>
      <trkpt lat="42.3749" lon="2.19302">
        <ele>1461.1</ele>
        <time>2024-09-25T14:20:58Z</time>
      </trkpt>
      <trkpt lat="42.37489" lon="2.19301">
        <ele>1460.9</ele>
        <time>2024-09-25T14:20:59Z</time>
      </trkpt>
      <trkpt lat="42.37488" lon="2.193">
        <ele>1460.8</ele>
        <time>2024-09-25T14:21:00Z</time>
      </trkpt>
      <trkpt lat="42.37488" lon="2.19299">
        <ele>1460.8</ele>
        <time>2024-09-25T14:21:01Z</time>
      </trkpt>
      <trkpt lat="42.37488" lon="2.19298">
        <ele>1460.7</ele>
        <time>2024-09-25T14:21:02Z</time>
      </trkpt>
      <trkpt lat="42.37488" lon="2.19297">
        <ele>1460.6</ele>
        <time>2024-09-25T14:21:03Z</time>
      </trkpt>
      <trkpt lat="42.37488" lon="2.19295">
        <ele>1460.5</ele>
        <time>2024-09-25T14:21:04Z</time>
      </trkpt>
      <trkpt lat="42.37487" lon="2.19295">
        <ele>1460.5</ele>
        <time>2024-09-25T14:21:05Z</time>
      </trkpt>
      <trkpt lat="42.37487" lon="2.19294">
        <ele>1460.4</ele>
        <time>2024-09-25T14:21:06Z</time>
      </trkpt>
      <trkpt lat="42.37487" lon="2.19294">
        <ele>1460.4</ele>
        <time>2024-09-25T14:21:07Z</time>
      </trkpt>
      <trkpt lat="42.37487" lon="2.19294">
        <ele>1460.4</ele>
        <time>2024-09-25T14:21:08Z</time>
      </trkpt>
      <trkpt lat="42.37488" lon="2.19293">
        <ele>1460.3</ele>
        <time>2024-09-25T14:21:09Z</time>
      </trkpt>
      <trkpt lat="42.37488" lon="2.19293">
        <ele>1460.3</ele>
        <time>2024-09-25T14:21:10Z</time>
      </trkpt>
      <trkpt lat="42.37488" lon="2.19293">
        <ele>1460.2</ele>
        <time>2024-09-25T14:21:11Z</time>
      </trkpt>
      <trkpt lat="42.37489" lon="2.19293">
        <ele>1460.2</ele>
        <time>2024-09-25T14:21:12Z</time>
      </trkpt>
      <trkpt lat="42.37489" lon="2.19293">
        <ele>1460.2</ele>
        <time>2024-09-25T14:21:13Z</time>
      </trkpt>
      <trkpt lat="42.37489" lon="2.19293">
        <ele>1460.2</ele>
        <time>2024-09-25T14:21:14Z</time>
      </trkpt>
      <trkpt lat="42.37489" lon="2.19293">
        <ele>1460.2</ele>
        <time>2024-09-25T14:21:15Z</time>
      </trkpt>
      <trkpt lat="42.37489" lon="2.19293">
        <ele>1460.2</ele>
        <time>2024-09-25T14:21:16Z</time>
      </trkpt>
      <trkpt lat="42.37489" lon="2.19293">
        <ele>1460.2</ele>
        <time>2024-09-25T14:21:17Z</time>
      </trkpt>
      <trkpt lat="42.37488" lon="2.19293">
        <ele>1460.2</ele>
        <time>2024-09-25T14:21:18Z</time>
      </trkpt>
      <trkpt lat="42.37488" lon="2.19293">
        <ele>1460.1</ele>
        <time>2024-09-25T14:21:19Z</time>
      </trkpt>
      <trkpt lat="42.37488" lon="2.19293">
        <ele>1460.1</ele>
        <time>2024-09-25T14:21:20Z</time>
      </trkpt>
      <trkpt lat="42.37488" lon="2.19292">
        <ele>1460.1</ele>
        <time>2024-09-25T14:21:21Z</time>
      </trkpt>
      <trkpt lat="42.37488" lon="2.19291">
        <ele>1460</ele>
        <time>2024-09-25T14:21:22Z</time>
      </trkpt>
      <trkpt lat="42.37488" lon="2.1929">
        <ele>1459.9</ele>
        <time>2024-09-25T14:21:23Z</time>
      </trkpt>
      <trkpt lat="42.37487" lon="2.19288">
        <ele>1459.8</ele>
        <time>2024-09-25T14:21:24Z</time>
      </trkpt>
      <trkpt lat="42.37486" lon="2.19287">
        <ele>1459.7</ele>
        <time>2024-09-25T14:21:25Z</time>
      </trkpt>
      <trkpt lat="42.37486" lon="2.19285">
        <ele>1459.5</ele>
        <time>2024-09-25T14:21:26Z</time>
      </trkpt>
      <trkpt lat="42.37486" lon="2.19284">
        <ele>1459.5</ele>
        <time>2024-09-25T14:21:27Z</time>
      </trkpt>
      <trkpt lat="42.37486" lon="2.19282">
        <ele>1459.3</ele>
        <time>2024-09-25T14:21:28Z</time>
      </trkpt>
      <trkpt lat="42.37486" lon="2.19281">
        <ele>1459.2</ele>
        <time>2024-09-25T14:21:29Z</time>
      </trkpt>
      <trkpt lat="42.37485" lon="2.19281">
        <ele>1459.2</ele>
        <time>2024-09-25T14:21:30Z</time>
      </trkpt>
      <trkpt lat="42.37485" lon="2.19281">
        <ele>1459.1</ele>
        <time>2024-09-25T14:21:31Z</time>
      </trkpt>
      <trkpt lat="42.37486" lon="2.1928">
        <ele>1459.1</ele>
        <time>2024-09-25T14:21:32Z</time>
      </trkpt>
      <trkpt lat="42.37486" lon="2.19279">
        <ele>1459</ele>
        <time>2024-09-25T14:21:33Z</time>
      </trkpt>
      <trkpt lat="42.37485" lon="2.19278">
        <ele>1458.9</ele>
        <time>2024-09-25T14:21:34Z</time>
      </trkpt>
      <trkpt lat="42.37485" lon="2.19277">
        <ele>1458.8</ele>
        <time>2024-09-25T14:21:35Z</time>
      </trkpt>
      <trkpt lat="42.37485" lon="2.19277">
        <ele>1458.8</ele>
        <time>2024-09-25T14:21:36Z</time>
      </trkpt>
      <trkpt lat="42.37484" lon="2.19277">
        <ele>1458.7</ele>
        <time>2024-09-25T14:21:37Z</time>
      </trkpt>
      <trkpt lat="42.37484" lon="2.19277">
        <ele>1458.7</ele>
        <time>2024-09-25T14:21:38Z</time>
      </trkpt>
      <trkpt lat="42.37484" lon="2.19276">
        <ele>1458.6</ele>
        <time>2024-09-25T14:21:39Z</time>
      </trkpt>
      <trkpt lat="42.37483" lon="2.19276">
        <ele>1458.6</ele>
        <time>2024-09-25T14:21:40Z</time>
      </trkpt>
      <trkpt lat="42.37483" lon="2.19275">
        <ele>1458.5</ele>
        <time>2024-09-25T14:21:41Z</time>
      </trkpt>
      <trkpt lat="42.37483" lon="2.19275">
        <ele>1458.5</ele>
        <time>2024-09-25T14:21:42Z</time>
      </trkpt>
      <trkpt lat="42.37483" lon="2.19274">
        <ele>1458.4</ele>
        <time>2024-09-25T14:21:43Z</time>
      </trkpt>
      <trkpt lat="42.37483" lon="2.19273">
        <ele>1458.3</ele>
        <time>2024-09-25T14:21:44Z</time>
      </trkpt>
      <trkpt lat="42.37481" lon="2.19272">
        <ele>1458.1</ele>
        <time>2024-09-25T14:21:45Z</time>
      </trkpt>
      <trkpt lat="42.3748" lon="2.19272">
        <ele>1458</ele>
        <time>2024-09-25T14:21:46Z</time>
      </trkpt>
      <trkpt lat="42.37479" lon="2.19271">
        <ele>1457.8</ele>
        <time>2024-09-25T14:21:47Z</time>
      </trkpt>
      <trkpt lat="42.37478" lon="2.1927">
        <ele>1457.7</ele>
        <time>2024-09-25T14:21:48Z</time>
      </trkpt>
      <trkpt lat="42.37478" lon="2.19268">
        <ele>1457.5</ele>
        <time>2024-09-25T14:21:49Z</time>
      </trkpt>
      <trkpt lat="42.37477" lon="2.19267">
        <ele>1457.4</ele>
        <time>2024-09-25T14:21:50Z</time>
      </trkpt>
      <trkpt lat="42.37476" lon="2.19265">
        <ele>1457.2</ele>
        <time>2024-09-25T14:21:51Z</time>
      </trkpt>
      <trkpt lat="42.37476" lon="2.19264">
        <ele>1457.1</ele>
        <time>2024-09-25T14:21:52Z</time>
      </trkpt>
      <trkpt lat="42.37475" lon="2.19264">
        <ele>1457</ele>
        <time>2024-09-25T14:21:53Z</time>
      </trkpt>
      <trkpt lat="42.37475" lon="2.19263">
        <ele>1456.9</ele>
        <time>2024-09-25T14:21:54Z</time>
      </trkpt>
      <trkpt lat="42.37474" lon="2.19263">
        <ele>1456.8</ele>
        <time>2024-09-25T14:21:55Z</time>
      </trkpt>
      <trkpt lat="42.37474" lon="2.19262">
        <ele>1456.8</ele>
        <time>2024-09-25T14:21:56Z</time>
      </trkpt>
      <trkpt lat="42.37473" lon="2.19262">
        <ele>1456.7</ele>
        <time>2024-09-25T14:21:57Z</time>
      </trkpt>
      <trkpt lat="42.37473" lon="2.19261">
        <ele>1456.6</ele>
        <time>2024-09-25T14:21:58Z</time>
      </trkpt>
      <trkpt lat="42.37472" lon="2.19261">
        <ele>1456.5</ele>
        <time>2024-09-25T14:21:59Z</time>
      </trkpt>
      <trkpt lat="42.37472" lon="2.19262">
        <ele>1456.4</ele>
        <time>2024-09-25T14:22:00Z</time>
      </trkpt>
      <trkpt lat="42.37473" lon="2.19263">
        <ele>1456.3</ele>
        <time>2024-09-25T14:22:01Z</time>
      </trkpt>
      <trkpt lat="42.37474" lon="2.19263">
        <ele>1456.1</ele>
        <time>2024-09-25T14:22:02Z</time>
      </trkpt>
      <trkpt lat="42.37475" lon="2.19264">
        <ele>1456</ele>
        <time>2024-09-25T14:22:03Z</time>
      </trkpt>
      <trkpt lat="42.37475" lon="2.19265">
        <ele>1455.8</ele>
        <time>2024-09-25T14:22:04Z</time>
      </trkpt>
      <trkpt lat="42.37476" lon="2.19262">
        <ele>1455.5</ele>
        <time>2024-09-25T14:22:05Z</time>
      </trkpt>
      <trkpt lat="42.37476" lon="2.19258">
        <ele>1455.1</ele>
        <time>2024-09-25T14:22:06Z</time>
      </trkpt>
      <trkpt lat="42.37472" lon="2.19246">
        <ele>1453.6</ele>
        <time>2024-09-25T14:22:07Z</time>
      </trkpt>
      <trkpt lat="42.3747" lon="2.19241">
        <ele>1453</ele>
        <time>2024-09-25T14:22:08Z</time>
      </trkpt>
      <trkpt lat="42.3747" lon="2.19239">
        <ele>1452.8</ele>
        <time>2024-09-25T14:22:09Z</time>
      </trkpt>
      <trkpt lat="42.3747" lon="2.19236">
        <ele>1452.4</ele>
        <time>2024-09-25T14:22:10Z</time>
      </trkpt>
      <trkpt lat="42.37469" lon="2.19234">
        <ele>1452.2</ele>
        <time>2024-09-25T14:22:11Z</time>
      </trkpt>
      <trkpt lat="42.37468" lon="2.19233">
        <ele>1452</ele>
        <time>2024-09-25T14:22:12Z</time>
      </trkpt>
      <trkpt lat="42.37468" lon="2.19232">
        <ele>1451.9</ele>
        <time>2024-09-25T14:22:13Z</time>
      </trkpt>
      <trkpt lat="42.37467" lon="2.19231">
        <ele>1451.7</ele>
        <time>2024-09-25T14:22:14Z</time>
      </trkpt>
      <trkpt lat="42.37467" lon="2.1923">
        <ele>1451.6</ele>
        <time>2024-09-25T14:22:15Z</time>
      </trkpt>
      <trkpt lat="42.37467" lon="2.19229">
        <ele>1451.4</ele>
        <time>2024-09-25T14:22:16Z</time>
      </trkpt>
      <trkpt lat="42.37467" lon="2.19228">
        <ele>1451.4</ele>
        <time>2024-09-25T14:22:17Z</time>
      </trkpt>
      <trkpt lat="42.37468" lon="2.19229">
        <ele>1451.3</ele>
        <time>2024-09-25T14:22:18Z</time>
      </trkpt>
      <trkpt lat="42.37469" lon="2.19229">
        <ele>1451.2</ele>
        <time>2024-09-25T14:22:19Z</time>
      </trkpt>
      <trkpt lat="42.37469" lon="2.19229">
        <ele>1451.2</ele>
        <time>2024-09-25T14:22:20Z</time>
      </trkpt>
      <trkpt lat="42.37469" lon="2.19229">
        <ele>1451.2</ele>
        <time>2024-09-25T14:22:21Z</time>
      </trkpt>
      <trkpt lat="42.37469" lon="2.19229">
        <ele>1451.2</ele>
        <time>2024-09-25T14:22:22Z</time>
      </trkpt>
      <trkpt lat="42.37469" lon="2.19228">
        <ele>1451.2</ele>
        <time>2024-09-25T14:22:23Z</time>
      </trkpt>
      <trkpt lat="42.37469" lon="2.19228">
        <ele>1451.2</ele>
        <time>2024-09-25T14:22:24Z</time>
      </trkpt>
      <trkpt lat="42.37469" lon="2.19228">
        <ele>1451.2</ele>
        <time>2024-09-25T14:22:25Z</time>
      </trkpt>
      <trkpt lat="42.37469" lon="2.19228">
        <ele>1451.2</ele>
        <time>2024-09-25T14:22:26Z</time>
      </trkpt>
      <trkpt lat="42.37469" lon="2.19228">
        <ele>1451.2</ele>
        <time>2024-09-25T14:22:27Z</time>
      </trkpt>
      <trkpt lat="42.37469" lon="2.19228">
        <ele>1451.1</ele>
        <time>2024-09-25T14:22:28Z</time>
      </trkpt>
      <trkpt lat="42.37469" lon="2.19228">
        <ele>1451.1</ele>
        <time>2024-09-25T14:22:29Z</time>
      </trkpt>
      <trkpt lat="42.37469" lon="2.19228">
        <ele>1451.1</ele>
        <time>2024-09-25T14:22:30Z</time>
      </trkpt>
      <trkpt lat="42.37469" lon="2.19228">
        <ele>1451.1</ele>
        <time>2024-09-25T14:22:31Z</time>
      </trkpt>
      <trkpt lat="42.37468" lon="2.19228">
        <ele>1451.1</ele>
        <time>2024-09-25T14:22:32Z</time>
      </trkpt>
      <trkpt lat="42.37468" lon="2.19228">
        <ele>1451</ele>
        <time>2024-09-25T14:22:33Z</time>
      </trkpt>
      <trkpt lat="42.37468" lon="2.19227">
        <ele>1451</ele>
        <time>2024-09-25T14:22:34Z</time>
      </trkpt>
      <trkpt lat="42.37468" lon="2.19227">
        <ele>1451</ele>
        <time>2024-09-25T14:22:35Z</time>
      </trkpt>
      <trkpt lat="42.37468" lon="2.19227">
        <ele>1450.9</ele>
        <time>2024-09-25T14:22:36Z</time>
      </trkpt>
      <trkpt lat="42.37468" lon="2.19227">
        <ele>1450.9</ele>
        <time>2024-09-25T14:22:37Z</time>
      </trkpt>
      <trkpt lat="42.37468" lon="2.19227">
        <ele>1450.9</ele>
        <time>2024-09-25T14:22:38Z</time>
      </trkpt>
      <trkpt lat="42.37468" lon="2.19226">
        <ele>1450.9</ele>
        <time>2024-09-25T14:22:39Z</time>
      </trkpt>
      <trkpt lat="42.37468" lon="2.19226">
        <ele>1450.9</ele>
        <time>2024-09-25T14:22:40Z</time>
      </trkpt>
      <trkpt lat="42.37468" lon="2.19226">
        <ele>1450.9</ele>
        <time>2024-09-25T14:22:41Z</time>
      </trkpt>
      <trkpt lat="42.37468" lon="2.19226">
        <ele>1450.9</ele>
        <time>2024-09-25T14:22:42Z</time>
      </trkpt>
      <trkpt lat="42.37468" lon="2.19226">
        <ele>1450.9</ele>
        <time>2024-09-25T14:22:43Z</time>
      </trkpt>
      <trkpt lat="42.37468" lon="2.19226">
        <ele>1450.9</ele>
        <time>2024-09-25T14:22:44Z</time>
      </trkpt>
      <trkpt lat="42.37467" lon="2.19226">
        <ele>1450.8</ele>
        <time>2024-09-25T14:22:45Z</time>
      </trkpt>
      <trkpt lat="42.37467" lon="2.19226">
        <ele>1450.8</ele>
        <time>2024-09-25T14:22:46Z</time>
      </trkpt>
      <trkpt lat="42.37467" lon="2.19226">
        <ele>1450.8</ele>
        <time>2024-09-25T14:22:47Z</time>
      </trkpt>
      <trkpt lat="42.37467" lon="2.19226">
        <ele>1450.8</ele>
        <time>2024-09-25T14:22:48Z</time>
      </trkpt>
      <trkpt lat="42.37467" lon="2.19226">
        <ele>1450.8</ele>
        <time>2024-09-25T14:22:50Z</time>
      </trkpt>
      <trkpt lat="42.37467" lon="2.19226">
        <ele>1450.8</ele>
        <time>2024-09-25T14:22:51Z</time>
      </trkpt>
      <trkpt lat="42.37467" lon="2.19226">
        <ele>1450.8</ele>
        <time>2024-09-25T14:22:52Z</time>
      </trkpt>
      <trkpt lat="42.37467" lon="2.19226">
        <ele>1450.8</ele>
        <time>2024-09-25T14:22:53Z</time>
      </trkpt>
      <trkpt lat="42.37467" lon="2.19226">
        <ele>1450.8</ele>
        <time>2024-09-25T14:22:54Z</time>
      </trkpt>
      <trkpt lat="42.37467" lon="2.19226">
        <ele>1450.8</ele>
        <time>2024-09-25T14:22:55Z</time>
      </trkpt>
      <trkpt lat="42.37467" lon="2.19226">
        <ele>1450.8</ele>
        <time>2024-09-25T14:22:56Z</time>
      </trkpt>
      <trkpt lat="42.37467" lon="2.19226">
        <ele>1450.8</ele>
        <time>2024-09-25T14:22:58Z</time>
      </trkpt>
      <trkpt lat="42.37468" lon="2.19226">
        <ele>1450.7</ele>
        <time>2024-09-25T14:22:59Z</time>
      </trkpt>
      <trkpt lat="42.37468" lon="2.19226">
        <ele>1450.7</ele>
        <time>2024-09-25T14:23:00Z</time>
      </trkpt>
      <trkpt lat="42.37468" lon="2.19226">
        <ele>1450.7</ele>
        <time>2024-09-25T14:23:01Z</time>
      </trkpt>
      <trkpt lat="42.37468" lon="2.19226">
        <ele>1450.7</ele>
        <time>2024-09-25T14:23:02Z</time>
      </trkpt>
      <trkpt lat="42.37468" lon="2.19226">
        <ele>1450.6</ele>
        <time>2024-09-25T14:23:03Z</time>
      </trkpt>
      <trkpt lat="42.37469" lon="2.19226">
        <ele>1450.6</ele>
        <time>2024-09-25T14:23:04Z</time>
      </trkpt>
      <trkpt lat="42.37469" lon="2.19226">
        <ele>1450.6</ele>
        <time>2024-09-25T14:23:05Z</time>
      </trkpt>
      <trkpt lat="42.37469" lon="2.19226">
        <ele>1450.6</ele>
        <time>2024-09-25T14:23:06Z</time>
      </trkpt>
      <trkpt lat="42.37469" lon="2.19226">
        <ele>1450.6</ele>
        <time>2024-09-25T14:23:07Z</time>
      </trkpt>
      <trkpt lat="42.37469" lon="2.19226">
        <ele>1450.6</ele>
        <time>2024-09-25T14:23:08Z</time>
      </trkpt>
      <trkpt lat="42.37469" lon="2.19226">
        <ele>1450.5</ele>
        <time>2024-09-25T14:23:10Z</time>
      </trkpt>
      <trkpt lat="42.37469" lon="2.19226">
        <ele>1450.5</ele>
        <time>2024-09-25T14:23:11Z</time>
      </trkpt>
      <trkpt lat="42.37469" lon="2.19226">
        <ele>1450.5</ele>
        <time>2024-09-25T14:23:12Z</time>
      </trkpt>
      <trkpt lat="42.3747" lon="2.19226">
        <ele>1450.4</ele>
        <time>2024-09-25T14:23:13Z</time>
      </trkpt>
      <trkpt lat="42.3747" lon="2.19226">
        <ele>1450.3</ele>
        <time>2024-09-25T14:23:14Z</time>
      </trkpt>
      <trkpt lat="42.37471" lon="2.19226">
        <ele>1450.3</ele>
        <time>2024-09-25T14:23:15Z</time>
      </trkpt>
      <trkpt lat="42.37471" lon="2.19226">
        <ele>1450.3</ele>
        <time>2024-09-25T14:23:16Z</time>
      </trkpt>
      <trkpt lat="42.37471" lon="2.19226">
        <ele>1450.3</ele>
        <time>2024-09-25T14:23:17Z</time>
      </trkpt>
      <trkpt lat="42.37471" lon="2.19226">
        <ele>1450.3</ele>
        <time>2024-09-25T14:23:18Z</time>
      </trkpt>
      <trkpt lat="42.37471" lon="2.19226">
        <ele>1450.3</ele>
        <time>2024-09-25T14:23:19Z</time>
      </trkpt>
      <trkpt lat="42.37471" lon="2.19226">
        <ele>1450.3</ele>
        <time>2024-09-25T14:23:20Z</time>
      </trkpt>
      <trkpt lat="42.37471" lon="2.19225">
        <ele>1450.2</ele>
        <time>2024-09-25T14:23:21Z</time>
      </trkpt>
      <trkpt lat="42.37471" lon="2.19225">
        <ele>1450.2</ele>
        <time>2024-09-25T14:23:22Z</time>
      </trkpt>
      <trkpt lat="42.37471" lon="2.19225">
        <ele>1450.2</ele>
        <time>2024-09-25T14:23:23Z</time>
      </trkpt>
      <trkpt lat="42.37471" lon="2.19225">
        <ele>1450.2</ele>
        <time>2024-09-25T14:23:24Z</time>
      </trkpt>
      <trkpt lat="42.37471" lon="2.19225">
        <ele>1450.1</ele>
        <time>2024-09-25T14:23:25Z</time>
      </trkpt>
      <trkpt lat="42.3747" lon="2.19225">
        <ele>1450.1</ele>
        <time>2024-09-25T14:23:26Z</time>
      </trkpt>
      <trkpt lat="42.3747" lon="2.19224">
        <ele>1450</ele>
        <time>2024-09-25T14:23:27Z</time>
      </trkpt>
      <trkpt lat="42.37469" lon="2.19224">
        <ele>1450</ele>
        <time>2024-09-25T14:23:28Z</time>
      </trkpt>
      <trkpt lat="42.3747" lon="2.19224">
        <ele>1449.9</ele>
        <time>2024-09-25T14:23:29Z</time>
      </trkpt>
      <trkpt lat="42.3747" lon="2.19224">
        <ele>1449.8</ele>
        <time>2024-09-25T14:23:30Z</time>
      </trkpt>
      <trkpt lat="42.37469" lon="2.19221">
        <ele>1449.5</ele>
        <time>2024-09-25T14:23:32Z</time>
      </trkpt>
      <trkpt lat="42.37469" lon="2.19219">
        <ele>1449.4</ele>
        <time>2024-09-25T14:23:33Z</time>
      </trkpt>
      <trkpt lat="42.37469" lon="2.19218">
        <ele>1449.2</ele>
        <time>2024-09-25T14:23:34Z</time>
      </trkpt>
      <trkpt lat="42.37469" lon="2.19217">
        <ele>1449.1</ele>
        <time>2024-09-25T14:23:35Z</time>
      </trkpt>
      <trkpt lat="42.37469" lon="2.19216">
        <ele>1449.1</ele>
        <time>2024-09-25T14:23:36Z</time>
      </trkpt>
      <trkpt lat="42.3747" lon="2.19215">
        <ele>1449</ele>
        <time>2024-09-25T14:23:37Z</time>
      </trkpt>
      <trkpt lat="42.3747" lon="2.19214">
        <ele>1448.9</ele>
        <time>2024-09-25T14:23:38Z</time>
      </trkpt>
      <trkpt lat="42.37471" lon="2.19214">
        <ele>1448.8</ele>
        <time>2024-09-25T14:23:39Z</time>
      </trkpt>
      <trkpt lat="42.37471" lon="2.19213">
        <ele>1448.7</ele>
        <time>2024-09-25T14:23:40Z</time>
      </trkpt>
      <trkpt lat="42.37471" lon="2.19212">
        <ele>1448.6</ele>
        <time>2024-09-25T14:23:41Z</time>
      </trkpt>
      <trkpt lat="42.37471" lon="2.19212">
        <ele>1448.6</ele>
        <time>2024-09-25T14:23:42Z</time>
      </trkpt>
      <trkpt lat="42.37471" lon="2.19211">
        <ele>1448.5</ele>
        <time>2024-09-25T14:23:43Z</time>
      </trkpt>
      <trkpt lat="42.37472" lon="2.19211">
        <ele>1448.5</ele>
        <time>2024-09-25T14:23:44Z</time>
      </trkpt>
      <trkpt lat="42.37472" lon="2.19211">
        <ele>1448.5</ele>
        <time>2024-09-25T14:23:45Z</time>
      </trkpt>
      <trkpt lat="42.37472" lon="2.19211">
        <ele>1448.4</ele>
        <time>2024-09-25T14:23:46Z</time>
      </trkpt>
      <trkpt lat="42.37472" lon="2.19211">
        <ele>1448.4</ele>
        <time>2024-09-25T14:23:47Z</time>
      </trkpt>
      <trkpt lat="42.37472" lon="2.1921">
        <ele>1448.4</ele>
        <time>2024-09-25T14:23:48Z</time>
      </trkpt>
      <trkpt lat="42.37472" lon="2.1921">
        <ele>1448.4</ele>
        <time>2024-09-25T14:23:49Z</time>
      </trkpt>
      <trkpt lat="42.37472" lon="2.19209">
        <ele>1448.3</ele>
        <time>2024-09-25T14:23:50Z</time>
      </trkpt>
      <trkpt lat="42.37472" lon="2.19208">
        <ele>1448.2</ele>
        <time>2024-09-25T14:23:51Z</time>
      </trkpt>
      <trkpt lat="42.37471" lon="2.19207">
        <ele>1448.2</ele>
        <time>2024-09-25T14:23:52Z</time>
      </trkpt>
      <trkpt lat="42.37471" lon="2.19206">
        <ele>1448.1</ele>
        <time>2024-09-25T14:23:53Z</time>
      </trkpt>
      <trkpt lat="42.37471" lon="2.19204">
        <ele>1447.9</ele>
        <time>2024-09-25T14:23:54Z</time>
      </trkpt>
      <trkpt lat="42.3747" lon="2.19202">
        <ele>1447.8</ele>
        <time>2024-09-25T14:23:55Z</time>
      </trkpt>
      <trkpt lat="42.3747" lon="2.19199">
        <ele>1447.6</ele>
        <time>2024-09-25T14:23:56Z</time>
      </trkpt>
      <trkpt lat="42.37469" lon="2.19198">
        <ele>1447.5</ele>
        <time>2024-09-25T14:23:57Z</time>
      </trkpt>
      <trkpt lat="42.37469" lon="2.19197">
        <ele>1447.5</ele>
        <time>2024-09-25T14:23:58Z</time>
      </trkpt>
      <trkpt lat="42.37469" lon="2.19196">
        <ele>1447.4</ele>
        <time>2024-09-25T14:23:59Z</time>
      </trkpt>
      <trkpt lat="42.37468" lon="2.19196">
        <ele>1447.4</ele>
        <time>2024-09-25T14:24:00Z</time>
      </trkpt>
      <trkpt lat="42.37468" lon="2.19195">
        <ele>1447.3</ele>
        <time>2024-09-25T14:24:01Z</time>
      </trkpt>
      <trkpt lat="42.37467" lon="2.19194">
        <ele>1447.3</ele>
        <time>2024-09-25T14:24:02Z</time>
      </trkpt>
      <trkpt lat="42.37467" lon="2.19193">
        <ele>1447.2</ele>
        <time>2024-09-25T14:24:03Z</time>
      </trkpt>
      <trkpt lat="42.37466" lon="2.19192">
        <ele>1447.2</ele>
        <time>2024-09-25T14:24:04Z</time>
      </trkpt>
      <trkpt lat="42.37466" lon="2.19192">
        <ele>1447.1</ele>
        <time>2024-09-25T14:24:05Z</time>
      </trkpt>
      <trkpt lat="42.37466" lon="2.19191">
        <ele>1447.1</ele>
        <time>2024-09-25T14:24:06Z</time>
      </trkpt>
      <trkpt lat="42.37466" lon="2.19191">
        <ele>1447.1</ele>
        <time>2024-09-25T14:24:07Z</time>
      </trkpt>
      <trkpt lat="42.37465" lon="2.19189">
        <ele>1447</ele>
        <time>2024-09-25T14:24:09Z</time>
      </trkpt>
      <trkpt lat="42.37464" lon="2.19188">
        <ele>1446.9</ele>
        <time>2024-09-25T14:24:10Z</time>
      </trkpt>
      <trkpt lat="42.37464" lon="2.19188">
        <ele>1446.9</ele>
        <time>2024-09-25T14:24:11Z</time>
      </trkpt>
      <trkpt lat="42.37463" lon="2.19187">
        <ele>1446.8</ele>
        <time>2024-09-25T14:24:12Z</time>
      </trkpt>
      <trkpt lat="42.37463" lon="2.19186">
        <ele>1446.8</ele>
        <time>2024-09-25T14:24:13Z</time>
      </trkpt>
      <trkpt lat="42.37462" lon="2.19185">
        <ele>1446.7</ele>
        <time>2024-09-25T14:24:14Z</time>
      </trkpt>
      <trkpt lat="42.37462" lon="2.19185">
        <ele>1446.6</ele>
        <time>2024-09-25T14:24:15Z</time>
      </trkpt>
      <trkpt lat="42.37461" lon="2.19184">
        <ele>1446.6</ele>
        <time>2024-09-25T14:24:16Z</time>
      </trkpt>
      <trkpt lat="42.37461" lon="2.19183">
        <ele>1446.5</ele>
        <time>2024-09-25T14:24:17Z</time>
      </trkpt>
      <trkpt lat="42.3746" lon="2.19182">
        <ele>1446.5</ele>
        <time>2024-09-25T14:24:18Z</time>
      </trkpt>
      <trkpt lat="42.3746" lon="2.19181">
        <ele>1446.5</ele>
        <time>2024-09-25T14:24:19Z</time>
      </trkpt>
      <trkpt lat="42.3746" lon="2.1918">
        <ele>1446.4</ele>
        <time>2024-09-25T14:24:20Z</time>
      </trkpt>
      <trkpt lat="42.37459" lon="2.19179">
        <ele>1446.3</ele>
        <time>2024-09-25T14:24:21Z</time>
      </trkpt>
      <trkpt lat="42.37459" lon="2.19177">
        <ele>1446.3</ele>
        <time>2024-09-25T14:24:22Z</time>
      </trkpt>
      <trkpt lat="42.37459" lon="2.19176">
        <ele>1446.2</ele>
        <time>2024-09-25T14:24:23Z</time>
      </trkpt>
      <trkpt lat="42.37459" lon="2.19175">
        <ele>1446.2</ele>
        <time>2024-09-25T14:24:24Z</time>
      </trkpt>
      <trkpt lat="42.37458" lon="2.19174">
        <ele>1446.1</ele>
        <time>2024-09-25T14:24:25Z</time>
      </trkpt>
      <trkpt lat="42.37458" lon="2.19173">
        <ele>1446.1</ele>
        <time>2024-09-25T14:24:26Z</time>
      </trkpt>
      <trkpt lat="42.37458" lon="2.19171">
        <ele>1446</ele>
        <time>2024-09-25T14:24:27Z</time>
      </trkpt>
      <trkpt lat="42.37458" lon="2.1917">
        <ele>1446</ele>
        <time>2024-09-25T14:24:28Z</time>
      </trkpt>
      <trkpt lat="42.37457" lon="2.19169">
        <ele>1445.9</ele>
        <time>2024-09-25T14:24:29Z</time>
      </trkpt>
      <trkpt lat="42.37457" lon="2.19168">
        <ele>1445.9</ele>
        <time>2024-09-25T14:24:30Z</time>
      </trkpt>
      <trkpt lat="42.37457" lon="2.19168">
        <ele>1445.8</ele>
        <time>2024-09-25T14:24:31Z</time>
      </trkpt>
      <trkpt lat="42.37457" lon="2.19167">
        <ele>1445.8</ele>
        <time>2024-09-25T14:24:32Z</time>
      </trkpt>
      <trkpt lat="42.37457" lon="2.19166">
        <ele>1445.8</ele>
        <time>2024-09-25T14:24:33Z</time>
      </trkpt>
      <trkpt lat="42.37457" lon="2.19165">
        <ele>1445.7</ele>
        <time>2024-09-25T14:24:34Z</time>
      </trkpt>
      <trkpt lat="42.37457" lon="2.19165">
        <ele>1445.7</ele>
        <time>2024-09-25T14:24:35Z</time>
      </trkpt>
      <trkpt lat="42.37457" lon="2.19164">
        <ele>1445.7</ele>
        <time>2024-09-25T14:24:36Z</time>
      </trkpt>
      <trkpt lat="42.37456" lon="2.19164">
        <ele>1445.6</ele>
        <time>2024-09-25T14:24:37Z</time>
      </trkpt>
      <trkpt lat="42.37456" lon="2.19163">
        <ele>1445.6</ele>
        <time>2024-09-25T14:24:38Z</time>
      </trkpt>
      <trkpt lat="42.37455" lon="2.19162">
        <ele>1445.5</ele>
        <time>2024-09-25T14:24:39Z</time>
      </trkpt>
      <trkpt lat="42.37455" lon="2.19161">
        <ele>1445.5</ele>
        <time>2024-09-25T14:24:40Z</time>
      </trkpt>
      <trkpt lat="42.37454" lon="2.1916">
        <ele>1445.4</ele>
        <time>2024-09-25T14:24:41Z</time>
      </trkpt>
      <trkpt lat="42.37454" lon="2.19159">
        <ele>1445.4</ele>
        <time>2024-09-25T14:24:42Z</time>
      </trkpt>
      <trkpt lat="42.37454" lon="2.19158">
        <ele>1445.3</ele>
        <time>2024-09-25T14:24:43Z</time>
      </trkpt>
      <trkpt lat="42.37454" lon="2.19156">
        <ele>1445.2</ele>
        <time>2024-09-25T14:24:44Z</time>
      </trkpt>
      <trkpt lat="42.37453" lon="2.19154">
        <ele>1445.2</ele>
        <time>2024-09-25T14:24:45Z</time>
      </trkpt>
      <trkpt lat="42.37453" lon="2.19153">
        <ele>1445.1</ele>
        <time>2024-09-25T14:24:46Z</time>
      </trkpt>
      <trkpt lat="42.37453" lon="2.19152">
        <ele>1445.1</ele>
        <time>2024-09-25T14:24:47Z</time>
      </trkpt>
      <trkpt lat="42.37452" lon="2.19152">
        <ele>1445.1</ele>
        <time>2024-09-25T14:24:48Z</time>
      </trkpt>
      <trkpt lat="42.37452" lon="2.1915">
        <ele>1445</ele>
        <time>2024-09-25T14:24:49Z</time>
      </trkpt>
      <trkpt lat="42.37451" lon="2.19148">
        <ele>1444.9</ele>
        <time>2024-09-25T14:24:50Z</time>
      </trkpt>
      <trkpt lat="42.37451" lon="2.19147">
        <ele>1444.8</ele>
        <time>2024-09-25T14:24:51Z</time>
      </trkpt>
      <trkpt lat="42.3745" lon="2.19146">
        <ele>1444.8</ele>
        <time>2024-09-25T14:24:52Z</time>
      </trkpt>
      <trkpt lat="42.3745" lon="2.19145">
        <ele>1444.8</ele>
        <time>2024-09-25T14:24:53Z</time>
      </trkpt>
      <trkpt lat="42.37449" lon="2.19144">
        <ele>1444.7</ele>
        <time>2024-09-25T14:24:54Z</time>
      </trkpt>
      <trkpt lat="42.37449" lon="2.19143">
        <ele>1444.7</ele>
        <time>2024-09-25T14:24:55Z</time>
      </trkpt>
      <trkpt lat="42.37449" lon="2.19142">
        <ele>1444.6</ele>
        <time>2024-09-25T14:24:56Z</time>
      </trkpt>
      <trkpt lat="42.37449" lon="2.19141">
        <ele>1444.6</ele>
        <time>2024-09-25T14:24:57Z</time>
      </trkpt>
      <trkpt lat="42.37448" lon="2.19139">
        <ele>1444.5</ele>
        <time>2024-09-25T14:24:58Z</time>
      </trkpt>
      <trkpt lat="42.37448" lon="2.19138">
        <ele>1444.5</ele>
        <time>2024-09-25T14:24:59Z</time>
      </trkpt>
      <trkpt lat="42.37448" lon="2.19136">
        <ele>1444.4</ele>
        <time>2024-09-25T14:25:00Z</time>
      </trkpt>
      <trkpt lat="42.37449" lon="2.19135">
        <ele>1444.4</ele>
        <time>2024-09-25T14:25:01Z</time>
      </trkpt>
      <trkpt lat="42.37448" lon="2.19134">
        <ele>1444.3</ele>
        <time>2024-09-25T14:25:02Z</time>
      </trkpt>
      <trkpt lat="42.37448" lon="2.19133">
        <ele>1444.3</ele>
        <time>2024-09-25T14:25:03Z</time>
      </trkpt>
      <trkpt lat="42.37447" lon="2.19132">
        <ele>1444.3</ele>
        <time>2024-09-25T14:25:04Z</time>
      </trkpt>
      <trkpt lat="42.37447" lon="2.1913">
        <ele>1444.2</ele>
        <time>2024-09-25T14:25:05Z</time>
      </trkpt>
      <trkpt lat="42.37446" lon="2.19128">
        <ele>1444.1</ele>
        <time>2024-09-25T14:25:06Z</time>
      </trkpt>
      <trkpt lat="42.37445" lon="2.19127">
        <ele>1444.1</ele>
        <time>2024-09-25T14:25:07Z</time>
      </trkpt>
      <trkpt lat="42.37445" lon="2.19126">
        <ele>1444.1</ele>
        <time>2024-09-25T14:25:08Z</time>
      </trkpt>
      <trkpt lat="42.37445" lon="2.19126">
        <ele>1444.1</ele>
        <time>2024-09-25T14:25:09Z</time>
      </trkpt>
      <trkpt lat="42.37444" lon="2.19125">
        <ele>1444</ele>
        <time>2024-09-25T14:25:10Z</time>
      </trkpt>
      <trkpt lat="42.37444" lon="2.19125">
        <ele>1444</ele>
        <time>2024-09-25T14:25:11Z</time>
      </trkpt>
      <trkpt lat="42.37445" lon="2.19125">
        <ele>1444</ele>
        <time>2024-09-25T14:25:12Z</time>
      </trkpt>
      <trkpt lat="42.37445" lon="2.19124">
        <ele>1444</ele>
        <time>2024-09-25T14:25:13Z</time>
      </trkpt>
      <trkpt lat="42.37446" lon="2.19124">
        <ele>1443.9</ele>
        <time>2024-09-25T14:25:14Z</time>
      </trkpt>
      <trkpt lat="42.37446" lon="2.19124">
        <ele>1443.9</ele>
        <time>2024-09-25T14:25:15Z</time>
      </trkpt>
      <trkpt lat="42.37447" lon="2.19125">
        <ele>1443.9</ele>
        <time>2024-09-25T14:25:16Z</time>
      </trkpt>
      <trkpt lat="42.37448" lon="2.19125">
        <ele>1443.8</ele>
        <time>2024-09-25T14:25:17Z</time>
      </trkpt>
      <trkpt lat="42.37449" lon="2.19121">
        <ele>1443.7</ele>
        <time>2024-09-25T14:25:18Z</time>
      </trkpt>
      <trkpt lat="42.37449" lon="2.19119">
        <ele>1443.7</ele>
        <time>2024-09-25T14:25:19Z</time>
      </trkpt>
      <trkpt lat="42.37449" lon="2.19117">
        <ele>1443.6</ele>
        <time>2024-09-25T14:25:20Z</time>
      </trkpt>
      <trkpt lat="42.37449" lon="2.19115">
        <ele>1443.6</ele>
        <time>2024-09-25T14:25:21Z</time>
      </trkpt>
      <trkpt lat="42.3745" lon="2.19113">
        <ele>1443.6</ele>
        <time>2024-09-25T14:25:22Z</time>
      </trkpt>
      <trkpt lat="42.37451" lon="2.19111">
        <ele>1443.5</ele>
        <time>2024-09-25T14:25:23Z</time>
      </trkpt>
      <trkpt lat="42.37451" lon="2.1911">
        <ele>1443.5</ele>
        <time>2024-09-25T14:25:24Z</time>
      </trkpt>
      <trkpt lat="42.37451" lon="2.19109">
        <ele>1443.5</ele>
        <time>2024-09-25T14:25:25Z</time>
      </trkpt>
      <trkpt lat="42.3745" lon="2.19109">
        <ele>1443.5</ele>
        <time>2024-09-25T14:25:26Z</time>
      </trkpt>
      <trkpt lat="42.37451" lon="2.19108">
        <ele>1443.4</ele>
        <time>2024-09-25T14:25:27Z</time>
      </trkpt>
      <trkpt lat="42.37451" lon="2.19107">
        <ele>1443.4</ele>
        <time>2024-09-25T14:25:28Z</time>
      </trkpt>
      <trkpt lat="42.37451" lon="2.19106">
        <ele>1443.4</ele>
        <time>2024-09-25T14:25:29Z</time>
      </trkpt>
      <trkpt lat="42.37452" lon="2.19106">
        <ele>1443.4</ele>
        <time>2024-09-25T14:25:30Z</time>
      </trkpt>
      <trkpt lat="42.37452" lon="2.19105">
        <ele>1443.4</ele>
        <time>2024-09-25T14:25:31Z</time>
      </trkpt>
      <trkpt lat="42.37452" lon="2.19105">
        <ele>1443.4</ele>
        <time>2024-09-25T14:25:32Z</time>
      </trkpt>
      <trkpt lat="42.37451" lon="2.19104">
        <ele>1443.4</ele>
        <time>2024-09-25T14:25:33Z</time>
      </trkpt>
      <trkpt lat="42.37452" lon="2.19104">
        <ele>1443.4</ele>
        <time>2024-09-25T14:25:34Z</time>
      </trkpt>
      <trkpt lat="42.37452" lon="2.19104">
        <ele>1443.4</ele>
        <time>2024-09-25T14:25:35Z</time>
      </trkpt>
      <trkpt lat="42.37452" lon="2.19103">
        <ele>1443.4</ele>
        <time>2024-09-25T14:25:36Z</time>
      </trkpt>
      <trkpt lat="42.37452" lon="2.19103">
        <ele>1443.4</ele>
        <time>2024-09-25T14:25:37Z</time>
      </trkpt>
      <trkpt lat="42.37452" lon="2.19103">
        <ele>1443.4</ele>
        <time>2024-09-25T14:25:38Z</time>
      </trkpt>
      <trkpt lat="42.37452" lon="2.19102">
        <ele>1443.4</ele>
        <time>2024-09-25T14:25:39Z</time>
      </trkpt>
      <trkpt lat="42.37452" lon="2.19102">
        <ele>1443.4</ele>
        <time>2024-09-25T14:25:40Z</time>
      </trkpt>
      <trkpt lat="42.37452" lon="2.19102">
        <ele>1443.4</ele>
        <time>2024-09-25T14:25:41Z</time>
      </trkpt>
      <trkpt lat="42.37452" lon="2.19101">
        <ele>1443.4</ele>
        <time>2024-09-25T14:25:42Z</time>
      </trkpt>
      <trkpt lat="42.37452" lon="2.19101">
        <ele>1443.4</ele>
        <time>2024-09-25T14:25:43Z</time>
      </trkpt>
      <trkpt lat="42.37452" lon="2.19099">
        <ele>1443.4</ele>
        <time>2024-09-25T14:25:44Z</time>
      </trkpt>
      <trkpt lat="42.37452" lon="2.19098">
        <ele>1443.4</ele>
        <time>2024-09-25T14:25:45Z</time>
      </trkpt>
      <trkpt lat="42.37451" lon="2.19097">
        <ele>1443.4</ele>
        <time>2024-09-25T14:25:46Z</time>
      </trkpt>
      <trkpt lat="42.37452" lon="2.19095">
        <ele>1443.4</ele>
        <time>2024-09-25T14:25:47Z</time>
      </trkpt>
      <trkpt lat="42.37452" lon="2.19092">
        <ele>1443.5</ele>
        <time>2024-09-25T14:25:48Z</time>
      </trkpt>
      <trkpt lat="42.37453" lon="2.1909">
        <ele>1443.5</ele>
        <time>2024-09-25T14:25:49Z</time>
      </trkpt>
      <trkpt lat="42.37453" lon="2.19089">
        <ele>1443.6</ele>
        <time>2024-09-25T14:25:50Z</time>
      </trkpt>
      <trkpt lat="42.37453" lon="2.19087">
        <ele>1443.6</ele>
        <time>2024-09-25T14:25:51Z</time>
      </trkpt>
      <trkpt lat="42.37454" lon="2.19084">
        <ele>1443.7</ele>
        <time>2024-09-25T14:25:52Z</time>
      </trkpt>
      <trkpt lat="42.37454" lon="2.19083">
        <ele>1443.8</ele>
        <time>2024-09-25T14:25:53Z</time>
      </trkpt>
      <trkpt lat="42.37455" lon="2.19082">
        <ele>1443.8</ele>
        <time>2024-09-25T14:25:54Z</time>
      </trkpt>
      <trkpt lat="42.37454" lon="2.19081">
        <ele>1443.9</ele>
        <time>2024-09-25T14:25:55Z</time>
      </trkpt>
      <trkpt lat="42.37453" lon="2.1908">
        <ele>1443.9</ele>
        <time>2024-09-25T14:25:56Z</time>
      </trkpt>
      <trkpt lat="42.37453" lon="2.19079">
        <ele>1444</ele>
        <time>2024-09-25T14:25:57Z</time>
      </trkpt>
      <trkpt lat="42.37452" lon="2.19078">
        <ele>1444.1</ele>
        <time>2024-09-25T14:25:58Z</time>
      </trkpt>
      <trkpt lat="42.37452" lon="2.19078">
        <ele>1444.1</ele>
        <time>2024-09-25T14:25:59Z</time>
      </trkpt>
      <trkpt lat="42.37451" lon="2.19078">
        <ele>1444.2</ele>
        <time>2024-09-25T14:26:00Z</time>
      </trkpt>
      <trkpt lat="42.3745" lon="2.19077">
        <ele>1444.2</ele>
        <time>2024-09-25T14:26:01Z</time>
      </trkpt>
      <trkpt lat="42.3745" lon="2.19077">
        <ele>1444.3</ele>
        <time>2024-09-25T14:26:02Z</time>
      </trkpt>
      <trkpt lat="42.3745" lon="2.19077">
        <ele>1444.3</ele>
        <time>2024-09-25T14:26:03Z</time>
      </trkpt>
      <trkpt lat="42.37449" lon="2.19077">
        <ele>1444.3</ele>
        <time>2024-09-25T14:26:04Z</time>
      </trkpt>
      <trkpt lat="42.37449" lon="2.19077">
        <ele>1444.4</ele>
        <time>2024-09-25T14:26:05Z</time>
      </trkpt>
      <trkpt lat="42.37448" lon="2.19077">
        <ele>1444.4</ele>
        <time>2024-09-25T14:26:06Z</time>
      </trkpt>
      <trkpt lat="42.37448" lon="2.19077">
        <ele>1444.4</ele>
        <time>2024-09-25T14:26:07Z</time>
      </trkpt>
      <trkpt lat="42.37447" lon="2.19077">
        <ele>1444.5</ele>
        <time>2024-09-25T14:26:08Z</time>
      </trkpt>
      <trkpt lat="42.37447" lon="2.19077">
        <ele>1444.5</ele>
        <time>2024-09-25T14:26:09Z</time>
      </trkpt>
      <trkpt lat="42.37446" lon="2.19077">
        <ele>1444.6</ele>
        <time>2024-09-25T14:26:10Z</time>
      </trkpt>
      <trkpt lat="42.37445" lon="2.19077">
        <ele>1444.7</ele>
        <time>2024-09-25T14:26:11Z</time>
      </trkpt>
      <trkpt lat="42.37444" lon="2.19078">
        <ele>1444.8</ele>
        <time>2024-09-25T14:26:12Z</time>
      </trkpt>
      <trkpt lat="42.37443" lon="2.19077">
        <ele>1444.9</ele>
        <time>2024-09-25T14:26:13Z</time>
      </trkpt>
      <trkpt lat="42.37442" lon="2.19077">
        <ele>1445</ele>
        <time>2024-09-25T14:26:14Z</time>
      </trkpt>
      <trkpt lat="42.37441" lon="2.19076">
        <ele>1445.1</ele>
        <time>2024-09-25T14:26:15Z</time>
      </trkpt>
      <trkpt lat="42.3744" lon="2.19075">
        <ele>1445.2</ele>
        <time>2024-09-25T14:26:16Z</time>
      </trkpt>
      <trkpt lat="42.3744" lon="2.19074">
        <ele>1445.4</ele>
        <time>2024-09-25T14:26:17Z</time>
      </trkpt>
      <trkpt lat="42.3744" lon="2.19072">
        <ele>1445.5</ele>
        <time>2024-09-25T14:26:18Z</time>
      </trkpt>
      <trkpt lat="42.3744" lon="2.19071">
        <ele>1445.6</ele>
        <time>2024-09-25T14:26:19Z</time>
      </trkpt>
      <trkpt lat="42.37441" lon="2.1907">
        <ele>1445.7</ele>
        <time>2024-09-25T14:26:20Z</time>
      </trkpt>
      <trkpt lat="42.37441" lon="2.19068">
        <ele>1445.8</ele>
        <time>2024-09-25T14:26:21Z</time>
      </trkpt>
      <trkpt lat="42.37441" lon="2.19067">
        <ele>1445.9</ele>
        <time>2024-09-25T14:26:22Z</time>
      </trkpt>
      <trkpt lat="42.37441" lon="2.19066">
        <ele>1446</ele>
        <time>2024-09-25T14:26:23Z</time>
      </trkpt>
      <trkpt lat="42.3744" lon="2.19065">
        <ele>1446.1</ele>
        <time>2024-09-25T14:26:24Z</time>
      </trkpt>
      <trkpt lat="42.3744" lon="2.19064">
        <ele>1446.2</ele>
        <time>2024-09-25T14:26:25Z</time>
      </trkpt>
      <trkpt lat="42.3744" lon="2.19062">
        <ele>1446.3</ele>
        <time>2024-09-25T14:26:26Z</time>
      </trkpt>
      <trkpt lat="42.3744" lon="2.1906">
        <ele>1446.5</ele>
        <time>2024-09-25T14:26:27Z</time>
      </trkpt>
      <trkpt lat="42.3744" lon="2.19059">
        <ele>1446.6</ele>
        <time>2024-09-25T14:26:28Z</time>
      </trkpt>
      <trkpt lat="42.37439" lon="2.19057">
        <ele>1446.7</ele>
        <time>2024-09-25T14:26:29Z</time>
      </trkpt>
      <trkpt lat="42.37439" lon="2.19056">
        <ele>1446.8</ele>
        <time>2024-09-25T14:26:30Z</time>
      </trkpt>
      <trkpt lat="42.37439" lon="2.19054">
        <ele>1446.9</ele>
        <time>2024-09-25T14:26:31Z</time>
      </trkpt>
      <trkpt lat="42.37438" lon="2.19053">
        <ele>1447.1</ele>
        <time>2024-09-25T14:26:32Z</time>
      </trkpt>
      <trkpt lat="42.37438" lon="2.19052">
        <ele>1447.1</ele>
        <time>2024-09-25T14:26:33Z</time>
      </trkpt>
      <trkpt lat="42.37438" lon="2.19051">
        <ele>1447.2</ele>
        <time>2024-09-25T14:26:34Z</time>
      </trkpt>
      <trkpt lat="42.37438" lon="2.1905">
        <ele>1447.3</ele>
        <time>2024-09-25T14:26:35Z</time>
      </trkpt>
      <trkpt lat="42.37438" lon="2.19048">
        <ele>1447.3</ele>
        <time>2024-09-25T14:26:36Z</time>
      </trkpt>
      <trkpt lat="42.37438" lon="2.19047">
        <ele>1447.4</ele>
        <time>2024-09-25T14:26:37Z</time>
      </trkpt>
      <trkpt lat="42.37438" lon="2.19047">
        <ele>1447.4</ele>
        <time>2024-09-25T14:26:38Z</time>
      </trkpt>
      <trkpt lat="42.37438" lon="2.19046">
        <ele>1447.5</ele>
        <time>2024-09-25T14:26:39Z</time>
      </trkpt>
      <trkpt lat="42.37437" lon="2.19045">
        <ele>1447.5</ele>
        <time>2024-09-25T14:26:40Z</time>
      </trkpt>
      <trkpt lat="42.37437" lon="2.19044">
        <ele>1447.6</ele>
        <time>2024-09-25T14:26:41Z</time>
      </trkpt>
      <trkpt lat="42.37437" lon="2.19042">
        <ele>1447.7</ele>
        <time>2024-09-25T14:26:42Z</time>
      </trkpt>
      <trkpt lat="42.37437" lon="2.19041">
        <ele>1447.7</ele>
        <time>2024-09-25T14:26:43Z</time>
      </trkpt>
      <trkpt lat="42.37437" lon="2.1904">
        <ele>1447.8</ele>
        <time>2024-09-25T14:26:44Z</time>
      </trkpt>
      <trkpt lat="42.37438" lon="2.19038">
        <ele>1447.8</ele>
        <time>2024-09-25T14:26:45Z</time>
      </trkpt>
      <trkpt lat="42.37438" lon="2.19037">
        <ele>1447.9</ele>
        <time>2024-09-25T14:26:46Z</time>
      </trkpt>
      <trkpt lat="42.37438" lon="2.19037">
        <ele>1447.9</ele>
        <time>2024-09-25T14:26:47Z</time>
      </trkpt>
      <trkpt lat="42.37439" lon="2.19036">
        <ele>1447.9</ele>
        <time>2024-09-25T14:26:48Z</time>
      </trkpt>
      <trkpt lat="42.37439" lon="2.19036">
        <ele>1447.9</ele>
        <time>2024-09-25T14:26:49Z</time>
      </trkpt>
      <trkpt lat="42.3744" lon="2.19036">
        <ele>1447.9</ele>
        <time>2024-09-25T14:26:50Z</time>
      </trkpt>
      <trkpt lat="42.3744" lon="2.19036">
        <ele>1447.9</ele>
        <time>2024-09-25T14:26:51Z</time>
      </trkpt>
      <trkpt lat="42.37441" lon="2.19036">
        <ele>1447.9</ele>
        <time>2024-09-25T14:26:52Z</time>
      </trkpt>
      <trkpt lat="42.37441" lon="2.19035">
        <ele>1447.9</ele>
        <time>2024-09-25T14:26:53Z</time>
      </trkpt>
      <trkpt lat="42.37441" lon="2.19035">
        <ele>1447.9</ele>
        <time>2024-09-25T14:26:54Z</time>
      </trkpt>
      <trkpt lat="42.37441" lon="2.19035">
        <ele>1447.9</ele>
        <time>2024-09-25T14:26:55Z</time>
      </trkpt>
      <trkpt lat="42.37441" lon="2.19034">
        <ele>1447.9</ele>
        <time>2024-09-25T14:26:56Z</time>
      </trkpt>
      <trkpt lat="42.37441" lon="2.19034">
        <ele>1447.9</ele>
        <time>2024-09-25T14:26:57Z</time>
      </trkpt>
      <trkpt lat="42.37441" lon="2.19034">
        <ele>1447.9</ele>
        <time>2024-09-25T14:26:58Z</time>
      </trkpt>
      <trkpt lat="42.37441" lon="2.19033">
        <ele>1447.9</ele>
        <time>2024-09-25T14:26:59Z</time>
      </trkpt>
      <trkpt lat="42.37441" lon="2.19032">
        <ele>1447.9</ele>
        <time>2024-09-25T14:27:00Z</time>
      </trkpt>
      <trkpt lat="42.37442" lon="2.1903">
        <ele>1447.9</ele>
        <time>2024-09-25T14:27:01Z</time>
      </trkpt>
      <trkpt lat="42.37442" lon="2.19029">
        <ele>1447.9</ele>
        <time>2024-09-25T14:27:02Z</time>
      </trkpt>
      <trkpt lat="42.37442" lon="2.19028">
        <ele>1447.8</ele>
        <time>2024-09-25T14:27:03Z</time>
      </trkpt>
      <trkpt lat="42.37443" lon="2.19027">
        <ele>1447.8</ele>
        <time>2024-09-25T14:27:04Z</time>
      </trkpt>
      <trkpt lat="42.37443" lon="2.19026">
        <ele>1447.8</ele>
        <time>2024-09-25T14:27:05Z</time>
      </trkpt>
      <trkpt lat="42.37443" lon="2.19026">
        <ele>1447.7</ele>
        <time>2024-09-25T14:27:06Z</time>
      </trkpt>
      <trkpt lat="42.37443" lon="2.19025">
        <ele>1447.7</ele>
        <time>2024-09-25T14:27:07Z</time>
      </trkpt>
      <trkpt lat="42.37444" lon="2.19024">
        <ele>1447.7</ele>
        <time>2024-09-25T14:27:08Z</time>
      </trkpt>
      <trkpt lat="42.37444" lon="2.19024">
        <ele>1447.7</ele>
        <time>2024-09-25T14:27:09Z</time>
      </trkpt>
      <trkpt lat="42.37444" lon="2.19023">
        <ele>1447.7</ele>
        <time>2024-09-25T14:27:10Z</time>
      </trkpt>
      <trkpt lat="42.37444" lon="2.19023">
        <ele>1447.6</ele>
        <time>2024-09-25T14:27:11Z</time>
      </trkpt>
      <trkpt lat="42.37444" lon="2.19022">
        <ele>1447.5</ele>
        <time>2024-09-25T14:27:12Z</time>
      </trkpt>
      <trkpt lat="42.37445" lon="2.19021">
        <ele>1447.4</ele>
        <time>2024-09-25T14:27:13Z</time>
      </trkpt>
      <trkpt lat="42.37445" lon="2.1902">
        <ele>1447.4</ele>
        <time>2024-09-25T14:27:14Z</time>
      </trkpt>
      <trkpt lat="42.37445" lon="2.19019">
        <ele>1447.3</ele>
        <time>2024-09-25T14:27:15Z</time>
      </trkpt>
      <trkpt lat="42.37446" lon="2.19018">
        <ele>1447.2</ele>
        <time>2024-09-25T14:27:16Z</time>
      </trkpt>
      <trkpt lat="42.37446" lon="2.19017">
        <ele>1447.2</ele>
        <time>2024-09-25T14:27:17Z</time>
      </trkpt>
      <trkpt lat="42.37446" lon="2.19016">
        <ele>1447.1</ele>
        <time>2024-09-25T14:27:18Z</time>
      </trkpt>
      <trkpt lat="42.37446" lon="2.19015">
        <ele>1447</ele>
        <time>2024-09-25T14:27:19Z</time>
      </trkpt>
      <trkpt lat="42.37446" lon="2.19014">
        <ele>1446.9</ele>
        <time>2024-09-25T14:27:20Z</time>
      </trkpt>
      <trkpt lat="42.37446" lon="2.19013">
        <ele>1446.8</ele>
        <time>2024-09-25T14:27:21Z</time>
      </trkpt>
      <trkpt lat="42.37447" lon="2.19013">
        <ele>1446.7</ele>
        <time>2024-09-25T14:27:22Z</time>
      </trkpt>
      <trkpt lat="42.37447" lon="2.19012">
        <ele>1446.7</ele>
        <time>2024-09-25T14:27:23Z</time>
      </trkpt>
      <trkpt lat="42.37447" lon="2.19012">
        <ele>1446.6</ele>
        <time>2024-09-25T14:27:24Z</time>
      </trkpt>
      <trkpt lat="42.37447" lon="2.19012">
        <ele>1446.6</ele>
        <time>2024-09-25T14:27:25Z</time>
      </trkpt>
      <trkpt lat="42.37448" lon="2.19012">
        <ele>1446.6</ele>
        <time>2024-09-25T14:27:26Z</time>
      </trkpt>
      <trkpt lat="42.37448" lon="2.19012">
        <ele>1446.5</ele>
        <time>2024-09-25T14:27:27Z</time>
      </trkpt>
      <trkpt lat="42.37448" lon="2.19012">
        <ele>1446.5</ele>
        <time>2024-09-25T14:27:28Z</time>
      </trkpt>
      <trkpt lat="42.37449" lon="2.19011">
        <ele>1446.4</ele>
        <time>2024-09-25T14:27:29Z</time>
      </trkpt>
      <trkpt lat="42.37449" lon="2.1901">
        <ele>1446.3</ele>
        <time>2024-09-25T14:27:30Z</time>
      </trkpt>
      <trkpt lat="42.37449" lon="2.19009">
        <ele>1446.2</ele>
        <time>2024-09-25T14:27:31Z</time>
      </trkpt>
      <trkpt lat="42.37449" lon="2.19008">
        <ele>1446</ele>
        <time>2024-09-25T14:27:32Z</time>
      </trkpt>
      <trkpt lat="42.37449" lon="2.19007">
        <ele>1445.9</ele>
        <time>2024-09-25T14:27:33Z</time>
      </trkpt>
      <trkpt lat="42.37449" lon="2.19006">
        <ele>1445.8</ele>
        <time>2024-09-25T14:27:34Z</time>
      </trkpt>
      <trkpt lat="42.37449" lon="2.19005">
        <ele>1445.6</ele>
        <time>2024-09-25T14:27:35Z</time>
      </trkpt>
      <trkpt lat="42.37448" lon="2.19005">
        <ele>1445.6</ele>
        <time>2024-09-25T14:27:36Z</time>
      </trkpt>
      <trkpt lat="42.37448" lon="2.19006">
        <ele>1445.6</ele>
        <time>2024-09-25T14:27:37Z</time>
      </trkpt>
      <trkpt lat="42.37448" lon="2.19005">
        <ele>1445.6</ele>
        <time>2024-09-25T14:27:38Z</time>
      </trkpt>
      <trkpt lat="42.37448" lon="2.19005">
        <ele>1445.5</ele>
        <time>2024-09-25T14:27:39Z</time>
      </trkpt>
      <trkpt lat="42.37448" lon="2.19005">
        <ele>1445.5</ele>
        <time>2024-09-25T14:27:40Z</time>
      </trkpt>
      <trkpt lat="42.37448" lon="2.19005">
        <ele>1445.5</ele>
        <time>2024-09-25T14:27:41Z</time>
      </trkpt>
      <trkpt lat="42.37448" lon="2.19005">
        <ele>1445.4</ele>
        <time>2024-09-25T14:27:42Z</time>
      </trkpt>
      <trkpt lat="42.37448" lon="2.19005">
        <ele>1445.4</ele>
        <time>2024-09-25T14:27:43Z</time>
      </trkpt>
      <trkpt lat="42.37447" lon="2.19005">
        <ele>1445.4</ele>
        <time>2024-09-25T14:27:44Z</time>
      </trkpt>
      <trkpt lat="42.37447" lon="2.19005">
        <ele>1445.4</ele>
        <time>2024-09-25T14:27:45Z</time>
      </trkpt>
      <trkpt lat="42.37447" lon="2.19005">
        <ele>1445.4</ele>
        <time>2024-09-25T14:27:46Z</time>
      </trkpt>
      <trkpt lat="42.37447" lon="2.19005">
        <ele>1445.4</ele>
        <time>2024-09-25T14:27:47Z</time>
      </trkpt>
      <trkpt lat="42.37447" lon="2.19005">
        <ele>1445.4</ele>
        <time>2024-09-25T14:27:48Z</time>
      </trkpt>
      <trkpt lat="42.37447" lon="2.19005">
        <ele>1445.4</ele>
        <time>2024-09-25T14:27:49Z</time>
      </trkpt>
      <trkpt lat="42.37447" lon="2.19005">
        <ele>1445.3</ele>
        <time>2024-09-25T14:27:50Z</time>
      </trkpt>
      <trkpt lat="42.37447" lon="2.19005">
        <ele>1445.3</ele>
        <time>2024-09-25T14:27:51Z</time>
      </trkpt>
      <trkpt lat="42.37447" lon="2.19005">
        <ele>1445.3</ele>
        <time>2024-09-25T14:27:52Z</time>
      </trkpt>
      <trkpt lat="42.37447" lon="2.19005">
        <ele>1445.3</ele>
        <time>2024-09-25T14:27:53Z</time>
      </trkpt>
      <trkpt lat="42.37447" lon="2.19005">
        <ele>1445.3</ele>
        <time>2024-09-25T14:27:54Z</time>
      </trkpt>
      <trkpt lat="42.37447" lon="2.19005">
        <ele>1445.3</ele>
        <time>2024-09-25T14:27:55Z</time>
      </trkpt>
      <trkpt lat="42.37447" lon="2.19005">
        <ele>1445.3</ele>
        <time>2024-09-25T14:27:56Z</time>
      </trkpt>
      <trkpt lat="42.37447" lon="2.19005">
        <ele>1445.3</ele>
        <time>2024-09-25T14:27:57Z</time>
      </trkpt>
      <trkpt lat="42.37447" lon="2.19005">
        <ele>1445.3</ele>
        <time>2024-09-25T14:27:58Z</time>
      </trkpt>
      <trkpt lat="42.37447" lon="2.19005">
        <ele>1445.3</ele>
        <time>2024-09-25T14:27:59Z</time>
      </trkpt>
      <trkpt lat="42.37447" lon="2.19005">
        <ele>1445.3</ele>
        <time>2024-09-25T14:28:00Z</time>
      </trkpt>
      <trkpt lat="42.37447" lon="2.19005">
        <ele>1445.3</ele>
        <time>2024-09-25T14:28:01Z</time>
      </trkpt>
      <trkpt lat="42.37447" lon="2.19005">
        <ele>1445.3</ele>
        <time>2024-09-25T14:28:02Z</time>
      </trkpt>
      <trkpt lat="42.37447" lon="2.19005">
        <ele>1445.3</ele>
        <time>2024-09-25T14:28:03Z</time>
      </trkpt>
      <trkpt lat="42.37447" lon="2.19005">
        <ele>1445.3</ele>
        <time>2024-09-25T14:28:04Z</time>
      </trkpt>
      <trkpt lat="42.37447" lon="2.19005">
        <ele>1445.3</ele>
        <time>2024-09-25T14:28:05Z</time>
      </trkpt>
      <trkpt lat="42.37447" lon="2.19005">
        <ele>1445.3</ele>
        <time>2024-09-25T14:28:06Z</time>
      </trkpt>
      <trkpt lat="42.37447" lon="2.19005">
        <ele>1445.3</ele>
        <time>2024-09-25T14:28:07Z</time>
      </trkpt>
      <trkpt lat="42.37447" lon="2.19005">
        <ele>1445.3</ele>
        <time>2024-09-25T14:28:08Z</time>
      </trkpt>
      <trkpt lat="42.37447" lon="2.19005">
        <ele>1445.3</ele>
        <time>2024-09-25T14:28:09Z</time>
      </trkpt>
      <trkpt lat="42.37447" lon="2.19005">
        <ele>1445.3</ele>
        <time>2024-09-25T14:28:10Z</time>
      </trkpt>
      <trkpt lat="42.37447" lon="2.19005">
        <ele>1445.3</ele>
        <time>2024-09-25T14:28:11Z</time>
      </trkpt>
      <trkpt lat="42.37447" lon="2.19005">
        <ele>1445.3</ele>
        <time>2024-09-25T14:28:12Z</time>
      </trkpt>
      <trkpt lat="42.37447" lon="2.19005">
        <ele>1445.3</ele>
        <time>2024-09-25T14:28:13Z</time>
      </trkpt>
      <trkpt lat="42.37447" lon="2.19004">
        <ele>1445.2</ele>
        <time>2024-09-25T14:28:14Z</time>
      </trkpt>
      <trkpt lat="42.37447" lon="2.19004">
        <ele>1445.1</ele>
        <time>2024-09-25T14:28:15Z</time>
      </trkpt>
      <trkpt lat="42.37447" lon="2.19002">
        <ele>1444.9</ele>
        <time>2024-09-25T14:28:16Z</time>
      </trkpt>
      <trkpt lat="42.37446" lon="2.19001">
        <ele>1444.7</ele>
        <time>2024-09-25T14:28:17Z</time>
      </trkpt>
      <trkpt lat="42.37445" lon="2.18999">
        <ele>1444.5</ele>
        <time>2024-09-25T14:28:18Z</time>
      </trkpt>
      <trkpt lat="42.37444" lon="2.18998">
        <ele>1444.2</ele>
        <time>2024-09-25T14:28:19Z</time>
      </trkpt>
      <trkpt lat="42.37443" lon="2.18997">
        <ele>1444</ele>
        <time>2024-09-25T14:28:20Z</time>
      </trkpt>
      <trkpt lat="42.37441" lon="2.18996">
        <ele>1443.6</ele>
        <time>2024-09-25T14:28:21Z</time>
      </trkpt>
      <trkpt lat="42.37441" lon="2.18995">
        <ele>1443.5</ele>
        <time>2024-09-25T14:28:22Z</time>
      </trkpt>
      <trkpt lat="42.37441" lon="2.18994">
        <ele>1443.4</ele>
        <time>2024-09-25T14:28:23Z</time>
      </trkpt>
      <trkpt lat="42.3744" lon="2.18993">
        <ele>1443.3</ele>
        <time>2024-09-25T14:28:24Z</time>
      </trkpt>
      <trkpt lat="42.3744" lon="2.18992">
        <ele>1443.1</ele>
        <time>2024-09-25T14:28:25Z</time>
      </trkpt>
      <trkpt lat="42.3744" lon="2.1899">
        <ele>1442.8</ele>
        <time>2024-09-25T14:28:26Z</time>
      </trkpt>
      <trkpt lat="42.37441" lon="2.1899">
        <ele>1442.8</ele>
        <time>2024-09-25T14:28:27Z</time>
      </trkpt>
      <trkpt lat="42.3744" lon="2.18989">
        <ele>1442.6</ele>
        <time>2024-09-25T14:28:28Z</time>
      </trkpt>
      <trkpt lat="42.37439" lon="2.18988">
        <ele>1442.5</ele>
        <time>2024-09-25T14:28:29Z</time>
      </trkpt>
      <trkpt lat="42.37439" lon="2.18988">
        <ele>1442.3</ele>
        <time>2024-09-25T14:28:30Z</time>
      </trkpt>
      <trkpt lat="42.37438" lon="2.18988">
        <ele>1442.2</ele>
        <time>2024-09-25T14:28:31Z</time>
      </trkpt>
      <trkpt lat="42.37437" lon="2.18987">
        <ele>1442</ele>
        <time>2024-09-25T14:28:32Z</time>
      </trkpt>
      <trkpt lat="42.37437" lon="2.18987">
        <ele>1441.9</ele>
        <time>2024-09-25T14:28:33Z</time>
      </trkpt>
      <trkpt lat="42.37436" lon="2.18987">
        <ele>1441.8</ele>
        <time>2024-09-25T14:28:34Z</time>
      </trkpt>
      <trkpt lat="42.37435" lon="2.18986">
        <ele>1441.7</ele>
        <time>2024-09-25T14:28:35Z</time>
      </trkpt>
      <trkpt lat="42.37434" lon="2.18986">
        <ele>1441.5</ele>
        <time>2024-09-25T14:28:36Z</time>
      </trkpt>
      <trkpt lat="42.37434" lon="2.18986">
        <ele>1441.4</ele>
        <time>2024-09-25T14:28:37Z</time>
      </trkpt>
      <trkpt lat="42.37433" lon="2.18985">
        <ele>1441.3</ele>
        <time>2024-09-25T14:28:38Z</time>
      </trkpt>
      <trkpt lat="42.37433" lon="2.18985">
        <ele>1441.2</ele>
        <time>2024-09-25T14:28:39Z</time>
      </trkpt>
      <trkpt lat="42.37432" lon="2.18985">
        <ele>1441.1</ele>
        <time>2024-09-25T14:28:40Z</time>
      </trkpt>
      <trkpt lat="42.37431" lon="2.18985">
        <ele>1441</ele>
        <time>2024-09-25T14:28:41Z</time>
      </trkpt>
      <trkpt lat="42.37431" lon="2.18984">
        <ele>1440.9</ele>
        <time>2024-09-25T14:28:42Z</time>
      </trkpt>
      <trkpt lat="42.3743" lon="2.18984">
        <ele>1440.8</ele>
        <time>2024-09-25T14:28:43Z</time>
      </trkpt>
      <trkpt lat="42.3743" lon="2.18984">
        <ele>1440.8</ele>
        <time>2024-09-25T14:28:44Z</time>
      </trkpt>
      <trkpt lat="42.3743" lon="2.18983">
        <ele>1440.7</ele>
        <time>2024-09-25T14:28:45Z</time>
      </trkpt>
      <trkpt lat="42.3743" lon="2.18982">
        <ele>1440.6</ele>
        <time>2024-09-25T14:28:46Z</time>
      </trkpt>
      <trkpt lat="42.3743" lon="2.18981">
        <ele>1440.5</ele>
        <time>2024-09-25T14:28:47Z</time>
      </trkpt>
      <trkpt lat="42.3743" lon="2.18981">
        <ele>1440.4</ele>
        <time>2024-09-25T14:28:48Z</time>
      </trkpt>
      <trkpt lat="42.3743" lon="2.1898">
        <ele>1440.4</ele>
        <time>2024-09-25T14:28:49Z</time>
      </trkpt>
      <trkpt lat="42.3743" lon="2.1898">
        <ele>1440.4</ele>
        <time>2024-09-25T14:28:50Z</time>
      </trkpt>
      <trkpt lat="42.3743" lon="2.1898">
        <ele>1440.3</ele>
        <time>2024-09-25T14:28:51Z</time>
      </trkpt>
      <trkpt lat="42.3743" lon="2.18979">
        <ele>1440.3</ele>
        <time>2024-09-25T14:28:52Z</time>
      </trkpt>
      <trkpt lat="42.3743" lon="2.18979">
        <ele>1440.2</ele>
        <time>2024-09-25T14:28:53Z</time>
      </trkpt>
      <trkpt lat="42.3743" lon="2.18978">
        <ele>1440.2</ele>
        <time>2024-09-25T14:28:54Z</time>
      </trkpt>
      <trkpt lat="42.3743" lon="2.18978">
        <ele>1440.1</ele>
        <time>2024-09-25T14:28:55Z</time>
      </trkpt>
      <trkpt lat="42.3743" lon="2.18977">
        <ele>1440.1</ele>
        <time>2024-09-25T14:28:56Z</time>
      </trkpt>
      <trkpt lat="42.3743" lon="2.18977">
        <ele>1440.1</ele>
        <time>2024-09-25T14:28:57Z</time>
      </trkpt>
      <trkpt lat="42.3743" lon="2.18975">
        <ele>1439.9</ele>
        <time>2024-09-25T14:28:58Z</time>
      </trkpt>
      <trkpt lat="42.3743" lon="2.18974">
        <ele>1439.8</ele>
        <time>2024-09-25T14:28:59Z</time>
      </trkpt>
      <trkpt lat="42.3743" lon="2.18973">
        <ele>1439.7</ele>
        <time>2024-09-25T14:29:00Z</time>
      </trkpt>
      <trkpt lat="42.3743" lon="2.18972">
        <ele>1439.6</ele>
        <time>2024-09-25T14:29:01Z</time>
      </trkpt>
      <trkpt lat="42.3743" lon="2.18972">
        <ele>1439.5</ele>
        <time>2024-09-25T14:29:02Z</time>
      </trkpt>
      <trkpt lat="42.3743" lon="2.18972">
        <ele>1439.5</ele>
        <time>2024-09-25T14:29:03Z</time>
      </trkpt>
      <trkpt lat="42.37429" lon="2.18971">
        <ele>1439.4</ele>
        <time>2024-09-25T14:29:04Z</time>
      </trkpt>
      <trkpt lat="42.37429" lon="2.18971">
        <ele>1439.4</ele>
        <time>2024-09-25T14:29:05Z</time>
      </trkpt>
      <trkpt lat="42.37429" lon="2.18971">
        <ele>1439.3</ele>
        <time>2024-09-25T14:29:06Z</time>
      </trkpt>
      <trkpt lat="42.37428" lon="2.18971">
        <ele>1439.3</ele>
        <time>2024-09-25T14:29:07Z</time>
      </trkpt>
      <trkpt lat="42.37428" lon="2.18971">
        <ele>1439.2</ele>
        <time>2024-09-25T14:29:08Z</time>
      </trkpt>
      <trkpt lat="42.37427" lon="2.18971">
        <ele>1439.2</ele>
        <time>2024-09-25T14:29:09Z</time>
      </trkpt>
      <trkpt lat="42.37427" lon="2.18971">
        <ele>1439.1</ele>
        <time>2024-09-25T14:29:10Z</time>
      </trkpt>
      <trkpt lat="42.37427" lon="2.18971">
        <ele>1439.1</ele>
        <time>2024-09-25T14:29:11Z</time>
      </trkpt>
      <trkpt lat="42.37426" lon="2.18971">
        <ele>1439</ele>
        <time>2024-09-25T14:29:12Z</time>
      </trkpt>
      <trkpt lat="42.37426" lon="2.18971">
        <ele>1439</ele>
        <time>2024-09-25T14:29:13Z</time>
      </trkpt>
      <trkpt lat="42.37425" lon="2.18972">
        <ele>1438.9</ele>
        <time>2024-09-25T14:29:14Z</time>
      </trkpt>
      <trkpt lat="42.37425" lon="2.18972">
        <ele>1438.8</ele>
        <time>2024-09-25T14:29:15Z</time>
      </trkpt>
      <trkpt lat="42.37425" lon="2.18972">
        <ele>1438.8</ele>
        <time>2024-09-25T14:29:16Z</time>
      </trkpt>
      <trkpt lat="42.37424" lon="2.18973">
        <ele>1438.7</ele>
        <time>2024-09-25T14:29:17Z</time>
      </trkpt>
      <trkpt lat="42.37423" lon="2.18973">
        <ele>1438.5</ele>
        <time>2024-09-25T14:29:18Z</time>
      </trkpt>
      <trkpt lat="42.37422" lon="2.18973">
        <ele>1438.4</ele>
        <time>2024-09-25T14:29:19Z</time>
      </trkpt>
      <trkpt lat="42.37421" lon="2.18973">
        <ele>1438.4</ele>
        <time>2024-09-25T14:29:20Z</time>
      </trkpt>
      <trkpt lat="42.37421" lon="2.18973">
        <ele>1438.3</ele>
        <time>2024-09-25T14:29:21Z</time>
      </trkpt>
      <trkpt lat="42.3742" lon="2.18972">
        <ele>1438.1</ele>
        <time>2024-09-25T14:29:22Z</time>
      </trkpt>
      <trkpt lat="42.37419" lon="2.18971">
        <ele>1438</ele>
        <time>2024-09-25T14:29:23Z</time>
      </trkpt>
      <trkpt lat="42.37419" lon="2.1897">
        <ele>1437.9</ele>
        <time>2024-09-25T14:29:24Z</time>
      </trkpt>
      <trkpt lat="42.3742" lon="2.1897">
        <ele>1437.9</ele>
        <time>2024-09-25T14:29:25Z</time>
      </trkpt>
      <trkpt lat="42.3742" lon="2.18969">
        <ele>1437.8</ele>
        <time>2024-09-25T14:29:26Z</time>
      </trkpt>
      <trkpt lat="42.3742" lon="2.18969">
        <ele>1437.8</ele>
        <time>2024-09-25T14:29:27Z</time>
      </trkpt>
      <trkpt lat="42.37419" lon="2.18968">
        <ele>1437.7</ele>
        <time>2024-09-25T14:29:28Z</time>
      </trkpt>
      <trkpt lat="42.37419" lon="2.18968">
        <ele>1437.6</ele>
        <time>2024-09-25T14:29:29Z</time>
      </trkpt>
      <trkpt lat="42.37418" lon="2.18968">
        <ele>1437.5</ele>
        <time>2024-09-25T14:29:30Z</time>
      </trkpt>
      <trkpt lat="42.37417" lon="2.18969">
        <ele>1437.4</ele>
        <time>2024-09-25T14:29:31Z</time>
      </trkpt>
      <trkpt lat="42.37416" lon="2.18969">
        <ele>1437.2</ele>
        <time>2024-09-25T14:29:32Z</time>
      </trkpt>
      <trkpt lat="42.37415" lon="2.18969">
        <ele>1437</ele>
        <time>2024-09-25T14:29:33Z</time>
      </trkpt>
      <trkpt lat="42.37414" lon="2.18968">
        <ele>1436.9</ele>
        <time>2024-09-25T14:29:34Z</time>
      </trkpt>
      <trkpt lat="42.37413" lon="2.18967">
        <ele>1436.8</ele>
        <time>2024-09-25T14:29:35Z</time>
      </trkpt>
      <trkpt lat="42.37412" lon="2.18967">
        <ele>1436.7</ele>
        <time>2024-09-25T14:29:36Z</time>
      </trkpt>
      <trkpt lat="42.37412" lon="2.18966">
        <ele>1436.6</ele>
        <time>2024-09-25T14:29:37Z</time>
      </trkpt>
      <trkpt lat="42.37411" lon="2.18965">
        <ele>1436.4</ele>
        <time>2024-09-25T14:29:38Z</time>
      </trkpt>
      <trkpt lat="42.3741" lon="2.18963">
        <ele>1436.1</ele>
        <time>2024-09-25T14:29:39Z</time>
      </trkpt>
      <trkpt lat="42.3741" lon="2.18962">
        <ele>1436</ele>
        <time>2024-09-25T14:29:40Z</time>
      </trkpt>
      <trkpt lat="42.3741" lon="2.18961">
        <ele>1435.9</ele>
        <time>2024-09-25T14:29:41Z</time>
      </trkpt>
      <trkpt lat="42.3741" lon="2.1896">
        <ele>1435.7</ele>
        <time>2024-09-25T14:29:42Z</time>
      </trkpt>
      <trkpt lat="42.37409" lon="2.18958">
        <ele>1435.6</ele>
        <time>2024-09-25T14:29:43Z</time>
      </trkpt>
      <trkpt lat="42.37409" lon="2.18958">
        <ele>1435.5</ele>
        <time>2024-09-25T14:29:44Z</time>
      </trkpt>
      <trkpt lat="42.37408" lon="2.18957">
        <ele>1435.3</ele>
        <time>2024-09-25T14:29:45Z</time>
      </trkpt>
      <trkpt lat="42.37407" lon="2.18956">
        <ele>1435.1</ele>
        <time>2024-09-25T14:29:46Z</time>
      </trkpt>
      <trkpt lat="42.37406" lon="2.18957">
        <ele>1435</ele>
        <time>2024-09-25T14:29:47Z</time>
      </trkpt>
      <trkpt lat="42.37405" lon="2.18957">
        <ele>1434.8</ele>
        <time>2024-09-25T14:29:48Z</time>
      </trkpt>
      <trkpt lat="42.37404" lon="2.18957">
        <ele>1434.6</ele>
        <time>2024-09-25T14:29:49Z</time>
      </trkpt>
      <trkpt lat="42.37403" lon="2.18957">
        <ele>1434.5</ele>
        <time>2024-09-25T14:29:50Z</time>
      </trkpt>
      <trkpt lat="42.37402" lon="2.18957">
        <ele>1434.3</ele>
        <time>2024-09-25T14:29:51Z</time>
      </trkpt>
      <trkpt lat="42.37401" lon="2.18957">
        <ele>1434.2</ele>
        <time>2024-09-25T14:29:52Z</time>
      </trkpt>
      <trkpt lat="42.37401" lon="2.18957">
        <ele>1434</ele>
        <time>2024-09-25T14:29:53Z</time>
      </trkpt>
      <trkpt lat="42.374" lon="2.18957">
        <ele>1433.9</ele>
        <time>2024-09-25T14:29:54Z</time>
      </trkpt>
      <trkpt lat="42.37399" lon="2.18957">
        <ele>1433.8</ele>
        <time>2024-09-25T14:29:55Z</time>
      </trkpt>
      <trkpt lat="42.37399" lon="2.18957">
        <ele>1433.7</ele>
        <time>2024-09-25T14:29:56Z</time>
      </trkpt>
      <trkpt lat="42.37398" lon="2.18957">
        <ele>1433.6</ele>
        <time>2024-09-25T14:29:57Z</time>
      </trkpt>
      <trkpt lat="42.37397" lon="2.18957">
        <ele>1433.4</ele>
        <time>2024-09-25T14:29:58Z</time>
      </trkpt>
      <trkpt lat="42.37397" lon="2.18956">
        <ele>1433.2</ele>
        <time>2024-09-25T14:29:59Z</time>
      </trkpt>
      <trkpt lat="42.37395" lon="2.18956">
        <ele>1433</ele>
        <time>2024-09-25T14:30:00Z</time>
      </trkpt>
      <trkpt lat="42.37395" lon="2.18956">
        <ele>1432.8</ele>
        <time>2024-09-25T14:30:01Z</time>
      </trkpt>
      <trkpt lat="42.37394" lon="2.18956">
        <ele>1432.7</ele>
        <time>2024-09-25T14:30:02Z</time>
      </trkpt>
      <trkpt lat="42.37393" lon="2.18955">
        <ele>1432.5</ele>
        <time>2024-09-25T14:30:03Z</time>
      </trkpt>
      <trkpt lat="42.37392" lon="2.18955">
        <ele>1432.4</ele>
        <time>2024-09-25T14:30:04Z</time>
      </trkpt>
      <trkpt lat="42.37392" lon="2.18955">
        <ele>1432.3</ele>
        <time>2024-09-25T14:30:05Z</time>
      </trkpt>
      <trkpt lat="42.37392" lon="2.18955">
        <ele>1432.3</ele>
        <time>2024-09-25T14:30:06Z</time>
      </trkpt>
      <trkpt lat="42.37392" lon="2.18954">
        <ele>1432.2</ele>
        <time>2024-09-25T14:30:07Z</time>
      </trkpt>
      <trkpt lat="42.37392" lon="2.18953">
        <ele>1431.9</ele>
        <time>2024-09-25T14:30:08Z</time>
      </trkpt>
      <trkpt lat="42.37391" lon="2.18952">
        <ele>1431.8</ele>
        <time>2024-09-25T14:30:09Z</time>
      </trkpt>
      <trkpt lat="42.3739" lon="2.18952">
        <ele>1431.6</ele>
        <time>2024-09-25T14:30:10Z</time>
      </trkpt>
      <trkpt lat="42.3739" lon="2.18952">
        <ele>1431.5</ele>
        <time>2024-09-25T14:30:11Z</time>
      </trkpt>
      <trkpt lat="42.37389" lon="2.18953">
        <ele>1431.4</ele>
        <time>2024-09-25T14:30:12Z</time>
      </trkpt>
      <trkpt lat="42.37389" lon="2.18953">
        <ele>1431.3</ele>
        <time>2024-09-25T14:30:13Z</time>
      </trkpt>
      <trkpt lat="42.37388" lon="2.18953">
        <ele>1431.2</ele>
        <time>2024-09-25T14:30:14Z</time>
      </trkpt>
      <trkpt lat="42.37387" lon="2.18953">
        <ele>1431.1</ele>
        <time>2024-09-25T14:30:15Z</time>
      </trkpt>
      <trkpt lat="42.37387" lon="2.18952">
        <ele>1430.9</ele>
        <time>2024-09-25T14:30:16Z</time>
      </trkpt>
      <trkpt lat="42.37386" lon="2.18952">
        <ele>1430.7</ele>
        <time>2024-09-25T14:30:17Z</time>
      </trkpt>
      <trkpt lat="42.37385" lon="2.18952">
        <ele>1430.6</ele>
        <time>2024-09-25T14:30:18Z</time>
      </trkpt>
      <trkpt lat="42.37384" lon="2.18951">
        <ele>1430.4</ele>
        <time>2024-09-25T14:30:19Z</time>
      </trkpt>
      <trkpt lat="42.37384" lon="2.18951">
        <ele>1430.3</ele>
        <time>2024-09-25T14:30:20Z</time>
      </trkpt>
      <trkpt lat="42.37384" lon="2.1895">
        <ele>1430.1</ele>
        <time>2024-09-25T14:30:21Z</time>
      </trkpt>
      <trkpt lat="42.37383" lon="2.18949">
        <ele>1429.9</ele>
        <time>2024-09-25T14:30:22Z</time>
      </trkpt>
      <trkpt lat="42.37383" lon="2.18948">
        <ele>1429.8</ele>
        <time>2024-09-25T14:30:23Z</time>
      </trkpt>
      <trkpt lat="42.37383" lon="2.18948">
        <ele>1429.7</ele>
        <time>2024-09-25T14:30:24Z</time>
      </trkpt>
      <trkpt lat="42.37383" lon="2.18947">
        <ele>1429.7</ele>
        <time>2024-09-25T14:30:25Z</time>
      </trkpt>
      <trkpt lat="42.37383" lon="2.18947">
        <ele>1429.6</ele>
        <time>2024-09-25T14:30:26Z</time>
      </trkpt>
      <trkpt lat="42.37383" lon="2.18947">
        <ele>1429.5</ele>
        <time>2024-09-25T14:30:27Z</time>
      </trkpt>
      <trkpt lat="42.37383" lon="2.18946">
        <ele>1429.4</ele>
        <time>2024-09-25T14:30:28Z</time>
      </trkpt>
      <trkpt lat="42.37382" lon="2.18946">
        <ele>1429.3</ele>
        <time>2024-09-25T14:30:29Z</time>
      </trkpt>
      <trkpt lat="42.37381" lon="2.18946">
        <ele>1429.2</ele>
        <time>2024-09-25T14:30:30Z</time>
      </trkpt>
      <trkpt lat="42.37381" lon="2.18945">
        <ele>1429</ele>
        <time>2024-09-25T14:30:31Z</time>
      </trkpt>
      <trkpt lat="42.3738" lon="2.18945">
        <ele>1428.8</ele>
        <time>2024-09-25T14:30:32Z</time>
      </trkpt>
      <trkpt lat="42.3738" lon="2.18944">
        <ele>1428.7</ele>
        <time>2024-09-25T14:30:33Z</time>
      </trkpt>
      <trkpt lat="42.37379" lon="2.18944">
        <ele>1428.6</ele>
        <time>2024-09-25T14:30:34Z</time>
      </trkpt>
      <trkpt lat="42.37379" lon="2.18944">
        <ele>1428.6</ele>
        <time>2024-09-25T14:30:35Z</time>
      </trkpt>
      <trkpt lat="42.37379" lon="2.18943">
        <ele>1428.5</ele>
        <time>2024-09-25T14:30:36Z</time>
      </trkpt>
      <trkpt lat="42.37378" lon="2.18943">
        <ele>1428.3</ele>
        <time>2024-09-25T14:30:37Z</time>
      </trkpt>
      <trkpt lat="42.37377" lon="2.18942">
        <ele>1428.2</ele>
        <time>2024-09-25T14:30:38Z</time>
      </trkpt>
      <trkpt lat="42.37377" lon="2.18942">
        <ele>1428</ele>
        <time>2024-09-25T14:30:39Z</time>
      </trkpt>
      <trkpt lat="42.37377" lon="2.18941">
        <ele>1427.9</ele>
        <time>2024-09-25T14:30:40Z</time>
      </trkpt>
      <trkpt lat="42.37376" lon="2.18941">
        <ele>1427.8</ele>
        <time>2024-09-25T14:30:41Z</time>
      </trkpt>
      <trkpt lat="42.37376" lon="2.18941">
        <ele>1427.8</ele>
        <time>2024-09-25T14:30:42Z</time>
      </trkpt>
      <trkpt lat="42.37376" lon="2.18941">
        <ele>1427.7</ele>
        <time>2024-09-25T14:30:43Z</time>
      </trkpt>
      <trkpt lat="42.37375" lon="2.18941">
        <ele>1427.6</ele>
        <time>2024-09-25T14:30:44Z</time>
      </trkpt>
      <trkpt lat="42.37375" lon="2.1894">
        <ele>1427.5</ele>
        <time>2024-09-25T14:30:45Z</time>
      </trkpt>
      <trkpt lat="42.37374" lon="2.1894">
        <ele>1427.4</ele>
        <time>2024-09-25T14:30:46Z</time>
      </trkpt>
      <trkpt lat="42.37374" lon="2.1894">
        <ele>1427.3</ele>
        <time>2024-09-25T14:30:47Z</time>
      </trkpt>
      <trkpt lat="42.37374" lon="2.18939">
        <ele>1427.2</ele>
        <time>2024-09-25T14:30:48Z</time>
      </trkpt>
      <trkpt lat="42.37374" lon="2.18939">
        <ele>1427.2</ele>
        <time>2024-09-25T14:30:49Z</time>
      </trkpt>
      <trkpt lat="42.37374" lon="2.18939">
        <ele>1427.1</ele>
        <time>2024-09-25T14:30:50Z</time>
      </trkpt>
      <trkpt lat="42.37373" lon="2.18938">
        <ele>1427</ele>
        <time>2024-09-25T14:30:51Z</time>
      </trkpt>
      <trkpt lat="42.37373" lon="2.18938">
        <ele>1427</ele>
        <time>2024-09-25T14:30:52Z</time>
      </trkpt>
      <trkpt lat="42.37373" lon="2.18938">
        <ele>1426.9</ele>
        <time>2024-09-25T14:30:53Z</time>
      </trkpt>
      <trkpt lat="42.37373" lon="2.18938">
        <ele>1426.8</ele>
        <time>2024-09-25T14:30:54Z</time>
      </trkpt>
      <trkpt lat="42.37372" lon="2.18938">
        <ele>1426.8</ele>
        <time>2024-09-25T14:30:55Z</time>
      </trkpt>
      <trkpt lat="42.37372" lon="2.18938">
        <ele>1426.7</ele>
        <time>2024-09-25T14:30:56Z</time>
      </trkpt>
      <trkpt lat="42.37372" lon="2.18938">
        <ele>1426.7</ele>
        <time>2024-09-25T14:30:57Z</time>
      </trkpt>
      <trkpt lat="42.37372" lon="2.18938">
        <ele>1426.6</ele>
        <time>2024-09-25T14:30:58Z</time>
      </trkpt>
      <trkpt lat="42.37372" lon="2.18938">
        <ele>1426.6</ele>
        <time>2024-09-25T14:30:59Z</time>
      </trkpt>
      <trkpt lat="42.37371" lon="2.18937">
        <ele>1426.5</ele>
        <time>2024-09-25T14:31:00Z</time>
      </trkpt>
      <trkpt lat="42.37371" lon="2.18937">
        <ele>1426.4</ele>
        <time>2024-09-25T14:31:01Z</time>
      </trkpt>
      <trkpt lat="42.3737" lon="2.18937">
        <ele>1426.3</ele>
        <time>2024-09-25T14:31:02Z</time>
      </trkpt>
      <trkpt lat="42.3737" lon="2.18936">
        <ele>1426.2</ele>
        <time>2024-09-25T14:31:03Z</time>
      </trkpt>
      <trkpt lat="42.3737" lon="2.18936">
        <ele>1426.2</ele>
        <time>2024-09-25T14:31:04Z</time>
      </trkpt>
      <trkpt lat="42.3737" lon="2.18936">
        <ele>1426.1</ele>
        <time>2024-09-25T14:31:05Z</time>
      </trkpt>
      <trkpt lat="42.37369" lon="2.18936">
        <ele>1426</ele>
        <time>2024-09-25T14:31:06Z</time>
      </trkpt>
      <trkpt lat="42.37369" lon="2.18935">
        <ele>1425.9</ele>
        <time>2024-09-25T14:31:07Z</time>
      </trkpt>
      <trkpt lat="42.37368" lon="2.18934">
        <ele>1425.7</ele>
        <time>2024-09-25T14:31:08Z</time>
      </trkpt>
      <trkpt lat="42.37368" lon="2.18934">
        <ele>1425.5</ele>
        <time>2024-09-25T14:31:09Z</time>
      </trkpt>
      <trkpt lat="42.37367" lon="2.18933">
        <ele>1425.4</ele>
        <time>2024-09-25T14:31:10Z</time>
      </trkpt>
      <trkpt lat="42.37366" lon="2.18932">
        <ele>1425.2</ele>
        <time>2024-09-25T14:31:11Z</time>
      </trkpt>
      <trkpt lat="42.37366" lon="2.18932">
        <ele>1425.1</ele>
        <time>2024-09-25T14:31:12Z</time>
      </trkpt>
      <trkpt lat="42.37365" lon="2.18932">
        <ele>1425</ele>
        <time>2024-09-25T14:31:13Z</time>
      </trkpt>
      <trkpt lat="42.37365" lon="2.18931">
        <ele>1424.9</ele>
        <time>2024-09-25T14:31:14Z</time>
      </trkpt>
      <trkpt lat="42.37365" lon="2.18931">
        <ele>1424.8</ele>
        <time>2024-09-25T14:31:15Z</time>
      </trkpt>
      <trkpt lat="42.37365" lon="2.1893">
        <ele>1424.7</ele>
        <time>2024-09-25T14:31:16Z</time>
      </trkpt>
      <trkpt lat="42.37365" lon="2.1893">
        <ele>1424.6</ele>
        <time>2024-09-25T14:31:17Z</time>
      </trkpt>
      <trkpt lat="42.37365" lon="2.18929">
        <ele>1424.6</ele>
        <time>2024-09-25T14:31:18Z</time>
      </trkpt>
      <trkpt lat="42.37365" lon="2.18928">
        <ele>1424.4</ele>
        <time>2024-09-25T14:31:19Z</time>
      </trkpt>
      <trkpt lat="42.37365" lon="2.18927">
        <ele>1424.2</ele>
        <time>2024-09-25T14:31:20Z</time>
      </trkpt>
      <trkpt lat="42.37366" lon="2.18926">
        <ele>1424.1</ele>
        <time>2024-09-25T14:31:21Z</time>
      </trkpt>
      <trkpt lat="42.37366" lon="2.18925">
        <ele>1424</ele>
        <time>2024-09-25T14:31:22Z</time>
      </trkpt>
      <trkpt lat="42.37366" lon="2.18924">
        <ele>1423.9</ele>
        <time>2024-09-25T14:31:23Z</time>
      </trkpt>
      <trkpt lat="42.37366" lon="2.18923">
        <ele>1423.7</ele>
        <time>2024-09-25T14:31:24Z</time>
      </trkpt>
      <trkpt lat="42.37365" lon="2.18922">
        <ele>1423.6</ele>
        <time>2024-09-25T14:31:25Z</time>
      </trkpt>
      <trkpt lat="42.37365" lon="2.18921">
        <ele>1423.4</ele>
        <time>2024-09-25T14:31:26Z</time>
      </trkpt>
      <trkpt lat="42.37365" lon="2.18921">
        <ele>1423.3</ele>
        <time>2024-09-25T14:31:27Z</time>
      </trkpt>
      <trkpt lat="42.37364" lon="2.1892">
        <ele>1423.2</ele>
        <time>2024-09-25T14:31:28Z</time>
      </trkpt>
      <trkpt lat="42.37364" lon="2.18919">
        <ele>1423</ele>
        <time>2024-09-25T14:31:29Z</time>
      </trkpt>
      <trkpt lat="42.37364" lon="2.18918">
        <ele>1422.9</ele>
        <time>2024-09-25T14:31:30Z</time>
      </trkpt>
      <trkpt lat="42.37363" lon="2.18918">
        <ele>1422.8</ele>
        <time>2024-09-25T14:31:31Z</time>
      </trkpt>
      <trkpt lat="42.37363" lon="2.18917">
        <ele>1422.7</ele>
        <time>2024-09-25T14:31:32Z</time>
      </trkpt>
      <trkpt lat="42.37363" lon="2.18917">
        <ele>1422.6</ele>
        <time>2024-09-25T14:31:33Z</time>
      </trkpt>
      <trkpt lat="42.37362" lon="2.18916">
        <ele>1422.4</ele>
        <time>2024-09-25T14:31:34Z</time>
      </trkpt>
      <trkpt lat="42.37361" lon="2.18915">
        <ele>1422.2</ele>
        <time>2024-09-25T14:31:35Z</time>
      </trkpt>
      <trkpt lat="42.37361" lon="2.18915">
        <ele>1422.1</ele>
        <time>2024-09-25T14:31:36Z</time>
      </trkpt>
      <trkpt lat="42.3736" lon="2.18914">
        <ele>1422</ele>
        <time>2024-09-25T14:31:37Z</time>
      </trkpt>
      <trkpt lat="42.37359" lon="2.18914">
        <ele>1421.8</ele>
        <time>2024-09-25T14:31:38Z</time>
      </trkpt>
      <trkpt lat="42.37359" lon="2.18913">
        <ele>1421.6</ele>
        <time>2024-09-25T14:31:39Z</time>
      </trkpt>
      <trkpt lat="42.37358" lon="2.18912">
        <ele>1421.4</ele>
        <time>2024-09-25T14:31:40Z</time>
      </trkpt>
      <trkpt lat="42.37357" lon="2.18912">
        <ele>1421.2</ele>
        <time>2024-09-25T14:31:41Z</time>
      </trkpt>
      <trkpt lat="42.37356" lon="2.18911">
        <ele>1421.1</ele>
        <time>2024-09-25T14:31:42Z</time>
      </trkpt>
      <trkpt lat="42.37355" lon="2.18911">
        <ele>1421</ele>
        <time>2024-09-25T14:31:43Z</time>
      </trkpt>
      <trkpt lat="42.37355" lon="2.18911">
        <ele>1420.9</ele>
        <time>2024-09-25T14:31:44Z</time>
      </trkpt>
      <trkpt lat="42.37355" lon="2.1891">
        <ele>1420.8</ele>
        <time>2024-09-25T14:31:45Z</time>
      </trkpt>
      <trkpt lat="42.37355" lon="2.1891">
        <ele>1420.8</ele>
        <time>2024-09-25T14:31:46Z</time>
      </trkpt>
      <trkpt lat="42.37355" lon="2.18909">
        <ele>1420.6</ele>
        <time>2024-09-25T14:31:47Z</time>
      </trkpt>
      <trkpt lat="42.37354" lon="2.18908">
        <ele>1420.4</ele>
        <time>2024-09-25T14:31:48Z</time>
      </trkpt>
      <trkpt lat="42.37354" lon="2.18907">
        <ele>1420.3</ele>
        <time>2024-09-25T14:31:49Z</time>
      </trkpt>
      <trkpt lat="42.37353" lon="2.18906">
        <ele>1420.1</ele>
        <time>2024-09-25T14:31:50Z</time>
      </trkpt>
      <trkpt lat="42.37352" lon="2.18905">
        <ele>1420</ele>
        <time>2024-09-25T14:31:51Z</time>
      </trkpt>
      <trkpt lat="42.37352" lon="2.18905">
        <ele>1419.9</ele>
        <time>2024-09-25T14:31:52Z</time>
      </trkpt>
      <trkpt lat="42.37351" lon="2.18905">
        <ele>1419.7</ele>
        <time>2024-09-25T14:31:53Z</time>
      </trkpt>
      <trkpt lat="42.37351" lon="2.18905">
        <ele>1419.7</ele>
        <time>2024-09-25T14:31:54Z</time>
      </trkpt>
      <trkpt lat="42.3735" lon="2.18904">
        <ele>1419.6</ele>
        <time>2024-09-25T14:31:55Z</time>
      </trkpt>
      <trkpt lat="42.3735" lon="2.18904">
        <ele>1419.5</ele>
        <time>2024-09-25T14:31:56Z</time>
      </trkpt>
      <trkpt lat="42.3735" lon="2.18904">
        <ele>1419.5</ele>
        <time>2024-09-25T14:31:57Z</time>
      </trkpt>
      <trkpt lat="42.37349" lon="2.18903">
        <ele>1419.4</ele>
        <time>2024-09-25T14:31:58Z</time>
      </trkpt>
      <trkpt lat="42.37349" lon="2.18902">
        <ele>1419.2</ele>
        <time>2024-09-25T14:31:59Z</time>
      </trkpt>
      <trkpt lat="42.37348" lon="2.18902">
        <ele>1419.1</ele>
        <time>2024-09-25T14:32:00Z</time>
      </trkpt>
      <trkpt lat="42.37348" lon="2.18901">
        <ele>1419.1</ele>
        <time>2024-09-25T14:32:01Z</time>
      </trkpt>
      <trkpt lat="42.37347" lon="2.189">
        <ele>1418.9</ele>
        <time>2024-09-25T14:32:02Z</time>
      </trkpt>
      <trkpt lat="42.37346" lon="2.189">
        <ele>1418.8</ele>
        <time>2024-09-25T14:32:03Z</time>
      </trkpt>
      <trkpt lat="42.37346" lon="2.18898">
        <ele>1418.7</ele>
        <time>2024-09-25T14:32:04Z</time>
      </trkpt>
      <trkpt lat="42.37345" lon="2.18898">
        <ele>1418.5</ele>
        <time>2024-09-25T14:32:05Z</time>
      </trkpt>
      <trkpt lat="42.37345" lon="2.18896">
        <ele>1418.4</ele>
        <time>2024-09-25T14:32:06Z</time>
      </trkpt>
      <trkpt lat="42.37344" lon="2.18895">
        <ele>1418.2</ele>
        <time>2024-09-25T14:32:07Z</time>
      </trkpt>
      <trkpt lat="42.37344" lon="2.18893">
        <ele>1418</ele>
        <time>2024-09-25T14:32:08Z</time>
      </trkpt>
      <trkpt lat="42.37345" lon="2.18891">
        <ele>1417.9</ele>
        <time>2024-09-25T14:32:09Z</time>
      </trkpt>
      <trkpt lat="42.37345" lon="2.18889">
        <ele>1417.7</ele>
        <time>2024-09-25T14:32:10Z</time>
      </trkpt>
      <trkpt lat="42.37345" lon="2.18888">
        <ele>1417.6</ele>
        <time>2024-09-25T14:32:11Z</time>
      </trkpt>
      <trkpt lat="42.37344" lon="2.18887">
        <ele>1417.6</ele>
        <time>2024-09-25T14:32:12Z</time>
      </trkpt>
      <trkpt lat="42.37344" lon="2.18887">
        <ele>1417.5</ele>
        <time>2024-09-25T14:32:13Z</time>
      </trkpt>
      <trkpt lat="42.37344" lon="2.18888">
        <ele>1417.4</ele>
        <time>2024-09-25T14:32:14Z</time>
      </trkpt>
      <trkpt lat="42.37343" lon="2.18888">
        <ele>1417.4</ele>
        <time>2024-09-25T14:32:15Z</time>
      </trkpt>
      <trkpt lat="42.37343" lon="2.18889">
        <ele>1417.3</ele>
        <time>2024-09-25T14:32:16Z</time>
      </trkpt>
      <trkpt lat="42.37343" lon="2.18889">
        <ele>1417.3</ele>
        <time>2024-09-25T14:32:17Z</time>
      </trkpt>
      <trkpt lat="42.37343" lon="2.18889">
        <ele>1417.3</ele>
        <time>2024-09-25T14:32:18Z</time>
      </trkpt>
      <trkpt lat="42.37343" lon="2.18889">
        <ele>1417.3</ele>
        <time>2024-09-25T14:32:19Z</time>
      </trkpt>
      <trkpt lat="42.37343" lon="2.18889">
        <ele>1417.3</ele>
        <time>2024-09-25T14:32:20Z</time>
      </trkpt>
      <trkpt lat="42.37343" lon="2.18889">
        <ele>1417.3</ele>
        <time>2024-09-25T14:32:21Z</time>
      </trkpt>
      <trkpt lat="42.37343" lon="2.18889">
        <ele>1417.3</ele>
        <time>2024-09-25T14:32:22Z</time>
      </trkpt>
      <trkpt lat="42.37342" lon="2.18888">
        <ele>1417.2</ele>
        <time>2024-09-25T14:32:23Z</time>
      </trkpt>
      <trkpt lat="42.37342" lon="2.18888">
        <ele>1417.2</ele>
        <time>2024-09-25T14:32:24Z</time>
      </trkpt>
      <trkpt lat="42.37342" lon="2.18888">
        <ele>1417.2</ele>
        <time>2024-09-25T14:32:25Z</time>
      </trkpt>
      <trkpt lat="42.37342" lon="2.18888">
        <ele>1417.2</ele>
        <time>2024-09-25T14:32:26Z</time>
      </trkpt>
      <trkpt lat="42.37342" lon="2.18888">
        <ele>1417.2</ele>
        <time>2024-09-25T14:32:27Z</time>
      </trkpt>
      <trkpt lat="42.37342" lon="2.18888">
        <ele>1417.2</ele>
        <time>2024-09-25T14:32:28Z</time>
      </trkpt>
      <trkpt lat="42.37342" lon="2.18888">
        <ele>1417.2</ele>
        <time>2024-09-25T14:32:29Z</time>
      </trkpt>
      <trkpt lat="42.37342" lon="2.18888">
        <ele>1417.2</ele>
        <time>2024-09-25T14:32:30Z</time>
      </trkpt>
      <trkpt lat="42.37342" lon="2.18888">
        <ele>1417.2</ele>
        <time>2024-09-25T14:32:31Z</time>
      </trkpt>
      <trkpt lat="42.37342" lon="2.18888">
        <ele>1417.2</ele>
        <time>2024-09-25T14:32:32Z</time>
      </trkpt>
      <trkpt lat="42.37342" lon="2.18888">
        <ele>1417.2</ele>
        <time>2024-09-25T14:32:33Z</time>
      </trkpt>
      <trkpt lat="42.37342" lon="2.18888">
        <ele>1417.1</ele>
        <time>2024-09-25T14:32:34Z</time>
      </trkpt>
      <trkpt lat="42.37342" lon="2.18887">
        <ele>1417.1</ele>
        <time>2024-09-25T14:32:35Z</time>
      </trkpt>
      <trkpt lat="42.37341" lon="2.18887">
        <ele>1417.1</ele>
        <time>2024-09-25T14:32:36Z</time>
      </trkpt>
      <trkpt lat="42.37341" lon="2.18887">
        <ele>1417.1</ele>
        <time>2024-09-25T14:32:38Z</time>
      </trkpt>
      <trkpt lat="42.37341" lon="2.18887">
        <ele>1417.1</ele>
        <time>2024-09-25T14:32:39Z</time>
      </trkpt>
      <trkpt lat="42.37341" lon="2.18887">
        <ele>1417.1</ele>
        <time>2024-09-25T14:32:40Z</time>
      </trkpt>
      <trkpt lat="42.37341" lon="2.18887">
        <ele>1417.1</ele>
        <time>2024-09-25T14:32:41Z</time>
      </trkpt>
      <trkpt lat="42.37341" lon="2.18887">
        <ele>1417.1</ele>
        <time>2024-09-25T14:32:42Z</time>
      </trkpt>
      <trkpt lat="42.37341" lon="2.18887">
        <ele>1417.1</ele>
        <time>2024-09-25T14:32:43Z</time>
      </trkpt>
      <trkpt lat="42.37341" lon="2.18887">
        <ele>1417</ele>
        <time>2024-09-25T14:32:44Z</time>
      </trkpt>
      <trkpt lat="42.37341" lon="2.18887">
        <ele>1417</ele>
        <time>2024-09-25T14:32:45Z</time>
      </trkpt>
      <trkpt lat="42.37341" lon="2.18887">
        <ele>1417</ele>
        <time>2024-09-25T14:32:46Z</time>
      </trkpt>
      <trkpt lat="42.37341" lon="2.18887">
        <ele>1417</ele>
        <time>2024-09-25T14:32:47Z</time>
      </trkpt>
      <trkpt lat="42.37341" lon="2.18887">
        <ele>1417</ele>
        <time>2024-09-25T14:32:48Z</time>
      </trkpt>
      <trkpt lat="42.37341" lon="2.18887">
        <ele>1417</ele>
        <time>2024-09-25T14:32:49Z</time>
      </trkpt>
      <trkpt lat="42.37341" lon="2.18887">
        <ele>1417</ele>
        <time>2024-09-25T14:32:50Z</time>
      </trkpt>
      <trkpt lat="42.37341" lon="2.18887">
        <ele>1417</ele>
        <time>2024-09-25T14:32:51Z</time>
      </trkpt>
      <trkpt lat="42.37341" lon="2.18887">
        <ele>1417</ele>
        <time>2024-09-25T14:32:52Z</time>
      </trkpt>
      <trkpt lat="42.37341" lon="2.18887">
        <ele>1417</ele>
        <time>2024-09-25T14:32:53Z</time>
      </trkpt>
      <trkpt lat="42.37341" lon="2.18887">
        <ele>1417</ele>
        <time>2024-09-25T14:32:54Z</time>
      </trkpt>
      <trkpt lat="42.37341" lon="2.18887">
        <ele>1417</ele>
        <time>2024-09-25T14:32:55Z</time>
      </trkpt>
      <trkpt lat="42.37341" lon="2.18887">
        <ele>1417</ele>
        <time>2024-09-25T14:32:56Z</time>
      </trkpt>
      <trkpt lat="42.37341" lon="2.18887">
        <ele>1417</ele>
        <time>2024-09-25T14:32:57Z</time>
      </trkpt>
      <trkpt lat="42.37341" lon="2.18886">
        <ele>1416.9</ele>
        <time>2024-09-25T14:32:58Z</time>
      </trkpt>
      <trkpt lat="42.37341" lon="2.18886">
        <ele>1416.9</ele>
        <time>2024-09-25T14:32:59Z</time>
      </trkpt>
      <trkpt lat="42.37341" lon="2.18885">
        <ele>1416.9</ele>
        <time>2024-09-25T14:33:00Z</time>
      </trkpt>
      <trkpt lat="42.37341" lon="2.18884">
        <ele>1416.8</ele>
        <time>2024-09-25T14:33:01Z</time>
      </trkpt>
      <trkpt lat="42.3734" lon="2.18883">
        <ele>1416.7</ele>
        <time>2024-09-25T14:33:02Z</time>
      </trkpt>
      <trkpt lat="42.3734" lon="2.18882">
        <ele>1416.7</ele>
        <time>2024-09-25T14:33:03Z</time>
      </trkpt>
      <trkpt lat="42.37339" lon="2.1888">
        <ele>1416.6</ele>
        <time>2024-09-25T14:33:04Z</time>
      </trkpt>
      <trkpt lat="42.37338" lon="2.18879">
        <ele>1416.5</ele>
        <time>2024-09-25T14:33:05Z</time>
      </trkpt>
      <trkpt lat="42.37337" lon="2.18877">
        <ele>1416.4</ele>
        <time>2024-09-25T14:33:06Z</time>
      </trkpt>
      <trkpt lat="42.37337" lon="2.18876">
        <ele>1416.4</ele>
        <time>2024-09-25T14:33:07Z</time>
      </trkpt>
      <trkpt lat="42.37337" lon="2.18875">
        <ele>1416.3</ele>
        <time>2024-09-25T14:33:08Z</time>
      </trkpt>
      <trkpt lat="42.37336" lon="2.18875">
        <ele>1416.3</ele>
        <time>2024-09-25T14:33:09Z</time>
      </trkpt>
      <trkpt lat="42.37336" lon="2.18874">
        <ele>1416.2</ele>
        <time>2024-09-25T14:33:10Z</time>
      </trkpt>
      <trkpt lat="42.37336" lon="2.18873">
        <ele>1416.2</ele>
        <time>2024-09-25T14:33:11Z</time>
      </trkpt>
      <trkpt lat="42.37336" lon="2.18872">
        <ele>1416.2</ele>
        <time>2024-09-25T14:33:12Z</time>
      </trkpt>
      <trkpt lat="42.37336" lon="2.18871">
        <ele>1416.1</ele>
        <time>2024-09-25T14:33:13Z</time>
      </trkpt>
      <trkpt lat="42.37336" lon="2.18871">
        <ele>1416.1</ele>
        <time>2024-09-25T14:33:14Z</time>
      </trkpt>
      <trkpt lat="42.37336" lon="2.18872">
        <ele>1416.1</ele>
        <time>2024-09-25T14:33:15Z</time>
      </trkpt>
      <trkpt lat="42.37335" lon="2.18871">
        <ele>1416</ele>
        <time>2024-09-25T14:33:16Z</time>
      </trkpt>
      <trkpt lat="42.37334" lon="2.1887">
        <ele>1415.9</ele>
        <time>2024-09-25T14:33:17Z</time>
      </trkpt>
      <trkpt lat="42.37333" lon="2.18869">
        <ele>1415.9</ele>
        <time>2024-09-25T14:33:18Z</time>
      </trkpt>
      <trkpt lat="42.37332" lon="2.18868">
        <ele>1415.8</ele>
        <time>2024-09-25T14:33:19Z</time>
      </trkpt>
      <trkpt lat="42.37332" lon="2.18867">
        <ele>1415.7</ele>
        <time>2024-09-25T14:33:20Z</time>
      </trkpt>
      <trkpt lat="42.37332" lon="2.18867">
        <ele>1415.7</ele>
        <time>2024-09-25T14:33:21Z</time>
      </trkpt>
      <trkpt lat="42.37331" lon="2.18866">
        <ele>1415.6</ele>
        <time>2024-09-25T14:33:22Z</time>
      </trkpt>
      <trkpt lat="42.37331" lon="2.18865">
        <ele>1415.6</ele>
        <time>2024-09-25T14:33:23Z</time>
      </trkpt>
      <trkpt lat="42.3733" lon="2.18863">
        <ele>1415.5</ele>
        <time>2024-09-25T14:33:24Z</time>
      </trkpt>
      <trkpt lat="42.3733" lon="2.18862">
        <ele>1415.4</ele>
        <time>2024-09-25T14:33:25Z</time>
      </trkpt>
      <trkpt lat="42.37329" lon="2.18861">
        <ele>1415.3</ele>
        <time>2024-09-25T14:33:26Z</time>
      </trkpt>
      <trkpt lat="42.37329" lon="2.1886">
        <ele>1415.3</ele>
        <time>2024-09-25T14:33:27Z</time>
      </trkpt>
      <trkpt lat="42.37329" lon="2.18861">
        <ele>1415.3</ele>
        <time>2024-09-25T14:33:28Z</time>
      </trkpt>
      <trkpt lat="42.37329" lon="2.18861">
        <ele>1415.3</ele>
        <time>2024-09-25T14:33:29Z</time>
      </trkpt>
      <trkpt lat="42.37329" lon="2.18859">
        <ele>1415.2</ele>
        <time>2024-09-25T14:33:30Z</time>
      </trkpt>
      <trkpt lat="42.37328" lon="2.18858">
        <ele>1415.1</ele>
        <time>2024-09-25T14:33:31Z</time>
      </trkpt>
      <trkpt lat="42.37328" lon="2.18857">
        <ele>1415</ele>
        <time>2024-09-25T14:33:32Z</time>
      </trkpt>
      <trkpt lat="42.37327" lon="2.18856">
        <ele>1414.9</ele>
        <time>2024-09-25T14:33:33Z</time>
      </trkpt>
      <trkpt lat="42.37327" lon="2.18855">
        <ele>1414.8</ele>
        <time>2024-09-25T14:33:34Z</time>
      </trkpt>
      <trkpt lat="42.37326" lon="2.18854">
        <ele>1414.7</ele>
        <time>2024-09-25T14:33:35Z</time>
      </trkpt>
      <trkpt lat="42.37326" lon="2.18853">
        <ele>1414.7</ele>
        <time>2024-09-25T14:33:36Z</time>
      </trkpt>
      <trkpt lat="42.37326" lon="2.18853">
        <ele>1414.6</ele>
        <time>2024-09-25T14:33:37Z</time>
      </trkpt>
      <trkpt lat="42.37325" lon="2.18852">
        <ele>1414.6</ele>
        <time>2024-09-25T14:33:38Z</time>
      </trkpt>
      <trkpt lat="42.37325" lon="2.18851">
        <ele>1414.5</ele>
        <time>2024-09-25T14:33:39Z</time>
      </trkpt>
      <trkpt lat="42.37324" lon="2.18851">
        <ele>1414.4</ele>
        <time>2024-09-25T14:33:40Z</time>
      </trkpt>
      <trkpt lat="42.37323" lon="2.1885">
        <ele>1414.3</ele>
        <time>2024-09-25T14:33:41Z</time>
      </trkpt>
      <trkpt lat="42.37323" lon="2.1885">
        <ele>1414.2</ele>
        <time>2024-09-25T14:33:42Z</time>
      </trkpt>
      <trkpt lat="42.37322" lon="2.18848">
        <ele>1414.1</ele>
        <time>2024-09-25T14:33:43Z</time>
      </trkpt>
      <trkpt lat="42.37321" lon="2.18847">
        <ele>1414</ele>
        <time>2024-09-25T14:33:44Z</time>
      </trkpt>
      <trkpt lat="42.37321" lon="2.18846">
        <ele>1413.9</ele>
        <time>2024-09-25T14:33:45Z</time>
      </trkpt>
      <trkpt lat="42.3732" lon="2.18846">
        <ele>1413.8</ele>
        <time>2024-09-25T14:33:46Z</time>
      </trkpt>
      <trkpt lat="42.3732" lon="2.18845">
        <ele>1413.7</ele>
        <time>2024-09-25T14:33:47Z</time>
      </trkpt>
      <trkpt lat="42.3732" lon="2.18844">
        <ele>1413.6</ele>
        <time>2024-09-25T14:33:48Z</time>
      </trkpt>
      <trkpt lat="42.3732" lon="2.18842">
        <ele>1413.5</ele>
        <time>2024-09-25T14:33:49Z</time>
      </trkpt>
      <trkpt lat="42.3732" lon="2.18842">
        <ele>1413.4</ele>
        <time>2024-09-25T14:33:50Z</time>
      </trkpt>
      <trkpt lat="42.3732" lon="2.18842">
        <ele>1413.4</ele>
        <time>2024-09-25T14:33:51Z</time>
      </trkpt>
      <trkpt lat="42.3732" lon="2.18842">
        <ele>1413.4</ele>
        <time>2024-09-25T14:33:52Z</time>
      </trkpt>
      <trkpt lat="42.3732" lon="2.1884">
        <ele>1413.3</ele>
        <time>2024-09-25T14:33:53Z</time>
      </trkpt>
      <trkpt lat="42.3732" lon="2.1884">
        <ele>1413.2</ele>
        <time>2024-09-25T14:33:54Z</time>
      </trkpt>
      <trkpt lat="42.3732" lon="2.18838">
        <ele>1413.1</ele>
        <time>2024-09-25T14:33:55Z</time>
      </trkpt>
      <trkpt lat="42.3732" lon="2.18837">
        <ele>1413</ele>
        <time>2024-09-25T14:33:56Z</time>
      </trkpt>
      <trkpt lat="42.3732" lon="2.18836">
        <ele>1412.9</ele>
        <time>2024-09-25T14:33:57Z</time>
      </trkpt>
      <trkpt lat="42.37319" lon="2.18835">
        <ele>1412.8</ele>
        <time>2024-09-25T14:33:58Z</time>
      </trkpt>
      <trkpt lat="42.37319" lon="2.18834">
        <ele>1412.6</ele>
        <time>2024-09-25T14:33:59Z</time>
      </trkpt>
      <trkpt lat="42.37319" lon="2.18833">
        <ele>1412.5</ele>
        <time>2024-09-25T14:34:00Z</time>
      </trkpt>
      <trkpt lat="42.37318" lon="2.18831">
        <ele>1412.4</ele>
        <time>2024-09-25T14:34:01Z</time>
      </trkpt>
      <trkpt lat="42.37318" lon="2.1883">
        <ele>1412.3</ele>
        <time>2024-09-25T14:34:02Z</time>
      </trkpt>
      <trkpt lat="42.37318" lon="2.18828">
        <ele>1412.1</ele>
        <time>2024-09-25T14:34:03Z</time>
      </trkpt>
      <trkpt lat="42.37318" lon="2.18826">
        <ele>1411.9</ele>
        <time>2024-09-25T14:34:04Z</time>
      </trkpt>
      <trkpt lat="42.37318" lon="2.18825">
        <ele>1411.8</ele>
        <time>2024-09-25T14:34:05Z</time>
      </trkpt>
      <trkpt lat="42.37318" lon="2.18823">
        <ele>1411.7</ele>
        <time>2024-09-25T14:34:06Z</time>
      </trkpt>
      <trkpt lat="42.37317" lon="2.18822">
        <ele>1411.6</ele>
        <time>2024-09-25T14:34:07Z</time>
      </trkpt>
      <trkpt lat="42.37317" lon="2.18821">
        <ele>1411.5</ele>
        <time>2024-09-25T14:34:08Z</time>
      </trkpt>
      <trkpt lat="42.37317" lon="2.1882">
        <ele>1411.4</ele>
        <time>2024-09-25T14:34:09Z</time>
      </trkpt>
      <trkpt lat="42.37317" lon="2.18819">
        <ele>1411.3</ele>
        <time>2024-09-25T14:34:10Z</time>
      </trkpt>
      <trkpt lat="42.37316" lon="2.18819">
        <ele>1411.2</ele>
        <time>2024-09-25T14:34:11Z</time>
      </trkpt>
      <trkpt lat="42.37316" lon="2.18818">
        <ele>1411.1</ele>
        <time>2024-09-25T14:34:12Z</time>
      </trkpt>
      <trkpt lat="42.37316" lon="2.18817">
        <ele>1411.1</ele>
        <time>2024-09-25T14:34:13Z</time>
      </trkpt>
      <trkpt lat="42.37316" lon="2.18817">
        <ele>1411</ele>
        <time>2024-09-25T14:34:14Z</time>
      </trkpt>
      <trkpt lat="42.37316" lon="2.18817">
        <ele>1411</ele>
        <time>2024-09-25T14:34:15Z</time>
      </trkpt>
      <trkpt lat="42.37316" lon="2.18817">
        <ele>1411</ele>
        <time>2024-09-25T14:34:16Z</time>
      </trkpt>
      <trkpt lat="42.37316" lon="2.18816">
        <ele>1410.9</ele>
        <time>2024-09-25T14:34:17Z</time>
      </trkpt>
      <trkpt lat="42.37315" lon="2.18815">
        <ele>1410.8</ele>
        <time>2024-09-25T14:34:18Z</time>
      </trkpt>
      <trkpt lat="42.37315" lon="2.18815">
        <ele>1410.7</ele>
        <time>2024-09-25T14:34:19Z</time>
      </trkpt>
      <trkpt lat="42.37315" lon="2.18814">
        <ele>1410.6</ele>
        <time>2024-09-25T14:34:20Z</time>
      </trkpt>
      <trkpt lat="42.37314" lon="2.18814">
        <ele>1410.6</ele>
        <time>2024-09-25T14:34:21Z</time>
      </trkpt>
      <trkpt lat="42.37314" lon="2.18813">
        <ele>1410.5</ele>
        <time>2024-09-25T14:34:22Z</time>
      </trkpt>
      <trkpt lat="42.37314" lon="2.18812">
        <ele>1410.4</ele>
        <time>2024-09-25T14:34:23Z</time>
      </trkpt>
      <trkpt lat="42.37313" lon="2.18811">
        <ele>1410.3</ele>
        <time>2024-09-25T14:34:24Z</time>
      </trkpt>
      <trkpt lat="42.37313" lon="2.18811">
        <ele>1410.3</ele>
        <time>2024-09-25T14:34:25Z</time>
      </trkpt>
      <trkpt lat="42.37312" lon="2.18809">
        <ele>1410.1</ele>
        <time>2024-09-25T14:34:26Z</time>
      </trkpt>
      <trkpt lat="42.37311" lon="2.18807">
        <ele>1409.9</ele>
        <time>2024-09-25T14:34:27Z</time>
      </trkpt>
      <trkpt lat="42.37311" lon="2.18806">
        <ele>1409.8</ele>
        <time>2024-09-25T14:34:28Z</time>
      </trkpt>
      <trkpt lat="42.37311" lon="2.18805">
        <ele>1409.7</ele>
        <time>2024-09-25T14:34:29Z</time>
      </trkpt>
      <trkpt lat="42.37311" lon="2.18804">
        <ele>1409.6</ele>
        <time>2024-09-25T14:34:30Z</time>
      </trkpt>
      <trkpt lat="42.3731" lon="2.18803">
        <ele>1409.6</ele>
        <time>2024-09-25T14:34:31Z</time>
      </trkpt>
      <trkpt lat="42.3731" lon="2.18802">
        <ele>1409.5</ele>
        <time>2024-09-25T14:34:32Z</time>
      </trkpt>
      <trkpt lat="42.37309" lon="2.18801">
        <ele>1409.4</ele>
        <time>2024-09-25T14:34:33Z</time>
      </trkpt>
      <trkpt lat="42.37309" lon="2.188">
        <ele>1409.3</ele>
        <time>2024-09-25T14:34:34Z</time>
      </trkpt>
      <trkpt lat="42.37308" lon="2.18799">
        <ele>1409.2</ele>
        <time>2024-09-25T14:34:35Z</time>
      </trkpt>
      <trkpt lat="42.37308" lon="2.18798">
        <ele>1409.2</ele>
        <time>2024-09-25T14:34:36Z</time>
      </trkpt>
      <trkpt lat="42.37308" lon="2.18797">
        <ele>1409.1</ele>
        <time>2024-09-25T14:34:37Z</time>
      </trkpt>
      <trkpt lat="42.37308" lon="2.18797">
        <ele>1409.1</ele>
        <time>2024-09-25T14:34:38Z</time>
      </trkpt>
      <trkpt lat="42.37308" lon="2.18796">
        <ele>1409</ele>
        <time>2024-09-25T14:34:39Z</time>
      </trkpt>
      <trkpt lat="42.37308" lon="2.18795">
        <ele>1408.9</ele>
        <time>2024-09-25T14:34:40Z</time>
      </trkpt>
      <trkpt lat="42.37307" lon="2.18794">
        <ele>1408.9</ele>
        <time>2024-09-25T14:34:41Z</time>
      </trkpt>
      <trkpt lat="42.37307" lon="2.18793">
        <ele>1408.8</ele>
        <time>2024-09-25T14:34:42Z</time>
      </trkpt>
      <trkpt lat="42.37307" lon="2.18792">
        <ele>1408.8</ele>
        <time>2024-09-25T14:34:43Z</time>
      </trkpt>
      <trkpt lat="42.37307" lon="2.18791">
        <ele>1408.7</ele>
        <time>2024-09-25T14:34:44Z</time>
      </trkpt>
      <trkpt lat="42.37307" lon="2.1879">
        <ele>1408.7</ele>
        <time>2024-09-25T14:34:45Z</time>
      </trkpt>
      <trkpt lat="42.37306" lon="2.1879">
        <ele>1408.6</ele>
        <time>2024-09-25T14:34:46Z</time>
      </trkpt>
      <trkpt lat="42.37306" lon="2.18791">
        <ele>1408.6</ele>
        <time>2024-09-25T14:34:47Z</time>
      </trkpt>
      <trkpt lat="42.37306" lon="2.18791">
        <ele>1408.6</ele>
        <time>2024-09-25T14:34:48Z</time>
      </trkpt>
      <trkpt lat="42.37306" lon="2.18792">
        <ele>1408.5</ele>
        <time>2024-09-25T14:34:49Z</time>
      </trkpt>
      <trkpt lat="42.37305" lon="2.18791">
        <ele>1408.5</ele>
        <time>2024-09-25T14:34:50Z</time>
      </trkpt>
      <trkpt lat="42.37305" lon="2.18791">
        <ele>1408.5</ele>
        <time>2024-09-25T14:34:51Z</time>
      </trkpt>
      <trkpt lat="42.37305" lon="2.1879">
        <ele>1408.5</ele>
        <time>2024-09-25T14:34:52Z</time>
      </trkpt>
      <trkpt lat="42.37305" lon="2.18789">
        <ele>1408.4</ele>
        <time>2024-09-25T14:34:53Z</time>
      </trkpt>
      <trkpt lat="42.37305" lon="2.18788">
        <ele>1408.4</ele>
        <time>2024-09-25T14:34:54Z</time>
      </trkpt>
      <trkpt lat="42.37304" lon="2.18788">
        <ele>1408.4</ele>
        <time>2024-09-25T14:34:55Z</time>
      </trkpt>
      <trkpt lat="42.37304" lon="2.18788">
        <ele>1408.4</ele>
        <time>2024-09-25T14:34:56Z</time>
      </trkpt>
      <trkpt lat="42.37304" lon="2.18787">
        <ele>1408.4</ele>
        <time>2024-09-25T14:34:57Z</time>
      </trkpt>
      <trkpt lat="42.37304" lon="2.18787">
        <ele>1408.3</ele>
        <time>2024-09-25T14:34:58Z</time>
      </trkpt>
      <trkpt lat="42.37304" lon="2.18786">
        <ele>1408.3</ele>
        <time>2024-09-25T14:34:59Z</time>
      </trkpt>
      <trkpt lat="42.37304" lon="2.18786">
        <ele>1408.3</ele>
        <time>2024-09-25T14:35:00Z</time>
      </trkpt>
      <trkpt lat="42.37303" lon="2.18785">
        <ele>1408.3</ele>
        <time>2024-09-25T14:35:01Z</time>
      </trkpt>
      <trkpt lat="42.37303" lon="2.18784">
        <ele>1408.2</ele>
        <time>2024-09-25T14:35:02Z</time>
      </trkpt>
      <trkpt lat="42.37302" lon="2.18783">
        <ele>1408.2</ele>
        <time>2024-09-25T14:35:03Z</time>
      </trkpt>
      <trkpt lat="42.37301" lon="2.18782">
        <ele>1408.2</ele>
        <time>2024-09-25T14:35:04Z</time>
      </trkpt>
      <trkpt lat="42.373" lon="2.18781">
        <ele>1408.1</ele>
        <time>2024-09-25T14:35:05Z</time>
      </trkpt>
      <trkpt lat="42.373" lon="2.18779">
        <ele>1408.1</ele>
        <time>2024-09-25T14:35:06Z</time>
      </trkpt>
      <trkpt lat="42.373" lon="2.18778">
        <ele>1408.1</ele>
        <time>2024-09-25T14:35:07Z</time>
      </trkpt>
      <trkpt lat="42.37299" lon="2.18777">
        <ele>1408.1</ele>
        <time>2024-09-25T14:35:08Z</time>
      </trkpt>
      <trkpt lat="42.37298" lon="2.18777">
        <ele>1408.1</ele>
        <time>2024-09-25T14:35:09Z</time>
      </trkpt>
      <trkpt lat="42.37299" lon="2.18776">
        <ele>1408.1</ele>
        <time>2024-09-25T14:35:10Z</time>
      </trkpt>
      <trkpt lat="42.37299" lon="2.18776">
        <ele>1408.1</ele>
        <time>2024-09-25T14:35:11Z</time>
      </trkpt>
      <trkpt lat="42.373" lon="2.18776">
        <ele>1408.1</ele>
        <time>2024-09-25T14:35:12Z</time>
      </trkpt>
      <trkpt lat="42.373" lon="2.18775">
        <ele>1408.1</ele>
        <time>2024-09-25T14:35:13Z</time>
      </trkpt>
      <trkpt lat="42.373" lon="2.18774">
        <ele>1408.1</ele>
        <time>2024-09-25T14:35:14Z</time>
      </trkpt>
      <trkpt lat="42.373" lon="2.18773">
        <ele>1408.1</ele>
        <time>2024-09-25T14:35:15Z</time>
      </trkpt>
      <trkpt lat="42.373" lon="2.18772">
        <ele>1408.1</ele>
        <time>2024-09-25T14:35:16Z</time>
      </trkpt>
      <trkpt lat="42.37299" lon="2.18771">
        <ele>1408.2</ele>
        <time>2024-09-25T14:35:17Z</time>
      </trkpt>
      <trkpt lat="42.37298" lon="2.1877">
        <ele>1408.2</ele>
        <time>2024-09-25T14:35:18Z</time>
      </trkpt>
      <trkpt lat="42.37298" lon="2.18769">
        <ele>1408.2</ele>
        <time>2024-09-25T14:35:19Z</time>
      </trkpt>
      <trkpt lat="42.37297" lon="2.18768">
        <ele>1408.2</ele>
        <time>2024-09-25T14:35:20Z</time>
      </trkpt>
      <trkpt lat="42.37297" lon="2.18767">
        <ele>1408.2</ele>
        <time>2024-09-25T14:35:21Z</time>
      </trkpt>
      <trkpt lat="42.37297" lon="2.18766">
        <ele>1408.2</ele>
        <time>2024-09-25T14:35:22Z</time>
      </trkpt>
      <trkpt lat="42.37297" lon="2.18765">
        <ele>1408.2</ele>
        <time>2024-09-25T14:35:23Z</time>
      </trkpt>
      <trkpt lat="42.37297" lon="2.18764">
        <ele>1408.2</ele>
        <time>2024-09-25T14:35:24Z</time>
      </trkpt>
      <trkpt lat="42.37297" lon="2.18763">
        <ele>1408.2</ele>
        <time>2024-09-25T14:35:25Z</time>
      </trkpt>
      <trkpt lat="42.37297" lon="2.18762">
        <ele>1408.2</ele>
        <time>2024-09-25T14:35:26Z</time>
      </trkpt>
      <trkpt lat="42.37297" lon="2.18762">
        <ele>1408.2</ele>
        <time>2024-09-25T14:35:27Z</time>
      </trkpt>
      <trkpt lat="42.37297" lon="2.18761">
        <ele>1408.2</ele>
        <time>2024-09-25T14:35:28Z</time>
      </trkpt>
      <trkpt lat="42.37297" lon="2.1876">
        <ele>1408.2</ele>
        <time>2024-09-25T14:35:29Z</time>
      </trkpt>
      <trkpt lat="42.37297" lon="2.18759">
        <ele>1408.2</ele>
        <time>2024-09-25T14:35:30Z</time>
      </trkpt>
      <trkpt lat="42.37296" lon="2.18758">
        <ele>1408.2</ele>
        <time>2024-09-25T14:35:31Z</time>
      </trkpt>
      <trkpt lat="42.37296" lon="2.18757">
        <ele>1408.2</ele>
        <time>2024-09-25T14:35:32Z</time>
      </trkpt>
      <trkpt lat="42.37295" lon="2.18757">
        <ele>1408.1</ele>
        <time>2024-09-25T14:35:33Z</time>
      </trkpt>
      <trkpt lat="42.37294" lon="2.18757">
        <ele>1408.1</ele>
        <time>2024-09-25T14:35:34Z</time>
      </trkpt>
      <trkpt lat="42.37293" lon="2.18756">
        <ele>1408.1</ele>
        <time>2024-09-25T14:35:35Z</time>
      </trkpt>
      <trkpt lat="42.37292" lon="2.18756">
        <ele>1408</ele>
        <time>2024-09-25T14:35:36Z</time>
      </trkpt>
      <trkpt lat="42.37291" lon="2.18756">
        <ele>1408</ele>
        <time>2024-09-25T14:35:37Z</time>
      </trkpt>
      <trkpt lat="42.3729" lon="2.18755">
        <ele>1407.9</ele>
        <time>2024-09-25T14:35:38Z</time>
      </trkpt>
      <trkpt lat="42.37289" lon="2.18755">
        <ele>1407.8</ele>
        <time>2024-09-25T14:35:39Z</time>
      </trkpt>
      <trkpt lat="42.37288" lon="2.18754">
        <ele>1407.8</ele>
        <time>2024-09-25T14:35:40Z</time>
      </trkpt>
      <trkpt lat="42.37288" lon="2.18753">
        <ele>1407.7</ele>
        <time>2024-09-25T14:35:41Z</time>
      </trkpt>
      <trkpt lat="42.37287" lon="2.18751">
        <ele>1407.6</ele>
        <time>2024-09-25T14:35:42Z</time>
      </trkpt>
      <trkpt lat="42.37287" lon="2.1875">
        <ele>1407.5</ele>
        <time>2024-09-25T14:35:43Z</time>
      </trkpt>
      <trkpt lat="42.37287" lon="2.1875">
        <ele>1407.5</ele>
        <time>2024-09-25T14:35:44Z</time>
      </trkpt>
      <trkpt lat="42.37287" lon="2.18749">
        <ele>1407.4</ele>
        <time>2024-09-25T14:35:45Z</time>
      </trkpt>
      <trkpt lat="42.37287" lon="2.18748">
        <ele>1407.4</ele>
        <time>2024-09-25T14:35:46Z</time>
      </trkpt>
      <trkpt lat="42.37287" lon="2.18748">
        <ele>1407.4</ele>
        <time>2024-09-25T14:35:47Z</time>
      </trkpt>
      <trkpt lat="42.37286" lon="2.18747">
        <ele>1407.3</ele>
        <time>2024-09-25T14:35:48Z</time>
      </trkpt>
      <trkpt lat="42.37286" lon="2.18745">
        <ele>1407.1</ele>
        <time>2024-09-25T14:35:49Z</time>
      </trkpt>
      <trkpt lat="42.37285" lon="2.18744">
        <ele>1407</ele>
        <time>2024-09-25T14:35:50Z</time>
      </trkpt>
      <trkpt lat="42.37285" lon="2.18743">
        <ele>1406.9</ele>
        <time>2024-09-25T14:35:51Z</time>
      </trkpt>
      <trkpt lat="42.37284" lon="2.18742">
        <ele>1406.8</ele>
        <time>2024-09-25T14:35:52Z</time>
      </trkpt>
      <trkpt lat="42.37284" lon="2.18741">
        <ele>1406.7</ele>
        <time>2024-09-25T14:35:53Z</time>
      </trkpt>
      <trkpt lat="42.37284" lon="2.18741">
        <ele>1406.7</ele>
        <time>2024-09-25T14:35:54Z</time>
      </trkpt>
      <trkpt lat="42.37284" lon="2.18742">
        <ele>1406.6</ele>
        <time>2024-09-25T14:35:55Z</time>
      </trkpt>
      <trkpt lat="42.37283" lon="2.18742">
        <ele>1406.5</ele>
        <time>2024-09-25T14:35:56Z</time>
      </trkpt>
      <trkpt lat="42.37282" lon="2.18741">
        <ele>1406.4</ele>
        <time>2024-09-25T14:35:57Z</time>
      </trkpt>
      <trkpt lat="42.37281" lon="2.18739">
        <ele>1406.3</ele>
        <time>2024-09-25T14:35:58Z</time>
      </trkpt>
      <trkpt lat="42.37281" lon="2.18738">
        <ele>1406.2</ele>
        <time>2024-09-25T14:35:59Z</time>
      </trkpt>
      <trkpt lat="42.37282" lon="2.18738">
        <ele>1406.2</ele>
        <time>2024-09-25T14:36:00Z</time>
      </trkpt>
      <trkpt lat="42.37282" lon="2.18738">
        <ele>1406.2</ele>
        <time>2024-09-25T14:36:01Z</time>
      </trkpt>
      <trkpt lat="42.37282" lon="2.18738">
        <ele>1406.2</ele>
        <time>2024-09-25T14:36:02Z</time>
      </trkpt>
      <trkpt lat="42.37282" lon="2.18738">
        <ele>1406.1</ele>
        <time>2024-09-25T14:36:03Z</time>
      </trkpt>
      <trkpt lat="42.37282" lon="2.18738">
        <ele>1406.1</ele>
        <time>2024-09-25T14:36:04Z</time>
      </trkpt>
      <trkpt lat="42.37282" lon="2.18738">
        <ele>1406.1</ele>
        <time>2024-09-25T14:36:05Z</time>
      </trkpt>
      <trkpt lat="42.37282" lon="2.18738">
        <ele>1406.1</ele>
        <time>2024-09-25T14:36:06Z</time>
      </trkpt>
      <trkpt lat="42.37282" lon="2.18738">
        <ele>1406.1</ele>
        <time>2024-09-25T14:36:07Z</time>
      </trkpt>
      <trkpt lat="42.37282" lon="2.18738">
        <ele>1406.1</ele>
        <time>2024-09-25T14:36:08Z</time>
      </trkpt>
      <trkpt lat="42.37282" lon="2.18738">
        <ele>1406.1</ele>
        <time>2024-09-25T14:36:09Z</time>
      </trkpt>
      <trkpt lat="42.37282" lon="2.18738">
        <ele>1406.1</ele>
        <time>2024-09-25T14:36:10Z</time>
      </trkpt>
      <trkpt lat="42.37282" lon="2.18738">
        <ele>1406.1</ele>
        <time>2024-09-25T14:36:11Z</time>
      </trkpt>
      <trkpt lat="42.37282" lon="2.18738">
        <ele>1406.1</ele>
        <time>2024-09-25T14:36:12Z</time>
      </trkpt>
      <trkpt lat="42.37282" lon="2.18738">
        <ele>1406.1</ele>
        <time>2024-09-25T14:36:13Z</time>
      </trkpt>
      <trkpt lat="42.37282" lon="2.18737">
        <ele>1406</ele>
        <time>2024-09-25T14:36:14Z</time>
      </trkpt>
      <trkpt lat="42.37282" lon="2.18737">
        <ele>1406</ele>
        <time>2024-09-25T14:36:15Z</time>
      </trkpt>
      <trkpt lat="42.37281" lon="2.18737">
        <ele>1405.9</ele>
        <time>2024-09-25T14:36:16Z</time>
      </trkpt>
      <trkpt lat="42.3728" lon="2.18736">
        <ele>1405.8</ele>
        <time>2024-09-25T14:36:17Z</time>
      </trkpt>
      <trkpt lat="42.37279" lon="2.18735">
        <ele>1405.7</ele>
        <time>2024-09-25T14:36:18Z</time>
      </trkpt>
      <trkpt lat="42.37279" lon="2.18734">
        <ele>1405.6</ele>
        <time>2024-09-25T14:36:19Z</time>
      </trkpt>
      <trkpt lat="42.37278" lon="2.18733">
        <ele>1405.5</ele>
        <time>2024-09-25T14:36:20Z</time>
      </trkpt>
      <trkpt lat="42.37278" lon="2.18732">
        <ele>1405.5</ele>
        <time>2024-09-25T14:36:21Z</time>
      </trkpt>
      <trkpt lat="42.37278" lon="2.18732">
        <ele>1405.5</ele>
        <time>2024-09-25T14:36:22Z</time>
      </trkpt>
      <trkpt lat="42.37278" lon="2.18732">
        <ele>1405.4</ele>
        <time>2024-09-25T14:36:23Z</time>
      </trkpt>
      <trkpt lat="42.37278" lon="2.18731">
        <ele>1405.3</ele>
        <time>2024-09-25T14:36:24Z</time>
      </trkpt>
      <trkpt lat="42.37278" lon="2.1873">
        <ele>1405.3</ele>
        <time>2024-09-25T14:36:25Z</time>
      </trkpt>
      <trkpt lat="42.37277" lon="2.18729">
        <ele>1405.2</ele>
        <time>2024-09-25T14:36:26Z</time>
      </trkpt>
      <trkpt lat="42.37277" lon="2.18727">
        <ele>1405</ele>
        <time>2024-09-25T14:36:27Z</time>
      </trkpt>
      <trkpt lat="42.37277" lon="2.18726">
        <ele>1404.9</ele>
        <time>2024-09-25T14:36:28Z</time>
      </trkpt>
      <trkpt lat="42.37276" lon="2.18724">
        <ele>1404.8</ele>
        <time>2024-09-25T14:36:29Z</time>
      </trkpt>
      <trkpt lat="42.37276" lon="2.18724">
        <ele>1404.7</ele>
        <time>2024-09-25T14:36:30Z</time>
      </trkpt>
      <trkpt lat="42.37276" lon="2.18723">
        <ele>1404.7</ele>
        <time>2024-09-25T14:36:31Z</time>
      </trkpt>
      <trkpt lat="42.37275" lon="2.18723">
        <ele>1404.6</ele>
        <time>2024-09-25T14:36:32Z</time>
      </trkpt>
      <trkpt lat="42.37274" lon="2.18722">
        <ele>1404.5</ele>
        <time>2024-09-25T14:36:33Z</time>
      </trkpt>
      <trkpt lat="42.37274" lon="2.18721">
        <ele>1404.3</ele>
        <time>2024-09-25T14:36:34Z</time>
      </trkpt>
      <trkpt lat="42.37273" lon="2.1872">
        <ele>1404.3</ele>
        <time>2024-09-25T14:36:35Z</time>
      </trkpt>
      <trkpt lat="42.37273" lon="2.18719">
        <ele>1404.2</ele>
        <time>2024-09-25T14:36:36Z</time>
      </trkpt>
      <trkpt lat="42.37273" lon="2.18718">
        <ele>1404.1</ele>
        <time>2024-09-25T14:36:37Z</time>
      </trkpt>
      <trkpt lat="42.37272" lon="2.18716">
        <ele>1403.9</ele>
        <time>2024-09-25T14:36:38Z</time>
      </trkpt>
      <trkpt lat="42.37272" lon="2.18715">
        <ele>1403.9</ele>
        <time>2024-09-25T14:36:39Z</time>
      </trkpt>
      <trkpt lat="42.37272" lon="2.18715">
        <ele>1403.8</ele>
        <time>2024-09-25T14:36:40Z</time>
      </trkpt>
      <trkpt lat="42.37271" lon="2.18714">
        <ele>1403.7</ele>
        <time>2024-09-25T14:36:41Z</time>
      </trkpt>
      <trkpt lat="42.37271" lon="2.18713">
        <ele>1403.6</ele>
        <time>2024-09-25T14:36:42Z</time>
      </trkpt>
      <trkpt lat="42.3727" lon="2.18713">
        <ele>1403.5</ele>
        <time>2024-09-25T14:36:43Z</time>
      </trkpt>
      <trkpt lat="42.3727" lon="2.18712">
        <ele>1403.4</ele>
        <time>2024-09-25T14:36:44Z</time>
      </trkpt>
      <trkpt lat="42.37269" lon="2.18712">
        <ele>1403.4</ele>
        <time>2024-09-25T14:36:45Z</time>
      </trkpt>
      <trkpt lat="42.37269" lon="2.18711">
        <ele>1403.3</ele>
        <time>2024-09-25T14:36:46Z</time>
      </trkpt>
      <trkpt lat="42.37269" lon="2.18711">
        <ele>1403.3</ele>
        <time>2024-09-25T14:36:47Z</time>
      </trkpt>
      <trkpt lat="42.37269" lon="2.18711">
        <ele>1403.3</ele>
        <time>2024-09-25T14:36:48Z</time>
      </trkpt>
      <trkpt lat="42.37269" lon="2.1871">
        <ele>1403.2</ele>
        <time>2024-09-25T14:36:49Z</time>
      </trkpt>
      <trkpt lat="42.37269" lon="2.18709">
        <ele>1403.1</ele>
        <time>2024-09-25T14:36:50Z</time>
      </trkpt>
      <trkpt lat="42.37269" lon="2.18709">
        <ele>1403.1</ele>
        <time>2024-09-25T14:36:51Z</time>
      </trkpt>
      <trkpt lat="42.37269" lon="2.18708">
        <ele>1403</ele>
        <time>2024-09-25T14:36:52Z</time>
      </trkpt>
      <trkpt lat="42.37269" lon="2.18707">
        <ele>1402.9</ele>
        <time>2024-09-25T14:36:53Z</time>
      </trkpt>
      <trkpt lat="42.37269" lon="2.18706">
        <ele>1402.8</ele>
        <time>2024-09-25T14:36:54Z</time>
      </trkpt>
      <trkpt lat="42.37269" lon="2.18705">
        <ele>1402.7</ele>
        <time>2024-09-25T14:36:55Z</time>
      </trkpt>
      <trkpt lat="42.37269" lon="2.18704">
        <ele>1402.6</ele>
        <time>2024-09-25T14:36:56Z</time>
      </trkpt>
      <trkpt lat="42.37269" lon="2.18703">
        <ele>1402.6</ele>
        <time>2024-09-25T14:36:57Z</time>
      </trkpt>
      <trkpt lat="42.37269" lon="2.18702">
        <ele>1402.5</ele>
        <time>2024-09-25T14:36:58Z</time>
      </trkpt>
      <trkpt lat="42.37268" lon="2.18701">
        <ele>1402.4</ele>
        <time>2024-09-25T14:36:59Z</time>
      </trkpt>
      <trkpt lat="42.37268" lon="2.18701">
        <ele>1402.4</ele>
        <time>2024-09-25T14:37:00Z</time>
      </trkpt>
      <trkpt lat="42.37268" lon="2.187">
        <ele>1402.3</ele>
        <time>2024-09-25T14:37:01Z</time>
      </trkpt>
      <trkpt lat="42.37268" lon="2.18699">
        <ele>1402.2</ele>
        <time>2024-09-25T14:37:02Z</time>
      </trkpt>
      <trkpt lat="42.37268" lon="2.18698">
        <ele>1402.1</ele>
        <time>2024-09-25T14:37:03Z</time>
      </trkpt>
      <trkpt lat="42.37268" lon="2.18697">
        <ele>1402.1</ele>
        <time>2024-09-25T14:37:04Z</time>
      </trkpt>
      <trkpt lat="42.37267" lon="2.18696">
        <ele>1402</ele>
        <time>2024-09-25T14:37:05Z</time>
      </trkpt>
      <trkpt lat="42.37267" lon="2.18695">
        <ele>1401.9</ele>
        <time>2024-09-25T14:37:06Z</time>
      </trkpt>
      <trkpt lat="42.37266" lon="2.18694">
        <ele>1401.8</ele>
        <time>2024-09-25T14:37:07Z</time>
      </trkpt>
      <trkpt lat="42.37266" lon="2.18692">
        <ele>1401.7</ele>
        <time>2024-09-25T14:37:08Z</time>
      </trkpt>
      <trkpt lat="42.37266" lon="2.18691">
        <ele>1401.6</ele>
        <time>2024-09-25T14:37:09Z</time>
      </trkpt>
      <trkpt lat="42.37265" lon="2.1869">
        <ele>1401.5</ele>
        <time>2024-09-25T14:37:10Z</time>
      </trkpt>
      <trkpt lat="42.37265" lon="2.18689">
        <ele>1401.4</ele>
        <time>2024-09-25T14:37:11Z</time>
      </trkpt>
      <trkpt lat="42.37264" lon="2.18688">
        <ele>1401.3</ele>
        <time>2024-09-25T14:37:12Z</time>
      </trkpt>
      <trkpt lat="42.37264" lon="2.18687">
        <ele>1401.3</ele>
        <time>2024-09-25T14:37:13Z</time>
      </trkpt>
      <trkpt lat="42.37264" lon="2.18686">
        <ele>1401.2</ele>
        <time>2024-09-25T14:37:14Z</time>
      </trkpt>
      <trkpt lat="42.37264" lon="2.18686">
        <ele>1401.2</ele>
        <time>2024-09-25T14:37:15Z</time>
      </trkpt>
      <trkpt lat="42.37264" lon="2.18686">
        <ele>1401.2</ele>
        <time>2024-09-25T14:37:16Z</time>
      </trkpt>
      <trkpt lat="42.37263" lon="2.18686">
        <ele>1401.2</ele>
        <time>2024-09-25T14:37:17Z</time>
      </trkpt>
      <trkpt lat="42.37263" lon="2.18686">
        <ele>1401.1</ele>
        <time>2024-09-25T14:37:18Z</time>
      </trkpt>
      <trkpt lat="42.37263" lon="2.18686">
        <ele>1401.1</ele>
        <time>2024-09-25T14:37:19Z</time>
      </trkpt>
      <trkpt lat="42.37263" lon="2.18686">
        <ele>1401.1</ele>
        <time>2024-09-25T14:37:20Z</time>
      </trkpt>
      <trkpt lat="42.37263" lon="2.18686">
        <ele>1401.1</ele>
        <time>2024-09-25T14:37:21Z</time>
      </trkpt>
      <trkpt lat="42.37263" lon="2.18686">
        <ele>1401.1</ele>
        <time>2024-09-25T14:37:22Z</time>
      </trkpt>
      <trkpt lat="42.37263" lon="2.18686">
        <ele>1401.1</ele>
        <time>2024-09-25T14:37:23Z</time>
      </trkpt>
      <trkpt lat="42.37262" lon="2.18685">
        <ele>1401.1</ele>
        <time>2024-09-25T14:37:24Z</time>
      </trkpt>
      <trkpt lat="42.37262" lon="2.18684">
        <ele>1401</ele>
        <time>2024-09-25T14:37:25Z</time>
      </trkpt>
      <trkpt lat="42.37261" lon="2.18682">
        <ele>1400.9</ele>
        <time>2024-09-25T14:37:26Z</time>
      </trkpt>
      <trkpt lat="42.37261" lon="2.18681">
        <ele>1400.9</ele>
        <time>2024-09-25T14:37:27Z</time>
      </trkpt>
      <trkpt lat="42.3726" lon="2.18679">
        <ele>1400.8</ele>
        <time>2024-09-25T14:37:28Z</time>
      </trkpt>
      <trkpt lat="42.3726" lon="2.18678">
        <ele>1400.7</ele>
        <time>2024-09-25T14:37:29Z</time>
      </trkpt>
      <trkpt lat="42.37259" lon="2.18677">
        <ele>1400.7</ele>
        <time>2024-09-25T14:37:30Z</time>
      </trkpt>
      <trkpt lat="42.37258" lon="2.18676">
        <ele>1400.6</ele>
        <time>2024-09-25T14:37:31Z</time>
      </trkpt>
      <trkpt lat="42.37257" lon="2.18673">
        <ele>1400.5</ele>
        <time>2024-09-25T14:37:32Z</time>
      </trkpt>
      <trkpt lat="42.37257" lon="2.18672">
        <ele>1400.5</ele>
        <time>2024-09-25T14:37:33Z</time>
      </trkpt>
      <trkpt lat="42.37257" lon="2.18671">
        <ele>1400.4</ele>
        <time>2024-09-25T14:37:34Z</time>
      </trkpt>
      <trkpt lat="42.37257" lon="2.18669">
        <ele>1400.3</ele>
        <time>2024-09-25T14:37:35Z</time>
      </trkpt>
      <trkpt lat="42.37257" lon="2.18667">
        <ele>1400.3</ele>
        <time>2024-09-25T14:37:36Z</time>
      </trkpt>
      <trkpt lat="42.37256" lon="2.18665">
        <ele>1400.2</ele>
        <time>2024-09-25T14:37:37Z</time>
      </trkpt>
      <trkpt lat="42.37255" lon="2.18664">
        <ele>1400.1</ele>
        <time>2024-09-25T14:37:38Z</time>
      </trkpt>
      <trkpt lat="42.37255" lon="2.18663">
        <ele>1400.1</ele>
        <time>2024-09-25T14:37:39Z</time>
      </trkpt>
      <trkpt lat="42.37255" lon="2.18661">
        <ele>1400</ele>
        <time>2024-09-25T14:37:40Z</time>
      </trkpt>
      <trkpt lat="42.37254" lon="2.1866">
        <ele>1400</ele>
        <time>2024-09-25T14:37:41Z</time>
      </trkpt>
      <trkpt lat="42.37253" lon="2.18659">
        <ele>1399.9</ele>
        <time>2024-09-25T14:37:42Z</time>
      </trkpt>
      <trkpt lat="42.37253" lon="2.18658">
        <ele>1399.9</ele>
        <time>2024-09-25T14:37:43Z</time>
      </trkpt>
      <trkpt lat="42.37252" lon="2.18657">
        <ele>1399.8</ele>
        <time>2024-09-25T14:37:44Z</time>
      </trkpt>
      <trkpt lat="42.3725" lon="2.18657">
        <ele>1399.7</ele>
        <time>2024-09-25T14:37:45Z</time>
      </trkpt>
      <trkpt lat="42.37249" lon="2.18658">
        <ele>1399.7</ele>
        <time>2024-09-25T14:37:46Z</time>
      </trkpt>
      <trkpt lat="42.37248" lon="2.18658">
        <ele>1399.6</ele>
        <time>2024-09-25T14:37:47Z</time>
      </trkpt>
      <trkpt lat="42.37247" lon="2.18658">
        <ele>1399.6</ele>
        <time>2024-09-25T14:37:48Z</time>
      </trkpt>
      <trkpt lat="42.37247" lon="2.18657">
        <ele>1399.6</ele>
        <time>2024-09-25T14:37:49Z</time>
      </trkpt>
      <trkpt lat="42.37246" lon="2.18656">
        <ele>1399.5</ele>
        <time>2024-09-25T14:37:50Z</time>
      </trkpt>
      <trkpt lat="42.37246" lon="2.18656">
        <ele>1399.5</ele>
        <time>2024-09-25T14:37:51Z</time>
      </trkpt>
      <trkpt lat="42.37245" lon="2.18657">
        <ele>1399.5</ele>
        <time>2024-09-25T14:37:52Z</time>
      </trkpt>
      <trkpt lat="42.37243" lon="2.18656">
        <ele>1399.4</ele>
        <time>2024-09-25T14:37:53Z</time>
      </trkpt>
      <trkpt lat="42.37242" lon="2.18656">
        <ele>1399.4</ele>
        <time>2024-09-25T14:37:54Z</time>
      </trkpt>
      <trkpt lat="42.37241" lon="2.18655">
        <ele>1399.3</ele>
        <time>2024-09-25T14:37:55Z</time>
      </trkpt>
      <trkpt lat="42.3724" lon="2.18655">
        <ele>1399.3</ele>
        <time>2024-09-25T14:37:56Z</time>
      </trkpt>
      <trkpt lat="42.37239" lon="2.18655">
        <ele>1399.3</ele>
        <time>2024-09-25T14:37:57Z</time>
      </trkpt>
      <trkpt lat="42.37236" lon="2.18655">
        <ele>1399.2</ele>
        <time>2024-09-25T14:37:58Z</time>
      </trkpt>
      <trkpt lat="42.37236" lon="2.18654">
        <ele>1399.2</ele>
        <time>2024-09-25T14:37:59Z</time>
      </trkpt>
      <trkpt lat="42.37235" lon="2.18654">
        <ele>1399.2</ele>
        <time>2024-09-25T14:38:00Z</time>
      </trkpt>
      <trkpt lat="42.37233" lon="2.18654">
        <ele>1399.2</ele>
        <time>2024-09-25T14:38:01Z</time>
      </trkpt>
      <trkpt lat="42.37232" lon="2.18654">
        <ele>1399.2</ele>
        <time>2024-09-25T14:38:02Z</time>
      </trkpt>
      <trkpt lat="42.37231" lon="2.18653">
        <ele>1399.2</ele>
        <time>2024-09-25T14:38:03Z</time>
      </trkpt>
      <trkpt lat="42.3723" lon="2.18653">
        <ele>1399.2</ele>
        <time>2024-09-25T14:38:04Z</time>
      </trkpt>
      <trkpt lat="42.37229" lon="2.18653">
        <ele>1399.2</ele>
        <time>2024-09-25T14:38:05Z</time>
      </trkpt>
      <trkpt lat="42.37229" lon="2.18654">
        <ele>1399.2</ele>
        <time>2024-09-25T14:38:06Z</time>
      </trkpt>
      <trkpt lat="42.37229" lon="2.18655">
        <ele>1399.2</ele>
        <time>2024-09-25T14:38:07Z</time>
      </trkpt>
      <trkpt lat="42.37228" lon="2.18655">
        <ele>1399.2</ele>
        <time>2024-09-25T14:38:08Z</time>
      </trkpt>
      <trkpt lat="42.37228" lon="2.18654">
        <ele>1399.2</ele>
        <time>2024-09-25T14:38:09Z</time>
      </trkpt>
      <trkpt lat="42.37227" lon="2.18653">
        <ele>1399.2</ele>
        <time>2024-09-25T14:38:10Z</time>
      </trkpt>
      <trkpt lat="42.37226" lon="2.18653">
        <ele>1399.2</ele>
        <time>2024-09-25T14:38:11Z</time>
      </trkpt>
      <trkpt lat="42.37225" lon="2.18654">
        <ele>1399.1</ele>
        <time>2024-09-25T14:38:12Z</time>
      </trkpt>
      <trkpt lat="42.37225" lon="2.18654">
        <ele>1399.1</ele>
        <time>2024-09-25T14:38:13Z</time>
      </trkpt>
      <trkpt lat="42.37223" lon="2.18654">
        <ele>1399.1</ele>
        <time>2024-09-25T14:38:14Z</time>
      </trkpt>
      <trkpt lat="42.37223" lon="2.18654">
        <ele>1399.1</ele>
        <time>2024-09-25T14:38:15Z</time>
      </trkpt>
      <trkpt lat="42.37222" lon="2.18654">
        <ele>1399.1</ele>
        <time>2024-09-25T14:38:16Z</time>
      </trkpt>
      <trkpt lat="42.37221" lon="2.18654">
        <ele>1399.1</ele>
        <time>2024-09-25T14:38:17Z</time>
      </trkpt>
      <trkpt lat="42.37221" lon="2.18653">
        <ele>1399</ele>
        <time>2024-09-25T14:38:18Z</time>
      </trkpt>
      <trkpt lat="42.3722" lon="2.18653">
        <ele>1399</ele>
        <time>2024-09-25T14:38:19Z</time>
      </trkpt>
      <trkpt lat="42.37218" lon="2.18651">
        <ele>1398.9</ele>
        <time>2024-09-25T14:38:20Z</time>
      </trkpt>
      <trkpt lat="42.37218" lon="2.18651">
        <ele>1398.9</ele>
        <time>2024-09-25T14:38:21Z</time>
      </trkpt>
      <trkpt lat="42.37217" lon="2.18651">
        <ele>1398.9</ele>
        <time>2024-09-25T14:38:22Z</time>
      </trkpt>
      <trkpt lat="42.37217" lon="2.18651">
        <ele>1398.9</ele>
        <time>2024-09-25T14:38:23Z</time>
      </trkpt>
      <trkpt lat="42.37216" lon="2.1865">
        <ele>1398.8</ele>
        <time>2024-09-25T14:38:24Z</time>
      </trkpt>
      <trkpt lat="42.37215" lon="2.1865">
        <ele>1398.7</ele>
        <time>2024-09-25T14:38:25Z</time>
      </trkpt>
      <trkpt lat="42.37214" lon="2.18649">
        <ele>1398.7</ele>
        <time>2024-09-25T14:38:26Z</time>
      </trkpt>
      <trkpt lat="42.37214" lon="2.18648">
        <ele>1398.6</ele>
        <time>2024-09-25T14:38:27Z</time>
      </trkpt>
      <trkpt lat="42.37213" lon="2.18648">
        <ele>1398.5</ele>
        <time>2024-09-25T14:38:28Z</time>
      </trkpt>
      <trkpt lat="42.37212" lon="2.18649">
        <ele>1398.4</ele>
        <time>2024-09-25T14:38:29Z</time>
      </trkpt>
      <trkpt lat="42.37211" lon="2.18649">
        <ele>1398.4</ele>
        <time>2024-09-25T14:38:30Z</time>
      </trkpt>
      <trkpt lat="42.37211" lon="2.1865">
        <ele>1398.3</ele>
        <time>2024-09-25T14:38:31Z</time>
      </trkpt>
      <trkpt lat="42.3721" lon="2.1865">
        <ele>1398.2</ele>
        <time>2024-09-25T14:38:32Z</time>
      </trkpt>
      <trkpt lat="42.37209" lon="2.18651">
        <ele>1398.1</ele>
        <time>2024-09-25T14:38:33Z</time>
      </trkpt>
      <trkpt lat="42.37208" lon="2.18651">
        <ele>1398</ele>
        <time>2024-09-25T14:38:34Z</time>
      </trkpt>
      <trkpt lat="42.37206" lon="2.18651">
        <ele>1397.8</ele>
        <time>2024-09-25T14:38:35Z</time>
      </trkpt>
      <trkpt lat="42.37205" lon="2.18652">
        <ele>1397.6</ele>
        <time>2024-09-25T14:38:36Z</time>
      </trkpt>
      <trkpt lat="42.37204" lon="2.18652">
        <ele>1397.5</ele>
        <time>2024-09-25T14:38:37Z</time>
      </trkpt>
      <trkpt lat="42.37203" lon="2.18651">
        <ele>1397.4</ele>
        <time>2024-09-25T14:38:38Z</time>
      </trkpt>
      <trkpt lat="42.37202" lon="2.18649">
        <ele>1397.1</ele>
        <time>2024-09-25T14:38:39Z</time>
      </trkpt>
      <trkpt lat="42.37201" lon="2.18648">
        <ele>1396.9</ele>
        <time>2024-09-25T14:38:40Z</time>
      </trkpt>
      <trkpt lat="42.372" lon="2.18646">
        <ele>1396.7</ele>
        <time>2024-09-25T14:38:41Z</time>
      </trkpt>
      <trkpt lat="42.37199" lon="2.18645">
        <ele>1396.5</ele>
        <time>2024-09-25T14:38:42Z</time>
      </trkpt>
      <trkpt lat="42.37199" lon="2.18644">
        <ele>1396.4</ele>
        <time>2024-09-25T14:38:43Z</time>
      </trkpt>
      <trkpt lat="42.37198" lon="2.18643">
        <ele>1396.2</ele>
        <time>2024-09-25T14:38:44Z</time>
      </trkpt>
      <trkpt lat="42.37197" lon="2.18643">
        <ele>1396.1</ele>
        <time>2024-09-25T14:38:45Z</time>
      </trkpt>
      <trkpt lat="42.37196" lon="2.18642">
        <ele>1396</ele>
        <time>2024-09-25T14:38:46Z</time>
      </trkpt>
      <trkpt lat="42.37196" lon="2.18643">
        <ele>1395.9</ele>
        <time>2024-09-25T14:38:47Z</time>
      </trkpt>
      <trkpt lat="42.37196" lon="2.18644">
        <ele>1395.8</ele>
        <time>2024-09-25T14:38:48Z</time>
      </trkpt>
      <trkpt lat="42.37195" lon="2.18645">
        <ele>1395.7</ele>
        <time>2024-09-25T14:38:49Z</time>
      </trkpt>
      <trkpt lat="42.37194" lon="2.18645">
        <ele>1395.5</ele>
        <time>2024-09-25T14:38:50Z</time>
      </trkpt>
      <trkpt lat="42.37193" lon="2.18645">
        <ele>1395.4</ele>
        <time>2024-09-25T14:38:51Z</time>
      </trkpt>
      <trkpt lat="42.37192" lon="2.18644">
        <ele>1395.3</ele>
        <time>2024-09-25T14:38:52Z</time>
      </trkpt>
      <trkpt lat="42.37192" lon="2.18644">
        <ele>1395.2</ele>
        <time>2024-09-25T14:38:53Z</time>
      </trkpt>
      <trkpt lat="42.37192" lon="2.18643">
        <ele>1395.2</ele>
        <time>2024-09-25T14:38:54Z</time>
      </trkpt>
      <trkpt lat="42.37192" lon="2.18643">
        <ele>1395.1</ele>
        <time>2024-09-25T14:38:55Z</time>
      </trkpt>
      <trkpt lat="42.37191" lon="2.18642">
        <ele>1395</ele>
        <time>2024-09-25T14:38:56Z</time>
      </trkpt>
      <trkpt lat="42.37191" lon="2.18641">
        <ele>1395</ele>
        <time>2024-09-25T14:38:57Z</time>
      </trkpt>
      <trkpt lat="42.37191" lon="2.18641">
        <ele>1394.9</ele>
        <time>2024-09-25T14:38:58Z</time>
      </trkpt>
      <trkpt lat="42.3719" lon="2.1864">
        <ele>1394.8</ele>
        <time>2024-09-25T14:38:59Z</time>
      </trkpt>
      <trkpt lat="42.3719" lon="2.1864">
        <ele>1394.8</ele>
        <time>2024-09-25T14:39:00Z</time>
      </trkpt>
      <trkpt lat="42.37189" lon="2.18639">
        <ele>1394.6</ele>
        <time>2024-09-25T14:39:01Z</time>
      </trkpt>
      <trkpt lat="42.37188" lon="2.18639">
        <ele>1394.5</ele>
        <time>2024-09-25T14:39:02Z</time>
      </trkpt>
      <trkpt lat="42.37186" lon="2.18637">
        <ele>1394.2</ele>
        <time>2024-09-25T14:39:03Z</time>
      </trkpt>
      <trkpt lat="42.37186" lon="2.18635">
        <ele>1394.1</ele>
        <time>2024-09-25T14:39:04Z</time>
      </trkpt>
      <trkpt lat="42.37185" lon="2.18634">
        <ele>1393.9</ele>
        <time>2024-09-25T14:39:05Z</time>
      </trkpt>
      <trkpt lat="42.37185" lon="2.18633">
        <ele>1393.9</ele>
        <time>2024-09-25T14:39:06Z</time>
      </trkpt>
      <trkpt lat="42.37185" lon="2.18631">
        <ele>1393.7</ele>
        <time>2024-09-25T14:39:07Z</time>
      </trkpt>
      <trkpt lat="42.37185" lon="2.18631">
        <ele>1393.7</ele>
        <time>2024-09-25T14:39:08Z</time>
      </trkpt>
      <trkpt lat="42.37185" lon="2.18631">
        <ele>1393.7</ele>
        <time>2024-09-25T14:39:09Z</time>
      </trkpt>
      <trkpt lat="42.37185" lon="2.18631">
        <ele>1393.6</ele>
        <time>2024-09-25T14:39:10Z</time>
      </trkpt>
      <trkpt lat="42.37185" lon="2.18632">
        <ele>1393.6</ele>
        <time>2024-09-25T14:39:11Z</time>
      </trkpt>
      <trkpt lat="42.37186" lon="2.18632">
        <ele>1393.5</ele>
        <time>2024-09-25T14:39:12Z</time>
      </trkpt>
      <trkpt lat="42.37186" lon="2.18632">
        <ele>1393.5</ele>
        <time>2024-09-25T14:39:13Z</time>
      </trkpt>
      <trkpt lat="42.37186" lon="2.18632">
        <ele>1393.5</ele>
        <time>2024-09-25T14:39:14Z</time>
      </trkpt>
      <trkpt lat="42.37186" lon="2.18631">
        <ele>1393.4</ele>
        <time>2024-09-25T14:39:15Z</time>
      </trkpt>
      <trkpt lat="42.37187" lon="2.18631">
        <ele>1393.4</ele>
        <time>2024-09-25T14:39:16Z</time>
      </trkpt>
      <trkpt lat="42.37187" lon="2.18631">
        <ele>1393.3</ele>
        <time>2024-09-25T14:39:17Z</time>
      </trkpt>
      <trkpt lat="42.37188" lon="2.1863">
        <ele>1393.3</ele>
        <time>2024-09-25T14:39:18Z</time>
      </trkpt>
      <trkpt lat="42.37188" lon="2.1863">
        <ele>1393.3</ele>
        <time>2024-09-25T14:39:19Z</time>
      </trkpt>
      <trkpt lat="42.37188" lon="2.1863">
        <ele>1393.2</ele>
        <time>2024-09-25T14:39:20Z</time>
      </trkpt>
      <trkpt lat="42.37188" lon="2.1863">
        <ele>1393.2</ele>
        <time>2024-09-25T14:39:21Z</time>
      </trkpt>
      <trkpt lat="42.37188" lon="2.1863">
        <ele>1393.2</ele>
        <time>2024-09-25T14:39:22Z</time>
      </trkpt>
      <trkpt lat="42.37189" lon="2.1863">
        <ele>1393.2</ele>
        <time>2024-09-25T14:39:23Z</time>
      </trkpt>
      <trkpt lat="42.37189" lon="2.1863">
        <ele>1393.2</ele>
        <time>2024-09-25T14:39:24Z</time>
      </trkpt>
      <trkpt lat="42.37189" lon="2.1863">
        <ele>1393.2</ele>
        <time>2024-09-25T14:39:25Z</time>
      </trkpt>
      <trkpt lat="42.37189" lon="2.1863">
        <ele>1393.2</ele>
        <time>2024-09-25T14:39:26Z</time>
      </trkpt>
      <trkpt lat="42.37189" lon="2.1863">
        <ele>1393.2</ele>
        <time>2024-09-25T14:39:27Z</time>
      </trkpt>
      <trkpt lat="42.37189" lon="2.1863">
        <ele>1393.2</ele>
        <time>2024-09-25T14:39:28Z</time>
      </trkpt>
      <trkpt lat="42.37189" lon="2.1863">
        <ele>1393.2</ele>
        <time>2024-09-25T14:39:29Z</time>
      </trkpt>
      <trkpt lat="42.37189" lon="2.1863">
        <ele>1393.2</ele>
        <time>2024-09-25T14:39:30Z</time>
      </trkpt>
      <trkpt lat="42.37189" lon="2.1863">
        <ele>1393.2</ele>
        <time>2024-09-25T14:39:31Z</time>
      </trkpt>
      <trkpt lat="42.37189" lon="2.1863">
        <ele>1393.1</ele>
        <time>2024-09-25T14:39:32Z</time>
      </trkpt>
      <trkpt lat="42.37189" lon="2.1863">
        <ele>1393.1</ele>
        <time>2024-09-25T14:39:33Z</time>
      </trkpt>
      <trkpt lat="42.37189" lon="2.1863">
        <ele>1393.1</ele>
        <time>2024-09-25T14:39:34Z</time>
      </trkpt>
      <trkpt lat="42.37189" lon="2.1863">
        <ele>1393.1</ele>
        <time>2024-09-25T14:39:35Z</time>
      </trkpt>
      <trkpt lat="42.37189" lon="2.1863">
        <ele>1393.1</ele>
        <time>2024-09-25T14:39:36Z</time>
      </trkpt>
      <trkpt lat="42.37189" lon="2.1863">
        <ele>1393.1</ele>
        <time>2024-09-25T14:39:37Z</time>
      </trkpt>
      <trkpt lat="42.37189" lon="2.1863">
        <ele>1393.1</ele>
        <time>2024-09-25T14:39:38Z</time>
      </trkpt>
      <trkpt lat="42.37189" lon="2.1863">
        <ele>1393.1</ele>
        <time>2024-09-25T14:39:39Z</time>
      </trkpt>
      <trkpt lat="42.37189" lon="2.1863">
        <ele>1393.1</ele>
        <time>2024-09-25T14:39:40Z</time>
      </trkpt>
      <trkpt lat="42.37189" lon="2.1863">
        <ele>1393.1</ele>
        <time>2024-09-25T14:39:41Z</time>
      </trkpt>
      <trkpt lat="42.37189" lon="2.1863">
        <ele>1393.1</ele>
        <time>2024-09-25T14:39:42Z</time>
      </trkpt>
      <trkpt lat="42.37189" lon="2.1863">
        <ele>1393.1</ele>
        <time>2024-09-25T14:39:43Z</time>
      </trkpt>
      <trkpt lat="42.37189" lon="2.1863">
        <ele>1393.1</ele>
        <time>2024-09-25T14:39:44Z</time>
      </trkpt>
      <trkpt lat="42.37189" lon="2.1863">
        <ele>1393.1</ele>
        <time>2024-09-25T14:39:45Z</time>
      </trkpt>
      <trkpt lat="42.37189" lon="2.1863">
        <ele>1393.1</ele>
        <time>2024-09-25T14:39:46Z</time>
      </trkpt>
      <trkpt lat="42.37189" lon="2.1863">
        <ele>1393.1</ele>
        <time>2024-09-25T14:39:47Z</time>
      </trkpt>
      <trkpt lat="42.37189" lon="2.1863">
        <ele>1393.1</ele>
        <time>2024-09-25T14:39:48Z</time>
      </trkpt>
      <trkpt lat="42.37189" lon="2.1863">
        <ele>1393.1</ele>
        <time>2024-09-25T14:39:49Z</time>
      </trkpt>
      <trkpt lat="42.37189" lon="2.1863">
        <ele>1393.1</ele>
        <time>2024-09-25T14:39:50Z</time>
      </trkpt>
      <trkpt lat="42.37189" lon="2.1863">
        <ele>1393.1</ele>
        <time>2024-09-25T14:39:51Z</time>
      </trkpt>
      <trkpt lat="42.37189" lon="2.1863">
        <ele>1393.1</ele>
        <time>2024-09-25T14:39:52Z</time>
      </trkpt>
      <trkpt lat="42.37189" lon="2.1863">
        <ele>1393.1</ele>
        <time>2024-09-25T14:39:53Z</time>
      </trkpt>
      <trkpt lat="42.37189" lon="2.1863">
        <ele>1393.1</ele>
        <time>2024-09-25T14:39:54Z</time>
      </trkpt>
      <trkpt lat="42.37189" lon="2.1863">
        <ele>1393.1</ele>
        <time>2024-09-25T14:39:55Z</time>
      </trkpt>
      <trkpt lat="42.37189" lon="2.1863">
        <ele>1393.1</ele>
        <time>2024-09-25T14:39:56Z</time>
      </trkpt>
      <trkpt lat="42.37189" lon="2.1863">
        <ele>1393.1</ele>
        <time>2024-09-25T14:39:57Z</time>
      </trkpt>
      <trkpt lat="42.37189" lon="2.1863">
        <ele>1393.1</ele>
        <time>2024-09-25T14:39:58Z</time>
      </trkpt>
      <trkpt lat="42.37189" lon="2.1863">
        <ele>1393.1</ele>
        <time>2024-09-25T14:39:59Z</time>
      </trkpt>
      <trkpt lat="42.37189" lon="2.1863">
        <ele>1393.1</ele>
        <time>2024-09-25T14:40:00Z</time>
      </trkpt>
      <trkpt lat="42.37189" lon="2.1863">
        <ele>1393.1</ele>
        <time>2024-09-25T14:40:01Z</time>
      </trkpt>
      <trkpt lat="42.37189" lon="2.1863">
        <ele>1393.1</ele>
        <time>2024-09-25T14:40:02Z</time>
      </trkpt>
      <trkpt lat="42.37189" lon="2.1863">
        <ele>1393.1</ele>
        <time>2024-09-25T14:40:03Z</time>
      </trkpt>
      <trkpt lat="42.37189" lon="2.1863">
        <ele>1393.1</ele>
        <time>2024-09-25T14:40:04Z</time>
      </trkpt>
      <trkpt lat="42.37189" lon="2.1863">
        <ele>1393.1</ele>
        <time>2024-09-25T14:40:05Z</time>
      </trkpt>
      <trkpt lat="42.37189" lon="2.1863">
        <ele>1393</ele>
        <time>2024-09-25T14:40:06Z</time>
      </trkpt>
      <trkpt lat="42.37189" lon="2.1863">
        <ele>1393</ele>
        <time>2024-09-25T14:40:07Z</time>
      </trkpt>
      <trkpt lat="42.37189" lon="2.1863">
        <ele>1393</ele>
        <time>2024-09-25T14:40:08Z</time>
      </trkpt>
      <trkpt lat="42.37189" lon="2.1863">
        <ele>1393</ele>
        <time>2024-09-25T14:40:09Z</time>
      </trkpt>
      <trkpt lat="42.37189" lon="2.1863">
        <ele>1393</ele>
        <time>2024-09-25T14:40:10Z</time>
      </trkpt>
      <trkpt lat="42.37189" lon="2.1863">
        <ele>1393</ele>
        <time>2024-09-25T14:40:11Z</time>
      </trkpt>
      <trkpt lat="42.37189" lon="2.1863">
        <ele>1393</ele>
        <time>2024-09-25T14:40:12Z</time>
      </trkpt>
      <trkpt lat="42.37189" lon="2.1863">
        <ele>1393</ele>
        <time>2024-09-25T14:40:13Z</time>
      </trkpt>
      <trkpt lat="42.37189" lon="2.1863">
        <ele>1393</ele>
        <time>2024-09-25T14:40:14Z</time>
      </trkpt>
      <trkpt lat="42.37189" lon="2.1863">
        <ele>1393</ele>
        <time>2024-09-25T14:40:15Z</time>
      </trkpt>
      <trkpt lat="42.37189" lon="2.1863">
        <ele>1393</ele>
        <time>2024-09-25T14:40:16Z</time>
      </trkpt>
      <trkpt lat="42.37189" lon="2.1863">
        <ele>1393</ele>
        <time>2024-09-25T14:40:17Z</time>
      </trkpt>
      <trkpt lat="42.37189" lon="2.1863">
        <ele>1393</ele>
        <time>2024-09-25T14:40:18Z</time>
      </trkpt>
      <trkpt lat="42.37189" lon="2.1863">
        <ele>1393</ele>
        <time>2024-09-25T14:40:19Z</time>
      </trkpt>
      <trkpt lat="42.37189" lon="2.1863">
        <ele>1393</ele>
        <time>2024-09-25T14:40:20Z</time>
      </trkpt>
      <trkpt lat="42.37189" lon="2.18631">
        <ele>1393</ele>
        <time>2024-09-25T14:40:21Z</time>
      </trkpt>
      <trkpt lat="42.37189" lon="2.18631">
        <ele>1393</ele>
        <time>2024-09-25T14:40:22Z</time>
      </trkpt>
      <trkpt lat="42.37188" lon="2.18632">
        <ele>1392.9</ele>
        <time>2024-09-25T14:40:23Z</time>
      </trkpt>
      <trkpt lat="42.37188" lon="2.18632">
        <ele>1392.8</ele>
        <time>2024-09-25T14:40:24Z</time>
      </trkpt>
      <trkpt lat="42.37189" lon="2.18632">
        <ele>1392.8</ele>
        <time>2024-09-25T14:40:25Z</time>
      </trkpt>
      <trkpt lat="42.37188" lon="2.18633">
        <ele>1392.7</ele>
        <time>2024-09-25T14:40:26Z</time>
      </trkpt>
      <trkpt lat="42.37188" lon="2.18633">
        <ele>1392.7</ele>
        <time>2024-09-25T14:40:27Z</time>
      </trkpt>
      <trkpt lat="42.37188" lon="2.18633">
        <ele>1392.7</ele>
        <time>2024-09-25T14:40:28Z</time>
      </trkpt>
      <trkpt lat="42.37188" lon="2.18633">
        <ele>1392.7</ele>
        <time>2024-09-25T14:40:29Z</time>
      </trkpt>
      <trkpt lat="42.37188" lon="2.18633">
        <ele>1392.6</ele>
        <time>2024-09-25T14:40:30Z</time>
      </trkpt>
      <trkpt lat="42.37188" lon="2.18633">
        <ele>1392.6</ele>
        <time>2024-09-25T14:40:31Z</time>
      </trkpt>
      <trkpt lat="42.37188" lon="2.18633">
        <ele>1392.6</ele>
        <time>2024-09-25T14:40:32Z</time>
      </trkpt>
      <trkpt lat="42.37188" lon="2.18633">
        <ele>1392.6</ele>
        <time>2024-09-25T14:40:33Z</time>
      </trkpt>
      <trkpt lat="42.37188" lon="2.18634">
        <ele>1392.6</ele>
        <time>2024-09-25T14:40:34Z</time>
      </trkpt>
      <trkpt lat="42.37188" lon="2.18634">
        <ele>1392.5</ele>
        <time>2024-09-25T14:40:35Z</time>
      </trkpt>
      <trkpt lat="42.37189" lon="2.18635">
        <ele>1392.5</ele>
        <time>2024-09-25T14:40:36Z</time>
      </trkpt>
      <trkpt lat="42.37189" lon="2.18635">
        <ele>1392.5</ele>
        <time>2024-09-25T14:40:37Z</time>
      </trkpt>
      <trkpt lat="42.37189" lon="2.18635">
        <ele>1392.5</ele>
        <time>2024-09-25T14:40:38Z</time>
      </trkpt>
      <trkpt lat="42.37189" lon="2.18635">
        <ele>1392.5</ele>
        <time>2024-09-25T14:40:39Z</time>
      </trkpt>
      <trkpt lat="42.37189" lon="2.18635">
        <ele>1392.5</ele>
        <time>2024-09-25T14:40:40Z</time>
      </trkpt>
      <trkpt lat="42.37189" lon="2.18635">
        <ele>1392.4</ele>
        <time>2024-09-25T14:40:41Z</time>
      </trkpt>
      <trkpt lat="42.37189" lon="2.18635">
        <ele>1392.4</ele>
        <time>2024-09-25T14:40:42Z</time>
      </trkpt>
      <trkpt lat="42.37189" lon="2.18635">
        <ele>1392.4</ele>
        <time>2024-09-25T14:40:43Z</time>
      </trkpt>
      <trkpt lat="42.37189" lon="2.18635">
        <ele>1392.4</ele>
        <time>2024-09-25T14:40:44Z</time>
      </trkpt>
      <trkpt lat="42.37189" lon="2.18635">
        <ele>1392.4</ele>
        <time>2024-09-25T14:40:45Z</time>
      </trkpt>
      <trkpt lat="42.37189" lon="2.18635">
        <ele>1392.4</ele>
        <time>2024-09-25T14:40:46Z</time>
      </trkpt>
      <trkpt lat="42.3719" lon="2.18635">
        <ele>1392.4</ele>
        <time>2024-09-25T14:40:47Z</time>
      </trkpt>
      <trkpt lat="42.3719" lon="2.18635">
        <ele>1392.4</ele>
        <time>2024-09-25T14:40:48Z</time>
      </trkpt>
      <trkpt lat="42.3719" lon="2.18635">
        <ele>1392.4</ele>
        <time>2024-09-25T14:40:49Z</time>
      </trkpt>
      <trkpt lat="42.3719" lon="2.18635">
        <ele>1392.4</ele>
        <time>2024-09-25T14:40:50Z</time>
      </trkpt>
      <trkpt lat="42.3719" lon="2.18635">
        <ele>1392.4</ele>
        <time>2024-09-25T14:40:51Z</time>
      </trkpt>
      <trkpt lat="42.37189" lon="2.18634">
        <ele>1392.4</ele>
        <time>2024-09-25T14:40:52Z</time>
      </trkpt>
      <trkpt lat="42.37189" lon="2.18634">
        <ele>1392.3</ele>
        <time>2024-09-25T14:40:53Z</time>
      </trkpt>
      <trkpt lat="42.37189" lon="2.18634">
        <ele>1392.3</ele>
        <time>2024-09-25T14:40:54Z</time>
      </trkpt>
      <trkpt lat="42.37189" lon="2.18633">
        <ele>1392.2</ele>
        <time>2024-09-25T14:40:55Z</time>
      </trkpt>
      <trkpt lat="42.37189" lon="2.18633">
        <ele>1392.2</ele>
        <time>2024-09-25T14:40:56Z</time>
      </trkpt>
      <trkpt lat="42.37189" lon="2.18633">
        <ele>1392.2</ele>
        <time>2024-09-25T14:40:57Z</time>
      </trkpt>
      <trkpt lat="42.37188" lon="2.18633">
        <ele>1392.2</ele>
        <time>2024-09-25T14:40:58Z</time>
      </trkpt>
      <trkpt lat="42.37188" lon="2.18632">
        <ele>1392.2</ele>
        <time>2024-09-25T14:40:59Z</time>
      </trkpt>
      <trkpt lat="42.37188" lon="2.18632">
        <ele>1392.2</ele>
        <time>2024-09-25T14:41:00Z</time>
      </trkpt>
      <trkpt lat="42.37188" lon="2.18632">
        <ele>1392.1</ele>
        <time>2024-09-25T14:41:01Z</time>
      </trkpt>
      <trkpt lat="42.37188" lon="2.18632">
        <ele>1392.1</ele>
        <time>2024-09-25T14:41:02Z</time>
      </trkpt>
      <trkpt lat="42.37188" lon="2.18632">
        <ele>1392.1</ele>
        <time>2024-09-25T14:41:03Z</time>
      </trkpt>
      <trkpt lat="42.37188" lon="2.18632">
        <ele>1392.1</ele>
        <time>2024-09-25T14:41:04Z</time>
      </trkpt>
      <trkpt lat="42.37188" lon="2.18632">
        <ele>1392.1</ele>
        <time>2024-09-25T14:41:05Z</time>
      </trkpt>
      <trkpt lat="42.37188" lon="2.18632">
        <ele>1392.1</ele>
        <time>2024-09-25T14:41:06Z</time>
      </trkpt>
      <trkpt lat="42.37188" lon="2.18631">
        <ele>1392.1</ele>
        <time>2024-09-25T14:41:07Z</time>
      </trkpt>
      <trkpt lat="42.37188" lon="2.1863">
        <ele>1392</ele>
        <time>2024-09-25T14:41:08Z</time>
      </trkpt>
      <trkpt lat="42.37187" lon="2.18629">
        <ele>1391.9</ele>
        <time>2024-09-25T14:41:09Z</time>
      </trkpt>
      <trkpt lat="42.37187" lon="2.18626">
        <ele>1391.6</ele>
        <time>2024-09-25T14:41:10Z</time>
      </trkpt>
      <trkpt lat="42.37186" lon="2.18624">
        <ele>1391.4</ele>
        <time>2024-09-25T14:41:11Z</time>
      </trkpt>
      <trkpt lat="42.37185" lon="2.18623">
        <ele>1391.2</ele>
        <time>2024-09-25T14:41:12Z</time>
      </trkpt>
      <trkpt lat="42.37184" lon="2.18621">
        <ele>1391.1</ele>
        <time>2024-09-25T14:41:13Z</time>
      </trkpt>
      <trkpt lat="42.37184" lon="2.1862">
        <ele>1390.9</ele>
        <time>2024-09-25T14:41:14Z</time>
      </trkpt>
      <trkpt lat="42.37183" lon="2.18618">
        <ele>1390.8</ele>
        <time>2024-09-25T14:41:15Z</time>
      </trkpt>
      <trkpt lat="42.37182" lon="2.18616">
        <ele>1390.6</ele>
        <time>2024-09-25T14:41:16Z</time>
      </trkpt>
      <trkpt lat="42.37182" lon="2.18615">
        <ele>1390.5</ele>
        <time>2024-09-25T14:41:17Z</time>
      </trkpt>
      <trkpt lat="42.37181" lon="2.18612">
        <ele>1390.2</ele>
        <time>2024-09-25T14:41:18Z</time>
      </trkpt>
      <trkpt lat="42.37181" lon="2.18611">
        <ele>1390.1</ele>
        <time>2024-09-25T14:41:19Z</time>
      </trkpt>
      <trkpt lat="42.37181" lon="2.1861">
        <ele>1390</ele>
        <time>2024-09-25T14:41:20Z</time>
      </trkpt>
      <trkpt lat="42.3718" lon="2.18609">
        <ele>1389.9</ele>
        <time>2024-09-25T14:41:21Z</time>
      </trkpt>
      <trkpt lat="42.3718" lon="2.18608">
        <ele>1389.8</ele>
        <time>2024-09-25T14:41:22Z</time>
      </trkpt>
      <trkpt lat="42.3718" lon="2.18606">
        <ele>1389.7</ele>
        <time>2024-09-25T14:41:23Z</time>
      </trkpt>
      <trkpt lat="42.3718" lon="2.18605">
        <ele>1389.6</ele>
        <time>2024-09-25T14:41:24Z</time>
      </trkpt>
      <trkpt lat="42.37179" lon="2.18604">
        <ele>1389.5</ele>
        <time>2024-09-25T14:41:25Z</time>
      </trkpt>
      <trkpt lat="42.37178" lon="2.18603">
        <ele>1389.3</ele>
        <time>2024-09-25T14:41:26Z</time>
      </trkpt>
      <trkpt lat="42.37178" lon="2.18603">
        <ele>1389.3</ele>
        <time>2024-09-25T14:41:27Z</time>
      </trkpt>
      <trkpt lat="42.37178" lon="2.18602">
        <ele>1389.2</ele>
        <time>2024-09-25T14:41:28Z</time>
      </trkpt>
      <trkpt lat="42.37177" lon="2.18601">
        <ele>1389.1</ele>
        <time>2024-09-25T14:41:29Z</time>
      </trkpt>
      <trkpt lat="42.37177" lon="2.186">
        <ele>1388.9</ele>
        <time>2024-09-25T14:41:30Z</time>
      </trkpt>
      <trkpt lat="42.37177" lon="2.18598">
        <ele>1388.9</ele>
        <time>2024-09-25T14:41:31Z</time>
      </trkpt>
      <trkpt lat="42.37176" lon="2.18598">
        <ele>1388.8</ele>
        <time>2024-09-25T14:41:32Z</time>
      </trkpt>
      <trkpt lat="42.37176" lon="2.18597">
        <ele>1388.7</ele>
        <time>2024-09-25T14:41:33Z</time>
      </trkpt>
      <trkpt lat="42.37175" lon="2.18596">
        <ele>1388.6</ele>
        <time>2024-09-25T14:41:34Z</time>
      </trkpt>
      <trkpt lat="42.37175" lon="2.18595">
        <ele>1388.5</ele>
        <time>2024-09-25T14:41:35Z</time>
      </trkpt>
      <trkpt lat="42.37175" lon="2.18593">
        <ele>1388.3</ele>
        <time>2024-09-25T14:41:36Z</time>
      </trkpt>
      <trkpt lat="42.37175" lon="2.18592">
        <ele>1388.3</ele>
        <time>2024-09-25T14:41:37Z</time>
      </trkpt>
      <trkpt lat="42.37175" lon="2.18592">
        <ele>1388.3</ele>
        <time>2024-09-25T14:41:38Z</time>
      </trkpt>
      <trkpt lat="42.37176" lon="2.18592">
        <ele>1388.2</ele>
        <time>2024-09-25T14:41:39Z</time>
      </trkpt>
      <trkpt lat="42.37176" lon="2.18593">
        <ele>1388.2</ele>
        <time>2024-09-25T14:41:40Z</time>
      </trkpt>
      <trkpt lat="42.37176" lon="2.18593">
        <ele>1388.2</ele>
        <time>2024-09-25T14:41:41Z</time>
      </trkpt>
      <trkpt lat="42.37176" lon="2.18593">
        <ele>1388.1</ele>
        <time>2024-09-25T14:41:42Z</time>
      </trkpt>
      <trkpt lat="42.37176" lon="2.18593">
        <ele>1388.1</ele>
        <time>2024-09-25T14:41:43Z</time>
      </trkpt>
      <trkpt lat="42.37176" lon="2.18593">
        <ele>1388.1</ele>
        <time>2024-09-25T14:41:44Z</time>
      </trkpt>
      <trkpt lat="42.37176" lon="2.18593">
        <ele>1388.1</ele>
        <time>2024-09-25T14:41:45Z</time>
      </trkpt>
      <trkpt lat="42.37176" lon="2.18593">
        <ele>1388.1</ele>
        <time>2024-09-25T14:41:46Z</time>
      </trkpt>
      <trkpt lat="42.37176" lon="2.18594">
        <ele>1388.1</ele>
        <time>2024-09-25T14:41:47Z</time>
      </trkpt>
      <trkpt lat="42.37176" lon="2.18594">
        <ele>1388.1</ele>
        <time>2024-09-25T14:41:48Z</time>
      </trkpt>
      <trkpt lat="42.37176" lon="2.18594">
        <ele>1388.1</ele>
        <time>2024-09-25T14:41:49Z</time>
      </trkpt>
      <trkpt lat="42.37176" lon="2.18594">
        <ele>1388.1</ele>
        <time>2024-09-25T14:41:50Z</time>
      </trkpt>
      <trkpt lat="42.37176" lon="2.18594">
        <ele>1388.1</ele>
        <time>2024-09-25T14:41:51Z</time>
      </trkpt>
      <trkpt lat="42.37176" lon="2.18594">
        <ele>1388.1</ele>
        <time>2024-09-25T14:41:52Z</time>
      </trkpt>
      <trkpt lat="42.37176" lon="2.18594">
        <ele>1388.1</ele>
        <time>2024-09-25T14:41:53Z</time>
      </trkpt>
      <trkpt lat="42.37176" lon="2.18594">
        <ele>1388.1</ele>
        <time>2024-09-25T14:41:54Z</time>
      </trkpt>
      <trkpt lat="42.37176" lon="2.18594">
        <ele>1388.1</ele>
        <time>2024-09-25T14:41:55Z</time>
      </trkpt>
      <trkpt lat="42.37176" lon="2.18594">
        <ele>1388</ele>
        <time>2024-09-25T14:41:56Z</time>
      </trkpt>
      <trkpt lat="42.37176" lon="2.18594">
        <ele>1388</ele>
        <time>2024-09-25T14:41:57Z</time>
      </trkpt>
      <trkpt lat="42.37176" lon="2.18594">
        <ele>1388</ele>
        <time>2024-09-25T14:41:58Z</time>
      </trkpt>
      <trkpt lat="42.37176" lon="2.18594">
        <ele>1388</ele>
        <time>2024-09-25T14:41:59Z</time>
      </trkpt>
      <trkpt lat="42.37176" lon="2.18594">
        <ele>1388</ele>
        <time>2024-09-25T14:42:00Z</time>
      </trkpt>
      <trkpt lat="42.37176" lon="2.18594">
        <ele>1388</ele>
        <time>2024-09-25T14:42:01Z</time>
      </trkpt>
      <trkpt lat="42.37176" lon="2.18594">
        <ele>1388</ele>
        <time>2024-09-25T14:42:02Z</time>
      </trkpt>
      <trkpt lat="42.37176" lon="2.18594">
        <ele>1388</ele>
        <time>2024-09-25T14:42:03Z</time>
      </trkpt>
      <trkpt lat="42.37176" lon="2.18594">
        <ele>1388</ele>
        <time>2024-09-25T14:42:04Z</time>
      </trkpt>
      <trkpt lat="42.37176" lon="2.18594">
        <ele>1388</ele>
        <time>2024-09-25T14:42:05Z</time>
      </trkpt>
      <trkpt lat="42.37176" lon="2.18594">
        <ele>1388</ele>
        <time>2024-09-25T14:42:06Z</time>
      </trkpt>
      <trkpt lat="42.37176" lon="2.18594">
        <ele>1388</ele>
        <time>2024-09-25T14:42:07Z</time>
      </trkpt>
      <trkpt lat="42.37176" lon="2.18594">
        <ele>1388</ele>
        <time>2024-09-25T14:42:08Z</time>
      </trkpt>
      <trkpt lat="42.37176" lon="2.18594">
        <ele>1388</ele>
        <time>2024-09-25T14:42:09Z</time>
      </trkpt>
      <trkpt lat="42.37176" lon="2.18594">
        <ele>1388</ele>
        <time>2024-09-25T14:42:10Z</time>
      </trkpt>
      <trkpt lat="42.37176" lon="2.18594">
        <ele>1388</ele>
        <time>2024-09-25T14:42:11Z</time>
      </trkpt>
      <trkpt lat="42.37176" lon="2.18594">
        <ele>1388</ele>
        <time>2024-09-25T14:42:12Z</time>
      </trkpt>
      <trkpt lat="42.37176" lon="2.18594">
        <ele>1388</ele>
        <time>2024-09-25T14:42:13Z</time>
      </trkpt>
      <trkpt lat="42.37176" lon="2.18594">
        <ele>1388</ele>
        <time>2024-09-25T14:42:14Z</time>
      </trkpt>
      <trkpt lat="42.37176" lon="2.18594">
        <ele>1388</ele>
        <time>2024-09-25T14:42:15Z</time>
      </trkpt>
      <trkpt lat="42.37176" lon="2.18594">
        <ele>1388</ele>
        <time>2024-09-25T14:42:16Z</time>
      </trkpt>
      <trkpt lat="42.37176" lon="2.18594">
        <ele>1388</ele>
        <time>2024-09-25T14:42:17Z</time>
      </trkpt>
      <trkpt lat="42.37176" lon="2.18594">
        <ele>1388</ele>
        <time>2024-09-25T14:42:18Z</time>
      </trkpt>
      <trkpt lat="42.37177" lon="2.18594">
        <ele>1388</ele>
        <time>2024-09-25T14:42:19Z</time>
      </trkpt>
      <trkpt lat="42.37177" lon="2.18594">
        <ele>1388</ele>
        <time>2024-09-25T14:42:20Z</time>
      </trkpt>
      <trkpt lat="42.37177" lon="2.18594">
        <ele>1388</ele>
        <time>2024-09-25T14:42:21Z</time>
      </trkpt>
      <trkpt lat="42.37177" lon="2.18594">
        <ele>1388</ele>
        <time>2024-09-25T14:42:22Z</time>
      </trkpt>
      <trkpt lat="42.37177" lon="2.18594">
        <ele>1388</ele>
        <time>2024-09-25T14:42:23Z</time>
      </trkpt>
      <trkpt lat="42.37176" lon="2.18594">
        <ele>1387.9</ele>
        <time>2024-09-25T14:42:24Z</time>
      </trkpt>
      <trkpt lat="42.37176" lon="2.18594">
        <ele>1387.9</ele>
        <time>2024-09-25T14:42:25Z</time>
      </trkpt>
      <trkpt lat="42.37176" lon="2.18594">
        <ele>1387.9</ele>
        <time>2024-09-25T14:42:26Z</time>
      </trkpt>
      <trkpt lat="42.37175" lon="2.18593">
        <ele>1387.8</ele>
        <time>2024-09-25T14:42:27Z</time>
      </trkpt>
      <trkpt lat="42.37175" lon="2.18593">
        <ele>1387.8</ele>
        <time>2024-09-25T14:42:28Z</time>
      </trkpt>
      <trkpt lat="42.37175" lon="2.18591">
        <ele>1387.7</ele>
        <time>2024-09-25T14:42:29Z</time>
      </trkpt>
      <trkpt lat="42.37175" lon="2.1859">
        <ele>1387.6</ele>
        <time>2024-09-25T14:42:30Z</time>
      </trkpt>
      <trkpt lat="42.37174" lon="2.18589">
        <ele>1387.5</ele>
        <time>2024-09-25T14:42:31Z</time>
      </trkpt>
      <trkpt lat="42.37174" lon="2.18588">
        <ele>1387.4</ele>
        <time>2024-09-25T14:42:32Z</time>
      </trkpt>
      <trkpt lat="42.37173" lon="2.18587">
        <ele>1387.3</ele>
        <time>2024-09-25T14:42:33Z</time>
      </trkpt>
      <trkpt lat="42.37173" lon="2.18586">
        <ele>1387.3</ele>
        <time>2024-09-25T14:42:34Z</time>
      </trkpt>
      <trkpt lat="42.37172" lon="2.18585">
        <ele>1387.2</ele>
        <time>2024-09-25T14:42:35Z</time>
      </trkpt>
      <trkpt lat="42.37172" lon="2.18584">
        <ele>1387.1</ele>
        <time>2024-09-25T14:42:36Z</time>
      </trkpt>
      <trkpt lat="42.37171" lon="2.18584">
        <ele>1387</ele>
        <time>2024-09-25T14:42:37Z</time>
      </trkpt>
      <trkpt lat="42.37171" lon="2.18583">
        <ele>1387</ele>
        <time>2024-09-25T14:42:38Z</time>
      </trkpt>
      <trkpt lat="42.3717" lon="2.18582">
        <ele>1386.9</ele>
        <time>2024-09-25T14:42:39Z</time>
      </trkpt>
      <trkpt lat="42.37169" lon="2.18581">
        <ele>1386.8</ele>
        <time>2024-09-25T14:42:40Z</time>
      </trkpt>
      <trkpt lat="42.37168" lon="2.18579">
        <ele>1386.7</ele>
        <time>2024-09-25T14:42:41Z</time>
      </trkpt>
      <trkpt lat="42.37168" lon="2.18578">
        <ele>1386.6</ele>
        <time>2024-09-25T14:42:42Z</time>
      </trkpt>
      <trkpt lat="42.37168" lon="2.18578">
        <ele>1386.6</ele>
        <time>2024-09-25T14:42:43Z</time>
      </trkpt>
      <trkpt lat="42.37168" lon="2.18578">
        <ele>1386.6</ele>
        <time>2024-09-25T14:42:44Z</time>
      </trkpt>
      <trkpt lat="42.37168" lon="2.18578">
        <ele>1386.5</ele>
        <time>2024-09-25T14:42:45Z</time>
      </trkpt>
      <trkpt lat="42.37168" lon="2.18579">
        <ele>1386.5</ele>
        <time>2024-09-25T14:42:47Z</time>
      </trkpt>
      <trkpt lat="42.37168" lon="2.18579">
        <ele>1386.5</ele>
        <time>2024-09-25T14:42:48Z</time>
      </trkpt>
      <trkpt lat="42.37168" lon="2.18579">
        <ele>1386.5</ele>
        <time>2024-09-25T14:42:49Z</time>
      </trkpt>
      <trkpt lat="42.37168" lon="2.18579">
        <ele>1386.5</ele>
        <time>2024-09-25T14:42:50Z</time>
      </trkpt>
      <trkpt lat="42.37168" lon="2.18579">
        <ele>1386.5</ele>
        <time>2024-09-25T14:42:51Z</time>
      </trkpt>
      <trkpt lat="42.37167" lon="2.18578">
        <ele>1386.5</ele>
        <time>2024-09-25T14:42:52Z</time>
      </trkpt>
      <trkpt lat="42.37167" lon="2.18578">
        <ele>1386.4</ele>
        <time>2024-09-25T14:42:53Z</time>
      </trkpt>
      <trkpt lat="42.37167" lon="2.18577">
        <ele>1386.4</ele>
        <time>2024-09-25T14:42:54Z</time>
      </trkpt>
      <trkpt lat="42.37167" lon="2.18575">
        <ele>1386.2</ele>
        <time>2024-09-25T14:42:55Z</time>
      </trkpt>
      <trkpt lat="42.37167" lon="2.18573">
        <ele>1386.1</ele>
        <time>2024-09-25T14:42:56Z</time>
      </trkpt>
      <trkpt lat="42.37166" lon="2.18571">
        <ele>1386</ele>
        <time>2024-09-25T14:42:57Z</time>
      </trkpt>
      <trkpt lat="42.37166" lon="2.1857">
        <ele>1385.9</ele>
        <time>2024-09-25T14:42:58Z</time>
      </trkpt>
      <trkpt lat="42.37166" lon="2.18568">
        <ele>1385.8</ele>
        <time>2024-09-25T14:42:59Z</time>
      </trkpt>
      <trkpt lat="42.37166" lon="2.18567">
        <ele>1385.7</ele>
        <time>2024-09-25T14:43:00Z</time>
      </trkpt>
      <trkpt lat="42.37165" lon="2.18565">
        <ele>1385.5</ele>
        <time>2024-09-25T14:43:01Z</time>
      </trkpt>
      <trkpt lat="42.37165" lon="2.18562">
        <ele>1385.4</ele>
        <time>2024-09-25T14:43:02Z</time>
      </trkpt>
      <trkpt lat="42.37164" lon="2.1856">
        <ele>1385.2</ele>
        <time>2024-09-25T14:43:03Z</time>
      </trkpt>
      <trkpt lat="42.37164" lon="2.18559">
        <ele>1385.1</ele>
        <time>2024-09-25T14:43:04Z</time>
      </trkpt>
      <trkpt lat="42.37163" lon="2.18558">
        <ele>1385</ele>
        <time>2024-09-25T14:43:05Z</time>
      </trkpt>
      <trkpt lat="42.37163" lon="2.18556">
        <ele>1384.8</ele>
        <time>2024-09-25T14:43:06Z</time>
      </trkpt>
      <trkpt lat="42.37162" lon="2.18555">
        <ele>1384.7</ele>
        <time>2024-09-25T14:43:07Z</time>
      </trkpt>
      <trkpt lat="42.37162" lon="2.18554">
        <ele>1384.6</ele>
        <time>2024-09-25T14:43:08Z</time>
      </trkpt>
      <trkpt lat="42.37161" lon="2.18553">
        <ele>1384.5</ele>
        <time>2024-09-25T14:43:09Z</time>
      </trkpt>
      <trkpt lat="42.3716" lon="2.18552">
        <ele>1384.3</ele>
        <time>2024-09-25T14:43:10Z</time>
      </trkpt>
      <trkpt lat="42.37159" lon="2.18551">
        <ele>1384.2</ele>
        <time>2024-09-25T14:43:11Z</time>
      </trkpt>
      <trkpt lat="42.37158" lon="2.18551">
        <ele>1384.1</ele>
        <time>2024-09-25T14:43:12Z</time>
      </trkpt>
      <trkpt lat="42.37157" lon="2.1855">
        <ele>1384</ele>
        <time>2024-09-25T14:43:13Z</time>
      </trkpt>
      <trkpt lat="42.37157" lon="2.18549">
        <ele>1383.8</ele>
        <time>2024-09-25T14:43:14Z</time>
      </trkpt>
      <trkpt lat="42.37156" lon="2.18548">
        <ele>1383.7</ele>
        <time>2024-09-25T14:43:15Z</time>
      </trkpt>
      <trkpt lat="42.37155" lon="2.18547">
        <ele>1383.6</ele>
        <time>2024-09-25T14:43:16Z</time>
      </trkpt>
      <trkpt lat="42.37154" lon="2.18547">
        <ele>1383.5</ele>
        <time>2024-09-25T14:43:17Z</time>
      </trkpt>
      <trkpt lat="42.37154" lon="2.18546">
        <ele>1383.4</ele>
        <time>2024-09-25T14:43:18Z</time>
      </trkpt>
      <trkpt lat="42.37154" lon="2.18544">
        <ele>1383.2</ele>
        <time>2024-09-25T14:43:19Z</time>
      </trkpt>
      <trkpt lat="42.37154" lon="2.18542">
        <ele>1383.1</ele>
        <time>2024-09-25T14:43:20Z</time>
      </trkpt>
      <trkpt lat="42.37155" lon="2.18542">
        <ele>1383</ele>
        <time>2024-09-25T14:43:21Z</time>
      </trkpt>
      <trkpt lat="42.37155" lon="2.18542">
        <ele>1383</ele>
        <time>2024-09-25T14:43:22Z</time>
      </trkpt>
      <trkpt lat="42.37155" lon="2.1854">
        <ele>1382.9</ele>
        <time>2024-09-25T14:43:23Z</time>
      </trkpt>
      <trkpt lat="42.37155" lon="2.18539">
        <ele>1382.8</ele>
        <time>2024-09-25T14:43:24Z</time>
      </trkpt>
      <trkpt lat="42.37155" lon="2.18538">
        <ele>1382.7</ele>
        <time>2024-09-25T14:43:25Z</time>
      </trkpt>
      <trkpt lat="42.37155" lon="2.18536">
        <ele>1382.5</ele>
        <time>2024-09-25T14:43:26Z</time>
      </trkpt>
      <trkpt lat="42.37154" lon="2.18534">
        <ele>1382.3</ele>
        <time>2024-09-25T14:43:27Z</time>
      </trkpt>
      <trkpt lat="42.37154" lon="2.18533">
        <ele>1382.3</ele>
        <time>2024-09-25T14:43:28Z</time>
      </trkpt>
      <trkpt lat="42.37153" lon="2.18532">
        <ele>1382.2</ele>
        <time>2024-09-25T14:43:29Z</time>
      </trkpt>
      <trkpt lat="42.37153" lon="2.18532">
        <ele>1382.2</ele>
        <time>2024-09-25T14:43:30Z</time>
      </trkpt>
      <trkpt lat="42.37152" lon="2.18531">
        <ele>1382.1</ele>
        <time>2024-09-25T14:43:31Z</time>
      </trkpt>
      <trkpt lat="42.37152" lon="2.18531">
        <ele>1382</ele>
        <time>2024-09-25T14:43:32Z</time>
      </trkpt>
      <trkpt lat="42.37151" lon="2.18531">
        <ele>1382</ele>
        <time>2024-09-25T14:43:33Z</time>
      </trkpt>
      <trkpt lat="42.37152" lon="2.18531">
        <ele>1381.9</ele>
        <time>2024-09-25T14:43:34Z</time>
      </trkpt>
      <trkpt lat="42.37152" lon="2.1853">
        <ele>1381.9</ele>
        <time>2024-09-25T14:43:35Z</time>
      </trkpt>
      <trkpt lat="42.37152" lon="2.18529">
        <ele>1381.8</ele>
        <time>2024-09-25T14:43:36Z</time>
      </trkpt>
      <trkpt lat="42.37152" lon="2.18527">
        <ele>1381.7</ele>
        <time>2024-09-25T14:43:37Z</time>
      </trkpt>
      <trkpt lat="42.37152" lon="2.18527">
        <ele>1381.6</ele>
        <time>2024-09-25T14:43:38Z</time>
      </trkpt>
      <trkpt lat="42.37152" lon="2.18525">
        <ele>1381.5</ele>
        <time>2024-09-25T14:43:39Z</time>
      </trkpt>
      <trkpt lat="42.37151" lon="2.18524">
        <ele>1381.4</ele>
        <time>2024-09-25T14:43:40Z</time>
      </trkpt>
      <trkpt lat="42.3715" lon="2.18523">
        <ele>1381.4</ele>
        <time>2024-09-25T14:43:41Z</time>
      </trkpt>
      <trkpt lat="42.3715" lon="2.18522">
        <ele>1381.3</ele>
        <time>2024-09-25T14:43:42Z</time>
      </trkpt>
      <trkpt lat="42.37149" lon="2.18521">
        <ele>1381.2</ele>
        <time>2024-09-25T14:43:43Z</time>
      </trkpt>
      <trkpt lat="42.37147" lon="2.1852">
        <ele>1381</ele>
        <time>2024-09-25T14:43:44Z</time>
      </trkpt>
      <trkpt lat="42.37146" lon="2.18519">
        <ele>1380.9</ele>
        <time>2024-09-25T14:43:45Z</time>
      </trkpt>
      <trkpt lat="42.37145" lon="2.18518">
        <ele>1380.8</ele>
        <time>2024-09-25T14:43:46Z</time>
      </trkpt>
      <trkpt lat="42.37143" lon="2.18518">
        <ele>1380.6</ele>
        <time>2024-09-25T14:43:47Z</time>
      </trkpt>
      <trkpt lat="42.37142" lon="2.18517">
        <ele>1380.5</ele>
        <time>2024-09-25T14:43:48Z</time>
      </trkpt>
      <trkpt lat="42.37141" lon="2.18515">
        <ele>1380.4</ele>
        <time>2024-09-25T14:43:49Z</time>
      </trkpt>
      <trkpt lat="42.37141" lon="2.18515">
        <ele>1380.3</ele>
        <time>2024-09-25T14:43:50Z</time>
      </trkpt>
      <trkpt lat="42.3714" lon="2.18514">
        <ele>1380.3</ele>
        <time>2024-09-25T14:43:51Z</time>
      </trkpt>
      <trkpt lat="42.3714" lon="2.18513">
        <ele>1380.2</ele>
        <time>2024-09-25T14:43:52Z</time>
      </trkpt>
      <trkpt lat="42.37139" lon="2.18512">
        <ele>1380.1</ele>
        <time>2024-09-25T14:43:53Z</time>
      </trkpt>
      <trkpt lat="42.37139" lon="2.1851">
        <ele>1380</ele>
        <time>2024-09-25T14:43:54Z</time>
      </trkpt>
      <trkpt lat="42.37138" lon="2.18509">
        <ele>1379.9</ele>
        <time>2024-09-25T14:43:55Z</time>
      </trkpt>
      <trkpt lat="42.37137" lon="2.18508">
        <ele>1379.8</ele>
        <time>2024-09-25T14:43:56Z</time>
      </trkpt>
      <trkpt lat="42.37137" lon="2.18507">
        <ele>1379.7</ele>
        <time>2024-09-25T14:43:57Z</time>
      </trkpt>
      <trkpt lat="42.37137" lon="2.18506">
        <ele>1379.7</ele>
        <time>2024-09-25T14:43:58Z</time>
      </trkpt>
      <trkpt lat="42.37136" lon="2.18505">
        <ele>1379.6</ele>
        <time>2024-09-25T14:43:59Z</time>
      </trkpt>
      <trkpt lat="42.37136" lon="2.18506">
        <ele>1379.6</ele>
        <time>2024-09-25T14:44:00Z</time>
      </trkpt>
      <trkpt lat="42.37136" lon="2.18507">
        <ele>1379.5</ele>
        <time>2024-09-25T14:44:01Z</time>
      </trkpt>
      <trkpt lat="42.37136" lon="2.18507">
        <ele>1379.5</ele>
        <time>2024-09-25T14:44:02Z</time>
      </trkpt>
      <trkpt lat="42.37136" lon="2.18506">
        <ele>1379.4</ele>
        <time>2024-09-25T14:44:03Z</time>
      </trkpt>
      <trkpt lat="42.37136" lon="2.18506">
        <ele>1379.4</ele>
        <time>2024-09-25T14:44:04Z</time>
      </trkpt>
      <trkpt lat="42.37136" lon="2.18505">
        <ele>1379.3</ele>
        <time>2024-09-25T14:44:05Z</time>
      </trkpt>
      <trkpt lat="42.37137" lon="2.18505">
        <ele>1379.3</ele>
        <time>2024-09-25T14:44:06Z</time>
      </trkpt>
      <trkpt lat="42.37137" lon="2.18505">
        <ele>1379.3</ele>
        <time>2024-09-25T14:44:07Z</time>
      </trkpt>
      <trkpt lat="42.37137" lon="2.18505">
        <ele>1379.3</ele>
        <time>2024-09-25T14:44:08Z</time>
      </trkpt>
      <trkpt lat="42.37137" lon="2.18505">
        <ele>1379.3</ele>
        <time>2024-09-25T14:44:09Z</time>
      </trkpt>
      <trkpt lat="42.37137" lon="2.18506">
        <ele>1379.2</ele>
        <time>2024-09-25T14:44:10Z</time>
      </trkpt>
      <trkpt lat="42.37137" lon="2.18506">
        <ele>1379.2</ele>
        <time>2024-09-25T14:44:11Z</time>
      </trkpt>
      <trkpt lat="42.37137" lon="2.18506">
        <ele>1379.2</ele>
        <time>2024-09-25T14:44:12Z</time>
      </trkpt>
      <trkpt lat="42.37137" lon="2.18506">
        <ele>1379.2</ele>
        <time>2024-09-25T14:44:13Z</time>
      </trkpt>
      <trkpt lat="42.37137" lon="2.18506">
        <ele>1379.2</ele>
        <time>2024-09-25T14:44:14Z</time>
      </trkpt>
      <trkpt lat="42.37137" lon="2.18506">
        <ele>1379.2</ele>
        <time>2024-09-25T14:44:15Z</time>
      </trkpt>
      <trkpt lat="42.37137" lon="2.18506">
        <ele>1379.2</ele>
        <time>2024-09-25T14:44:16Z</time>
      </trkpt>
      <trkpt lat="42.37137" lon="2.18506">
        <ele>1379.2</ele>
        <time>2024-09-25T14:44:17Z</time>
      </trkpt>
      <trkpt lat="42.37137" lon="2.18506">
        <ele>1379.2</ele>
        <time>2024-09-25T14:44:18Z</time>
      </trkpt>
      <trkpt lat="42.37137" lon="2.18506">
        <ele>1379.2</ele>
        <time>2024-09-25T14:44:19Z</time>
      </trkpt>
      <trkpt lat="42.37137" lon="2.18506">
        <ele>1379.1</ele>
        <time>2024-09-25T14:44:20Z</time>
      </trkpt>
      <trkpt lat="42.37137" lon="2.18506">
        <ele>1379.1</ele>
        <time>2024-09-25T14:44:21Z</time>
      </trkpt>
      <trkpt lat="42.37136" lon="2.18506">
        <ele>1379</ele>
        <time>2024-09-25T14:44:22Z</time>
      </trkpt>
      <trkpt lat="42.37136" lon="2.18505">
        <ele>1379</ele>
        <time>2024-09-25T14:44:23Z</time>
      </trkpt>
      <trkpt lat="42.37136" lon="2.18504">
        <ele>1378.9</ele>
        <time>2024-09-25T14:44:24Z</time>
      </trkpt>
      <trkpt lat="42.37136" lon="2.18503">
        <ele>1378.8</ele>
        <time>2024-09-25T14:44:25Z</time>
      </trkpt>
      <trkpt lat="42.37135" lon="2.18501">
        <ele>1378.6</ele>
        <time>2024-09-25T14:44:26Z</time>
      </trkpt>
      <trkpt lat="42.37134" lon="2.18499">
        <ele>1378.4</ele>
        <time>2024-09-25T14:44:27Z</time>
      </trkpt>
      <trkpt lat="42.37134" lon="2.18498">
        <ele>1378.3</ele>
        <time>2024-09-25T14:44:28Z</time>
      </trkpt>
      <trkpt lat="42.37131" lon="2.18495">
        <ele>1377.9</ele>
        <time>2024-09-25T14:44:29Z</time>
      </trkpt>
      <trkpt lat="42.37131" lon="2.18494">
        <ele>1377.8</ele>
        <time>2024-09-25T14:44:30Z</time>
      </trkpt>
      <trkpt lat="42.3713" lon="2.18493">
        <ele>1377.7</ele>
        <time>2024-09-25T14:44:31Z</time>
      </trkpt>
      <trkpt lat="42.3713" lon="2.18492">
        <ele>1377.6</ele>
        <time>2024-09-25T14:44:32Z</time>
      </trkpt>
      <trkpt lat="42.3713" lon="2.18491">
        <ele>1377.6</ele>
        <time>2024-09-25T14:44:33Z</time>
      </trkpt>
      <trkpt lat="42.3713" lon="2.1849">
        <ele>1377.5</ele>
        <time>2024-09-25T14:44:34Z</time>
      </trkpt>
      <trkpt lat="42.3713" lon="2.18489">
        <ele>1377.4</ele>
        <time>2024-09-25T14:44:35Z</time>
      </trkpt>
      <trkpt lat="42.3713" lon="2.18488">
        <ele>1377.3</ele>
        <time>2024-09-25T14:44:36Z</time>
      </trkpt>
      <trkpt lat="42.3713" lon="2.18487">
        <ele>1377.2</ele>
        <time>2024-09-25T14:44:37Z</time>
      </trkpt>
      <trkpt lat="42.37129" lon="2.18487">
        <ele>1377.1</ele>
        <time>2024-09-25T14:44:38Z</time>
      </trkpt>
      <trkpt lat="42.37128" lon="2.18485">
        <ele>1376.9</ele>
        <time>2024-09-25T14:44:39Z</time>
      </trkpt>
      <trkpt lat="42.37128" lon="2.18484">
        <ele>1376.8</ele>
        <time>2024-09-25T14:44:40Z</time>
      </trkpt>
      <trkpt lat="42.37127" lon="2.18483">
        <ele>1376.7</ele>
        <time>2024-09-25T14:44:41Z</time>
      </trkpt>
      <trkpt lat="42.37127" lon="2.18482">
        <ele>1376.5</ele>
        <time>2024-09-25T14:44:42Z</time>
      </trkpt>
      <trkpt lat="42.37126" lon="2.1848">
        <ele>1376.4</ele>
        <time>2024-09-25T14:44:43Z</time>
      </trkpt>
      <trkpt lat="42.37126" lon="2.18479">
        <ele>1376.3</ele>
        <time>2024-09-25T14:44:44Z</time>
      </trkpt>
      <trkpt lat="42.37126" lon="2.18478">
        <ele>1376.2</ele>
        <time>2024-09-25T14:44:45Z</time>
      </trkpt>
      <trkpt lat="42.37126" lon="2.18478">
        <ele>1376.1</ele>
        <time>2024-09-25T14:44:46Z</time>
      </trkpt>
      <trkpt lat="42.37126" lon="2.18477">
        <ele>1376.1</ele>
        <time>2024-09-25T14:44:47Z</time>
      </trkpt>
      <trkpt lat="42.37126" lon="2.18476">
        <ele>1376</ele>
        <time>2024-09-25T14:44:48Z</time>
      </trkpt>
      <trkpt lat="42.37126" lon="2.18475">
        <ele>1375.9</ele>
        <time>2024-09-25T14:44:49Z</time>
      </trkpt>
      <trkpt lat="42.37126" lon="2.18473">
        <ele>1375.7</ele>
        <time>2024-09-25T14:44:50Z</time>
      </trkpt>
      <trkpt lat="42.37127" lon="2.18472">
        <ele>1375.6</ele>
        <time>2024-09-25T14:44:51Z</time>
      </trkpt>
      <trkpt lat="42.37127" lon="2.18471">
        <ele>1375.5</ele>
        <time>2024-09-25T14:44:52Z</time>
      </trkpt>
      <trkpt lat="42.37126" lon="2.1847">
        <ele>1375.4</ele>
        <time>2024-09-25T14:44:53Z</time>
      </trkpt>
      <trkpt lat="42.37126" lon="2.18469">
        <ele>1375.3</ele>
        <time>2024-09-25T14:44:54Z</time>
      </trkpt>
      <trkpt lat="42.37127" lon="2.18468">
        <ele>1375.2</ele>
        <time>2024-09-25T14:44:55Z</time>
      </trkpt>
      <trkpt lat="42.37127" lon="2.18466">
        <ele>1375</ele>
        <time>2024-09-25T14:44:56Z</time>
      </trkpt>
      <trkpt lat="42.37126" lon="2.18464">
        <ele>1374.8</ele>
        <time>2024-09-25T14:44:57Z</time>
      </trkpt>
      <trkpt lat="42.37126" lon="2.18463">
        <ele>1374.7</ele>
        <time>2024-09-25T14:44:58Z</time>
      </trkpt>
      <trkpt lat="42.37125" lon="2.1846">
        <ele>1374.5</ele>
        <time>2024-09-25T14:44:59Z</time>
      </trkpt>
      <trkpt lat="42.37124" lon="2.18459">
        <ele>1374.4</ele>
        <time>2024-09-25T14:45:00Z</time>
      </trkpt>
      <trkpt lat="42.37124" lon="2.18458">
        <ele>1374.3</ele>
        <time>2024-09-25T14:45:01Z</time>
      </trkpt>
      <trkpt lat="42.37123" lon="2.18457">
        <ele>1374.2</ele>
        <time>2024-09-25T14:45:02Z</time>
      </trkpt>
      <trkpt lat="42.37123" lon="2.18456">
        <ele>1374.1</ele>
        <time>2024-09-25T14:45:03Z</time>
      </trkpt>
      <trkpt lat="42.37123" lon="2.18455">
        <ele>1374.1</ele>
        <time>2024-09-25T14:45:04Z</time>
      </trkpt>
      <trkpt lat="42.37122" lon="2.18455">
        <ele>1374</ele>
        <time>2024-09-25T14:45:05Z</time>
      </trkpt>
      <trkpt lat="42.37122" lon="2.18454">
        <ele>1374</ele>
        <time>2024-09-25T14:45:06Z</time>
      </trkpt>
      <trkpt lat="42.37122" lon="2.18453">
        <ele>1373.9</ele>
        <time>2024-09-25T14:45:07Z</time>
      </trkpt>
      <trkpt lat="42.37122" lon="2.18452">
        <ele>1373.8</ele>
        <time>2024-09-25T14:45:08Z</time>
      </trkpt>
      <trkpt lat="42.37122" lon="2.18451">
        <ele>1373.8</ele>
        <time>2024-09-25T14:45:09Z</time>
      </trkpt>
      <trkpt lat="42.37122" lon="2.1845">
        <ele>1373.7</ele>
        <time>2024-09-25T14:45:10Z</time>
      </trkpt>
      <trkpt lat="42.37122" lon="2.18449">
        <ele>1373.6</ele>
        <time>2024-09-25T14:45:11Z</time>
      </trkpt>
      <trkpt lat="42.37123" lon="2.18447">
        <ele>1373.5</ele>
        <time>2024-09-25T14:45:12Z</time>
      </trkpt>
      <trkpt lat="42.37122" lon="2.18446">
        <ele>1373.4</ele>
        <time>2024-09-25T14:45:13Z</time>
      </trkpt>
      <trkpt lat="42.37122" lon="2.18445">
        <ele>1373.4</ele>
        <time>2024-09-25T14:45:14Z</time>
      </trkpt>
      <trkpt lat="42.37122" lon="2.18445">
        <ele>1373.3</ele>
        <time>2024-09-25T14:45:15Z</time>
      </trkpt>
      <trkpt lat="42.37122" lon="2.18444">
        <ele>1373.3</ele>
        <time>2024-09-25T14:45:16Z</time>
      </trkpt>
      <trkpt lat="42.37121" lon="2.18444">
        <ele>1373.3</ele>
        <time>2024-09-25T14:45:17Z</time>
      </trkpt>
      <trkpt lat="42.37121" lon="2.18443">
        <ele>1373.3</ele>
        <time>2024-09-25T14:45:18Z</time>
      </trkpt>
      <trkpt lat="42.37121" lon="2.18443">
        <ele>1373.2</ele>
        <time>2024-09-25T14:45:19Z</time>
      </trkpt>
      <trkpt lat="42.37121" lon="2.18443">
        <ele>1373.2</ele>
        <time>2024-09-25T14:45:20Z</time>
      </trkpt>
      <trkpt lat="42.37121" lon="2.18441">
        <ele>1373.1</ele>
        <time>2024-09-25T14:45:21Z</time>
      </trkpt>
      <trkpt lat="42.37122" lon="2.18439">
        <ele>1373</ele>
        <time>2024-09-25T14:45:22Z</time>
      </trkpt>
      <trkpt lat="42.37122" lon="2.18438">
        <ele>1372.9</ele>
        <time>2024-09-25T14:45:23Z</time>
      </trkpt>
      <trkpt lat="42.37123" lon="2.18437">
        <ele>1372.8</ele>
        <time>2024-09-25T14:45:24Z</time>
      </trkpt>
      <trkpt lat="42.37123" lon="2.18436">
        <ele>1372.7</ele>
        <time>2024-09-25T14:45:25Z</time>
      </trkpt>
      <trkpt lat="42.37123" lon="2.18436">
        <ele>1372.7</ele>
        <time>2024-09-25T14:45:26Z</time>
      </trkpt>
      <trkpt lat="42.37124" lon="2.18435">
        <ele>1372.7</ele>
        <time>2024-09-25T14:45:27Z</time>
      </trkpt>
      <trkpt lat="42.37124" lon="2.18434">
        <ele>1372.6</ele>
        <time>2024-09-25T14:45:28Z</time>
      </trkpt>
      <trkpt lat="42.37124" lon="2.18434">
        <ele>1372.6</ele>
        <time>2024-09-25T14:45:29Z</time>
      </trkpt>
      <trkpt lat="42.37122" lon="2.18435">
        <ele>1372.4</ele>
        <time>2024-09-25T14:45:30Z</time>
      </trkpt>
      <trkpt lat="42.37124" lon="2.18434">
        <ele>1372.2</ele>
        <time>2024-09-25T14:45:31Z</time>
      </trkpt>
      <trkpt lat="42.37125" lon="2.18433">
        <ele>1372.1</ele>
        <time>2024-09-25T14:45:32Z</time>
      </trkpt>
      <trkpt lat="42.37125" lon="2.18432">
        <ele>1372.1</ele>
        <time>2024-09-25T14:45:33Z</time>
      </trkpt>
      <trkpt lat="42.37125" lon="2.18431">
        <ele>1372</ele>
        <time>2024-09-25T14:45:34Z</time>
      </trkpt>
      <trkpt lat="42.37124" lon="2.18431">
        <ele>1372</ele>
        <time>2024-09-25T14:45:35Z</time>
      </trkpt>
      <trkpt lat="42.37124" lon="2.18431">
        <ele>1371.9</ele>
        <time>2024-09-25T14:45:36Z</time>
      </trkpt>
      <trkpt lat="42.37124" lon="2.18431">
        <ele>1371.9</ele>
        <time>2024-09-25T14:45:37Z</time>
      </trkpt>
      <trkpt lat="42.37124" lon="2.18431">
        <ele>1371.9</ele>
        <time>2024-09-25T14:45:38Z</time>
      </trkpt>
      <trkpt lat="42.37124" lon="2.18431">
        <ele>1371.9</ele>
        <time>2024-09-25T14:45:39Z</time>
      </trkpt>
      <trkpt lat="42.37124" lon="2.18431">
        <ele>1371.9</ele>
        <time>2024-09-25T14:45:40Z</time>
      </trkpt>
      <trkpt lat="42.37124" lon="2.18431">
        <ele>1371.9</ele>
        <time>2024-09-25T14:45:41Z</time>
      </trkpt>
      <trkpt lat="42.37123" lon="2.1843">
        <ele>1371.9</ele>
        <time>2024-09-25T14:45:42Z</time>
      </trkpt>
      <trkpt lat="42.37123" lon="2.18429">
        <ele>1371.8</ele>
        <time>2024-09-25T14:45:43Z</time>
      </trkpt>
      <trkpt lat="42.37123" lon="2.18429">
        <ele>1371.7</ele>
        <time>2024-09-25T14:45:44Z</time>
      </trkpt>
      <trkpt lat="42.37122" lon="2.18429">
        <ele>1371.7</ele>
        <time>2024-09-25T14:45:45Z</time>
      </trkpt>
      <trkpt lat="42.3712" lon="2.18429">
        <ele>1371.5</ele>
        <time>2024-09-25T14:45:46Z</time>
      </trkpt>
      <trkpt lat="42.37118" lon="2.18428">
        <ele>1371.3</ele>
        <time>2024-09-25T14:45:47Z</time>
      </trkpt>
      <trkpt lat="42.37118" lon="2.18428">
        <ele>1371.3</ele>
        <time>2024-09-25T14:45:48Z</time>
      </trkpt>
      <trkpt lat="42.37117" lon="2.18428">
        <ele>1371.2</ele>
        <time>2024-09-25T14:45:49Z</time>
      </trkpt>
      <trkpt lat="42.37116" lon="2.18429">
        <ele>1371.1</ele>
        <time>2024-09-25T14:45:50Z</time>
      </trkpt>
      <trkpt lat="42.37115" lon="2.18429">
        <ele>1371</ele>
        <time>2024-09-25T14:45:51Z</time>
      </trkpt>
      <trkpt lat="42.37114" lon="2.18429">
        <ele>1370.9</ele>
        <time>2024-09-25T14:45:52Z</time>
      </trkpt>
      <trkpt lat="42.37113" lon="2.18429">
        <ele>1370.8</ele>
        <time>2024-09-25T14:45:53Z</time>
      </trkpt>
      <trkpt lat="42.37112" lon="2.18429">
        <ele>1370.7</ele>
        <time>2024-09-25T14:45:54Z</time>
      </trkpt>
      <trkpt lat="42.37111" lon="2.18428">
        <ele>1370.6</ele>
        <time>2024-09-25T14:45:55Z</time>
      </trkpt>
      <trkpt lat="42.3711" lon="2.18428">
        <ele>1370.5</ele>
        <time>2024-09-25T14:45:56Z</time>
      </trkpt>
      <trkpt lat="42.37109" lon="2.18427">
        <ele>1370.4</ele>
        <time>2024-09-25T14:45:57Z</time>
      </trkpt>
      <trkpt lat="42.37108" lon="2.18426">
        <ele>1370.2</ele>
        <time>2024-09-25T14:45:58Z</time>
      </trkpt>
      <trkpt lat="42.37107" lon="2.18426">
        <ele>1370.1</ele>
        <time>2024-09-25T14:45:59Z</time>
      </trkpt>
      <trkpt lat="42.37107" lon="2.18424">
        <ele>1370</ele>
        <time>2024-09-25T14:46:00Z</time>
      </trkpt>
      <trkpt lat="42.37107" lon="2.18423">
        <ele>1369.8</ele>
        <time>2024-09-25T14:46:01Z</time>
      </trkpt>
      <trkpt lat="42.37107" lon="2.18421">
        <ele>1369.7</ele>
        <time>2024-09-25T14:46:02Z</time>
      </trkpt>
      <trkpt lat="42.37106" lon="2.1842">
        <ele>1369.6</ele>
        <time>2024-09-25T14:46:03Z</time>
      </trkpt>
      <trkpt lat="42.37106" lon="2.18418">
        <ele>1369.5</ele>
        <time>2024-09-25T14:46:04Z</time>
      </trkpt>
      <trkpt lat="42.37105" lon="2.18417">
        <ele>1369.3</ele>
        <time>2024-09-25T14:46:05Z</time>
      </trkpt>
      <trkpt lat="42.37104" lon="2.18416">
        <ele>1369.2</ele>
        <time>2024-09-25T14:46:06Z</time>
      </trkpt>
      <trkpt lat="42.37103" lon="2.18415">
        <ele>1369.1</ele>
        <time>2024-09-25T14:46:07Z</time>
      </trkpt>
      <trkpt lat="42.37102" lon="2.18414">
        <ele>1369</ele>
        <time>2024-09-25T14:46:08Z</time>
      </trkpt>
      <trkpt lat="42.37102" lon="2.18413">
        <ele>1369</ele>
        <time>2024-09-25T14:46:09Z</time>
      </trkpt>
      <trkpt lat="42.37101" lon="2.18412">
        <ele>1368.9</ele>
        <time>2024-09-25T14:46:10Z</time>
      </trkpt>
      <trkpt lat="42.371" lon="2.18411">
        <ele>1368.8</ele>
        <time>2024-09-25T14:46:11Z</time>
      </trkpt>
      <trkpt lat="42.371" lon="2.1841">
        <ele>1368.7</ele>
        <time>2024-09-25T14:46:12Z</time>
      </trkpt>
      <trkpt lat="42.371" lon="2.18409">
        <ele>1368.7</ele>
        <time>2024-09-25T14:46:13Z</time>
      </trkpt>
      <trkpt lat="42.371" lon="2.18408">
        <ele>1368.6</ele>
        <time>2024-09-25T14:46:14Z</time>
      </trkpt>
      <trkpt lat="42.371" lon="2.18407">
        <ele>1368.6</ele>
        <time>2024-09-25T14:46:15Z</time>
      </trkpt>
      <trkpt lat="42.37099" lon="2.18406">
        <ele>1368.5</ele>
        <time>2024-09-25T14:46:16Z</time>
      </trkpt>
      <trkpt lat="42.37099" lon="2.18406">
        <ele>1368.5</ele>
        <time>2024-09-25T14:46:17Z</time>
      </trkpt>
      <trkpt lat="42.37099" lon="2.18405">
        <ele>1368.5</ele>
        <time>2024-09-25T14:46:18Z</time>
      </trkpt>
      <trkpt lat="42.37098" lon="2.18405">
        <ele>1368.4</ele>
        <time>2024-09-25T14:46:19Z</time>
      </trkpt>
      <trkpt lat="42.37097" lon="2.18404">
        <ele>1368.4</ele>
        <time>2024-09-25T14:46:20Z</time>
      </trkpt>
      <trkpt lat="42.37097" lon="2.18404">
        <ele>1368.3</ele>
        <time>2024-09-25T14:46:21Z</time>
      </trkpt>
      <trkpt lat="42.37096" lon="2.18403">
        <ele>1368.3</ele>
        <time>2024-09-25T14:46:22Z</time>
      </trkpt>
      <trkpt lat="42.37095" lon="2.18403">
        <ele>1368.3</ele>
        <time>2024-09-25T14:46:23Z</time>
      </trkpt>
      <trkpt lat="42.37094" lon="2.18403">
        <ele>1368.2</ele>
        <time>2024-09-25T14:46:24Z</time>
      </trkpt>
      <trkpt lat="42.37094" lon="2.18402">
        <ele>1368.2</ele>
        <time>2024-09-25T14:46:25Z</time>
      </trkpt>
      <trkpt lat="42.37093" lon="2.18401">
        <ele>1368.1</ele>
        <time>2024-09-25T14:46:26Z</time>
      </trkpt>
      <trkpt lat="42.37093" lon="2.184">
        <ele>1368.1</ele>
        <time>2024-09-25T14:46:27Z</time>
      </trkpt>
      <trkpt lat="42.37093" lon="2.18398">
        <ele>1368</ele>
        <time>2024-09-25T14:46:28Z</time>
      </trkpt>
      <trkpt lat="42.37092" lon="2.18398">
        <ele>1368</ele>
        <time>2024-09-25T14:46:29Z</time>
      </trkpt>
      <trkpt lat="42.37092" lon="2.18396">
        <ele>1368</ele>
        <time>2024-09-25T14:46:30Z</time>
      </trkpt>
      <trkpt lat="42.37092" lon="2.18395">
        <ele>1367.9</ele>
        <time>2024-09-25T14:46:31Z</time>
      </trkpt>
      <trkpt lat="42.37091" lon="2.18394">
        <ele>1367.9</ele>
        <time>2024-09-25T14:46:32Z</time>
      </trkpt>
      <trkpt lat="42.37091" lon="2.18392">
        <ele>1367.9</ele>
        <time>2024-09-25T14:46:33Z</time>
      </trkpt>
      <trkpt lat="42.3709" lon="2.18392">
        <ele>1367.8</ele>
        <time>2024-09-25T14:46:34Z</time>
      </trkpt>
      <trkpt lat="42.37089" lon="2.18391">
        <ele>1367.7</ele>
        <time>2024-09-25T14:46:35Z</time>
      </trkpt>
      <trkpt lat="42.37087" lon="2.1839">
        <ele>1367.6</ele>
        <time>2024-09-25T14:46:36Z</time>
      </trkpt>
      <trkpt lat="42.37086" lon="2.18389">
        <ele>1367.5</ele>
        <time>2024-09-25T14:46:37Z</time>
      </trkpt>
      <trkpt lat="42.37085" lon="2.18389">
        <ele>1367.5</ele>
        <time>2024-09-25T14:46:38Z</time>
      </trkpt>
      <trkpt lat="42.37084" lon="2.18388">
        <ele>1367.4</ele>
        <time>2024-09-25T14:46:39Z</time>
      </trkpt>
      <trkpt lat="42.37084" lon="2.18387">
        <ele>1367.3</ele>
        <time>2024-09-25T14:46:40Z</time>
      </trkpt>
      <trkpt lat="42.37083" lon="2.18387">
        <ele>1367.2</ele>
        <time>2024-09-25T14:46:41Z</time>
      </trkpt>
      <trkpt lat="42.37082" lon="2.18386">
        <ele>1367.1</ele>
        <time>2024-09-25T14:46:42Z</time>
      </trkpt>
      <trkpt lat="42.37082" lon="2.18385">
        <ele>1367</ele>
        <time>2024-09-25T14:46:43Z</time>
      </trkpt>
      <trkpt lat="42.37081" lon="2.18384">
        <ele>1367</ele>
        <time>2024-09-25T14:46:44Z</time>
      </trkpt>
      <trkpt lat="42.3708" lon="2.18383">
        <ele>1366.8</ele>
        <time>2024-09-25T14:46:45Z</time>
      </trkpt>
      <trkpt lat="42.3708" lon="2.18383">
        <ele>1366.8</ele>
        <time>2024-09-25T14:46:46Z</time>
      </trkpt>
      <trkpt lat="42.37079" lon="2.18383">
        <ele>1366.6</ele>
        <time>2024-09-25T14:46:47Z</time>
      </trkpt>
      <trkpt lat="42.37078" lon="2.18382">
        <ele>1366.6</ele>
        <time>2024-09-25T14:46:48Z</time>
      </trkpt>
      <trkpt lat="42.37077" lon="2.18382">
        <ele>1366.5</ele>
        <time>2024-09-25T14:46:49Z</time>
      </trkpt>
      <trkpt lat="42.37076" lon="2.18382">
        <ele>1366.3</ele>
        <time>2024-09-25T14:46:50Z</time>
      </trkpt>
      <trkpt lat="42.37075" lon="2.18381">
        <ele>1366.1</ele>
        <time>2024-09-25T14:46:51Z</time>
      </trkpt>
      <trkpt lat="42.37075" lon="2.1838">
        <ele>1366</ele>
        <time>2024-09-25T14:46:52Z</time>
      </trkpt>
      <trkpt lat="42.37074" lon="2.18379">
        <ele>1365.9</ele>
        <time>2024-09-25T14:46:53Z</time>
      </trkpt>
      <trkpt lat="42.37074" lon="2.18378">
        <ele>1365.8</ele>
        <time>2024-09-25T14:46:54Z</time>
      </trkpt>
      <trkpt lat="42.37074" lon="2.18378">
        <ele>1365.7</ele>
        <time>2024-09-25T14:46:55Z</time>
      </trkpt>
      <trkpt lat="42.37075" lon="2.18378">
        <ele>1365.6</ele>
        <time>2024-09-25T14:46:56Z</time>
      </trkpt>
      <trkpt lat="42.37075" lon="2.18377">
        <ele>1365.6</ele>
        <time>2024-09-25T14:46:57Z</time>
      </trkpt>
      <trkpt lat="42.37075" lon="2.18377">
        <ele>1365.6</ele>
        <time>2024-09-25T14:46:58Z</time>
      </trkpt>
      <trkpt lat="42.37074" lon="2.18377">
        <ele>1365.5</ele>
        <time>2024-09-25T14:46:59Z</time>
      </trkpt>
      <trkpt lat="42.37074" lon="2.18376">
        <ele>1365.3</ele>
        <time>2024-09-25T14:47:00Z</time>
      </trkpt>
      <trkpt lat="42.37073" lon="2.18375">
        <ele>1365.2</ele>
        <time>2024-09-25T14:47:01Z</time>
      </trkpt>
      <trkpt lat="42.37073" lon="2.18375">
        <ele>1365.1</ele>
        <time>2024-09-25T14:47:02Z</time>
      </trkpt>
      <trkpt lat="42.37073" lon="2.18375">
        <ele>1365.1</ele>
        <time>2024-09-25T14:47:03Z</time>
      </trkpt>
      <trkpt lat="42.37073" lon="2.18376">
        <ele>1365</ele>
        <time>2024-09-25T14:47:04Z</time>
      </trkpt>
      <trkpt lat="42.37073" lon="2.18376">
        <ele>1365</ele>
        <time>2024-09-25T14:47:05Z</time>
      </trkpt>
      <trkpt lat="42.37073" lon="2.18376">
        <ele>1365</ele>
        <time>2024-09-25T14:47:06Z</time>
      </trkpt>
      <trkpt lat="42.37073" lon="2.18376">
        <ele>1365</ele>
        <time>2024-09-25T14:47:07Z</time>
      </trkpt>
      <trkpt lat="42.37073" lon="2.18376">
        <ele>1365</ele>
        <time>2024-09-25T14:47:08Z</time>
      </trkpt>
      <trkpt lat="42.37072" lon="2.18376">
        <ele>1365</ele>
        <time>2024-09-25T14:47:09Z</time>
      </trkpt>
      <trkpt lat="42.37072" lon="2.18376">
        <ele>1365</ele>
        <time>2024-09-25T14:47:10Z</time>
      </trkpt>
      <trkpt lat="42.37072" lon="2.18376">
        <ele>1365</ele>
        <time>2024-09-25T14:47:11Z</time>
      </trkpt>
      <trkpt lat="42.37072" lon="2.18376">
        <ele>1364.9</ele>
        <time>2024-09-25T14:47:12Z</time>
      </trkpt>
      <trkpt lat="42.37072" lon="2.18376">
        <ele>1364.9</ele>
        <time>2024-09-25T14:47:13Z</time>
      </trkpt>
      <trkpt lat="42.37072" lon="2.18375">
        <ele>1364.9</ele>
        <time>2024-09-25T14:47:14Z</time>
      </trkpt>
      <trkpt lat="42.37072" lon="2.18375">
        <ele>1364.8</ele>
        <time>2024-09-25T14:47:15Z</time>
      </trkpt>
      <trkpt lat="42.37072" lon="2.18374">
        <ele>1364.8</ele>
        <time>2024-09-25T14:47:16Z</time>
      </trkpt>
      <trkpt lat="42.37071" lon="2.18374">
        <ele>1364.7</ele>
        <time>2024-09-25T14:47:17Z</time>
      </trkpt>
      <trkpt lat="42.37071" lon="2.18374">
        <ele>1364.6</ele>
        <time>2024-09-25T14:47:18Z</time>
      </trkpt>
      <trkpt lat="42.3707" lon="2.18373">
        <ele>1364.5</ele>
        <time>2024-09-25T14:47:19Z</time>
      </trkpt>
      <trkpt lat="42.37069" lon="2.18373">
        <ele>1364.3</ele>
        <time>2024-09-25T14:47:20Z</time>
      </trkpt>
      <trkpt lat="42.37069" lon="2.18372">
        <ele>1364.2</ele>
        <time>2024-09-25T14:47:21Z</time>
      </trkpt>
      <trkpt lat="42.37068" lon="2.18372">
        <ele>1364</ele>
        <time>2024-09-25T14:47:22Z</time>
      </trkpt>
      <trkpt lat="42.37067" lon="2.18371">
        <ele>1363.9</ele>
        <time>2024-09-25T14:47:23Z</time>
      </trkpt>
      <trkpt lat="42.37067" lon="2.1837">
        <ele>1363.8</ele>
        <time>2024-09-25T14:47:24Z</time>
      </trkpt>
      <trkpt lat="42.37066" lon="2.18369">
        <ele>1363.6</ele>
        <time>2024-09-25T14:47:25Z</time>
      </trkpt>
      <trkpt lat="42.37066" lon="2.18368">
        <ele>1363.5</ele>
        <time>2024-09-25T14:47:26Z</time>
      </trkpt>
      <trkpt lat="42.37065" lon="2.18367">
        <ele>1363.4</ele>
        <time>2024-09-25T14:47:27Z</time>
      </trkpt>
      <trkpt lat="42.37064" lon="2.18367">
        <ele>1363.3</ele>
        <time>2024-09-25T14:47:28Z</time>
      </trkpt>
      <trkpt lat="42.37064" lon="2.18366">
        <ele>1363.2</ele>
        <time>2024-09-25T14:47:29Z</time>
      </trkpt>
      <trkpt lat="42.37063" lon="2.18366">
        <ele>1363.1</ele>
        <time>2024-09-25T14:47:30Z</time>
      </trkpt>
      <trkpt lat="42.37063" lon="2.18365">
        <ele>1363</ele>
        <time>2024-09-25T14:47:31Z</time>
      </trkpt>
      <trkpt lat="42.37062" lon="2.18365">
        <ele>1363</ele>
        <time>2024-09-25T14:47:32Z</time>
      </trkpt>
      <trkpt lat="42.37062" lon="2.18364">
        <ele>1362.8</ele>
        <time>2024-09-25T14:47:33Z</time>
      </trkpt>
      <trkpt lat="42.37061" lon="2.18363">
        <ele>1362.7</ele>
        <time>2024-09-25T14:47:34Z</time>
      </trkpt>
      <trkpt lat="42.37061" lon="2.18362">
        <ele>1362.6</ele>
        <time>2024-09-25T14:47:35Z</time>
      </trkpt>
      <trkpt lat="42.37061" lon="2.18361">
        <ele>1362.5</ele>
        <time>2024-09-25T14:47:36Z</time>
      </trkpt>
      <trkpt lat="42.37061" lon="2.1836">
        <ele>1362.4</ele>
        <time>2024-09-25T14:47:37Z</time>
      </trkpt>
      <trkpt lat="42.37061" lon="2.18359">
        <ele>1362.4</ele>
        <time>2024-09-25T14:47:38Z</time>
      </trkpt>
      <trkpt lat="42.37061" lon="2.18359">
        <ele>1362.3</ele>
        <time>2024-09-25T14:47:39Z</time>
      </trkpt>
      <trkpt lat="42.3706" lon="2.18358">
        <ele>1362.3</ele>
        <time>2024-09-25T14:47:40Z</time>
      </trkpt>
      <trkpt lat="42.3706" lon="2.18358">
        <ele>1362.2</ele>
        <time>2024-09-25T14:47:41Z</time>
      </trkpt>
      <trkpt lat="42.37059" lon="2.18358">
        <ele>1362.2</ele>
        <time>2024-09-25T14:47:42Z</time>
      </trkpt>
      <trkpt lat="42.37059" lon="2.18358">
        <ele>1362.1</ele>
        <time>2024-09-25T14:47:43Z</time>
      </trkpt>
      <trkpt lat="42.37058" lon="2.18358">
        <ele>1362.1</ele>
        <time>2024-09-25T14:47:44Z</time>
      </trkpt>
      <trkpt lat="42.37058" lon="2.18358">
        <ele>1362.1</ele>
        <time>2024-09-25T14:47:45Z</time>
      </trkpt>
      <trkpt lat="42.37058" lon="2.18358">
        <ele>1362</ele>
        <time>2024-09-25T14:47:46Z</time>
      </trkpt>
      <trkpt lat="42.37057" lon="2.18358">
        <ele>1361.9</ele>
        <time>2024-09-25T14:47:47Z</time>
      </trkpt>
      <trkpt lat="42.37056" lon="2.18357">
        <ele>1361.9</ele>
        <time>2024-09-25T14:47:48Z</time>
      </trkpt>
      <trkpt lat="42.37055" lon="2.18357">
        <ele>1361.8</ele>
        <time>2024-09-25T14:47:49Z</time>
      </trkpt>
      <trkpt lat="42.37054" lon="2.18356">
        <ele>1361.7</ele>
        <time>2024-09-25T14:47:50Z</time>
      </trkpt>
      <trkpt lat="42.37053" lon="2.18356">
        <ele>1361.6</ele>
        <time>2024-09-25T14:47:51Z</time>
      </trkpt>
      <trkpt lat="42.37052" lon="2.18356">
        <ele>1361.5</ele>
        <time>2024-09-25T14:47:52Z</time>
      </trkpt>
      <trkpt lat="42.37051" lon="2.18356">
        <ele>1361.5</ele>
        <time>2024-09-25T14:47:53Z</time>
      </trkpt>
      <trkpt lat="42.3705" lon="2.18354">
        <ele>1361.3</ele>
        <time>2024-09-25T14:47:54Z</time>
      </trkpt>
      <trkpt lat="42.37049" lon="2.18352">
        <ele>1361.2</ele>
        <time>2024-09-25T14:47:55Z</time>
      </trkpt>
      <trkpt lat="42.37047" lon="2.1835">
        <ele>1361.1</ele>
        <time>2024-09-25T14:47:56Z</time>
      </trkpt>
      <trkpt lat="42.37047" lon="2.18349">
        <ele>1361.1</ele>
        <time>2024-09-25T14:47:57Z</time>
      </trkpt>
      <trkpt lat="42.37046" lon="2.18348">
        <ele>1361</ele>
        <time>2024-09-25T14:47:58Z</time>
      </trkpt>
      <trkpt lat="42.37046" lon="2.18347">
        <ele>1360.9</ele>
        <time>2024-09-25T14:47:59Z</time>
      </trkpt>
      <trkpt lat="42.37045" lon="2.18346">
        <ele>1360.8</ele>
        <time>2024-09-25T14:48:00Z</time>
      </trkpt>
      <trkpt lat="42.37044" lon="2.18345">
        <ele>1360.8</ele>
        <time>2024-09-25T14:48:01Z</time>
      </trkpt>
      <trkpt lat="42.37043" lon="2.18344">
        <ele>1360.7</ele>
        <time>2024-09-25T14:48:02Z</time>
      </trkpt>
      <trkpt lat="42.37042" lon="2.18343">
        <ele>1360.6</ele>
        <time>2024-09-25T14:48:03Z</time>
      </trkpt>
      <trkpt lat="42.37041" lon="2.18342">
        <ele>1360.5</ele>
        <time>2024-09-25T14:48:04Z</time>
      </trkpt>
      <trkpt lat="42.3704" lon="2.18341">
        <ele>1360.5</ele>
        <time>2024-09-25T14:48:05Z</time>
      </trkpt>
      <trkpt lat="42.3704" lon="2.18341">
        <ele>1360.4</ele>
        <time>2024-09-25T14:48:06Z</time>
      </trkpt>
      <trkpt lat="42.37039" lon="2.1834">
        <ele>1360.4</ele>
        <time>2024-09-25T14:48:07Z</time>
      </trkpt>
      <trkpt lat="42.37038" lon="2.1834">
        <ele>1360.3</ele>
        <time>2024-09-25T14:48:08Z</time>
      </trkpt>
      <trkpt lat="42.37037" lon="2.18339">
        <ele>1360.2</ele>
        <time>2024-09-25T14:48:09Z</time>
      </trkpt>
      <trkpt lat="42.37037" lon="2.18338">
        <ele>1360.1</ele>
        <time>2024-09-25T14:48:10Z</time>
      </trkpt>
      <trkpt lat="42.37036" lon="2.18337">
        <ele>1360</ele>
        <time>2024-09-25T14:48:11Z</time>
      </trkpt>
      <trkpt lat="42.37035" lon="2.18334">
        <ele>1359.8</ele>
        <time>2024-09-25T14:48:12Z</time>
      </trkpt>
      <trkpt lat="42.37035" lon="2.18333">
        <ele>1359.7</ele>
        <time>2024-09-25T14:48:13Z</time>
      </trkpt>
      <trkpt lat="42.37035" lon="2.18332">
        <ele>1359.6</ele>
        <time>2024-09-25T14:48:14Z</time>
      </trkpt>
      <trkpt lat="42.37034" lon="2.1833">
        <ele>1359.5</ele>
        <time>2024-09-25T14:48:15Z</time>
      </trkpt>
      <trkpt lat="42.37034" lon="2.18329">
        <ele>1359.3</ele>
        <time>2024-09-25T14:48:16Z</time>
      </trkpt>
      <trkpt lat="42.37033" lon="2.18328">
        <ele>1359.1</ele>
        <time>2024-09-25T14:48:17Z</time>
      </trkpt>
      <trkpt lat="42.37032" lon="2.18326">
        <ele>1359</ele>
        <time>2024-09-25T14:48:18Z</time>
      </trkpt>
      <trkpt lat="42.37031" lon="2.18325">
        <ele>1358.8</ele>
        <time>2024-09-25T14:48:19Z</time>
      </trkpt>
      <trkpt lat="42.37031" lon="2.18324">
        <ele>1358.7</ele>
        <time>2024-09-25T14:48:20Z</time>
      </trkpt>
      <trkpt lat="42.3703" lon="2.18323">
        <ele>1358.5</ele>
        <time>2024-09-25T14:48:21Z</time>
      </trkpt>
      <trkpt lat="42.3703" lon="2.18322">
        <ele>1358.3</ele>
        <time>2024-09-25T14:48:22Z</time>
      </trkpt>
      <trkpt lat="42.37029" lon="2.18321">
        <ele>1358.1</ele>
        <time>2024-09-25T14:48:23Z</time>
      </trkpt>
      <trkpt lat="42.37028" lon="2.1832">
        <ele>1357.9</ele>
        <time>2024-09-25T14:48:24Z</time>
      </trkpt>
      <trkpt lat="42.37027" lon="2.1832">
        <ele>1357.8</ele>
        <time>2024-09-25T14:48:25Z</time>
      </trkpt>
      <trkpt lat="42.37026" lon="2.1832">
        <ele>1357.7</ele>
        <time>2024-09-25T14:48:26Z</time>
      </trkpt>
      <trkpt lat="42.37026" lon="2.18319">
        <ele>1357.5</ele>
        <time>2024-09-25T14:48:27Z</time>
      </trkpt>
      <trkpt lat="42.37024" lon="2.18318">
        <ele>1357.2</ele>
        <time>2024-09-25T14:48:28Z</time>
      </trkpt>
      <trkpt lat="42.37024" lon="2.18317">
        <ele>1357</ele>
        <time>2024-09-25T14:48:29Z</time>
      </trkpt>
      <trkpt lat="42.37023" lon="2.18317">
        <ele>1356.9</ele>
        <time>2024-09-25T14:48:30Z</time>
      </trkpt>
      <trkpt lat="42.37023" lon="2.18316">
        <ele>1356.8</ele>
        <time>2024-09-25T14:48:31Z</time>
      </trkpt>
      <trkpt lat="42.37022" lon="2.18315">
        <ele>1356.6</ele>
        <time>2024-09-25T14:48:32Z</time>
      </trkpt>
      <trkpt lat="42.37022" lon="2.18314">
        <ele>1356.4</ele>
        <time>2024-09-25T14:48:33Z</time>
      </trkpt>
      <trkpt lat="42.37021" lon="2.18314">
        <ele>1356.2</ele>
        <time>2024-09-25T14:48:34Z</time>
      </trkpt>
      <trkpt lat="42.3702" lon="2.18313">
        <ele>1356.1</ele>
        <time>2024-09-25T14:48:35Z</time>
      </trkpt>
      <trkpt lat="42.3702" lon="2.18313">
        <ele>1356.1</ele>
        <time>2024-09-25T14:48:36Z</time>
      </trkpt>
      <trkpt lat="42.3702" lon="2.18313">
        <ele>1356</ele>
        <time>2024-09-25T14:48:37Z</time>
      </trkpt>
      <trkpt lat="42.3702" lon="2.18313">
        <ele>1355.9</ele>
        <time>2024-09-25T14:48:38Z</time>
      </trkpt>
      <trkpt lat="42.3702" lon="2.18312">
        <ele>1355.9</ele>
        <time>2024-09-25T14:48:39Z</time>
      </trkpt>
      <trkpt lat="42.3702" lon="2.18312">
        <ele>1355.8</ele>
        <time>2024-09-25T14:48:40Z</time>
      </trkpt>
      <trkpt lat="42.3702" lon="2.18311">
        <ele>1355.7</ele>
        <time>2024-09-25T14:48:41Z</time>
      </trkpt>
      <trkpt lat="42.3702" lon="2.18311">
        <ele>1355.7</ele>
        <time>2024-09-25T14:48:42Z</time>
      </trkpt>
      <trkpt lat="42.3702" lon="2.18311">
        <ele>1355.6</ele>
        <time>2024-09-25T14:48:43Z</time>
      </trkpt>
      <trkpt lat="42.3702" lon="2.1831">
        <ele>1355.5</ele>
        <time>2024-09-25T14:48:44Z</time>
      </trkpt>
      <trkpt lat="42.3702" lon="2.1831">
        <ele>1355.5</ele>
        <time>2024-09-25T14:48:45Z</time>
      </trkpt>
      <trkpt lat="42.3702" lon="2.1831">
        <ele>1355.4</ele>
        <time>2024-09-25T14:48:46Z</time>
      </trkpt>
      <trkpt lat="42.3702" lon="2.18309">
        <ele>1355.3</ele>
        <time>2024-09-25T14:48:47Z</time>
      </trkpt>
      <trkpt lat="42.3702" lon="2.18309">
        <ele>1355.3</ele>
        <time>2024-09-25T14:48:48Z</time>
      </trkpt>
      <trkpt lat="42.3702" lon="2.18308">
        <ele>1355.2</ele>
        <time>2024-09-25T14:48:49Z</time>
      </trkpt>
      <trkpt lat="42.37019" lon="2.18307">
        <ele>1355</ele>
        <time>2024-09-25T14:48:50Z</time>
      </trkpt>
      <trkpt lat="42.37019" lon="2.18307">
        <ele>1354.9</ele>
        <time>2024-09-25T14:48:51Z</time>
      </trkpt>
      <trkpt lat="42.37019" lon="2.18306">
        <ele>1354.7</ele>
        <time>2024-09-25T14:48:52Z</time>
      </trkpt>
      <trkpt lat="42.37019" lon="2.18305">
        <ele>1354.6</ele>
        <time>2024-09-25T14:48:53Z</time>
      </trkpt>
      <trkpt lat="42.37019" lon="2.18304">
        <ele>1354.4</ele>
        <time>2024-09-25T14:48:54Z</time>
      </trkpt>
      <trkpt lat="42.37019" lon="2.18304">
        <ele>1354.4</ele>
        <time>2024-09-25T14:48:55Z</time>
      </trkpt>
      <trkpt lat="42.37019" lon="2.18304">
        <ele>1354.3</ele>
        <time>2024-09-25T14:48:56Z</time>
      </trkpt>
      <trkpt lat="42.37018" lon="2.18304">
        <ele>1354.3</ele>
        <time>2024-09-25T14:48:57Z</time>
      </trkpt>
      <trkpt lat="42.37019" lon="2.18304">
        <ele>1354.2</ele>
        <time>2024-09-25T14:48:58Z</time>
      </trkpt>
      <trkpt lat="42.37018" lon="2.18303">
        <ele>1354.1</ele>
        <time>2024-09-25T14:48:59Z</time>
      </trkpt>
      <trkpt lat="42.37018" lon="2.18302">
        <ele>1353.9</ele>
        <time>2024-09-25T14:49:00Z</time>
      </trkpt>
      <trkpt lat="42.37018" lon="2.18301">
        <ele>1353.7</ele>
        <time>2024-09-25T14:49:01Z</time>
      </trkpt>
      <trkpt lat="42.37017" lon="2.183">
        <ele>1353.5</ele>
        <time>2024-09-25T14:49:02Z</time>
      </trkpt>
      <trkpt lat="42.37017" lon="2.18299">
        <ele>1353.3</ele>
        <time>2024-09-25T14:49:03Z</time>
      </trkpt>
      <trkpt lat="42.37017" lon="2.18298">
        <ele>1353.1</ele>
        <time>2024-09-25T14:49:04Z</time>
      </trkpt>
      <trkpt lat="42.37016" lon="2.18297">
        <ele>1352.8</ele>
        <time>2024-09-25T14:49:05Z</time>
      </trkpt>
      <trkpt lat="42.37015" lon="2.18297">
        <ele>1352.6</ele>
        <time>2024-09-25T14:49:06Z</time>
      </trkpt>
      <trkpt lat="42.37015" lon="2.18296">
        <ele>1352.4</ele>
        <time>2024-09-25T14:49:07Z</time>
      </trkpt>
      <trkpt lat="42.37014" lon="2.18296">
        <ele>1352.2</ele>
        <time>2024-09-25T14:49:08Z</time>
      </trkpt>
      <trkpt lat="42.37014" lon="2.18296">
        <ele>1352.1</ele>
        <time>2024-09-25T14:49:09Z</time>
      </trkpt>
      <trkpt lat="42.37013" lon="2.18296">
        <ele>1351.9</ele>
        <time>2024-09-25T14:49:10Z</time>
      </trkpt>
      <trkpt lat="42.37013" lon="2.18296">
        <ele>1351.8</ele>
        <time>2024-09-25T14:49:11Z</time>
      </trkpt>
      <trkpt lat="42.37012" lon="2.18296">
        <ele>1351.7</ele>
        <time>2024-09-25T14:49:12Z</time>
      </trkpt>
      <trkpt lat="42.37012" lon="2.18296">
        <ele>1351.6</ele>
        <time>2024-09-25T14:49:13Z</time>
      </trkpt>
      <trkpt lat="42.37012" lon="2.18297">
        <ele>1351.5</ele>
        <time>2024-09-25T14:49:14Z</time>
      </trkpt>
      <trkpt lat="42.37011" lon="2.18297">
        <ele>1351.3</ele>
        <time>2024-09-25T14:49:15Z</time>
      </trkpt>
      <trkpt lat="42.37011" lon="2.18297">
        <ele>1351.2</ele>
        <time>2024-09-25T14:49:16Z</time>
      </trkpt>
      <trkpt lat="42.3701" lon="2.18297">
        <ele>1351.1</ele>
        <time>2024-09-25T14:49:17Z</time>
      </trkpt>
      <trkpt lat="42.3701" lon="2.18298">
        <ele>1351</ele>
        <time>2024-09-25T14:49:18Z</time>
      </trkpt>
      <trkpt lat="42.3701" lon="2.18298">
        <ele>1350.9</ele>
        <time>2024-09-25T14:49:19Z</time>
      </trkpt>
      <trkpt lat="42.37009" lon="2.18298">
        <ele>1350.7</ele>
        <time>2024-09-25T14:49:20Z</time>
      </trkpt>
      <trkpt lat="42.37009" lon="2.18298">
        <ele>1350.7</ele>
        <time>2024-09-25T14:49:21Z</time>
      </trkpt>
      <trkpt lat="42.37009" lon="2.18298">
        <ele>1350.6</ele>
        <time>2024-09-25T14:49:22Z</time>
      </trkpt>
      <trkpt lat="42.37009" lon="2.18298">
        <ele>1350.6</ele>
        <time>2024-09-25T14:49:23Z</time>
      </trkpt>
      <trkpt lat="42.37009" lon="2.18298">
        <ele>1350.5</ele>
        <time>2024-09-25T14:49:24Z</time>
      </trkpt>
      <trkpt lat="42.37009" lon="2.18298">
        <ele>1350.5</ele>
        <time>2024-09-25T14:49:25Z</time>
      </trkpt>
      <trkpt lat="42.37008" lon="2.18298">
        <ele>1350.4</ele>
        <time>2024-09-25T14:49:26Z</time>
      </trkpt>
      <trkpt lat="42.37008" lon="2.18299">
        <ele>1350.3</ele>
        <time>2024-09-25T14:49:27Z</time>
      </trkpt>
      <trkpt lat="42.37008" lon="2.18299">
        <ele>1350.2</ele>
        <time>2024-09-25T14:49:28Z</time>
      </trkpt>
      <trkpt lat="42.37007" lon="2.18299">
        <ele>1350</ele>
        <time>2024-09-25T14:49:29Z</time>
      </trkpt>
      <trkpt lat="42.37007" lon="2.18299">
        <ele>1349.9</ele>
        <time>2024-09-25T14:49:30Z</time>
      </trkpt>
      <trkpt lat="42.37006" lon="2.183">
        <ele>1349.7</ele>
        <time>2024-09-25T14:49:31Z</time>
      </trkpt>
      <trkpt lat="42.37006" lon="2.183">
        <ele>1349.6</ele>
        <time>2024-09-25T14:49:32Z</time>
      </trkpt>
      <trkpt lat="42.37005" lon="2.183">
        <ele>1349.5</ele>
        <time>2024-09-25T14:49:33Z</time>
      </trkpt>
      <trkpt lat="42.37005" lon="2.183">
        <ele>1349.4</ele>
        <time>2024-09-25T14:49:34Z</time>
      </trkpt>
      <trkpt lat="42.37004" lon="2.183">
        <ele>1349.3</ele>
        <time>2024-09-25T14:49:35Z</time>
      </trkpt>
      <trkpt lat="42.37004" lon="2.183">
        <ele>1349.1</ele>
        <time>2024-09-25T14:49:36Z</time>
      </trkpt>
      <trkpt lat="42.37003" lon="2.183">
        <ele>1348.9</ele>
        <time>2024-09-25T14:49:37Z</time>
      </trkpt>
      <trkpt lat="42.37003" lon="2.18301">
        <ele>1348.8</ele>
        <time>2024-09-25T14:49:38Z</time>
      </trkpt>
      <trkpt lat="42.37003" lon="2.18301">
        <ele>1348.8</ele>
        <time>2024-09-25T14:49:39Z</time>
      </trkpt>
      <trkpt lat="42.37002" lon="2.183">
        <ele>1348.7</ele>
        <time>2024-09-25T14:49:40Z</time>
      </trkpt>
      <trkpt lat="42.37002" lon="2.183">
        <ele>1348.6</ele>
        <time>2024-09-25T14:49:41Z</time>
      </trkpt>
      <trkpt lat="42.37002" lon="2.183">
        <ele>1348.6</ele>
        <time>2024-09-25T14:49:42Z</time>
      </trkpt>
      <trkpt lat="42.37002" lon="2.183">
        <ele>1348.4</ele>
        <time>2024-09-25T14:49:43Z</time>
      </trkpt>
      <trkpt lat="42.37001" lon="2.18301">
        <ele>1348.4</ele>
        <time>2024-09-25T14:49:44Z</time>
      </trkpt>
      <trkpt lat="42.37001" lon="2.18301">
        <ele>1348.3</ele>
        <time>2024-09-25T14:49:45Z</time>
      </trkpt>
      <trkpt lat="42.37001" lon="2.18301">
        <ele>1348.2</ele>
        <time>2024-09-25T14:49:46Z</time>
      </trkpt>
      <trkpt lat="42.37001" lon="2.18301">
        <ele>1348.2</ele>
        <time>2024-09-25T14:49:47Z</time>
      </trkpt>
      <trkpt lat="42.37001" lon="2.18302">
        <ele>1348.1</ele>
        <time>2024-09-25T14:49:48Z</time>
      </trkpt>
      <trkpt lat="42.37" lon="2.18302">
        <ele>1348</ele>
        <time>2024-09-25T14:49:49Z</time>
      </trkpt>
      <trkpt lat="42.37" lon="2.18302">
        <ele>1348</ele>
        <time>2024-09-25T14:49:50Z</time>
      </trkpt>
      <trkpt lat="42.37" lon="2.18302">
        <ele>1347.9</ele>
        <time>2024-09-25T14:49:51Z</time>
      </trkpt>
      <trkpt lat="42.37" lon="2.18302">
        <ele>1347.8</ele>
        <time>2024-09-25T14:49:52Z</time>
      </trkpt>
      <trkpt lat="42.37" lon="2.18302">
        <ele>1347.8</ele>
        <time>2024-09-25T14:49:53Z</time>
      </trkpt>
      <trkpt lat="42.37" lon="2.18303">
        <ele>1347.7</ele>
        <time>2024-09-25T14:49:54Z</time>
      </trkpt>
      <trkpt lat="42.36999" lon="2.18303">
        <ele>1347.7</ele>
        <time>2024-09-25T14:49:55Z</time>
      </trkpt>
      <trkpt lat="42.36999" lon="2.18303">
        <ele>1347.6</ele>
        <time>2024-09-25T14:49:56Z</time>
      </trkpt>
      <trkpt lat="42.36999" lon="2.18303">
        <ele>1347.6</ele>
        <time>2024-09-25T14:49:57Z</time>
      </trkpt>
      <trkpt lat="42.36999" lon="2.18303">
        <ele>1347.5</ele>
        <time>2024-09-25T14:49:58Z</time>
      </trkpt>
      <trkpt lat="42.36999" lon="2.18304">
        <ele>1347.4</ele>
        <time>2024-09-25T14:49:59Z</time>
      </trkpt>
      <trkpt lat="42.36998" lon="2.18304">
        <ele>1347.2</ele>
        <time>2024-09-25T14:50:00Z</time>
      </trkpt>
      <trkpt lat="42.36998" lon="2.18305">
        <ele>1347.1</ele>
        <time>2024-09-25T14:50:01Z</time>
      </trkpt>
      <trkpt lat="42.36998" lon="2.18305">
        <ele>1347</ele>
        <time>2024-09-25T14:50:02Z</time>
      </trkpt>
      <trkpt lat="42.36998" lon="2.18306">
        <ele>1346.9</ele>
        <time>2024-09-25T14:50:03Z</time>
      </trkpt>
      <trkpt lat="42.36997" lon="2.18305">
        <ele>1346.7</ele>
        <time>2024-09-25T14:50:04Z</time>
      </trkpt>
      <trkpt lat="42.36997" lon="2.18305">
        <ele>1346.6</ele>
        <time>2024-09-25T14:50:05Z</time>
      </trkpt>
      <trkpt lat="42.36997" lon="2.18306">
        <ele>1346.5</ele>
        <time>2024-09-25T14:50:06Z</time>
      </trkpt>
      <trkpt lat="42.36996" lon="2.18307">
        <ele>1346.3</ele>
        <time>2024-09-25T14:50:07Z</time>
      </trkpt>
      <trkpt lat="42.36995" lon="2.18307">
        <ele>1346.1</ele>
        <time>2024-09-25T14:50:08Z</time>
      </trkpt>
      <trkpt lat="42.36995" lon="2.18307">
        <ele>1345.9</ele>
        <time>2024-09-25T14:50:09Z</time>
      </trkpt>
      <trkpt lat="42.36994" lon="2.18308">
        <ele>1345.7</ele>
        <time>2024-09-25T14:50:10Z</time>
      </trkpt>
      <trkpt lat="42.36994" lon="2.18307">
        <ele>1345.6</ele>
        <time>2024-09-25T14:50:11Z</time>
      </trkpt>
      <trkpt lat="42.36993" lon="2.18307">
        <ele>1345.5</ele>
        <time>2024-09-25T14:50:12Z</time>
      </trkpt>
      <trkpt lat="42.36993" lon="2.18307">
        <ele>1345.4</ele>
        <time>2024-09-25T14:50:13Z</time>
      </trkpt>
      <trkpt lat="42.36992" lon="2.18307">
        <ele>1345.3</ele>
        <time>2024-09-25T14:50:14Z</time>
      </trkpt>
      <trkpt lat="42.36992" lon="2.18307">
        <ele>1345.2</ele>
        <time>2024-09-25T14:50:15Z</time>
      </trkpt>
      <trkpt lat="42.36992" lon="2.18307">
        <ele>1345.1</ele>
        <time>2024-09-25T14:50:16Z</time>
      </trkpt>
      <trkpt lat="42.36992" lon="2.18307">
        <ele>1345</ele>
        <time>2024-09-25T14:50:17Z</time>
      </trkpt>
      <trkpt lat="42.36991" lon="2.18307">
        <ele>1344.9</ele>
        <time>2024-09-25T14:50:18Z</time>
      </trkpt>
      <trkpt lat="42.36991" lon="2.18307">
        <ele>1344.7</ele>
        <time>2024-09-25T14:50:19Z</time>
      </trkpt>
      <trkpt lat="42.3699" lon="2.18307">
        <ele>1344.6</ele>
        <time>2024-09-25T14:50:20Z</time>
      </trkpt>
      <trkpt lat="42.36989" lon="2.18308">
        <ele>1344.4</ele>
        <time>2024-09-25T14:50:21Z</time>
      </trkpt>
      <trkpt lat="42.36989" lon="2.18309">
        <ele>1344.1</ele>
        <time>2024-09-25T14:50:22Z</time>
      </trkpt>
      <trkpt lat="42.36988" lon="2.1831">
        <ele>1343.9</ele>
        <time>2024-09-25T14:50:23Z</time>
      </trkpt>
      <trkpt lat="42.36988" lon="2.1831">
        <ele>1343.8</ele>
        <time>2024-09-25T14:50:24Z</time>
      </trkpt>
      <trkpt lat="42.36987" lon="2.18311">
        <ele>1343.7</ele>
        <time>2024-09-25T14:50:25Z</time>
      </trkpt>
      <trkpt lat="42.36987" lon="2.18311">
        <ele>1343.6</ele>
        <time>2024-09-25T14:50:26Z</time>
      </trkpt>
      <trkpt lat="42.36987" lon="2.18312">
        <ele>1343.5</ele>
        <time>2024-09-25T14:50:27Z</time>
      </trkpt>
      <trkpt lat="42.36986" lon="2.18312">
        <ele>1343.5</ele>
        <time>2024-09-25T14:50:28Z</time>
      </trkpt>
      <trkpt lat="42.36986" lon="2.18312">
        <ele>1343.4</ele>
        <time>2024-09-25T14:50:29Z</time>
      </trkpt>
      <trkpt lat="42.36986" lon="2.18312">
        <ele>1343.3</ele>
        <time>2024-09-25T14:50:30Z</time>
      </trkpt>
      <trkpt lat="42.36985" lon="2.18313">
        <ele>1343.2</ele>
        <time>2024-09-25T14:50:31Z</time>
      </trkpt>
      <trkpt lat="42.36986" lon="2.18312">
        <ele>1343.1</ele>
        <time>2024-09-25T14:50:32Z</time>
      </trkpt>
      <trkpt lat="42.36985" lon="2.18313">
        <ele>1343</ele>
        <time>2024-09-25T14:50:33Z</time>
      </trkpt>
      <trkpt lat="42.36984" lon="2.18313">
        <ele>1342.8</ele>
        <time>2024-09-25T14:50:34Z</time>
      </trkpt>
      <trkpt lat="42.36983" lon="2.18312">
        <ele>1342.6</ele>
        <time>2024-09-25T14:50:35Z</time>
      </trkpt>
      <trkpt lat="42.36982" lon="2.18312">
        <ele>1342.4</ele>
        <time>2024-09-25T14:50:36Z</time>
      </trkpt>
      <trkpt lat="42.36981" lon="2.18311">
        <ele>1342.2</ele>
        <time>2024-09-25T14:50:37Z</time>
      </trkpt>
      <trkpt lat="42.3698" lon="2.1831">
        <ele>1342</ele>
        <time>2024-09-25T14:50:38Z</time>
      </trkpt>
      <trkpt lat="42.36979" lon="2.18309">
        <ele>1341.8</ele>
        <time>2024-09-25T14:50:39Z</time>
      </trkpt>
      <trkpt lat="42.36979" lon="2.18308">
        <ele>1341.6</ele>
        <time>2024-09-25T14:50:40Z</time>
      </trkpt>
      <trkpt lat="42.36978" lon="2.18307">
        <ele>1341.5</ele>
        <time>2024-09-25T14:50:41Z</time>
      </trkpt>
      <trkpt lat="42.36977" lon="2.18307">
        <ele>1341.3</ele>
        <time>2024-09-25T14:50:42Z</time>
      </trkpt>
      <trkpt lat="42.36976" lon="2.18308">
        <ele>1341.2</ele>
        <time>2024-09-25T14:50:43Z</time>
      </trkpt>
      <trkpt lat="42.36976" lon="2.18308">
        <ele>1341.1</ele>
        <time>2024-09-25T14:50:44Z</time>
      </trkpt>
      <trkpt lat="42.36976" lon="2.18309">
        <ele>1341.1</ele>
        <time>2024-09-25T14:50:45Z</time>
      </trkpt>
      <trkpt lat="42.36976" lon="2.18309">
        <ele>1341</ele>
        <time>2024-09-25T14:50:46Z</time>
      </trkpt>
      <trkpt lat="42.36976" lon="2.1831">
        <ele>1340.9</ele>
        <time>2024-09-25T14:50:47Z</time>
      </trkpt>
      <trkpt lat="42.36975" lon="2.18311">
        <ele>1340.8</ele>
        <time>2024-09-25T14:50:48Z</time>
      </trkpt>
      <trkpt lat="42.36974" lon="2.18311">
        <ele>1340.6</ele>
        <time>2024-09-25T14:50:49Z</time>
      </trkpt>
      <trkpt lat="42.36973" lon="2.1831">
        <ele>1340.5</ele>
        <time>2024-09-25T14:50:50Z</time>
      </trkpt>
      <trkpt lat="42.36971" lon="2.1831">
        <ele>1340.3</ele>
        <time>2024-09-25T14:50:51Z</time>
      </trkpt>
      <trkpt lat="42.3697" lon="2.1831">
        <ele>1340.2</ele>
        <time>2024-09-25T14:50:52Z</time>
      </trkpt>
      <trkpt lat="42.3697" lon="2.1831">
        <ele>1340.1</ele>
        <time>2024-09-25T14:50:53Z</time>
      </trkpt>
      <trkpt lat="42.36969" lon="2.1831">
        <ele>1340.1</ele>
        <time>2024-09-25T14:50:54Z</time>
      </trkpt>
      <trkpt lat="42.36968" lon="2.1831">
        <ele>1340</ele>
        <time>2024-09-25T14:50:55Z</time>
      </trkpt>
      <trkpt lat="42.36969" lon="2.18309">
        <ele>1339.8</ele>
        <time>2024-09-25T14:50:56Z</time>
      </trkpt>
      <trkpt lat="42.3697" lon="2.18309">
        <ele>1339.8</ele>
        <time>2024-09-25T14:50:57Z</time>
      </trkpt>
      <trkpt lat="42.3697" lon="2.18309">
        <ele>1339.8</ele>
        <time>2024-09-25T14:50:58Z</time>
      </trkpt>
      <trkpt lat="42.3697" lon="2.18309">
        <ele>1339.8</ele>
        <time>2024-09-25T14:50:59Z</time>
      </trkpt>
      <trkpt lat="42.3697" lon="2.18309">
        <ele>1339.8</ele>
        <time>2024-09-25T14:51:00Z</time>
      </trkpt>
      <trkpt lat="42.3697" lon="2.18309">
        <ele>1339.8</ele>
        <time>2024-09-25T14:51:01Z</time>
      </trkpt>
      <trkpt lat="42.3697" lon="2.18309">
        <ele>1339.8</ele>
        <time>2024-09-25T14:51:02Z</time>
      </trkpt>
      <trkpt lat="42.3697" lon="2.18309">
        <ele>1339.8</ele>
        <time>2024-09-25T14:51:03Z</time>
      </trkpt>
      <trkpt lat="42.3697" lon="2.18309">
        <ele>1339.8</ele>
        <time>2024-09-25T14:51:04Z</time>
      </trkpt>
      <trkpt lat="42.3697" lon="2.18309">
        <ele>1339.8</ele>
        <time>2024-09-25T14:51:05Z</time>
      </trkpt>
      <trkpt lat="42.3697" lon="2.18309">
        <ele>1339.8</ele>
        <time>2024-09-25T14:51:06Z</time>
      </trkpt>
      <trkpt lat="42.3697" lon="2.18309">
        <ele>1339.7</ele>
        <time>2024-09-25T14:51:07Z</time>
      </trkpt>
      <trkpt lat="42.3697" lon="2.18309">
        <ele>1339.7</ele>
        <time>2024-09-25T14:51:08Z</time>
      </trkpt>
      <trkpt lat="42.3697" lon="2.18309">
        <ele>1339.7</ele>
        <time>2024-09-25T14:51:09Z</time>
      </trkpt>
      <trkpt lat="42.3697" lon="2.18309">
        <ele>1339.7</ele>
        <time>2024-09-25T14:51:10Z</time>
      </trkpt>
      <trkpt lat="42.3697" lon="2.18309">
        <ele>1339.7</ele>
        <time>2024-09-25T14:51:11Z</time>
      </trkpt>
      <trkpt lat="42.3697" lon="2.18309">
        <ele>1339.7</ele>
        <time>2024-09-25T14:51:12Z</time>
      </trkpt>
      <trkpt lat="42.3697" lon="2.18309">
        <ele>1339.7</ele>
        <time>2024-09-25T14:51:13Z</time>
      </trkpt>
      <trkpt lat="42.3697" lon="2.18309">
        <ele>1339.7</ele>
        <time>2024-09-25T14:51:14Z</time>
      </trkpt>
      <trkpt lat="42.3697" lon="2.18309">
        <ele>1339.7</ele>
        <time>2024-09-25T14:51:15Z</time>
      </trkpt>
      <trkpt lat="42.3697" lon="2.18309">
        <ele>1339.7</ele>
        <time>2024-09-25T14:51:16Z</time>
      </trkpt>
      <trkpt lat="42.3697" lon="2.18309">
        <ele>1339.7</ele>
        <time>2024-09-25T14:51:17Z</time>
      </trkpt>
      <trkpt lat="42.3697" lon="2.18309">
        <ele>1339.7</ele>
        <time>2024-09-25T14:51:18Z</time>
      </trkpt>
      <trkpt lat="42.3697" lon="2.18309">
        <ele>1339.7</ele>
        <time>2024-09-25T14:51:19Z</time>
      </trkpt>
      <trkpt lat="42.3697" lon="2.18309">
        <ele>1339.7</ele>
        <time>2024-09-25T14:51:20Z</time>
      </trkpt>
      <trkpt lat="42.3697" lon="2.18309">
        <ele>1339.7</ele>
        <time>2024-09-25T14:51:21Z</time>
      </trkpt>
      <trkpt lat="42.3697" lon="2.18309">
        <ele>1339.7</ele>
        <time>2024-09-25T14:51:22Z</time>
      </trkpt>
      <trkpt lat="42.3697" lon="2.18309">
        <ele>1339.7</ele>
        <time>2024-09-25T14:51:23Z</time>
      </trkpt>
      <trkpt lat="42.3697" lon="2.18309">
        <ele>1339.7</ele>
        <time>2024-09-25T14:51:24Z</time>
      </trkpt>
      <trkpt lat="42.3697" lon="2.18309">
        <ele>1339.7</ele>
        <time>2024-09-25T14:51:25Z</time>
      </trkpt>
      <trkpt lat="42.3697" lon="2.18309">
        <ele>1339.7</ele>
        <time>2024-09-25T14:51:26Z</time>
      </trkpt>
      <trkpt lat="42.3697" lon="2.18309">
        <ele>1339.7</ele>
        <time>2024-09-25T14:51:27Z</time>
      </trkpt>
      <trkpt lat="42.3697" lon="2.18309">
        <ele>1339.7</ele>
        <time>2024-09-25T14:51:28Z</time>
      </trkpt>
      <trkpt lat="42.3697" lon="2.18309">
        <ele>1339.7</ele>
        <time>2024-09-25T14:51:29Z</time>
      </trkpt>
      <trkpt lat="42.3697" lon="2.18309">
        <ele>1339.7</ele>
        <time>2024-09-25T14:51:30Z</time>
      </trkpt>
      <trkpt lat="42.3697" lon="2.18309">
        <ele>1339.7</ele>
        <time>2024-09-25T14:51:31Z</time>
      </trkpt>
      <trkpt lat="42.3697" lon="2.18309">
        <ele>1339.7</ele>
        <time>2024-09-25T14:51:32Z</time>
      </trkpt>
      <trkpt lat="42.3697" lon="2.18309">
        <ele>1339.7</ele>
        <time>2024-09-25T14:51:33Z</time>
      </trkpt>
      <trkpt lat="42.3697" lon="2.18309">
        <ele>1339.7</ele>
        <time>2024-09-25T14:51:34Z</time>
      </trkpt>
      <trkpt lat="42.3697" lon="2.18309">
        <ele>1339.7</ele>
        <time>2024-09-25T14:51:35Z</time>
      </trkpt>
      <trkpt lat="42.3697" lon="2.18309">
        <ele>1339.7</ele>
        <time>2024-09-25T14:51:36Z</time>
      </trkpt>
      <trkpt lat="42.3697" lon="2.18309">
        <ele>1339.7</ele>
        <time>2024-09-25T14:51:37Z</time>
      </trkpt>
      <trkpt lat="42.3697" lon="2.18309">
        <ele>1339.7</ele>
        <time>2024-09-25T14:51:38Z</time>
      </trkpt>
      <trkpt lat="42.3697" lon="2.18309">
        <ele>1339.7</ele>
        <time>2024-09-25T14:51:39Z</time>
      </trkpt>
      <trkpt lat="42.3697" lon="2.18309">
        <ele>1339.7</ele>
        <time>2024-09-25T14:51:40Z</time>
      </trkpt>
      <trkpt lat="42.3697" lon="2.18309">
        <ele>1339.7</ele>
        <time>2024-09-25T14:51:41Z</time>
      </trkpt>
      <trkpt lat="42.3697" lon="2.18309">
        <ele>1339.7</ele>
        <time>2024-09-25T14:51:42Z</time>
      </trkpt>
      <trkpt lat="42.3697" lon="2.18309">
        <ele>1339.7</ele>
        <time>2024-09-25T14:51:43Z</time>
      </trkpt>
      <trkpt lat="42.3697" lon="2.18309">
        <ele>1339.7</ele>
        <time>2024-09-25T14:51:44Z</time>
      </trkpt>
      <trkpt lat="42.3697" lon="2.18309">
        <ele>1339.7</ele>
        <time>2024-09-25T14:51:45Z</time>
      </trkpt>
      <trkpt lat="42.3697" lon="2.18309">
        <ele>1339.7</ele>
        <time>2024-09-25T14:51:46Z</time>
      </trkpt>
      <trkpt lat="42.36969" lon="2.18309">
        <ele>1339.7</ele>
        <time>2024-09-25T14:51:47Z</time>
      </trkpt>
      <trkpt lat="42.36969" lon="2.1831">
        <ele>1339.6</ele>
        <time>2024-09-25T14:51:48Z</time>
      </trkpt>
      <trkpt lat="42.36969" lon="2.1831">
        <ele>1339.6</ele>
        <time>2024-09-25T14:51:49Z</time>
      </trkpt>
      <trkpt lat="42.36969" lon="2.1831">
        <ele>1339.6</ele>
        <time>2024-09-25T14:51:50Z</time>
      </trkpt>
      <trkpt lat="42.36969" lon="2.1831">
        <ele>1339.6</ele>
        <time>2024-09-25T14:51:51Z</time>
      </trkpt>
      <trkpt lat="42.36968" lon="2.1831">
        <ele>1339.6</ele>
        <time>2024-09-25T14:51:52Z</time>
      </trkpt>
      <trkpt lat="42.36968" lon="2.1831">
        <ele>1339.6</ele>
        <time>2024-09-25T14:51:53Z</time>
      </trkpt>
      <trkpt lat="42.36968" lon="2.1831">
        <ele>1339.5</ele>
        <time>2024-09-25T14:51:54Z</time>
      </trkpt>
      <trkpt lat="42.36967" lon="2.1831">
        <ele>1339.5</ele>
        <time>2024-09-25T14:51:55Z</time>
      </trkpt>
      <trkpt lat="42.36967" lon="2.1831">
        <ele>1339.5</ele>
        <time>2024-09-25T14:51:56Z</time>
      </trkpt>
      <trkpt lat="42.36967" lon="2.18309">
        <ele>1339.4</ele>
        <time>2024-09-25T14:51:57Z</time>
      </trkpt>
      <trkpt lat="42.36967" lon="2.18309">
        <ele>1339.4</ele>
        <time>2024-09-25T14:51:58Z</time>
      </trkpt>
      <trkpt lat="42.36967" lon="2.18308">
        <ele>1339.4</ele>
        <time>2024-09-25T14:51:59Z</time>
      </trkpt>
      <trkpt lat="42.36967" lon="2.18308">
        <ele>1339.4</ele>
        <time>2024-09-25T14:52:00Z</time>
      </trkpt>
      <trkpt lat="42.36966" lon="2.18308">
        <ele>1339.4</ele>
        <time>2024-09-25T14:52:01Z</time>
      </trkpt>
      <trkpt lat="42.36967" lon="2.18308">
        <ele>1339.3</ele>
        <time>2024-09-25T14:52:02Z</time>
      </trkpt>
      <trkpt lat="42.36966" lon="2.18308">
        <ele>1339.3</ele>
        <time>2024-09-25T14:52:03Z</time>
      </trkpt>
      <trkpt lat="42.36965" lon="2.18307">
        <ele>1339.3</ele>
        <time>2024-09-25T14:52:04Z</time>
      </trkpt>
      <trkpt lat="42.36965" lon="2.18307">
        <ele>1339.3</ele>
        <time>2024-09-25T14:52:05Z</time>
      </trkpt>
      <trkpt lat="42.36964" lon="2.18308">
        <ele>1339.2</ele>
        <time>2024-09-25T14:52:06Z</time>
      </trkpt>
      <trkpt lat="42.36961" lon="2.18308">
        <ele>1339.2</ele>
        <time>2024-09-25T14:52:07Z</time>
      </trkpt>
      <trkpt lat="42.3696" lon="2.18308">
        <ele>1339.1</ele>
        <time>2024-09-25T14:52:08Z</time>
      </trkpt>
      <trkpt lat="42.36959" lon="2.18307">
        <ele>1339.1</ele>
        <time>2024-09-25T14:52:09Z</time>
      </trkpt>
      <trkpt lat="42.36957" lon="2.18306">
        <ele>1339.1</ele>
        <time>2024-09-25T14:52:10Z</time>
      </trkpt>
      <trkpt lat="42.36957" lon="2.18305">
        <ele>1339.1</ele>
        <time>2024-09-25T14:52:11Z</time>
      </trkpt>
      <trkpt lat="42.36956" lon="2.18304">
        <ele>1339.1</ele>
        <time>2024-09-25T14:52:12Z</time>
      </trkpt>
      <trkpt lat="42.36956" lon="2.18299">
        <ele>1339.1</ele>
        <time>2024-09-25T14:52:13Z</time>
      </trkpt>
      <trkpt lat="42.36955" lon="2.18297">
        <ele>1339.2</ele>
        <time>2024-09-25T14:52:14Z</time>
      </trkpt>
      <trkpt lat="42.36953" lon="2.18298">
        <ele>1339.2</ele>
        <time>2024-09-25T14:52:15Z</time>
      </trkpt>
      <trkpt lat="42.3695" lon="2.18299">
        <ele>1339.3</ele>
        <time>2024-09-25T14:52:16Z</time>
      </trkpt>
      <trkpt lat="42.36949" lon="2.18299">
        <ele>1339.3</ele>
        <time>2024-09-25T14:52:17Z</time>
      </trkpt>
      <trkpt lat="42.36948" lon="2.18298">
        <ele>1339.3</ele>
        <time>2024-09-25T14:52:18Z</time>
      </trkpt>
      <trkpt lat="42.36947" lon="2.18297">
        <ele>1339.4</ele>
        <time>2024-09-25T14:52:19Z</time>
      </trkpt>
      <trkpt lat="42.36947" lon="2.18296">
        <ele>1339.4</ele>
        <time>2024-09-25T14:52:20Z</time>
      </trkpt>
      <trkpt lat="42.36946" lon="2.18296">
        <ele>1339.4</ele>
        <time>2024-09-25T14:52:21Z</time>
      </trkpt>
      <trkpt lat="42.36945" lon="2.18294">
        <ele>1339.5</ele>
        <time>2024-09-25T14:52:22Z</time>
      </trkpt>
      <trkpt lat="42.36945" lon="2.18293">
        <ele>1339.5</ele>
        <time>2024-09-25T14:52:23Z</time>
      </trkpt>
      <trkpt lat="42.36944" lon="2.18292">
        <ele>1339.5</ele>
        <time>2024-09-25T14:52:24Z</time>
      </trkpt>
      <trkpt lat="42.36943" lon="2.18291">
        <ele>1339.6</ele>
        <time>2024-09-25T14:52:25Z</time>
      </trkpt>
      <trkpt lat="42.36942" lon="2.1829">
        <ele>1339.6</ele>
        <time>2024-09-25T14:52:26Z</time>
      </trkpt>
      <trkpt lat="42.36941" lon="2.18289">
        <ele>1339.7</ele>
        <time>2024-09-25T14:52:27Z</time>
      </trkpt>
      <trkpt lat="42.36941" lon="2.18288">
        <ele>1339.7</ele>
        <time>2024-09-25T14:52:28Z</time>
      </trkpt>
      <trkpt lat="42.3694" lon="2.18287">
        <ele>1339.7</ele>
        <time>2024-09-25T14:52:29Z</time>
      </trkpt>
      <trkpt lat="42.36939" lon="2.18286">
        <ele>1339.7</ele>
        <time>2024-09-25T14:52:30Z</time>
      </trkpt>
      <trkpt lat="42.36938" lon="2.18285">
        <ele>1339.7</ele>
        <time>2024-09-25T14:52:31Z</time>
      </trkpt>
      <trkpt lat="42.36938" lon="2.18284">
        <ele>1339.7</ele>
        <time>2024-09-25T14:52:32Z</time>
      </trkpt>
      <trkpt lat="42.36937" lon="2.18283">
        <ele>1339.6</ele>
        <time>2024-09-25T14:52:33Z</time>
      </trkpt>
      <trkpt lat="42.36936" lon="2.18283">
        <ele>1339.6</ele>
        <time>2024-09-25T14:52:34Z</time>
      </trkpt>
      <trkpt lat="42.36936" lon="2.18282">
        <ele>1339.6</ele>
        <time>2024-09-25T14:52:35Z</time>
      </trkpt>
      <trkpt lat="42.36935" lon="2.18281">
        <ele>1339.6</ele>
        <time>2024-09-25T14:52:36Z</time>
      </trkpt>
      <trkpt lat="42.36935" lon="2.1828">
        <ele>1339.5</ele>
        <time>2024-09-25T14:52:37Z</time>
      </trkpt>
      <trkpt lat="42.36934" lon="2.18281">
        <ele>1339.5</ele>
        <time>2024-09-25T14:52:38Z</time>
      </trkpt>
      <trkpt lat="42.36934" lon="2.18281">
        <ele>1339.5</ele>
        <time>2024-09-25T14:52:39Z</time>
      </trkpt>
      <trkpt lat="42.36933" lon="2.18281">
        <ele>1339.5</ele>
        <time>2024-09-25T14:52:40Z</time>
      </trkpt>
      <trkpt lat="42.36932" lon="2.18281">
        <ele>1339.4</ele>
        <time>2024-09-25T14:52:41Z</time>
      </trkpt>
      <trkpt lat="42.36931" lon="2.18281">
        <ele>1339.4</ele>
        <time>2024-09-25T14:52:42Z</time>
      </trkpt>
      <trkpt lat="42.36929" lon="2.18277">
        <ele>1339.3</ele>
        <time>2024-09-25T14:52:43Z</time>
      </trkpt>
      <trkpt lat="42.36929" lon="2.18276">
        <ele>1339.3</ele>
        <time>2024-09-25T14:52:44Z</time>
      </trkpt>
      <trkpt lat="42.36928" lon="2.18274">
        <ele>1339.2</ele>
        <time>2024-09-25T14:52:45Z</time>
      </trkpt>
      <trkpt lat="42.36928" lon="2.18272">
        <ele>1339.2</ele>
        <time>2024-09-25T14:52:46Z</time>
      </trkpt>
      <trkpt lat="42.36927" lon="2.18271">
        <ele>1339.2</ele>
        <time>2024-09-25T14:52:47Z</time>
      </trkpt>
      <trkpt lat="42.36927" lon="2.18269">
        <ele>1339.1</ele>
        <time>2024-09-25T14:52:48Z</time>
      </trkpt>
      <trkpt lat="42.36927" lon="2.18268">
        <ele>1339.1</ele>
        <time>2024-09-25T14:52:49Z</time>
      </trkpt>
      <trkpt lat="42.36926" lon="2.18266">
        <ele>1339</ele>
        <time>2024-09-25T14:52:50Z</time>
      </trkpt>
      <trkpt lat="42.36926" lon="2.18264">
        <ele>1339</ele>
        <time>2024-09-25T14:52:51Z</time>
      </trkpt>
      <trkpt lat="42.36925" lon="2.18263">
        <ele>1338.9</ele>
        <time>2024-09-25T14:52:52Z</time>
      </trkpt>
      <trkpt lat="42.36925" lon="2.18261">
        <ele>1338.9</ele>
        <time>2024-09-25T14:52:53Z</time>
      </trkpt>
      <trkpt lat="42.36925" lon="2.1826">
        <ele>1338.8</ele>
        <time>2024-09-25T14:52:54Z</time>
      </trkpt>
      <trkpt lat="42.36925" lon="2.18258">
        <ele>1338.8</ele>
        <time>2024-09-25T14:52:55Z</time>
      </trkpt>
      <trkpt lat="42.36926" lon="2.18257">
        <ele>1338.8</ele>
        <time>2024-09-25T14:52:56Z</time>
      </trkpt>
      <trkpt lat="42.36926" lon="2.18256">
        <ele>1338.7</ele>
        <time>2024-09-25T14:52:57Z</time>
      </trkpt>
      <trkpt lat="42.36926" lon="2.18256">
        <ele>1338.7</ele>
        <time>2024-09-25T14:52:58Z</time>
      </trkpt>
      <trkpt lat="42.36926" lon="2.18255">
        <ele>1338.7</ele>
        <time>2024-09-25T14:52:59Z</time>
      </trkpt>
      <trkpt lat="42.36926" lon="2.18254">
        <ele>1338.7</ele>
        <time>2024-09-25T14:53:00Z</time>
      </trkpt>
      <trkpt lat="42.36926" lon="2.18254">
        <ele>1338.7</ele>
        <time>2024-09-25T14:53:01Z</time>
      </trkpt>
      <trkpt lat="42.36926" lon="2.18253">
        <ele>1338.6</ele>
        <time>2024-09-25T14:53:02Z</time>
      </trkpt>
      <trkpt lat="42.36926" lon="2.18251">
        <ele>1338.6</ele>
        <time>2024-09-25T14:53:03Z</time>
      </trkpt>
      <trkpt lat="42.36927" lon="2.18249">
        <ele>1338.5</ele>
        <time>2024-09-25T14:53:04Z</time>
      </trkpt>
      <trkpt lat="42.36926" lon="2.18248">
        <ele>1338.4</ele>
        <time>2024-09-25T14:53:05Z</time>
      </trkpt>
      <trkpt lat="42.36926" lon="2.18246">
        <ele>1338.4</ele>
        <time>2024-09-25T14:53:06Z</time>
      </trkpt>
      <trkpt lat="42.36925" lon="2.18244">
        <ele>1338.3</ele>
        <time>2024-09-25T14:53:07Z</time>
      </trkpt>
      <trkpt lat="42.36925" lon="2.18242">
        <ele>1338.2</ele>
        <time>2024-09-25T14:53:08Z</time>
      </trkpt>
      <trkpt lat="42.36924" lon="2.18241">
        <ele>1338.2</ele>
        <time>2024-09-25T14:53:09Z</time>
      </trkpt>
      <trkpt lat="42.36924" lon="2.1824">
        <ele>1338.2</ele>
        <time>2024-09-25T14:53:10Z</time>
      </trkpt>
      <trkpt lat="42.36924" lon="2.18238">
        <ele>1338.1</ele>
        <time>2024-09-25T14:53:11Z</time>
      </trkpt>
      <trkpt lat="42.36924" lon="2.18235">
        <ele>1338</ele>
        <time>2024-09-25T14:53:12Z</time>
      </trkpt>
      <trkpt lat="42.36924" lon="2.18234">
        <ele>1338</ele>
        <time>2024-09-25T14:53:13Z</time>
      </trkpt>
      <trkpt lat="42.36924" lon="2.18233">
        <ele>1337.9</ele>
        <time>2024-09-25T14:53:14Z</time>
      </trkpt>
      <trkpt lat="42.36924" lon="2.18231">
        <ele>1337.9</ele>
        <time>2024-09-25T14:53:15Z</time>
      </trkpt>
      <trkpt lat="42.36924" lon="2.18229">
        <ele>1337.8</ele>
        <time>2024-09-25T14:53:16Z</time>
      </trkpt>
      <trkpt lat="42.36924" lon="2.18227">
        <ele>1337.8</ele>
        <time>2024-09-25T14:53:17Z</time>
      </trkpt>
      <trkpt lat="42.36925" lon="2.18225">
        <ele>1337.8</ele>
        <time>2024-09-25T14:53:18Z</time>
      </trkpt>
      <trkpt lat="42.36925" lon="2.18224">
        <ele>1337.7</ele>
        <time>2024-09-25T14:53:19Z</time>
      </trkpt>
      <trkpt lat="42.36925" lon="2.18223">
        <ele>1337.7</ele>
        <time>2024-09-25T14:53:20Z</time>
      </trkpt>
      <trkpt lat="42.36926" lon="2.18222">
        <ele>1337.7</ele>
        <time>2024-09-25T14:53:21Z</time>
      </trkpt>
      <trkpt lat="42.36926" lon="2.18221">
        <ele>1337.7</ele>
        <time>2024-09-25T14:53:22Z</time>
      </trkpt>
      <trkpt lat="42.36927" lon="2.18219">
        <ele>1337.6</ele>
        <time>2024-09-25T14:53:23Z</time>
      </trkpt>
      <trkpt lat="42.36928" lon="2.18219">
        <ele>1337.6</ele>
        <time>2024-09-25T14:53:24Z</time>
      </trkpt>
      <trkpt lat="42.36928" lon="2.18218">
        <ele>1337.6</ele>
        <time>2024-09-25T14:53:25Z</time>
      </trkpt>
      <trkpt lat="42.36929" lon="2.18217">
        <ele>1337.6</ele>
        <time>2024-09-25T14:53:26Z</time>
      </trkpt>
      <trkpt lat="42.36929" lon="2.18216">
        <ele>1337.6</ele>
        <time>2024-09-25T14:53:27Z</time>
      </trkpt>
      <trkpt lat="42.3693" lon="2.18217">
        <ele>1337.6</ele>
        <time>2024-09-25T14:53:28Z</time>
      </trkpt>
      <trkpt lat="42.3693" lon="2.18217">
        <ele>1337.6</ele>
        <time>2024-09-25T14:53:29Z</time>
      </trkpt>
      <trkpt lat="42.3693" lon="2.18218">
        <ele>1337.6</ele>
        <time>2024-09-25T14:53:30Z</time>
      </trkpt>
      <trkpt lat="42.3693" lon="2.18218">
        <ele>1337.6</ele>
        <time>2024-09-25T14:53:31Z</time>
      </trkpt>
      <trkpt lat="42.3693" lon="2.18218">
        <ele>1337.6</ele>
        <time>2024-09-25T14:53:32Z</time>
      </trkpt>
      <trkpt lat="42.3693" lon="2.18218">
        <ele>1337.6</ele>
        <time>2024-09-25T14:53:33Z</time>
      </trkpt>
      <trkpt lat="42.3693" lon="2.18218">
        <ele>1337.6</ele>
        <time>2024-09-25T14:53:34Z</time>
      </trkpt>
      <trkpt lat="42.36931" lon="2.18216">
        <ele>1337.5</ele>
        <time>2024-09-25T14:53:35Z</time>
      </trkpt>
      <trkpt lat="42.36931" lon="2.18215">
        <ele>1337.5</ele>
        <time>2024-09-25T14:53:36Z</time>
      </trkpt>
      <trkpt lat="42.36932" lon="2.18214">
        <ele>1337.5</ele>
        <time>2024-09-25T14:53:37Z</time>
      </trkpt>
      <trkpt lat="42.36932" lon="2.18213">
        <ele>1337.5</ele>
        <time>2024-09-25T14:53:38Z</time>
      </trkpt>
      <trkpt lat="42.36931" lon="2.18209">
        <ele>1337.5</ele>
        <time>2024-09-25T14:53:39Z</time>
      </trkpt>
      <trkpt lat="42.36931" lon="2.18208">
        <ele>1337.5</ele>
        <time>2024-09-25T14:53:40Z</time>
      </trkpt>
      <trkpt lat="42.36931" lon="2.18205">
        <ele>1337.4</ele>
        <time>2024-09-25T14:53:41Z</time>
      </trkpt>
      <trkpt lat="42.36931" lon="2.18204">
        <ele>1337.4</ele>
        <time>2024-09-25T14:53:42Z</time>
      </trkpt>
      <trkpt lat="42.36932" lon="2.18202">
        <ele>1337.4</ele>
        <time>2024-09-25T14:53:43Z</time>
      </trkpt>
      <trkpt lat="42.36932" lon="2.182">
        <ele>1337.3</ele>
        <time>2024-09-25T14:53:44Z</time>
      </trkpt>
      <trkpt lat="42.36933" lon="2.182">
        <ele>1337.3</ele>
        <time>2024-09-25T14:53:45Z</time>
      </trkpt>
      <trkpt lat="42.36933" lon="2.18199">
        <ele>1337.3</ele>
        <time>2024-09-25T14:53:46Z</time>
      </trkpt>
      <trkpt lat="42.36933" lon="2.18197">
        <ele>1337.3</ele>
        <time>2024-09-25T14:53:47Z</time>
      </trkpt>
      <trkpt lat="42.36933" lon="2.18196">
        <ele>1337.2</ele>
        <time>2024-09-25T14:53:48Z</time>
      </trkpt>
      <trkpt lat="42.36933" lon="2.18195">
        <ele>1337.2</ele>
        <time>2024-09-25T14:53:49Z</time>
      </trkpt>
      <trkpt lat="42.36934" lon="2.18193">
        <ele>1337.2</ele>
        <time>2024-09-25T14:53:50Z</time>
      </trkpt>
      <trkpt lat="42.36934" lon="2.18192">
        <ele>1337.1</ele>
        <time>2024-09-25T14:53:51Z</time>
      </trkpt>
      <trkpt lat="42.36934" lon="2.18191">
        <ele>1337.1</ele>
        <time>2024-09-25T14:53:52Z</time>
      </trkpt>
      <trkpt lat="42.36934" lon="2.18189">
        <ele>1337</ele>
        <time>2024-09-25T14:53:53Z</time>
      </trkpt>
      <trkpt lat="42.36935" lon="2.18188">
        <ele>1337</ele>
        <time>2024-09-25T14:53:54Z</time>
      </trkpt>
      <trkpt lat="42.36935" lon="2.18186">
        <ele>1336.9</ele>
        <time>2024-09-25T14:53:55Z</time>
      </trkpt>
      <trkpt lat="42.36935" lon="2.18184">
        <ele>1336.7</ele>
        <time>2024-09-25T14:53:56Z</time>
      </trkpt>
      <trkpt lat="42.36935" lon="2.18183">
        <ele>1336.7</ele>
        <time>2024-09-25T14:53:57Z</time>
      </trkpt>
      <trkpt lat="42.36934" lon="2.18181">
        <ele>1336.6</ele>
        <time>2024-09-25T14:53:58Z</time>
      </trkpt>
      <trkpt lat="42.36934" lon="2.18181">
        <ele>1336.5</ele>
        <time>2024-09-25T14:53:59Z</time>
      </trkpt>
      <trkpt lat="42.36933" lon="2.18179">
        <ele>1336.4</ele>
        <time>2024-09-25T14:54:00Z</time>
      </trkpt>
      <trkpt lat="42.36932" lon="2.18179">
        <ele>1336.3</ele>
        <time>2024-09-25T14:54:01Z</time>
      </trkpt>
      <trkpt lat="42.36932" lon="2.18177">
        <ele>1336.2</ele>
        <time>2024-09-25T14:54:02Z</time>
      </trkpt>
      <trkpt lat="42.36933" lon="2.18176">
        <ele>1336.1</ele>
        <time>2024-09-25T14:54:03Z</time>
      </trkpt>
      <trkpt lat="42.36933" lon="2.18176">
        <ele>1336</ele>
        <time>2024-09-25T14:54:04Z</time>
      </trkpt>
      <trkpt lat="42.36934" lon="2.18175">
        <ele>1335.9</ele>
        <time>2024-09-25T14:54:05Z</time>
      </trkpt>
      <trkpt lat="42.36935" lon="2.18175">
        <ele>1335.8</ele>
        <time>2024-09-25T14:54:06Z</time>
      </trkpt>
      <trkpt lat="42.36937" lon="2.18172">
        <ele>1335.3</ele>
        <time>2024-09-25T14:54:07Z</time>
      </trkpt>
      <trkpt lat="42.36939" lon="2.1817">
        <ele>1335</ele>
        <time>2024-09-25T14:54:08Z</time>
      </trkpt>
      <trkpt lat="42.36939" lon="2.1817">
        <ele>1334.9</ele>
        <time>2024-09-25T14:54:09Z</time>
      </trkpt>
      <trkpt lat="42.3694" lon="2.1817">
        <ele>1334.8</ele>
        <time>2024-09-25T14:54:10Z</time>
      </trkpt>
      <trkpt lat="42.3694" lon="2.1817">
        <ele>1334.7</ele>
        <time>2024-09-25T14:54:12Z</time>
      </trkpt>
      <trkpt lat="42.36941" lon="2.18169">
        <ele>1334.5</ele>
        <time>2024-09-25T14:54:13Z</time>
      </trkpt>
      <trkpt lat="42.36941" lon="2.18167">
        <ele>1334.3</ele>
        <time>2024-09-25T14:54:14Z</time>
      </trkpt>
      <trkpt lat="42.36941" lon="2.18166">
        <ele>1334.1</ele>
        <time>2024-09-25T14:54:15Z</time>
      </trkpt>
      <trkpt lat="42.36941" lon="2.18165">
        <ele>1334</ele>
        <time>2024-09-25T14:54:16Z</time>
      </trkpt>
      <trkpt lat="42.36941" lon="2.18164">
        <ele>1333.8</ele>
        <time>2024-09-25T14:54:17Z</time>
      </trkpt>
      <trkpt lat="42.36941" lon="2.18163">
        <ele>1333.7</ele>
        <time>2024-09-25T14:54:18Z</time>
      </trkpt>
      <trkpt lat="42.36941" lon="2.18162">
        <ele>1333.6</ele>
        <time>2024-09-25T14:54:19Z</time>
      </trkpt>
      <trkpt lat="42.36941" lon="2.18162">
        <ele>1333.5</ele>
        <time>2024-09-25T14:54:20Z</time>
      </trkpt>
      <trkpt lat="42.36941" lon="2.18161">
        <ele>1333.4</ele>
        <time>2024-09-25T14:54:21Z</time>
      </trkpt>
      <trkpt lat="42.36941" lon="2.1816">
        <ele>1333.2</ele>
        <time>2024-09-25T14:54:22Z</time>
      </trkpt>
      <trkpt lat="42.36941" lon="2.1816">
        <ele>1333.1</ele>
        <time>2024-09-25T14:54:23Z</time>
      </trkpt>
      <trkpt lat="42.36942" lon="2.1816">
        <ele>1333.1</ele>
        <time>2024-09-25T14:54:24Z</time>
      </trkpt>
      <trkpt lat="42.36942" lon="2.18159">
        <ele>1333</ele>
        <time>2024-09-25T14:54:25Z</time>
      </trkpt>
      <trkpt lat="42.36942" lon="2.18159">
        <ele>1332.9</ele>
        <time>2024-09-25T14:54:26Z</time>
      </trkpt>
      <trkpt lat="42.36942" lon="2.18158">
        <ele>1332.8</ele>
        <time>2024-09-25T14:54:27Z</time>
      </trkpt>
      <trkpt lat="42.36942" lon="2.18157">
        <ele>1332.6</ele>
        <time>2024-09-25T14:54:28Z</time>
      </trkpt>
      <trkpt lat="42.36942" lon="2.18156">
        <ele>1332.4</ele>
        <time>2024-09-25T14:54:29Z</time>
      </trkpt>
      <trkpt lat="42.36941" lon="2.18155">
        <ele>1332.3</ele>
        <time>2024-09-25T14:54:30Z</time>
      </trkpt>
      <trkpt lat="42.36941" lon="2.18154">
        <ele>1332.1</ele>
        <time>2024-09-25T14:54:31Z</time>
      </trkpt>
      <trkpt lat="42.36942" lon="2.18154">
        <ele>1332</ele>
        <time>2024-09-25T14:54:32Z</time>
      </trkpt>
      <trkpt lat="42.36942" lon="2.18154">
        <ele>1331.9</ele>
        <time>2024-09-25T14:54:33Z</time>
      </trkpt>
      <trkpt lat="42.36942" lon="2.18155">
        <ele>1331.8</ele>
        <time>2024-09-25T14:54:34Z</time>
      </trkpt>
      <trkpt lat="42.36943" lon="2.18155">
        <ele>1331.7</ele>
        <time>2024-09-25T14:54:35Z</time>
      </trkpt>
      <trkpt lat="42.36944" lon="2.18155">
        <ele>1331.6</ele>
        <time>2024-09-25T14:54:36Z</time>
      </trkpt>
      <trkpt lat="42.36944" lon="2.18154">
        <ele>1331.4</ele>
        <time>2024-09-25T14:54:37Z</time>
      </trkpt>
      <trkpt lat="42.36945" lon="2.18153">
        <ele>1331.1</ele>
        <time>2024-09-25T14:54:38Z</time>
      </trkpt>
      <trkpt lat="42.36945" lon="2.18152">
        <ele>1331</ele>
        <time>2024-09-25T14:54:39Z</time>
      </trkpt>
      <trkpt lat="42.36945" lon="2.18151">
        <ele>1330.8</ele>
        <time>2024-09-25T14:54:40Z</time>
      </trkpt>
      <trkpt lat="42.36946" lon="2.1815">
        <ele>1330.7</ele>
        <time>2024-09-25T14:54:41Z</time>
      </trkpt>
      <trkpt lat="42.36946" lon="2.18149">
        <ele>1330.6</ele>
        <time>2024-09-25T14:54:42Z</time>
      </trkpt>
      <trkpt lat="42.36946" lon="2.18148">
        <ele>1330.4</ele>
        <time>2024-09-25T14:54:43Z</time>
      </trkpt>
      <trkpt lat="42.36946" lon="2.18147">
        <ele>1330.3</ele>
        <time>2024-09-25T14:54:44Z</time>
      </trkpt>
      <trkpt lat="42.36946" lon="2.18146">
        <ele>1330</ele>
        <time>2024-09-25T14:54:45Z</time>
      </trkpt>
      <trkpt lat="42.36947" lon="2.18145">
        <ele>1329.9</ele>
        <time>2024-09-25T14:54:46Z</time>
      </trkpt>
      <trkpt lat="42.36947" lon="2.18144">
        <ele>1329.8</ele>
        <time>2024-09-25T14:54:47Z</time>
      </trkpt>
      <trkpt lat="42.36947" lon="2.18143">
        <ele>1329.6</ele>
        <time>2024-09-25T14:54:48Z</time>
      </trkpt>
      <trkpt lat="42.36946" lon="2.18143">
        <ele>1329.6</ele>
        <time>2024-09-25T14:54:49Z</time>
      </trkpt>
      <trkpt lat="42.36946" lon="2.18143">
        <ele>1329.6</ele>
        <time>2024-09-25T14:54:50Z</time>
      </trkpt>
      <trkpt lat="42.36947" lon="2.18143">
        <ele>1329.5</ele>
        <time>2024-09-25T14:54:51Z</time>
      </trkpt>
      <trkpt lat="42.36946" lon="2.18141">
        <ele>1329.3</ele>
        <time>2024-09-25T14:54:52Z</time>
      </trkpt>
      <trkpt lat="42.36946" lon="2.1814">
        <ele>1329</ele>
        <time>2024-09-25T14:54:53Z</time>
      </trkpt>
      <trkpt lat="42.36946" lon="2.18139">
        <ele>1328.9</ele>
        <time>2024-09-25T14:54:54Z</time>
      </trkpt>
      <trkpt lat="42.36946" lon="2.18138">
        <ele>1328.7</ele>
        <time>2024-09-25T14:54:55Z</time>
      </trkpt>
      <trkpt lat="42.36946" lon="2.18136">
        <ele>1328.5</ele>
        <time>2024-09-25T14:54:56Z</time>
      </trkpt>
      <trkpt lat="42.36946" lon="2.18135">
        <ele>1328.4</ele>
        <time>2024-09-25T14:54:57Z</time>
      </trkpt>
      <trkpt lat="42.36947" lon="2.18134">
        <ele>1328.2</ele>
        <time>2024-09-25T14:54:58Z</time>
      </trkpt>
      <trkpt lat="42.36947" lon="2.18133">
        <ele>1328.1</ele>
        <time>2024-09-25T14:54:59Z</time>
      </trkpt>
      <trkpt lat="42.36947" lon="2.18132">
        <ele>1327.9</ele>
        <time>2024-09-25T14:55:00Z</time>
      </trkpt>
      <trkpt lat="42.36947" lon="2.18131">
        <ele>1327.7</ele>
        <time>2024-09-25T14:55:01Z</time>
      </trkpt>
      <trkpt lat="42.36947" lon="2.1813">
        <ele>1327.5</ele>
        <time>2024-09-25T14:55:02Z</time>
      </trkpt>
      <trkpt lat="42.36947" lon="2.18129">
        <ele>1327.4</ele>
        <time>2024-09-25T14:55:03Z</time>
      </trkpt>
      <trkpt lat="42.36947" lon="2.18128">
        <ele>1327.2</ele>
        <time>2024-09-25T14:55:04Z</time>
      </trkpt>
      <trkpt lat="42.36947" lon="2.18127">
        <ele>1327</ele>
        <time>2024-09-25T14:55:05Z</time>
      </trkpt>
      <trkpt lat="42.36947" lon="2.18126">
        <ele>1326.9</ele>
        <time>2024-09-25T14:55:06Z</time>
      </trkpt>
      <trkpt lat="42.36946" lon="2.18125">
        <ele>1326.7</ele>
        <time>2024-09-25T14:55:07Z</time>
      </trkpt>
      <trkpt lat="42.36946" lon="2.18124">
        <ele>1326.5</ele>
        <time>2024-09-25T14:55:08Z</time>
      </trkpt>
      <trkpt lat="42.36946" lon="2.18123">
        <ele>1326.2</ele>
        <time>2024-09-25T14:55:09Z</time>
      </trkpt>
      <trkpt lat="42.36946" lon="2.18121">
        <ele>1325.9</ele>
        <time>2024-09-25T14:55:10Z</time>
      </trkpt>
      <trkpt lat="42.36946" lon="2.1812">
        <ele>1325.8</ele>
        <time>2024-09-25T14:55:11Z</time>
      </trkpt>
      <trkpt lat="42.36946" lon="2.1812">
        <ele>1325.7</ele>
        <time>2024-09-25T14:55:12Z</time>
      </trkpt>
      <trkpt lat="42.36947" lon="2.18119">
        <ele>1325.5</ele>
        <time>2024-09-25T14:55:13Z</time>
      </trkpt>
      <trkpt lat="42.36947" lon="2.18118">
        <ele>1325.4</ele>
        <time>2024-09-25T14:55:14Z</time>
      </trkpt>
      <trkpt lat="42.36947" lon="2.18117">
        <ele>1325.2</ele>
        <time>2024-09-25T14:55:15Z</time>
      </trkpt>
      <trkpt lat="42.36947" lon="2.18117">
        <ele>1325.1</ele>
        <time>2024-09-25T14:55:16Z</time>
      </trkpt>
      <trkpt lat="42.36947" lon="2.18116">
        <ele>1325</ele>
        <time>2024-09-25T14:55:17Z</time>
      </trkpt>
      <trkpt lat="42.36948" lon="2.18116">
        <ele>1324.9</ele>
        <time>2024-09-25T14:55:18Z</time>
      </trkpt>
      <trkpt lat="42.36948" lon="2.18116">
        <ele>1324.7</ele>
        <time>2024-09-25T14:55:19Z</time>
      </trkpt>
      <trkpt lat="42.36948" lon="2.18115">
        <ele>1324.6</ele>
        <time>2024-09-25T14:55:20Z</time>
      </trkpt>
      <trkpt lat="42.36949" lon="2.18114">
        <ele>1324.4</ele>
        <time>2024-09-25T14:55:21Z</time>
      </trkpt>
      <trkpt lat="42.36949" lon="2.18113">
        <ele>1324.2</ele>
        <time>2024-09-25T14:55:22Z</time>
      </trkpt>
      <trkpt lat="42.36949" lon="2.18112">
        <ele>1323.9</ele>
        <time>2024-09-25T14:55:23Z</time>
      </trkpt>
      <trkpt lat="42.36949" lon="2.18111">
        <ele>1323.8</ele>
        <time>2024-09-25T14:55:24Z</time>
      </trkpt>
      <trkpt lat="42.36949" lon="2.1811">
        <ele>1323.6</ele>
        <time>2024-09-25T14:55:25Z</time>
      </trkpt>
      <trkpt lat="42.3695" lon="2.18109">
        <ele>1323.3</ele>
        <time>2024-09-25T14:55:26Z</time>
      </trkpt>
      <trkpt lat="42.3695" lon="2.18108">
        <ele>1323.1</ele>
        <time>2024-09-25T14:55:27Z</time>
      </trkpt>
      <trkpt lat="42.3695" lon="2.18107">
        <ele>1323</ele>
        <time>2024-09-25T14:55:28Z</time>
      </trkpt>
      <trkpt lat="42.3695" lon="2.18106">
        <ele>1322.8</ele>
        <time>2024-09-25T14:55:29Z</time>
      </trkpt>
      <trkpt lat="42.3695" lon="2.18106">
        <ele>1322.7</ele>
        <time>2024-09-25T14:55:30Z</time>
      </trkpt>
      <trkpt lat="42.3695" lon="2.18105">
        <ele>1322.5</ele>
        <time>2024-09-25T14:55:31Z</time>
      </trkpt>
      <trkpt lat="42.3695" lon="2.18103">
        <ele>1322.2</ele>
        <time>2024-09-25T14:55:32Z</time>
      </trkpt>
      <trkpt lat="42.3695" lon="2.18102">
        <ele>1322</ele>
        <time>2024-09-25T14:55:33Z</time>
      </trkpt>
      <trkpt lat="42.3695" lon="2.18101">
        <ele>1321.7</ele>
        <time>2024-09-25T14:55:34Z</time>
      </trkpt>
      <trkpt lat="42.3695" lon="2.18101">
        <ele>1321.7</ele>
        <time>2024-09-25T14:55:35Z</time>
      </trkpt>
      <trkpt lat="42.3695" lon="2.18101">
        <ele>1321.6</ele>
        <time>2024-09-25T14:55:36Z</time>
      </trkpt>
      <trkpt lat="42.3695" lon="2.181">
        <ele>1321.5</ele>
        <time>2024-09-25T14:55:37Z</time>
      </trkpt>
      <trkpt lat="42.3695" lon="2.18101">
        <ele>1321.3</ele>
        <time>2024-09-25T14:55:38Z</time>
      </trkpt>
      <trkpt lat="42.3695" lon="2.18102">
        <ele>1321.2</ele>
        <time>2024-09-25T14:55:39Z</time>
      </trkpt>
      <trkpt lat="42.3695" lon="2.18102">
        <ele>1321.1</ele>
        <time>2024-09-25T14:55:40Z</time>
      </trkpt>
      <trkpt lat="42.3695" lon="2.18102">
        <ele>1321.1</ele>
        <time>2024-09-25T14:55:41Z</time>
      </trkpt>
      <trkpt lat="42.3695" lon="2.18102">
        <ele>1321</ele>
        <time>2024-09-25T14:55:42Z</time>
      </trkpt>
      <trkpt lat="42.3695" lon="2.18101">
        <ele>1320.9</ele>
        <time>2024-09-25T14:55:43Z</time>
      </trkpt>
      <trkpt lat="42.3695" lon="2.181">
        <ele>1320.5</ele>
        <time>2024-09-25T14:55:44Z</time>
      </trkpt>
      <trkpt lat="42.3695" lon="2.18099">
        <ele>1320.4</ele>
        <time>2024-09-25T14:55:45Z</time>
      </trkpt>
      <trkpt lat="42.3695" lon="2.18098">
        <ele>1320.2</ele>
        <time>2024-09-25T14:55:46Z</time>
      </trkpt>
      <trkpt lat="42.3695" lon="2.18096">
        <ele>1319.8</ele>
        <time>2024-09-25T14:55:47Z</time>
      </trkpt>
      <trkpt lat="42.3695" lon="2.18095">
        <ele>1319.6</ele>
        <time>2024-09-25T14:55:48Z</time>
      </trkpt>
      <trkpt lat="42.36949" lon="2.18094">
        <ele>1319.4</ele>
        <time>2024-09-25T14:55:49Z</time>
      </trkpt>
      <trkpt lat="42.3695" lon="2.18093">
        <ele>1319.3</ele>
        <time>2024-09-25T14:55:50Z</time>
      </trkpt>
      <trkpt lat="42.36949" lon="2.18092">
        <ele>1319.1</ele>
        <time>2024-09-25T14:55:51Z</time>
      </trkpt>
      <trkpt lat="42.36949" lon="2.18092">
        <ele>1318.9</ele>
        <time>2024-09-25T14:55:52Z</time>
      </trkpt>
      <trkpt lat="42.36948" lon="2.18091">
        <ele>1318.6</ele>
        <time>2024-09-25T14:55:53Z</time>
      </trkpt>
      <trkpt lat="42.36948" lon="2.1809">
        <ele>1318.4</ele>
        <time>2024-09-25T14:55:54Z</time>
      </trkpt>
      <trkpt lat="42.36948" lon="2.1809">
        <ele>1318.4</ele>
        <time>2024-09-25T14:55:55Z</time>
      </trkpt>
      <trkpt lat="42.36948" lon="2.18089">
        <ele>1318.2</ele>
        <time>2024-09-25T14:55:56Z</time>
      </trkpt>
      <trkpt lat="42.36947" lon="2.18089">
        <ele>1318.1</ele>
        <time>2024-09-25T14:55:57Z</time>
      </trkpt>
      <trkpt lat="42.36947" lon="2.18088">
        <ele>1317.9</ele>
        <time>2024-09-25T14:55:58Z</time>
      </trkpt>
      <trkpt lat="42.36947" lon="2.18088">
        <ele>1317.8</ele>
        <time>2024-09-25T14:55:59Z</time>
      </trkpt>
      <trkpt lat="42.36947" lon="2.18088">
        <ele>1317.8</ele>
        <time>2024-09-25T14:56:00Z</time>
      </trkpt>
      <trkpt lat="42.36947" lon="2.18089">
        <ele>1317.6</ele>
        <time>2024-09-25T14:56:01Z</time>
      </trkpt>
      <trkpt lat="42.36947" lon="2.18089">
        <ele>1317.5</ele>
        <time>2024-09-25T14:56:02Z</time>
      </trkpt>
      <trkpt lat="42.36947" lon="2.18089">
        <ele>1317.5</ele>
        <time>2024-09-25T14:56:03Z</time>
      </trkpt>
      <trkpt lat="42.36948" lon="2.18089">
        <ele>1317.5</ele>
        <time>2024-09-25T14:56:04Z</time>
      </trkpt>
      <trkpt lat="42.36948" lon="2.18088">
        <ele>1317.4</ele>
        <time>2024-09-25T14:56:05Z</time>
      </trkpt>
      <trkpt lat="42.36947" lon="2.18088">
        <ele>1317.2</ele>
        <time>2024-09-25T14:56:06Z</time>
      </trkpt>
      <trkpt lat="42.36947" lon="2.18087">
        <ele>1317.1</ele>
        <time>2024-09-25T14:56:07Z</time>
      </trkpt>
      <trkpt lat="42.36947" lon="2.18086">
        <ele>1316.8</ele>
        <time>2024-09-25T14:56:08Z</time>
      </trkpt>
      <trkpt lat="42.36947" lon="2.18085">
        <ele>1316.7</ele>
        <time>2024-09-25T14:56:09Z</time>
      </trkpt>
      <trkpt lat="42.36947" lon="2.18084">
        <ele>1316.4</ele>
        <time>2024-09-25T14:56:10Z</time>
      </trkpt>
      <trkpt lat="42.36946" lon="2.18083">
        <ele>1316.2</ele>
        <time>2024-09-25T14:56:11Z</time>
      </trkpt>
      <trkpt lat="42.36946" lon="2.18082">
        <ele>1316</ele>
        <time>2024-09-25T14:56:12Z</time>
      </trkpt>
      <trkpt lat="42.36946" lon="2.18081">
        <ele>1315.9</ele>
        <time>2024-09-25T14:56:13Z</time>
      </trkpt>
      <trkpt lat="42.36946" lon="2.18081">
        <ele>1315.7</ele>
        <time>2024-09-25T14:56:14Z</time>
      </trkpt>
      <trkpt lat="42.36947" lon="2.1808">
        <ele>1315.6</ele>
        <time>2024-09-25T14:56:15Z</time>
      </trkpt>
      <trkpt lat="42.36947" lon="2.1808">
        <ele>1315.5</ele>
        <time>2024-09-25T14:56:16Z</time>
      </trkpt>
      <trkpt lat="42.36947" lon="2.1808">
        <ele>1315.5</ele>
        <time>2024-09-25T14:56:17Z</time>
      </trkpt>
      <trkpt lat="42.36947" lon="2.18079">
        <ele>1315.4</ele>
        <time>2024-09-25T14:56:18Z</time>
      </trkpt>
      <trkpt lat="42.36946" lon="2.18078">
        <ele>1315.1</ele>
        <time>2024-09-25T14:56:19Z</time>
      </trkpt>
      <trkpt lat="42.36946" lon="2.18077">
        <ele>1314.9</ele>
        <time>2024-09-25T14:56:20Z</time>
      </trkpt>
      <trkpt lat="42.36946" lon="2.18076">
        <ele>1314.5</ele>
        <time>2024-09-25T14:56:21Z</time>
      </trkpt>
      <trkpt lat="42.36945" lon="2.18075">
        <ele>1314.3</ele>
        <time>2024-09-25T14:56:22Z</time>
      </trkpt>
      <trkpt lat="42.36945" lon="2.18074">
        <ele>1314.1</ele>
        <time>2024-09-25T14:56:23Z</time>
      </trkpt>
      <trkpt lat="42.36946" lon="2.18073">
        <ele>1314</ele>
        <time>2024-09-25T14:56:24Z</time>
      </trkpt>
      <trkpt lat="42.36946" lon="2.18074">
        <ele>1313.9</ele>
        <time>2024-09-25T14:56:25Z</time>
      </trkpt>
      <trkpt lat="42.36946" lon="2.18074">
        <ele>1313.8</ele>
        <time>2024-09-25T14:56:26Z</time>
      </trkpt>
      <trkpt lat="42.36946" lon="2.18073">
        <ele>1313.7</ele>
        <time>2024-09-25T14:56:27Z</time>
      </trkpt>
      <trkpt lat="42.36946" lon="2.18073">
        <ele>1313.6</ele>
        <time>2024-09-25T14:56:28Z</time>
      </trkpt>
      <trkpt lat="42.36946" lon="2.18071">
        <ele>1313.2</ele>
        <time>2024-09-25T14:56:29Z</time>
      </trkpt>
      <trkpt lat="42.36946" lon="2.18069">
        <ele>1312.9</ele>
        <time>2024-09-25T14:56:30Z</time>
      </trkpt>
      <trkpt lat="42.36946" lon="2.18068">
        <ele>1312.7</ele>
        <time>2024-09-25T14:56:31Z</time>
      </trkpt>
      <trkpt lat="42.36947" lon="2.18067">
        <ele>1312.4</ele>
        <time>2024-09-25T14:56:32Z</time>
      </trkpt>
      <trkpt lat="42.36947" lon="2.18066">
        <ele>1312.2</ele>
        <time>2024-09-25T14:56:33Z</time>
      </trkpt>
      <trkpt lat="42.36948" lon="2.18065">
        <ele>1311.9</ele>
        <time>2024-09-25T14:56:34Z</time>
      </trkpt>
      <trkpt lat="42.36948" lon="2.18064">
        <ele>1311.7</ele>
        <time>2024-09-25T14:56:35Z</time>
      </trkpt>
      <trkpt lat="42.36948" lon="2.18063">
        <ele>1311.5</ele>
        <time>2024-09-25T14:56:36Z</time>
      </trkpt>
      <trkpt lat="42.36948" lon="2.18062">
        <ele>1311.4</ele>
        <time>2024-09-25T14:56:37Z</time>
      </trkpt>
      <trkpt lat="42.36948" lon="2.18061">
        <ele>1311.3</ele>
        <time>2024-09-25T14:56:38Z</time>
      </trkpt>
      <trkpt lat="42.36947" lon="2.18061">
        <ele>1311.2</ele>
        <time>2024-09-25T14:56:39Z</time>
      </trkpt>
      <trkpt lat="42.36947" lon="2.18061">
        <ele>1311.2</ele>
        <time>2024-09-25T14:56:40Z</time>
      </trkpt>
      <trkpt lat="42.36947" lon="2.18061">
        <ele>1311.1</ele>
        <time>2024-09-25T14:56:41Z</time>
      </trkpt>
      <trkpt lat="42.36948" lon="2.18061">
        <ele>1311</ele>
        <time>2024-09-25T14:56:42Z</time>
      </trkpt>
      <trkpt lat="42.36948" lon="2.1806">
        <ele>1310.9</ele>
        <time>2024-09-25T14:56:43Z</time>
      </trkpt>
      <trkpt lat="42.36949" lon="2.18059">
        <ele>1310.7</ele>
        <time>2024-09-25T14:56:44Z</time>
      </trkpt>
      <trkpt lat="42.36949" lon="2.18059">
        <ele>1310.6</ele>
        <time>2024-09-25T14:56:45Z</time>
      </trkpt>
      <trkpt lat="42.36949" lon="2.18059">
        <ele>1310.4</ele>
        <time>2024-09-25T14:56:46Z</time>
      </trkpt>
      <trkpt lat="42.3695" lon="2.18058">
        <ele>1310.2</ele>
        <time>2024-09-25T14:56:47Z</time>
      </trkpt>
      <trkpt lat="42.36951" lon="2.18057">
        <ele>1310</ele>
        <time>2024-09-25T14:56:48Z</time>
      </trkpt>
      <trkpt lat="42.36951" lon="2.18057">
        <ele>1309.9</ele>
        <time>2024-09-25T14:56:49Z</time>
      </trkpt>
      <trkpt lat="42.36951" lon="2.18057">
        <ele>1309.8</ele>
        <time>2024-09-25T14:56:50Z</time>
      </trkpt>
      <trkpt lat="42.36952" lon="2.18057">
        <ele>1309.8</ele>
        <time>2024-09-25T14:56:51Z</time>
      </trkpt>
      <trkpt lat="42.36952" lon="2.18056">
        <ele>1309.6</ele>
        <time>2024-09-25T14:56:52Z</time>
      </trkpt>
      <trkpt lat="42.36952" lon="2.18056">
        <ele>1309.5</ele>
        <time>2024-09-25T14:56:53Z</time>
      </trkpt>
      <trkpt lat="42.36951" lon="2.18057">
        <ele>1309.2</ele>
        <time>2024-09-25T14:56:54Z</time>
      </trkpt>
      <trkpt lat="42.36951" lon="2.18058">
        <ele>1309.1</ele>
        <time>2024-09-25T14:56:55Z</time>
      </trkpt>
      <trkpt lat="42.36951" lon="2.18058">
        <ele>1309.1</ele>
        <time>2024-09-25T14:56:56Z</time>
      </trkpt>
      <trkpt lat="42.36951" lon="2.18058">
        <ele>1309.1</ele>
        <time>2024-09-25T14:56:57Z</time>
      </trkpt>
      <trkpt lat="42.3695" lon="2.18058">
        <ele>1309.1</ele>
        <time>2024-09-25T14:56:58Z</time>
      </trkpt>
      <trkpt lat="42.3695" lon="2.18058">
        <ele>1309.1</ele>
        <time>2024-09-25T14:56:59Z</time>
      </trkpt>
      <trkpt lat="42.3695" lon="2.18058">
        <ele>1309</ele>
        <time>2024-09-25T14:57:00Z</time>
      </trkpt>
      <trkpt lat="42.3695" lon="2.18057">
        <ele>1309</ele>
        <time>2024-09-25T14:57:01Z</time>
      </trkpt>
      <trkpt lat="42.3695" lon="2.18057">
        <ele>1308.9</ele>
        <time>2024-09-25T14:57:02Z</time>
      </trkpt>
      <trkpt lat="42.3695" lon="2.18057">
        <ele>1308.9</ele>
        <time>2024-09-25T14:57:03Z</time>
      </trkpt>
      <trkpt lat="42.3695" lon="2.18056">
        <ele>1308.8</ele>
        <time>2024-09-25T14:57:04Z</time>
      </trkpt>
      <trkpt lat="42.3695" lon="2.18056">
        <ele>1308.7</ele>
        <time>2024-09-25T14:57:05Z</time>
      </trkpt>
      <trkpt lat="42.3695" lon="2.18055">
        <ele>1308.6</ele>
        <time>2024-09-25T14:57:06Z</time>
      </trkpt>
      <trkpt lat="42.3695" lon="2.18055">
        <ele>1308.5</ele>
        <time>2024-09-25T14:57:07Z</time>
      </trkpt>
      <trkpt lat="42.3695" lon="2.18053">
        <ele>1308.3</ele>
        <time>2024-09-25T14:57:08Z</time>
      </trkpt>
      <trkpt lat="42.3695" lon="2.18052">
        <ele>1308.1</ele>
        <time>2024-09-25T14:57:09Z</time>
      </trkpt>
      <trkpt lat="42.3695" lon="2.18051">
        <ele>1307.9</ele>
        <time>2024-09-25T14:57:10Z</time>
      </trkpt>
      <trkpt lat="42.3695" lon="2.18049">
        <ele>1307.7</ele>
        <time>2024-09-25T14:57:11Z</time>
      </trkpt>
      <trkpt lat="42.3695" lon="2.18048">
        <ele>1307.4</ele>
        <time>2024-09-25T14:57:12Z</time>
      </trkpt>
      <trkpt lat="42.3695" lon="2.18047">
        <ele>1307.2</ele>
        <time>2024-09-25T14:57:13Z</time>
      </trkpt>
      <trkpt lat="42.36949" lon="2.18046">
        <ele>1307</ele>
        <time>2024-09-25T14:57:14Z</time>
      </trkpt>
      <trkpt lat="42.36949" lon="2.18045">
        <ele>1306.9</ele>
        <time>2024-09-25T14:57:15Z</time>
      </trkpt>
      <trkpt lat="42.36949" lon="2.18043">
        <ele>1306.7</ele>
        <time>2024-09-25T14:57:16Z</time>
      </trkpt>
      <trkpt lat="42.36948" lon="2.18042">
        <ele>1306.4</ele>
        <time>2024-09-25T14:57:17Z</time>
      </trkpt>
      <trkpt lat="42.36948" lon="2.18041">
        <ele>1306.2</ele>
        <time>2024-09-25T14:57:18Z</time>
      </trkpt>
      <trkpt lat="42.36947" lon="2.18038">
        <ele>1305.8</ele>
        <time>2024-09-25T14:57:19Z</time>
      </trkpt>
      <trkpt lat="42.36946" lon="2.18037">
        <ele>1305.5</ele>
        <time>2024-09-25T14:57:20Z</time>
      </trkpt>
      <trkpt lat="42.36945" lon="2.18036">
        <ele>1305.4</ele>
        <time>2024-09-25T14:57:21Z</time>
      </trkpt>
      <trkpt lat="42.36945" lon="2.18036">
        <ele>1305.3</ele>
        <time>2024-09-25T14:57:22Z</time>
      </trkpt>
      <trkpt lat="42.36944" lon="2.18035">
        <ele>1305.2</ele>
        <time>2024-09-25T14:57:23Z</time>
      </trkpt>
      <trkpt lat="42.36944" lon="2.18034">
        <ele>1305.1</ele>
        <time>2024-09-25T14:57:24Z</time>
      </trkpt>
      <trkpt lat="42.36944" lon="2.18034">
        <ele>1305</ele>
        <time>2024-09-25T14:57:25Z</time>
      </trkpt>
      <trkpt lat="42.36943" lon="2.18036">
        <ele>1304.9</ele>
        <time>2024-09-25T14:57:26Z</time>
      </trkpt>
      <trkpt lat="42.36944" lon="2.18038">
        <ele>1304.6</ele>
        <time>2024-09-25T14:57:27Z</time>
      </trkpt>
      <trkpt lat="42.36944" lon="2.18039">
        <ele>1304.5</ele>
        <time>2024-09-25T14:57:28Z</time>
      </trkpt>
      <trkpt lat="42.36944" lon="2.1804">
        <ele>1304.4</ele>
        <time>2024-09-25T14:57:29Z</time>
      </trkpt>
      <trkpt lat="42.36944" lon="2.1804">
        <ele>1304.3</ele>
        <time>2024-09-25T14:57:30Z</time>
      </trkpt>
      <trkpt lat="42.36944" lon="2.1804">
        <ele>1304.3</ele>
        <time>2024-09-25T14:57:31Z</time>
      </trkpt>
      <trkpt lat="42.36944" lon="2.1804">
        <ele>1304.3</ele>
        <time>2024-09-25T14:57:32Z</time>
      </trkpt>
      <trkpt lat="42.36943" lon="2.1804">
        <ele>1304.3</ele>
        <time>2024-09-25T14:57:33Z</time>
      </trkpt>
      <trkpt lat="42.36943" lon="2.1804">
        <ele>1304.2</ele>
        <time>2024-09-25T14:57:34Z</time>
      </trkpt>
      <trkpt lat="42.36943" lon="2.1804">
        <ele>1304.2</ele>
        <time>2024-09-25T14:57:35Z</time>
      </trkpt>
      <trkpt lat="42.36943" lon="2.18038">
        <ele>1304</ele>
        <time>2024-09-25T14:57:36Z</time>
      </trkpt>
      <trkpt lat="42.36943" lon="2.18036">
        <ele>1303.8</ele>
        <time>2024-09-25T14:57:37Z</time>
      </trkpt>
      <trkpt lat="42.36942" lon="2.18034">
        <ele>1303.5</ele>
        <time>2024-09-25T14:57:38Z</time>
      </trkpt>
      <trkpt lat="42.36941" lon="2.18032">
        <ele>1303.4</ele>
        <time>2024-09-25T14:57:39Z</time>
      </trkpt>
      <trkpt lat="42.36941" lon="2.18029">
        <ele>1303.1</ele>
        <time>2024-09-25T14:57:40Z</time>
      </trkpt>
      <trkpt lat="42.36941" lon="2.18028">
        <ele>1303</ele>
        <time>2024-09-25T14:57:41Z</time>
      </trkpt>
      <trkpt lat="42.36942" lon="2.18027">
        <ele>1303</ele>
        <time>2024-09-25T14:57:42Z</time>
      </trkpt>
      <trkpt lat="42.36942" lon="2.18024">
        <ele>1302.8</ele>
        <time>2024-09-25T14:57:43Z</time>
      </trkpt>
      <trkpt lat="42.36942" lon="2.18022">
        <ele>1302.7</ele>
        <time>2024-09-25T14:57:44Z</time>
      </trkpt>
      <trkpt lat="42.36942" lon="2.1802">
        <ele>1302.6</ele>
        <time>2024-09-25T14:57:45Z</time>
      </trkpt>
      <trkpt lat="42.36942" lon="2.18018">
        <ele>1302.5</ele>
        <time>2024-09-25T14:57:46Z</time>
      </trkpt>
      <trkpt lat="42.36942" lon="2.18016">
        <ele>1302.4</ele>
        <time>2024-09-25T14:57:47Z</time>
      </trkpt>
      <trkpt lat="42.36942" lon="2.18014">
        <ele>1302.4</ele>
        <time>2024-09-25T14:57:48Z</time>
      </trkpt>
      <trkpt lat="42.36941" lon="2.18013">
        <ele>1302.3</ele>
        <time>2024-09-25T14:57:49Z</time>
      </trkpt>
      <trkpt lat="42.3694" lon="2.18011">
        <ele>1302.3</ele>
        <time>2024-09-25T14:57:50Z</time>
      </trkpt>
      <trkpt lat="42.3694" lon="2.1801">
        <ele>1302.3</ele>
        <time>2024-09-25T14:57:51Z</time>
      </trkpt>
      <trkpt lat="42.3694" lon="2.18008">
        <ele>1302.2</ele>
        <time>2024-09-25T14:57:52Z</time>
      </trkpt>
      <trkpt lat="42.3694" lon="2.18007">
        <ele>1302.2</ele>
        <time>2024-09-25T14:57:53Z</time>
      </trkpt>
      <trkpt lat="42.3694" lon="2.18005">
        <ele>1302.2</ele>
        <time>2024-09-25T14:57:54Z</time>
      </trkpt>
      <trkpt lat="42.36939" lon="2.18004">
        <ele>1302.2</ele>
        <time>2024-09-25T14:57:55Z</time>
      </trkpt>
      <trkpt lat="42.36939" lon="2.18003">
        <ele>1302.2</ele>
        <time>2024-09-25T14:57:56Z</time>
      </trkpt>
      <trkpt lat="42.36939" lon="2.18002">
        <ele>1302.2</ele>
        <time>2024-09-25T14:57:57Z</time>
      </trkpt>
      <trkpt lat="42.36939" lon="2.18001">
        <ele>1302.2</ele>
        <time>2024-09-25T14:57:58Z</time>
      </trkpt>
      <trkpt lat="42.36939" lon="2.18">
        <ele>1302.2</ele>
        <time>2024-09-25T14:57:59Z</time>
      </trkpt>
      <trkpt lat="42.36939" lon="2.17999">
        <ele>1302.2</ele>
        <time>2024-09-25T14:58:00Z</time>
      </trkpt>
      <trkpt lat="42.3694" lon="2.17998">
        <ele>1302.2</ele>
        <time>2024-09-25T14:58:01Z</time>
      </trkpt>
      <trkpt lat="42.3694" lon="2.17998">
        <ele>1302.2</ele>
        <time>2024-09-25T14:58:02Z</time>
      </trkpt>
      <trkpt lat="42.3694" lon="2.17998">
        <ele>1302.2</ele>
        <time>2024-09-25T14:58:03Z</time>
      </trkpt>
      <trkpt lat="42.3694" lon="2.18">
        <ele>1302.2</ele>
        <time>2024-09-25T14:58:04Z</time>
      </trkpt>
      <trkpt lat="42.36939" lon="2.18002">
        <ele>1302.2</ele>
        <time>2024-09-25T14:58:05Z</time>
      </trkpt>
      <trkpt lat="42.36939" lon="2.18002">
        <ele>1302.2</ele>
        <time>2024-09-25T14:58:06Z</time>
      </trkpt>
      <trkpt lat="42.36939" lon="2.18002">
        <ele>1302.2</ele>
        <time>2024-09-25T14:58:07Z</time>
      </trkpt>
      <trkpt lat="42.36939" lon="2.18002">
        <ele>1302.2</ele>
        <time>2024-09-25T14:58:08Z</time>
      </trkpt>
      <trkpt lat="42.36939" lon="2.18002">
        <ele>1302.2</ele>
        <time>2024-09-25T14:58:09Z</time>
      </trkpt>
      <trkpt lat="42.36939" lon="2.18002">
        <ele>1302.2</ele>
        <time>2024-09-25T14:58:10Z</time>
      </trkpt>
      <trkpt lat="42.36939" lon="2.18002">
        <ele>1302.2</ele>
        <time>2024-09-25T14:58:11Z</time>
      </trkpt>
      <trkpt lat="42.36939" lon="2.18002">
        <ele>1302.2</ele>
        <time>2024-09-25T14:58:12Z</time>
      </trkpt>
      <trkpt lat="42.36939" lon="2.18003">
        <ele>1302.2</ele>
        <time>2024-09-25T14:58:13Z</time>
      </trkpt>
      <trkpt lat="42.36939" lon="2.18003">
        <ele>1302.2</ele>
        <time>2024-09-25T14:58:14Z</time>
      </trkpt>
      <trkpt lat="42.36939" lon="2.18003">
        <ele>1302.2</ele>
        <time>2024-09-25T14:58:15Z</time>
      </trkpt>
      <trkpt lat="42.3694" lon="2.18003">
        <ele>1302.2</ele>
        <time>2024-09-25T14:58:16Z</time>
      </trkpt>
      <trkpt lat="42.36941" lon="2.18003">
        <ele>1302.3</ele>
        <time>2024-09-25T14:58:17Z</time>
      </trkpt>
      <trkpt lat="42.36942" lon="2.18004">
        <ele>1302.3</ele>
        <time>2024-09-25T14:58:18Z</time>
      </trkpt>
      <trkpt lat="42.36942" lon="2.18005">
        <ele>1302.3</ele>
        <time>2024-09-25T14:58:19Z</time>
      </trkpt>
      <trkpt lat="42.36941" lon="2.18006">
        <ele>1302.3</ele>
        <time>2024-09-25T14:58:20Z</time>
      </trkpt>
      <trkpt lat="42.36941" lon="2.18007">
        <ele>1302.3</ele>
        <time>2024-09-25T14:58:21Z</time>
      </trkpt>
      <trkpt lat="42.36941" lon="2.18008">
        <ele>1302.3</ele>
        <time>2024-09-25T14:58:22Z</time>
      </trkpt>
      <trkpt lat="42.3694" lon="2.18009">
        <ele>1302.3</ele>
        <time>2024-09-25T14:58:23Z</time>
      </trkpt>
      <trkpt lat="42.3694" lon="2.1801">
        <ele>1302.3</ele>
        <time>2024-09-25T14:58:24Z</time>
      </trkpt>
      <trkpt lat="42.3694" lon="2.18011">
        <ele>1302.3</ele>
        <time>2024-09-25T14:58:25Z</time>
      </trkpt>
      <trkpt lat="42.3694" lon="2.18012">
        <ele>1302.3</ele>
        <time>2024-09-25T14:58:26Z</time>
      </trkpt>
      <trkpt lat="42.3694" lon="2.18012">
        <ele>1302.3</ele>
        <time>2024-09-25T14:58:27Z</time>
      </trkpt>
      <trkpt lat="42.3694" lon="2.18013">
        <ele>1302.3</ele>
        <time>2024-09-25T14:58:28Z</time>
      </trkpt>
      <trkpt lat="42.3694" lon="2.18013">
        <ele>1302.3</ele>
        <time>2024-09-25T14:58:29Z</time>
      </trkpt>
      <trkpt lat="42.36941" lon="2.18013">
        <ele>1302.3</ele>
        <time>2024-09-25T14:58:30Z</time>
      </trkpt>
      <trkpt lat="42.36941" lon="2.18013">
        <ele>1302.3</ele>
        <time>2024-09-25T14:58:31Z</time>
      </trkpt>
      <trkpt lat="42.36941" lon="2.18013">
        <ele>1302.3</ele>
        <time>2024-09-25T14:58:32Z</time>
      </trkpt>
      <trkpt lat="42.36941" lon="2.18013">
        <ele>1302.3</ele>
        <time>2024-09-25T14:58:33Z</time>
      </trkpt>
      <trkpt lat="42.36941" lon="2.18013">
        <ele>1302.3</ele>
        <time>2024-09-25T14:58:34Z</time>
      </trkpt>
      <trkpt lat="42.36941" lon="2.18013">
        <ele>1302.3</ele>
        <time>2024-09-25T14:58:35Z</time>
      </trkpt>
      <trkpt lat="42.36941" lon="2.18013">
        <ele>1302.3</ele>
        <time>2024-09-25T14:58:36Z</time>
      </trkpt>
      <trkpt lat="42.36941" lon="2.18013">
        <ele>1302.3</ele>
        <time>2024-09-25T14:58:37Z</time>
      </trkpt>
      <trkpt lat="42.36941" lon="2.18013">
        <ele>1302.3</ele>
        <time>2024-09-25T14:58:38Z</time>
      </trkpt>
      <trkpt lat="42.36941" lon="2.18013">
        <ele>1302.3</ele>
        <time>2024-09-25T14:58:39Z</time>
      </trkpt>
      <trkpt lat="42.36941" lon="2.18013">
        <ele>1302.3</ele>
        <time>2024-09-25T14:58:40Z</time>
      </trkpt>
      <trkpt lat="42.36941" lon="2.18013">
        <ele>1302.3</ele>
        <time>2024-09-25T14:58:41Z</time>
      </trkpt>
      <trkpt lat="42.36941" lon="2.18013">
        <ele>1302.3</ele>
        <time>2024-09-25T14:58:42Z</time>
      </trkpt>
      <trkpt lat="42.3694" lon="2.18013">
        <ele>1302.3</ele>
        <time>2024-09-25T14:58:43Z</time>
      </trkpt>
      <trkpt lat="42.3694" lon="2.18013">
        <ele>1302.3</ele>
        <time>2024-09-25T14:58:44Z</time>
      </trkpt>
      <trkpt lat="42.3694" lon="2.18013">
        <ele>1302.3</ele>
        <time>2024-09-25T14:58:45Z</time>
      </trkpt>
      <trkpt lat="42.3694" lon="2.18013">
        <ele>1302.3</ele>
        <time>2024-09-25T14:58:46Z</time>
      </trkpt>
      <trkpt lat="42.3694" lon="2.18013">
        <ele>1302.3</ele>
        <time>2024-09-25T14:58:47Z</time>
      </trkpt>
      <trkpt lat="42.3694" lon="2.18014">
        <ele>1302.4</ele>
        <time>2024-09-25T14:58:48Z</time>
      </trkpt>
      <trkpt lat="42.36939" lon="2.18015">
        <ele>1302.4</ele>
        <time>2024-09-25T14:58:49Z</time>
      </trkpt>
      <trkpt lat="42.36938" lon="2.18016">
        <ele>1302.4</ele>
        <time>2024-09-25T14:58:50Z</time>
      </trkpt>
      <trkpt lat="42.36938" lon="2.18017">
        <ele>1302.4</ele>
        <time>2024-09-25T14:58:51Z</time>
      </trkpt>
      <trkpt lat="42.36937" lon="2.18018">
        <ele>1302.4</ele>
        <time>2024-09-25T14:58:52Z</time>
      </trkpt>
      <trkpt lat="42.36936" lon="2.18019">
        <ele>1302.4</ele>
        <time>2024-09-25T14:58:53Z</time>
      </trkpt>
      <trkpt lat="42.36935" lon="2.18018">
        <ele>1302.4</ele>
        <time>2024-09-25T14:58:54Z</time>
      </trkpt>
      <trkpt lat="42.36934" lon="2.18018">
        <ele>1302.4</ele>
        <time>2024-09-25T14:58:55Z</time>
      </trkpt>
      <trkpt lat="42.36934" lon="2.18018">
        <ele>1302.4</ele>
        <time>2024-09-25T14:58:56Z</time>
      </trkpt>
      <trkpt lat="42.36933" lon="2.18019">
        <ele>1302.4</ele>
        <time>2024-09-25T14:58:57Z</time>
      </trkpt>
      <trkpt lat="42.36932" lon="2.18019">
        <ele>1302.4</ele>
        <time>2024-09-25T14:58:58Z</time>
      </trkpt>
      <trkpt lat="42.3693" lon="2.18019">
        <ele>1302.3</ele>
        <time>2024-09-25T14:58:59Z</time>
      </trkpt>
      <trkpt lat="42.36929" lon="2.1802">
        <ele>1302.3</ele>
        <time>2024-09-25T14:59:00Z</time>
      </trkpt>
      <trkpt lat="42.36929" lon="2.1802">
        <ele>1302.3</ele>
        <time>2024-09-25T14:59:01Z</time>
      </trkpt>
      <trkpt lat="42.36927" lon="2.18021">
        <ele>1302.3</ele>
        <time>2024-09-25T14:59:02Z</time>
      </trkpt>
      <trkpt lat="42.36926" lon="2.18021">
        <ele>1302.3</ele>
        <time>2024-09-25T14:59:03Z</time>
      </trkpt>
      <trkpt lat="42.36925" lon="2.18022">
        <ele>1302.2</ele>
        <time>2024-09-25T14:59:04Z</time>
      </trkpt>
      <trkpt lat="42.36924" lon="2.18022">
        <ele>1302.2</ele>
        <time>2024-09-25T14:59:05Z</time>
      </trkpt>
      <trkpt lat="42.36923" lon="2.18022">
        <ele>1302.2</ele>
        <time>2024-09-25T14:59:06Z</time>
      </trkpt>
      <trkpt lat="42.36922" lon="2.18023">
        <ele>1302.2</ele>
        <time>2024-09-25T14:59:07Z</time>
      </trkpt>
      <trkpt lat="42.3692" lon="2.18023">
        <ele>1302.1</ele>
        <time>2024-09-25T14:59:08Z</time>
      </trkpt>
      <trkpt lat="42.36919" lon="2.18023">
        <ele>1302.1</ele>
        <time>2024-09-25T14:59:09Z</time>
      </trkpt>
      <trkpt lat="42.36919" lon="2.18023">
        <ele>1302</ele>
        <time>2024-09-25T14:59:10Z</time>
      </trkpt>
      <trkpt lat="42.36917" lon="2.18023">
        <ele>1302</ele>
        <time>2024-09-25T14:59:11Z</time>
      </trkpt>
      <trkpt lat="42.36916" lon="2.18023">
        <ele>1301.9</ele>
        <time>2024-09-25T14:59:12Z</time>
      </trkpt>
      <trkpt lat="42.36915" lon="2.18022">
        <ele>1301.9</ele>
        <time>2024-09-25T14:59:13Z</time>
      </trkpt>
      <trkpt lat="42.36914" lon="2.18022">
        <ele>1301.8</ele>
        <time>2024-09-25T14:59:14Z</time>
      </trkpt>
      <trkpt lat="42.36913" lon="2.18022">
        <ele>1301.8</ele>
        <time>2024-09-25T14:59:15Z</time>
      </trkpt>
      <trkpt lat="42.36912" lon="2.18021">
        <ele>1301.7</ele>
        <time>2024-09-25T14:59:16Z</time>
      </trkpt>
      <trkpt lat="42.36911" lon="2.18021">
        <ele>1301.7</ele>
        <time>2024-09-25T14:59:17Z</time>
      </trkpt>
      <trkpt lat="42.36911" lon="2.18021">
        <ele>1301.6</ele>
        <time>2024-09-25T14:59:18Z</time>
      </trkpt>
      <trkpt lat="42.3691" lon="2.1802">
        <ele>1301.6</ele>
        <time>2024-09-25T14:59:19Z</time>
      </trkpt>
      <trkpt lat="42.36909" lon="2.18019">
        <ele>1301.5</ele>
        <time>2024-09-25T14:59:20Z</time>
      </trkpt>
      <trkpt lat="42.36908" lon="2.18019">
        <ele>1301.4</ele>
        <time>2024-09-25T14:59:21Z</time>
      </trkpt>
      <trkpt lat="42.36907" lon="2.18019">
        <ele>1301.4</ele>
        <time>2024-09-25T14:59:22Z</time>
      </trkpt>
      <trkpt lat="42.36907" lon="2.18019">
        <ele>1301.4</ele>
        <time>2024-09-25T14:59:23Z</time>
      </trkpt>
      <trkpt lat="42.36906" lon="2.18019">
        <ele>1301.3</ele>
        <time>2024-09-25T14:59:24Z</time>
      </trkpt>
      <trkpt lat="42.36905" lon="2.18019">
        <ele>1301.2</ele>
        <time>2024-09-25T14:59:25Z</time>
      </trkpt>
      <trkpt lat="42.36903" lon="2.18018">
        <ele>1301.1</ele>
        <time>2024-09-25T14:59:26Z</time>
      </trkpt>
      <trkpt lat="42.36901" lon="2.18018">
        <ele>1301</ele>
        <time>2024-09-25T14:59:27Z</time>
      </trkpt>
      <trkpt lat="42.369" lon="2.18018">
        <ele>1300.9</ele>
        <time>2024-09-25T14:59:28Z</time>
      </trkpt>
      <trkpt lat="42.369" lon="2.18018">
        <ele>1300.9</ele>
        <time>2024-09-25T14:59:29Z</time>
      </trkpt>
      <trkpt lat="42.36899" lon="2.18017">
        <ele>1300.8</ele>
        <time>2024-09-25T14:59:30Z</time>
      </trkpt>
      <trkpt lat="42.36898" lon="2.18017">
        <ele>1300.7</ele>
        <time>2024-09-25T14:59:31Z</time>
      </trkpt>
      <trkpt lat="42.36896" lon="2.18017">
        <ele>1300.6</ele>
        <time>2024-09-25T14:59:32Z</time>
      </trkpt>
      <trkpt lat="42.36895" lon="2.18016">
        <ele>1300.5</ele>
        <time>2024-09-25T14:59:33Z</time>
      </trkpt>
      <trkpt lat="42.36894" lon="2.18016">
        <ele>1300.4</ele>
        <time>2024-09-25T14:59:34Z</time>
      </trkpt>
      <trkpt lat="42.36893" lon="2.18016">
        <ele>1300.3</ele>
        <time>2024-09-25T14:59:35Z</time>
      </trkpt>
      <trkpt lat="42.36891" lon="2.18017">
        <ele>1300.2</ele>
        <time>2024-09-25T14:59:36Z</time>
      </trkpt>
      <trkpt lat="42.3689" lon="2.18017">
        <ele>1300.1</ele>
        <time>2024-09-25T14:59:37Z</time>
      </trkpt>
      <trkpt lat="42.36889" lon="2.18016">
        <ele>1300</ele>
        <time>2024-09-25T14:59:38Z</time>
      </trkpt>
      <trkpt lat="42.36888" lon="2.18016">
        <ele>1299.9</ele>
        <time>2024-09-25T14:59:39Z</time>
      </trkpt>
      <trkpt lat="42.36887" lon="2.18017">
        <ele>1299.8</ele>
        <time>2024-09-25T14:59:40Z</time>
      </trkpt>
      <trkpt lat="42.36886" lon="2.18016">
        <ele>1299.7</ele>
        <time>2024-09-25T14:59:41Z</time>
      </trkpt>
      <trkpt lat="42.36885" lon="2.18015">
        <ele>1299.6</ele>
        <time>2024-09-25T14:59:42Z</time>
      </trkpt>
      <trkpt lat="42.36885" lon="2.18014">
        <ele>1299.5</ele>
        <time>2024-09-25T14:59:43Z</time>
      </trkpt>
      <trkpt lat="42.36885" lon="2.18013">
        <ele>1299.4</ele>
        <time>2024-09-25T14:59:44Z</time>
      </trkpt>
      <trkpt lat="42.36885" lon="2.18011">
        <ele>1299.3</ele>
        <time>2024-09-25T14:59:45Z</time>
      </trkpt>
      <trkpt lat="42.36884" lon="2.18011">
        <ele>1299.3</ele>
        <time>2024-09-25T14:59:46Z</time>
      </trkpt>
      <trkpt lat="42.36883" lon="2.1801">
        <ele>1299.1</ele>
        <time>2024-09-25T14:59:47Z</time>
      </trkpt>
      <trkpt lat="42.36882" lon="2.18009">
        <ele>1299</ele>
        <time>2024-09-25T14:59:48Z</time>
      </trkpt>
      <trkpt lat="42.36881" lon="2.18009">
        <ele>1299</ele>
        <time>2024-09-25T14:59:49Z</time>
      </trkpt>
      <trkpt lat="42.36881" lon="2.18008">
        <ele>1298.9</ele>
        <time>2024-09-25T14:59:50Z</time>
      </trkpt>
      <trkpt lat="42.36881" lon="2.18008">
        <ele>1298.8</ele>
        <time>2024-09-25T14:59:51Z</time>
      </trkpt>
      <trkpt lat="42.3688" lon="2.18008">
        <ele>1298.8</ele>
        <time>2024-09-25T14:59:52Z</time>
      </trkpt>
      <trkpt lat="42.3688" lon="2.18007">
        <ele>1298.7</ele>
        <time>2024-09-25T14:59:53Z</time>
      </trkpt>
      <trkpt lat="42.36879" lon="2.18008">
        <ele>1298.6</ele>
        <time>2024-09-25T14:59:54Z</time>
      </trkpt>
      <trkpt lat="42.36878" lon="2.18009">
        <ele>1298.5</ele>
        <time>2024-09-25T14:59:55Z</time>
      </trkpt>
      <trkpt lat="42.36878" lon="2.18009">
        <ele>1298.5</ele>
        <time>2024-09-25T14:59:56Z</time>
      </trkpt>
      <trkpt lat="42.36878" lon="2.18009">
        <ele>1298.4</ele>
        <time>2024-09-25T14:59:57Z</time>
      </trkpt>
      <trkpt lat="42.36877" lon="2.1801">
        <ele>1298.4</ele>
        <time>2024-09-25T14:59:58Z</time>
      </trkpt>
      <trkpt lat="42.36877" lon="2.1801">
        <ele>1298.3</ele>
        <time>2024-09-25T14:59:59Z</time>
      </trkpt>
      <trkpt lat="42.36877" lon="2.18011">
        <ele>1298.3</ele>
        <time>2024-09-25T15:00:00Z</time>
      </trkpt>
      <trkpt lat="42.36876" lon="2.1801">
        <ele>1298.2</ele>
        <time>2024-09-25T15:00:01Z</time>
      </trkpt>
      <trkpt lat="42.36875" lon="2.18009">
        <ele>1298.1</ele>
        <time>2024-09-25T15:00:02Z</time>
      </trkpt>
      <trkpt lat="42.36874" lon="2.18008">
        <ele>1298</ele>
        <time>2024-09-25T15:00:03Z</time>
      </trkpt>
      <trkpt lat="42.36874" lon="2.18008">
        <ele>1297.9</ele>
        <time>2024-09-25T15:00:04Z</time>
      </trkpt>
      <trkpt lat="42.36873" lon="2.18007">
        <ele>1297.9</ele>
        <time>2024-09-25T15:00:05Z</time>
      </trkpt>
      <trkpt lat="42.36874" lon="2.18007">
        <ele>1297.9</ele>
        <time>2024-09-25T15:00:06Z</time>
      </trkpt>
      <trkpt lat="42.36874" lon="2.18007">
        <ele>1297.8</ele>
        <time>2024-09-25T15:00:07Z</time>
      </trkpt>
      <trkpt lat="42.36874" lon="2.18006">
        <ele>1297.8</ele>
        <time>2024-09-25T15:00:08Z</time>
      </trkpt>
      <trkpt lat="42.36874" lon="2.18006">
        <ele>1297.7</ele>
        <time>2024-09-25T15:00:09Z</time>
      </trkpt>
      <trkpt lat="42.36874" lon="2.18005">
        <ele>1297.6</ele>
        <time>2024-09-25T15:00:10Z</time>
      </trkpt>
      <trkpt lat="42.36874" lon="2.18004">
        <ele>1297.6</ele>
        <time>2024-09-25T15:00:11Z</time>
      </trkpt>
      <trkpt lat="42.36874" lon="2.18003">
        <ele>1297.5</ele>
        <time>2024-09-25T15:00:12Z</time>
      </trkpt>
      <trkpt lat="42.36873" lon="2.18002">
        <ele>1297.4</ele>
        <time>2024-09-25T15:00:13Z</time>
      </trkpt>
      <trkpt lat="42.36873" lon="2.18002">
        <ele>1297.3</ele>
        <time>2024-09-25T15:00:14Z</time>
      </trkpt>
      <trkpt lat="42.36872" lon="2.18001">
        <ele>1297.2</ele>
        <time>2024-09-25T15:00:15Z</time>
      </trkpt>
      <trkpt lat="42.36872" lon="2.18">
        <ele>1297.1</ele>
        <time>2024-09-25T15:00:16Z</time>
      </trkpt>
      <trkpt lat="42.36872" lon="2.17999">
        <ele>1297</ele>
        <time>2024-09-25T15:00:17Z</time>
      </trkpt>
      <trkpt lat="42.36871" lon="2.17998">
        <ele>1296.9</ele>
        <time>2024-09-25T15:00:18Z</time>
      </trkpt>
      <trkpt lat="42.3687" lon="2.17997">
        <ele>1296.8</ele>
        <time>2024-09-25T15:00:19Z</time>
      </trkpt>
      <trkpt lat="42.3687" lon="2.17996">
        <ele>1296.7</ele>
        <time>2024-09-25T15:00:20Z</time>
      </trkpt>
      <trkpt lat="42.3687" lon="2.17995">
        <ele>1296.6</ele>
        <time>2024-09-25T15:00:21Z</time>
      </trkpt>
      <trkpt lat="42.36869" lon="2.17994">
        <ele>1296.5</ele>
        <time>2024-09-25T15:00:22Z</time>
      </trkpt>
      <trkpt lat="42.36869" lon="2.17995">
        <ele>1296.4</ele>
        <time>2024-09-25T15:00:23Z</time>
      </trkpt>
      <trkpt lat="42.36869" lon="2.17996">
        <ele>1296.3</ele>
        <time>2024-09-25T15:00:24Z</time>
      </trkpt>
      <trkpt lat="42.36869" lon="2.17996">
        <ele>1296.2</ele>
        <time>2024-09-25T15:00:25Z</time>
      </trkpt>
      <trkpt lat="42.36869" lon="2.17996">
        <ele>1296.2</ele>
        <time>2024-09-25T15:00:26Z</time>
      </trkpt>
      <trkpt lat="42.36869" lon="2.17997">
        <ele>1296.2</ele>
        <time>2024-09-25T15:00:27Z</time>
      </trkpt>
      <trkpt lat="42.36869" lon="2.17997">
        <ele>1296.1</ele>
        <time>2024-09-25T15:00:28Z</time>
      </trkpt>
      <trkpt lat="42.3687" lon="2.17997">
        <ele>1296.1</ele>
        <time>2024-09-25T15:00:29Z</time>
      </trkpt>
      <trkpt lat="42.3687" lon="2.17997">
        <ele>1296.1</ele>
        <time>2024-09-25T15:00:30Z</time>
      </trkpt>
      <trkpt lat="42.3687" lon="2.17997">
        <ele>1296.1</ele>
        <time>2024-09-25T15:00:31Z</time>
      </trkpt>
      <trkpt lat="42.3687" lon="2.17997">
        <ele>1296.1</ele>
        <time>2024-09-25T15:00:32Z</time>
      </trkpt>
      <trkpt lat="42.3687" lon="2.17997">
        <ele>1296.1</ele>
        <time>2024-09-25T15:00:33Z</time>
      </trkpt>
      <trkpt lat="42.3687" lon="2.17997">
        <ele>1296.1</ele>
        <time>2024-09-25T15:00:34Z</time>
      </trkpt>
      <trkpt lat="42.3687" lon="2.17997">
        <ele>1296</ele>
        <time>2024-09-25T15:00:35Z</time>
      </trkpt>
      <trkpt lat="42.3687" lon="2.17997">
        <ele>1296</ele>
        <time>2024-09-25T15:00:36Z</time>
      </trkpt>
      <trkpt lat="42.36869" lon="2.17997">
        <ele>1296</ele>
        <time>2024-09-25T15:00:37Z</time>
      </trkpt>
      <trkpt lat="42.36869" lon="2.17997">
        <ele>1295.9</ele>
        <time>2024-09-25T15:00:38Z</time>
      </trkpt>
      <trkpt lat="42.36868" lon="2.17997">
        <ele>1295.8</ele>
        <time>2024-09-25T15:00:39Z</time>
      </trkpt>
      <trkpt lat="42.36867" lon="2.17996">
        <ele>1295.7</ele>
        <time>2024-09-25T15:00:40Z</time>
      </trkpt>
      <trkpt lat="42.36866" lon="2.17994">
        <ele>1295.4</ele>
        <time>2024-09-25T15:00:41Z</time>
      </trkpt>
      <trkpt lat="42.36865" lon="2.17993">
        <ele>1295.2</ele>
        <time>2024-09-25T15:00:42Z</time>
      </trkpt>
      <trkpt lat="42.36864" lon="2.17992">
        <ele>1295</ele>
        <time>2024-09-25T15:00:43Z</time>
      </trkpt>
      <trkpt lat="42.36862" lon="2.17991">
        <ele>1294.8</ele>
        <time>2024-09-25T15:00:44Z</time>
      </trkpt>
      <trkpt lat="42.36861" lon="2.17991">
        <ele>1294.6</ele>
        <time>2024-09-25T15:00:45Z</time>
      </trkpt>
      <trkpt lat="42.36859" lon="2.17991">
        <ele>1294.4</ele>
        <time>2024-09-25T15:00:46Z</time>
      </trkpt>
      <trkpt lat="42.36858" lon="2.1799">
        <ele>1294.2</ele>
        <time>2024-09-25T15:00:47Z</time>
      </trkpt>
      <trkpt lat="42.36858" lon="2.1799">
        <ele>1294.2</ele>
        <time>2024-09-25T15:00:48Z</time>
      </trkpt>
      <trkpt lat="42.36858" lon="2.1799">
        <ele>1294.2</ele>
        <time>2024-09-25T15:00:49Z</time>
      </trkpt>
      <trkpt lat="42.36858" lon="2.1799">
        <ele>1294.1</ele>
        <time>2024-09-25T15:00:50Z</time>
      </trkpt>
      <trkpt lat="42.36857" lon="2.1799">
        <ele>1294.1</ele>
        <time>2024-09-25T15:00:51Z</time>
      </trkpt>
      <trkpt lat="42.36857" lon="2.1799">
        <ele>1294.1</ele>
        <time>2024-09-25T15:00:52Z</time>
      </trkpt>
      <trkpt lat="42.36857" lon="2.1799">
        <ele>1294</ele>
        <time>2024-09-25T15:00:53Z</time>
      </trkpt>
      <trkpt lat="42.36857" lon="2.1799">
        <ele>1294</ele>
        <time>2024-09-25T15:00:54Z</time>
      </trkpt>
      <trkpt lat="42.36857" lon="2.1799">
        <ele>1294</ele>
        <time>2024-09-25T15:00:55Z</time>
      </trkpt>
      <trkpt lat="42.36856" lon="2.1799">
        <ele>1293.9</ele>
        <time>2024-09-25T15:00:56Z</time>
      </trkpt>
      <trkpt lat="42.36856" lon="2.1799">
        <ele>1293.9</ele>
        <time>2024-09-25T15:00:57Z</time>
      </trkpt>
      <trkpt lat="42.36856" lon="2.17989">
        <ele>1293.9</ele>
        <time>2024-09-25T15:00:58Z</time>
      </trkpt>
      <trkpt lat="42.36856" lon="2.17989">
        <ele>1293.8</ele>
        <time>2024-09-25T15:00:59Z</time>
      </trkpt>
      <trkpt lat="42.36856" lon="2.17989">
        <ele>1293.8</ele>
        <time>2024-09-25T15:01:00Z</time>
      </trkpt>
      <trkpt lat="42.36855" lon="2.17989">
        <ele>1293.8</ele>
        <time>2024-09-25T15:01:01Z</time>
      </trkpt>
      <trkpt lat="42.36855" lon="2.17989">
        <ele>1293.8</ele>
        <time>2024-09-25T15:01:02Z</time>
      </trkpt>
      <trkpt lat="42.36855" lon="2.17989">
        <ele>1293.7</ele>
        <time>2024-09-25T15:01:03Z</time>
      </trkpt>
      <trkpt lat="42.36855" lon="2.17988">
        <ele>1293.6</ele>
        <time>2024-09-25T15:01:04Z</time>
      </trkpt>
      <trkpt lat="42.36854" lon="2.17988">
        <ele>1293.5</ele>
        <time>2024-09-25T15:01:05Z</time>
      </trkpt>
      <trkpt lat="42.36854" lon="2.17986">
        <ele>1293.4</ele>
        <time>2024-09-25T15:01:06Z</time>
      </trkpt>
      <trkpt lat="42.36854" lon="2.17986">
        <ele>1293.4</ele>
        <time>2024-09-25T15:01:07Z</time>
      </trkpt>
      <trkpt lat="42.36854" lon="2.17985">
        <ele>1293.2</ele>
        <time>2024-09-25T15:01:08Z</time>
      </trkpt>
      <trkpt lat="42.36853" lon="2.17984">
        <ele>1293.1</ele>
        <time>2024-09-25T15:01:09Z</time>
      </trkpt>
      <trkpt lat="42.36853" lon="2.17983">
        <ele>1293</ele>
        <time>2024-09-25T15:01:10Z</time>
      </trkpt>
      <trkpt lat="42.36853" lon="2.17983">
        <ele>1293</ele>
        <time>2024-09-25T15:01:11Z</time>
      </trkpt>
      <trkpt lat="42.36853" lon="2.17982">
        <ele>1292.9</ele>
        <time>2024-09-25T15:01:12Z</time>
      </trkpt>
      <trkpt lat="42.36853" lon="2.17982">
        <ele>1292.8</ele>
        <time>2024-09-25T15:01:13Z</time>
      </trkpt>
      <trkpt lat="42.36853" lon="2.17982">
        <ele>1292.8</ele>
        <time>2024-09-25T15:01:14Z</time>
      </trkpt>
      <trkpt lat="42.36853" lon="2.17981">
        <ele>1292.8</ele>
        <time>2024-09-25T15:01:15Z</time>
      </trkpt>
      <trkpt lat="42.36853" lon="2.17981">
        <ele>1292.7</ele>
        <time>2024-09-25T15:01:16Z</time>
      </trkpt>
      <trkpt lat="42.36852" lon="2.17982">
        <ele>1292.5</ele>
        <time>2024-09-25T15:01:17Z</time>
      </trkpt>
      <trkpt lat="42.3685" lon="2.17982">
        <ele>1292.3</ele>
        <time>2024-09-25T15:01:18Z</time>
      </trkpt>
      <trkpt lat="42.36848" lon="2.17982">
        <ele>1292</ele>
        <time>2024-09-25T15:01:19Z</time>
      </trkpt>
      <trkpt lat="42.36847" lon="2.17982">
        <ele>1291.8</ele>
        <time>2024-09-25T15:01:20Z</time>
      </trkpt>
      <trkpt lat="42.36845" lon="2.17982">
        <ele>1291.6</ele>
        <time>2024-09-25T15:01:21Z</time>
      </trkpt>
      <trkpt lat="42.36845" lon="2.17983">
        <ele>1291.6</ele>
        <time>2024-09-25T15:01:22Z</time>
      </trkpt>
      <trkpt lat="42.36845" lon="2.17983">
        <ele>1291.6</ele>
        <time>2024-09-25T15:01:23Z</time>
      </trkpt>
      <trkpt lat="42.36845" lon="2.17983">
        <ele>1291.6</ele>
        <time>2024-09-25T15:01:24Z</time>
      </trkpt>
      <trkpt lat="42.36845" lon="2.17983">
        <ele>1291.6</ele>
        <time>2024-09-25T15:01:25Z</time>
      </trkpt>
      <trkpt lat="42.36846" lon="2.17982">
        <ele>1291.5</ele>
        <time>2024-09-25T15:01:26Z</time>
      </trkpt>
      <trkpt lat="42.36846" lon="2.17982">
        <ele>1291.5</ele>
        <time>2024-09-25T15:01:29Z</time>
      </trkpt>
      <trkpt lat="42.36846" lon="2.17982">
        <ele>1291.5</ele>
        <time>2024-09-25T15:01:30Z</time>
      </trkpt>
      <trkpt lat="42.36846" lon="2.17982">
        <ele>1291.5</ele>
        <time>2024-09-25T15:01:32Z</time>
      </trkpt>
      <trkpt lat="42.36846" lon="2.17982">
        <ele>1291.5</ele>
        <time>2024-09-25T15:01:34Z</time>
      </trkpt>
      <trkpt lat="42.36845" lon="2.17982">
        <ele>1291.5</ele>
        <time>2024-09-25T15:01:35Z</time>
      </trkpt>
      <trkpt lat="42.36845" lon="2.17982">
        <ele>1291.5</ele>
        <time>2024-09-25T15:01:36Z</time>
      </trkpt>
      <trkpt lat="42.36845" lon="2.17982">
        <ele>1291.5</ele>
        <time>2024-09-25T15:01:38Z</time>
      </trkpt>
      <trkpt lat="42.36845" lon="2.17982">
        <ele>1291.5</ele>
        <time>2024-09-25T15:01:39Z</time>
      </trkpt>
      <trkpt lat="42.36845" lon="2.17982">
        <ele>1291.4</ele>
        <time>2024-09-25T15:01:40Z</time>
      </trkpt>
      <trkpt lat="42.36845" lon="2.17982">
        <ele>1291.4</ele>
        <time>2024-09-25T15:01:41Z</time>
      </trkpt>
      <trkpt lat="42.36845" lon="2.17982">
        <ele>1291.4</ele>
        <time>2024-09-25T15:01:42Z</time>
      </trkpt>
      <trkpt lat="42.36845" lon="2.17982">
        <ele>1291.4</ele>
        <time>2024-09-25T15:01:43Z</time>
      </trkpt>
      <trkpt lat="42.36845" lon="2.17982">
        <ele>1291.4</ele>
        <time>2024-09-25T15:01:45Z</time>
      </trkpt>
      <trkpt lat="42.36845" lon="2.17982">
        <ele>1291.4</ele>
        <time>2024-09-25T15:01:46Z</time>
      </trkpt>
      <trkpt lat="42.36845" lon="2.17982">
        <ele>1291.3</ele>
        <time>2024-09-25T15:01:47Z</time>
      </trkpt>
      <trkpt lat="42.36845" lon="2.17982">
        <ele>1291.3</ele>
        <time>2024-09-25T15:01:48Z</time>
      </trkpt>
      <trkpt lat="42.36845" lon="2.17982">
        <ele>1291.3</ele>
        <time>2024-09-25T15:01:49Z</time>
      </trkpt>
      <trkpt lat="42.36845" lon="2.17982">
        <ele>1291.3</ele>
        <time>2024-09-25T15:01:50Z</time>
      </trkpt>
      <trkpt lat="42.36845" lon="2.17982">
        <ele>1291.3</ele>
        <time>2024-09-25T15:01:51Z</time>
      </trkpt>
      <trkpt lat="42.36845" lon="2.17982">
        <ele>1291.3</ele>
        <time>2024-09-25T15:01:52Z</time>
      </trkpt>
      <trkpt lat="42.36845" lon="2.17982">
        <ele>1291.3</ele>
        <time>2024-09-25T15:01:53Z</time>
      </trkpt>
      <trkpt lat="42.36845" lon="2.17982">
        <ele>1291.3</ele>
        <time>2024-09-25T15:01:54Z</time>
      </trkpt>
      <trkpt lat="42.36845" lon="2.17982">
        <ele>1291.3</ele>
        <time>2024-09-25T15:01:55Z</time>
      </trkpt>
      <trkpt lat="42.36845" lon="2.17982">
        <ele>1291.3</ele>
        <time>2024-09-25T15:01:56Z</time>
      </trkpt>
      <trkpt lat="42.36844" lon="2.17981">
        <ele>1291.3</ele>
        <time>2024-09-25T15:01:57Z</time>
      </trkpt>
      <trkpt lat="42.36844" lon="2.17981">
        <ele>1291.2</ele>
        <time>2024-09-25T15:01:58Z</time>
      </trkpt>
      <trkpt lat="42.36843" lon="2.1798">
        <ele>1291.1</ele>
        <time>2024-09-25T15:01:59Z</time>
      </trkpt>
      <trkpt lat="42.36843" lon="2.1798">
        <ele>1291</ele>
        <time>2024-09-25T15:02:00Z</time>
      </trkpt>
      <trkpt lat="42.36842" lon="2.1798">
        <ele>1290.9</ele>
        <time>2024-09-25T15:02:01Z</time>
      </trkpt>
      <trkpt lat="42.36842" lon="2.1798">
        <ele>1290.9</ele>
        <time>2024-09-25T15:02:02Z</time>
      </trkpt>
      <trkpt lat="42.36841" lon="2.1798">
        <ele>1290.8</ele>
        <time>2024-09-25T15:02:03Z</time>
      </trkpt>
      <trkpt lat="42.3684" lon="2.17979">
        <ele>1290.7</ele>
        <time>2024-09-25T15:02:04Z</time>
      </trkpt>
      <trkpt lat="42.3684" lon="2.17979">
        <ele>1290.7</ele>
        <time>2024-09-25T15:02:05Z</time>
      </trkpt>
      <trkpt lat="42.3684" lon="2.17979">
        <ele>1290.6</ele>
        <time>2024-09-25T15:02:06Z</time>
      </trkpt>
      <trkpt lat="42.3684" lon="2.17978">
        <ele>1290.6</ele>
        <time>2024-09-25T15:02:07Z</time>
      </trkpt>
      <trkpt lat="42.3684" lon="2.17978">
        <ele>1290.6</ele>
        <time>2024-09-25T15:02:08Z</time>
      </trkpt>
      <trkpt lat="42.36839" lon="2.17978">
        <ele>1290.6</ele>
        <time>2024-09-25T15:02:09Z</time>
      </trkpt>
      <trkpt lat="42.36839" lon="2.17978">
        <ele>1290.5</ele>
        <time>2024-09-25T15:02:10Z</time>
      </trkpt>
      <trkpt lat="42.36839" lon="2.17978">
        <ele>1290.5</ele>
        <time>2024-09-25T15:02:11Z</time>
      </trkpt>
      <trkpt lat="42.36839" lon="2.17977">
        <ele>1290.5</ele>
        <time>2024-09-25T15:02:12Z</time>
      </trkpt>
      <trkpt lat="42.36839" lon="2.17977">
        <ele>1290.5</ele>
        <time>2024-09-25T15:02:13Z</time>
      </trkpt>
      <trkpt lat="42.36839" lon="2.17977">
        <ele>1290.4</ele>
        <time>2024-09-25T15:02:14Z</time>
      </trkpt>
      <trkpt lat="42.36839" lon="2.17977">
        <ele>1290.4</ele>
        <time>2024-09-25T15:02:15Z</time>
      </trkpt>
      <trkpt lat="42.36839" lon="2.17977">
        <ele>1290.4</ele>
        <time>2024-09-25T15:02:16Z</time>
      </trkpt>
      <trkpt lat="42.36838" lon="2.17976">
        <ele>1290.4</ele>
        <time>2024-09-25T15:02:17Z</time>
      </trkpt>
      <trkpt lat="42.36838" lon="2.17976">
        <ele>1290.3</ele>
        <time>2024-09-25T15:02:18Z</time>
      </trkpt>
      <trkpt lat="42.36838" lon="2.17976">
        <ele>1290.3</ele>
        <time>2024-09-25T15:02:19Z</time>
      </trkpt>
      <trkpt lat="42.36838" lon="2.17976">
        <ele>1290.3</ele>
        <time>2024-09-25T15:02:20Z</time>
      </trkpt>
      <trkpt lat="42.36838" lon="2.17975">
        <ele>1290.3</ele>
        <time>2024-09-25T15:02:21Z</time>
      </trkpt>
      <trkpt lat="42.36838" lon="2.17975">
        <ele>1290.2</ele>
        <time>2024-09-25T15:02:22Z</time>
      </trkpt>
      <trkpt lat="42.36838" lon="2.17975">
        <ele>1290.2</ele>
        <time>2024-09-25T15:02:23Z</time>
      </trkpt>
      <trkpt lat="42.36837" lon="2.17975">
        <ele>1290.2</ele>
        <time>2024-09-25T15:02:24Z</time>
      </trkpt>
      <trkpt lat="42.36837" lon="2.17974">
        <ele>1290.1</ele>
        <time>2024-09-25T15:02:25Z</time>
      </trkpt>
      <trkpt lat="42.36836" lon="2.17973">
        <ele>1289.9</ele>
        <time>2024-09-25T15:02:26Z</time>
      </trkpt>
      <trkpt lat="42.36835" lon="2.17972">
        <ele>1289.8</ele>
        <time>2024-09-25T15:02:27Z</time>
      </trkpt>
      <trkpt lat="42.36833" lon="2.17971">
        <ele>1289.6</ele>
        <time>2024-09-25T15:02:28Z</time>
      </trkpt>
      <trkpt lat="42.36833" lon="2.1797">
        <ele>1289.5</ele>
        <time>2024-09-25T15:02:29Z</time>
      </trkpt>
      <trkpt lat="42.36832" lon="2.1797">
        <ele>1289.4</ele>
        <time>2024-09-25T15:02:30Z</time>
      </trkpt>
      <trkpt lat="42.36831" lon="2.17969">
        <ele>1289.3</ele>
        <time>2024-09-25T15:02:31Z</time>
      </trkpt>
      <trkpt lat="42.3683" lon="2.17969">
        <ele>1289.1</ele>
        <time>2024-09-25T15:02:32Z</time>
      </trkpt>
      <trkpt lat="42.36828" lon="2.17969">
        <ele>1289</ele>
        <time>2024-09-25T15:02:33Z</time>
      </trkpt>
      <trkpt lat="42.36828" lon="2.17969">
        <ele>1288.9</ele>
        <time>2024-09-25T15:02:34Z</time>
      </trkpt>
      <trkpt lat="42.36827" lon="2.17969">
        <ele>1288.8</ele>
        <time>2024-09-25T15:02:35Z</time>
      </trkpt>
      <trkpt lat="42.36826" lon="2.17969">
        <ele>1288.7</ele>
        <time>2024-09-25T15:02:36Z</time>
      </trkpt>
      <trkpt lat="42.36825" lon="2.1797">
        <ele>1288.6</ele>
        <time>2024-09-25T15:02:37Z</time>
      </trkpt>
      <trkpt lat="42.36824" lon="2.1797">
        <ele>1288.5</ele>
        <time>2024-09-25T15:02:38Z</time>
      </trkpt>
      <trkpt lat="42.36824" lon="2.17971">
        <ele>1288.4</ele>
        <time>2024-09-25T15:02:39Z</time>
      </trkpt>
      <trkpt lat="42.36822" lon="2.17971">
        <ele>1288.2</ele>
        <time>2024-09-25T15:02:40Z</time>
      </trkpt>
      <trkpt lat="42.36821" lon="2.17971">
        <ele>1288.1</ele>
        <time>2024-09-25T15:02:41Z</time>
      </trkpt>
      <trkpt lat="42.3682" lon="2.17971">
        <ele>1287.9</ele>
        <time>2024-09-25T15:02:42Z</time>
      </trkpt>
      <trkpt lat="42.36818" lon="2.17971">
        <ele>1287.7</ele>
        <time>2024-09-25T15:02:43Z</time>
      </trkpt>
      <trkpt lat="42.36817" lon="2.17971">
        <ele>1287.5</ele>
        <time>2024-09-25T15:02:44Z</time>
      </trkpt>
      <trkpt lat="42.36816" lon="2.1797">
        <ele>1287.3</ele>
        <time>2024-09-25T15:02:45Z</time>
      </trkpt>
      <trkpt lat="42.36815" lon="2.17969">
        <ele>1287.2</ele>
        <time>2024-09-25T15:02:46Z</time>
      </trkpt>
      <trkpt lat="42.36814" lon="2.17969">
        <ele>1287</ele>
        <time>2024-09-25T15:02:47Z</time>
      </trkpt>
      <trkpt lat="42.36811" lon="2.17968">
        <ele>1286.7</ele>
        <time>2024-09-25T15:02:48Z</time>
      </trkpt>
      <trkpt lat="42.3681" lon="2.17968">
        <ele>1286.6</ele>
        <time>2024-09-25T15:02:49Z</time>
      </trkpt>
      <trkpt lat="42.3681" lon="2.17968">
        <ele>1286.4</ele>
        <time>2024-09-25T15:02:50Z</time>
      </trkpt>
      <trkpt lat="42.36808" lon="2.17968">
        <ele>1286.3</ele>
        <time>2024-09-25T15:02:51Z</time>
      </trkpt>
      <trkpt lat="42.36807" lon="2.17967">
        <ele>1286.1</ele>
        <time>2024-09-25T15:02:52Z</time>
      </trkpt>
      <trkpt lat="42.36806" lon="2.17967">
        <ele>1286</ele>
        <time>2024-09-25T15:02:53Z</time>
      </trkpt>
      <trkpt lat="42.36805" lon="2.17967">
        <ele>1285.7</ele>
        <time>2024-09-25T15:02:54Z</time>
      </trkpt>
      <trkpt lat="42.36804" lon="2.17968">
        <ele>1285.5</ele>
        <time>2024-09-25T15:02:55Z</time>
      </trkpt>
      <trkpt lat="42.36803" lon="2.17968">
        <ele>1285.4</ele>
        <time>2024-09-25T15:02:56Z</time>
      </trkpt>
      <trkpt lat="42.36802" lon="2.1797">
        <ele>1285</ele>
        <time>2024-09-25T15:02:57Z</time>
      </trkpt>
      <trkpt lat="42.36801" lon="2.17971">
        <ele>1284.9</ele>
        <time>2024-09-25T15:02:58Z</time>
      </trkpt>
      <trkpt lat="42.368" lon="2.17971">
        <ele>1284.7</ele>
        <time>2024-09-25T15:02:59Z</time>
      </trkpt>
      <trkpt lat="42.36799" lon="2.17972">
        <ele>1284.6</ele>
        <time>2024-09-25T15:03:00Z</time>
      </trkpt>
      <trkpt lat="42.36798" lon="2.17971">
        <ele>1284.4</ele>
        <time>2024-09-25T15:03:01Z</time>
      </trkpt>
      <trkpt lat="42.36797" lon="2.17971">
        <ele>1284.1</ele>
        <time>2024-09-25T15:03:02Z</time>
      </trkpt>
      <trkpt lat="42.36796" lon="2.17971">
        <ele>1283.9</ele>
        <time>2024-09-25T15:03:03Z</time>
      </trkpt>
      <trkpt lat="42.36795" lon="2.1797">
        <ele>1283.8</ele>
        <time>2024-09-25T15:03:04Z</time>
      </trkpt>
      <trkpt lat="42.36794" lon="2.1797">
        <ele>1283.6</ele>
        <time>2024-09-25T15:03:05Z</time>
      </trkpt>
      <trkpt lat="42.36793" lon="2.17969">
        <ele>1283.4</ele>
        <time>2024-09-25T15:03:06Z</time>
      </trkpt>
      <trkpt lat="42.36792" lon="2.17968">
        <ele>1283.2</ele>
        <time>2024-09-25T15:03:07Z</time>
      </trkpt>
      <trkpt lat="42.36792" lon="2.17966">
        <ele>1283</ele>
        <time>2024-09-25T15:03:08Z</time>
      </trkpt>
      <trkpt lat="42.36791" lon="2.17964">
        <ele>1282.6</ele>
        <time>2024-09-25T15:03:09Z</time>
      </trkpt>
      <trkpt lat="42.36791" lon="2.17965">
        <ele>1282.4</ele>
        <time>2024-09-25T15:03:10Z</time>
      </trkpt>
      <trkpt lat="42.36791" lon="2.17965">
        <ele>1282.4</ele>
        <time>2024-09-25T15:03:11Z</time>
      </trkpt>
      <trkpt lat="42.3679" lon="2.17964">
        <ele>1282.2</ele>
        <time>2024-09-25T15:03:12Z</time>
      </trkpt>
      <trkpt lat="42.3679" lon="2.17963">
        <ele>1282</ele>
        <time>2024-09-25T15:03:13Z</time>
      </trkpt>
      <trkpt lat="42.36789" lon="2.17961">
        <ele>1281.8</ele>
        <time>2024-09-25T15:03:14Z</time>
      </trkpt>
      <trkpt lat="42.36789" lon="2.17961">
        <ele>1281.7</ele>
        <time>2024-09-25T15:03:15Z</time>
      </trkpt>
      <trkpt lat="42.36788" lon="2.1796">
        <ele>1281.6</ele>
        <time>2024-09-25T15:03:16Z</time>
      </trkpt>
      <trkpt lat="42.36788" lon="2.17959">
        <ele>1281.5</ele>
        <time>2024-09-25T15:03:17Z</time>
      </trkpt>
      <trkpt lat="42.36787" lon="2.17958">
        <ele>1281.3</ele>
        <time>2024-09-25T15:03:18Z</time>
      </trkpt>
      <trkpt lat="42.36787" lon="2.17956">
        <ele>1281.1</ele>
        <time>2024-09-25T15:03:19Z</time>
      </trkpt>
      <trkpt lat="42.36786" lon="2.17956">
        <ele>1281</ele>
        <time>2024-09-25T15:03:20Z</time>
      </trkpt>
      <trkpt lat="42.36786" lon="2.17955">
        <ele>1280.8</ele>
        <time>2024-09-25T15:03:21Z</time>
      </trkpt>
      <trkpt lat="42.36785" lon="2.17954">
        <ele>1280.6</ele>
        <time>2024-09-25T15:03:22Z</time>
      </trkpt>
      <trkpt lat="42.36785" lon="2.17954">
        <ele>1280.5</ele>
        <time>2024-09-25T15:03:23Z</time>
      </trkpt>
      <trkpt lat="42.36784" lon="2.17952">
        <ele>1280.3</ele>
        <time>2024-09-25T15:03:24Z</time>
      </trkpt>
      <trkpt lat="42.36784" lon="2.17953">
        <ele>1280.2</ele>
        <time>2024-09-25T15:03:25Z</time>
      </trkpt>
      <trkpt lat="42.36784" lon="2.17953">
        <ele>1280.1</ele>
        <time>2024-09-25T15:03:26Z</time>
      </trkpt>
      <trkpt lat="42.36783" lon="2.17953">
        <ele>1280.1</ele>
        <time>2024-09-25T15:03:27Z</time>
      </trkpt>
      <trkpt lat="42.36783" lon="2.17953">
        <ele>1280</ele>
        <time>2024-09-25T15:03:28Z</time>
      </trkpt>
      <trkpt lat="42.36783" lon="2.17952">
        <ele>1279.9</ele>
        <time>2024-09-25T15:03:29Z</time>
      </trkpt>
      <trkpt lat="42.36783" lon="2.17952">
        <ele>1279.8</ele>
        <time>2024-09-25T15:03:30Z</time>
      </trkpt>
      <trkpt lat="42.36783" lon="2.17953">
        <ele>1279.8</ele>
        <time>2024-09-25T15:03:31Z</time>
      </trkpt>
      <trkpt lat="42.36782" lon="2.17953">
        <ele>1279.7</ele>
        <time>2024-09-25T15:03:32Z</time>
      </trkpt>
      <trkpt lat="42.36782" lon="2.17953">
        <ele>1279.6</ele>
        <time>2024-09-25T15:03:33Z</time>
      </trkpt>
      <trkpt lat="42.36782" lon="2.17953">
        <ele>1279.6</ele>
        <time>2024-09-25T15:03:34Z</time>
      </trkpt>
      <trkpt lat="42.36781" lon="2.17953">
        <ele>1279.5</ele>
        <time>2024-09-25T15:03:35Z</time>
      </trkpt>
      <trkpt lat="42.3678" lon="2.17953">
        <ele>1279.3</ele>
        <time>2024-09-25T15:03:36Z</time>
      </trkpt>
      <trkpt lat="42.3678" lon="2.17952">
        <ele>1279.2</ele>
        <time>2024-09-25T15:03:37Z</time>
      </trkpt>
      <trkpt lat="42.36779" lon="2.17952">
        <ele>1279.1</ele>
        <time>2024-09-25T15:03:38Z</time>
      </trkpt>
      <trkpt lat="42.36779" lon="2.17952">
        <ele>1279</ele>
        <time>2024-09-25T15:03:39Z</time>
      </trkpt>
      <trkpt lat="42.36778" lon="2.17951">
        <ele>1278.8</ele>
        <time>2024-09-25T15:03:40Z</time>
      </trkpt>
      <trkpt lat="42.36778" lon="2.17951">
        <ele>1278.7</ele>
        <time>2024-09-25T15:03:41Z</time>
      </trkpt>
      <trkpt lat="42.36777" lon="2.1795">
        <ele>1278.5</ele>
        <time>2024-09-25T15:03:42Z</time>
      </trkpt>
      <trkpt lat="42.36777" lon="2.17949">
        <ele>1278.4</ele>
        <time>2024-09-25T15:03:43Z</time>
      </trkpt>
      <trkpt lat="42.36777" lon="2.17949">
        <ele>1278.4</ele>
        <time>2024-09-25T15:03:44Z</time>
      </trkpt>
      <trkpt lat="42.36777" lon="2.17949">
        <ele>1278.4</ele>
        <time>2024-09-25T15:03:45Z</time>
      </trkpt>
      <trkpt lat="42.36777" lon="2.17949">
        <ele>1278.3</ele>
        <time>2024-09-25T15:03:46Z</time>
      </trkpt>
      <trkpt lat="42.36777" lon="2.17949">
        <ele>1278.3</ele>
        <time>2024-09-25T15:03:47Z</time>
      </trkpt>
      <trkpt lat="42.36777" lon="2.17949">
        <ele>1278.3</ele>
        <time>2024-09-25T15:03:48Z</time>
      </trkpt>
      <trkpt lat="42.36777" lon="2.17948">
        <ele>1278.2</ele>
        <time>2024-09-25T15:03:49Z</time>
      </trkpt>
      <trkpt lat="42.36777" lon="2.17948">
        <ele>1278.2</ele>
        <time>2024-09-25T15:03:50Z</time>
      </trkpt>
      <trkpt lat="42.36776" lon="2.17948">
        <ele>1278.1</ele>
        <time>2024-09-25T15:03:51Z</time>
      </trkpt>
      <trkpt lat="42.36776" lon="2.17948">
        <ele>1278.1</ele>
        <time>2024-09-25T15:03:52Z</time>
      </trkpt>
      <trkpt lat="42.36776" lon="2.17948">
        <ele>1278</ele>
        <time>2024-09-25T15:03:53Z</time>
      </trkpt>
      <trkpt lat="42.36776" lon="2.17947">
        <ele>1277.9</ele>
        <time>2024-09-25T15:03:54Z</time>
      </trkpt>
      <trkpt lat="42.36775" lon="2.17947">
        <ele>1277.8</ele>
        <time>2024-09-25T15:03:55Z</time>
      </trkpt>
      <trkpt lat="42.36775" lon="2.17947">
        <ele>1277.7</ele>
        <time>2024-09-25T15:03:56Z</time>
      </trkpt>
      <trkpt lat="42.36774" lon="2.17946">
        <ele>1277.6</ele>
        <time>2024-09-25T15:03:57Z</time>
      </trkpt>
      <trkpt lat="42.36774" lon="2.17946">
        <ele>1277.5</ele>
        <time>2024-09-25T15:03:58Z</time>
      </trkpt>
      <trkpt lat="42.36773" lon="2.17945">
        <ele>1277.3</ele>
        <time>2024-09-25T15:03:59Z</time>
      </trkpt>
      <trkpt lat="42.36773" lon="2.17945">
        <ele>1277.2</ele>
        <time>2024-09-25T15:04:00Z</time>
      </trkpt>
      <trkpt lat="42.36772" lon="2.17944">
        <ele>1276.9</ele>
        <time>2024-09-25T15:04:01Z</time>
      </trkpt>
      <trkpt lat="42.36771" lon="2.17943">
        <ele>1276.6</ele>
        <time>2024-09-25T15:04:02Z</time>
      </trkpt>
      <trkpt lat="42.3677" lon="2.17942">
        <ele>1276.4</ele>
        <time>2024-09-25T15:04:03Z</time>
      </trkpt>
      <trkpt lat="42.36769" lon="2.17941">
        <ele>1276.2</ele>
        <time>2024-09-25T15:04:04Z</time>
      </trkpt>
      <trkpt lat="42.36768" lon="2.17941">
        <ele>1276</ele>
        <time>2024-09-25T15:04:05Z</time>
      </trkpt>
      <trkpt lat="42.36767" lon="2.17941">
        <ele>1275.9</ele>
        <time>2024-09-25T15:04:06Z</time>
      </trkpt>
      <trkpt lat="42.36768" lon="2.17941">
        <ele>1275.8</ele>
        <time>2024-09-25T15:04:07Z</time>
      </trkpt>
      <trkpt lat="42.36768" lon="2.1794">
        <ele>1275.7</ele>
        <time>2024-09-25T15:04:08Z</time>
      </trkpt>
      <trkpt lat="42.36768" lon="2.1794">
        <ele>1275.7</ele>
        <time>2024-09-25T15:04:09Z</time>
      </trkpt>
      <trkpt lat="42.36767" lon="2.17939">
        <ele>1275.5</ele>
        <time>2024-09-25T15:04:10Z</time>
      </trkpt>
      <trkpt lat="42.36767" lon="2.17939">
        <ele>1275.4</ele>
        <time>2024-09-25T15:04:11Z</time>
      </trkpt>
      <trkpt lat="42.36766" lon="2.17938">
        <ele>1275.2</ele>
        <time>2024-09-25T15:04:12Z</time>
      </trkpt>
      <trkpt lat="42.36766" lon="2.17937">
        <ele>1275.1</ele>
        <time>2024-09-25T15:04:13Z</time>
      </trkpt>
      <trkpt lat="42.36765" lon="2.17936">
        <ele>1274.8</ele>
        <time>2024-09-25T15:04:14Z</time>
      </trkpt>
      <trkpt lat="42.36765" lon="2.17936">
        <ele>1274.8</ele>
        <time>2024-09-25T15:04:15Z</time>
      </trkpt>
      <trkpt lat="42.36765" lon="2.17936">
        <ele>1274.7</ele>
        <time>2024-09-25T15:04:16Z</time>
      </trkpt>
      <trkpt lat="42.36764" lon="2.17935">
        <ele>1274.6</ele>
        <time>2024-09-25T15:04:17Z</time>
      </trkpt>
      <trkpt lat="42.36764" lon="2.17935">
        <ele>1274.4</ele>
        <time>2024-09-25T15:04:18Z</time>
      </trkpt>
      <trkpt lat="42.36764" lon="2.17934">
        <ele>1274.3</ele>
        <time>2024-09-25T15:04:19Z</time>
      </trkpt>
      <trkpt lat="42.36763" lon="2.17934">
        <ele>1274.2</ele>
        <time>2024-09-25T15:04:20Z</time>
      </trkpt>
      <trkpt lat="42.36762" lon="2.17934">
        <ele>1274.1</ele>
        <time>2024-09-25T15:04:21Z</time>
      </trkpt>
      <trkpt lat="42.36762" lon="2.17932">
        <ele>1273.8</ele>
        <time>2024-09-25T15:04:22Z</time>
      </trkpt>
      <trkpt lat="42.36762" lon="2.17932">
        <ele>1273.8</ele>
        <time>2024-09-25T15:04:23Z</time>
      </trkpt>
      <trkpt lat="42.36761" lon="2.17933">
        <ele>1273.7</ele>
        <time>2024-09-25T15:04:24Z</time>
      </trkpt>
      <trkpt lat="42.36761" lon="2.17933">
        <ele>1273.6</ele>
        <time>2024-09-25T15:04:25Z</time>
      </trkpt>
      <trkpt lat="42.3676" lon="2.17933">
        <ele>1273.3</ele>
        <time>2024-09-25T15:04:26Z</time>
      </trkpt>
      <trkpt lat="42.36759" lon="2.17933">
        <ele>1273.1</ele>
        <time>2024-09-25T15:04:27Z</time>
      </trkpt>
      <trkpt lat="42.36758" lon="2.17933">
        <ele>1272.9</ele>
        <time>2024-09-25T15:04:28Z</time>
      </trkpt>
      <trkpt lat="42.36757" lon="2.17933">
        <ele>1272.7</ele>
        <time>2024-09-25T15:04:29Z</time>
      </trkpt>
      <trkpt lat="42.36756" lon="2.17933">
        <ele>1272.6</ele>
        <time>2024-09-25T15:04:30Z</time>
      </trkpt>
      <trkpt lat="42.36756" lon="2.17932">
        <ele>1272.4</ele>
        <time>2024-09-25T15:04:31Z</time>
      </trkpt>
      <trkpt lat="42.36755" lon="2.17931">
        <ele>1272.2</ele>
        <time>2024-09-25T15:04:32Z</time>
      </trkpt>
      <trkpt lat="42.36755" lon="2.17931">
        <ele>1272.1</ele>
        <time>2024-09-25T15:04:33Z</time>
      </trkpt>
      <trkpt lat="42.36755" lon="2.17931">
        <ele>1272.1</ele>
        <time>2024-09-25T15:04:34Z</time>
      </trkpt>
      <trkpt lat="42.36754" lon="2.1793">
        <ele>1272</ele>
        <time>2024-09-25T15:04:35Z</time>
      </trkpt>
      <trkpt lat="42.36754" lon="2.1793">
        <ele>1271.8</ele>
        <time>2024-09-25T15:04:36Z</time>
      </trkpt>
      <trkpt lat="42.36754" lon="2.1793">
        <ele>1271.8</ele>
        <time>2024-09-25T15:04:37Z</time>
      </trkpt>
      <trkpt lat="42.36754" lon="2.1793">
        <ele>1271.8</ele>
        <time>2024-09-25T15:04:38Z</time>
      </trkpt>
      <trkpt lat="42.36754" lon="2.1793">
        <ele>1271.7</ele>
        <time>2024-09-25T15:04:39Z</time>
      </trkpt>
      <trkpt lat="42.36753" lon="2.1793">
        <ele>1271.6</ele>
        <time>2024-09-25T15:04:40Z</time>
      </trkpt>
      <trkpt lat="42.36752" lon="2.1793">
        <ele>1271.4</ele>
        <time>2024-09-25T15:04:41Z</time>
      </trkpt>
      <trkpt lat="42.36752" lon="2.1793">
        <ele>1271.3</ele>
        <time>2024-09-25T15:04:42Z</time>
      </trkpt>
      <trkpt lat="42.36751" lon="2.1793">
        <ele>1271.2</ele>
        <time>2024-09-25T15:04:43Z</time>
      </trkpt>
      <trkpt lat="42.3675" lon="2.1793">
        <ele>1271</ele>
        <time>2024-09-25T15:04:44Z</time>
      </trkpt>
      <trkpt lat="42.3675" lon="2.1793">
        <ele>1270.9</ele>
        <time>2024-09-25T15:04:45Z</time>
      </trkpt>
      <trkpt lat="42.3675" lon="2.1793">
        <ele>1270.8</ele>
        <time>2024-09-25T15:04:46Z</time>
      </trkpt>
      <trkpt lat="42.36749" lon="2.17929">
        <ele>1270.7</ele>
        <time>2024-09-25T15:04:47Z</time>
      </trkpt>
      <trkpt lat="42.36749" lon="2.17929">
        <ele>1270.6</ele>
        <time>2024-09-25T15:04:48Z</time>
      </trkpt>
      <trkpt lat="42.36748" lon="2.17929">
        <ele>1270.6</ele>
        <time>2024-09-25T15:04:49Z</time>
      </trkpt>
      <trkpt lat="42.36748" lon="2.1793">
        <ele>1270.5</ele>
        <time>2024-09-25T15:04:50Z</time>
      </trkpt>
      <trkpt lat="42.36748" lon="2.17929">
        <ele>1270.4</ele>
        <time>2024-09-25T15:04:51Z</time>
      </trkpt>
      <trkpt lat="42.36747" lon="2.17929">
        <ele>1270.3</ele>
        <time>2024-09-25T15:04:52Z</time>
      </trkpt>
      <trkpt lat="42.36747" lon="2.17929">
        <ele>1270.2</ele>
        <time>2024-09-25T15:04:53Z</time>
      </trkpt>
      <trkpt lat="42.36746" lon="2.17929">
        <ele>1270.1</ele>
        <time>2024-09-25T15:04:54Z</time>
      </trkpt>
      <trkpt lat="42.36746" lon="2.17929">
        <ele>1270</ele>
        <time>2024-09-25T15:04:55Z</time>
      </trkpt>
      <trkpt lat="42.36745" lon="2.17929">
        <ele>1269.9</ele>
        <time>2024-09-25T15:04:56Z</time>
      </trkpt>
      <trkpt lat="42.36745" lon="2.17929">
        <ele>1269.8</ele>
        <time>2024-09-25T15:04:57Z</time>
      </trkpt>
      <trkpt lat="42.36745" lon="2.1793">
        <ele>1269.7</ele>
        <time>2024-09-25T15:04:58Z</time>
      </trkpt>
      <trkpt lat="42.36744" lon="2.1793">
        <ele>1269.6</ele>
        <time>2024-09-25T15:04:59Z</time>
      </trkpt>
      <trkpt lat="42.36743" lon="2.1793">
        <ele>1269.4</ele>
        <time>2024-09-25T15:05:00Z</time>
      </trkpt>
      <trkpt lat="42.36742" lon="2.1793">
        <ele>1269.2</ele>
        <time>2024-09-25T15:05:01Z</time>
      </trkpt>
      <trkpt lat="42.36741" lon="2.1793">
        <ele>1269</ele>
        <time>2024-09-25T15:05:02Z</time>
      </trkpt>
      <trkpt lat="42.36741" lon="2.1793">
        <ele>1268.9</ele>
        <time>2024-09-25T15:05:03Z</time>
      </trkpt>
      <trkpt lat="42.36741" lon="2.1793">
        <ele>1268.9</ele>
        <time>2024-09-25T15:05:04Z</time>
      </trkpt>
      <trkpt lat="42.36741" lon="2.1793">
        <ele>1268.9</ele>
        <time>2024-09-25T15:05:05Z</time>
      </trkpt>
      <trkpt lat="42.36741" lon="2.1793">
        <ele>1268.9</ele>
        <time>2024-09-25T15:05:06Z</time>
      </trkpt>
      <trkpt lat="42.36741" lon="2.1793">
        <ele>1268.9</ele>
        <time>2024-09-25T15:05:07Z</time>
      </trkpt>
      <trkpt lat="42.36741" lon="2.1793">
        <ele>1268.8</ele>
        <time>2024-09-25T15:05:08Z</time>
      </trkpt>
      <trkpt lat="42.36741" lon="2.1793">
        <ele>1268.8</ele>
        <time>2024-09-25T15:05:09Z</time>
      </trkpt>
      <trkpt lat="42.36741" lon="2.1793">
        <ele>1268.8</ele>
        <time>2024-09-25T15:05:10Z</time>
      </trkpt>
      <trkpt lat="42.36741" lon="2.1793">
        <ele>1268.8</ele>
        <time>2024-09-25T15:05:11Z</time>
      </trkpt>
      <trkpt lat="42.36741" lon="2.1793">
        <ele>1268.8</ele>
        <time>2024-09-25T15:05:12Z</time>
      </trkpt>
      <trkpt lat="42.36741" lon="2.1793">
        <ele>1268.8</ele>
        <time>2024-09-25T15:05:13Z</time>
      </trkpt>
      <trkpt lat="42.36741" lon="2.1793">
        <ele>1268.8</ele>
        <time>2024-09-25T15:05:14Z</time>
      </trkpt>
      <trkpt lat="42.36741" lon="2.1793">
        <ele>1268.8</ele>
        <time>2024-09-25T15:05:15Z</time>
      </trkpt>
      <trkpt lat="42.36741" lon="2.17929">
        <ele>1268.8</ele>
        <time>2024-09-25T15:05:16Z</time>
      </trkpt>
      <trkpt lat="42.36741" lon="2.17929">
        <ele>1268.7</ele>
        <time>2024-09-25T15:05:17Z</time>
      </trkpt>
      <trkpt lat="42.3674" lon="2.17929">
        <ele>1268.7</ele>
        <time>2024-09-25T15:05:18Z</time>
      </trkpt>
      <trkpt lat="42.3674" lon="2.17929">
        <ele>1268.5</ele>
        <time>2024-09-25T15:05:19Z</time>
      </trkpt>
      <trkpt lat="42.36739" lon="2.17929">
        <ele>1268.4</ele>
        <time>2024-09-25T15:05:20Z</time>
      </trkpt>
      <trkpt lat="42.36738" lon="2.17929">
        <ele>1268.2</ele>
        <time>2024-09-25T15:05:21Z</time>
      </trkpt>
      <trkpt lat="42.36737" lon="2.17928">
        <ele>1268</ele>
        <time>2024-09-25T15:05:22Z</time>
      </trkpt>
      <trkpt lat="42.36736" lon="2.17928">
        <ele>1267.8</ele>
        <time>2024-09-25T15:05:23Z</time>
      </trkpt>
      <trkpt lat="42.36735" lon="2.17927">
        <ele>1267.6</ele>
        <time>2024-09-25T15:05:24Z</time>
      </trkpt>
      <trkpt lat="42.36735" lon="2.17927">
        <ele>1267.6</ele>
        <time>2024-09-25T15:05:25Z</time>
      </trkpt>
      <trkpt lat="42.36735" lon="2.17927">
        <ele>1267.5</ele>
        <time>2024-09-25T15:05:26Z</time>
      </trkpt>
      <trkpt lat="42.36735" lon="2.17927">
        <ele>1267.5</ele>
        <time>2024-09-25T15:05:27Z</time>
      </trkpt>
      <trkpt lat="42.36735" lon="2.17927">
        <ele>1267.5</ele>
        <time>2024-09-25T15:05:28Z</time>
      </trkpt>
      <trkpt lat="42.36735" lon="2.17927">
        <ele>1267.5</ele>
        <time>2024-09-25T15:05:29Z</time>
      </trkpt>
      <trkpt lat="42.36735" lon="2.17927">
        <ele>1267.4</ele>
        <time>2024-09-25T15:05:30Z</time>
      </trkpt>
      <trkpt lat="42.36735" lon="2.17927">
        <ele>1267.4</ele>
        <time>2024-09-25T15:05:31Z</time>
      </trkpt>
      <trkpt lat="42.36734" lon="2.17927">
        <ele>1267.3</ele>
        <time>2024-09-25T15:05:32Z</time>
      </trkpt>
      <trkpt lat="42.36734" lon="2.17926">
        <ele>1267.3</ele>
        <time>2024-09-25T15:05:33Z</time>
      </trkpt>
      <trkpt lat="42.36733" lon="2.17926">
        <ele>1267.1</ele>
        <time>2024-09-25T15:05:34Z</time>
      </trkpt>
      <trkpt lat="42.36733" lon="2.17924">
        <ele>1266.9</ele>
        <time>2024-09-25T15:05:35Z</time>
      </trkpt>
      <trkpt lat="42.36732" lon="2.17924">
        <ele>1266.8</ele>
        <time>2024-09-25T15:05:36Z</time>
      </trkpt>
      <trkpt lat="42.36731" lon="2.17924">
        <ele>1266.7</ele>
        <time>2024-09-25T15:05:37Z</time>
      </trkpt>
      <trkpt lat="42.36731" lon="2.17923">
        <ele>1266.6</ele>
        <time>2024-09-25T15:05:38Z</time>
      </trkpt>
      <trkpt lat="42.36731" lon="2.17923">
        <ele>1266.5</ele>
        <time>2024-09-25T15:05:39Z</time>
      </trkpt>
      <trkpt lat="42.36731" lon="2.17922">
        <ele>1266.4</ele>
        <time>2024-09-25T15:05:40Z</time>
      </trkpt>
      <trkpt lat="42.36731" lon="2.17923">
        <ele>1266.4</ele>
        <time>2024-09-25T15:05:41Z</time>
      </trkpt>
      <trkpt lat="42.3673" lon="2.17923">
        <ele>1266.2</ele>
        <time>2024-09-25T15:05:42Z</time>
      </trkpt>
      <trkpt lat="42.36728" lon="2.17925">
        <ele>1265.9</ele>
        <time>2024-09-25T15:05:43Z</time>
      </trkpt>
      <trkpt lat="42.36727" lon="2.17926">
        <ele>1265.7</ele>
        <time>2024-09-25T15:05:44Z</time>
      </trkpt>
      <trkpt lat="42.36726" lon="2.17927">
        <ele>1265.4</ele>
        <time>2024-09-25T15:05:45Z</time>
      </trkpt>
      <trkpt lat="42.36725" lon="2.17928">
        <ele>1265.2</ele>
        <time>2024-09-25T15:05:46Z</time>
      </trkpt>
      <trkpt lat="42.36724" lon="2.17929">
        <ele>1265</ele>
        <time>2024-09-25T15:05:47Z</time>
      </trkpt>
      <trkpt lat="42.36724" lon="2.1793">
        <ele>1264.9</ele>
        <time>2024-09-25T15:05:48Z</time>
      </trkpt>
      <trkpt lat="42.36723" lon="2.1793">
        <ele>1264.9</ele>
        <time>2024-09-25T15:05:49Z</time>
      </trkpt>
      <trkpt lat="42.36723" lon="2.1793">
        <ele>1264.8</ele>
        <time>2024-09-25T15:05:50Z</time>
      </trkpt>
      <trkpt lat="42.36722" lon="2.1793">
        <ele>1264.7</ele>
        <time>2024-09-25T15:05:51Z</time>
      </trkpt>
      <trkpt lat="42.36722" lon="2.1793">
        <ele>1264.7</ele>
        <time>2024-09-25T15:05:52Z</time>
      </trkpt>
      <trkpt lat="42.36722" lon="2.1793">
        <ele>1264.6</ele>
        <time>2024-09-25T15:05:53Z</time>
      </trkpt>
      <trkpt lat="42.36721" lon="2.1793">
        <ele>1264.5</ele>
        <time>2024-09-25T15:05:54Z</time>
      </trkpt>
      <trkpt lat="42.3672" lon="2.17931">
        <ele>1264.4</ele>
        <time>2024-09-25T15:05:55Z</time>
      </trkpt>
      <trkpt lat="42.3672" lon="2.17931">
        <ele>1264.3</ele>
        <time>2024-09-25T15:05:56Z</time>
      </trkpt>
      <trkpt lat="42.36719" lon="2.17931">
        <ele>1264.2</ele>
        <time>2024-09-25T15:05:57Z</time>
      </trkpt>
      <trkpt lat="42.36718" lon="2.17932">
        <ele>1264.1</ele>
        <time>2024-09-25T15:05:58Z</time>
      </trkpt>
      <trkpt lat="42.36718" lon="2.17932">
        <ele>1264</ele>
        <time>2024-09-25T15:05:59Z</time>
      </trkpt>
      <trkpt lat="42.36717" lon="2.17932">
        <ele>1263.8</ele>
        <time>2024-09-25T15:06:00Z</time>
      </trkpt>
      <trkpt lat="42.36717" lon="2.17933">
        <ele>1263.8</ele>
        <time>2024-09-25T15:06:01Z</time>
      </trkpt>
      <trkpt lat="42.36716" lon="2.17933">
        <ele>1263.7</ele>
        <time>2024-09-25T15:06:02Z</time>
      </trkpt>
      <trkpt lat="42.36716" lon="2.17933">
        <ele>1263.6</ele>
        <time>2024-09-25T15:06:03Z</time>
      </trkpt>
      <trkpt lat="42.36715" lon="2.17934">
        <ele>1263.5</ele>
        <time>2024-09-25T15:06:04Z</time>
      </trkpt>
      <trkpt lat="42.36714" lon="2.17933">
        <ele>1263.4</ele>
        <time>2024-09-25T15:06:05Z</time>
      </trkpt>
      <trkpt lat="42.36713" lon="2.17934">
        <ele>1263.3</ele>
        <time>2024-09-25T15:06:06Z</time>
      </trkpt>
      <trkpt lat="42.36712" lon="2.17933">
        <ele>1263</ele>
        <time>2024-09-25T15:06:07Z</time>
      </trkpt>
      <trkpt lat="42.36711" lon="2.17932">
        <ele>1262.8</ele>
        <time>2024-09-25T15:06:08Z</time>
      </trkpt>
      <trkpt lat="42.36709" lon="2.17932">
        <ele>1262.6</ele>
        <time>2024-09-25T15:06:09Z</time>
      </trkpt>
      <trkpt lat="42.36708" lon="2.17932">
        <ele>1262.4</ele>
        <time>2024-09-25T15:06:10Z</time>
      </trkpt>
      <trkpt lat="42.36707" lon="2.17931">
        <ele>1262.3</ele>
        <time>2024-09-25T15:06:11Z</time>
      </trkpt>
      <trkpt lat="42.36707" lon="2.1793">
        <ele>1262.1</ele>
        <time>2024-09-25T15:06:12Z</time>
      </trkpt>
      <trkpt lat="42.36707" lon="2.17928">
        <ele>1261.9</ele>
        <time>2024-09-25T15:06:13Z</time>
      </trkpt>
      <trkpt lat="42.36707" lon="2.17927">
        <ele>1261.8</ele>
        <time>2024-09-25T15:06:14Z</time>
      </trkpt>
      <trkpt lat="42.36705" lon="2.17926">
        <ele>1261.4</ele>
        <time>2024-09-25T15:06:15Z</time>
      </trkpt>
      <trkpt lat="42.36704" lon="2.17925">
        <ele>1261.3</ele>
        <time>2024-09-25T15:06:16Z</time>
      </trkpt>
      <trkpt lat="42.36703" lon="2.17924">
        <ele>1261.1</ele>
        <time>2024-09-25T15:06:17Z</time>
      </trkpt>
      <trkpt lat="42.36702" lon="2.17923">
        <ele>1260.8</ele>
        <time>2024-09-25T15:06:18Z</time>
      </trkpt>
      <trkpt lat="42.36701" lon="2.17922">
        <ele>1260.6</ele>
        <time>2024-09-25T15:06:19Z</time>
      </trkpt>
      <trkpt lat="42.367" lon="2.17921">
        <ele>1260.4</ele>
        <time>2024-09-25T15:06:20Z</time>
      </trkpt>
      <trkpt lat="42.36699" lon="2.1792">
        <ele>1260.1</ele>
        <time>2024-09-25T15:06:21Z</time>
      </trkpt>
      <trkpt lat="42.36698" lon="2.1792">
        <ele>1260</ele>
        <time>2024-09-25T15:06:22Z</time>
      </trkpt>
      <trkpt lat="42.36697" lon="2.17919">
        <ele>1259.8</ele>
        <time>2024-09-25T15:06:23Z</time>
      </trkpt>
      <trkpt lat="42.36696" lon="2.17918">
        <ele>1259.6</ele>
        <time>2024-09-25T15:06:24Z</time>
      </trkpt>
      <trkpt lat="42.36696" lon="2.17918">
        <ele>1259.5</ele>
        <time>2024-09-25T15:06:25Z</time>
      </trkpt>
      <trkpt lat="42.36695" lon="2.17917">
        <ele>1259.4</ele>
        <time>2024-09-25T15:06:26Z</time>
      </trkpt>
      <trkpt lat="42.36694" lon="2.17917">
        <ele>1259.1</ele>
        <time>2024-09-25T15:06:27Z</time>
      </trkpt>
      <trkpt lat="42.36693" lon="2.17918">
        <ele>1258.9</ele>
        <time>2024-09-25T15:06:28Z</time>
      </trkpt>
      <trkpt lat="42.36691" lon="2.17918">
        <ele>1258.7</ele>
        <time>2024-09-25T15:06:29Z</time>
      </trkpt>
      <trkpt lat="42.3669" lon="2.17918">
        <ele>1258.4</ele>
        <time>2024-09-25T15:06:30Z</time>
      </trkpt>
      <trkpt lat="42.36689" lon="2.17918">
        <ele>1258.2</ele>
        <time>2024-09-25T15:06:31Z</time>
      </trkpt>
      <trkpt lat="42.36688" lon="2.17919">
        <ele>1258.1</ele>
        <time>2024-09-25T15:06:32Z</time>
      </trkpt>
      <trkpt lat="42.36688" lon="2.1792">
        <ele>1258</ele>
        <time>2024-09-25T15:06:33Z</time>
      </trkpt>
      <trkpt lat="42.36687" lon="2.1792">
        <ele>1257.8</ele>
        <time>2024-09-25T15:06:34Z</time>
      </trkpt>
      <trkpt lat="42.36687" lon="2.17919">
        <ele>1257.7</ele>
        <time>2024-09-25T15:06:35Z</time>
      </trkpt>
      <trkpt lat="42.36686" lon="2.17919">
        <ele>1257.6</ele>
        <time>2024-09-25T15:06:36Z</time>
      </trkpt>
      <trkpt lat="42.36686" lon="2.17919">
        <ele>1257.4</ele>
        <time>2024-09-25T15:06:37Z</time>
      </trkpt>
      <trkpt lat="42.36685" lon="2.17919">
        <ele>1257.4</ele>
        <time>2024-09-25T15:06:38Z</time>
      </trkpt>
      <trkpt lat="42.36684" lon="2.17918">
        <ele>1257.2</ele>
        <time>2024-09-25T15:06:39Z</time>
      </trkpt>
      <trkpt lat="42.36683" lon="2.17918">
        <ele>1257</ele>
        <time>2024-09-25T15:06:40Z</time>
      </trkpt>
      <trkpt lat="42.36683" lon="2.17918">
        <ele>1256.9</ele>
        <time>2024-09-25T15:06:41Z</time>
      </trkpt>
      <trkpt lat="42.36682" lon="2.17919">
        <ele>1256.8</ele>
        <time>2024-09-25T15:06:42Z</time>
      </trkpt>
      <trkpt lat="42.36682" lon="2.17918">
        <ele>1256.7</ele>
        <time>2024-09-25T15:06:43Z</time>
      </trkpt>
      <trkpt lat="42.36681" lon="2.17918">
        <ele>1256.6</ele>
        <time>2024-09-25T15:06:44Z</time>
      </trkpt>
      <trkpt lat="42.36681" lon="2.17917">
        <ele>1256.5</ele>
        <time>2024-09-25T15:06:45Z</time>
      </trkpt>
      <trkpt lat="42.3668" lon="2.17917">
        <ele>1256.3</ele>
        <time>2024-09-25T15:06:46Z</time>
      </trkpt>
      <trkpt lat="42.36679" lon="2.17917">
        <ele>1256.2</ele>
        <time>2024-09-25T15:06:47Z</time>
      </trkpt>
      <trkpt lat="42.36679" lon="2.17917">
        <ele>1256.1</ele>
        <time>2024-09-25T15:06:48Z</time>
      </trkpt>
      <trkpt lat="42.36678" lon="2.17917">
        <ele>1255.9</ele>
        <time>2024-09-25T15:06:49Z</time>
      </trkpt>
      <trkpt lat="42.36677" lon="2.17916">
        <ele>1255.7</ele>
        <time>2024-09-25T15:06:50Z</time>
      </trkpt>
      <trkpt lat="42.36677" lon="2.17916">
        <ele>1255.7</ele>
        <time>2024-09-25T15:06:51Z</time>
      </trkpt>
      <trkpt lat="42.36677" lon="2.17916">
        <ele>1255.6</ele>
        <time>2024-09-25T15:06:52Z</time>
      </trkpt>
      <trkpt lat="42.36677" lon="2.17916">
        <ele>1255.6</ele>
        <time>2024-09-25T15:06:53Z</time>
      </trkpt>
      <trkpt lat="42.36676" lon="2.17916">
        <ele>1255.5</ele>
        <time>2024-09-25T15:06:54Z</time>
      </trkpt>
      <trkpt lat="42.36675" lon="2.17916">
        <ele>1255.4</ele>
        <time>2024-09-25T15:06:55Z</time>
      </trkpt>
      <trkpt lat="42.36675" lon="2.17915">
        <ele>1255.3</ele>
        <time>2024-09-25T15:06:56Z</time>
      </trkpt>
      <trkpt lat="42.36675" lon="2.17915">
        <ele>1255.2</ele>
        <time>2024-09-25T15:06:57Z</time>
      </trkpt>
      <trkpt lat="42.36675" lon="2.17915">
        <ele>1255.2</ele>
        <time>2024-09-25T15:06:58Z</time>
      </trkpt>
      <trkpt lat="42.36675" lon="2.17915">
        <ele>1255.2</ele>
        <time>2024-09-25T15:06:59Z</time>
      </trkpt>
      <trkpt lat="42.36674" lon="2.17915">
        <ele>1255.1</ele>
        <time>2024-09-25T15:07:00Z</time>
      </trkpt>
      <trkpt lat="42.36674" lon="2.17915">
        <ele>1255</ele>
        <time>2024-09-25T15:07:01Z</time>
      </trkpt>
      <trkpt lat="42.36673" lon="2.17915">
        <ele>1254.9</ele>
        <time>2024-09-25T15:07:02Z</time>
      </trkpt>
      <trkpt lat="42.36673" lon="2.17915">
        <ele>1254.9</ele>
        <time>2024-09-25T15:07:03Z</time>
      </trkpt>
      <trkpt lat="42.36672" lon="2.17915">
        <ele>1254.7</ele>
        <time>2024-09-25T15:07:04Z</time>
      </trkpt>
      <trkpt lat="42.36672" lon="2.17915">
        <ele>1254.6</ele>
        <time>2024-09-25T15:07:05Z</time>
      </trkpt>
      <trkpt lat="42.36671" lon="2.17916">
        <ele>1254.5</ele>
        <time>2024-09-25T15:07:06Z</time>
      </trkpt>
      <trkpt lat="42.3667" lon="2.17916">
        <ele>1254.4</ele>
        <time>2024-09-25T15:07:07Z</time>
      </trkpt>
      <trkpt lat="42.3667" lon="2.17916">
        <ele>1254.3</ele>
        <time>2024-09-25T15:07:08Z</time>
      </trkpt>
      <trkpt lat="42.36669" lon="2.17915">
        <ele>1254.2</ele>
        <time>2024-09-25T15:07:09Z</time>
      </trkpt>
      <trkpt lat="42.36668" lon="2.17915">
        <ele>1254.1</ele>
        <time>2024-09-25T15:07:10Z</time>
      </trkpt>
      <trkpt lat="42.36668" lon="2.17915">
        <ele>1254</ele>
        <time>2024-09-25T15:07:11Z</time>
      </trkpt>
      <trkpt lat="42.36667" lon="2.17914">
        <ele>1253.9</ele>
        <time>2024-09-25T15:07:12Z</time>
      </trkpt>
      <trkpt lat="42.36667" lon="2.17914">
        <ele>1253.8</ele>
        <time>2024-09-25T15:07:13Z</time>
      </trkpt>
      <trkpt lat="42.36666" lon="2.17914">
        <ele>1253.7</ele>
        <time>2024-09-25T15:07:14Z</time>
      </trkpt>
      <trkpt lat="42.36666" lon="2.17913">
        <ele>1253.6</ele>
        <time>2024-09-25T15:07:15Z</time>
      </trkpt>
      <trkpt lat="42.36665" lon="2.17913">
        <ele>1253.5</ele>
        <time>2024-09-25T15:07:16Z</time>
      </trkpt>
      <trkpt lat="42.36665" lon="2.17912">
        <ele>1253.5</ele>
        <time>2024-09-25T15:07:17Z</time>
      </trkpt>
      <trkpt lat="42.36665" lon="2.17912">
        <ele>1253.4</ele>
        <time>2024-09-25T15:07:18Z</time>
      </trkpt>
      <trkpt lat="42.36665" lon="2.17912">
        <ele>1253.4</ele>
        <time>2024-09-25T15:07:19Z</time>
      </trkpt>
      <trkpt lat="42.36665" lon="2.17912">
        <ele>1253.4</ele>
        <time>2024-09-25T15:07:20Z</time>
      </trkpt>
      <trkpt lat="42.36666" lon="2.17912">
        <ele>1253.4</ele>
        <time>2024-09-25T15:07:21Z</time>
      </trkpt>
      <trkpt lat="42.36665" lon="2.17912">
        <ele>1253.4</ele>
        <time>2024-09-25T15:07:22Z</time>
      </trkpt>
      <trkpt lat="42.36665" lon="2.17912">
        <ele>1253.3</ele>
        <time>2024-09-25T15:07:23Z</time>
      </trkpt>
      <trkpt lat="42.36665" lon="2.17912">
        <ele>1253.3</ele>
        <time>2024-09-25T15:07:24Z</time>
      </trkpt>
      <trkpt lat="42.36665" lon="2.17912">
        <ele>1253.2</ele>
        <time>2024-09-25T15:07:25Z</time>
      </trkpt>
      <trkpt lat="42.36663" lon="2.17911">
        <ele>1253</ele>
        <time>2024-09-25T15:07:26Z</time>
      </trkpt>
      <trkpt lat="42.36662" lon="2.17911">
        <ele>1252.9</ele>
        <time>2024-09-25T15:07:27Z</time>
      </trkpt>
      <trkpt lat="42.36662" lon="2.1791">
        <ele>1252.8</ele>
        <time>2024-09-25T15:07:28Z</time>
      </trkpt>
      <trkpt lat="42.36661" lon="2.17909">
        <ele>1252.6</ele>
        <time>2024-09-25T15:07:29Z</time>
      </trkpt>
      <trkpt lat="42.36661" lon="2.17908">
        <ele>1252.5</ele>
        <time>2024-09-25T15:07:30Z</time>
      </trkpt>
      <trkpt lat="42.3666" lon="2.17907">
        <ele>1252.4</ele>
        <time>2024-09-25T15:07:31Z</time>
      </trkpt>
      <trkpt lat="42.36659" lon="2.17907">
        <ele>1252.3</ele>
        <time>2024-09-25T15:07:32Z</time>
      </trkpt>
      <trkpt lat="42.36658" lon="2.17906">
        <ele>1252.1</ele>
        <time>2024-09-25T15:07:33Z</time>
      </trkpt>
      <trkpt lat="42.36658" lon="2.17905">
        <ele>1252</ele>
        <time>2024-09-25T15:07:34Z</time>
      </trkpt>
      <trkpt lat="42.36656" lon="2.17902">
        <ele>1251.7</ele>
        <time>2024-09-25T15:07:35Z</time>
      </trkpt>
      <trkpt lat="42.36656" lon="2.17901">
        <ele>1251.6</ele>
        <time>2024-09-25T15:07:36Z</time>
      </trkpt>
      <trkpt lat="42.36655" lon="2.179">
        <ele>1251.5</ele>
        <time>2024-09-25T15:07:37Z</time>
      </trkpt>
      <trkpt lat="42.36654" lon="2.179">
        <ele>1251.3</ele>
        <time>2024-09-25T15:07:38Z</time>
      </trkpt>
      <trkpt lat="42.36653" lon="2.17899">
        <ele>1251.2</ele>
        <time>2024-09-25T15:07:39Z</time>
      </trkpt>
      <trkpt lat="42.36652" lon="2.17899">
        <ele>1251.1</ele>
        <time>2024-09-25T15:07:40Z</time>
      </trkpt>
      <trkpt lat="42.36651" lon="2.17899">
        <ele>1251</ele>
        <time>2024-09-25T15:07:41Z</time>
      </trkpt>
      <trkpt lat="42.3665" lon="2.17899">
        <ele>1250.8</ele>
        <time>2024-09-25T15:07:42Z</time>
      </trkpt>
      <trkpt lat="42.36649" lon="2.17897">
        <ele>1250.7</ele>
        <time>2024-09-25T15:07:43Z</time>
      </trkpt>
      <trkpt lat="42.36648" lon="2.17896">
        <ele>1250.5</ele>
        <time>2024-09-25T15:07:44Z</time>
      </trkpt>
      <trkpt lat="42.36648" lon="2.17896">
        <ele>1250.4</ele>
        <time>2024-09-25T15:07:45Z</time>
      </trkpt>
      <trkpt lat="42.36647" lon="2.17895">
        <ele>1250.3</ele>
        <time>2024-09-25T15:07:46Z</time>
      </trkpt>
      <trkpt lat="42.36646" lon="2.17894">
        <ele>1250.1</ele>
        <time>2024-09-25T15:07:47Z</time>
      </trkpt>
      <trkpt lat="42.36645" lon="2.17893">
        <ele>1250</ele>
        <time>2024-09-25T15:07:48Z</time>
      </trkpt>
      <trkpt lat="42.36644" lon="2.17892">
        <ele>1249.9</ele>
        <time>2024-09-25T15:07:49Z</time>
      </trkpt>
      <trkpt lat="42.36644" lon="2.17891">
        <ele>1249.8</ele>
        <time>2024-09-25T15:07:50Z</time>
      </trkpt>
      <trkpt lat="42.36643" lon="2.17891">
        <ele>1249.7</ele>
        <time>2024-09-25T15:07:51Z</time>
      </trkpt>
      <trkpt lat="42.36643" lon="2.1789">
        <ele>1249.6</ele>
        <time>2024-09-25T15:07:52Z</time>
      </trkpt>
      <trkpt lat="42.36642" lon="2.17889">
        <ele>1249.4</ele>
        <time>2024-09-25T15:07:53Z</time>
      </trkpt>
      <trkpt lat="42.36641" lon="2.17888">
        <ele>1249.3</ele>
        <time>2024-09-25T15:07:54Z</time>
      </trkpt>
      <trkpt lat="42.3664" lon="2.17888">
        <ele>1249.2</ele>
        <time>2024-09-25T15:07:55Z</time>
      </trkpt>
      <trkpt lat="42.3664" lon="2.17889">
        <ele>1249.1</ele>
        <time>2024-09-25T15:07:56Z</time>
      </trkpt>
      <trkpt lat="42.3664" lon="2.17889">
        <ele>1249</ele>
        <time>2024-09-25T15:07:57Z</time>
      </trkpt>
      <trkpt lat="42.36638" lon="2.17888">
        <ele>1248.7</ele>
        <time>2024-09-25T15:07:58Z</time>
      </trkpt>
      <trkpt lat="42.36637" lon="2.17888">
        <ele>1248.6</ele>
        <time>2024-09-25T15:07:59Z</time>
      </trkpt>
      <trkpt lat="42.36636" lon="2.17887">
        <ele>1248.4</ele>
        <time>2024-09-25T15:08:00Z</time>
      </trkpt>
      <trkpt lat="42.36635" lon="2.17886">
        <ele>1248.2</ele>
        <time>2024-09-25T15:08:01Z</time>
      </trkpt>
      <trkpt lat="42.36635" lon="2.17885">
        <ele>1248</ele>
        <time>2024-09-25T15:08:02Z</time>
      </trkpt>
      <trkpt lat="42.36634" lon="2.17884">
        <ele>1247.9</ele>
        <time>2024-09-25T15:08:03Z</time>
      </trkpt>
      <trkpt lat="42.36634" lon="2.17884">
        <ele>1247.8</ele>
        <time>2024-09-25T15:08:04Z</time>
      </trkpt>
      <trkpt lat="42.36633" lon="2.17884">
        <ele>1247.7</ele>
        <time>2024-09-25T15:08:05Z</time>
      </trkpt>
      <trkpt lat="42.36633" lon="2.17883">
        <ele>1247.6</ele>
        <time>2024-09-25T15:08:06Z</time>
      </trkpt>
      <trkpt lat="42.36632" lon="2.17883">
        <ele>1247.5</ele>
        <time>2024-09-25T15:08:07Z</time>
      </trkpt>
      <trkpt lat="42.36632" lon="2.17883">
        <ele>1247.4</ele>
        <time>2024-09-25T15:08:08Z</time>
      </trkpt>
      <trkpt lat="42.36631" lon="2.17883">
        <ele>1247.2</ele>
        <time>2024-09-25T15:08:09Z</time>
      </trkpt>
      <trkpt lat="42.3663" lon="2.17882">
        <ele>1247</ele>
        <time>2024-09-25T15:08:10Z</time>
      </trkpt>
      <trkpt lat="42.36629" lon="2.17881">
        <ele>1246.8</ele>
        <time>2024-09-25T15:08:11Z</time>
      </trkpt>
      <trkpt lat="42.36628" lon="2.1788">
        <ele>1246.6</ele>
        <time>2024-09-25T15:08:12Z</time>
      </trkpt>
      <trkpt lat="42.36627" lon="2.1788">
        <ele>1246.4</ele>
        <time>2024-09-25T15:08:13Z</time>
      </trkpt>
      <trkpt lat="42.36626" lon="2.17879">
        <ele>1246.2</ele>
        <time>2024-09-25T15:08:14Z</time>
      </trkpt>
      <trkpt lat="42.36626" lon="2.17879">
        <ele>1246.2</ele>
        <time>2024-09-25T15:08:15Z</time>
      </trkpt>
      <trkpt lat="42.36626" lon="2.17878">
        <ele>1246.1</ele>
        <time>2024-09-25T15:08:16Z</time>
      </trkpt>
      <trkpt lat="42.36625" lon="2.17877">
        <ele>1245.8</ele>
        <time>2024-09-25T15:08:17Z</time>
      </trkpt>
      <trkpt lat="42.36625" lon="2.17877">
        <ele>1245.7</ele>
        <time>2024-09-25T15:08:18Z</time>
      </trkpt>
      <trkpt lat="42.36624" lon="2.17876">
        <ele>1245.5</ele>
        <time>2024-09-25T15:08:19Z</time>
      </trkpt>
      <trkpt lat="42.36623" lon="2.17876">
        <ele>1245.3</ele>
        <time>2024-09-25T15:08:20Z</time>
      </trkpt>
      <trkpt lat="42.36622" lon="2.17876">
        <ele>1245.2</ele>
        <time>2024-09-25T15:08:21Z</time>
      </trkpt>
      <trkpt lat="42.36622" lon="2.17876">
        <ele>1245</ele>
        <time>2024-09-25T15:08:22Z</time>
      </trkpt>
      <trkpt lat="42.36621" lon="2.17876">
        <ele>1244.8</ele>
        <time>2024-09-25T15:08:23Z</time>
      </trkpt>
      <trkpt lat="42.3662" lon="2.17875">
        <ele>1244.7</ele>
        <time>2024-09-25T15:08:24Z</time>
      </trkpt>
      <trkpt lat="42.36619" lon="2.17874">
        <ele>1244.4</ele>
        <time>2024-09-25T15:08:25Z</time>
      </trkpt>
      <trkpt lat="42.36619" lon="2.17874">
        <ele>1244.3</ele>
        <time>2024-09-25T15:08:26Z</time>
      </trkpt>
      <trkpt lat="42.36619" lon="2.17873">
        <ele>1244.2</ele>
        <time>2024-09-25T15:08:27Z</time>
      </trkpt>
      <trkpt lat="42.36619" lon="2.17873">
        <ele>1244.2</ele>
        <time>2024-09-25T15:08:28Z</time>
      </trkpt>
      <trkpt lat="42.36618" lon="2.17873">
        <ele>1244.1</ele>
        <time>2024-09-25T15:08:29Z</time>
      </trkpt>
      <trkpt lat="42.36618" lon="2.17873">
        <ele>1244.1</ele>
        <time>2024-09-25T15:08:30Z</time>
      </trkpt>
      <trkpt lat="42.36618" lon="2.17872">
        <ele>1244</ele>
        <time>2024-09-25T15:08:31Z</time>
      </trkpt>
      <trkpt lat="42.36617" lon="2.17871">
        <ele>1243.8</ele>
        <time>2024-09-25T15:08:32Z</time>
      </trkpt>
      <trkpt lat="42.36617" lon="2.17871">
        <ele>1243.7</ele>
        <time>2024-09-25T15:08:33Z</time>
      </trkpt>
      <trkpt lat="42.36617" lon="2.17871">
        <ele>1243.7</ele>
        <time>2024-09-25T15:08:34Z</time>
      </trkpt>
      <trkpt lat="42.36617" lon="2.1787">
        <ele>1243.6</ele>
        <time>2024-09-25T15:08:35Z</time>
      </trkpt>
      <trkpt lat="42.36616" lon="2.1787">
        <ele>1243.4</ele>
        <time>2024-09-25T15:08:36Z</time>
      </trkpt>
      <trkpt lat="42.36616" lon="2.17869">
        <ele>1243.3</ele>
        <time>2024-09-25T15:08:37Z</time>
      </trkpt>
      <trkpt lat="42.36616" lon="2.17869">
        <ele>1243.3</ele>
        <time>2024-09-25T15:08:38Z</time>
      </trkpt>
      <trkpt lat="42.36616" lon="2.17869">
        <ele>1243.3</ele>
        <time>2024-09-25T15:08:39Z</time>
      </trkpt>
      <trkpt lat="42.36616" lon="2.1787">
        <ele>1243.3</ele>
        <time>2024-09-25T15:08:40Z</time>
      </trkpt>
      <trkpt lat="42.36616" lon="2.17869">
        <ele>1243.3</ele>
        <time>2024-09-25T15:08:41Z</time>
      </trkpt>
      <trkpt lat="42.36616" lon="2.17869">
        <ele>1243.2</ele>
        <time>2024-09-25T15:08:42Z</time>
      </trkpt>
      <trkpt lat="42.36616" lon="2.17868">
        <ele>1243.1</ele>
        <time>2024-09-25T15:08:43Z</time>
      </trkpt>
      <trkpt lat="42.36616" lon="2.17868">
        <ele>1243</ele>
        <time>2024-09-25T15:08:44Z</time>
      </trkpt>
      <trkpt lat="42.36616" lon="2.17867">
        <ele>1242.9</ele>
        <time>2024-09-25T15:08:45Z</time>
      </trkpt>
      <trkpt lat="42.36616" lon="2.17867">
        <ele>1242.8</ele>
        <time>2024-09-25T15:08:46Z</time>
      </trkpt>
      <trkpt lat="42.36616" lon="2.17866">
        <ele>1242.7</ele>
        <time>2024-09-25T15:08:47Z</time>
      </trkpt>
      <trkpt lat="42.36616" lon="2.17865">
        <ele>1242.6</ele>
        <time>2024-09-25T15:08:48Z</time>
      </trkpt>
      <trkpt lat="42.36615" lon="2.17865">
        <ele>1242.5</ele>
        <time>2024-09-25T15:08:49Z</time>
      </trkpt>
      <trkpt lat="42.36615" lon="2.17864">
        <ele>1242.3</ele>
        <time>2024-09-25T15:08:50Z</time>
      </trkpt>
      <trkpt lat="42.36614" lon="2.17863">
        <ele>1242.2</ele>
        <time>2024-09-25T15:08:51Z</time>
      </trkpt>
      <trkpt lat="42.36614" lon="2.17863">
        <ele>1242</ele>
        <time>2024-09-25T15:08:52Z</time>
      </trkpt>
      <trkpt lat="42.36613" lon="2.17862">
        <ele>1241.9</ele>
        <time>2024-09-25T15:08:53Z</time>
      </trkpt>
      <trkpt lat="42.36613" lon="2.17862">
        <ele>1241.9</ele>
        <time>2024-09-25T15:08:54Z</time>
      </trkpt>
      <trkpt lat="42.36612" lon="2.17862">
        <ele>1241.8</ele>
        <time>2024-09-25T15:08:55Z</time>
      </trkpt>
      <trkpt lat="42.36612" lon="2.17862">
        <ele>1241.6</ele>
        <time>2024-09-25T15:08:56Z</time>
      </trkpt>
      <trkpt lat="42.36611" lon="2.17862">
        <ele>1241.5</ele>
        <time>2024-09-25T15:08:57Z</time>
      </trkpt>
      <trkpt lat="42.36611" lon="2.17862">
        <ele>1241.4</ele>
        <time>2024-09-25T15:08:58Z</time>
      </trkpt>
      <trkpt lat="42.3661" lon="2.17862">
        <ele>1241.3</ele>
        <time>2024-09-25T15:08:59Z</time>
      </trkpt>
      <trkpt lat="42.3661" lon="2.17862">
        <ele>1241.3</ele>
        <time>2024-09-25T15:09:00Z</time>
      </trkpt>
      <trkpt lat="42.36609" lon="2.17862">
        <ele>1241.2</ele>
        <time>2024-09-25T15:09:01Z</time>
      </trkpt>
      <trkpt lat="42.36609" lon="2.17862">
        <ele>1241.1</ele>
        <time>2024-09-25T15:09:02Z</time>
      </trkpt>
      <trkpt lat="42.36607" lon="2.17862">
        <ele>1240.9</ele>
        <time>2024-09-25T15:09:03Z</time>
      </trkpt>
      <trkpt lat="42.36607" lon="2.17863">
        <ele>1240.8</ele>
        <time>2024-09-25T15:09:04Z</time>
      </trkpt>
      <trkpt lat="42.36606" lon="2.17864">
        <ele>1240.6</ele>
        <time>2024-09-25T15:09:05Z</time>
      </trkpt>
      <trkpt lat="42.36606" lon="2.17864">
        <ele>1240.5</ele>
        <time>2024-09-25T15:09:06Z</time>
      </trkpt>
      <trkpt lat="42.36604" lon="2.17864">
        <ele>1240.3</ele>
        <time>2024-09-25T15:09:07Z</time>
      </trkpt>
      <trkpt lat="42.36604" lon="2.17863">
        <ele>1240.2</ele>
        <time>2024-09-25T15:09:08Z</time>
      </trkpt>
      <trkpt lat="42.36603" lon="2.17862">
        <ele>1240</ele>
        <time>2024-09-25T15:09:09Z</time>
      </trkpt>
      <trkpt lat="42.36602" lon="2.17862">
        <ele>1239.9</ele>
        <time>2024-09-25T15:09:10Z</time>
      </trkpt>
      <trkpt lat="42.36602" lon="2.17861">
        <ele>1239.8</ele>
        <time>2024-09-25T15:09:11Z</time>
      </trkpt>
      <trkpt lat="42.36601" lon="2.17861">
        <ele>1239.7</ele>
        <time>2024-09-25T15:09:12Z</time>
      </trkpt>
      <trkpt lat="42.366" lon="2.1786">
        <ele>1239.6</ele>
        <time>2024-09-25T15:09:13Z</time>
      </trkpt>
      <trkpt lat="42.366" lon="2.1786">
        <ele>1239.5</ele>
        <time>2024-09-25T15:09:14Z</time>
      </trkpt>
      <trkpt lat="42.36599" lon="2.1786">
        <ele>1239.4</ele>
        <time>2024-09-25T15:09:15Z</time>
      </trkpt>
      <trkpt lat="42.36598" lon="2.17859">
        <ele>1239.4</ele>
        <time>2024-09-25T15:09:16Z</time>
      </trkpt>
      <trkpt lat="42.36598" lon="2.17858">
        <ele>1239.3</ele>
        <time>2024-09-25T15:09:17Z</time>
      </trkpt>
      <trkpt lat="42.36597" lon="2.17858">
        <ele>1239.2</ele>
        <time>2024-09-25T15:09:18Z</time>
      </trkpt>
      <trkpt lat="42.36597" lon="2.17857">
        <ele>1239.1</ele>
        <time>2024-09-25T15:09:19Z</time>
      </trkpt>
      <trkpt lat="42.36596" lon="2.17856">
        <ele>1239</ele>
        <time>2024-09-25T15:09:20Z</time>
      </trkpt>
      <trkpt lat="42.36595" lon="2.17855">
        <ele>1238.9</ele>
        <time>2024-09-25T15:09:21Z</time>
      </trkpt>
      <trkpt lat="42.36595" lon="2.17855">
        <ele>1238.8</ele>
        <time>2024-09-25T15:09:22Z</time>
      </trkpt>
      <trkpt lat="42.36594" lon="2.17854">
        <ele>1238.8</ele>
        <time>2024-09-25T15:09:23Z</time>
      </trkpt>
      <trkpt lat="42.36593" lon="2.17854">
        <ele>1238.7</ele>
        <time>2024-09-25T15:09:24Z</time>
      </trkpt>
      <trkpt lat="42.36592" lon="2.17853">
        <ele>1238.6</ele>
        <time>2024-09-25T15:09:25Z</time>
      </trkpt>
      <trkpt lat="42.36591" lon="2.17853">
        <ele>1238.4</ele>
        <time>2024-09-25T15:09:26Z</time>
      </trkpt>
      <trkpt lat="42.36591" lon="2.17852">
        <ele>1238.4</ele>
        <time>2024-09-25T15:09:27Z</time>
      </trkpt>
      <trkpt lat="42.3659" lon="2.17851">
        <ele>1238.3</ele>
        <time>2024-09-25T15:09:28Z</time>
      </trkpt>
      <trkpt lat="42.36589" lon="2.17851">
        <ele>1238.2</ele>
        <time>2024-09-25T15:09:29Z</time>
      </trkpt>
      <trkpt lat="42.36589" lon="2.17851">
        <ele>1238.2</ele>
        <time>2024-09-25T15:09:30Z</time>
      </trkpt>
      <trkpt lat="42.36588" lon="2.1785">
        <ele>1238.1</ele>
        <time>2024-09-25T15:09:31Z</time>
      </trkpt>
      <trkpt lat="42.36588" lon="2.17849">
        <ele>1238.1</ele>
        <time>2024-09-25T15:09:32Z</time>
      </trkpt>
      <trkpt lat="42.36587" lon="2.17849">
        <ele>1238</ele>
        <time>2024-09-25T15:09:33Z</time>
      </trkpt>
      <trkpt lat="42.36587" lon="2.17848">
        <ele>1238</ele>
        <time>2024-09-25T15:09:34Z</time>
      </trkpt>
      <trkpt lat="42.36586" lon="2.17847">
        <ele>1237.9</ele>
        <time>2024-09-25T15:09:35Z</time>
      </trkpt>
      <trkpt lat="42.36586" lon="2.17846">
        <ele>1237.8</ele>
        <time>2024-09-25T15:09:36Z</time>
      </trkpt>
      <trkpt lat="42.36586" lon="2.17845">
        <ele>1237.7</ele>
        <time>2024-09-25T15:09:37Z</time>
      </trkpt>
      <trkpt lat="42.36585" lon="2.17843">
        <ele>1237.7</ele>
        <time>2024-09-25T15:09:38Z</time>
      </trkpt>
      <trkpt lat="42.36585" lon="2.17842">
        <ele>1237.6</ele>
        <time>2024-09-25T15:09:39Z</time>
      </trkpt>
      <trkpt lat="42.36584" lon="2.17841">
        <ele>1237.5</ele>
        <time>2024-09-25T15:09:40Z</time>
      </trkpt>
      <trkpt lat="42.36585" lon="2.1784">
        <ele>1237.5</ele>
        <time>2024-09-25T15:09:41Z</time>
      </trkpt>
      <trkpt lat="42.36585" lon="2.1784">
        <ele>1237.4</ele>
        <time>2024-09-25T15:09:42Z</time>
      </trkpt>
      <trkpt lat="42.36584" lon="2.17838">
        <ele>1237.4</ele>
        <time>2024-09-25T15:09:43Z</time>
      </trkpt>
      <trkpt lat="42.36584" lon="2.17837">
        <ele>1237.3</ele>
        <time>2024-09-25T15:09:44Z</time>
      </trkpt>
      <trkpt lat="42.36584" lon="2.17836">
        <ele>1237.2</ele>
        <time>2024-09-25T15:09:45Z</time>
      </trkpt>
      <trkpt lat="42.36584" lon="2.17834">
        <ele>1237.1</ele>
        <time>2024-09-25T15:09:46Z</time>
      </trkpt>
      <trkpt lat="42.36584" lon="2.17833">
        <ele>1237</ele>
        <time>2024-09-25T15:09:47Z</time>
      </trkpt>
      <trkpt lat="42.36584" lon="2.17832">
        <ele>1237</ele>
        <time>2024-09-25T15:09:48Z</time>
      </trkpt>
      <trkpt lat="42.36584" lon="2.17831">
        <ele>1236.9</ele>
        <time>2024-09-25T15:09:49Z</time>
      </trkpt>
      <trkpt lat="42.36584" lon="2.1783">
        <ele>1236.9</ele>
        <time>2024-09-25T15:09:50Z</time>
      </trkpt>
      <trkpt lat="42.36583" lon="2.1783">
        <ele>1236.9</ele>
        <time>2024-09-25T15:09:51Z</time>
      </trkpt>
      <trkpt lat="42.36583" lon="2.17829">
        <ele>1236.9</ele>
        <time>2024-09-25T15:09:52Z</time>
      </trkpt>
      <trkpt lat="42.36583" lon="2.17829">
        <ele>1236.8</ele>
        <time>2024-09-25T15:09:53Z</time>
      </trkpt>
      <trkpt lat="42.36583" lon="2.17828">
        <ele>1236.8</ele>
        <time>2024-09-25T15:09:54Z</time>
      </trkpt>
      <trkpt lat="42.36583" lon="2.17827">
        <ele>1236.7</ele>
        <time>2024-09-25T15:09:55Z</time>
      </trkpt>
      <trkpt lat="42.36583" lon="2.17826">
        <ele>1236.6</ele>
        <time>2024-09-25T15:09:56Z</time>
      </trkpt>
      <trkpt lat="42.36582" lon="2.17825">
        <ele>1236.6</ele>
        <time>2024-09-25T15:09:57Z</time>
      </trkpt>
      <trkpt lat="42.36582" lon="2.17824">
        <ele>1236.5</ele>
        <time>2024-09-25T15:09:58Z</time>
      </trkpt>
      <trkpt lat="42.36582" lon="2.17824">
        <ele>1236.5</ele>
        <time>2024-09-25T15:09:59Z</time>
      </trkpt>
      <trkpt lat="42.36582" lon="2.17823">
        <ele>1236.4</ele>
        <time>2024-09-25T15:10:00Z</time>
      </trkpt>
      <trkpt lat="42.36582" lon="2.17822">
        <ele>1236.4</ele>
        <time>2024-09-25T15:10:01Z</time>
      </trkpt>
      <trkpt lat="42.36582" lon="2.17822">
        <ele>1236.4</ele>
        <time>2024-09-25T15:10:02Z</time>
      </trkpt>
      <trkpt lat="42.36582" lon="2.17821">
        <ele>1236.4</ele>
        <time>2024-09-25T15:10:03Z</time>
      </trkpt>
      <trkpt lat="42.36582" lon="2.1782">
        <ele>1236.3</ele>
        <time>2024-09-25T15:10:04Z</time>
      </trkpt>
      <trkpt lat="42.36582" lon="2.17819">
        <ele>1236.3</ele>
        <time>2024-09-25T15:10:05Z</time>
      </trkpt>
      <trkpt lat="42.36582" lon="2.17818">
        <ele>1236.2</ele>
        <time>2024-09-25T15:10:06Z</time>
      </trkpt>
      <trkpt lat="42.36582" lon="2.17817">
        <ele>1236.1</ele>
        <time>2024-09-25T15:10:07Z</time>
      </trkpt>
      <trkpt lat="42.36583" lon="2.17816">
        <ele>1236</ele>
        <time>2024-09-25T15:10:08Z</time>
      </trkpt>
      <trkpt lat="42.36584" lon="2.17815">
        <ele>1236</ele>
        <time>2024-09-25T15:10:09Z</time>
      </trkpt>
      <trkpt lat="42.36584" lon="2.17815">
        <ele>1235.9</ele>
        <time>2024-09-25T15:10:10Z</time>
      </trkpt>
      <trkpt lat="42.36584" lon="2.17813">
        <ele>1235.8</ele>
        <time>2024-09-25T15:10:11Z</time>
      </trkpt>
      <trkpt lat="42.36584" lon="2.17813">
        <ele>1235.8</ele>
        <time>2024-09-25T15:10:12Z</time>
      </trkpt>
      <trkpt lat="42.36584" lon="2.17813">
        <ele>1235.8</ele>
        <time>2024-09-25T15:10:13Z</time>
      </trkpt>
      <trkpt lat="42.36583" lon="2.17813">
        <ele>1235.7</ele>
        <time>2024-09-25T15:10:14Z</time>
      </trkpt>
      <trkpt lat="42.36583" lon="2.17814">
        <ele>1235.7</ele>
        <time>2024-09-25T15:10:15Z</time>
      </trkpt>
      <trkpt lat="42.36583" lon="2.17814">
        <ele>1235.6</ele>
        <time>2024-09-25T15:10:16Z</time>
      </trkpt>
      <trkpt lat="42.36583" lon="2.17813">
        <ele>1235.6</ele>
        <time>2024-09-25T15:10:17Z</time>
      </trkpt>
      <trkpt lat="42.36582" lon="2.17813">
        <ele>1235.6</ele>
        <time>2024-09-25T15:10:18Z</time>
      </trkpt>
      <trkpt lat="42.36582" lon="2.17813">
        <ele>1235.6</ele>
        <time>2024-09-25T15:10:19Z</time>
      </trkpt>
      <trkpt lat="42.36582" lon="2.17813">
        <ele>1235.5</ele>
        <time>2024-09-25T15:10:20Z</time>
      </trkpt>
      <trkpt lat="42.36581" lon="2.17812">
        <ele>1235.5</ele>
        <time>2024-09-25T15:10:21Z</time>
      </trkpt>
      <trkpt lat="42.36581" lon="2.17811">
        <ele>1235.4</ele>
        <time>2024-09-25T15:10:22Z</time>
      </trkpt>
      <trkpt lat="42.36581" lon="2.1781">
        <ele>1235.3</ele>
        <time>2024-09-25T15:10:23Z</time>
      </trkpt>
      <trkpt lat="42.3658" lon="2.17809">
        <ele>1235.2</ele>
        <time>2024-09-25T15:10:24Z</time>
      </trkpt>
      <trkpt lat="42.3658" lon="2.17808">
        <ele>1235.2</ele>
        <time>2024-09-25T15:10:25Z</time>
      </trkpt>
      <trkpt lat="42.3658" lon="2.17808">
        <ele>1235.1</ele>
        <time>2024-09-25T15:10:26Z</time>
      </trkpt>
      <trkpt lat="42.3658" lon="2.17807">
        <ele>1235.1</ele>
        <time>2024-09-25T15:10:27Z</time>
      </trkpt>
      <trkpt lat="42.3658" lon="2.17807">
        <ele>1235.1</ele>
        <time>2024-09-25T15:10:28Z</time>
      </trkpt>
      <trkpt lat="42.3658" lon="2.17806">
        <ele>1235</ele>
        <time>2024-09-25T15:10:29Z</time>
      </trkpt>
      <trkpt lat="42.36579" lon="2.17805">
        <ele>1234.9</ele>
        <time>2024-09-25T15:10:30Z</time>
      </trkpt>
      <trkpt lat="42.36579" lon="2.17804">
        <ele>1234.9</ele>
        <time>2024-09-25T15:10:31Z</time>
      </trkpt>
      <trkpt lat="42.36579" lon="2.17804">
        <ele>1234.8</ele>
        <time>2024-09-25T15:10:32Z</time>
      </trkpt>
      <trkpt lat="42.36579" lon="2.17803">
        <ele>1234.8</ele>
        <time>2024-09-25T15:10:33Z</time>
      </trkpt>
      <trkpt lat="42.36579" lon="2.17803">
        <ele>1234.7</ele>
        <time>2024-09-25T15:10:34Z</time>
      </trkpt>
      <trkpt lat="42.36579" lon="2.17802">
        <ele>1234.7</ele>
        <time>2024-09-25T15:10:35Z</time>
      </trkpt>
      <trkpt lat="42.36579" lon="2.17801">
        <ele>1234.6</ele>
        <time>2024-09-25T15:10:36Z</time>
      </trkpt>
      <trkpt lat="42.3658" lon="2.178">
        <ele>1234.5</ele>
        <time>2024-09-25T15:10:37Z</time>
      </trkpt>
      <trkpt lat="42.3658" lon="2.17799">
        <ele>1234.4</ele>
        <time>2024-09-25T15:10:38Z</time>
      </trkpt>
      <trkpt lat="42.3658" lon="2.17799">
        <ele>1234.3</ele>
        <time>2024-09-25T15:10:39Z</time>
      </trkpt>
      <trkpt lat="42.3658" lon="2.17798">
        <ele>1234.2</ele>
        <time>2024-09-25T15:10:40Z</time>
      </trkpt>
      <trkpt lat="42.36579" lon="2.17797">
        <ele>1234.2</ele>
        <time>2024-09-25T15:10:41Z</time>
      </trkpt>
      <trkpt lat="42.36579" lon="2.17797">
        <ele>1234.1</ele>
        <time>2024-09-25T15:10:42Z</time>
      </trkpt>
      <trkpt lat="42.36578" lon="2.17797">
        <ele>1234</ele>
        <time>2024-09-25T15:10:43Z</time>
      </trkpt>
      <trkpt lat="42.36577" lon="2.17796">
        <ele>1233.9</ele>
        <time>2024-09-25T15:10:44Z</time>
      </trkpt>
      <trkpt lat="42.36577" lon="2.17796">
        <ele>1233.9</ele>
        <time>2024-09-25T15:10:45Z</time>
      </trkpt>
      <trkpt lat="42.36576" lon="2.17795">
        <ele>1233.8</ele>
        <time>2024-09-25T15:10:46Z</time>
      </trkpt>
      <trkpt lat="42.36576" lon="2.17794">
        <ele>1233.7</ele>
        <time>2024-09-25T15:10:47Z</time>
      </trkpt>
      <trkpt lat="42.36576" lon="2.17794">
        <ele>1233.7</ele>
        <time>2024-09-25T15:10:48Z</time>
      </trkpt>
      <trkpt lat="42.36575" lon="2.17794">
        <ele>1233.6</ele>
        <time>2024-09-25T15:10:49Z</time>
      </trkpt>
      <trkpt lat="42.36575" lon="2.17793">
        <ele>1233.5</ele>
        <time>2024-09-25T15:10:50Z</time>
      </trkpt>
      <trkpt lat="42.36575" lon="2.17793">
        <ele>1233.5</ele>
        <time>2024-09-25T15:10:51Z</time>
      </trkpt>
      <trkpt lat="42.36574" lon="2.17792">
        <ele>1233.5</ele>
        <time>2024-09-25T15:10:52Z</time>
      </trkpt>
      <trkpt lat="42.36574" lon="2.17792">
        <ele>1233.4</ele>
        <time>2024-09-25T15:10:53Z</time>
      </trkpt>
      <trkpt lat="42.36574" lon="2.17792">
        <ele>1233.4</ele>
        <time>2024-09-25T15:10:54Z</time>
      </trkpt>
      <trkpt lat="42.36574" lon="2.17791">
        <ele>1233.4</ele>
        <time>2024-09-25T15:10:55Z</time>
      </trkpt>
      <trkpt lat="42.36574" lon="2.17791">
        <ele>1233.3</ele>
        <time>2024-09-25T15:10:56Z</time>
      </trkpt>
      <trkpt lat="42.36574" lon="2.1779">
        <ele>1233.3</ele>
        <time>2024-09-25T15:10:57Z</time>
      </trkpt>
      <trkpt lat="42.36574" lon="2.17789">
        <ele>1233.2</ele>
        <time>2024-09-25T15:10:58Z</time>
      </trkpt>
      <trkpt lat="42.36574" lon="2.17789">
        <ele>1233.2</ele>
        <time>2024-09-25T15:10:59Z</time>
      </trkpt>
      <trkpt lat="42.36574" lon="2.17788">
        <ele>1233.1</ele>
        <time>2024-09-25T15:11:00Z</time>
      </trkpt>
      <trkpt lat="42.36573" lon="2.17787">
        <ele>1233</ele>
        <time>2024-09-25T15:11:01Z</time>
      </trkpt>
      <trkpt lat="42.36573" lon="2.17786">
        <ele>1232.9</ele>
        <time>2024-09-25T15:11:02Z</time>
      </trkpt>
      <trkpt lat="42.36572" lon="2.17786">
        <ele>1232.8</ele>
        <time>2024-09-25T15:11:03Z</time>
      </trkpt>
      <trkpt lat="42.36572" lon="2.17785">
        <ele>1232.7</ele>
        <time>2024-09-25T15:11:04Z</time>
      </trkpt>
      <trkpt lat="42.36571" lon="2.17784">
        <ele>1232.6</ele>
        <time>2024-09-25T15:11:05Z</time>
      </trkpt>
      <trkpt lat="42.36571" lon="2.17783">
        <ele>1232.5</ele>
        <time>2024-09-25T15:11:06Z</time>
      </trkpt>
      <trkpt lat="42.3657" lon="2.17781">
        <ele>1232.3</ele>
        <time>2024-09-25T15:11:07Z</time>
      </trkpt>
      <trkpt lat="42.3657" lon="2.1778">
        <ele>1232.2</ele>
        <time>2024-09-25T15:11:08Z</time>
      </trkpt>
      <trkpt lat="42.3657" lon="2.17778">
        <ele>1232.1</ele>
        <time>2024-09-25T15:11:09Z</time>
      </trkpt>
      <trkpt lat="42.36569" lon="2.17777">
        <ele>1231.9</ele>
        <time>2024-09-25T15:11:10Z</time>
      </trkpt>
      <trkpt lat="42.36568" lon="2.17775">
        <ele>1231.7</ele>
        <time>2024-09-25T15:11:11Z</time>
      </trkpt>
      <trkpt lat="42.36567" lon="2.17772">
        <ele>1231.5</ele>
        <time>2024-09-25T15:11:12Z</time>
      </trkpt>
      <trkpt lat="42.36568" lon="2.17772">
        <ele>1231.5</ele>
        <time>2024-09-25T15:11:13Z</time>
      </trkpt>
      <trkpt lat="42.36568" lon="2.17771">
        <ele>1231.4</ele>
        <time>2024-09-25T15:11:14Z</time>
      </trkpt>
      <trkpt lat="42.36568" lon="2.17771">
        <ele>1231.4</ele>
        <time>2024-09-25T15:11:15Z</time>
      </trkpt>
      <trkpt lat="42.36568" lon="2.1777">
        <ele>1231.3</ele>
        <time>2024-09-25T15:11:16Z</time>
      </trkpt>
      <trkpt lat="42.36568" lon="2.17768">
        <ele>1231.2</ele>
        <time>2024-09-25T15:11:17Z</time>
      </trkpt>
      <trkpt lat="42.36567" lon="2.17766">
        <ele>1231</ele>
        <time>2024-09-25T15:11:18Z</time>
      </trkpt>
      <trkpt lat="42.36566" lon="2.17764">
        <ele>1230.8</ele>
        <time>2024-09-25T15:11:19Z</time>
      </trkpt>
      <trkpt lat="42.36566" lon="2.17763">
        <ele>1230.7</ele>
        <time>2024-09-25T15:11:20Z</time>
      </trkpt>
      <trkpt lat="42.36566" lon="2.17762">
        <ele>1230.7</ele>
        <time>2024-09-25T15:11:21Z</time>
      </trkpt>
      <trkpt lat="42.36566" lon="2.17761">
        <ele>1230.6</ele>
        <time>2024-09-25T15:11:22Z</time>
      </trkpt>
      <trkpt lat="42.36565" lon="2.1776">
        <ele>1230.5</ele>
        <time>2024-09-25T15:11:23Z</time>
      </trkpt>
      <trkpt lat="42.36565" lon="2.17759">
        <ele>1230.4</ele>
        <time>2024-09-25T15:11:24Z</time>
      </trkpt>
      <trkpt lat="42.36565" lon="2.17758">
        <ele>1230.3</ele>
        <time>2024-09-25T15:11:25Z</time>
      </trkpt>
      <trkpt lat="42.36564" lon="2.17757">
        <ele>1230.2</ele>
        <time>2024-09-25T15:11:26Z</time>
      </trkpt>
      <trkpt lat="42.36564" lon="2.17757">
        <ele>1230.1</ele>
        <time>2024-09-25T15:11:27Z</time>
      </trkpt>
      <trkpt lat="42.36564" lon="2.17756">
        <ele>1230.1</ele>
        <time>2024-09-25T15:11:28Z</time>
      </trkpt>
      <trkpt lat="42.36564" lon="2.17754">
        <ele>1230</ele>
        <time>2024-09-25T15:11:29Z</time>
      </trkpt>
      <trkpt lat="42.36563" lon="2.17753">
        <ele>1229.9</ele>
        <time>2024-09-25T15:11:30Z</time>
      </trkpt>
      <trkpt lat="42.36563" lon="2.17752">
        <ele>1229.8</ele>
        <time>2024-09-25T15:11:31Z</time>
      </trkpt>
      <trkpt lat="42.36563" lon="2.17752">
        <ele>1229.8</ele>
        <time>2024-09-25T15:11:32Z</time>
      </trkpt>
      <trkpt lat="42.36562" lon="2.17752">
        <ele>1229.7</ele>
        <time>2024-09-25T15:11:33Z</time>
      </trkpt>
      <trkpt lat="42.36562" lon="2.17752">
        <ele>1229.6</ele>
        <time>2024-09-25T15:11:34Z</time>
      </trkpt>
      <trkpt lat="42.36563" lon="2.1775">
        <ele>1229.5</ele>
        <time>2024-09-25T15:11:35Z</time>
      </trkpt>
      <trkpt lat="42.36563" lon="2.1775">
        <ele>1229.5</ele>
        <time>2024-09-25T15:11:36Z</time>
      </trkpt>
      <trkpt lat="42.36563" lon="2.17749">
        <ele>1229.4</ele>
        <time>2024-09-25T15:11:37Z</time>
      </trkpt>
      <trkpt lat="42.36563" lon="2.17748">
        <ele>1229.4</ele>
        <time>2024-09-25T15:11:38Z</time>
      </trkpt>
      <trkpt lat="42.36564" lon="2.17748">
        <ele>1229.3</ele>
        <time>2024-09-25T15:11:39Z</time>
      </trkpt>
      <trkpt lat="42.36564" lon="2.17747">
        <ele>1229.2</ele>
        <time>2024-09-25T15:11:40Z</time>
      </trkpt>
      <trkpt lat="42.36564" lon="2.17745">
        <ele>1229.1</ele>
        <time>2024-09-25T15:11:41Z</time>
      </trkpt>
      <trkpt lat="42.36564" lon="2.17744">
        <ele>1229</ele>
        <time>2024-09-25T15:11:42Z</time>
      </trkpt>
      <trkpt lat="42.36565" lon="2.17743">
        <ele>1228.9</ele>
        <time>2024-09-25T15:11:43Z</time>
      </trkpt>
      <trkpt lat="42.36565" lon="2.17742">
        <ele>1228.9</ele>
        <time>2024-09-25T15:11:44Z</time>
      </trkpt>
      <trkpt lat="42.36565" lon="2.17741">
        <ele>1228.8</ele>
        <time>2024-09-25T15:11:45Z</time>
      </trkpt>
      <trkpt lat="42.36565" lon="2.17741">
        <ele>1228.8</ele>
        <time>2024-09-25T15:11:46Z</time>
      </trkpt>
      <trkpt lat="42.36565" lon="2.17739">
        <ele>1228.7</ele>
        <time>2024-09-25T15:11:47Z</time>
      </trkpt>
      <trkpt lat="42.36565" lon="2.17738">
        <ele>1228.6</ele>
        <time>2024-09-25T15:11:48Z</time>
      </trkpt>
      <trkpt lat="42.36565" lon="2.17737">
        <ele>1228.5</ele>
        <time>2024-09-25T15:11:49Z</time>
      </trkpt>
      <trkpt lat="42.36564" lon="2.17736">
        <ele>1228.4</ele>
        <time>2024-09-25T15:11:50Z</time>
      </trkpt>
      <trkpt lat="42.36564" lon="2.17735">
        <ele>1228.4</ele>
        <time>2024-09-25T15:11:51Z</time>
      </trkpt>
      <trkpt lat="42.36564" lon="2.17734">
        <ele>1228.3</ele>
        <time>2024-09-25T15:11:52Z</time>
      </trkpt>
      <trkpt lat="42.36564" lon="2.17734">
        <ele>1228.2</ele>
        <time>2024-09-25T15:11:53Z</time>
      </trkpt>
      <trkpt lat="42.36564" lon="2.17733">
        <ele>1228.1</ele>
        <time>2024-09-25T15:11:54Z</time>
      </trkpt>
      <trkpt lat="42.36564" lon="2.17732">
        <ele>1228</ele>
        <time>2024-09-25T15:11:55Z</time>
      </trkpt>
      <trkpt lat="42.36564" lon="2.17731">
        <ele>1227.9</ele>
        <time>2024-09-25T15:11:56Z</time>
      </trkpt>
      <trkpt lat="42.36564" lon="2.17729">
        <ele>1227.8</ele>
        <time>2024-09-25T15:11:57Z</time>
      </trkpt>
      <trkpt lat="42.36564" lon="2.17729">
        <ele>1227.8</ele>
        <time>2024-09-25T15:11:58Z</time>
      </trkpt>
      <trkpt lat="42.36564" lon="2.17729">
        <ele>1227.7</ele>
        <time>2024-09-25T15:11:59Z</time>
      </trkpt>
      <trkpt lat="42.36564" lon="2.17729">
        <ele>1227.7</ele>
        <time>2024-09-25T15:12:00Z</time>
      </trkpt>
      <trkpt lat="42.36563" lon="2.17728">
        <ele>1227.7</ele>
        <time>2024-09-25T15:12:01Z</time>
      </trkpt>
      <trkpt lat="42.36563" lon="2.17727">
        <ele>1227.6</ele>
        <time>2024-09-25T15:12:02Z</time>
      </trkpt>
      <trkpt lat="42.36563" lon="2.17727">
        <ele>1227.5</ele>
        <time>2024-09-25T15:12:03Z</time>
      </trkpt>
      <trkpt lat="42.36563" lon="2.17726">
        <ele>1227.5</ele>
        <time>2024-09-25T15:12:04Z</time>
      </trkpt>
      <trkpt lat="42.36564" lon="2.17724">
        <ele>1227.3</ele>
        <time>2024-09-25T15:12:05Z</time>
      </trkpt>
      <trkpt lat="42.36563" lon="2.17723">
        <ele>1227.2</ele>
        <time>2024-09-25T15:12:06Z</time>
      </trkpt>
      <trkpt lat="42.36564" lon="2.17722">
        <ele>1227.1</ele>
        <time>2024-09-25T15:12:07Z</time>
      </trkpt>
      <trkpt lat="42.36563" lon="2.1772">
        <ele>1227</ele>
        <time>2024-09-25T15:12:08Z</time>
      </trkpt>
      <trkpt lat="42.36563" lon="2.1772">
        <ele>1226.9</ele>
        <time>2024-09-25T15:12:09Z</time>
      </trkpt>
      <trkpt lat="42.36563" lon="2.17719">
        <ele>1226.9</ele>
        <time>2024-09-25T15:12:10Z</time>
      </trkpt>
      <trkpt lat="42.36562" lon="2.17719">
        <ele>1226.8</ele>
        <time>2024-09-25T15:12:11Z</time>
      </trkpt>
      <trkpt lat="42.36562" lon="2.17717">
        <ele>1226.6</ele>
        <time>2024-09-25T15:12:12Z</time>
      </trkpt>
      <trkpt lat="42.36562" lon="2.17716">
        <ele>1226.5</ele>
        <time>2024-09-25T15:12:13Z</time>
      </trkpt>
      <trkpt lat="42.36561" lon="2.17714">
        <ele>1226.3</ele>
        <time>2024-09-25T15:12:14Z</time>
      </trkpt>
      <trkpt lat="42.3656" lon="2.17712">
        <ele>1226.1</ele>
        <time>2024-09-25T15:12:15Z</time>
      </trkpt>
      <trkpt lat="42.3656" lon="2.17711">
        <ele>1226</ele>
        <time>2024-09-25T15:12:16Z</time>
      </trkpt>
      <trkpt lat="42.3656" lon="2.17708">
        <ele>1225.7</ele>
        <time>2024-09-25T15:12:17Z</time>
      </trkpt>
      <trkpt lat="42.3656" lon="2.17707">
        <ele>1225.6</ele>
        <time>2024-09-25T15:12:18Z</time>
      </trkpt>
      <trkpt lat="42.36561" lon="2.17707">
        <ele>1225.5</ele>
        <time>2024-09-25T15:12:19Z</time>
      </trkpt>
      <trkpt lat="42.36561" lon="2.17707">
        <ele>1225.5</ele>
        <time>2024-09-25T15:12:20Z</time>
      </trkpt>
      <trkpt lat="42.36561" lon="2.17707">
        <ele>1225.5</ele>
        <time>2024-09-25T15:12:21Z</time>
      </trkpt>
      <trkpt lat="42.36561" lon="2.17707">
        <ele>1225.5</ele>
        <time>2024-09-25T15:12:22Z</time>
      </trkpt>
      <trkpt lat="42.36561" lon="2.17707">
        <ele>1225.4</ele>
        <time>2024-09-25T15:12:23Z</time>
      </trkpt>
      <trkpt lat="42.36561" lon="2.17707">
        <ele>1225.4</ele>
        <time>2024-09-25T15:12:24Z</time>
      </trkpt>
      <trkpt lat="42.36561" lon="2.17707">
        <ele>1225.4</ele>
        <time>2024-09-25T15:12:25Z</time>
      </trkpt>
      <trkpt lat="42.36561" lon="2.17707">
        <ele>1225.4</ele>
        <time>2024-09-25T15:12:26Z</time>
      </trkpt>
      <trkpt lat="42.36562" lon="2.17707">
        <ele>1225.4</ele>
        <time>2024-09-25T15:12:27Z</time>
      </trkpt>
      <trkpt lat="42.36562" lon="2.17707">
        <ele>1225.4</ele>
        <time>2024-09-25T15:12:28Z</time>
      </trkpt>
      <trkpt lat="42.36562" lon="2.17707">
        <ele>1225.4</ele>
        <time>2024-09-25T15:12:29Z</time>
      </trkpt>
      <trkpt lat="42.36562" lon="2.17707">
        <ele>1225.4</ele>
        <time>2024-09-25T15:12:30Z</time>
      </trkpt>
      <trkpt lat="42.36562" lon="2.17707">
        <ele>1225.4</ele>
        <time>2024-09-25T15:12:31Z</time>
      </trkpt>
      <trkpt lat="42.36562" lon="2.17707">
        <ele>1225.3</ele>
        <time>2024-09-25T15:12:32Z</time>
      </trkpt>
      <trkpt lat="42.36562" lon="2.17707">
        <ele>1225.3</ele>
        <time>2024-09-25T15:12:33Z</time>
      </trkpt>
      <trkpt lat="42.36562" lon="2.17707">
        <ele>1225.3</ele>
        <time>2024-09-25T15:12:34Z</time>
      </trkpt>
      <trkpt lat="42.36561" lon="2.17707">
        <ele>1225.3</ele>
        <time>2024-09-25T15:12:35Z</time>
      </trkpt>
      <trkpt lat="42.36561" lon="2.17706">
        <ele>1225.2</ele>
        <time>2024-09-25T15:12:36Z</time>
      </trkpt>
      <trkpt lat="42.36561" lon="2.17705">
        <ele>1225.2</ele>
        <time>2024-09-25T15:12:37Z</time>
      </trkpt>
      <trkpt lat="42.36561" lon="2.17705">
        <ele>1225</ele>
        <time>2024-09-25T15:12:38Z</time>
      </trkpt>
      <trkpt lat="42.3656" lon="2.17704">
        <ele>1224.9</ele>
        <time>2024-09-25T15:12:39Z</time>
      </trkpt>
      <trkpt lat="42.3656" lon="2.17703">
        <ele>1224.8</ele>
        <time>2024-09-25T15:12:40Z</time>
      </trkpt>
      <trkpt lat="42.3656" lon="2.17701">
        <ele>1224.7</ele>
        <time>2024-09-25T15:12:41Z</time>
      </trkpt>
      <trkpt lat="42.3656" lon="2.177">
        <ele>1224.5</ele>
        <time>2024-09-25T15:12:42Z</time>
      </trkpt>
      <trkpt lat="42.36561" lon="2.17699">
        <ele>1224.4</ele>
        <time>2024-09-25T15:12:43Z</time>
      </trkpt>
      <trkpt lat="42.36561" lon="2.17698">
        <ele>1224.3</ele>
        <time>2024-09-25T15:12:44Z</time>
      </trkpt>
      <trkpt lat="42.36561" lon="2.17697">
        <ele>1224.2</ele>
        <time>2024-09-25T15:12:45Z</time>
      </trkpt>
      <trkpt lat="42.36562" lon="2.17696">
        <ele>1224.1</ele>
        <time>2024-09-25T15:12:46Z</time>
      </trkpt>
      <trkpt lat="42.36562" lon="2.17695">
        <ele>1223.9</ele>
        <time>2024-09-25T15:12:47Z</time>
      </trkpt>
      <trkpt lat="42.36562" lon="2.17694">
        <ele>1223.8</ele>
        <time>2024-09-25T15:12:48Z</time>
      </trkpt>
      <trkpt lat="42.36562" lon="2.17693">
        <ele>1223.7</ele>
        <time>2024-09-25T15:12:49Z</time>
      </trkpt>
      <trkpt lat="42.36561" lon="2.17693">
        <ele>1223.7</ele>
        <time>2024-09-25T15:12:50Z</time>
      </trkpt>
      <trkpt lat="42.36561" lon="2.17693">
        <ele>1223.6</ele>
        <time>2024-09-25T15:12:51Z</time>
      </trkpt>
      <trkpt lat="42.3656" lon="2.17692">
        <ele>1223.4</ele>
        <time>2024-09-25T15:12:52Z</time>
      </trkpt>
      <trkpt lat="42.36559" lon="2.17692">
        <ele>1223.3</ele>
        <time>2024-09-25T15:12:53Z</time>
      </trkpt>
      <trkpt lat="42.36558" lon="2.17691">
        <ele>1223.1</ele>
        <time>2024-09-25T15:12:54Z</time>
      </trkpt>
      <trkpt lat="42.36558" lon="2.17691">
        <ele>1223</ele>
        <time>2024-09-25T15:12:55Z</time>
      </trkpt>
      <trkpt lat="42.36558" lon="2.1769">
        <ele>1223</ele>
        <time>2024-09-25T15:12:56Z</time>
      </trkpt>
      <trkpt lat="42.36558" lon="2.17689">
        <ele>1222.9</ele>
        <time>2024-09-25T15:12:57Z</time>
      </trkpt>
      <trkpt lat="42.36557" lon="2.17689">
        <ele>1222.8</ele>
        <time>2024-09-25T15:12:58Z</time>
      </trkpt>
      <trkpt lat="42.36557" lon="2.17688">
        <ele>1222.7</ele>
        <time>2024-09-25T15:12:59Z</time>
      </trkpt>
      <trkpt lat="42.36557" lon="2.17687">
        <ele>1222.7</ele>
        <time>2024-09-25T15:13:00Z</time>
      </trkpt>
      <trkpt lat="42.36556" lon="2.17687">
        <ele>1222.6</ele>
        <time>2024-09-25T15:13:01Z</time>
      </trkpt>
      <trkpt lat="42.36556" lon="2.17686">
        <ele>1222.5</ele>
        <time>2024-09-25T15:13:02Z</time>
      </trkpt>
      <trkpt lat="42.36556" lon="2.17686">
        <ele>1222.4</ele>
        <time>2024-09-25T15:13:03Z</time>
      </trkpt>
      <trkpt lat="42.36556" lon="2.17686">
        <ele>1222.4</ele>
        <time>2024-09-25T15:13:04Z</time>
      </trkpt>
      <trkpt lat="42.36556" lon="2.17686">
        <ele>1222.4</ele>
        <time>2024-09-25T15:13:05Z</time>
      </trkpt>
      <trkpt lat="42.36555" lon="2.17686">
        <ele>1222.3</ele>
        <time>2024-09-25T15:13:06Z</time>
      </trkpt>
      <trkpt lat="42.36555" lon="2.17686">
        <ele>1222.3</ele>
        <time>2024-09-25T15:13:07Z</time>
      </trkpt>
      <trkpt lat="42.36555" lon="2.17686">
        <ele>1222.2</ele>
        <time>2024-09-25T15:13:08Z</time>
      </trkpt>
      <trkpt lat="42.36554" lon="2.17685">
        <ele>1222.1</ele>
        <time>2024-09-25T15:13:09Z</time>
      </trkpt>
      <trkpt lat="42.36553" lon="2.17685">
        <ele>1222</ele>
        <time>2024-09-25T15:13:10Z</time>
      </trkpt>
      <trkpt lat="42.36552" lon="2.17684">
        <ele>1221.8</ele>
        <time>2024-09-25T15:13:11Z</time>
      </trkpt>
      <trkpt lat="42.36551" lon="2.17683">
        <ele>1221.7</ele>
        <time>2024-09-25T15:13:12Z</time>
      </trkpt>
      <trkpt lat="42.36551" lon="2.17683">
        <ele>1221.6</ele>
        <time>2024-09-25T15:13:13Z</time>
      </trkpt>
      <trkpt lat="42.3655" lon="2.17682">
        <ele>1221.5</ele>
        <time>2024-09-25T15:13:14Z</time>
      </trkpt>
      <trkpt lat="42.36549" lon="2.17681">
        <ele>1221.3</ele>
        <time>2024-09-25T15:13:15Z</time>
      </trkpt>
      <trkpt lat="42.36548" lon="2.1768">
        <ele>1221.1</ele>
        <time>2024-09-25T15:13:16Z</time>
      </trkpt>
      <trkpt lat="42.36547" lon="2.17679">
        <ele>1221</ele>
        <time>2024-09-25T15:13:17Z</time>
      </trkpt>
      <trkpt lat="42.36546" lon="2.17678">
        <ele>1220.8</ele>
        <time>2024-09-25T15:13:18Z</time>
      </trkpt>
      <trkpt lat="42.36546" lon="2.17677">
        <ele>1220.7</ele>
        <time>2024-09-25T15:13:19Z</time>
      </trkpt>
      <trkpt lat="42.36545" lon="2.17674">
        <ele>1220.5</ele>
        <time>2024-09-25T15:13:20Z</time>
      </trkpt>
      <trkpt lat="42.36545" lon="2.17673">
        <ele>1220.4</ele>
        <time>2024-09-25T15:13:21Z</time>
      </trkpt>
      <trkpt lat="42.36545" lon="2.17672">
        <ele>1220.2</ele>
        <time>2024-09-25T15:13:22Z</time>
      </trkpt>
      <trkpt lat="42.36544" lon="2.1767">
        <ele>1220.1</ele>
        <time>2024-09-25T15:13:23Z</time>
      </trkpt>
      <trkpt lat="42.36544" lon="2.17669">
        <ele>1220</ele>
        <time>2024-09-25T15:13:24Z</time>
      </trkpt>
      <trkpt lat="42.36544" lon="2.17668">
        <ele>1219.9</ele>
        <time>2024-09-25T15:13:25Z</time>
      </trkpt>
      <trkpt lat="42.36544" lon="2.17666">
        <ele>1219.7</ele>
        <time>2024-09-25T15:13:26Z</time>
      </trkpt>
      <trkpt lat="42.36543" lon="2.17666">
        <ele>1219.7</ele>
        <time>2024-09-25T15:13:27Z</time>
      </trkpt>
      <trkpt lat="42.36543" lon="2.17665">
        <ele>1219.6</ele>
        <time>2024-09-25T15:13:28Z</time>
      </trkpt>
      <trkpt lat="42.36543" lon="2.17664">
        <ele>1219.5</ele>
        <time>2024-09-25T15:13:29Z</time>
      </trkpt>
      <trkpt lat="42.36542" lon="2.17663">
        <ele>1219.4</ele>
        <time>2024-09-25T15:13:30Z</time>
      </trkpt>
      <trkpt lat="42.36542" lon="2.17662">
        <ele>1219.3</ele>
        <time>2024-09-25T15:13:31Z</time>
      </trkpt>
      <trkpt lat="42.36542" lon="2.17661">
        <ele>1219.2</ele>
        <time>2024-09-25T15:13:32Z</time>
      </trkpt>
      <trkpt lat="42.36541" lon="2.17661">
        <ele>1219.1</ele>
        <time>2024-09-25T15:13:33Z</time>
      </trkpt>
      <trkpt lat="42.36541" lon="2.17659">
        <ele>1219</ele>
        <time>2024-09-25T15:13:34Z</time>
      </trkpt>
      <trkpt lat="42.36542" lon="2.17657">
        <ele>1218.8</ele>
        <time>2024-09-25T15:13:35Z</time>
      </trkpt>
      <trkpt lat="42.36541" lon="2.17654">
        <ele>1218.5</ele>
        <time>2024-09-25T15:13:36Z</time>
      </trkpt>
      <trkpt lat="42.3654" lon="2.17653">
        <ele>1218.4</ele>
        <time>2024-09-25T15:13:37Z</time>
      </trkpt>
      <trkpt lat="42.36539" lon="2.17653">
        <ele>1218.2</ele>
        <time>2024-09-25T15:13:38Z</time>
      </trkpt>
      <trkpt lat="42.36538" lon="2.17651">
        <ele>1218</ele>
        <time>2024-09-25T15:13:39Z</time>
      </trkpt>
      <trkpt lat="42.36537" lon="2.1765">
        <ele>1217.8</ele>
        <time>2024-09-25T15:13:40Z</time>
      </trkpt>
      <trkpt lat="42.36536" lon="2.1765">
        <ele>1217.7</ele>
        <time>2024-09-25T15:13:41Z</time>
      </trkpt>
      <trkpt lat="42.36535" lon="2.17649">
        <ele>1217.6</ele>
        <time>2024-09-25T15:13:42Z</time>
      </trkpt>
      <trkpt lat="42.36534" lon="2.17649">
        <ele>1217.4</ele>
        <time>2024-09-25T15:13:43Z</time>
      </trkpt>
      <trkpt lat="42.36534" lon="2.17648">
        <ele>1217.4</ele>
        <time>2024-09-25T15:13:44Z</time>
      </trkpt>
      <trkpt lat="42.36534" lon="2.17647">
        <ele>1217.2</ele>
        <time>2024-09-25T15:13:45Z</time>
      </trkpt>
      <trkpt lat="42.36534" lon="2.17646">
        <ele>1217.1</ele>
        <time>2024-09-25T15:13:46Z</time>
      </trkpt>
      <trkpt lat="42.36533" lon="2.17645">
        <ele>1217</ele>
        <time>2024-09-25T15:13:47Z</time>
      </trkpt>
      <trkpt lat="42.36533" lon="2.17644">
        <ele>1216.8</ele>
        <time>2024-09-25T15:13:48Z</time>
      </trkpt>
      <trkpt lat="42.36533" lon="2.17644">
        <ele>1216.8</ele>
        <time>2024-09-25T15:13:49Z</time>
      </trkpt>
      <trkpt lat="42.36532" lon="2.17642">
        <ele>1216.6</ele>
        <time>2024-09-25T15:13:50Z</time>
      </trkpt>
      <trkpt lat="42.36532" lon="2.17641">
        <ele>1216.4</ele>
        <time>2024-09-25T15:13:51Z</time>
      </trkpt>
      <trkpt lat="42.36531" lon="2.1764">
        <ele>1216.3</ele>
        <time>2024-09-25T15:13:52Z</time>
      </trkpt>
      <trkpt lat="42.36531" lon="2.17639">
        <ele>1216.2</ele>
        <time>2024-09-25T15:13:53Z</time>
      </trkpt>
      <trkpt lat="42.3653" lon="2.17637">
        <ele>1216</ele>
        <time>2024-09-25T15:13:54Z</time>
      </trkpt>
      <trkpt lat="42.3653" lon="2.17636">
        <ele>1215.9</ele>
        <time>2024-09-25T15:13:55Z</time>
      </trkpt>
      <trkpt lat="42.3653" lon="2.17635">
        <ele>1215.8</ele>
        <time>2024-09-25T15:13:56Z</time>
      </trkpt>
      <trkpt lat="42.36529" lon="2.17634">
        <ele>1215.7</ele>
        <time>2024-09-25T15:13:57Z</time>
      </trkpt>
      <trkpt lat="42.36528" lon="2.17633">
        <ele>1215.5</ele>
        <time>2024-09-25T15:13:58Z</time>
      </trkpt>
      <trkpt lat="42.36527" lon="2.17632">
        <ele>1215.3</ele>
        <time>2024-09-25T15:13:59Z</time>
      </trkpt>
      <trkpt lat="42.36527" lon="2.17632">
        <ele>1215.2</ele>
        <time>2024-09-25T15:14:00Z</time>
      </trkpt>
      <trkpt lat="42.36526" lon="2.17631">
        <ele>1215.1</ele>
        <time>2024-09-25T15:14:01Z</time>
      </trkpt>
      <trkpt lat="42.36525" lon="2.17631">
        <ele>1214.9</ele>
        <time>2024-09-25T15:14:02Z</time>
      </trkpt>
      <trkpt lat="42.36524" lon="2.1763">
        <ele>1214.8</ele>
        <time>2024-09-25T15:14:03Z</time>
      </trkpt>
      <trkpt lat="42.36524" lon="2.1763">
        <ele>1214.8</ele>
        <time>2024-09-25T15:14:04Z</time>
      </trkpt>
      <trkpt lat="42.36524" lon="2.1763">
        <ele>1214.7</ele>
        <time>2024-09-25T15:14:05Z</time>
      </trkpt>
      <trkpt lat="42.36525" lon="2.1763">
        <ele>1214.7</ele>
        <time>2024-09-25T15:14:06Z</time>
      </trkpt>
      <trkpt lat="42.36524" lon="2.1763">
        <ele>1214.6</ele>
        <time>2024-09-25T15:14:07Z</time>
      </trkpt>
      <trkpt lat="42.36524" lon="2.1763">
        <ele>1214.6</ele>
        <time>2024-09-25T15:14:08Z</time>
      </trkpt>
      <trkpt lat="42.36524" lon="2.1763">
        <ele>1214.5</ele>
        <time>2024-09-25T15:14:09Z</time>
      </trkpt>
      <trkpt lat="42.36523" lon="2.17629">
        <ele>1214.4</ele>
        <time>2024-09-25T15:14:10Z</time>
      </trkpt>
      <trkpt lat="42.36523" lon="2.17629">
        <ele>1214.3</ele>
        <time>2024-09-25T15:14:11Z</time>
      </trkpt>
      <trkpt lat="42.36522" lon="2.17628">
        <ele>1214.2</ele>
        <time>2024-09-25T15:14:12Z</time>
      </trkpt>
      <trkpt lat="42.36522" lon="2.17627">
        <ele>1214.1</ele>
        <time>2024-09-25T15:14:13Z</time>
      </trkpt>
      <trkpt lat="42.36522" lon="2.17627">
        <ele>1214.1</ele>
        <time>2024-09-25T15:14:14Z</time>
      </trkpt>
      <trkpt lat="42.36521" lon="2.17626">
        <ele>1213.9</ele>
        <time>2024-09-25T15:14:15Z</time>
      </trkpt>
      <trkpt lat="42.36521" lon="2.17625">
        <ele>1213.8</ele>
        <time>2024-09-25T15:14:16Z</time>
      </trkpt>
      <trkpt lat="42.36521" lon="2.17624">
        <ele>1213.6</ele>
        <time>2024-09-25T15:14:17Z</time>
      </trkpt>
      <trkpt lat="42.3652" lon="2.17623">
        <ele>1213.5</ele>
        <time>2024-09-25T15:14:18Z</time>
      </trkpt>
      <trkpt lat="42.3652" lon="2.17623">
        <ele>1213.5</ele>
        <time>2024-09-25T15:14:19Z</time>
      </trkpt>
      <trkpt lat="42.3652" lon="2.17623">
        <ele>1213.4</ele>
        <time>2024-09-25T15:14:20Z</time>
      </trkpt>
      <trkpt lat="42.36519" lon="2.17622">
        <ele>1213.3</ele>
        <time>2024-09-25T15:14:21Z</time>
      </trkpt>
      <trkpt lat="42.36519" lon="2.17621">
        <ele>1213.1</ele>
        <time>2024-09-25T15:14:22Z</time>
      </trkpt>
      <trkpt lat="42.36519" lon="2.17619">
        <ele>1212.9</ele>
        <time>2024-09-25T15:14:23Z</time>
      </trkpt>
      <trkpt lat="42.36519" lon="2.17618">
        <ele>1212.7</ele>
        <time>2024-09-25T15:14:24Z</time>
      </trkpt>
      <trkpt lat="42.36519" lon="2.17617">
        <ele>1212.6</ele>
        <time>2024-09-25T15:14:25Z</time>
      </trkpt>
      <trkpt lat="42.36519" lon="2.17616">
        <ele>1212.5</ele>
        <time>2024-09-25T15:14:26Z</time>
      </trkpt>
      <trkpt lat="42.36518" lon="2.17615">
        <ele>1212.3</ele>
        <time>2024-09-25T15:14:27Z</time>
      </trkpt>
      <trkpt lat="42.36518" lon="2.17613">
        <ele>1212.1</ele>
        <time>2024-09-25T15:14:28Z</time>
      </trkpt>
      <trkpt lat="42.36518" lon="2.17613">
        <ele>1212</ele>
        <time>2024-09-25T15:14:29Z</time>
      </trkpt>
      <trkpt lat="42.36518" lon="2.17613">
        <ele>1212</ele>
        <time>2024-09-25T15:14:30Z</time>
      </trkpt>
      <trkpt lat="42.36518" lon="2.17612">
        <ele>1211.9</ele>
        <time>2024-09-25T15:14:31Z</time>
      </trkpt>
      <trkpt lat="42.36517" lon="2.17611">
        <ele>1211.7</ele>
        <time>2024-09-25T15:14:32Z</time>
      </trkpt>
      <trkpt lat="42.36516" lon="2.1761">
        <ele>1211.5</ele>
        <time>2024-09-25T15:14:33Z</time>
      </trkpt>
      <trkpt lat="42.36516" lon="2.1761">
        <ele>1211.4</ele>
        <time>2024-09-25T15:14:34Z</time>
      </trkpt>
      <trkpt lat="42.36515" lon="2.17609">
        <ele>1211.3</ele>
        <time>2024-09-25T15:14:35Z</time>
      </trkpt>
      <trkpt lat="42.36515" lon="2.17609">
        <ele>1211.2</ele>
        <time>2024-09-25T15:14:36Z</time>
      </trkpt>
      <trkpt lat="42.36514" lon="2.17609">
        <ele>1211</ele>
        <time>2024-09-25T15:14:37Z</time>
      </trkpt>
      <trkpt lat="42.36514" lon="2.1761">
        <ele>1211</ele>
        <time>2024-09-25T15:14:38Z</time>
      </trkpt>
      <trkpt lat="42.36514" lon="2.17609">
        <ele>1210.9</ele>
        <time>2024-09-25T15:14:39Z</time>
      </trkpt>
      <trkpt lat="42.36514" lon="2.17609">
        <ele>1210.8</ele>
        <time>2024-09-25T15:14:40Z</time>
      </trkpt>
      <trkpt lat="42.36514" lon="2.17608">
        <ele>1210.7</ele>
        <time>2024-09-25T15:14:41Z</time>
      </trkpt>
      <trkpt lat="42.36513" lon="2.17607">
        <ele>1210.6</ele>
        <time>2024-09-25T15:14:42Z</time>
      </trkpt>
      <trkpt lat="42.36512" lon="2.17607">
        <ele>1210.4</ele>
        <time>2024-09-25T15:14:43Z</time>
      </trkpt>
      <trkpt lat="42.36512" lon="2.17606">
        <ele>1210.3</ele>
        <time>2024-09-25T15:14:44Z</time>
      </trkpt>
      <trkpt lat="42.36511" lon="2.17606">
        <ele>1210.2</ele>
        <time>2024-09-25T15:14:45Z</time>
      </trkpt>
      <trkpt lat="42.3651" lon="2.17605">
        <ele>1210</ele>
        <time>2024-09-25T15:14:46Z</time>
      </trkpt>
      <trkpt lat="42.3651" lon="2.17604">
        <ele>1209.8</ele>
        <time>2024-09-25T15:14:47Z</time>
      </trkpt>
      <trkpt lat="42.36509" lon="2.17603">
        <ele>1209.7</ele>
        <time>2024-09-25T15:14:48Z</time>
      </trkpt>
      <trkpt lat="42.36509" lon="2.17603">
        <ele>1209.6</ele>
        <time>2024-09-25T15:14:49Z</time>
      </trkpt>
      <trkpt lat="42.36509" lon="2.17603">
        <ele>1209.5</ele>
        <time>2024-09-25T15:14:50Z</time>
      </trkpt>
      <trkpt lat="42.36508" lon="2.17603">
        <ele>1209.4</ele>
        <time>2024-09-25T15:14:51Z</time>
      </trkpt>
      <trkpt lat="42.36507" lon="2.17602">
        <ele>1209.2</ele>
        <time>2024-09-25T15:14:52Z</time>
      </trkpt>
      <trkpt lat="42.36506" lon="2.176">
        <ele>1208.9</ele>
        <time>2024-09-25T15:14:53Z</time>
      </trkpt>
      <trkpt lat="42.36505" lon="2.17599">
        <ele>1208.7</ele>
        <time>2024-09-25T15:14:54Z</time>
      </trkpt>
      <trkpt lat="42.36505" lon="2.17598">
        <ele>1208.6</ele>
        <time>2024-09-25T15:14:55Z</time>
      </trkpt>
      <trkpt lat="42.36504" lon="2.17596">
        <ele>1208.3</ele>
        <time>2024-09-25T15:14:56Z</time>
      </trkpt>
      <trkpt lat="42.36503" lon="2.17596">
        <ele>1208.2</ele>
        <time>2024-09-25T15:14:57Z</time>
      </trkpt>
      <trkpt lat="42.36502" lon="2.17596">
        <ele>1208</ele>
        <time>2024-09-25T15:14:58Z</time>
      </trkpt>
      <trkpt lat="42.36502" lon="2.17595">
        <ele>1208</ele>
        <time>2024-09-25T15:14:59Z</time>
      </trkpt>
      <trkpt lat="42.36502" lon="2.17595">
        <ele>1207.9</ele>
        <time>2024-09-25T15:15:00Z</time>
      </trkpt>
      <trkpt lat="42.36502" lon="2.17594">
        <ele>1207.8</ele>
        <time>2024-09-25T15:15:01Z</time>
      </trkpt>
      <trkpt lat="42.36503" lon="2.17593">
        <ele>1207.7</ele>
        <time>2024-09-25T15:15:02Z</time>
      </trkpt>
      <trkpt lat="42.36503" lon="2.17593">
        <ele>1207.6</ele>
        <time>2024-09-25T15:15:03Z</time>
      </trkpt>
      <trkpt lat="42.36503" lon="2.17593">
        <ele>1207.6</ele>
        <time>2024-09-25T15:15:04Z</time>
      </trkpt>
      <trkpt lat="42.36503" lon="2.17593">
        <ele>1207.6</ele>
        <time>2024-09-25T15:15:05Z</time>
      </trkpt>
      <trkpt lat="42.36503" lon="2.17592">
        <ele>1207.6</ele>
        <time>2024-09-25T15:15:06Z</time>
      </trkpt>
      <trkpt lat="42.36503" lon="2.17592">
        <ele>1207.5</ele>
        <time>2024-09-25T15:15:07Z</time>
      </trkpt>
      <trkpt lat="42.36503" lon="2.17591">
        <ele>1207.5</ele>
        <time>2024-09-25T15:15:08Z</time>
      </trkpt>
      <trkpt lat="42.36503" lon="2.17591">
        <ele>1207.4</ele>
        <time>2024-09-25T15:15:09Z</time>
      </trkpt>
      <trkpt lat="42.36503" lon="2.17588">
        <ele>1207.1</ele>
        <time>2024-09-25T15:15:10Z</time>
      </trkpt>
      <trkpt lat="42.36502" lon="2.17586">
        <ele>1206.9</ele>
        <time>2024-09-25T15:15:11Z</time>
      </trkpt>
      <trkpt lat="42.36502" lon="2.17585">
        <ele>1206.7</ele>
        <time>2024-09-25T15:15:12Z</time>
      </trkpt>
      <trkpt lat="42.36501" lon="2.17583">
        <ele>1206.6</ele>
        <time>2024-09-25T15:15:13Z</time>
      </trkpt>
      <trkpt lat="42.365" lon="2.17583">
        <ele>1206.5</ele>
        <time>2024-09-25T15:15:14Z</time>
      </trkpt>
      <trkpt lat="42.36499" lon="2.17581">
        <ele>1206.2</ele>
        <time>2024-09-25T15:15:15Z</time>
      </trkpt>
      <trkpt lat="42.36498" lon="2.1758">
        <ele>1206</ele>
        <time>2024-09-25T15:15:16Z</time>
      </trkpt>
      <trkpt lat="42.36497" lon="2.1758">
        <ele>1205.9</ele>
        <time>2024-09-25T15:15:17Z</time>
      </trkpt>
      <trkpt lat="42.36497" lon="2.17579">
        <ele>1205.8</ele>
        <time>2024-09-25T15:15:18Z</time>
      </trkpt>
      <trkpt lat="42.36496" lon="2.17579">
        <ele>1205.8</ele>
        <time>2024-09-25T15:15:19Z</time>
      </trkpt>
      <trkpt lat="42.36496" lon="2.1758">
        <ele>1205.7</ele>
        <time>2024-09-25T15:15:20Z</time>
      </trkpt>
      <trkpt lat="42.36495" lon="2.1758">
        <ele>1205.6</ele>
        <time>2024-09-25T15:15:21Z</time>
      </trkpt>
      <trkpt lat="42.36495" lon="2.1758">
        <ele>1205.6</ele>
        <time>2024-09-25T15:15:22Z</time>
      </trkpt>
      <trkpt lat="42.36495" lon="2.1758">
        <ele>1205.5</ele>
        <time>2024-09-25T15:15:23Z</time>
      </trkpt>
      <trkpt lat="42.36494" lon="2.17579">
        <ele>1205.5</ele>
        <time>2024-09-25T15:15:24Z</time>
      </trkpt>
      <trkpt lat="42.36494" lon="2.17579">
        <ele>1205.4</ele>
        <time>2024-09-25T15:15:25Z</time>
      </trkpt>
      <trkpt lat="42.36494" lon="2.17579">
        <ele>1205.4</ele>
        <time>2024-09-25T15:15:26Z</time>
      </trkpt>
      <trkpt lat="42.36493" lon="2.17579">
        <ele>1205.3</ele>
        <time>2024-09-25T15:15:27Z</time>
      </trkpt>
      <trkpt lat="42.36493" lon="2.17579">
        <ele>1205.3</ele>
        <time>2024-09-25T15:15:28Z</time>
      </trkpt>
      <trkpt lat="42.36493" lon="2.17579">
        <ele>1205.2</ele>
        <time>2024-09-25T15:15:29Z</time>
      </trkpt>
      <trkpt lat="42.36492" lon="2.17578">
        <ele>1205.2</ele>
        <time>2024-09-25T15:15:30Z</time>
      </trkpt>
      <trkpt lat="42.36492" lon="2.17577">
        <ele>1205</ele>
        <time>2024-09-25T15:15:31Z</time>
      </trkpt>
      <trkpt lat="42.36491" lon="2.17576">
        <ele>1204.9</ele>
        <time>2024-09-25T15:15:32Z</time>
      </trkpt>
      <trkpt lat="42.36491" lon="2.17576">
        <ele>1204.8</ele>
        <time>2024-09-25T15:15:33Z</time>
      </trkpt>
      <trkpt lat="42.36491" lon="2.17576">
        <ele>1204.8</ele>
        <time>2024-09-25T15:15:34Z</time>
      </trkpt>
      <trkpt lat="42.36491" lon="2.17575">
        <ele>1204.7</ele>
        <time>2024-09-25T15:15:35Z</time>
      </trkpt>
      <trkpt lat="42.36491" lon="2.17575">
        <ele>1204.7</ele>
        <time>2024-09-25T15:15:36Z</time>
      </trkpt>
      <trkpt lat="42.36491" lon="2.17575">
        <ele>1204.7</ele>
        <time>2024-09-25T15:15:37Z</time>
      </trkpt>
      <trkpt lat="42.36491" lon="2.17575">
        <ele>1204.6</ele>
        <time>2024-09-25T15:15:38Z</time>
      </trkpt>
      <trkpt lat="42.3649" lon="2.17575">
        <ele>1204.6</ele>
        <time>2024-09-25T15:15:39Z</time>
      </trkpt>
      <trkpt lat="42.3649" lon="2.17575">
        <ele>1204.5</ele>
        <time>2024-09-25T15:15:40Z</time>
      </trkpt>
      <trkpt lat="42.36489" lon="2.17575">
        <ele>1204.4</ele>
        <time>2024-09-25T15:15:41Z</time>
      </trkpt>
      <trkpt lat="42.36489" lon="2.17575">
        <ele>1204.4</ele>
        <time>2024-09-25T15:15:42Z</time>
      </trkpt>
      <trkpt lat="42.36489" lon="2.17574">
        <ele>1204.3</ele>
        <time>2024-09-25T15:15:43Z</time>
      </trkpt>
      <trkpt lat="42.36489" lon="2.17573">
        <ele>1204.2</ele>
        <time>2024-09-25T15:15:44Z</time>
      </trkpt>
      <trkpt lat="42.36489" lon="2.17572">
        <ele>1204</ele>
        <time>2024-09-25T15:15:45Z</time>
      </trkpt>
      <trkpt lat="42.36488" lon="2.17571">
        <ele>1203.9</ele>
        <time>2024-09-25T15:15:46Z</time>
      </trkpt>
      <trkpt lat="42.36487" lon="2.17571">
        <ele>1203.8</ele>
        <time>2024-09-25T15:15:47Z</time>
      </trkpt>
      <trkpt lat="42.36487" lon="2.17571">
        <ele>1203.7</ele>
        <time>2024-09-25T15:15:48Z</time>
      </trkpt>
      <trkpt lat="42.36486" lon="2.17571">
        <ele>1203.6</ele>
        <time>2024-09-25T15:15:49Z</time>
      </trkpt>
      <trkpt lat="42.36486" lon="2.17571">
        <ele>1203.6</ele>
        <time>2024-09-25T15:15:50Z</time>
      </trkpt>
      <trkpt lat="42.36486" lon="2.1757">
        <ele>1203.5</ele>
        <time>2024-09-25T15:15:51Z</time>
      </trkpt>
      <trkpt lat="42.36485" lon="2.1757">
        <ele>1203.4</ele>
        <time>2024-09-25T15:15:52Z</time>
      </trkpt>
      <trkpt lat="42.36484" lon="2.1757">
        <ele>1203.3</ele>
        <time>2024-09-25T15:15:53Z</time>
      </trkpt>
      <trkpt lat="42.36484" lon="2.1757">
        <ele>1203.2</ele>
        <time>2024-09-25T15:15:54Z</time>
      </trkpt>
      <trkpt lat="42.36483" lon="2.17569">
        <ele>1203</ele>
        <time>2024-09-25T15:15:55Z</time>
      </trkpt>
      <trkpt lat="42.36483" lon="2.17568">
        <ele>1202.9</ele>
        <time>2024-09-25T15:15:56Z</time>
      </trkpt>
      <trkpt lat="42.36482" lon="2.17567">
        <ele>1202.8</ele>
        <time>2024-09-25T15:15:57Z</time>
      </trkpt>
      <trkpt lat="42.36482" lon="2.17566">
        <ele>1202.7</ele>
        <time>2024-09-25T15:15:58Z</time>
      </trkpt>
      <trkpt lat="42.36481" lon="2.17565">
        <ele>1202.4</ele>
        <time>2024-09-25T15:15:59Z</time>
      </trkpt>
      <trkpt lat="42.36481" lon="2.17564">
        <ele>1202.3</ele>
        <time>2024-09-25T15:16:00Z</time>
      </trkpt>
      <trkpt lat="42.36481" lon="2.17563">
        <ele>1202.3</ele>
        <time>2024-09-25T15:16:01Z</time>
      </trkpt>
      <trkpt lat="42.3648" lon="2.17563">
        <ele>1202.2</ele>
        <time>2024-09-25T15:16:02Z</time>
      </trkpt>
      <trkpt lat="42.3648" lon="2.17564">
        <ele>1202.2</ele>
        <time>2024-09-25T15:16:03Z</time>
      </trkpt>
      <trkpt lat="42.3648" lon="2.17564">
        <ele>1202.1</ele>
        <time>2024-09-25T15:16:04Z</time>
      </trkpt>
      <trkpt lat="42.36479" lon="2.17564">
        <ele>1202</ele>
        <time>2024-09-25T15:16:05Z</time>
      </trkpt>
      <trkpt lat="42.36479" lon="2.17564">
        <ele>1202</ele>
        <time>2024-09-25T15:16:06Z</time>
      </trkpt>
      <trkpt lat="42.36479" lon="2.17564">
        <ele>1202</ele>
        <time>2024-09-25T15:16:07Z</time>
      </trkpt>
      <trkpt lat="42.36478" lon="2.17564">
        <ele>1202</ele>
        <time>2024-09-25T15:16:08Z</time>
      </trkpt>
      <trkpt lat="42.36478" lon="2.17563">
        <ele>1201.9</ele>
        <time>2024-09-25T15:16:09Z</time>
      </trkpt>
      <trkpt lat="42.36476" lon="2.17562">
        <ele>1201.7</ele>
        <time>2024-09-25T15:16:10Z</time>
      </trkpt>
      <trkpt lat="42.36476" lon="2.17561">
        <ele>1201.6</ele>
        <time>2024-09-25T15:16:11Z</time>
      </trkpt>
      <trkpt lat="42.36475" lon="2.1756">
        <ele>1201.5</ele>
        <time>2024-09-25T15:16:12Z</time>
      </trkpt>
      <trkpt lat="42.36474" lon="2.17559">
        <ele>1201.3</ele>
        <time>2024-09-25T15:16:13Z</time>
      </trkpt>
      <trkpt lat="42.36472" lon="2.17558">
        <ele>1201.2</ele>
        <time>2024-09-25T15:16:14Z</time>
      </trkpt>
      <trkpt lat="42.36472" lon="2.17557">
        <ele>1201.1</ele>
        <time>2024-09-25T15:16:15Z</time>
      </trkpt>
      <trkpt lat="42.36472" lon="2.17556">
        <ele>1201.1</ele>
        <time>2024-09-25T15:16:16Z</time>
      </trkpt>
      <trkpt lat="42.36473" lon="2.17555">
        <ele>1201</ele>
        <time>2024-09-25T15:16:17Z</time>
      </trkpt>
      <trkpt lat="42.36472" lon="2.17554">
        <ele>1201</ele>
        <time>2024-09-25T15:16:18Z</time>
      </trkpt>
      <trkpt lat="42.36473" lon="2.17555">
        <ele>1200.9</ele>
        <time>2024-09-25T15:16:19Z</time>
      </trkpt>
      <trkpt lat="42.3647" lon="2.17554">
        <ele>1200.8</ele>
        <time>2024-09-25T15:16:20Z</time>
      </trkpt>
      <trkpt lat="42.36466" lon="2.17552">
        <ele>1200.8</ele>
        <time>2024-09-25T15:16:21Z</time>
      </trkpt>
      <trkpt lat="42.36465" lon="2.17551">
        <ele>1200.8</ele>
        <time>2024-09-25T15:16:22Z</time>
      </trkpt>
      <trkpt lat="42.36464" lon="2.1755">
        <ele>1200.8</ele>
        <time>2024-09-25T15:16:23Z</time>
      </trkpt>
      <trkpt lat="42.36463" lon="2.17549">
        <ele>1200.8</ele>
        <time>2024-09-25T15:16:24Z</time>
      </trkpt>
      <trkpt lat="42.36462" lon="2.17547">
        <ele>1200.8</ele>
        <time>2024-09-25T15:16:25Z</time>
      </trkpt>
      <trkpt lat="42.36461" lon="2.17546">
        <ele>1200.9</ele>
        <time>2024-09-25T15:16:26Z</time>
      </trkpt>
      <trkpt lat="42.36461" lon="2.17546">
        <ele>1200.9</ele>
        <time>2024-09-25T15:16:27Z</time>
      </trkpt>
      <trkpt lat="42.3646" lon="2.17544">
        <ele>1200.9</ele>
        <time>2024-09-25T15:16:28Z</time>
      </trkpt>
      <trkpt lat="42.36459" lon="2.17544">
        <ele>1201</ele>
        <time>2024-09-25T15:16:29Z</time>
      </trkpt>
      <trkpt lat="42.36459" lon="2.17542">
        <ele>1201</ele>
        <time>2024-09-25T15:16:30Z</time>
      </trkpt>
      <trkpt lat="42.36459" lon="2.17542">
        <ele>1201</ele>
        <time>2024-09-25T15:16:31Z</time>
      </trkpt>
      <trkpt lat="42.36459" lon="2.1754">
        <ele>1201.1</ele>
        <time>2024-09-25T15:16:32Z</time>
      </trkpt>
      <trkpt lat="42.36458" lon="2.1754">
        <ele>1201.1</ele>
        <time>2024-09-25T15:16:33Z</time>
      </trkpt>
      <trkpt lat="42.36458" lon="2.17539">
        <ele>1201.2</ele>
        <time>2024-09-25T15:16:34Z</time>
      </trkpt>
      <trkpt lat="42.36458" lon="2.1754">
        <ele>1201.2</ele>
        <time>2024-09-25T15:16:35Z</time>
      </trkpt>
      <trkpt lat="42.36458" lon="2.1754">
        <ele>1201.2</ele>
        <time>2024-09-25T15:16:36Z</time>
      </trkpt>
      <trkpt lat="42.36457" lon="2.1754">
        <ele>1201.2</ele>
        <time>2024-09-25T15:16:37Z</time>
      </trkpt>
      <trkpt lat="42.36457" lon="2.17539">
        <ele>1201.2</ele>
        <time>2024-09-25T15:16:38Z</time>
      </trkpt>
      <trkpt lat="42.36457" lon="2.17539">
        <ele>1201.3</ele>
        <time>2024-09-25T15:16:39Z</time>
      </trkpt>
      <trkpt lat="42.36457" lon="2.17539">
        <ele>1201.3</ele>
        <time>2024-09-25T15:16:40Z</time>
      </trkpt>
      <trkpt lat="42.36457" lon="2.17539">
        <ele>1201.3</ele>
        <time>2024-09-25T15:16:41Z</time>
      </trkpt>
      <trkpt lat="42.36457" lon="2.17539">
        <ele>1201.3</ele>
        <time>2024-09-25T15:16:42Z</time>
      </trkpt>
      <trkpt lat="42.36457" lon="2.17538">
        <ele>1201.3</ele>
        <time>2024-09-25T15:16:43Z</time>
      </trkpt>
      <trkpt lat="42.36457" lon="2.17538">
        <ele>1201.3</ele>
        <time>2024-09-25T15:16:44Z</time>
      </trkpt>
      <trkpt lat="42.36455" lon="2.17539">
        <ele>1201.2</ele>
        <time>2024-09-25T15:16:45Z</time>
      </trkpt>
      <trkpt lat="42.36454" lon="2.1754">
        <ele>1201.2</ele>
        <time>2024-09-25T15:16:46Z</time>
      </trkpt>
      <trkpt lat="42.36453" lon="2.17541">
        <ele>1201.1</ele>
        <time>2024-09-25T15:16:47Z</time>
      </trkpt>
      <trkpt lat="42.36452" lon="2.17542">
        <ele>1201</ele>
        <time>2024-09-25T15:16:48Z</time>
      </trkpt>
      <trkpt lat="42.36452" lon="2.17543">
        <ele>1200.9</ele>
        <time>2024-09-25T15:16:49Z</time>
      </trkpt>
      <trkpt lat="42.36451" lon="2.17544">
        <ele>1200.8</ele>
        <time>2024-09-25T15:16:50Z</time>
      </trkpt>
      <trkpt lat="42.3645" lon="2.17545">
        <ele>1200.8</ele>
        <time>2024-09-25T15:16:51Z</time>
      </trkpt>
      <trkpt lat="42.36449" lon="2.17546">
        <ele>1200.6</ele>
        <time>2024-09-25T15:16:52Z</time>
      </trkpt>
      <trkpt lat="42.36448" lon="2.17547">
        <ele>1200.5</ele>
        <time>2024-09-25T15:16:53Z</time>
      </trkpt>
      <trkpt lat="42.36447" lon="2.17548">
        <ele>1200.4</ele>
        <time>2024-09-25T15:16:54Z</time>
      </trkpt>
      <trkpt lat="42.36446" lon="2.17548">
        <ele>1200.3</ele>
        <time>2024-09-25T15:16:55Z</time>
      </trkpt>
      <trkpt lat="42.36445" lon="2.17549">
        <ele>1200.2</ele>
        <time>2024-09-25T15:16:56Z</time>
      </trkpt>
      <trkpt lat="42.36444" lon="2.17549">
        <ele>1200</ele>
        <time>2024-09-25T15:16:57Z</time>
      </trkpt>
      <trkpt lat="42.36443" lon="2.17549">
        <ele>1199.9</ele>
        <time>2024-09-25T15:16:58Z</time>
      </trkpt>
      <trkpt lat="42.36442" lon="2.17549">
        <ele>1199.8</ele>
        <time>2024-09-25T15:16:59Z</time>
      </trkpt>
      <trkpt lat="42.36441" lon="2.17549">
        <ele>1199.8</ele>
        <time>2024-09-25T15:17:00Z</time>
      </trkpt>
      <trkpt lat="42.36441" lon="2.17548">
        <ele>1199.7</ele>
        <time>2024-09-25T15:17:01Z</time>
      </trkpt>
      <trkpt lat="42.36442" lon="2.17548">
        <ele>1199.6</ele>
        <time>2024-09-25T15:17:02Z</time>
      </trkpt>
      <trkpt lat="42.36441" lon="2.17549">
        <ele>1199.6</ele>
        <time>2024-09-25T15:17:03Z</time>
      </trkpt>
      <trkpt lat="42.36441" lon="2.17549">
        <ele>1199.5</ele>
        <time>2024-09-25T15:17:04Z</time>
      </trkpt>
      <trkpt lat="42.36441" lon="2.17549">
        <ele>1199.5</ele>
        <time>2024-09-25T15:17:05Z</time>
      </trkpt>
      <trkpt lat="42.36441" lon="2.17549">
        <ele>1199.5</ele>
        <time>2024-09-25T15:17:06Z</time>
      </trkpt>
      <trkpt lat="42.36441" lon="2.17549">
        <ele>1199.5</ele>
        <time>2024-09-25T15:17:07Z</time>
      </trkpt>
      <trkpt lat="42.36441" lon="2.17549">
        <ele>1199.4</ele>
        <time>2024-09-25T15:17:08Z</time>
      </trkpt>
      <trkpt lat="42.36441" lon="2.17549">
        <ele>1199.4</ele>
        <time>2024-09-25T15:17:09Z</time>
      </trkpt>
      <trkpt lat="42.3644" lon="2.17549">
        <ele>1199.4</ele>
        <time>2024-09-25T15:17:10Z</time>
      </trkpt>
      <trkpt lat="42.3644" lon="2.17548">
        <ele>1199.4</ele>
        <time>2024-09-25T15:17:11Z</time>
      </trkpt>
      <trkpt lat="42.3644" lon="2.17548">
        <ele>1199.4</ele>
        <time>2024-09-25T15:17:12Z</time>
      </trkpt>
      <trkpt lat="42.3644" lon="2.17548">
        <ele>1199.4</ele>
        <time>2024-09-25T15:17:13Z</time>
      </trkpt>
      <trkpt lat="42.3644" lon="2.17548">
        <ele>1199.4</ele>
        <time>2024-09-25T15:17:14Z</time>
      </trkpt>
      <trkpt lat="42.3644" lon="2.17548">
        <ele>1199.4</ele>
        <time>2024-09-25T15:17:15Z</time>
      </trkpt>
      <trkpt lat="42.3644" lon="2.17548">
        <ele>1199.4</ele>
        <time>2024-09-25T15:17:16Z</time>
      </trkpt>
      <trkpt lat="42.3644" lon="2.17548">
        <ele>1199.4</ele>
        <time>2024-09-25T15:17:17Z</time>
      </trkpt>
      <trkpt lat="42.3644" lon="2.17548">
        <ele>1199.4</ele>
        <time>2024-09-25T15:17:18Z</time>
      </trkpt>
      <trkpt lat="42.3644" lon="2.17548">
        <ele>1199.3</ele>
        <time>2024-09-25T15:17:19Z</time>
      </trkpt>
      <trkpt lat="42.3644" lon="2.17548">
        <ele>1199.3</ele>
        <time>2024-09-25T15:17:20Z</time>
      </trkpt>
      <trkpt lat="42.3644" lon="2.17548">
        <ele>1199.3</ele>
        <time>2024-09-25T15:17:21Z</time>
      </trkpt>
      <trkpt lat="42.3644" lon="2.17548">
        <ele>1199.3</ele>
        <time>2024-09-25T15:17:22Z</time>
      </trkpt>
      <trkpt lat="42.3644" lon="2.17548">
        <ele>1199.3</ele>
        <time>2024-09-25T15:17:23Z</time>
      </trkpt>
      <trkpt lat="42.3644" lon="2.17548">
        <ele>1199.3</ele>
        <time>2024-09-25T15:17:24Z</time>
      </trkpt>
      <trkpt lat="42.3644" lon="2.17548">
        <ele>1199.3</ele>
        <time>2024-09-25T15:17:25Z</time>
      </trkpt>
      <trkpt lat="42.3644" lon="2.17548">
        <ele>1199.3</ele>
        <time>2024-09-25T15:17:26Z</time>
      </trkpt>
      <trkpt lat="42.3644" lon="2.17548">
        <ele>1199.3</ele>
        <time>2024-09-25T15:17:27Z</time>
      </trkpt>
      <trkpt lat="42.3644" lon="2.17548">
        <ele>1199.2</ele>
        <time>2024-09-25T15:17:28Z</time>
      </trkpt>
      <trkpt lat="42.3644" lon="2.17548">
        <ele>1199.2</ele>
        <time>2024-09-25T15:17:29Z</time>
      </trkpt>
      <trkpt lat="42.3644" lon="2.17548">
        <ele>1199.2</ele>
        <time>2024-09-25T15:17:30Z</time>
      </trkpt>
      <trkpt lat="42.3644" lon="2.17548">
        <ele>1199.2</ele>
        <time>2024-09-25T15:17:31Z</time>
      </trkpt>
      <trkpt lat="42.3644" lon="2.17548">
        <ele>1199.2</ele>
        <time>2024-09-25T15:17:32Z</time>
      </trkpt>
      <trkpt lat="42.3644" lon="2.17548">
        <ele>1199.2</ele>
        <time>2024-09-25T15:17:33Z</time>
      </trkpt>
      <trkpt lat="42.3644" lon="2.17548">
        <ele>1199.2</ele>
        <time>2024-09-25T15:17:34Z</time>
      </trkpt>
      <trkpt lat="42.3644" lon="2.17548">
        <ele>1199.2</ele>
        <time>2024-09-25T15:17:35Z</time>
      </trkpt>
      <trkpt lat="42.3644" lon="2.17548">
        <ele>1199.2</ele>
        <time>2024-09-25T15:17:36Z</time>
      </trkpt>
      <trkpt lat="42.3644" lon="2.17548">
        <ele>1199.2</ele>
        <time>2024-09-25T15:17:37Z</time>
      </trkpt>
      <trkpt lat="42.3644" lon="2.17548">
        <ele>1199.2</ele>
        <time>2024-09-25T15:17:38Z</time>
      </trkpt>
      <trkpt lat="42.3644" lon="2.17548">
        <ele>1199.2</ele>
        <time>2024-09-25T15:17:39Z</time>
      </trkpt>
      <trkpt lat="42.3644" lon="2.17548">
        <ele>1199.2</ele>
        <time>2024-09-25T15:17:40Z</time>
      </trkpt>
      <trkpt lat="42.3644" lon="2.17548">
        <ele>1199.2</ele>
        <time>2024-09-25T15:17:41Z</time>
      </trkpt>
      <trkpt lat="42.3644" lon="2.17548">
        <ele>1199.2</ele>
        <time>2024-09-25T15:17:42Z</time>
      </trkpt>
      <trkpt lat="42.3644" lon="2.17548">
        <ele>1199.2</ele>
        <time>2024-09-25T15:17:43Z</time>
      </trkpt>
      <trkpt lat="42.3644" lon="2.17548">
        <ele>1199.2</ele>
        <time>2024-09-25T15:17:44Z</time>
      </trkpt>
      <trkpt lat="42.3644" lon="2.17548">
        <ele>1199.2</ele>
        <time>2024-09-25T15:17:45Z</time>
      </trkpt>
      <trkpt lat="42.3644" lon="2.17548">
        <ele>1199.2</ele>
        <time>2024-09-25T15:17:46Z</time>
      </trkpt>
      <trkpt lat="42.3644" lon="2.17548">
        <ele>1199.2</ele>
        <time>2024-09-25T15:17:47Z</time>
      </trkpt>
      <trkpt lat="42.3644" lon="2.17548">
        <ele>1199.2</ele>
        <time>2024-09-25T15:17:48Z</time>
      </trkpt>
      <trkpt lat="42.3644" lon="2.17548">
        <ele>1199.2</ele>
        <time>2024-09-25T15:17:49Z</time>
      </trkpt>
      <trkpt lat="42.3644" lon="2.17548">
        <ele>1199.2</ele>
        <time>2024-09-25T15:17:50Z</time>
      </trkpt>
      <trkpt lat="42.3644" lon="2.17548">
        <ele>1199.2</ele>
        <time>2024-09-25T15:17:51Z</time>
      </trkpt>
      <trkpt lat="42.3644" lon="2.17548">
        <ele>1199.2</ele>
        <time>2024-09-25T15:17:52Z</time>
      </trkpt>
      <trkpt lat="42.3644" lon="2.17548">
        <ele>1199.2</ele>
        <time>2024-09-25T15:17:53Z</time>
      </trkpt>
      <trkpt lat="42.3644" lon="2.17548">
        <ele>1199.2</ele>
        <time>2024-09-25T15:17:54Z</time>
      </trkpt>
      <trkpt lat="42.3644" lon="2.17549">
        <ele>1199.2</ele>
        <time>2024-09-25T15:17:55Z</time>
      </trkpt>
      <trkpt lat="42.3644" lon="2.17549">
        <ele>1199.2</ele>
        <time>2024-09-25T15:17:56Z</time>
      </trkpt>
      <trkpt lat="42.3644" lon="2.17549">
        <ele>1199.2</ele>
        <time>2024-09-25T15:17:57Z</time>
      </trkpt>
      <trkpt lat="42.3644" lon="2.17549">
        <ele>1199.2</ele>
        <time>2024-09-25T15:17:58Z</time>
      </trkpt>
      <trkpt lat="42.3644" lon="2.17549">
        <ele>1199.2</ele>
        <time>2024-09-25T15:17:59Z</time>
      </trkpt>
      <trkpt lat="42.3644" lon="2.17549">
        <ele>1199.2</ele>
        <time>2024-09-25T15:18:00Z</time>
      </trkpt>
      <trkpt lat="42.3644" lon="2.17549">
        <ele>1199.2</ele>
        <time>2024-09-25T15:18:01Z</time>
      </trkpt>
      <trkpt lat="42.3644" lon="2.17549">
        <ele>1199.2</ele>
        <time>2024-09-25T15:18:02Z</time>
      </trkpt>
      <trkpt lat="42.3644" lon="2.17549">
        <ele>1199.2</ele>
        <time>2024-09-25T15:18:03Z</time>
      </trkpt>
      <trkpt lat="42.3644" lon="2.17549">
        <ele>1199.2</ele>
        <time>2024-09-25T15:18:04Z</time>
      </trkpt>
      <trkpt lat="42.3644" lon="2.17549">
        <ele>1199.2</ele>
        <time>2024-09-25T15:18:05Z</time>
      </trkpt>
      <trkpt lat="42.3644" lon="2.17549">
        <ele>1199.2</ele>
        <time>2024-09-25T15:18:06Z</time>
      </trkpt>
      <trkpt lat="42.3644" lon="2.17549">
        <ele>1199.2</ele>
        <time>2024-09-25T15:18:07Z</time>
      </trkpt>
      <trkpt lat="42.3644" lon="2.17549">
        <ele>1199.2</ele>
        <time>2024-09-25T15:18:08Z</time>
      </trkpt>
      <trkpt lat="42.3644" lon="2.17549">
        <ele>1199.2</ele>
        <time>2024-09-25T15:18:09Z</time>
      </trkpt>
      <trkpt lat="42.3644" lon="2.17549">
        <ele>1199.2</ele>
        <time>2024-09-25T15:18:10Z</time>
      </trkpt>
      <trkpt lat="42.3644" lon="2.17549">
        <ele>1199.2</ele>
        <time>2024-09-25T15:18:11Z</time>
      </trkpt>
      <trkpt lat="42.3644" lon="2.17549">
        <ele>1199.1</ele>
        <time>2024-09-25T15:18:12Z</time>
      </trkpt>
      <trkpt lat="42.36439" lon="2.17548">
        <ele>1199.1</ele>
        <time>2024-09-25T15:18:13Z</time>
      </trkpt>
      <trkpt lat="42.3644" lon="2.17548">
        <ele>1199</ele>
        <time>2024-09-25T15:18:14Z</time>
      </trkpt>
      <trkpt lat="42.3644" lon="2.17548">
        <ele>1199</ele>
        <time>2024-09-25T15:18:15Z</time>
      </trkpt>
      <trkpt lat="42.3644" lon="2.17548">
        <ele>1199</ele>
        <time>2024-09-25T15:18:16Z</time>
      </trkpt>
      <trkpt lat="42.3644" lon="2.17548">
        <ele>1199</ele>
        <time>2024-09-25T15:18:17Z</time>
      </trkpt>
      <trkpt lat="42.36439" lon="2.17548">
        <ele>1199</ele>
        <time>2024-09-25T15:18:18Z</time>
      </trkpt>
      <trkpt lat="42.36438" lon="2.17546">
        <ele>1199</ele>
        <time>2024-09-25T15:18:19Z</time>
      </trkpt>
      <trkpt lat="42.36437" lon="2.17545">
        <ele>1198.9</ele>
        <time>2024-09-25T15:18:20Z</time>
      </trkpt>
      <trkpt lat="42.36436" lon="2.17544">
        <ele>1198.9</ele>
        <time>2024-09-25T15:18:21Z</time>
      </trkpt>
      <trkpt lat="42.36434" lon="2.17543">
        <ele>1198.8</ele>
        <time>2024-09-25T15:18:22Z</time>
      </trkpt>
      <trkpt lat="42.36433" lon="2.17543">
        <ele>1198.8</ele>
        <time>2024-09-25T15:18:23Z</time>
      </trkpt>
      <trkpt lat="42.36434" lon="2.17544">
        <ele>1198.8</ele>
        <time>2024-09-25T15:18:24Z</time>
      </trkpt>
      <trkpt lat="42.36434" lon="2.17544">
        <ele>1198.7</ele>
        <time>2024-09-25T15:18:25Z</time>
      </trkpt>
      <trkpt lat="42.36435" lon="2.17544">
        <ele>1198.7</ele>
        <time>2024-09-25T15:18:26Z</time>
      </trkpt>
      <trkpt lat="42.36434" lon="2.17544">
        <ele>1198.7</ele>
        <time>2024-09-25T15:18:27Z</time>
      </trkpt>
      <trkpt lat="42.36433" lon="2.17543">
        <ele>1198.7</ele>
        <time>2024-09-25T15:18:28Z</time>
      </trkpt>
      <trkpt lat="42.36432" lon="2.17543">
        <ele>1198.7</ele>
        <time>2024-09-25T15:18:29Z</time>
      </trkpt>
      <trkpt lat="42.36432" lon="2.17543">
        <ele>1198.6</ele>
        <time>2024-09-25T15:18:30Z</time>
      </trkpt>
      <trkpt lat="42.36432" lon="2.17542">
        <ele>1198.6</ele>
        <time>2024-09-25T15:18:31Z</time>
      </trkpt>
      <trkpt lat="42.36431" lon="2.17542">
        <ele>1198.6</ele>
        <time>2024-09-25T15:18:32Z</time>
      </trkpt>
      <trkpt lat="42.36431" lon="2.17542">
        <ele>1198.6</ele>
        <time>2024-09-25T15:18:33Z</time>
      </trkpt>
      <trkpt lat="42.3643" lon="2.17542">
        <ele>1198.6</ele>
        <time>2024-09-25T15:18:34Z</time>
      </trkpt>
      <trkpt lat="42.3643" lon="2.17542">
        <ele>1198.6</ele>
        <time>2024-09-25T15:18:35Z</time>
      </trkpt>
      <trkpt lat="42.3643" lon="2.17541">
        <ele>1198.6</ele>
        <time>2024-09-25T15:18:36Z</time>
      </trkpt>
      <trkpt lat="42.3643" lon="2.17541">
        <ele>1198.6</ele>
        <time>2024-09-25T15:18:37Z</time>
      </trkpt>
      <trkpt lat="42.3643" lon="2.17541">
        <ele>1198.6</ele>
        <time>2024-09-25T15:18:38Z</time>
      </trkpt>
      <trkpt lat="42.3643" lon="2.17541">
        <ele>1198.6</ele>
        <time>2024-09-25T15:18:39Z</time>
      </trkpt>
      <trkpt lat="42.3643" lon="2.17541">
        <ele>1198.6</ele>
        <time>2024-09-25T15:18:40Z</time>
      </trkpt>
      <trkpt lat="42.3643" lon="2.17541">
        <ele>1198.5</ele>
        <time>2024-09-25T15:18:41Z</time>
      </trkpt>
      <trkpt lat="42.3643" lon="2.17541">
        <ele>1198.5</ele>
        <time>2024-09-25T15:18:42Z</time>
      </trkpt>
      <trkpt lat="42.3643" lon="2.17541">
        <ele>1198.5</ele>
        <time>2024-09-25T15:18:43Z</time>
      </trkpt>
      <trkpt lat="42.36429" lon="2.1754">
        <ele>1198.5</ele>
        <time>2024-09-25T15:18:44Z</time>
      </trkpt>
      <trkpt lat="42.36429" lon="2.1754">
        <ele>1198.5</ele>
        <time>2024-09-25T15:18:45Z</time>
      </trkpt>
      <trkpt lat="42.36429" lon="2.1754">
        <ele>1198.5</ele>
        <time>2024-09-25T15:18:46Z</time>
      </trkpt>
      <trkpt lat="42.36429" lon="2.1754">
        <ele>1198.5</ele>
        <time>2024-09-25T15:18:47Z</time>
      </trkpt>
      <trkpt lat="42.36429" lon="2.1754">
        <ele>1198.5</ele>
        <time>2024-09-25T15:18:48Z</time>
      </trkpt>
      <trkpt lat="42.36429" lon="2.1754">
        <ele>1198.5</ele>
        <time>2024-09-25T15:18:49Z</time>
      </trkpt>
      <trkpt lat="42.36429" lon="2.1754">
        <ele>1198.5</ele>
        <time>2024-09-25T15:18:50Z</time>
      </trkpt>
      <trkpt lat="42.36429" lon="2.1754">
        <ele>1198.5</ele>
        <time>2024-09-25T15:18:51Z</time>
      </trkpt>
      <trkpt lat="42.36429" lon="2.17539">
        <ele>1198.5</ele>
        <time>2024-09-25T15:18:52Z</time>
      </trkpt>
      <trkpt lat="42.36429" lon="2.17539">
        <ele>1198.5</ele>
        <time>2024-09-25T15:18:53Z</time>
      </trkpt>
      <trkpt lat="42.36429" lon="2.17539">
        <ele>1198.5</ele>
        <time>2024-09-25T15:18:54Z</time>
      </trkpt>
      <trkpt lat="42.36429" lon="2.17539">
        <ele>1198.5</ele>
        <time>2024-09-25T15:18:55Z</time>
      </trkpt>
      <trkpt lat="42.36429" lon="2.17539">
        <ele>1198.5</ele>
        <time>2024-09-25T15:18:56Z</time>
      </trkpt>
      <trkpt lat="42.36429" lon="2.17539">
        <ele>1198.5</ele>
        <time>2024-09-25T15:18:57Z</time>
      </trkpt>
      <trkpt lat="42.36429" lon="2.17539">
        <ele>1198.5</ele>
        <time>2024-09-25T15:18:58Z</time>
      </trkpt>
      <trkpt lat="42.36429" lon="2.17539">
        <ele>1198.5</ele>
        <time>2024-09-25T15:18:59Z</time>
      </trkpt>
      <trkpt lat="42.36429" lon="2.17539">
        <ele>1198.5</ele>
        <time>2024-09-25T15:19:00Z</time>
      </trkpt>
      <trkpt lat="42.36429" lon="2.17538">
        <ele>1198.5</ele>
        <time>2024-09-25T15:19:01Z</time>
      </trkpt>
      <trkpt lat="42.36428" lon="2.17538">
        <ele>1198.5</ele>
        <time>2024-09-25T15:19:02Z</time>
      </trkpt>
      <trkpt lat="42.36428" lon="2.17538">
        <ele>1198.5</ele>
        <time>2024-09-25T15:19:03Z</time>
      </trkpt>
      <trkpt lat="42.36428" lon="2.17538">
        <ele>1198.5</ele>
        <time>2024-09-25T15:19:04Z</time>
      </trkpt>
      <trkpt lat="42.36428" lon="2.17538">
        <ele>1198.5</ele>
        <time>2024-09-25T15:19:05Z</time>
      </trkpt>
      <trkpt lat="42.36428" lon="2.17538">
        <ele>1198.5</ele>
        <time>2024-09-25T15:19:06Z</time>
      </trkpt>
      <trkpt lat="42.36428" lon="2.17538">
        <ele>1198.4</ele>
        <time>2024-09-25T15:19:07Z</time>
      </trkpt>
      <trkpt lat="42.36428" lon="2.17538">
        <ele>1198.4</ele>
        <time>2024-09-25T15:19:08Z</time>
      </trkpt>
      <trkpt lat="42.36428" lon="2.17538">
        <ele>1198.4</ele>
        <time>2024-09-25T15:19:09Z</time>
      </trkpt>
      <trkpt lat="42.36428" lon="2.17537">
        <ele>1198.4</ele>
        <time>2024-09-25T15:19:10Z</time>
      </trkpt>
      <trkpt lat="42.36428" lon="2.17537">
        <ele>1198.4</ele>
        <time>2024-09-25T15:19:11Z</time>
      </trkpt>
      <trkpt lat="42.36427" lon="2.17537">
        <ele>1198.3</ele>
        <time>2024-09-25T15:19:12Z</time>
      </trkpt>
      <trkpt lat="42.36426" lon="2.17536">
        <ele>1198.1</ele>
        <time>2024-09-25T15:19:13Z</time>
      </trkpt>
      <trkpt lat="42.36425" lon="2.17536">
        <ele>1198</ele>
        <time>2024-09-25T15:19:14Z</time>
      </trkpt>
      <trkpt lat="42.36424" lon="2.17536">
        <ele>1197.9</ele>
        <time>2024-09-25T15:19:15Z</time>
      </trkpt>
      <trkpt lat="42.36423" lon="2.17535">
        <ele>1197.8</ele>
        <time>2024-09-25T15:19:16Z</time>
      </trkpt>
      <trkpt lat="42.36422" lon="2.17535">
        <ele>1197.7</ele>
        <time>2024-09-25T15:19:17Z</time>
      </trkpt>
      <trkpt lat="42.36421" lon="2.17534">
        <ele>1197.6</ele>
        <time>2024-09-25T15:19:18Z</time>
      </trkpt>
      <trkpt lat="42.3642" lon="2.17534">
        <ele>1197.4</ele>
        <time>2024-09-25T15:19:19Z</time>
      </trkpt>
      <trkpt lat="42.36418" lon="2.17533">
        <ele>1197.2</ele>
        <time>2024-09-25T15:19:20Z</time>
      </trkpt>
      <trkpt lat="42.36417" lon="2.17533">
        <ele>1197.1</ele>
        <time>2024-09-25T15:19:21Z</time>
      </trkpt>
      <trkpt lat="42.36417" lon="2.17532">
        <ele>1197</ele>
        <time>2024-09-25T15:19:22Z</time>
      </trkpt>
      <trkpt lat="42.36417" lon="2.1753">
        <ele>1196.9</ele>
        <time>2024-09-25T15:19:23Z</time>
      </trkpt>
      <trkpt lat="42.36416" lon="2.17528">
        <ele>1196.7</ele>
        <time>2024-09-25T15:19:24Z</time>
      </trkpt>
      <trkpt lat="42.36415" lon="2.17527">
        <ele>1196.6</ele>
        <time>2024-09-25T15:19:25Z</time>
      </trkpt>
      <trkpt lat="42.36415" lon="2.17526">
        <ele>1196.5</ele>
        <time>2024-09-25T15:19:26Z</time>
      </trkpt>
      <trkpt lat="42.36413" lon="2.17525">
        <ele>1196.3</ele>
        <time>2024-09-25T15:19:27Z</time>
      </trkpt>
      <trkpt lat="42.36412" lon="2.17524">
        <ele>1196.1</ele>
        <time>2024-09-25T15:19:28Z</time>
      </trkpt>
      <trkpt lat="42.36412" lon="2.17522">
        <ele>1196</ele>
        <time>2024-09-25T15:19:29Z</time>
      </trkpt>
      <trkpt lat="42.36411" lon="2.17521">
        <ele>1195.9</ele>
        <time>2024-09-25T15:19:30Z</time>
      </trkpt>
      <trkpt lat="42.36411" lon="2.1752">
        <ele>1195.8</ele>
        <time>2024-09-25T15:19:31Z</time>
      </trkpt>
      <trkpt lat="42.36411" lon="2.17519">
        <ele>1195.7</ele>
        <time>2024-09-25T15:19:32Z</time>
      </trkpt>
      <trkpt lat="42.36411" lon="2.17519">
        <ele>1195.7</ele>
        <time>2024-09-25T15:19:33Z</time>
      </trkpt>
      <trkpt lat="42.3641" lon="2.1752">
        <ele>1195.7</ele>
        <time>2024-09-25T15:19:34Z</time>
      </trkpt>
      <trkpt lat="42.3641" lon="2.1752">
        <ele>1195.7</ele>
        <time>2024-09-25T15:19:35Z</time>
      </trkpt>
      <trkpt lat="42.3641" lon="2.17521">
        <ele>1195.7</ele>
        <time>2024-09-25T15:19:36Z</time>
      </trkpt>
      <trkpt lat="42.3641" lon="2.17521">
        <ele>1195.7</ele>
        <time>2024-09-25T15:19:37Z</time>
      </trkpt>
      <trkpt lat="42.3641" lon="2.17521">
        <ele>1195.7</ele>
        <time>2024-09-25T15:19:38Z</time>
      </trkpt>
      <trkpt lat="42.36409" lon="2.17521">
        <ele>1195.7</ele>
        <time>2024-09-25T15:19:39Z</time>
      </trkpt>
      <trkpt lat="42.36409" lon="2.1752">
        <ele>1195.7</ele>
        <time>2024-09-25T15:19:40Z</time>
      </trkpt>
      <trkpt lat="42.36408" lon="2.1752">
        <ele>1195.7</ele>
        <time>2024-09-25T15:19:41Z</time>
      </trkpt>
      <trkpt lat="42.36406" lon="2.17519">
        <ele>1195.7</ele>
        <time>2024-09-25T15:19:42Z</time>
      </trkpt>
      <trkpt lat="42.36405" lon="2.17518">
        <ele>1195.7</ele>
        <time>2024-09-25T15:19:43Z</time>
      </trkpt>
      <trkpt lat="42.36404" lon="2.17518">
        <ele>1195.7</ele>
        <time>2024-09-25T15:19:44Z</time>
      </trkpt>
      <trkpt lat="42.36402" lon="2.17518">
        <ele>1195.7</ele>
        <time>2024-09-25T15:19:45Z</time>
      </trkpt>
      <trkpt lat="42.36401" lon="2.17518">
        <ele>1195.7</ele>
        <time>2024-09-25T15:19:46Z</time>
      </trkpt>
      <trkpt lat="42.364" lon="2.17518">
        <ele>1195.7</ele>
        <time>2024-09-25T15:19:47Z</time>
      </trkpt>
      <trkpt lat="42.36398" lon="2.17517">
        <ele>1195.7</ele>
        <time>2024-09-25T15:19:48Z</time>
      </trkpt>
      <trkpt lat="42.36398" lon="2.17516">
        <ele>1195.7</ele>
        <time>2024-09-25T15:19:49Z</time>
      </trkpt>
      <trkpt lat="42.36397" lon="2.17517">
        <ele>1195.7</ele>
        <time>2024-09-25T15:19:50Z</time>
      </trkpt>
      <trkpt lat="42.36397" lon="2.17517">
        <ele>1195.7</ele>
        <time>2024-09-25T15:19:51Z</time>
      </trkpt>
      <trkpt lat="42.36396" lon="2.17517">
        <ele>1195.7</ele>
        <time>2024-09-25T15:19:52Z</time>
      </trkpt>
      <trkpt lat="42.36396" lon="2.17517">
        <ele>1195.7</ele>
        <time>2024-09-25T15:19:53Z</time>
      </trkpt>
      <trkpt lat="42.36395" lon="2.17518">
        <ele>1195.7</ele>
        <time>2024-09-25T15:19:54Z</time>
      </trkpt>
      <trkpt lat="42.36395" lon="2.17518">
        <ele>1195.7</ele>
        <time>2024-09-25T15:19:55Z</time>
      </trkpt>
      <trkpt lat="42.36393" lon="2.17517">
        <ele>1195.7</ele>
        <time>2024-09-25T15:19:56Z</time>
      </trkpt>
      <trkpt lat="42.36392" lon="2.17516">
        <ele>1195.7</ele>
        <time>2024-09-25T15:19:57Z</time>
      </trkpt>
      <trkpt lat="42.36391" lon="2.17514">
        <ele>1195.7</ele>
        <time>2024-09-25T15:19:58Z</time>
      </trkpt>
      <trkpt lat="42.36391" lon="2.17513">
        <ele>1195.8</ele>
        <time>2024-09-25T15:19:59Z</time>
      </trkpt>
      <trkpt lat="42.3639" lon="2.17513">
        <ele>1195.8</ele>
        <time>2024-09-25T15:20:00Z</time>
      </trkpt>
      <trkpt lat="42.36389" lon="2.17513">
        <ele>1195.8</ele>
        <time>2024-09-25T15:20:01Z</time>
      </trkpt>
      <trkpt lat="42.36389" lon="2.17512">
        <ele>1195.8</ele>
        <time>2024-09-25T15:20:02Z</time>
      </trkpt>
      <trkpt lat="42.36387" lon="2.17513">
        <ele>1195.8</ele>
        <time>2024-09-25T15:20:03Z</time>
      </trkpt>
      <trkpt lat="42.36386" lon="2.17514">
        <ele>1195.8</ele>
        <time>2024-09-25T15:20:04Z</time>
      </trkpt>
      <trkpt lat="42.36385" lon="2.17514">
        <ele>1195.8</ele>
        <time>2024-09-25T15:20:05Z</time>
      </trkpt>
      <trkpt lat="42.36384" lon="2.17512">
        <ele>1195.8</ele>
        <time>2024-09-25T15:20:06Z</time>
      </trkpt>
      <trkpt lat="42.36384" lon="2.17511">
        <ele>1195.8</ele>
        <time>2024-09-25T15:20:07Z</time>
      </trkpt>
      <trkpt lat="42.36382" lon="2.17509">
        <ele>1195.8</ele>
        <time>2024-09-25T15:20:08Z</time>
      </trkpt>
      <trkpt lat="42.36381" lon="2.17509">
        <ele>1195.8</ele>
        <time>2024-09-25T15:20:09Z</time>
      </trkpt>
      <trkpt lat="42.3638" lon="2.17509">
        <ele>1195.8</ele>
        <time>2024-09-25T15:20:10Z</time>
      </trkpt>
      <trkpt lat="42.36379" lon="2.17508">
        <ele>1195.8</ele>
        <time>2024-09-25T15:20:11Z</time>
      </trkpt>
      <trkpt lat="42.36377" lon="2.17508">
        <ele>1195.7</ele>
        <time>2024-09-25T15:20:12Z</time>
      </trkpt>
      <trkpt lat="42.36375" lon="2.17509">
        <ele>1195.7</ele>
        <time>2024-09-25T15:20:13Z</time>
      </trkpt>
      <trkpt lat="42.36374" lon="2.17509">
        <ele>1195.7</ele>
        <time>2024-09-25T15:20:14Z</time>
      </trkpt>
      <trkpt lat="42.36373" lon="2.17509">
        <ele>1195.7</ele>
        <time>2024-09-25T15:20:15Z</time>
      </trkpt>
      <trkpt lat="42.36372" lon="2.17509">
        <ele>1195.7</ele>
        <time>2024-09-25T15:20:16Z</time>
      </trkpt>
      <trkpt lat="42.36371" lon="2.17508">
        <ele>1195.7</ele>
        <time>2024-09-25T15:20:17Z</time>
      </trkpt>
      <trkpt lat="42.3637" lon="2.17507">
        <ele>1195.6</ele>
        <time>2024-09-25T15:20:18Z</time>
      </trkpt>
      <trkpt lat="42.36369" lon="2.17508">
        <ele>1195.6</ele>
        <time>2024-09-25T15:20:19Z</time>
      </trkpt>
      <trkpt lat="42.36369" lon="2.17508">
        <ele>1195.6</ele>
        <time>2024-09-25T15:20:20Z</time>
      </trkpt>
      <trkpt lat="42.36369" lon="2.17508">
        <ele>1195.6</ele>
        <time>2024-09-25T15:20:21Z</time>
      </trkpt>
      <trkpt lat="42.36367" lon="2.17508">
        <ele>1195.6</ele>
        <time>2024-09-25T15:20:22Z</time>
      </trkpt>
      <trkpt lat="42.36366" lon="2.17507">
        <ele>1195.6</ele>
        <time>2024-09-25T15:20:23Z</time>
      </trkpt>
      <trkpt lat="42.36365" lon="2.17506">
        <ele>1195.6</ele>
        <time>2024-09-25T15:20:24Z</time>
      </trkpt>
      <trkpt lat="42.36365" lon="2.17506">
        <ele>1195.5</ele>
        <time>2024-09-25T15:20:25Z</time>
      </trkpt>
      <trkpt lat="42.36364" lon="2.17505">
        <ele>1195.5</ele>
        <time>2024-09-25T15:20:26Z</time>
      </trkpt>
      <trkpt lat="42.36364" lon="2.17504">
        <ele>1195.5</ele>
        <time>2024-09-25T15:20:27Z</time>
      </trkpt>
      <trkpt lat="42.36364" lon="2.17502">
        <ele>1195.5</ele>
        <time>2024-09-25T15:20:28Z</time>
      </trkpt>
      <trkpt lat="42.36362" lon="2.17502">
        <ele>1195.4</ele>
        <time>2024-09-25T15:20:29Z</time>
      </trkpt>
      <trkpt lat="42.36362" lon="2.17501">
        <ele>1195.4</ele>
        <time>2024-09-25T15:20:30Z</time>
      </trkpt>
      <trkpt lat="42.36361" lon="2.175">
        <ele>1195.4</ele>
        <time>2024-09-25T15:20:31Z</time>
      </trkpt>
      <trkpt lat="42.3636" lon="2.17499">
        <ele>1195.4</ele>
        <time>2024-09-25T15:20:32Z</time>
      </trkpt>
      <trkpt lat="42.3636" lon="2.17498">
        <ele>1195.3</ele>
        <time>2024-09-25T15:20:33Z</time>
      </trkpt>
      <trkpt lat="42.3636" lon="2.17499">
        <ele>1195.3</ele>
        <time>2024-09-25T15:20:34Z</time>
      </trkpt>
      <trkpt lat="42.36358" lon="2.175">
        <ele>1195.3</ele>
        <time>2024-09-25T15:20:35Z</time>
      </trkpt>
      <trkpt lat="42.36357" lon="2.17501">
        <ele>1195.3</ele>
        <time>2024-09-25T15:20:36Z</time>
      </trkpt>
      <trkpt lat="42.36355" lon="2.17501">
        <ele>1195.2</ele>
        <time>2024-09-25T15:20:37Z</time>
      </trkpt>
      <trkpt lat="42.36354" lon="2.17501">
        <ele>1195.2</ele>
        <time>2024-09-25T15:20:38Z</time>
      </trkpt>
      <trkpt lat="42.36353" lon="2.17501">
        <ele>1195.1</ele>
        <time>2024-09-25T15:20:39Z</time>
      </trkpt>
      <trkpt lat="42.36351" lon="2.17498">
        <ele>1195</ele>
        <time>2024-09-25T15:20:40Z</time>
      </trkpt>
      <trkpt lat="42.3635" lon="2.17497">
        <ele>1195</ele>
        <time>2024-09-25T15:20:41Z</time>
      </trkpt>
      <trkpt lat="42.36349" lon="2.17495">
        <ele>1194.9</ele>
        <time>2024-09-25T15:20:42Z</time>
      </trkpt>
      <trkpt lat="42.36348" lon="2.17494">
        <ele>1194.9</ele>
        <time>2024-09-25T15:20:43Z</time>
      </trkpt>
      <trkpt lat="42.36348" lon="2.17493">
        <ele>1194.9</ele>
        <time>2024-09-25T15:20:44Z</time>
      </trkpt>
      <trkpt lat="42.36347" lon="2.17492">
        <ele>1194.9</ele>
        <time>2024-09-25T15:20:45Z</time>
      </trkpt>
      <trkpt lat="42.36347" lon="2.1749">
        <ele>1194.8</ele>
        <time>2024-09-25T15:20:46Z</time>
      </trkpt>
      <trkpt lat="42.36346" lon="2.17489">
        <ele>1194.8</ele>
        <time>2024-09-25T15:20:47Z</time>
      </trkpt>
      <trkpt lat="42.36345" lon="2.17488">
        <ele>1194.7</ele>
        <time>2024-09-25T15:20:48Z</time>
      </trkpt>
      <trkpt lat="42.36344" lon="2.17488">
        <ele>1194.7</ele>
        <time>2024-09-25T15:20:49Z</time>
      </trkpt>
      <trkpt lat="42.36343" lon="2.17487">
        <ele>1194.7</ele>
        <time>2024-09-25T15:20:50Z</time>
      </trkpt>
      <trkpt lat="42.36342" lon="2.17486">
        <ele>1194.6</ele>
        <time>2024-09-25T15:20:51Z</time>
      </trkpt>
      <trkpt lat="42.36342" lon="2.17485">
        <ele>1194.6</ele>
        <time>2024-09-25T15:20:52Z</time>
      </trkpt>
      <trkpt lat="42.36341" lon="2.17485">
        <ele>1194.6</ele>
        <time>2024-09-25T15:20:53Z</time>
      </trkpt>
      <trkpt lat="42.36339" lon="2.17484">
        <ele>1194.5</ele>
        <time>2024-09-25T15:20:54Z</time>
      </trkpt>
      <trkpt lat="42.36338" lon="2.17484">
        <ele>1194.5</ele>
        <time>2024-09-25T15:20:55Z</time>
      </trkpt>
      <trkpt lat="42.36337" lon="2.17484">
        <ele>1194.5</ele>
        <time>2024-09-25T15:20:56Z</time>
      </trkpt>
      <trkpt lat="42.36335" lon="2.17484">
        <ele>1194.4</ele>
        <time>2024-09-25T15:20:57Z</time>
      </trkpt>
      <trkpt lat="42.36334" lon="2.17484">
        <ele>1194.4</ele>
        <time>2024-09-25T15:20:58Z</time>
      </trkpt>
      <trkpt lat="42.36334" lon="2.17484">
        <ele>1194.3</ele>
        <time>2024-09-25T15:20:59Z</time>
      </trkpt>
      <trkpt lat="42.36333" lon="2.17483">
        <ele>1194.3</ele>
        <time>2024-09-25T15:21:00Z</time>
      </trkpt>
      <trkpt lat="42.36332" lon="2.17483">
        <ele>1194.3</ele>
        <time>2024-09-25T15:21:01Z</time>
      </trkpt>
      <trkpt lat="42.36331" lon="2.17483">
        <ele>1194.3</ele>
        <time>2024-09-25T15:21:02Z</time>
      </trkpt>
      <trkpt lat="42.36331" lon="2.17482">
        <ele>1194.2</ele>
        <time>2024-09-25T15:21:03Z</time>
      </trkpt>
      <trkpt lat="42.3633" lon="2.17482">
        <ele>1194.2</ele>
        <time>2024-09-25T15:21:04Z</time>
      </trkpt>
      <trkpt lat="42.36329" lon="2.17481">
        <ele>1194.2</ele>
        <time>2024-09-25T15:21:05Z</time>
      </trkpt>
      <trkpt lat="42.36329" lon="2.1748">
        <ele>1194.1</ele>
        <time>2024-09-25T15:21:06Z</time>
      </trkpt>
      <trkpt lat="42.36328" lon="2.17479">
        <ele>1194.1</ele>
        <time>2024-09-25T15:21:07Z</time>
      </trkpt>
      <trkpt lat="42.36327" lon="2.17479">
        <ele>1194.1</ele>
        <time>2024-09-25T15:21:08Z</time>
      </trkpt>
      <trkpt lat="42.36326" lon="2.17479">
        <ele>1194.1</ele>
        <time>2024-09-25T15:21:09Z</time>
      </trkpt>
      <trkpt lat="42.36325" lon="2.17477">
        <ele>1194</ele>
        <time>2024-09-25T15:21:11Z</time>
      </trkpt>
      <trkpt lat="42.36323" lon="2.17477">
        <ele>1194</ele>
        <time>2024-09-25T15:21:13Z</time>
      </trkpt>
      <trkpt lat="42.36322" lon="2.17477">
        <ele>1193.9</ele>
        <time>2024-09-25T15:21:14Z</time>
      </trkpt>
      <trkpt lat="42.3632" lon="2.17477">
        <ele>1193.9</ele>
        <time>2024-09-25T15:21:15Z</time>
      </trkpt>
      <trkpt lat="42.36318" lon="2.17477">
        <ele>1193.8</ele>
        <time>2024-09-25T15:21:16Z</time>
      </trkpt>
      <trkpt lat="42.36317" lon="2.17476">
        <ele>1193.7</ele>
        <time>2024-09-25T15:21:17Z</time>
      </trkpt>
      <trkpt lat="42.36316" lon="2.17476">
        <ele>1193.7</ele>
        <time>2024-09-25T15:21:18Z</time>
      </trkpt>
      <trkpt lat="42.36315" lon="2.17476">
        <ele>1193.7</ele>
        <time>2024-09-25T15:21:19Z</time>
      </trkpt>
      <trkpt lat="42.36314" lon="2.17476">
        <ele>1193.7</ele>
        <time>2024-09-25T15:21:20Z</time>
      </trkpt>
      <trkpt lat="42.36313" lon="2.17475">
        <ele>1193.6</ele>
        <time>2024-09-25T15:21:21Z</time>
      </trkpt>
      <trkpt lat="42.36312" lon="2.17475">
        <ele>1193.6</ele>
        <time>2024-09-25T15:21:22Z</time>
      </trkpt>
      <trkpt lat="42.36311" lon="2.17475">
        <ele>1193.6</ele>
        <time>2024-09-25T15:21:23Z</time>
      </trkpt>
      <trkpt lat="42.3631" lon="2.17474">
        <ele>1193.5</ele>
        <time>2024-09-25T15:21:24Z</time>
      </trkpt>
      <trkpt lat="42.36309" lon="2.17474">
        <ele>1193.5</ele>
        <time>2024-09-25T15:21:25Z</time>
      </trkpt>
      <trkpt lat="42.36307" lon="2.17474">
        <ele>1193.4</ele>
        <time>2024-09-25T15:21:26Z</time>
      </trkpt>
      <trkpt lat="42.36306" lon="2.17474">
        <ele>1193.4</ele>
        <time>2024-09-25T15:21:27Z</time>
      </trkpt>
      <trkpt lat="42.36305" lon="2.17474">
        <ele>1193.3</ele>
        <time>2024-09-25T15:21:28Z</time>
      </trkpt>
      <trkpt lat="42.36305" lon="2.17474">
        <ele>1193.3</ele>
        <time>2024-09-25T15:21:29Z</time>
      </trkpt>
      <trkpt lat="42.36304" lon="2.17474">
        <ele>1193.3</ele>
        <time>2024-09-25T15:21:30Z</time>
      </trkpt>
      <trkpt lat="42.36303" lon="2.17474">
        <ele>1193.3</ele>
        <time>2024-09-25T15:21:31Z</time>
      </trkpt>
      <trkpt lat="42.36302" lon="2.17474">
        <ele>1193.2</ele>
        <time>2024-09-25T15:21:32Z</time>
      </trkpt>
      <trkpt lat="42.36301" lon="2.17474">
        <ele>1193.2</ele>
        <time>2024-09-25T15:21:33Z</time>
      </trkpt>
      <trkpt lat="42.363" lon="2.17474">
        <ele>1193.1</ele>
        <time>2024-09-25T15:21:34Z</time>
      </trkpt>
      <trkpt lat="42.36299" lon="2.17474">
        <ele>1193.1</ele>
        <time>2024-09-25T15:21:35Z</time>
      </trkpt>
      <trkpt lat="42.36298" lon="2.17474">
        <ele>1193.1</ele>
        <time>2024-09-25T15:21:36Z</time>
      </trkpt>
      <trkpt lat="42.36297" lon="2.17474">
        <ele>1193</ele>
        <time>2024-09-25T15:21:37Z</time>
      </trkpt>
      <trkpt lat="42.36296" lon="2.17474">
        <ele>1193</ele>
        <time>2024-09-25T15:21:38Z</time>
      </trkpt>
      <trkpt lat="42.36295" lon="2.17474">
        <ele>1192.9</ele>
        <time>2024-09-25T15:21:39Z</time>
      </trkpt>
      <trkpt lat="42.36294" lon="2.17474">
        <ele>1192.9</ele>
        <time>2024-09-25T15:21:40Z</time>
      </trkpt>
      <trkpt lat="42.36293" lon="2.17475">
        <ele>1192.8</ele>
        <time>2024-09-25T15:21:41Z</time>
      </trkpt>
      <trkpt lat="42.36291" lon="2.17474">
        <ele>1192.7</ele>
        <time>2024-09-25T15:21:42Z</time>
      </trkpt>
      <trkpt lat="42.3629" lon="2.17474">
        <ele>1192.7</ele>
        <time>2024-09-25T15:21:43Z</time>
      </trkpt>
      <trkpt lat="42.36289" lon="2.17474">
        <ele>1192.7</ele>
        <time>2024-09-25T15:21:44Z</time>
      </trkpt>
      <trkpt lat="42.36288" lon="2.17474">
        <ele>1192.6</ele>
        <time>2024-09-25T15:21:45Z</time>
      </trkpt>
      <trkpt lat="42.36287" lon="2.17473">
        <ele>1192.6</ele>
        <time>2024-09-25T15:21:46Z</time>
      </trkpt>
      <trkpt lat="42.36286" lon="2.17473">
        <ele>1192.5</ele>
        <time>2024-09-25T15:21:47Z</time>
      </trkpt>
      <trkpt lat="42.36284" lon="2.17475">
        <ele>1192.5</ele>
        <time>2024-09-25T15:21:48Z</time>
      </trkpt>
      <trkpt lat="42.36283" lon="2.17475">
        <ele>1192.4</ele>
        <time>2024-09-25T15:21:49Z</time>
      </trkpt>
      <trkpt lat="42.36281" lon="2.17476">
        <ele>1192.3</ele>
        <time>2024-09-25T15:21:50Z</time>
      </trkpt>
      <trkpt lat="42.3628" lon="2.17477">
        <ele>1192.3</ele>
        <time>2024-09-25T15:21:51Z</time>
      </trkpt>
      <trkpt lat="42.36279" lon="2.17477">
        <ele>1192.3</ele>
        <time>2024-09-25T15:21:52Z</time>
      </trkpt>
      <trkpt lat="42.36278" lon="2.17479">
        <ele>1192.2</ele>
        <time>2024-09-25T15:21:53Z</time>
      </trkpt>
      <trkpt lat="42.36277" lon="2.1748">
        <ele>1192.2</ele>
        <time>2024-09-25T15:21:54Z</time>
      </trkpt>
      <trkpt lat="42.36276" lon="2.1748">
        <ele>1192.2</ele>
        <time>2024-09-25T15:21:55Z</time>
      </trkpt>
      <trkpt lat="42.36274" lon="2.17481">
        <ele>1192.2</ele>
        <time>2024-09-25T15:21:56Z</time>
      </trkpt>
      <trkpt lat="42.36273" lon="2.17481">
        <ele>1192.1</ele>
        <time>2024-09-25T15:21:57Z</time>
      </trkpt>
      <trkpt lat="42.36272" lon="2.17481">
        <ele>1192.1</ele>
        <time>2024-09-25T15:21:58Z</time>
      </trkpt>
      <trkpt lat="42.36271" lon="2.17482">
        <ele>1192.1</ele>
        <time>2024-09-25T15:21:59Z</time>
      </trkpt>
      <trkpt lat="42.3627" lon="2.17482">
        <ele>1192.1</ele>
        <time>2024-09-25T15:22:00Z</time>
      </trkpt>
      <trkpt lat="42.36269" lon="2.17483">
        <ele>1192</ele>
        <time>2024-09-25T15:22:01Z</time>
      </trkpt>
      <trkpt lat="42.36268" lon="2.17483">
        <ele>1192</ele>
        <time>2024-09-25T15:22:02Z</time>
      </trkpt>
      <trkpt lat="42.36267" lon="2.17484">
        <ele>1192</ele>
        <time>2024-09-25T15:22:03Z</time>
      </trkpt>
      <trkpt lat="42.36266" lon="2.17484">
        <ele>1192</ele>
        <time>2024-09-25T15:22:04Z</time>
      </trkpt>
      <trkpt lat="42.36265" lon="2.17484">
        <ele>1192</ele>
        <time>2024-09-25T15:22:05Z</time>
      </trkpt>
      <trkpt lat="42.36264" lon="2.17484">
        <ele>1191.9</ele>
        <time>2024-09-25T15:22:06Z</time>
      </trkpt>
      <trkpt lat="42.36262" lon="2.17484">
        <ele>1191.9</ele>
        <time>2024-09-25T15:22:07Z</time>
      </trkpt>
      <trkpt lat="42.36261" lon="2.17484">
        <ele>1191.9</ele>
        <time>2024-09-25T15:22:08Z</time>
      </trkpt>
      <trkpt lat="42.3626" lon="2.17484">
        <ele>1191.9</ele>
        <time>2024-09-25T15:22:10Z</time>
      </trkpt>
      <trkpt lat="42.36259" lon="2.17485">
        <ele>1191.9</ele>
        <time>2024-09-25T15:22:11Z</time>
      </trkpt>
      <trkpt lat="42.36258" lon="2.17485">
        <ele>1191.8</ele>
        <time>2024-09-25T15:22:12Z</time>
      </trkpt>
      <trkpt lat="42.36257" lon="2.17485">
        <ele>1191.8</ele>
        <time>2024-09-25T15:22:13Z</time>
      </trkpt>
      <trkpt lat="42.36256" lon="2.17486">
        <ele>1191.8</ele>
        <time>2024-09-25T15:22:14Z</time>
      </trkpt>
      <trkpt lat="42.36255" lon="2.17486">
        <ele>1191.8</ele>
        <time>2024-09-25T15:22:15Z</time>
      </trkpt>
      <trkpt lat="42.36254" lon="2.17486">
        <ele>1191.8</ele>
        <time>2024-09-25T15:22:16Z</time>
      </trkpt>
      <trkpt lat="42.36254" lon="2.17487">
        <ele>1191.8</ele>
        <time>2024-09-25T15:22:17Z</time>
      </trkpt>
      <trkpt lat="42.36254" lon="2.17487">
        <ele>1191.8</ele>
        <time>2024-09-25T15:22:18Z</time>
      </trkpt>
      <trkpt lat="42.36252" lon="2.17488">
        <ele>1191.7</ele>
        <time>2024-09-25T15:22:19Z</time>
      </trkpt>
      <trkpt lat="42.36251" lon="2.17488">
        <ele>1191.7</ele>
        <time>2024-09-25T15:22:20Z</time>
      </trkpt>
      <trkpt lat="42.3625" lon="2.17489">
        <ele>1191.7</ele>
        <time>2024-09-25T15:22:21Z</time>
      </trkpt>
      <trkpt lat="42.36249" lon="2.1749">
        <ele>1191.7</ele>
        <time>2024-09-25T15:22:22Z</time>
      </trkpt>
      <trkpt lat="42.36248" lon="2.1749">
        <ele>1191.7</ele>
        <time>2024-09-25T15:22:23Z</time>
      </trkpt>
      <trkpt lat="42.36247" lon="2.17491">
        <ele>1191.6</ele>
        <time>2024-09-25T15:22:24Z</time>
      </trkpt>
      <trkpt lat="42.36247" lon="2.17491">
        <ele>1191.6</ele>
        <time>2024-09-25T15:22:25Z</time>
      </trkpt>
      <trkpt lat="42.36245" lon="2.17492">
        <ele>1191.6</ele>
        <time>2024-09-25T15:22:26Z</time>
      </trkpt>
      <trkpt lat="42.36244" lon="2.17493">
        <ele>1191.6</ele>
        <time>2024-09-25T15:22:27Z</time>
      </trkpt>
      <trkpt lat="42.36243" lon="2.17493">
        <ele>1191.6</ele>
        <time>2024-09-25T15:22:28Z</time>
      </trkpt>
      <trkpt lat="42.36242" lon="2.17494">
        <ele>1191.6</ele>
        <time>2024-09-25T15:22:29Z</time>
      </trkpt>
      <trkpt lat="42.36241" lon="2.17494">
        <ele>1191.5</ele>
        <time>2024-09-25T15:22:30Z</time>
      </trkpt>
      <trkpt lat="42.3624" lon="2.17494">
        <ele>1191.5</ele>
        <time>2024-09-25T15:22:31Z</time>
      </trkpt>
      <trkpt lat="42.36239" lon="2.17495">
        <ele>1191.5</ele>
        <time>2024-09-25T15:22:32Z</time>
      </trkpt>
      <trkpt lat="42.36238" lon="2.17496">
        <ele>1191.5</ele>
        <time>2024-09-25T15:22:33Z</time>
      </trkpt>
      <trkpt lat="42.36237" lon="2.17497">
        <ele>1191.5</ele>
        <time>2024-09-25T15:22:34Z</time>
      </trkpt>
      <trkpt lat="42.36236" lon="2.17497">
        <ele>1191.5</ele>
        <time>2024-09-25T15:22:35Z</time>
      </trkpt>
      <trkpt lat="42.36234" lon="2.17497">
        <ele>1191.4</ele>
        <time>2024-09-25T15:22:36Z</time>
      </trkpt>
      <trkpt lat="42.36233" lon="2.17497">
        <ele>1191.4</ele>
        <time>2024-09-25T15:22:37Z</time>
      </trkpt>
      <trkpt lat="42.36232" lon="2.17497">
        <ele>1191.4</ele>
        <time>2024-09-25T15:22:38Z</time>
      </trkpt>
      <trkpt lat="42.3623" lon="2.17498">
        <ele>1191.3</ele>
        <time>2024-09-25T15:22:39Z</time>
      </trkpt>
      <trkpt lat="42.36229" lon="2.17498">
        <ele>1191.3</ele>
        <time>2024-09-25T15:22:40Z</time>
      </trkpt>
      <trkpt lat="42.36228" lon="2.17499">
        <ele>1191.2</ele>
        <time>2024-09-25T15:22:41Z</time>
      </trkpt>
      <trkpt lat="42.36227" lon="2.175">
        <ele>1191.2</ele>
        <time>2024-09-25T15:22:42Z</time>
      </trkpt>
      <trkpt lat="42.36226" lon="2.17501">
        <ele>1191.2</ele>
        <time>2024-09-25T15:22:43Z</time>
      </trkpt>
      <trkpt lat="42.36225" lon="2.17501">
        <ele>1191.1</ele>
        <time>2024-09-25T15:22:44Z</time>
      </trkpt>
      <trkpt lat="42.36224" lon="2.17502">
        <ele>1191.1</ele>
        <time>2024-09-25T15:22:45Z</time>
      </trkpt>
      <trkpt lat="42.36223" lon="2.17502">
        <ele>1191.1</ele>
        <time>2024-09-25T15:22:46Z</time>
      </trkpt>
      <trkpt lat="42.36222" lon="2.17502">
        <ele>1191</ele>
        <time>2024-09-25T15:22:47Z</time>
      </trkpt>
      <trkpt lat="42.3622" lon="2.17503">
        <ele>1191</ele>
        <time>2024-09-25T15:22:48Z</time>
      </trkpt>
      <trkpt lat="42.36219" lon="2.17503">
        <ele>1190.9</ele>
        <time>2024-09-25T15:22:49Z</time>
      </trkpt>
      <trkpt lat="42.36218" lon="2.17503">
        <ele>1190.9</ele>
        <time>2024-09-25T15:22:50Z</time>
      </trkpt>
      <trkpt lat="42.36217" lon="2.17503">
        <ele>1190.8</ele>
        <time>2024-09-25T15:22:51Z</time>
      </trkpt>
      <trkpt lat="42.36216" lon="2.17503">
        <ele>1190.8</ele>
        <time>2024-09-25T15:22:52Z</time>
      </trkpt>
      <trkpt lat="42.36215" lon="2.17503">
        <ele>1190.7</ele>
        <time>2024-09-25T15:22:53Z</time>
      </trkpt>
      <trkpt lat="42.36213" lon="2.17501">
        <ele>1190.7</ele>
        <time>2024-09-25T15:22:54Z</time>
      </trkpt>
      <trkpt lat="42.36212" lon="2.17501">
        <ele>1190.6</ele>
        <time>2024-09-25T15:22:55Z</time>
      </trkpt>
      <trkpt lat="42.36211" lon="2.17501">
        <ele>1190.6</ele>
        <time>2024-09-25T15:22:56Z</time>
      </trkpt>
      <trkpt lat="42.3621" lon="2.17501">
        <ele>1190.5</ele>
        <time>2024-09-25T15:22:57Z</time>
      </trkpt>
      <trkpt lat="42.36209" lon="2.17501">
        <ele>1190.5</ele>
        <time>2024-09-25T15:22:58Z</time>
      </trkpt>
      <trkpt lat="42.36209" lon="2.17499">
        <ele>1190.4</ele>
        <time>2024-09-25T15:22:59Z</time>
      </trkpt>
      <trkpt lat="42.36209" lon="2.17498">
        <ele>1190.4</ele>
        <time>2024-09-25T15:23:00Z</time>
      </trkpt>
      <trkpt lat="42.36209" lon="2.17498">
        <ele>1190.4</ele>
        <time>2024-09-25T15:23:01Z</time>
      </trkpt>
      <trkpt lat="42.36209" lon="2.17498">
        <ele>1190.4</ele>
        <time>2024-09-25T15:23:02Z</time>
      </trkpt>
      <trkpt lat="42.3621" lon="2.17499">
        <ele>1190.3</ele>
        <time>2024-09-25T15:23:04Z</time>
      </trkpt>
      <trkpt lat="42.3621" lon="2.17499">
        <ele>1190.3</ele>
        <time>2024-09-25T15:23:05Z</time>
      </trkpt>
      <trkpt lat="42.3621" lon="2.17499">
        <ele>1190.3</ele>
        <time>2024-09-25T15:23:06Z</time>
      </trkpt>
      <trkpt lat="42.3621" lon="2.17499">
        <ele>1190.3</ele>
        <time>2024-09-25T15:23:07Z</time>
      </trkpt>
      <trkpt lat="42.3621" lon="2.17499">
        <ele>1190.3</ele>
        <time>2024-09-25T15:23:08Z</time>
      </trkpt>
      <trkpt lat="42.3621" lon="2.17499">
        <ele>1190.3</ele>
        <time>2024-09-25T15:23:09Z</time>
      </trkpt>
      <trkpt lat="42.3621" lon="2.17499">
        <ele>1190.3</ele>
        <time>2024-09-25T15:23:10Z</time>
      </trkpt>
      <trkpt lat="42.3621" lon="2.17499">
        <ele>1190.3</ele>
        <time>2024-09-25T15:23:11Z</time>
      </trkpt>
      <trkpt lat="42.3621" lon="2.17499">
        <ele>1190.3</ele>
        <time>2024-09-25T15:23:12Z</time>
      </trkpt>
      <trkpt lat="42.3621" lon="2.17499">
        <ele>1190.3</ele>
        <time>2024-09-25T15:23:13Z</time>
      </trkpt>
      <trkpt lat="42.3621" lon="2.17499">
        <ele>1190.3</ele>
        <time>2024-09-25T15:23:14Z</time>
      </trkpt>
      <trkpt lat="42.3621" lon="2.17499">
        <ele>1190.3</ele>
        <time>2024-09-25T15:23:15Z</time>
      </trkpt>
      <trkpt lat="42.3621" lon="2.17499">
        <ele>1190.3</ele>
        <time>2024-09-25T15:23:16Z</time>
      </trkpt>
      <trkpt lat="42.3621" lon="2.17499">
        <ele>1190.3</ele>
        <time>2024-09-25T15:23:17Z</time>
      </trkpt>
      <trkpt lat="42.3621" lon="2.17499">
        <ele>1190.3</ele>
        <time>2024-09-25T15:23:18Z</time>
      </trkpt>
      <trkpt lat="42.3621" lon="2.17499">
        <ele>1190.3</ele>
        <time>2024-09-25T15:23:19Z</time>
      </trkpt>
      <trkpt lat="42.36211" lon="2.17498">
        <ele>1190.2</ele>
        <time>2024-09-25T15:23:20Z</time>
      </trkpt>
      <trkpt lat="42.36211" lon="2.17498">
        <ele>1190.2</ele>
        <time>2024-09-25T15:23:21Z</time>
      </trkpt>
      <trkpt lat="42.36211" lon="2.17498">
        <ele>1190.2</ele>
        <time>2024-09-25T15:23:22Z</time>
      </trkpt>
      <trkpt lat="42.36211" lon="2.17498">
        <ele>1190.2</ele>
        <time>2024-09-25T15:23:23Z</time>
      </trkpt>
      <trkpt lat="42.36211" lon="2.17498">
        <ele>1190.2</ele>
        <time>2024-09-25T15:23:24Z</time>
      </trkpt>
      <trkpt lat="42.36211" lon="2.17498">
        <ele>1190.2</ele>
        <time>2024-09-25T15:23:25Z</time>
      </trkpt>
      <trkpt lat="42.36211" lon="2.17498">
        <ele>1190.2</ele>
        <time>2024-09-25T15:23:26Z</time>
      </trkpt>
      <trkpt lat="42.36211" lon="2.17498">
        <ele>1190.2</ele>
        <time>2024-09-25T15:23:27Z</time>
      </trkpt>
      <trkpt lat="42.36211" lon="2.17498">
        <ele>1190.2</ele>
        <time>2024-09-25T15:23:28Z</time>
      </trkpt>
      <trkpt lat="42.36211" lon="2.17498">
        <ele>1190.2</ele>
        <time>2024-09-25T15:23:29Z</time>
      </trkpt>
      <trkpt lat="42.36211" lon="2.17498">
        <ele>1190.2</ele>
        <time>2024-09-25T15:23:30Z</time>
      </trkpt>
      <trkpt lat="42.36211" lon="2.17498">
        <ele>1190.2</ele>
        <time>2024-09-25T15:23:31Z</time>
      </trkpt>
      <trkpt lat="42.36211" lon="2.17498">
        <ele>1190.2</ele>
        <time>2024-09-25T15:23:32Z</time>
      </trkpt>
      <trkpt lat="42.36211" lon="2.17498">
        <ele>1190.2</ele>
        <time>2024-09-25T15:23:33Z</time>
      </trkpt>
      <trkpt lat="42.36211" lon="2.17498">
        <ele>1190.2</ele>
        <time>2024-09-25T15:23:34Z</time>
      </trkpt>
      <trkpt lat="42.36211" lon="2.17498">
        <ele>1190.2</ele>
        <time>2024-09-25T15:23:35Z</time>
      </trkpt>
      <trkpt lat="42.3621" lon="2.17498">
        <ele>1190.2</ele>
        <time>2024-09-25T15:23:36Z</time>
      </trkpt>
      <trkpt lat="42.3621" lon="2.17498">
        <ele>1190.1</ele>
        <time>2024-09-25T15:23:37Z</time>
      </trkpt>
      <trkpt lat="42.3621" lon="2.17498">
        <ele>1190.1</ele>
        <time>2024-09-25T15:23:38Z</time>
      </trkpt>
      <trkpt lat="42.36209" lon="2.17497">
        <ele>1190.1</ele>
        <time>2024-09-25T15:23:39Z</time>
      </trkpt>
      <trkpt lat="42.36209" lon="2.17497">
        <ele>1190.1</ele>
        <time>2024-09-25T15:23:40Z</time>
      </trkpt>
      <trkpt lat="42.36209" lon="2.17496">
        <ele>1190.1</ele>
        <time>2024-09-25T15:23:41Z</time>
      </trkpt>
      <trkpt lat="42.36209" lon="2.17496">
        <ele>1190</ele>
        <time>2024-09-25T15:23:42Z</time>
      </trkpt>
      <trkpt lat="42.36209" lon="2.17496">
        <ele>1190</ele>
        <time>2024-09-25T15:23:43Z</time>
      </trkpt>
      <trkpt lat="42.36209" lon="2.17496">
        <ele>1190</ele>
        <time>2024-09-25T15:23:44Z</time>
      </trkpt>
      <trkpt lat="42.36209" lon="2.17496">
        <ele>1190</ele>
        <time>2024-09-25T15:23:45Z</time>
      </trkpt>
    </trkseg>
  </trk>
</gpx>